<?xml version="1.0" encoding="UTF-8"?>
<gpx version="1.1" creator="https://www.youtrack.es" xsi:schemaLocation="http://www.topografix.com/GPX/1/1 http://www.topografix.com/GPX/1/1/gpx.xsd http://www.garmin.com/xmlschemas/GpxExtensions/v3 http://www.garmin.com/xmlschemas/GpxExtensionsv3.xsd http://www.garmin.com/xmlschemas/TrackPointExtension/v1 http://www.garmin.com/xmlschemas/TrackPointExtensionv1.xsd" xmlns:gpxtpx="http://www.garmin.com/xmlschemas/TrackPointExtension/v1" xmlns:gpxx="http://www.garmin.com/xmlschemas/GpxExtensions/v3" xmlns:xsi="http://www.w3.org/2001/XMLSchema-instance">
  <metadata>
    <link href="https://www.youtrack.es">
      <text>YouTrack.es</text>
    </link>
    <time>2026-05-07T20:37:52Z</time>
  </metadata>
  <trk>
    <src>https://www.youtrack.es</src>
    <link href="https://www.youtrack.es/ruta/25218-ruta">
      <text>YouTrack.es</text>
    </link>
    <trkseg>
      <trkpt lat="40.026463" lon="-2.11614">
        <time>2021-08-23T10:28:54Z</time>
      </trkpt>
      <trkpt lat="40.026477" lon="-2.116123">
        <time>2021-08-23T10:29:03Z</time>
      </trkpt>
      <trkpt lat="40.026477" lon="-2.116123">
        <time>2021-08-23T10:31:50Z</time>
      </trkpt>
      <trkpt lat="40.02646" lon="-2.116261">
        <time>2021-08-23T10:32:27Z</time>
      </trkpt>
      <trkpt lat="40.026427" lon="-2.116237">
        <time>2021-08-23T10:32:30Z</time>
      </trkpt>
      <trkpt lat="40.026435" lon="-2.11607">
        <time>2021-08-23T10:32:33Z</time>
      </trkpt>
      <trkpt lat="40.026466" lon="-2.115004">
        <time>2021-08-23T10:32:45Z</time>
      </trkpt>
      <trkpt lat="40.0264" lon="-2.114737">
        <time>2021-08-23T10:32:48Z</time>
      </trkpt>
      <trkpt lat="40.026491" lon="-2.114488">
        <time>2021-08-23T10:32:51Z</time>
      </trkpt>
      <trkpt lat="40.026634" lon="-2.114241">
        <time>2021-08-23T10:32:54Z</time>
      </trkpt>
      <trkpt lat="40.026678" lon="-2.11389">
        <time>2021-08-23T10:32:57Z</time>
      </trkpt>
      <trkpt lat="40.02674" lon="-2.112459">
        <time>2021-08-23T10:33:09Z</time>
      </trkpt>
      <trkpt lat="40.026649" lon="-2.11197">
        <time>2021-08-23T10:33:15Z</time>
      </trkpt>
      <trkpt lat="40.026806" lon="-2.111835">
        <time>2021-08-23T10:33:18Z</time>
      </trkpt>
      <trkpt lat="40.026984" lon="-2.111901">
        <time>2021-08-23T10:33:21Z</time>
      </trkpt>
      <trkpt lat="40.027054" lon="-2.112098">
        <time>2021-08-23T10:33:24Z</time>
      </trkpt>
      <trkpt lat="40.026984" lon="-2.111901">
        <time>2021-08-23T10:33:25Z</time>
      </trkpt>
      <trkpt lat="40.026979" lon="-2.112353">
        <time>2021-08-23T10:33:27Z</time>
      </trkpt>
      <trkpt lat="40.026979" lon="-2.112667">
        <time>2021-08-23T10:33:30Z</time>
      </trkpt>
      <trkpt lat="40.027086" lon="-2.113007">
        <time>2021-08-23T10:33:33Z</time>
      </trkpt>
      <trkpt lat="40.027308" lon="-2.113274">
        <time>2021-08-23T10:33:36Z</time>
      </trkpt>
      <trkpt lat="40.027637" lon="-2.113385">
        <time>2021-08-23T10:33:39Z</time>
      </trkpt>
      <trkpt lat="40.031914" lon="-2.114116">
        <time>2021-08-23T10:34:06Z</time>
      </trkpt>
      <trkpt lat="40.036617" lon="-2.114667">
        <time>2021-08-23T10:34:33Z</time>
      </trkpt>
      <trkpt lat="40.041489" lon="-2.115951">
        <time>2021-08-23T10:35:00Z</time>
      </trkpt>
      <trkpt lat="40.043682" lon="-2.116723">
        <time>2021-08-23T10:35:12Z</time>
      </trkpt>
      <trkpt lat="40.045437" lon="-2.118668">
        <time>2021-08-23T10:35:24Z</time>
      </trkpt>
      <trkpt lat="40.045437" lon="-2.118668">
        <time>2021-08-23T10:35:24Z</time>
      </trkpt>
      <trkpt lat="40.046861" lon="-2.119928">
        <time>2021-08-23T10:35:33Z</time>
      </trkpt>
      <trkpt lat="40.049506" lon="-2.12156">
        <time>2021-08-23T10:35:51Z</time>
      </trkpt>
      <trkpt lat="40.053395" lon="-2.124923">
        <time>2021-08-23T10:36:33Z</time>
      </trkpt>
      <trkpt lat="40.05405" lon="-2.125481">
        <time>2021-08-23T10:36:54Z</time>
      </trkpt>
      <trkpt lat="40.054163" lon="-2.125602">
        <time>2021-08-23T10:37:00Z</time>
      </trkpt>
      <trkpt lat="40.054601" lon="-2.125866">
        <time>2021-08-23T10:37:09Z</time>
      </trkpt>
      <trkpt lat="40.054856" lon="-2.126175">
        <time>2021-08-23T10:37:12Z</time>
      </trkpt>
      <trkpt lat="40.055765" lon="-2.126841">
        <time>2021-08-23T10:37:27Z</time>
      </trkpt>
      <trkpt lat="40.055953" lon="-2.126887">
        <time>2021-08-23T10:37:30Z</time>
      </trkpt>
      <trkpt lat="40.056055" lon="-2.127104">
        <time>2021-08-23T10:37:33Z</time>
      </trkpt>
      <trkpt lat="40.056186" lon="-2.127347">
        <time>2021-08-23T10:37:36Z</time>
      </trkpt>
      <trkpt lat="40.057079" lon="-2.128216">
        <time>2021-08-23T10:38:03Z</time>
      </trkpt>
      <trkpt lat="40.059196" lon="-2.129936">
        <time>2021-08-23T10:38:30Z</time>
      </trkpt>
      <trkpt lat="40.059389" lon="-2.129905">
        <time>2021-08-23T10:38:33Z</time>
      </trkpt>
      <trkpt lat="40.059571" lon="-2.129987">
        <time>2021-08-23T10:38:36Z</time>
      </trkpt>
      <trkpt lat="40.059697" lon="-2.130181">
        <time>2021-08-23T10:38:39Z</time>
      </trkpt>
      <trkpt lat="40.059803" lon="-2.130369">
        <time>2021-08-23T10:38:42Z</time>
      </trkpt>
      <trkpt lat="40.06002" lon="-2.130525">
        <time>2021-08-23T10:38:45Z</time>
      </trkpt>
      <trkpt lat="40.061101" lon="-2.131269">
        <time>2021-08-23T10:38:57Z</time>
      </trkpt>
      <trkpt lat="40.062765" lon="-2.132398">
        <time>2021-08-23T10:39:33Z</time>
      </trkpt>
      <trkpt lat="40.062888" lon="-2.132489">
        <time>2021-08-23T10:39:36Z</time>
      </trkpt>
      <trkpt lat="40.065256" lon="-2.134145">
        <time>2021-08-23T10:40:09Z</time>
      </trkpt>
      <trkpt lat="40.066526" lon="-2.134908">
        <time>2021-08-23T10:40:24Z</time>
      </trkpt>
      <trkpt lat="40.066819" lon="-2.135109">
        <time>2021-08-23T10:40:30Z</time>
      </trkpt>
      <trkpt lat="40.067002" lon="-2.135182">
        <time>2021-08-23T10:40:33Z</time>
      </trkpt>
      <trkpt lat="40.067487" lon="-2.135357">
        <time>2021-08-23T10:40:48Z</time>
      </trkpt>
      <trkpt lat="40.067557" lon="-2.135371">
        <time>2021-08-23T10:40:51Z</time>
      </trkpt>
      <trkpt lat="40.068041" lon="-2.13557">
        <time>2021-08-23T10:41:06Z</time>
      </trkpt>
      <trkpt lat="40.068466" lon="-2.135773">
        <time>2021-08-23T10:41:18Z</time>
      </trkpt>
      <trkpt lat="40.068799" lon="-2.135826">
        <time>2021-08-23T10:41:27Z</time>
      </trkpt>
      <trkpt lat="40.06938" lon="-2.135676">
        <time>2021-08-23T10:41:42Z</time>
      </trkpt>
      <trkpt lat="40.069502" lon="-2.135635">
        <time>2021-08-23T10:41:45Z</time>
      </trkpt>
      <trkpt lat="40.069613" lon="-2.135657">
        <time>2021-08-23T10:41:48Z</time>
      </trkpt>
      <trkpt lat="40.069776" lon="-2.13562">
        <time>2021-08-23T10:41:54Z</time>
      </trkpt>
      <trkpt lat="40.069878" lon="-2.135541">
        <time>2021-08-23T10:42:00Z</time>
      </trkpt>
      <trkpt lat="40.06994" lon="-2.135442">
        <time>2021-08-23T10:42:03Z</time>
      </trkpt>
      <trkpt lat="40.07011" lon="-2.135225">
        <time>2021-08-23T10:42:09Z</time>
      </trkpt>
      <trkpt lat="40.070222" lon="-2.13519">
        <time>2021-08-23T10:42:12Z</time>
      </trkpt>
      <trkpt lat="40.070348" lon="-2.135228">
        <time>2021-08-23T10:42:15Z</time>
      </trkpt>
      <trkpt lat="40.070888" lon="-2.134915">
        <time>2021-08-23T10:44:19Z</time>
      </trkpt>
      <trkpt lat="40.070888" lon="-2.134915">
        <time>2021-08-23T10:44:19Z</time>
      </trkpt>
      <trkpt lat="40.070888" lon="-2.134915">
        <time>2021-08-23T10:44:19Z</time>
      </trkpt>
      <trkpt lat="40.071132" lon="-2.134718">
        <time>2021-08-23T11:14:27Z</time>
      </trkpt>
      <trkpt lat="40.071086" lon="-2.134817">
        <time>2021-08-23T11:15:10Z</time>
      </trkpt>
      <trkpt lat="40.0711" lon="-2.134814">
        <time>2021-08-23T11:15:19Z</time>
      </trkpt>
      <trkpt lat="40.07112" lon="-2.134731">
        <time>2021-08-23T11:15:22Z</time>
      </trkpt>
      <trkpt lat="40.071164" lon="-2.134695">
        <time>2021-08-23T11:15:25Z</time>
      </trkpt>
      <trkpt lat="40.071223" lon="-2.13465">
        <time>2021-08-23T11:15:28Z</time>
      </trkpt>
      <trkpt lat="40.071392" lon="-2.134388">
        <time>2021-08-23T11:15:40Z</time>
      </trkpt>
      <trkpt lat="40.071503" lon="-2.134344">
        <time>2021-08-23T11:15:46Z</time>
      </trkpt>
      <trkpt lat="40.071536" lon="-2.134332">
        <time>2021-08-23T11:15:49Z</time>
      </trkpt>
      <trkpt lat="40.071613" lon="-2.134372">
        <time>2021-08-23T11:15:52Z</time>
      </trkpt>
      <trkpt lat="40.071733" lon="-2.134242">
        <time>2021-08-23T11:16:07Z</time>
      </trkpt>
      <trkpt lat="40.07199" lon="-2.134222">
        <time>2021-08-23T11:16:16Z</time>
      </trkpt>
      <trkpt lat="40.072056" lon="-2.134197">
        <time>2021-08-23T11:16:19Z</time>
      </trkpt>
      <trkpt lat="40.072392" lon="-2.134009">
        <time>2021-08-23T11:16:28Z</time>
      </trkpt>
      <trkpt lat="40.072746" lon="-2.133445">
        <time>2021-08-23T11:16:40Z</time>
      </trkpt>
      <trkpt lat="40.073033" lon="-2.132807">
        <time>2021-08-23T11:16:49Z</time>
      </trkpt>
      <trkpt lat="40.073134" lon="-2.13272">
        <time>2021-08-23T11:16:52Z</time>
      </trkpt>
      <trkpt lat="40.073523" lon="-2.132487">
        <time>2021-08-23T11:17:01Z</time>
      </trkpt>
      <trkpt lat="40.073686" lon="-2.132448">
        <time>2021-08-23T11:17:04Z</time>
      </trkpt>
      <trkpt lat="40.073772" lon="-2.132268">
        <time>2021-08-23T11:17:07Z</time>
      </trkpt>
      <trkpt lat="40.073772" lon="-2.132268">
        <time>2021-08-23T11:17:10Z</time>
      </trkpt>
      <trkpt lat="40.073917" lon="-2.13202">
        <time>2021-08-23T11:17:10Z</time>
      </trkpt>
      <trkpt lat="40.074109" lon="-2.131795">
        <time>2021-08-23T11:17:13Z</time>
      </trkpt>
      <trkpt lat="40.074309" lon="-2.131637">
        <time>2021-08-23T11:17:16Z</time>
      </trkpt>
      <trkpt lat="40.074657" lon="-2.131396">
        <time>2021-08-23T11:17:22Z</time>
      </trkpt>
      <trkpt lat="40.074831" lon="-2.131177">
        <time>2021-08-23T11:17:25Z</time>
      </trkpt>
      <trkpt lat="40.07584" lon="-2.129926">
        <time>2021-08-23T11:17:43Z</time>
      </trkpt>
      <trkpt lat="40.07584" lon="-2.129926">
        <time>2021-08-23T11:17:43Z</time>
      </trkpt>
      <trkpt lat="40.076156" lon="-2.129589">
        <time>2021-08-23T11:17:49Z</time>
      </trkpt>
      <trkpt lat="40.076298" lon="-2.12925">
        <time>2021-08-23T11:17:55Z</time>
      </trkpt>
      <trkpt lat="40.076366" lon="-2.128881">
        <time>2021-08-23T11:18:04Z</time>
      </trkpt>
      <trkpt lat="40.076428" lon="-2.128584">
        <time>2021-08-23T11:18:10Z</time>
      </trkpt>
      <trkpt lat="40.076512" lon="-2.128403">
        <time>2021-08-23T11:19:34Z</time>
      </trkpt>
      <trkpt lat="40.076841" lon="-2.127744">
        <time>2021-08-23T11:19:43Z</time>
      </trkpt>
      <trkpt lat="40.076977" lon="-2.127513">
        <time>2021-08-23T11:19:46Z</time>
      </trkpt>
      <trkpt lat="40.077174" lon="-2.127387">
        <time>2021-08-23T11:19:49Z</time>
      </trkpt>
      <trkpt lat="40.077559" lon="-2.127142">
        <time>2021-08-23T11:20:40Z</time>
      </trkpt>
      <trkpt lat="40.077597" lon="-2.127133">
        <time>2021-08-23T11:20:49Z</time>
      </trkpt>
      <trkpt lat="40.078411" lon="-2.126847">
        <time>2021-08-23T11:21:10Z</time>
      </trkpt>
      <trkpt lat="40.078391" lon="-2.126807">
        <time>2021-08-23T11:21:55Z</time>
      </trkpt>
      <trkpt lat="40.078428" lon="-2.126747">
        <time>2021-08-23T11:23:59Z</time>
      </trkpt>
      <trkpt lat="40.078428" lon="-2.126747">
        <time>2021-08-23T11:24:05Z</time>
      </trkpt>
      <trkpt lat="40.078428" lon="-2.126747">
        <time>2021-08-23T11:25:42Z</time>
      </trkpt>
      <trkpt lat="40.078485" lon="-2.12673">
        <time>2021-08-23T11:26:25Z</time>
      </trkpt>
      <trkpt lat="40.078538" lon="-2.126698">
        <time>2021-08-23T11:26:28Z</time>
      </trkpt>
      <trkpt lat="40.078529" lon="-2.126658">
        <time>2021-08-23T11:28:01Z</time>
      </trkpt>
      <trkpt lat="40.078529" lon="-2.126658">
        <time>2021-08-23T11:28:11Z</time>
      </trkpt>
      <trkpt lat="40.078514" lon="-2.126656">
        <time>2021-08-23T11:28:55Z</time>
      </trkpt>
      <trkpt lat="40.078436" lon="-2.126682">
        <time>2021-08-23T11:28:58Z</time>
      </trkpt>
      <trkpt lat="40.078449" lon="-2.126784">
        <time>2021-08-23T11:29:01Z</time>
      </trkpt>
      <trkpt lat="40.078366" lon="-2.126862">
        <time>2021-08-23T11:29:04Z</time>
      </trkpt>
      <trkpt lat="40.077875" lon="-2.127044">
        <time>2021-08-23T11:29:13Z</time>
      </trkpt>
      <trkpt lat="40.077095" lon="-2.127349">
        <time>2021-08-23T11:29:22Z</time>
      </trkpt>
      <trkpt lat="40.076549" lon="-2.128053">
        <time>2021-08-23T11:29:34Z</time>
      </trkpt>
      <trkpt lat="40.076403" lon="-2.128346">
        <time>2021-08-23T11:29:40Z</time>
      </trkpt>
      <trkpt lat="40.07641" lon="-2.128482">
        <time>2021-08-23T11:29:43Z</time>
      </trkpt>
      <trkpt lat="40.07637" lon="-2.128662">
        <time>2021-08-23T11:29:46Z</time>
      </trkpt>
      <trkpt lat="40.076194" lon="-2.12907">
        <time>2021-08-23T11:29:55Z</time>
      </trkpt>
      <trkpt lat="40.076309" lon="-2.128938">
        <time>2021-08-23T11:29:56Z</time>
      </trkpt>
      <trkpt lat="40.075847" lon="-2.129264">
        <time>2021-08-23T11:30:01Z</time>
      </trkpt>
      <trkpt lat="40.075743" lon="-2.129308">
        <time>2021-08-23T11:30:04Z</time>
      </trkpt>
      <trkpt lat="40.075613" lon="-2.129462">
        <time>2021-08-23T11:30:07Z</time>
      </trkpt>
      <trkpt lat="40.074772" lon="-2.130257">
        <time>2021-08-23T11:30:19Z</time>
      </trkpt>
      <trkpt lat="40.074265" lon="-2.130755">
        <time>2021-08-23T11:30:25Z</time>
      </trkpt>
      <trkpt lat="40.074037" lon="-2.131113">
        <time>2021-08-23T11:30:31Z</time>
      </trkpt>
      <trkpt lat="40.074031" lon="-2.1312">
        <time>2021-08-23T11:30:34Z</time>
      </trkpt>
      <trkpt lat="40.07406" lon="-2.131341">
        <time>2021-08-23T11:30:37Z</time>
      </trkpt>
      <trkpt lat="40.07405" lon="-2.131448">
        <time>2021-08-23T11:30:40Z</time>
      </trkpt>
      <trkpt lat="40.073998" lon="-2.131554">
        <time>2021-08-23T11:30:43Z</time>
      </trkpt>
      <trkpt lat="40.07389" lon="-2.131575">
        <time>2021-08-23T11:30:46Z</time>
      </trkpt>
      <trkpt lat="40.0738" lon="-2.131626">
        <time>2021-08-23T11:30:49Z</time>
      </trkpt>
      <trkpt lat="40.07368" lon="-2.13191">
        <time>2021-08-23T11:30:55Z</time>
      </trkpt>
      <trkpt lat="40.07346" lon="-2.132343">
        <time>2021-08-23T11:30:58Z</time>
      </trkpt>
      <trkpt lat="40.073566" lon="-2.132724">
        <time>2021-08-23T11:31:07Z</time>
      </trkpt>
      <trkpt lat="40.073566" lon="-2.132724">
        <time>2021-08-23T11:31:07Z</time>
      </trkpt>
      <trkpt lat="40.073745" lon="-2.132944">
        <time>2021-08-23T11:31:16Z</time>
      </trkpt>
      <trkpt lat="40.073745" lon="-2.132944">
        <time>2021-08-23T11:31:16Z</time>
      </trkpt>
      <trkpt lat="40.073745" lon="-2.132944">
        <time>2021-08-23T11:31:16Z</time>
      </trkpt>
      <trkpt lat="40.073745" lon="-2.132944">
        <time>2021-08-23T11:31:16Z</time>
      </trkpt>
      <trkpt lat="40.073745" lon="-2.132944">
        <time>2021-08-23T11:31:16Z</time>
      </trkpt>
      <trkpt lat="40.073745" lon="-2.132944">
        <time>2021-08-23T11:31:16Z</time>
      </trkpt>
      <trkpt lat="40.073687" lon="-2.133065">
        <time>2021-08-23T11:31:19Z</time>
      </trkpt>
      <trkpt lat="40.073452" lon="-2.133515">
        <time>2021-08-23T11:31:28Z</time>
      </trkpt>
      <trkpt lat="40.07354" lon="-2.133691">
        <time>2021-08-23T11:31:34Z</time>
      </trkpt>
      <trkpt lat="40.073571" lon="-2.133775">
        <time>2021-08-23T11:31:37Z</time>
      </trkpt>
      <trkpt lat="40.073552" lon="-2.133925">
        <time>2021-08-23T11:31:40Z</time>
      </trkpt>
      <trkpt lat="40.07348" lon="-2.134622">
        <time>2021-08-23T11:32:43Z</time>
      </trkpt>
      <trkpt lat="40.073462" lon="-2.134896">
        <time>2021-08-23T11:32:46Z</time>
      </trkpt>
      <trkpt lat="40.073384" lon="-2.135352">
        <time>2021-08-23T11:32:52Z</time>
      </trkpt>
      <trkpt lat="40.073317" lon="-2.135475">
        <time>2021-08-23T11:32:55Z</time>
      </trkpt>
      <trkpt lat="40.073282" lon="-2.135643">
        <time>2021-08-23T11:32:58Z</time>
      </trkpt>
      <trkpt lat="40.07337" lon="-2.13582">
        <time>2021-08-23T11:33:04Z</time>
      </trkpt>
      <trkpt lat="40.073483" lon="-2.135853">
        <time>2021-08-23T11:33:07Z</time>
      </trkpt>
      <trkpt lat="40.074122" lon="-2.135975">
        <time>2021-08-23T11:33:22Z</time>
      </trkpt>
      <trkpt lat="40.074351" lon="-2.136405">
        <time>2021-08-23T11:33:37Z</time>
      </trkpt>
      <trkpt lat="40.074424" lon="-2.136626">
        <time>2021-08-23T11:33:43Z</time>
      </trkpt>
      <trkpt lat="40.074471" lon="-2.136721">
        <time>2021-08-23T11:33:46Z</time>
      </trkpt>
      <trkpt lat="40.074544" lon="-2.13669">
        <time>2021-08-23T11:33:49Z</time>
      </trkpt>
      <trkpt lat="40.074805" lon="-2.136721">
        <time>2021-08-23T11:33:52Z</time>
      </trkpt>
      <trkpt lat="40.074805" lon="-2.136721">
        <time>2021-08-23T11:33:52Z</time>
      </trkpt>
      <trkpt lat="40.075363" lon="-2.136549">
        <time>2021-08-23T11:33:58Z</time>
      </trkpt>
      <trkpt lat="40.076513" lon="-2.136233">
        <time>2021-08-23T11:34:13Z</time>
      </trkpt>
      <trkpt lat="40.076715" lon="-2.136323">
        <time>2021-08-23T11:34:16Z</time>
      </trkpt>
      <trkpt lat="40.076882" lon="-2.136184">
        <time>2021-08-23T11:34:19Z</time>
      </trkpt>
      <trkpt lat="40.077119" lon="-2.135865">
        <time>2021-08-23T11:34:25Z</time>
      </trkpt>
      <trkpt lat="40.077093" lon="-2.135738">
        <time>2021-08-23T11:34:28Z</time>
      </trkpt>
      <trkpt lat="40.07694" lon="-2.135345">
        <time>2021-08-23T11:34:34Z</time>
      </trkpt>
      <trkpt lat="40.076407" lon="-2.134191">
        <time>2021-08-23T11:34:49Z</time>
      </trkpt>
      <trkpt lat="40.076434" lon="-2.134238">
        <time>2021-08-23T11:34:52Z</time>
      </trkpt>
      <trkpt lat="40.076664" lon="-2.134393">
        <time>2021-08-23T11:34:58Z</time>
      </trkpt>
      <trkpt lat="40.076673" lon="-2.134364">
        <time>2021-08-23T11:35:01Z</time>
      </trkpt>
      <trkpt lat="40.076496" lon="-2.133829">
        <time>2021-08-23T11:35:13Z</time>
      </trkpt>
      <trkpt lat="40.07648" lon="-2.133569">
        <time>2021-08-23T11:35:16Z</time>
      </trkpt>
      <trkpt lat="40.07648" lon="-2.133569">
        <time>2021-08-23T11:35:16Z</time>
      </trkpt>
      <trkpt lat="40.076345" lon="-2.133069">
        <time>2021-08-23T11:35:22Z</time>
      </trkpt>
      <trkpt lat="40.076083" lon="-2.132393">
        <time>2021-08-23T11:35:31Z</time>
      </trkpt>
      <trkpt lat="40.076115" lon="-2.132156">
        <time>2021-08-23T11:35:34Z</time>
      </trkpt>
      <trkpt lat="40.076235" lon="-2.131463">
        <time>2021-08-23T11:35:43Z</time>
      </trkpt>
      <trkpt lat="40.076235" lon="-2.131463">
        <time>2021-08-23T11:35:43Z</time>
      </trkpt>
      <trkpt lat="40.076753" lon="-2.130481">
        <time>2021-08-23T11:36:16Z</time>
      </trkpt>
      <trkpt lat="40.076753" lon="-2.130481">
        <time>2021-08-23T11:36:16Z</time>
      </trkpt>
      <trkpt lat="40.076832" lon="-2.130377">
        <time>2021-08-23T11:36:22Z</time>
      </trkpt>
      <trkpt lat="40.07695" lon="-2.130304">
        <time>2021-08-23T11:36:31Z</time>
      </trkpt>
      <trkpt lat="40.077002" lon="-2.130324">
        <time>2021-08-23T11:36:34Z</time>
      </trkpt>
      <trkpt lat="40.077184" lon="-2.130402">
        <time>2021-08-23T11:36:43Z</time>
      </trkpt>
      <trkpt lat="40.077469" lon="-2.130271">
        <time>2021-08-23T11:36:55Z</time>
      </trkpt>
      <trkpt lat="40.077613" lon="-2.13019">
        <time>2021-08-23T11:36:58Z</time>
      </trkpt>
      <trkpt lat="40.077793" lon="-2.130111">
        <time>2021-08-23T11:37:04Z</time>
      </trkpt>
      <trkpt lat="40.078176" lon="-2.130136">
        <time>2021-08-23T11:37:13Z</time>
      </trkpt>
      <trkpt lat="40.078316" lon="-2.130127">
        <time>2021-08-23T11:38:16Z</time>
      </trkpt>
      <trkpt lat="40.078316" lon="-2.130127">
        <time>2021-08-23T11:38:16Z</time>
      </trkpt>
      <trkpt lat="40.078636" lon="-2.129683">
        <time>2021-08-23T12:01:06Z</time>
      </trkpt>
      <trkpt lat="40.078593" lon="-2.129776">
        <time>2021-08-23T12:01:21Z</time>
      </trkpt>
      <trkpt lat="40.078661" lon="-2.129862">
        <time>2021-08-23T12:01:57Z</time>
      </trkpt>
      <trkpt lat="40.078666" lon="-2.129741">
        <time>2021-08-23T12:02:09Z</time>
      </trkpt>
      <trkpt lat="40.078735" lon="-2.129706">
        <time>2021-08-23T12:02:12Z</time>
      </trkpt>
      <trkpt lat="40.07887" lon="-2.129678">
        <time>2021-08-23T12:02:18Z</time>
      </trkpt>
      <trkpt lat="40.078992" lon="-2.129635">
        <time>2021-08-23T12:02:21Z</time>
      </trkpt>
      <trkpt lat="40.0799" lon="-2.129352">
        <time>2021-08-23T12:02:42Z</time>
      </trkpt>
      <trkpt lat="40.08053" lon="-2.129206">
        <time>2021-08-23T12:02:48Z</time>
      </trkpt>
      <trkpt lat="40.080722" lon="-2.128952">
        <time>2021-08-23T12:02:51Z</time>
      </trkpt>
      <trkpt lat="40.081697" lon="-2.126916">
        <time>2021-08-23T12:03:18Z</time>
      </trkpt>
      <trkpt lat="40.081768" lon="-2.126715">
        <time>2021-08-23T12:03:18Z</time>
      </trkpt>
      <trkpt lat="40.081807" lon="-2.126633">
        <time>2021-08-23T12:03:21Z</time>
      </trkpt>
      <trkpt lat="40.081869" lon="-2.126627">
        <time>2021-08-23T12:03:24Z</time>
      </trkpt>
      <trkpt lat="40.081872" lon="-2.126616">
        <time>2021-08-23T12:03:27Z</time>
      </trkpt>
      <trkpt lat="40.081833" lon="-2.126534">
        <time>2021-08-23T12:03:30Z</time>
      </trkpt>
      <trkpt lat="40.081852" lon="-2.126336">
        <time>2021-08-23T12:03:33Z</time>
      </trkpt>
      <trkpt lat="40.081852" lon="-2.126336">
        <time>2021-08-23T12:03:33Z</time>
      </trkpt>
      <trkpt lat="40.082011" lon="-2.124298">
        <time>2021-08-23T12:04:00Z</time>
      </trkpt>
      <trkpt lat="40.082139" lon="-2.123875">
        <time>2021-08-23T12:04:09Z</time>
      </trkpt>
      <trkpt lat="40.082444" lon="-2.123267">
        <time>2021-08-23T12:04:30Z</time>
      </trkpt>
      <trkpt lat="40.082494" lon="-2.123261">
        <time>2021-08-23T12:04:33Z</time>
      </trkpt>
      <trkpt lat="40.082513" lon="-2.123249">
        <time>2021-08-23T12:04:36Z</time>
      </trkpt>
      <trkpt lat="40.082383" lon="-2.123372">
        <time>2021-08-23T12:04:42Z</time>
      </trkpt>
      <trkpt lat="40.082045" lon="-2.123819">
        <time>2021-08-23T12:04:57Z</time>
      </trkpt>
      <trkpt lat="40.081905" lon="-2.123917">
        <time>2021-08-23T12:05:03Z</time>
      </trkpt>
      <trkpt lat="40.081886" lon="-2.123976">
        <time>2021-08-23T12:05:25Z</time>
      </trkpt>
      <trkpt lat="40.081886" lon="-2.123976">
        <time>2021-08-23T12:05:25Z</time>
      </trkpt>
      <trkpt lat="40.081886" lon="-2.123976">
        <time>2021-08-23T12:05:25Z</time>
      </trkpt>
      <trkpt lat="40.081867" lon="-2.123971">
        <time>2021-08-23T12:15:46Z</time>
      </trkpt>
      <trkpt lat="40.08184" lon="-2.124007">
        <time>2021-08-23T12:15:55Z</time>
      </trkpt>
      <trkpt lat="40.081927" lon="-2.12386">
        <time>2021-08-23T12:15:58Z</time>
      </trkpt>
      <trkpt lat="40.081976" lon="-2.123838">
        <time>2021-08-23T12:16:01Z</time>
      </trkpt>
      <trkpt lat="40.081996" lon="-2.123897">
        <time>2021-08-23T12:16:04Z</time>
      </trkpt>
      <trkpt lat="40.081975" lon="-2.12409">
        <time>2021-08-23T12:16:07Z</time>
      </trkpt>
      <trkpt lat="40.081876" lon="-2.124982">
        <time>2021-08-23T12:16:16Z</time>
      </trkpt>
      <trkpt lat="40.081894" lon="-2.126358">
        <time>2021-08-23T12:16:31Z</time>
      </trkpt>
      <trkpt lat="40.082016" lon="-2.126437">
        <time>2021-08-23T12:16:34Z</time>
      </trkpt>
      <trkpt lat="40.082137" lon="-2.126444">
        <time>2021-08-23T12:16:37Z</time>
      </trkpt>
      <trkpt lat="40.082401" lon="-2.126292">
        <time>2021-08-23T12:16:43Z</time>
      </trkpt>
      <trkpt lat="40.082594" lon="-2.126104">
        <time>2021-08-23T12:16:52Z</time>
      </trkpt>
      <trkpt lat="40.082654" lon="-2.125985">
        <time>2021-08-23T12:16:52Z</time>
      </trkpt>
      <trkpt lat="40.082869" lon="-2.125568">
        <time>2021-08-23T12:17:07Z</time>
      </trkpt>
      <trkpt lat="40.083109" lon="-2.125494">
        <time>2021-08-23T12:17:13Z</time>
      </trkpt>
      <trkpt lat="40.08323" lon="-2.125444">
        <time>2021-08-23T12:17:19Z</time>
      </trkpt>
      <trkpt lat="40.083441" lon="-2.125366">
        <time>2021-08-23T12:17:25Z</time>
      </trkpt>
      <trkpt lat="40.084072" lon="-2.125322">
        <time>2021-08-23T12:17:37Z</time>
      </trkpt>
      <trkpt lat="40.084164" lon="-2.125259">
        <time>2021-08-23T12:17:40Z</time>
      </trkpt>
      <trkpt lat="40.084214" lon="-2.125195">
        <time>2021-08-23T12:19:44Z</time>
      </trkpt>
      <trkpt lat="40.084214" lon="-2.125195">
        <time>2021-08-23T12:19:44Z</time>
      </trkpt>
      <trkpt lat="40.084214" lon="-2.125195">
        <time>2021-08-23T12:20:33Z</time>
      </trkpt>
      <trkpt lat="40.084216" lon="-2.125178">
        <time>2021-08-23T12:20:40Z</time>
      </trkpt>
      <trkpt lat="40.084216" lon="-2.125178">
        <time>2021-08-23T12:20:40Z</time>
      </trkpt>
      <trkpt lat="40.084257" lon="-2.125179">
        <time>2021-08-23T12:20:43Z</time>
      </trkpt>
      <trkpt lat="40.0842" lon="-2.125223">
        <time>2021-08-23T12:20:46Z</time>
      </trkpt>
      <trkpt lat="40.084069" lon="-2.125214">
        <time>2021-08-23T12:20:49Z</time>
      </trkpt>
      <trkpt lat="40.083874" lon="-2.125181">
        <time>2021-08-23T12:20:52Z</time>
      </trkpt>
      <trkpt lat="40.083364" lon="-2.125149">
        <time>2021-08-23T12:20:58Z</time>
      </trkpt>
      <trkpt lat="40.082766" lon="-2.125619">
        <time>2021-08-23T12:21:07Z</time>
      </trkpt>
      <trkpt lat="40.0825" lon="-2.12613">
        <time>2021-08-23T12:21:13Z</time>
      </trkpt>
      <trkpt lat="40.082168" lon="-2.126374">
        <time>2021-08-23T12:21:19Z</time>
      </trkpt>
      <trkpt lat="40.08188" lon="-2.126472">
        <time>2021-08-23T12:21:25Z</time>
      </trkpt>
      <trkpt lat="40.081824" lon="-2.126615">
        <time>2021-08-23T12:21:28Z</time>
      </trkpt>
      <trkpt lat="40.081495" lon="-2.127493">
        <time>2021-08-23T12:21:41Z</time>
      </trkpt>
      <trkpt lat="40.081078" lon="-2.128379">
        <time>2021-08-23T12:21:52Z</time>
      </trkpt>
      <trkpt lat="40.080984" lon="-2.128475">
        <time>2021-08-23T12:21:55Z</time>
      </trkpt>
      <trkpt lat="40.080984" lon="-2.128475">
        <time>2021-08-23T12:21:55Z</time>
      </trkpt>
      <trkpt lat="40.080869" lon="-2.128486">
        <time>2021-08-23T12:21:58Z</time>
      </trkpt>
      <trkpt lat="40.080588" lon="-2.128651">
        <time>2021-08-23T12:22:04Z</time>
      </trkpt>
      <trkpt lat="40.079976" lon="-2.129115">
        <time>2021-08-23T12:22:19Z</time>
      </trkpt>
      <trkpt lat="40.07916" lon="-2.12939">
        <time>2021-08-23T12:22:34Z</time>
      </trkpt>
      <trkpt lat="40.078892" lon="-2.129514">
        <time>2021-08-23T12:22:37Z</time>
      </trkpt>
      <trkpt lat="40.078683" lon="-2.129615">
        <time>2021-08-23T12:22:40Z</time>
      </trkpt>
      <trkpt lat="40.078212" lon="-2.12988">
        <time>2021-08-23T12:23:28Z</time>
      </trkpt>
      <trkpt lat="40.078137" lon="-2.129943">
        <time>2021-08-23T12:23:37Z</time>
      </trkpt>
      <trkpt lat="40.077796" lon="-2.129861">
        <time>2021-08-23T12:23:46Z</time>
      </trkpt>
      <trkpt lat="40.077548" lon="-2.129902">
        <time>2021-08-23T12:23:49Z</time>
      </trkpt>
      <trkpt lat="40.077347" lon="-2.1301">
        <time>2021-08-23T12:23:52Z</time>
      </trkpt>
      <trkpt lat="40.076871" lon="-2.130546">
        <time>2021-08-23T12:23:58Z</time>
      </trkpt>
      <trkpt lat="40.076184" lon="-2.131155">
        <time>2021-08-23T12:24:10Z</time>
      </trkpt>
      <trkpt lat="40.076165" lon="-2.131377">
        <time>2021-08-23T12:24:13Z</time>
      </trkpt>
      <trkpt lat="40.076137" lon="-2.131619">
        <time>2021-08-23T12:24:16Z</time>
      </trkpt>
      <trkpt lat="40.076196" lon="-2.13182">
        <time>2021-08-23T12:24:19Z</time>
      </trkpt>
      <trkpt lat="40.076793" lon="-2.13374">
        <time>2021-08-23T12:24:46Z</time>
      </trkpt>
      <trkpt lat="40.076701" lon="-2.133792">
        <time>2021-08-23T12:24:49Z</time>
      </trkpt>
      <trkpt lat="40.076575" lon="-2.13377">
        <time>2021-08-23T12:24:52Z</time>
      </trkpt>
      <trkpt lat="40.076501" lon="-2.133674">
        <time>2021-08-23T12:24:55Z</time>
      </trkpt>
      <trkpt lat="40.076434" lon="-2.133665">
        <time>2021-08-23T12:24:58Z</time>
      </trkpt>
      <trkpt lat="40.076425" lon="-2.133846">
        <time>2021-08-23T12:25:01Z</time>
      </trkpt>
      <trkpt lat="40.077172" lon="-2.135036">
        <time>2021-08-23T12:25:16Z</time>
      </trkpt>
      <trkpt lat="40.077402" lon="-2.135631">
        <time>2021-08-23T12:27:01Z</time>
      </trkpt>
      <trkpt lat="40.077382" lon="-2.135711">
        <time>2021-08-23T12:27:04Z</time>
      </trkpt>
      <trkpt lat="40.077215" lon="-2.136018">
        <time>2021-08-23T12:27:16Z</time>
      </trkpt>
      <trkpt lat="40.077151" lon="-2.136281">
        <time>2021-08-23T12:27:25Z</time>
      </trkpt>
      <trkpt lat="40.077251" lon="-2.136407">
        <time>2021-08-23T12:27:28Z</time>
      </trkpt>
      <trkpt lat="40.078105" lon="-2.137192">
        <time>2021-08-23T12:27:46Z</time>
      </trkpt>
      <trkpt lat="40.078303" lon="-2.137155">
        <time>2021-08-23T12:27:49Z</time>
      </trkpt>
      <trkpt lat="40.078654" lon="-2.137183">
        <time>2021-08-23T12:27:55Z</time>
      </trkpt>
      <trkpt lat="40.078742" lon="-2.137378">
        <time>2021-08-23T12:27:58Z</time>
      </trkpt>
      <trkpt lat="40.078781" lon="-2.137666">
        <time>2021-08-23T12:28:01Z</time>
      </trkpt>
      <trkpt lat="40.078792" lon="-2.139057">
        <time>2021-08-23T12:28:13Z</time>
      </trkpt>
      <trkpt lat="40.07875" lon="-2.139479">
        <time>2021-08-23T12:28:16Z</time>
      </trkpt>
      <trkpt lat="40.078605" lon="-2.140142">
        <time>2021-08-23T12:28:22Z</time>
      </trkpt>
      <trkpt lat="40.077959" lon="-2.14142">
        <time>2021-08-23T12:28:37Z</time>
      </trkpt>
      <trkpt lat="40.076832" lon="-2.143263">
        <time>2021-08-23T12:28:55Z</time>
      </trkpt>
      <trkpt lat="40.076762" lon="-2.143672">
        <time>2021-08-23T12:28:58Z</time>
      </trkpt>
      <trkpt lat="40.076739" lon="-2.144842">
        <time>2021-08-23T12:29:07Z</time>
      </trkpt>
      <trkpt lat="40.076799" lon="-2.146005">
        <time>2021-08-23T12:29:16Z</time>
      </trkpt>
      <trkpt lat="40.076903" lon="-2.146464">
        <time>2021-08-23T12:29:22Z</time>
      </trkpt>
      <trkpt lat="40.076842" lon="-2.147041">
        <time>2021-08-23T12:29:28Z</time>
      </trkpt>
      <trkpt lat="40.07689" lon="-2.148725">
        <time>2021-08-23T12:30:04Z</time>
      </trkpt>
      <trkpt lat="40.076899" lon="-2.149178">
        <time>2021-08-23T12:30:10Z</time>
      </trkpt>
      <trkpt lat="40.076807" lon="-2.14921">
        <time>2021-08-23T12:30:13Z</time>
      </trkpt>
      <trkpt lat="40.076664" lon="-2.149137">
        <time>2021-08-23T12:30:16Z</time>
      </trkpt>
      <trkpt lat="40.076506" lon="-2.149081">
        <time>2021-08-23T12:30:19Z</time>
      </trkpt>
      <trkpt lat="40.075899" lon="-2.149046">
        <time>2021-08-23T12:30:28Z</time>
      </trkpt>
      <trkpt lat="40.075675" lon="-2.149047">
        <time>2021-08-23T12:30:31Z</time>
      </trkpt>
      <trkpt lat="40.075177" lon="-2.149168">
        <time>2021-08-23T12:30:43Z</time>
      </trkpt>
      <trkpt lat="40.075109" lon="-2.149328">
        <time>2021-08-23T12:30:46Z</time>
      </trkpt>
      <trkpt lat="40.075012" lon="-2.149839">
        <time>2021-08-23T12:30:52Z</time>
      </trkpt>
      <trkpt lat="40.075029" lon="-2.150264">
        <time>2021-08-23T12:30:58Z</time>
      </trkpt>
      <trkpt lat="40.074991" lon="-2.150352">
        <time>2021-08-23T12:31:01Z</time>
      </trkpt>
      <trkpt lat="40.074964" lon="-2.150388">
        <time>2021-08-23T12:31:04Z</time>
      </trkpt>
      <trkpt lat="40.074794" lon="-2.150614">
        <time>2021-08-23T12:31:19Z</time>
      </trkpt>
      <trkpt lat="40.074657" lon="-2.150701">
        <time>2021-08-23T12:31:39Z</time>
      </trkpt>
      <trkpt lat="40.074657" lon="-2.150701">
        <time>2021-08-23T12:31:39Z</time>
      </trkpt>
      <trkpt lat="40.07454" lon="-2.150809">
        <time>2021-08-23T13:41:39Z</time>
      </trkpt>
      <trkpt lat="40.074568" lon="-2.150932">
        <time>2021-08-23T13:42:18Z</time>
      </trkpt>
      <trkpt lat="40.07459" lon="-2.150598">
        <time>2021-08-23T13:42:58Z</time>
      </trkpt>
      <trkpt lat="40.074524" lon="-2.150289">
        <time>2021-08-23T13:43:04Z</time>
      </trkpt>
      <trkpt lat="40.074419" lon="-2.150187">
        <time>2021-08-23T13:43:07Z</time>
      </trkpt>
      <trkpt lat="40.074217" lon="-2.150192">
        <time>2021-08-23T13:43:10Z</time>
      </trkpt>
      <trkpt lat="40.074013" lon="-2.150126">
        <time>2021-08-23T13:43:13Z</time>
      </trkpt>
      <trkpt lat="40.073489" lon="-2.150154">
        <time>2021-08-23T13:43:19Z</time>
      </trkpt>
      <trkpt lat="40.072303" lon="-2.150852">
        <time>2021-08-23T13:43:31Z</time>
      </trkpt>
      <trkpt lat="40.07126" lon="-2.150693">
        <time>2021-08-23T13:43:43Z</time>
      </trkpt>
      <trkpt lat="40.07126" lon="-2.150693">
        <time>2021-08-23T13:43:43Z</time>
      </trkpt>
      <trkpt lat="40.071016" lon="-2.150621">
        <time>2021-08-23T13:43:46Z</time>
      </trkpt>
      <trkpt lat="40.070856" lon="-2.150367">
        <time>2021-08-23T13:43:52Z</time>
      </trkpt>
      <trkpt lat="40.070577" lon="-2.150148">
        <time>2021-08-23T13:43:52Z</time>
      </trkpt>
      <trkpt lat="40.070577" lon="-2.150148">
        <time>2021-08-23T13:43:52Z</time>
      </trkpt>
      <trkpt lat="40.070262" lon="-2.149891">
        <time>2021-08-23T13:43:55Z</time>
      </trkpt>
      <trkpt lat="40.069057" lon="-2.148875">
        <time>2021-08-23T13:44:10Z</time>
      </trkpt>
      <trkpt lat="40.068745" lon="-2.148728">
        <time>2021-08-23T13:44:16Z</time>
      </trkpt>
      <trkpt lat="40.067157" lon="-2.148936">
        <time>2021-08-23T13:44:31Z</time>
      </trkpt>
      <trkpt lat="40.066367" lon="-2.148667">
        <time>2021-08-23T13:44:37Z</time>
      </trkpt>
      <trkpt lat="40.06415" lon="-2.147769">
        <time>2021-08-23T13:44:52Z</time>
      </trkpt>
      <trkpt lat="40.062576" lon="-2.146264">
        <time>2021-08-23T13:45:07Z</time>
      </trkpt>
      <trkpt lat="40.062373" lon="-2.146136">
        <time>2021-08-23T13:45:10Z</time>
      </trkpt>
      <trkpt lat="40.062373" lon="-2.146136">
        <time>2021-08-23T13:45:10Z</time>
      </trkpt>
      <trkpt lat="40.062255" lon="-2.145845">
        <time>2021-08-23T13:45:13Z</time>
      </trkpt>
      <trkpt lat="40.062084" lon="-2.145539">
        <time>2021-08-23T13:45:16Z</time>
      </trkpt>
      <trkpt lat="40.059489" lon="-2.142673">
        <time>2021-08-23T13:45:46Z</time>
      </trkpt>
      <trkpt lat="40.059031" lon="-2.142003">
        <time>2021-08-23T13:45:52Z</time>
      </trkpt>
      <trkpt lat="40.05739" lon="-2.139714">
        <time>2021-08-23T13:46:16Z</time>
      </trkpt>
      <trkpt lat="40.057092" lon="-2.139787">
        <time>2021-08-23T13:46:19Z</time>
      </trkpt>
      <trkpt lat="40.056463" lon="-2.140252">
        <time>2021-08-23T13:46:25Z</time>
      </trkpt>
      <trkpt lat="40.055346" lon="-2.141145">
        <time>2021-08-23T13:46:34Z</time>
      </trkpt>
      <trkpt lat="40.053063" lon="-2.1429">
        <time>2021-08-23T13:46:52Z</time>
      </trkpt>
      <trkpt lat="40.052599" lon="-2.143001">
        <time>2021-08-23T13:46:55Z</time>
      </trkpt>
      <trkpt lat="40.052599" lon="-2.143001">
        <time>2021-08-23T13:46:55Z</time>
      </trkpt>
      <trkpt lat="40.051111" lon="-2.142913">
        <time>2021-08-23T13:47:04Z</time>
      </trkpt>
      <trkpt lat="40.046148" lon="-2.142522">
        <time>2021-08-23T13:47:34Z</time>
      </trkpt>
      <trkpt lat="40.043111" lon="-2.142545">
        <time>2021-08-23T13:47:52Z</time>
      </trkpt>
      <trkpt lat="40.042298" lon="-2.143304">
        <time>2021-08-23T13:47:58Z</time>
      </trkpt>
      <trkpt lat="40.042065" lon="-2.143884">
        <time>2021-08-23T13:48:01Z</time>
      </trkpt>
      <trkpt lat="40.041906" lon="-2.144521">
        <time>2021-08-23T13:48:04Z</time>
      </trkpt>
      <trkpt lat="40.041404" lon="-2.145758">
        <time>2021-08-23T13:48:10Z</time>
      </trkpt>
      <trkpt lat="40.040331" lon="-2.147081">
        <time>2021-08-23T13:48:19Z</time>
      </trkpt>
      <trkpt lat="40.039932" lon="-2.147798">
        <time>2021-08-23T13:48:25Z</time>
      </trkpt>
      <trkpt lat="40.039932" lon="-2.147798">
        <time>2021-08-23T13:48:25Z</time>
      </trkpt>
      <trkpt lat="40.039309" lon="-2.148181">
        <time>2021-08-23T13:48:31Z</time>
      </trkpt>
      <trkpt lat="40.03905" lon="-2.148635">
        <time>2021-08-23T13:48:34Z</time>
      </trkpt>
      <trkpt lat="40.037059" lon="-2.152161">
        <time>2021-08-23T13:48:55Z</time>
      </trkpt>
      <trkpt lat="40.035687" lon="-2.153324">
        <time>2021-08-23T13:49:04Z</time>
      </trkpt>
      <trkpt lat="40.034365" lon="-2.154845">
        <time>2021-08-23T13:49:13Z</time>
      </trkpt>
      <trkpt lat="40.034365" lon="-2.154845">
        <time>2021-08-23T13:49:13Z</time>
      </trkpt>
      <trkpt lat="40.033449" lon="-2.15705">
        <time>2021-08-23T13:49:22Z</time>
      </trkpt>
      <trkpt lat="40.033228" lon="-2.158761">
        <time>2021-08-23T13:49:28Z</time>
      </trkpt>
      <trkpt lat="40.032881" lon="-2.160428">
        <time>2021-08-23T13:49:34Z</time>
      </trkpt>
      <trkpt lat="40.032077" lon="-2.161917">
        <time>2021-08-23T13:49:40Z</time>
      </trkpt>
      <trkpt lat="40.030535" lon="-2.164039">
        <time>2021-08-23T13:49:49Z</time>
      </trkpt>
      <trkpt lat="40.027579" lon="-2.169398">
        <time>2021-08-23T13:50:10Z</time>
      </trkpt>
      <trkpt lat="40.025018" lon="-2.174314">
        <time>2021-08-23T13:50:31Z</time>
      </trkpt>
      <trkpt lat="40.025018" lon="-2.174314">
        <time>2021-08-23T13:50:31Z</time>
      </trkpt>
      <trkpt lat="40.021923" lon="-2.177979">
        <time>2021-08-23T13:50:49Z</time>
      </trkpt>
      <trkpt lat="40.021537" lon="-2.17877">
        <time>2021-08-23T13:50:52Z</time>
      </trkpt>
      <trkpt lat="40.019071" lon="-2.18463">
        <time>2021-08-23T13:51:13Z</time>
      </trkpt>
      <trkpt lat="40.016824" lon="-2.190004">
        <time>2021-08-23T13:51:34Z</time>
      </trkpt>
      <trkpt lat="40.014165" lon="-2.195387">
        <time>2021-08-23T13:52:04Z</time>
      </trkpt>
      <trkpt lat="40.013771" lon="-2.196505">
        <time>2021-08-23T13:52:10Z</time>
      </trkpt>
      <trkpt lat="40.012871" lon="-2.201314">
        <time>2021-08-23T13:52:34Z</time>
      </trkpt>
      <trkpt lat="40.011738" lon="-2.207211">
        <time>2021-08-23T13:52:58Z</time>
      </trkpt>
      <trkpt lat="40.010042" lon="-2.21321">
        <time>2021-08-23T13:53:22Z</time>
      </trkpt>
      <trkpt lat="40.007839" lon="-2.219191">
        <time>2021-08-23T13:53:46Z</time>
      </trkpt>
      <trkpt lat="40.005705" lon="-2.225107">
        <time>2021-08-23T13:54:10Z</time>
      </trkpt>
      <trkpt lat="40.003538" lon="-2.230815">
        <time>2021-08-23T13:54:34Z</time>
      </trkpt>
      <trkpt lat="40.001738" lon="-2.235038">
        <time>2021-08-23T13:54:52Z</time>
      </trkpt>
      <trkpt lat="40.00134" lon="-2.235634">
        <time>2021-08-23T13:54:55Z</time>
      </trkpt>
      <trkpt lat="40.00084" lon="-2.236054">
        <time>2021-08-23T13:54:58Z</time>
      </trkpt>
      <trkpt lat="40.00084" lon="-2.236054">
        <time>2021-08-23T13:54:58Z</time>
      </trkpt>
      <trkpt lat="39.999698" lon="-2.236446">
        <time>2021-08-23T13:55:04Z</time>
      </trkpt>
      <trkpt lat="39.996078" lon="-2.237254">
        <time>2021-08-23T13:55:22Z</time>
      </trkpt>
      <trkpt lat="39.994376" lon="-2.237744">
        <time>2021-08-23T13:55:31Z</time>
      </trkpt>
      <trkpt lat="39.994376" lon="-2.237744">
        <time>2021-08-23T13:55:31Z</time>
      </trkpt>
      <trkpt lat="39.993894" lon="-2.238144">
        <time>2021-08-23T13:55:34Z</time>
      </trkpt>
      <trkpt lat="39.993208" lon="-2.239278">
        <time>2021-08-23T13:55:40Z</time>
      </trkpt>
      <trkpt lat="39.992613" lon="-2.240508">
        <time>2021-08-23T13:55:46Z</time>
      </trkpt>
      <trkpt lat="39.992386" lon="-2.241154">
        <time>2021-08-23T13:55:49Z</time>
      </trkpt>
      <trkpt lat="39.99227" lon="-2.242571">
        <time>2021-08-23T13:55:55Z</time>
      </trkpt>
      <trkpt lat="39.992122" lon="-2.244604">
        <time>2021-08-23T13:56:04Z</time>
      </trkpt>
      <trkpt lat="39.991833" lon="-2.245185">
        <time>2021-08-23T13:56:07Z</time>
      </trkpt>
      <trkpt lat="39.990991" lon="-2.246158">
        <time>2021-08-23T13:56:13Z</time>
      </trkpt>
      <trkpt lat="39.990499" lon="-2.246528">
        <time>2021-08-23T13:56:16Z</time>
      </trkpt>
      <trkpt lat="39.988103" lon="-2.247973">
        <time>2021-08-23T13:56:31Z</time>
      </trkpt>
      <trkpt lat="39.987589" lon="-2.247883">
        <time>2021-08-23T13:56:34Z</time>
      </trkpt>
      <trkpt lat="39.987151" lon="-2.247538">
        <time>2021-08-23T13:56:37Z</time>
      </trkpt>
      <trkpt lat="39.986838" lon="-2.246974">
        <time>2021-08-23T13:56:40Z</time>
      </trkpt>
      <trkpt lat="39.986838" lon="-2.246974">
        <time>2021-08-23T13:56:40Z</time>
      </trkpt>
      <trkpt lat="39.985439" lon="-2.243743">
        <time>2021-08-23T13:56:55Z</time>
      </trkpt>
      <trkpt lat="39.984233" lon="-2.242092">
        <time>2021-08-23T13:57:04Z</time>
      </trkpt>
      <trkpt lat="39.982846" lon="-2.240695">
        <time>2021-08-23T13:57:13Z</time>
      </trkpt>
      <trkpt lat="39.982253" lon="-2.240559">
        <time>2021-08-23T13:57:16Z</time>
      </trkpt>
      <trkpt lat="39.979775" lon="-2.240752">
        <time>2021-08-23T13:57:28Z</time>
      </trkpt>
      <trkpt lat="39.979775" lon="-2.240752">
        <time>2021-08-23T13:57:28Z</time>
      </trkpt>
      <trkpt lat="39.975573" lon="-2.244204">
        <time>2021-08-23T13:57:52Z</time>
      </trkpt>
      <trkpt lat="39.975573" lon="-2.244204">
        <time>2021-08-23T13:57:52Z</time>
      </trkpt>
      <trkpt lat="39.975244" lon="-2.244902">
        <time>2021-08-23T13:57:55Z</time>
      </trkpt>
      <trkpt lat="39.974902" lon="-2.246444">
        <time>2021-08-23T13:58:01Z</time>
      </trkpt>
      <trkpt lat="39.974961" lon="-2.247234">
        <time>2021-08-23T13:58:04Z</time>
      </trkpt>
      <trkpt lat="39.975868" lon="-2.250301">
        <time>2021-08-23T13:58:16Z</time>
      </trkpt>
      <trkpt lat="39.976227" lon="-2.250903">
        <time>2021-08-23T13:58:19Z</time>
      </trkpt>
      <trkpt lat="39.976543" lon="-2.251476">
        <time>2021-08-23T13:58:22Z</time>
      </trkpt>
      <trkpt lat="39.976586" lon="-2.252145">
        <time>2021-08-23T13:58:25Z</time>
      </trkpt>
      <trkpt lat="39.976396" lon="-2.252751">
        <time>2021-08-23T13:58:28Z</time>
      </trkpt>
      <trkpt lat="39.975944" lon="-2.253106">
        <time>2021-08-23T13:58:31Z</time>
      </trkpt>
      <trkpt lat="39.974437" lon="-2.253714">
        <time>2021-08-23T13:58:40Z</time>
      </trkpt>
      <trkpt lat="39.973941" lon="-2.25364">
        <time>2021-08-23T13:58:43Z</time>
      </trkpt>
      <trkpt lat="39.973941" lon="-2.25364">
        <time>2021-08-23T13:58:43Z</time>
      </trkpt>
      <trkpt lat="39.973524" lon="-2.253248">
        <time>2021-08-23T13:58:46Z</time>
      </trkpt>
      <trkpt lat="39.973239" lon="-2.252638">
        <time>2021-08-23T13:58:49Z</time>
      </trkpt>
      <trkpt lat="39.972224" lon="-2.249196">
        <time>2021-08-23T13:59:04Z</time>
      </trkpt>
      <trkpt lat="39.971458" lon="-2.248101">
        <time>2021-08-23T13:59:10Z</time>
      </trkpt>
      <trkpt lat="39.971458" lon="-2.248101">
        <time>2021-08-23T13:59:10Z</time>
      </trkpt>
      <trkpt lat="39.970965" lon="-2.247731">
        <time>2021-08-23T13:59:13Z</time>
      </trkpt>
      <trkpt lat="39.967122" lon="-2.245347">
        <time>2021-08-23T13:59:34Z</time>
      </trkpt>
      <trkpt lat="39.966672" lon="-2.244846">
        <time>2021-08-23T13:59:37Z</time>
      </trkpt>
      <trkpt lat="39.964343" lon="-2.240413">
        <time>2021-08-23T13:59:58Z</time>
      </trkpt>
      <trkpt lat="39.964343" lon="-2.240413">
        <time>2021-08-23T13:59:58Z</time>
      </trkpt>
      <trkpt lat="39.963236" lon="-2.239762">
        <time>2021-08-23T14:00:04Z</time>
      </trkpt>
      <trkpt lat="39.962553" lon="-2.239762">
        <time>2021-08-23T14:00:07Z</time>
      </trkpt>
      <trkpt lat="39.959807" lon="-2.240914">
        <time>2021-08-23T14:00:19Z</time>
      </trkpt>
      <trkpt lat="39.959807" lon="-2.240914">
        <time>2021-08-23T14:00:19Z</time>
      </trkpt>
      <trkpt lat="39.956561" lon="-2.242055">
        <time>2021-08-23T14:00:34Z</time>
      </trkpt>
      <trkpt lat="39.955986" lon="-2.241888">
        <time>2021-08-23T14:00:37Z</time>
      </trkpt>
      <trkpt lat="39.95544" lon="-2.24169">
        <time>2021-08-23T14:00:40Z</time>
      </trkpt>
      <trkpt lat="39.954898" lon="-2.241786">
        <time>2021-08-23T14:00:43Z</time>
      </trkpt>
      <trkpt lat="39.952169" lon="-2.243767">
        <time>2021-08-23T14:00:58Z</time>
      </trkpt>
      <trkpt lat="39.951171" lon="-2.244901">
        <time>2021-08-23T14:01:04Z</time>
      </trkpt>
      <trkpt lat="39.948727" lon="-2.24762">
        <time>2021-08-23T14:01:19Z</time>
      </trkpt>
      <trkpt lat="39.947127" lon="-2.24853">
        <time>2021-08-23T14:01:28Z</time>
      </trkpt>
      <trkpt lat="39.947127" lon="-2.24853">
        <time>2021-08-23T14:01:28Z</time>
      </trkpt>
      <trkpt lat="39.946048" lon="-2.250213">
        <time>2021-08-23T14:01:37Z</time>
      </trkpt>
      <trkpt lat="39.945548" lon="-2.250595">
        <time>2021-08-23T14:01:40Z</time>
      </trkpt>
      <trkpt lat="39.944414" lon="-2.250935">
        <time>2021-08-23T14:01:46Z</time>
      </trkpt>
      <trkpt lat="39.94388" lon="-2.250807">
        <time>2021-08-23T14:01:49Z</time>
      </trkpt>
      <trkpt lat="39.943393" lon="-2.250476">
        <time>2021-08-23T14:01:52Z</time>
      </trkpt>
      <trkpt lat="39.943393" lon="-2.250476">
        <time>2021-08-23T14:01:52Z</time>
      </trkpt>
      <trkpt lat="39.93985" lon="-2.246344">
        <time>2021-08-23T14:02:13Z</time>
      </trkpt>
      <trkpt lat="39.93985" lon="-2.246344">
        <time>2021-08-23T14:02:13Z</time>
      </trkpt>
      <trkpt lat="39.938579" lon="-2.244541">
        <time>2021-08-23T14:02:22Z</time>
      </trkpt>
      <trkpt lat="39.937003" lon="-2.243569">
        <time>2021-08-23T14:02:31Z</time>
      </trkpt>
      <trkpt lat="39.936081" lon="-2.242782">
        <time>2021-08-23T14:02:37Z</time>
      </trkpt>
      <trkpt lat="39.936081" lon="-2.242782">
        <time>2021-08-23T14:02:37Z</time>
      </trkpt>
      <trkpt lat="39.934286" lon="-2.242236">
        <time>2021-08-23T14:02:46Z</time>
      </trkpt>
      <trkpt lat="39.933052" lon="-2.242296">
        <time>2021-08-23T14:02:52Z</time>
      </trkpt>
      <trkpt lat="39.931962" lon="-2.242944">
        <time>2021-08-23T14:02:58Z</time>
      </trkpt>
      <trkpt lat="39.931482" lon="-2.243472">
        <time>2021-08-23T14:03:01Z</time>
      </trkpt>
      <trkpt lat="39.931104" lon="-2.244174">
        <time>2021-08-23T14:03:04Z</time>
      </trkpt>
      <trkpt lat="39.929605" lon="-2.247575">
        <time>2021-08-23T14:03:19Z</time>
      </trkpt>
      <trkpt lat="39.928784" lon="-2.248505">
        <time>2021-08-23T14:03:25Z</time>
      </trkpt>
      <trkpt lat="39.928784" lon="-2.248505">
        <time>2021-08-23T14:03:25Z</time>
      </trkpt>
      <trkpt lat="39.928303" lon="-2.248709">
        <time>2021-08-23T14:03:28Z</time>
      </trkpt>
      <trkpt lat="39.927795" lon="-2.248753">
        <time>2021-08-23T14:03:31Z</time>
      </trkpt>
      <trkpt lat="39.927287" lon="-2.248656">
        <time>2021-08-23T14:03:34Z</time>
      </trkpt>
      <trkpt lat="39.926851" lon="-2.248351">
        <time>2021-08-23T14:03:37Z</time>
      </trkpt>
      <trkpt lat="39.926515" lon="-2.247871">
        <time>2021-08-23T14:03:40Z</time>
      </trkpt>
      <trkpt lat="39.926289" lon="-2.247272">
        <time>2021-08-23T14:03:43Z</time>
      </trkpt>
      <trkpt lat="39.926234" lon="-2.246577">
        <time>2021-08-23T14:03:46Z</time>
      </trkpt>
      <trkpt lat="39.926408" lon="-2.245035">
        <time>2021-08-23T14:03:52Z</time>
      </trkpt>
      <trkpt lat="39.926408" lon="-2.245035">
        <time>2021-08-23T14:03:52Z</time>
      </trkpt>
      <trkpt lat="39.927757" lon="-2.24033">
        <time>2021-08-23T14:04:07Z</time>
      </trkpt>
      <trkpt lat="39.927617" lon="-2.23946">
        <time>2021-08-23T14:04:10Z</time>
      </trkpt>
      <trkpt lat="39.927617" lon="-2.23946">
        <time>2021-08-23T14:04:10Z</time>
      </trkpt>
      <trkpt lat="39.927284" lon="-2.238729">
        <time>2021-08-23T14:04:13Z</time>
      </trkpt>
      <trkpt lat="39.926791" lon="-2.238276">
        <time>2021-08-23T14:04:16Z</time>
      </trkpt>
      <trkpt lat="39.926165" lon="-2.23816">
        <time>2021-08-23T14:04:19Z</time>
      </trkpt>
      <trkpt lat="39.924063" lon="-2.238584">
        <time>2021-08-23T14:04:28Z</time>
      </trkpt>
      <trkpt lat="39.923355" lon="-2.238937">
        <time>2021-08-23T14:04:31Z</time>
      </trkpt>
      <trkpt lat="39.922709" lon="-2.239444">
        <time>2021-08-23T14:04:34Z</time>
      </trkpt>
      <trkpt lat="39.922221" lon="-2.240167">
        <time>2021-08-23T14:04:37Z</time>
      </trkpt>
      <trkpt lat="39.920323" lon="-2.243302">
        <time>2021-08-23T14:04:49Z</time>
      </trkpt>
      <trkpt lat="39.920323" lon="-2.243302">
        <time>2021-08-23T14:04:49Z</time>
      </trkpt>
      <trkpt lat="39.915843" lon="-2.246321">
        <time>2021-08-23T14:05:07Z</time>
      </trkpt>
      <trkpt lat="39.915843" lon="-2.246321">
        <time>2021-08-23T14:05:07Z</time>
      </trkpt>
      <trkpt lat="39.912013" lon="-2.247956">
        <time>2021-08-23T14:05:22Z</time>
      </trkpt>
      <trkpt lat="39.911286" lon="-2.247787">
        <time>2021-08-23T14:05:25Z</time>
      </trkpt>
      <trkpt lat="39.911286" lon="-2.247787">
        <time>2021-08-23T14:05:25Z</time>
      </trkpt>
      <trkpt lat="39.909122" lon="-2.247264">
        <time>2021-08-23T14:05:34Z</time>
      </trkpt>
      <trkpt lat="39.908478" lon="-2.247714">
        <time>2021-08-23T14:05:37Z</time>
      </trkpt>
      <trkpt lat="39.907869" lon="-2.248181">
        <time>2021-08-23T14:05:40Z</time>
      </trkpt>
      <trkpt lat="39.907158" lon="-2.248343">
        <time>2021-08-23T14:05:43Z</time>
      </trkpt>
      <trkpt lat="39.906404" lon="-2.248249">
        <time>2021-08-23T14:05:46Z</time>
      </trkpt>
      <trkpt lat="39.902589" lon="-2.248346">
        <time>2021-08-23T14:06:01Z</time>
      </trkpt>
      <trkpt lat="39.902079" lon="-2.248957">
        <time>2021-08-23T14:06:04Z</time>
      </trkpt>
      <trkpt lat="39.902079" lon="-2.248957">
        <time>2021-08-23T14:06:04Z</time>
      </trkpt>
      <trkpt lat="39.898713" lon="-2.254126">
        <time>2021-08-23T14:06:25Z</time>
      </trkpt>
      <trkpt lat="39.895874" lon="-2.259772">
        <time>2021-08-23T14:06:43Z</time>
      </trkpt>
      <trkpt lat="39.893762" lon="-2.263148">
        <time>2021-08-23T14:06:55Z</time>
      </trkpt>
      <trkpt lat="39.89306" lon="-2.263591">
        <time>2021-08-23T14:06:58Z</time>
      </trkpt>
      <trkpt lat="39.892314" lon="-2.263678">
        <time>2021-08-23T14:07:01Z</time>
      </trkpt>
      <trkpt lat="39.892314" lon="-2.263678">
        <time>2021-08-23T14:07:01Z</time>
      </trkpt>
      <trkpt lat="39.887813" lon="-2.262299">
        <time>2021-08-23T14:07:22Z</time>
      </trkpt>
      <trkpt lat="39.887813" lon="-2.262299">
        <time>2021-08-23T14:07:22Z</time>
      </trkpt>
      <trkpt lat="39.887366" lon="-2.262487">
        <time>2021-08-23T14:07:25Z</time>
      </trkpt>
      <trkpt lat="39.887026" lon="-2.26289">
        <time>2021-08-23T14:07:28Z</time>
      </trkpt>
      <trkpt lat="39.886815" lon="-2.263418">
        <time>2021-08-23T14:07:31Z</time>
      </trkpt>
      <trkpt lat="39.885722" lon="-2.266511">
        <time>2021-08-23T14:07:46Z</time>
      </trkpt>
      <trkpt lat="39.885343" lon="-2.267052">
        <time>2021-08-23T14:07:49Z</time>
      </trkpt>
      <trkpt lat="39.884203" lon="-2.268732">
        <time>2021-08-23T14:07:58Z</time>
      </trkpt>
      <trkpt lat="39.883702" lon="-2.270277">
        <time>2021-08-23T14:08:04Z</time>
      </trkpt>
      <trkpt lat="39.883602" lon="-2.271994">
        <time>2021-08-23T14:08:10Z</time>
      </trkpt>
      <trkpt lat="39.883714" lon="-2.27284">
        <time>2021-08-23T14:08:13Z</time>
      </trkpt>
      <trkpt lat="39.883912" lon="-2.273646">
        <time>2021-08-23T14:08:16Z</time>
      </trkpt>
      <trkpt lat="39.884366" lon="-2.276158">
        <time>2021-08-23T14:08:25Z</time>
      </trkpt>
      <trkpt lat="39.884052" lon="-2.277793">
        <time>2021-08-23T14:08:31Z</time>
      </trkpt>
      <trkpt lat="39.883728" lon="-2.278566">
        <time>2021-08-23T14:08:34Z</time>
      </trkpt>
      <trkpt lat="39.88132" lon="-2.283673">
        <time>2021-08-23T14:08:49Z</time>
      </trkpt>
      <trkpt lat="39.879385" lon="-2.287108">
        <time>2021-08-23T14:09:01Z</time>
      </trkpt>
      <trkpt lat="39.878353" lon="-2.288386">
        <time>2021-08-23T14:09:07Z</time>
      </trkpt>
      <trkpt lat="39.877764" lon="-2.288863">
        <time>2021-08-23T14:09:10Z</time>
      </trkpt>
      <trkpt lat="39.876668" lon="-2.290081">
        <time>2021-08-23T14:09:16Z</time>
      </trkpt>
      <trkpt lat="39.875683" lon="-2.291434">
        <time>2021-08-23T14:09:22Z</time>
      </trkpt>
      <trkpt lat="39.874407" lon="-2.292326">
        <time>2021-08-23T14:09:28Z</time>
      </trkpt>
      <trkpt lat="39.873921" lon="-2.292929">
        <time>2021-08-23T14:09:31Z</time>
      </trkpt>
      <trkpt lat="39.873713" lon="-2.293714">
        <time>2021-08-23T14:09:34Z</time>
      </trkpt>
      <trkpt lat="39.8738" lon="-2.294579">
        <time>2021-08-23T14:09:37Z</time>
      </trkpt>
      <trkpt lat="39.875094" lon="-2.298339">
        <time>2021-08-23T14:09:49Z</time>
      </trkpt>
      <trkpt lat="39.876761" lon="-2.304493">
        <time>2021-08-23T14:10:07Z</time>
      </trkpt>
      <trkpt lat="39.877383" lon="-2.307498">
        <time>2021-08-23T14:10:16Z</time>
      </trkpt>
      <trkpt lat="39.877295" lon="-2.308446">
        <time>2021-08-23T14:10:19Z</time>
      </trkpt>
      <trkpt lat="39.876694" lon="-2.31023">
        <time>2021-08-23T14:10:25Z</time>
      </trkpt>
      <trkpt lat="39.876694" lon="-2.31023">
        <time>2021-08-23T14:10:25Z</time>
      </trkpt>
      <trkpt lat="39.87448" lon="-2.315414">
        <time>2021-08-23T14:10:43Z</time>
      </trkpt>
      <trkpt lat="39.872882" lon="-2.321014">
        <time>2021-08-23T14:11:01Z</time>
      </trkpt>
      <trkpt lat="39.871344" lon="-2.326735">
        <time>2021-08-23T14:11:19Z</time>
      </trkpt>
      <trkpt lat="39.869856" lon="-2.33227">
        <time>2021-08-23T14:11:37Z</time>
      </trkpt>
      <trkpt lat="39.868507" lon="-2.336517">
        <time>2021-08-23T14:11:52Z</time>
      </trkpt>
      <trkpt lat="39.867421" lon="-2.33767">
        <time>2021-08-23T14:11:58Z</time>
      </trkpt>
      <trkpt lat="39.865761" lon="-2.339126">
        <time>2021-08-23T14:12:07Z</time>
      </trkpt>
      <trkpt lat="39.864477" lon="-2.339481">
        <time>2021-08-23T14:12:13Z</time>
      </trkpt>
      <trkpt lat="39.863088" lon="-2.33929">
        <time>2021-08-23T14:12:19Z</time>
      </trkpt>
      <trkpt lat="39.862391" lon="-2.339379">
        <time>2021-08-23T14:12:22Z</time>
      </trkpt>
      <trkpt lat="39.858437" lon="-2.340756">
        <time>2021-08-23T14:12:40Z</time>
      </trkpt>
      <trkpt lat="39.856459" lon="-2.341555">
        <time>2021-08-23T14:12:49Z</time>
      </trkpt>
      <trkpt lat="39.855335" lon="-2.342779">
        <time>2021-08-23T14:12:55Z</time>
      </trkpt>
      <trkpt lat="39.854276" lon="-2.34411">
        <time>2021-08-23T14:13:01Z</time>
      </trkpt>
      <trkpt lat="39.853078" lon="-2.346174">
        <time>2021-08-23T14:13:10Z</time>
      </trkpt>
      <trkpt lat="39.851511" lon="-2.349466">
        <time>2021-08-23T14:13:22Z</time>
      </trkpt>
      <trkpt lat="39.848188" lon="-2.354751">
        <time>2021-08-23T14:13:43Z</time>
      </trkpt>
      <trkpt lat="39.847374" lon="-2.356288">
        <time>2021-08-23T14:13:49Z</time>
      </trkpt>
      <trkpt lat="39.84687" lon="-2.357873">
        <time>2021-08-23T14:13:55Z</time>
      </trkpt>
      <trkpt lat="39.846202" lon="-2.360019">
        <time>2021-08-23T14:14:04Z</time>
      </trkpt>
      <trkpt lat="39.846202" lon="-2.360019">
        <time>2021-08-23T14:14:04Z</time>
      </trkpt>
      <trkpt lat="39.844088" lon="-2.36292">
        <time>2021-08-23T14:14:19Z</time>
      </trkpt>
      <trkpt lat="39.843466" lon="-2.362987">
        <time>2021-08-23T14:14:22Z</time>
      </trkpt>
      <trkpt lat="39.84221" lon="-2.362541">
        <time>2021-08-23T14:14:28Z</time>
      </trkpt>
      <trkpt lat="39.837507" lon="-2.360637">
        <time>2021-08-23T14:14:49Z</time>
      </trkpt>
      <trkpt lat="39.832604" lon="-2.358601">
        <time>2021-08-23T14:15:10Z</time>
      </trkpt>
      <trkpt lat="39.829739" lon="-2.357773">
        <time>2021-08-23T14:15:22Z</time>
      </trkpt>
      <trkpt lat="39.827675" lon="-2.357774">
        <time>2021-08-23T14:15:31Z</time>
      </trkpt>
      <trkpt lat="39.826351" lon="-2.357574">
        <time>2021-08-23T14:15:37Z</time>
      </trkpt>
      <trkpt lat="39.82521" lon="-2.356697">
        <time>2021-08-23T14:15:43Z</time>
      </trkpt>
      <trkpt lat="39.823429" lon="-2.355105">
        <time>2021-08-23T14:15:52Z</time>
      </trkpt>
      <trkpt lat="39.819018" lon="-2.351723">
        <time>2021-08-23T14:16:13Z</time>
      </trkpt>
      <trkpt lat="39.819018" lon="-2.351723">
        <time>2021-08-23T14:16:13Z</time>
      </trkpt>
      <trkpt lat="39.81464" lon="-2.351887">
        <time>2021-08-23T14:16:31Z</time>
      </trkpt>
      <trkpt lat="39.813947" lon="-2.35212">
        <time>2021-08-23T14:16:34Z</time>
      </trkpt>
      <trkpt lat="39.80927" lon="-2.35421">
        <time>2021-08-23T14:16:55Z</time>
      </trkpt>
      <trkpt lat="39.80927" lon="-2.35421">
        <time>2021-08-23T14:16:55Z</time>
      </trkpt>
      <trkpt lat="39.808751" lon="-2.354754">
        <time>2021-08-23T14:16:58Z</time>
      </trkpt>
      <trkpt lat="39.808472" lon="-2.355517">
        <time>2021-08-23T14:17:01Z</time>
      </trkpt>
      <trkpt lat="39.808477" lon="-2.357366">
        <time>2021-08-23T14:17:07Z</time>
      </trkpt>
      <trkpt lat="39.808226" lon="-2.360229">
        <time>2021-08-23T14:17:16Z</time>
      </trkpt>
      <trkpt lat="39.808226" lon="-2.360229">
        <time>2021-08-23T14:17:16Z</time>
      </trkpt>
      <trkpt lat="39.807729" lon="-2.360893">
        <time>2021-08-23T14:17:19Z</time>
      </trkpt>
      <trkpt lat="39.804088" lon="-2.363642">
        <time>2021-08-23T14:17:37Z</time>
      </trkpt>
      <trkpt lat="39.804088" lon="-2.363642">
        <time>2021-08-23T14:17:37Z</time>
      </trkpt>
      <trkpt lat="39.802717" lon="-2.36352">
        <time>2021-08-23T14:17:43Z</time>
      </trkpt>
      <trkpt lat="39.799015" lon="-2.362398">
        <time>2021-08-23T14:17:58Z</time>
      </trkpt>
      <trkpt lat="39.794185" lon="-2.360806">
        <time>2021-08-23T14:18:19Z</time>
      </trkpt>
      <trkpt lat="39.793525" lon="-2.360488">
        <time>2021-08-23T14:18:22Z</time>
      </trkpt>
      <trkpt lat="39.789793" lon="-2.358113">
        <time>2021-08-23T14:18:40Z</time>
      </trkpt>
      <trkpt lat="39.789793" lon="-2.358113">
        <time>2021-08-23T14:18:40Z</time>
      </trkpt>
      <trkpt lat="39.787645" lon="-2.357992">
        <time>2021-08-23T14:18:49Z</time>
      </trkpt>
      <trkpt lat="39.784751" lon="-2.358576">
        <time>2021-08-23T14:19:01Z</time>
      </trkpt>
      <trkpt lat="39.779913" lon="-2.358813">
        <time>2021-08-23T14:19:22Z</time>
      </trkpt>
      <trkpt lat="39.775206" lon="-2.359142">
        <time>2021-08-23T14:19:43Z</time>
      </trkpt>
      <trkpt lat="39.770671" lon="-2.359696">
        <time>2021-08-23T14:20:10Z</time>
      </trkpt>
      <trkpt lat="39.766189" lon="-2.36027">
        <time>2021-08-23T14:20:31Z</time>
      </trkpt>
      <trkpt lat="39.761565" lon="-2.360827">
        <time>2021-08-23T14:20:49Z</time>
      </trkpt>
      <trkpt lat="39.756712" lon="-2.361433">
        <time>2021-08-23T14:21:07Z</time>
      </trkpt>
      <trkpt lat="39.751964" lon="-2.362033">
        <time>2021-08-23T14:21:25Z</time>
      </trkpt>
      <trkpt lat="39.747231" lon="-2.361943">
        <time>2021-08-23T14:21:43Z</time>
      </trkpt>
      <trkpt lat="39.747231" lon="-2.361943">
        <time>2021-08-23T14:21:43Z</time>
      </trkpt>
      <trkpt lat="39.742762" lon="-2.360618">
        <time>2021-08-23T14:22:01Z</time>
      </trkpt>
      <trkpt lat="39.741352" lon="-2.359927">
        <time>2021-08-23T14:22:07Z</time>
      </trkpt>
      <trkpt lat="39.738439" lon="-2.35851">
        <time>2021-08-23T14:22:19Z</time>
      </trkpt>
      <trkpt lat="39.737646" lon="-2.35837">
        <time>2021-08-23T14:22:22Z</time>
      </trkpt>
      <trkpt lat="39.733826" lon="-2.357732">
        <time>2021-08-23T14:22:37Z</time>
      </trkpt>
      <trkpt lat="39.730188" lon="-2.357356">
        <time>2021-08-23T14:22:52Z</time>
      </trkpt>
      <trkpt lat="39.728757" lon="-2.358058">
        <time>2021-08-23T14:22:58Z</time>
      </trkpt>
      <trkpt lat="39.724353" lon="-2.360165">
        <time>2021-08-23T14:23:16Z</time>
      </trkpt>
      <trkpt lat="39.722877" lon="-2.361117">
        <time>2021-08-23T14:23:22Z</time>
      </trkpt>
      <trkpt lat="39.720436" lon="-2.363807">
        <time>2021-08-23T14:23:34Z</time>
      </trkpt>
      <trkpt lat="39.719689" lon="-2.364264">
        <time>2021-08-23T14:23:37Z</time>
      </trkpt>
      <trkpt lat="39.71803" lon="-2.364611">
        <time>2021-08-23T14:23:43Z</time>
      </trkpt>
      <trkpt lat="39.715496" lon="-2.364342">
        <time>2021-08-23T14:23:52Z</time>
      </trkpt>
      <trkpt lat="39.712991" lon="-2.364725">
        <time>2021-08-23T14:24:01Z</time>
      </trkpt>
      <trkpt lat="39.711524" lon="-2.365631">
        <time>2021-08-23T14:24:07Z</time>
      </trkpt>
      <trkpt lat="39.710846" lon="-2.366215">
        <time>2021-08-23T14:24:10Z</time>
      </trkpt>
      <trkpt lat="39.706823" lon="-2.369546">
        <time>2021-08-23T14:24:28Z</time>
      </trkpt>
      <trkpt lat="39.702537" lon="-2.371998">
        <time>2021-08-23T14:24:46Z</time>
      </trkpt>
      <trkpt lat="39.698173" lon="-2.374611">
        <time>2021-08-23T14:25:04Z</time>
      </trkpt>
      <trkpt lat="39.697456" lon="-2.375005">
        <time>2021-08-23T14:25:07Z</time>
      </trkpt>
      <trkpt lat="39.695988" lon="-2.375305">
        <time>2021-08-23T14:25:13Z</time>
      </trkpt>
      <trkpt lat="39.693732" lon="-2.375026">
        <time>2021-08-23T14:25:22Z</time>
      </trkpt>
      <trkpt lat="39.692256" lon="-2.375278">
        <time>2021-08-23T14:25:28Z</time>
      </trkpt>
      <trkpt lat="39.691583" lon="-2.375753">
        <time>2021-08-23T14:25:31Z</time>
      </trkpt>
      <trkpt lat="39.69062" lon="-2.377221">
        <time>2021-08-23T14:25:37Z</time>
      </trkpt>
      <trkpt lat="39.690309" lon="-2.378088">
        <time>2021-08-23T14:25:40Z</time>
      </trkpt>
      <trkpt lat="39.688356" lon="-2.383741">
        <time>2021-08-23T14:26:07Z</time>
      </trkpt>
      <trkpt lat="39.686569" lon="-2.388262">
        <time>2021-08-23T14:26:28Z</time>
      </trkpt>
      <trkpt lat="39.68656" lon="-2.389057">
        <time>2021-08-23T14:26:31Z</time>
      </trkpt>
      <trkpt lat="39.686416" lon="-2.390684">
        <time>2021-08-23T14:26:37Z</time>
      </trkpt>
      <trkpt lat="39.684992" lon="-2.394233">
        <time>2021-08-23T14:26:52Z</time>
      </trkpt>
      <trkpt lat="39.684898" lon="-2.395117">
        <time>2021-08-23T14:26:55Z</time>
      </trkpt>
      <trkpt lat="39.684896" lon="-2.396015">
        <time>2021-08-23T14:26:58Z</time>
      </trkpt>
      <trkpt lat="39.684927" lon="-2.401207">
        <time>2021-08-23T14:27:13Z</time>
      </trkpt>
      <trkpt lat="39.684508" lon="-2.40739">
        <time>2021-08-23T14:27:31Z</time>
      </trkpt>
      <trkpt lat="39.684062" lon="-2.413287">
        <time>2021-08-23T14:27:49Z</time>
      </trkpt>
      <trkpt lat="39.68476" lon="-2.420018">
        <time>2021-08-23T14:28:10Z</time>
      </trkpt>
      <trkpt lat="39.68475" lon="-2.424928">
        <time>2021-08-23T14:28:25Z</time>
      </trkpt>
      <trkpt lat="39.684484" lon="-2.425866">
        <time>2021-08-23T14:28:28Z</time>
      </trkpt>
      <trkpt lat="39.682787" lon="-2.431667">
        <time>2021-08-23T14:28:46Z</time>
      </trkpt>
      <trkpt lat="39.68159" lon="-2.437689">
        <time>2021-08-23T14:29:04Z</time>
      </trkpt>
      <trkpt lat="39.680203" lon="-2.44352">
        <time>2021-08-23T14:29:22Z</time>
      </trkpt>
      <trkpt lat="39.680017" lon="-2.444561">
        <time>2021-08-23T14:29:25Z</time>
      </trkpt>
      <trkpt lat="39.6801" lon="-2.446603">
        <time>2021-08-23T14:29:31Z</time>
      </trkpt>
      <trkpt lat="39.680578" lon="-2.449496">
        <time>2021-08-23T14:29:40Z</time>
      </trkpt>
      <trkpt lat="39.681532" lon="-2.455341">
        <time>2021-08-23T14:29:58Z</time>
      </trkpt>
      <trkpt lat="39.682945" lon="-2.461496">
        <time>2021-08-23T14:30:19Z</time>
      </trkpt>
      <trkpt lat="39.684362" lon="-2.467151">
        <time>2021-08-23T14:30:37Z</time>
      </trkpt>
      <trkpt lat="39.685443" lon="-2.473083">
        <time>2021-08-23T14:30:55Z</time>
      </trkpt>
      <trkpt lat="39.685496" lon="-2.475175">
        <time>2021-08-23T14:31:01Z</time>
      </trkpt>
      <trkpt lat="39.685485" lon="-2.479346">
        <time>2021-08-23T14:31:13Z</time>
      </trkpt>
      <trkpt lat="39.685647" lon="-2.480409">
        <time>2021-08-23T14:31:16Z</time>
      </trkpt>
      <trkpt lat="39.686963" lon="-2.485542">
        <time>2021-08-23T14:31:31Z</time>
      </trkpt>
      <trkpt lat="39.687799" lon="-2.489753">
        <time>2021-08-23T14:31:43Z</time>
      </trkpt>
      <trkpt lat="39.687664" lon="-2.491787">
        <time>2021-08-23T14:31:49Z</time>
      </trkpt>
      <trkpt lat="39.687452" lon="-2.492773">
        <time>2021-08-23T14:31:52Z</time>
      </trkpt>
      <trkpt lat="39.686263" lon="-2.495423">
        <time>2021-08-23T14:32:01Z</time>
      </trkpt>
      <trkpt lat="39.68519" lon="-2.496941">
        <time>2021-08-23T14:32:07Z</time>
      </trkpt>
      <trkpt lat="39.681846" lon="-2.501279">
        <time>2021-08-23T14:32:25Z</time>
      </trkpt>
      <trkpt lat="39.679843" lon="-2.504307">
        <time>2021-08-23T14:32:37Z</time>
      </trkpt>
      <trkpt lat="39.679141" lon="-2.506117">
        <time>2021-08-23T14:32:43Z</time>
      </trkpt>
      <trkpt lat="39.678894" lon="-2.507085">
        <time>2021-08-23T14:32:46Z</time>
      </trkpt>
      <trkpt lat="39.678511" lon="-2.511983">
        <time>2021-08-23T14:33:01Z</time>
      </trkpt>
      <trkpt lat="39.678104" lon="-2.514846">
        <time>2021-08-23T14:33:10Z</time>
      </trkpt>
      <trkpt lat="39.677204" lon="-2.517543">
        <time>2021-08-23T14:33:19Z</time>
      </trkpt>
      <trkpt lat="39.676812" lon="-2.518427">
        <time>2021-08-23T14:33:22Z</time>
      </trkpt>
      <trkpt lat="39.674142" lon="-2.522359">
        <time>2021-08-23T14:33:37Z</time>
      </trkpt>
      <trkpt lat="39.670977" lon="-2.526736">
        <time>2021-08-23T14:33:55Z</time>
      </trkpt>
      <trkpt lat="39.667749" lon="-2.531185">
        <time>2021-08-23T14:34:13Z</time>
      </trkpt>
      <trkpt lat="39.664504" lon="-2.535711">
        <time>2021-08-23T14:34:31Z</time>
      </trkpt>
      <trkpt lat="39.661245" lon="-2.540235">
        <time>2021-08-23T14:34:49Z</time>
      </trkpt>
      <trkpt lat="39.658012" lon="-2.544666">
        <time>2021-08-23T14:35:07Z</time>
      </trkpt>
      <trkpt lat="39.654749" lon="-2.549213">
        <time>2021-08-23T14:35:25Z</time>
      </trkpt>
      <trkpt lat="39.651961" lon="-2.552839">
        <time>2021-08-23T14:35:40Z</time>
      </trkpt>
      <trkpt lat="39.651338" lon="-2.553441">
        <time>2021-08-23T14:35:43Z</time>
      </trkpt>
      <trkpt lat="39.647994" lon="-2.557465">
        <time>2021-08-23T14:36:01Z</time>
      </trkpt>
      <trkpt lat="39.647491" lon="-2.55824">
        <time>2021-08-23T14:36:04Z</time>
      </trkpt>
      <trkpt lat="39.645122" lon="-2.562257">
        <time>2021-08-23T14:36:19Z</time>
      </trkpt>
      <trkpt lat="39.642606" lon="-2.567419">
        <time>2021-08-23T14:36:37Z</time>
      </trkpt>
      <trkpt lat="39.640141" lon="-2.57249">
        <time>2021-08-23T14:36:55Z</time>
      </trkpt>
      <trkpt lat="39.637389" lon="-2.578108">
        <time>2021-08-23T14:37:16Z</time>
      </trkpt>
      <trkpt lat="39.634797" lon="-2.582386">
        <time>2021-08-23T14:37:34Z</time>
      </trkpt>
      <trkpt lat="39.634217" lon="-2.582887">
        <time>2021-08-23T14:37:37Z</time>
      </trkpt>
      <trkpt lat="39.630002" lon="-2.586584">
        <time>2021-08-23T14:37:58Z</time>
      </trkpt>
      <trkpt lat="39.626026" lon="-2.590328">
        <time>2021-08-23T14:38:19Z</time>
      </trkpt>
      <trkpt lat="39.626026" lon="-2.590328">
        <time>2021-08-23T14:38:19Z</time>
      </trkpt>
      <trkpt lat="39.625771" lon="-2.591182">
        <time>2021-08-23T14:38:22Z</time>
      </trkpt>
      <trkpt lat="39.625757" lon="-2.592116">
        <time>2021-08-23T14:38:25Z</time>
      </trkpt>
      <trkpt lat="39.626008" lon="-2.593031">
        <time>2021-08-23T14:38:28Z</time>
      </trkpt>
      <trkpt lat="39.626489" lon="-2.593809">
        <time>2021-08-23T14:38:31Z</time>
      </trkpt>
      <trkpt lat="39.627484" lon="-2.59527">
        <time>2021-08-23T14:38:37Z</time>
      </trkpt>
      <trkpt lat="39.627702" lon="-2.596173">
        <time>2021-08-23T14:38:40Z</time>
      </trkpt>
      <trkpt lat="39.627702" lon="-2.596173">
        <time>2021-08-23T14:38:40Z</time>
      </trkpt>
      <trkpt lat="39.628065" lon="-2.598123">
        <time>2021-08-23T14:38:46Z</time>
      </trkpt>
      <trkpt lat="39.629815" lon="-2.601442">
        <time>2021-08-23T14:38:58Z</time>
      </trkpt>
      <trkpt lat="39.629815" lon="-2.601442">
        <time>2021-08-23T14:38:58Z</time>
      </trkpt>
      <trkpt lat="39.629891" lon="-2.602392">
        <time>2021-08-23T14:39:01Z</time>
      </trkpt>
      <trkpt lat="39.629492" lon="-2.605063">
        <time>2021-08-23T14:39:10Z</time>
      </trkpt>
      <trkpt lat="39.628311" lon="-2.60788">
        <time>2021-08-23T14:39:19Z</time>
      </trkpt>
      <trkpt lat="39.625774" lon="-2.613943">
        <time>2021-08-23T14:39:37Z</time>
      </trkpt>
      <trkpt lat="39.623285" lon="-2.619925">
        <time>2021-08-23T14:39:55Z</time>
      </trkpt>
      <trkpt lat="39.62085" lon="-2.625745">
        <time>2021-08-23T14:40:13Z</time>
      </trkpt>
      <trkpt lat="39.618438" lon="-2.631531">
        <time>2021-08-23T14:40:31Z</time>
      </trkpt>
      <trkpt lat="39.615985" lon="-2.637332">
        <time>2021-08-23T14:40:49Z</time>
      </trkpt>
      <trkpt lat="39.615496" lon="-2.638087">
        <time>2021-08-23T14:40:52Z</time>
      </trkpt>
      <trkpt lat="39.614879" lon="-2.638635">
        <time>2021-08-23T14:40:55Z</time>
      </trkpt>
      <trkpt lat="39.613002" lon="-2.63995">
        <time>2021-08-23T14:41:04Z</time>
      </trkpt>
      <trkpt lat="39.612158" lon="-2.641383">
        <time>2021-08-23T14:41:10Z</time>
      </trkpt>
      <trkpt lat="39.612158" lon="-2.641383">
        <time>2021-08-23T14:41:10Z</time>
      </trkpt>
      <trkpt lat="39.609903" lon="-2.646646">
        <time>2021-08-23T14:41:28Z</time>
      </trkpt>
      <trkpt lat="39.60863" lon="-2.650995">
        <time>2021-08-23T14:41:43Z</time>
      </trkpt>
      <trkpt lat="39.608458" lon="-2.653051">
        <time>2021-08-23T14:41:49Z</time>
      </trkpt>
      <trkpt lat="39.608138" lon="-2.655074">
        <time>2021-08-23T14:41:55Z</time>
      </trkpt>
      <trkpt lat="39.606637" lon="-2.65877">
        <time>2021-08-23T14:42:07Z</time>
      </trkpt>
      <trkpt lat="39.604398" lon="-2.664139">
        <time>2021-08-23T14:42:25Z</time>
      </trkpt>
      <trkpt lat="39.602072" lon="-2.669784">
        <time>2021-08-23T14:42:46Z</time>
      </trkpt>
      <trkpt lat="39.599804" lon="-2.675015">
        <time>2021-08-23T14:43:13Z</time>
      </trkpt>
      <trkpt lat="39.599145" lon="-2.676186">
        <time>2021-08-23T14:43:19Z</time>
      </trkpt>
      <trkpt lat="39.597085" lon="-2.679935">
        <time>2021-08-23T14:43:37Z</time>
      </trkpt>
      <trkpt lat="39.597085" lon="-2.679935">
        <time>2021-08-23T14:43:37Z</time>
      </trkpt>
      <trkpt lat="39.596999" lon="-2.681707">
        <time>2021-08-23T14:43:43Z</time>
      </trkpt>
      <trkpt lat="39.596638" lon="-2.684496">
        <time>2021-08-23T14:43:52Z</time>
      </trkpt>
      <trkpt lat="39.596573" lon="-2.686428">
        <time>2021-08-23T14:43:58Z</time>
      </trkpt>
      <trkpt lat="39.596291" lon="-2.687286">
        <time>2021-08-23T14:44:01Z</time>
      </trkpt>
      <trkpt lat="39.595272" lon="-2.688598">
        <time>2021-08-23T14:44:07Z</time>
      </trkpt>
      <trkpt lat="39.594601" lon="-2.688925">
        <time>2021-08-23T14:44:10Z</time>
      </trkpt>
      <trkpt lat="39.593886" lon="-2.689006">
        <time>2021-08-23T14:44:13Z</time>
      </trkpt>
      <trkpt lat="39.592518" lon="-2.688695">
        <time>2021-08-23T14:44:19Z</time>
      </trkpt>
      <trkpt lat="39.591847" lon="-2.688837">
        <time>2021-08-23T14:44:22Z</time>
      </trkpt>
      <trkpt lat="39.591242" lon="-2.689272">
        <time>2021-08-23T14:44:25Z</time>
      </trkpt>
      <trkpt lat="39.588227" lon="-2.692534">
        <time>2021-08-23T14:44:40Z</time>
      </trkpt>
      <trkpt lat="39.584489" lon="-2.696638">
        <time>2021-08-23T14:44:58Z</time>
      </trkpt>
      <trkpt lat="39.580592" lon="-2.700046">
        <time>2021-08-23T14:45:16Z</time>
      </trkpt>
      <trkpt lat="39.576501" lon="-2.703268">
        <time>2021-08-23T14:45:34Z</time>
      </trkpt>
      <trkpt lat="39.572618" lon="-2.706281">
        <time>2021-08-23T14:45:52Z</time>
      </trkpt>
      <trkpt lat="39.571959" lon="-2.706623">
        <time>2021-08-23T14:45:55Z</time>
      </trkpt>
      <trkpt lat="39.570543" lon="-2.706888">
        <time>2021-08-23T14:46:01Z</time>
      </trkpt>
      <trkpt lat="39.567702" lon="-2.706915">
        <time>2021-08-23T14:46:13Z</time>
      </trkpt>
      <trkpt lat="39.565818" lon="-2.707395">
        <time>2021-08-23T14:46:22Z</time>
      </trkpt>
      <trkpt lat="39.564722" lon="-2.707849">
        <time>2021-08-23T14:46:28Z</time>
      </trkpt>
      <trkpt lat="39.563075" lon="-2.707578">
        <time>2021-08-23T14:46:37Z</time>
      </trkpt>
      <trkpt lat="39.562016" lon="-2.707219">
        <time>2021-08-23T14:46:43Z</time>
      </trkpt>
      <trkpt lat="39.561082" lon="-2.706664">
        <time>2021-08-23T14:46:49Z</time>
      </trkpt>
      <trkpt lat="39.560699" lon="-2.706704">
        <time>2021-08-23T14:46:52Z</time>
      </trkpt>
      <trkpt lat="39.560434" lon="-2.706965">
        <time>2021-08-23T14:46:55Z</time>
      </trkpt>
      <trkpt lat="39.559374" lon="-2.708947">
        <time>2021-08-23T14:47:07Z</time>
      </trkpt>
      <trkpt lat="39.559374" lon="-2.708947">
        <time>2021-08-23T14:47:07Z</time>
      </trkpt>
      <trkpt lat="39.5582" lon="-2.714644">
        <time>2021-08-23T14:47:28Z</time>
      </trkpt>
      <trkpt lat="39.55694" lon="-2.72088">
        <time>2021-08-23T14:47:52Z</time>
      </trkpt>
      <trkpt lat="39.555723" lon="-2.726548">
        <time>2021-08-23T14:48:13Z</time>
      </trkpt>
      <trkpt lat="39.554111" lon="-2.73213">
        <time>2021-08-23T14:48:31Z</time>
      </trkpt>
      <trkpt lat="39.552481" lon="-2.737782">
        <time>2021-08-23T14:48:49Z</time>
      </trkpt>
      <trkpt lat="39.550812" lon="-2.743594">
        <time>2021-08-23T14:49:07Z</time>
      </trkpt>
      <trkpt lat="39.549136" lon="-2.749417">
        <time>2021-08-23T14:49:25Z</time>
      </trkpt>
      <trkpt lat="39.547461" lon="-2.755267">
        <time>2021-08-23T14:49:43Z</time>
      </trkpt>
      <trkpt lat="39.545827" lon="-2.760956">
        <time>2021-08-23T14:50:01Z</time>
      </trkpt>
      <trkpt lat="39.54421" lon="-2.766592">
        <time>2021-08-23T14:50:19Z</time>
      </trkpt>
      <trkpt lat="39.542578" lon="-2.772273">
        <time>2021-08-23T14:50:37Z</time>
      </trkpt>
      <trkpt lat="39.540901" lon="-2.778118">
        <time>2021-08-23T14:50:55Z</time>
      </trkpt>
      <trkpt lat="39.539286" lon="-2.783737">
        <time>2021-08-23T14:51:13Z</time>
      </trkpt>
      <trkpt lat="39.537642" lon="-2.78949">
        <time>2021-08-23T14:51:31Z</time>
      </trkpt>
      <trkpt lat="39.536014" lon="-2.795158">
        <time>2021-08-23T14:51:49Z</time>
      </trkpt>
      <trkpt lat="39.534401" lon="-2.800828">
        <time>2021-08-23T14:52:07Z</time>
      </trkpt>
      <trkpt lat="39.53283" lon="-2.806322">
        <time>2021-08-23T14:52:25Z</time>
      </trkpt>
      <trkpt lat="39.531222" lon="-2.811968">
        <time>2021-08-23T14:52:43Z</time>
      </trkpt>
      <trkpt lat="39.529622" lon="-2.817566">
        <time>2021-08-23T14:53:01Z</time>
      </trkpt>
      <trkpt lat="39.528061" lon="-2.82303">
        <time>2021-08-23T14:53:19Z</time>
      </trkpt>
      <trkpt lat="39.526265" lon="-2.828573">
        <time>2021-08-23T14:53:37Z</time>
      </trkpt>
      <trkpt lat="39.526265" lon="-2.828573">
        <time>2021-08-23T14:53:37Z</time>
      </trkpt>
      <trkpt lat="39.523422" lon="-2.833448">
        <time>2021-08-23T14:53:55Z</time>
      </trkpt>
      <trkpt lat="39.520485" lon="-2.838026">
        <time>2021-08-23T14:54:13Z</time>
      </trkpt>
      <trkpt lat="39.517484" lon="-2.842731">
        <time>2021-08-23T14:54:31Z</time>
      </trkpt>
      <trkpt lat="39.514192" lon="-2.847854">
        <time>2021-08-23T14:54:52Z</time>
      </trkpt>
      <trkpt lat="39.51086" lon="-2.853028">
        <time>2021-08-23T14:55:13Z</time>
      </trkpt>
      <trkpt lat="39.508441" lon="-2.85656">
        <time>2021-08-23T14:55:28Z</time>
      </trkpt>
      <trkpt lat="39.507847" lon="-2.856911">
        <time>2021-08-23T14:55:31Z</time>
      </trkpt>
      <trkpt lat="39.507294" lon="-2.857016">
        <time>2021-08-23T14:55:34Z</time>
      </trkpt>
      <trkpt lat="39.50679" lon="-2.856966">
        <time>2021-08-23T14:55:37Z</time>
      </trkpt>
      <trkpt lat="39.5058" lon="-2.856412">
        <time>2021-08-23T14:55:43Z</time>
      </trkpt>
      <trkpt lat="39.502965" lon="-2.853863">
        <time>2021-08-23T14:56:01Z</time>
      </trkpt>
      <trkpt lat="39.501812" lon="-2.852954">
        <time>2021-08-23T14:56:10Z</time>
      </trkpt>
      <trkpt lat="39.50132" lon="-2.852897">
        <time>2021-08-23T14:56:16Z</time>
      </trkpt>
      <trkpt lat="39.501022" lon="-2.852741">
        <time>2021-08-23T14:56:19Z</time>
      </trkpt>
      <trkpt lat="39.50061" lon="-2.85279">
        <time>2021-08-23T14:56:22Z</time>
      </trkpt>
      <trkpt lat="39.499053" lon="-2.85368">
        <time>2021-08-23T14:56:31Z</time>
      </trkpt>
      <trkpt lat="39.49854" lon="-2.854192">
        <time>2021-08-23T14:56:34Z</time>
      </trkpt>
      <trkpt lat="39.494606" lon="-2.858588">
        <time>2021-08-23T14:56:55Z</time>
      </trkpt>
      <trkpt lat="39.491049" lon="-2.862591">
        <time>2021-08-23T14:57:13Z</time>
      </trkpt>
      <trkpt lat="39.487321" lon="-2.866862">
        <time>2021-08-23T14:57:31Z</time>
      </trkpt>
      <trkpt lat="39.485124" lon="-2.869663">
        <time>2021-08-23T14:57:43Z</time>
      </trkpt>
      <trkpt lat="39.484463" lon="-2.871291">
        <time>2021-08-23T14:57:49Z</time>
      </trkpt>
      <trkpt lat="39.484463" lon="-2.871291">
        <time>2021-08-23T14:57:49Z</time>
      </trkpt>
      <trkpt lat="39.48428" lon="-2.872733">
        <time>2021-08-23T14:57:55Z</time>
      </trkpt>
      <trkpt lat="39.484438" lon="-2.873324">
        <time>2021-08-23T14:57:58Z</time>
      </trkpt>
      <trkpt lat="39.484688" lon="-2.873736">
        <time>2021-08-23T14:58:01Z</time>
      </trkpt>
      <trkpt lat="39.484957" lon="-2.873935">
        <time>2021-08-23T14:58:04Z</time>
      </trkpt>
      <trkpt lat="39.48532" lon="-2.874214">
        <time>2021-08-23T14:58:10Z</time>
      </trkpt>
      <trkpt lat="39.485294" lon="-2.874508">
        <time>2021-08-23T14:58:13Z</time>
      </trkpt>
      <trkpt lat="39.485085" lon="-2.874637">
        <time>2021-08-23T14:58:16Z</time>
      </trkpt>
      <trkpt lat="39.484813" lon="-2.8745">
        <time>2021-08-23T14:58:19Z</time>
      </trkpt>
      <trkpt lat="39.484446" lon="-2.874377">
        <time>2021-08-23T14:58:22Z</time>
      </trkpt>
      <trkpt lat="39.483551" lon="-2.874501">
        <time>2021-08-23T14:58:28Z</time>
      </trkpt>
      <trkpt lat="39.483551" lon="-2.874501">
        <time>2021-08-23T14:58:28Z</time>
      </trkpt>
      <trkpt lat="39.48288" lon="-2.874861">
        <time>2021-08-23T14:58:34Z</time>
      </trkpt>
      <trkpt lat="39.482472" lon="-2.87485">
        <time>2021-08-23T14:58:37Z</time>
      </trkpt>
      <trkpt lat="39.482014" lon="-2.875086">
        <time>2021-08-23T14:58:40Z</time>
      </trkpt>
      <trkpt lat="39.480505" lon="-2.876538">
        <time>2021-08-23T14:58:49Z</time>
      </trkpt>
      <trkpt lat="39.479462" lon="-2.877918">
        <time>2021-08-23T14:58:55Z</time>
      </trkpt>
      <trkpt lat="39.476008" lon="-2.882517">
        <time>2021-08-23T14:59:13Z</time>
      </trkpt>
      <trkpt lat="39.472681" lon="-2.886919">
        <time>2021-08-23T14:59:31Z</time>
      </trkpt>
      <trkpt lat="39.469356" lon="-2.891277">
        <time>2021-08-23T14:59:49Z</time>
      </trkpt>
      <trkpt lat="39.465675" lon="-2.894818">
        <time>2021-08-23T15:00:07Z</time>
      </trkpt>
      <trkpt lat="39.461709" lon="-2.898548">
        <time>2021-08-23T15:00:28Z</time>
      </trkpt>
      <trkpt lat="39.4595" lon="-2.900498">
        <time>2021-08-23T15:00:40Z</time>
      </trkpt>
      <trkpt lat="39.4595" lon="-2.900498">
        <time>2021-08-23T15:00:40Z</time>
      </trkpt>
      <trkpt lat="39.4595" lon="-2.900498">
        <time>2021-08-23T15:00:40Z</time>
      </trkpt>
      <trkpt lat="39.457564" lon="-2.901707">
        <time>2021-08-23T15:00:49Z</time>
      </trkpt>
      <trkpt lat="39.453178" lon="-2.904418">
        <time>2021-08-23T15:01:10Z</time>
      </trkpt>
      <trkpt lat="39.44907" lon="-2.906957">
        <time>2021-08-23T15:01:28Z</time>
      </trkpt>
      <trkpt lat="39.444367" lon="-2.909836">
        <time>2021-08-23T15:01:49Z</time>
      </trkpt>
      <trkpt lat="39.440279" lon="-2.91235">
        <time>2021-08-23T15:02:07Z</time>
      </trkpt>
      <trkpt lat="39.435939" lon="-2.915005">
        <time>2021-08-23T15:02:25Z</time>
      </trkpt>
      <trkpt lat="39.431778" lon="-2.917548">
        <time>2021-08-23T15:02:43Z</time>
      </trkpt>
      <trkpt lat="39.427393" lon="-2.920231">
        <time>2021-08-23T15:03:01Z</time>
      </trkpt>
      <trkpt lat="39.423065" lon="-2.922874">
        <time>2021-08-23T15:03:19Z</time>
      </trkpt>
      <trkpt lat="39.421739" lon="-2.923932">
        <time>2021-08-23T15:03:25Z</time>
      </trkpt>
      <trkpt lat="39.419571" lon="-2.926802">
        <time>2021-08-23T15:03:37Z</time>
      </trkpt>
      <trkpt lat="39.416221" lon="-2.931272">
        <time>2021-08-23T15:03:55Z</time>
      </trkpt>
      <trkpt lat="39.41291" lon="-2.935687">
        <time>2021-08-23T15:04:13Z</time>
      </trkpt>
      <trkpt lat="39.409763" lon="-2.939902">
        <time>2021-08-23T15:04:31Z</time>
      </trkpt>
      <trkpt lat="39.408068" lon="-2.942416">
        <time>2021-08-23T15:04:46Z</time>
      </trkpt>
      <trkpt lat="39.407647" lon="-2.945335">
        <time>2021-08-23T15:05:01Z</time>
      </trkpt>
      <trkpt lat="39.407647" lon="-2.945335">
        <time>2021-08-23T15:05:01Z</time>
      </trkpt>
      <trkpt lat="39.407401" lon="-2.947986">
        <time>2021-08-23T15:05:16Z</time>
      </trkpt>
      <trkpt lat="39.406612" lon="-2.950993">
        <time>2021-08-23T15:05:34Z</time>
      </trkpt>
      <trkpt lat="39.405524" lon="-2.955512">
        <time>2021-08-23T15:05:58Z</time>
      </trkpt>
      <trkpt lat="39.405495" lon="-2.956652">
        <time>2021-08-23T15:06:04Z</time>
      </trkpt>
      <trkpt lat="39.405543" lon="-2.957073">
        <time>2021-08-23T15:06:07Z</time>
      </trkpt>
      <trkpt lat="39.4055" lon="-2.957467">
        <time>2021-08-23T15:06:10Z</time>
      </trkpt>
      <trkpt lat="39.405469" lon="-2.957991">
        <time>2021-08-23T15:06:13Z</time>
      </trkpt>
      <trkpt lat="39.405435" lon="-2.962803">
        <time>2021-08-23T15:06:31Z</time>
      </trkpt>
      <trkpt lat="39.405388" lon="-2.969231">
        <time>2021-08-23T15:06:52Z</time>
      </trkpt>
      <trkpt lat="39.405337" lon="-2.975159">
        <time>2021-08-23T15:07:10Z</time>
      </trkpt>
      <trkpt lat="39.405287" lon="-2.981255">
        <time>2021-08-23T15:07:28Z</time>
      </trkpt>
      <trkpt lat="39.40524" lon="-2.987312">
        <time>2021-08-23T15:07:46Z</time>
      </trkpt>
      <trkpt lat="39.405189" lon="-2.993358">
        <time>2021-08-23T15:08:04Z</time>
      </trkpt>
      <trkpt lat="39.405117" lon="-2.999396">
        <time>2021-08-23T15:08:22Z</time>
      </trkpt>
      <trkpt lat="39.405024" lon="-3.005317">
        <time>2021-08-23T15:08:40Z</time>
      </trkpt>
      <trkpt lat="39.404897" lon="-3.012076">
        <time>2021-08-23T15:09:01Z</time>
      </trkpt>
      <trkpt lat="39.404791" lon="-3.018832">
        <time>2021-08-23T15:09:22Z</time>
      </trkpt>
      <trkpt lat="39.404708" lon="-3.025613">
        <time>2021-08-23T15:09:43Z</time>
      </trkpt>
      <trkpt lat="39.404632" lon="-3.031488">
        <time>2021-08-23T15:10:01Z</time>
      </trkpt>
      <trkpt lat="39.404556" lon="-3.038258">
        <time>2021-08-23T15:10:22Z</time>
      </trkpt>
      <trkpt lat="39.404487" lon="-3.044227">
        <time>2021-08-23T15:10:40Z</time>
      </trkpt>
      <trkpt lat="39.404426" lon="-3.05004">
        <time>2021-08-23T15:10:58Z</time>
      </trkpt>
      <trkpt lat="39.404356" lon="-3.055894">
        <time>2021-08-23T15:11:16Z</time>
      </trkpt>
      <trkpt lat="39.404284" lon="-3.061874">
        <time>2021-08-23T15:11:34Z</time>
      </trkpt>
      <trkpt lat="39.404206" lon="-3.068453">
        <time>2021-08-23T15:11:55Z</time>
      </trkpt>
      <trkpt lat="39.404124" lon="-3.074364">
        <time>2021-08-23T15:12:13Z</time>
      </trkpt>
      <trkpt lat="39.404124" lon="-3.074364">
        <time>2021-08-23T15:12:13Z</time>
      </trkpt>
      <trkpt lat="39.404124" lon="-3.074364">
        <time>2021-08-23T15:12:13Z</time>
      </trkpt>
      <trkpt lat="39.404211" lon="-3.079129">
        <time>2021-08-23T15:12:31Z</time>
      </trkpt>
      <trkpt lat="39.404361" lon="-3.079449">
        <time>2021-08-23T15:12:34Z</time>
      </trkpt>
      <trkpt lat="39.404293" lon="-3.079718">
        <time>2021-08-23T15:12:37Z</time>
      </trkpt>
      <trkpt lat="39.40406" lon="-3.079791">
        <time>2021-08-23T15:12:40Z</time>
      </trkpt>
      <trkpt lat="39.403744" lon="-3.079774">
        <time>2021-08-23T15:12:43Z</time>
      </trkpt>
      <trkpt lat="39.403744" lon="-3.079774">
        <time>2021-08-23T15:12:43Z</time>
      </trkpt>
      <trkpt lat="39.403385" lon="-3.080024">
        <time>2021-08-23T15:12:46Z</time>
      </trkpt>
      <trkpt lat="39.399902" lon="-3.083807">
        <time>2021-08-23T15:13:07Z</time>
      </trkpt>
      <trkpt lat="39.399902" lon="-3.083807">
        <time>2021-08-23T15:13:07Z</time>
      </trkpt>
      <trkpt lat="39.396746" lon="-3.088976">
        <time>2021-08-23T15:13:28Z</time>
      </trkpt>
      <trkpt lat="39.395483" lon="-3.090924">
        <time>2021-08-23T15:13:40Z</time>
      </trkpt>
      <trkpt lat="39.395356" lon="-3.091233">
        <time>2021-08-23T15:13:43Z</time>
      </trkpt>
      <trkpt lat="39.395074" lon="-3.091343">
        <time>2021-08-23T15:13:46Z</time>
      </trkpt>
      <trkpt lat="39.39475" lon="-3.091586">
        <time>2021-08-23T15:13:49Z</time>
      </trkpt>
      <trkpt lat="39.393152" lon="-3.093497">
        <time>2021-08-23T15:14:01Z</time>
      </trkpt>
      <trkpt lat="39.389374" lon="-3.097992">
        <time>2021-08-23T15:14:22Z</time>
      </trkpt>
      <trkpt lat="39.38585" lon="-3.102495">
        <time>2021-08-23T15:14:43Z</time>
      </trkpt>
      <trkpt lat="39.384338" lon="-3.10515">
        <time>2021-08-23T15:14:58Z</time>
      </trkpt>
      <trkpt lat="39.384277" lon="-3.105472">
        <time>2021-08-23T15:15:01Z</time>
      </trkpt>
      <trkpt lat="39.384018" lon="-3.105669">
        <time>2021-08-23T15:15:04Z</time>
      </trkpt>
      <trkpt lat="39.383729" lon="-3.105995">
        <time>2021-08-23T15:15:07Z</time>
      </trkpt>
      <trkpt lat="39.383166" lon="-3.107045">
        <time>2021-08-23T15:15:13Z</time>
      </trkpt>
      <trkpt lat="39.380749" lon="-3.112744">
        <time>2021-08-23T15:15:37Z</time>
      </trkpt>
      <trkpt lat="39.380485" lon="-3.113523">
        <time>2021-08-23T15:15:40Z</time>
      </trkpt>
      <trkpt lat="39.379745" lon="-3.116203">
        <time>2021-08-23T15:15:52Z</time>
      </trkpt>
      <trkpt lat="39.379693" lon="-3.116906">
        <time>2021-08-23T15:15:58Z</time>
      </trkpt>
      <trkpt lat="39.37945" lon="-3.117241">
        <time>2021-08-23T15:16:01Z</time>
      </trkpt>
      <trkpt lat="39.37916" lon="-3.118475">
        <time>2021-08-23T15:16:07Z</time>
      </trkpt>
      <trkpt lat="39.378861" lon="-3.119983">
        <time>2021-08-23T15:16:13Z</time>
      </trkpt>
      <trkpt lat="39.378218" lon="-3.125003">
        <time>2021-08-23T15:16:31Z</time>
      </trkpt>
      <trkpt lat="39.378034" lon="-3.131741">
        <time>2021-08-23T15:16:52Z</time>
      </trkpt>
      <trkpt lat="39.378045" lon="-3.135681">
        <time>2021-08-23T15:17:07Z</time>
      </trkpt>
      <trkpt lat="39.378201" lon="-3.13602">
        <time>2021-08-23T15:17:10Z</time>
      </trkpt>
      <trkpt lat="39.378194" lon="-3.136366">
        <time>2021-08-23T15:17:13Z</time>
      </trkpt>
      <trkpt lat="39.377998" lon="-3.137364">
        <time>2021-08-23T15:17:19Z</time>
      </trkpt>
      <trkpt lat="39.377995" lon="-3.138091">
        <time>2021-08-23T15:17:22Z</time>
      </trkpt>
      <trkpt lat="39.377924" lon="-3.144539">
        <time>2021-08-23T15:17:43Z</time>
      </trkpt>
      <trkpt lat="39.377688" lon="-3.151122">
        <time>2021-08-23T15:18:01Z</time>
      </trkpt>
      <trkpt lat="39.376905" lon="-3.156316">
        <time>2021-08-23T15:18:16Z</time>
      </trkpt>
      <trkpt lat="39.376703" lon="-3.157215">
        <time>2021-08-23T15:18:19Z</time>
      </trkpt>
      <trkpt lat="39.376445" lon="-3.158929">
        <time>2021-08-23T15:18:28Z</time>
      </trkpt>
      <trkpt lat="39.376418" lon="-3.159292">
        <time>2021-08-23T15:18:31Z</time>
      </trkpt>
      <trkpt lat="39.376176" lon="-3.159564">
        <time>2021-08-23T15:18:34Z</time>
      </trkpt>
      <trkpt lat="39.375985" lon="-3.160041">
        <time>2021-08-23T15:18:37Z</time>
      </trkpt>
      <trkpt lat="39.375041" lon="-3.162967">
        <time>2021-08-23T15:18:49Z</time>
      </trkpt>
      <trkpt lat="39.372844" lon="-3.168111">
        <time>2021-08-23T15:19:07Z</time>
      </trkpt>
      <trkpt lat="39.372408" lon="-3.168958">
        <time>2021-08-23T15:19:10Z</time>
      </trkpt>
      <trkpt lat="39.369992" lon="-3.172989">
        <time>2021-08-23T15:19:25Z</time>
      </trkpt>
      <trkpt lat="39.366473" lon="-3.177386">
        <time>2021-08-23T15:19:43Z</time>
      </trkpt>
      <trkpt lat="39.366473" lon="-3.177386">
        <time>2021-08-23T15:19:43Z</time>
      </trkpt>
      <trkpt lat="39.363155" lon="-3.181796">
        <time>2021-08-23T15:20:01Z</time>
      </trkpt>
      <trkpt lat="39.361478" lon="-3.184623">
        <time>2021-08-23T15:20:13Z</time>
      </trkpt>
      <trkpt lat="39.360437" lon="-3.186687">
        <time>2021-08-23T15:20:22Z</time>
      </trkpt>
      <trkpt lat="39.359518" lon="-3.188797">
        <time>2021-08-23T15:20:37Z</time>
      </trkpt>
      <trkpt lat="39.359589" lon="-3.189004">
        <time>2021-08-23T15:20:40Z</time>
      </trkpt>
      <trkpt lat="39.359812" lon="-3.189196">
        <time>2021-08-23T15:20:43Z</time>
      </trkpt>
      <trkpt lat="39.360496" lon="-3.18978">
        <time>2021-08-23T15:20:49Z</time>
      </trkpt>
      <trkpt lat="39.361341" lon="-3.190823">
        <time>2021-08-23T15:20:55Z</time>
      </trkpt>
      <trkpt lat="39.361919" lon="-3.191209">
        <time>2021-08-23T15:20:58Z</time>
      </trkpt>
      <trkpt lat="39.366206" lon="-3.193765">
        <time>2021-08-23T15:21:19Z</time>
      </trkpt>
      <trkpt lat="39.367851" lon="-3.194619">
        <time>2021-08-23T15:21:31Z</time>
      </trkpt>
      <trkpt lat="39.36792" lon="-3.19456">
        <time>2021-08-23T15:21:34Z</time>
      </trkpt>
      <trkpt lat="39.367843" lon="-3.194343">
        <time>2021-08-23T15:21:37Z</time>
      </trkpt>
      <trkpt lat="39.367615" lon="-3.193806">
        <time>2021-08-23T15:21:43Z</time>
      </trkpt>
      <trkpt lat="39.367739" lon="-3.1937">
        <time>2021-08-23T15:21:46Z</time>
      </trkpt>
      <trkpt lat="39.369864" lon="-3.192429">
        <time>2021-08-23T15:22:01Z</time>
      </trkpt>
      <trkpt lat="39.370156" lon="-3.192206">
        <time>2021-08-23T15:22:04Z</time>
      </trkpt>
      <trkpt lat="39.370237" lon="-3.19191">
        <time>2021-08-23T15:22:07Z</time>
      </trkpt>
      <trkpt lat="39.370285" lon="-3.19155">
        <time>2021-08-23T15:22:10Z</time>
      </trkpt>
      <trkpt lat="39.370465" lon="-3.191255">
        <time>2021-08-23T15:22:13Z</time>
      </trkpt>
      <trkpt lat="39.370791" lon="-3.190856">
        <time>2021-08-23T15:22:19Z</time>
      </trkpt>
      <trkpt lat="39.370833" lon="-3.190423">
        <time>2021-08-23T15:22:25Z</time>
      </trkpt>
      <trkpt lat="39.37071" lon="-3.189828">
        <time>2021-08-23T15:22:31Z</time>
      </trkpt>
      <trkpt lat="39.370549" lon="-3.189306">
        <time>2021-08-23T15:22:37Z</time>
      </trkpt>
      <trkpt lat="39.370496" lon="-3.189174">
        <time>2021-08-23T15:22:40Z</time>
      </trkpt>
      <trkpt lat="39.370474" lon="-3.189106">
        <time>2021-08-23T15:22:52Z</time>
      </trkpt>
      <trkpt lat="39.370555" lon="-3.189263">
        <time>2021-08-23T15:23:13Z</time>
      </trkpt>
      <trkpt lat="39.370812" lon="-3.190411">
        <time>2021-08-23T15:23:25Z</time>
      </trkpt>
      <trkpt lat="39.370799" lon="-3.190664">
        <time>2021-08-23T15:23:31Z</time>
      </trkpt>
      <trkpt lat="39.370771" lon="-3.190617">
        <time>2021-08-23T15:23:34Z</time>
      </trkpt>
      <trkpt lat="39.370635" lon="-3.189893">
        <time>2021-08-23T15:23:40Z</time>
      </trkpt>
      <trkpt lat="39.370496" lon="-3.189578">
        <time>2021-08-23T15:23:43Z</time>
      </trkpt>
      <trkpt lat="39.370129" lon="-3.188938">
        <time>2021-08-23T15:23:49Z</time>
      </trkpt>
      <trkpt lat="39.369716" lon="-3.188412">
        <time>2021-08-23T15:23:55Z</time>
      </trkpt>
      <trkpt lat="39.369791" lon="-3.188311">
        <time>2021-08-23T15:23:58Z</time>
      </trkpt>
      <trkpt lat="39.370291" lon="-3.188246">
        <time>2021-08-23T15:24:04Z</time>
      </trkpt>
      <trkpt lat="39.370507" lon="-3.18807">
        <time>2021-08-23T15:24:07Z</time>
      </trkpt>
      <trkpt lat="39.370563" lon="-3.187859">
        <time>2021-08-23T15:24:10Z</time>
      </trkpt>
      <trkpt lat="39.370474" lon="-3.187668">
        <time>2021-08-23T15:24:13Z</time>
      </trkpt>
      <trkpt lat="39.370307" lon="-3.187491">
        <time>2021-08-23T15:24:16Z</time>
      </trkpt>
      <trkpt lat="39.370044" lon="-3.187373">
        <time>2021-08-23T15:24:22Z</time>
      </trkpt>
      <trkpt lat="39.37" lon="-3.187411">
        <time>2021-08-23T15:24:25Z</time>
      </trkpt>
      <trkpt lat="39.369996" lon="-3.187492">
        <time>2021-08-23T15:24:28Z</time>
      </trkpt>
      <trkpt lat="39.370004" lon="-3.187579">
        <time>2021-08-23T15:24:31Z</time>
      </trkpt>
      <trkpt lat="39.370013" lon="-3.187591">
        <time>2021-08-23T15:24:38Z</time>
      </trkpt>
      <trkpt lat="39.370013" lon="-3.187591">
        <time>2021-08-23T15:24:38Z</time>
      </trkpt>
      <trkpt lat="39.36998" lon="-3.187596">
        <time>2021-08-23T15:35:26Z</time>
      </trkpt>
      <trkpt lat="39.370112" lon="-3.187555">
        <time>2021-08-23T15:36:20Z</time>
      </trkpt>
      <trkpt lat="39.370143" lon="-3.187492">
        <time>2021-08-23T15:36:23Z</time>
      </trkpt>
      <trkpt lat="39.370156" lon="-3.187488">
        <time>2021-08-23T15:36:35Z</time>
      </trkpt>
      <trkpt lat="39.370275" lon="-3.187524">
        <time>2021-08-23T15:36:38Z</time>
      </trkpt>
      <trkpt lat="39.370507" lon="-3.187765">
        <time>2021-08-23T15:36:44Z</time>
      </trkpt>
      <trkpt lat="39.370536" lon="-3.187958">
        <time>2021-08-23T15:36:47Z</time>
      </trkpt>
      <trkpt lat="39.37042" lon="-3.188118">
        <time>2021-08-23T15:36:50Z</time>
      </trkpt>
      <trkpt lat="39.369994" lon="-3.188286">
        <time>2021-08-23T15:36:56Z</time>
      </trkpt>
      <trkpt lat="39.369709" lon="-3.18839">
        <time>2021-08-23T15:37:02Z</time>
      </trkpt>
      <trkpt lat="39.369809" lon="-3.188586">
        <time>2021-08-23T15:37:05Z</time>
      </trkpt>
      <trkpt lat="39.370433" lon="-3.189444">
        <time>2021-08-23T15:37:14Z</time>
      </trkpt>
      <trkpt lat="39.370676" lon="-3.190105">
        <time>2021-08-23T15:37:20Z</time>
      </trkpt>
      <trkpt lat="39.37077" lon="-3.190825">
        <time>2021-08-23T15:37:26Z</time>
      </trkpt>
      <trkpt lat="39.370652" lon="-3.191055">
        <time>2021-08-23T15:37:29Z</time>
      </trkpt>
      <trkpt lat="39.370457" lon="-3.1912">
        <time>2021-08-23T15:37:35Z</time>
      </trkpt>
      <trkpt lat="39.370303" lon="-3.191425">
        <time>2021-08-23T15:37:35Z</time>
      </trkpt>
      <trkpt lat="39.370303" lon="-3.191425">
        <time>2021-08-23T15:37:35Z</time>
      </trkpt>
      <trkpt lat="39.370216" lon="-3.191698">
        <time>2021-08-23T15:37:38Z</time>
      </trkpt>
      <trkpt lat="39.370005" lon="-3.193732">
        <time>2021-08-23T15:37:56Z</time>
      </trkpt>
      <trkpt lat="39.369968" lon="-3.194072">
        <time>2021-08-23T15:37:59Z</time>
      </trkpt>
      <trkpt lat="39.369749" lon="-3.194688">
        <time>2021-08-23T15:38:05Z</time>
      </trkpt>
      <trkpt lat="39.369121" lon="-3.195515">
        <time>2021-08-23T15:38:17Z</time>
      </trkpt>
      <trkpt lat="39.3691" lon="-3.195594">
        <time>2021-08-23T15:38:20Z</time>
      </trkpt>
      <trkpt lat="39.369209" lon="-3.195759">
        <time>2021-08-23T15:38:23Z</time>
      </trkpt>
      <trkpt lat="39.36982" lon="-3.196378">
        <time>2021-08-23T15:38:29Z</time>
      </trkpt>
      <trkpt lat="39.373808" lon="-3.200478">
        <time>2021-08-23T15:38:56Z</time>
      </trkpt>
      <trkpt lat="39.377616" lon="-3.204292">
        <time>2021-08-23T15:39:20Z</time>
      </trkpt>
      <trkpt lat="39.381401" lon="-3.208058">
        <time>2021-08-23T15:39:47Z</time>
      </trkpt>
      <trkpt lat="39.381621" lon="-3.208157">
        <time>2021-08-23T15:39:50Z</time>
      </trkpt>
      <trkpt lat="39.381716" lon="-3.208297">
        <time>2021-08-23T15:39:53Z</time>
      </trkpt>
      <trkpt lat="39.381655" lon="-3.20845">
        <time>2021-08-23T15:39:56Z</time>
      </trkpt>
      <trkpt lat="39.381466" lon="-3.208453">
        <time>2021-08-23T15:39:59Z</time>
      </trkpt>
      <trkpt lat="39.381169" lon="-3.208405">
        <time>2021-08-23T15:40:02Z</time>
      </trkpt>
      <trkpt lat="39.379801" lon="-3.208699">
        <time>2021-08-23T15:40:11Z</time>
      </trkpt>
      <trkpt lat="39.378209" lon="-3.209754">
        <time>2021-08-23T15:40:20Z</time>
      </trkpt>
      <trkpt lat="39.377733" lon="-3.210294">
        <time>2021-08-23T15:40:23Z</time>
      </trkpt>
      <trkpt lat="39.374373" lon="-3.214292">
        <time>2021-08-23T15:40:44Z</time>
      </trkpt>
      <trkpt lat="39.373787" lon="-3.214738">
        <time>2021-08-23T15:40:47Z</time>
      </trkpt>
      <trkpt lat="39.371434" lon="-3.216029">
        <time>2021-08-23T15:41:02Z</time>
      </trkpt>
      <trkpt lat="39.37114" lon="-3.215929">
        <time>2021-08-23T15:41:05Z</time>
      </trkpt>
      <trkpt lat="39.370751" lon="-3.215891">
        <time>2021-08-23T15:41:08Z</time>
      </trkpt>
      <trkpt lat="39.36985" lon="-3.215972">
        <time>2021-08-23T15:41:14Z</time>
      </trkpt>
      <trkpt lat="39.36911" lon="-3.216226">
        <time>2021-08-23T15:41:20Z</time>
      </trkpt>
      <trkpt lat="39.36882" lon="-3.216239">
        <time>2021-08-23T15:41:23Z</time>
      </trkpt>
      <trkpt lat="39.368447" lon="-3.216138">
        <time>2021-08-23T15:41:26Z</time>
      </trkpt>
      <trkpt lat="39.36503" lon="-3.216792">
        <time>2021-08-23T15:41:44Z</time>
      </trkpt>
      <trkpt lat="39.36503" lon="-3.216792">
        <time>2021-08-23T15:41:44Z</time>
      </trkpt>
      <trkpt lat="39.360617" lon="-3.218717">
        <time>2021-08-23T15:42:05Z</time>
      </trkpt>
      <trkpt lat="39.356296" lon="-3.221118">
        <time>2021-08-23T15:42:26Z</time>
      </trkpt>
      <trkpt lat="39.351808" lon="-3.223478">
        <time>2021-08-23T15:42:47Z</time>
      </trkpt>
      <trkpt lat="39.347535" lon="-3.225002">
        <time>2021-08-23T15:43:05Z</time>
      </trkpt>
      <trkpt lat="39.34678" lon="-3.225172">
        <time>2021-08-23T15:43:08Z</time>
      </trkpt>
      <trkpt lat="39.341894" lon="-3.227049">
        <time>2021-08-23T15:43:29Z</time>
      </trkpt>
      <trkpt lat="39.337177" lon="-3.22923">
        <time>2021-08-23T15:43:50Z</time>
      </trkpt>
      <trkpt lat="39.33228" lon="-3.231047">
        <time>2021-08-23T15:44:11Z</time>
      </trkpt>
      <trkpt lat="39.328852" lon="-3.231927">
        <time>2021-08-23T15:44:26Z</time>
      </trkpt>
      <trkpt lat="39.32759" lon="-3.232798">
        <time>2021-08-23T15:44:32Z</time>
      </trkpt>
      <trkpt lat="39.323273" lon="-3.234748">
        <time>2021-08-23T15:44:50Z</time>
      </trkpt>
      <trkpt lat="39.31843" lon="-3.236586">
        <time>2021-08-23T15:45:11Z</time>
      </trkpt>
      <trkpt lat="39.31353" lon="-3.238432">
        <time>2021-08-23T15:45:32Z</time>
      </trkpt>
      <trkpt lat="39.310086" lon="-3.239685">
        <time>2021-08-23T15:45:47Z</time>
      </trkpt>
      <trkpt lat="39.308642" lon="-3.239825">
        <time>2021-08-23T15:45:53Z</time>
      </trkpt>
      <trkpt lat="39.304375" lon="-3.239841">
        <time>2021-08-23T15:46:11Z</time>
      </trkpt>
      <trkpt lat="39.303703" lon="-3.239636">
        <time>2021-08-23T15:46:14Z</time>
      </trkpt>
      <trkpt lat="39.300157" lon="-3.238782">
        <time>2021-08-23T15:46:29Z</time>
      </trkpt>
      <trkpt lat="39.29876" lon="-3.239215">
        <time>2021-08-23T15:46:35Z</time>
      </trkpt>
      <trkpt lat="39.294392" lon="-3.24057">
        <time>2021-08-23T15:46:53Z</time>
      </trkpt>
      <trkpt lat="39.289387" lon="-3.241717">
        <time>2021-08-23T15:47:14Z</time>
      </trkpt>
      <trkpt lat="39.284593" lon="-3.243418">
        <time>2021-08-23T15:47:35Z</time>
      </trkpt>
      <trkpt lat="39.284593" lon="-3.243418">
        <time>2021-08-23T15:47:35Z</time>
      </trkpt>
      <trkpt lat="39.28288" lon="-3.244721">
        <time>2021-08-23T15:47:44Z</time>
      </trkpt>
      <trkpt lat="39.280176" lon="-3.245058">
        <time>2021-08-23T15:47:56Z</time>
      </trkpt>
      <trkpt lat="39.275554" lon="-3.246438">
        <time>2021-08-23T15:48:17Z</time>
      </trkpt>
      <trkpt lat="39.272792" lon="-3.247002">
        <time>2021-08-23T15:48:29Z</time>
      </trkpt>
      <trkpt lat="39.270721" lon="-3.246803">
        <time>2021-08-23T15:48:38Z</time>
      </trkpt>
      <trkpt lat="39.268031" lon="-3.246959">
        <time>2021-08-23T15:48:50Z</time>
      </trkpt>
      <trkpt lat="39.265954" lon="-3.247657">
        <time>2021-08-23T15:48:59Z</time>
      </trkpt>
      <trkpt lat="39.265232" lon="-3.247676">
        <time>2021-08-23T15:49:02Z</time>
      </trkpt>
      <trkpt lat="39.26246" lon="-3.247976">
        <time>2021-08-23T15:49:14Z</time>
      </trkpt>
      <trkpt lat="39.261286" lon="-3.248836">
        <time>2021-08-23T15:49:20Z</time>
      </trkpt>
      <trkpt lat="39.259583" lon="-3.250364">
        <time>2021-08-23T15:49:29Z</time>
      </trkpt>
      <trkpt lat="39.257705" lon="-3.253041">
        <time>2021-08-23T15:49:41Z</time>
      </trkpt>
      <trkpt lat="39.257106" lon="-3.253566">
        <time>2021-08-23T15:49:44Z</time>
      </trkpt>
      <trkpt lat="39.253796" lon="-3.257188">
        <time>2021-08-23T15:50:02Z</time>
      </trkpt>
      <trkpt lat="39.251065" lon="-3.260229">
        <time>2021-08-23T15:50:17Z</time>
      </trkpt>
      <trkpt lat="39.249689" lon="-3.260738">
        <time>2021-08-23T15:50:23Z</time>
      </trkpt>
      <trkpt lat="39.244716" lon="-3.262691">
        <time>2021-08-23T15:50:44Z</time>
      </trkpt>
      <trkpt lat="39.2402" lon="-3.263927">
        <time>2021-08-23T15:51:02Z</time>
      </trkpt>
      <trkpt lat="39.239422" lon="-3.263961">
        <time>2021-08-23T15:51:05Z</time>
      </trkpt>
      <trkpt lat="39.237897" lon="-3.26392">
        <time>2021-08-23T15:51:11Z</time>
      </trkpt>
      <trkpt lat="39.235731" lon="-3.264865">
        <time>2021-08-23T15:51:20Z</time>
      </trkpt>
      <trkpt lat="39.231403" lon="-3.266791">
        <time>2021-08-23T15:51:38Z</time>
      </trkpt>
      <trkpt lat="39.226506" lon="-3.268506">
        <time>2021-08-23T15:51:59Z</time>
      </trkpt>
      <trkpt lat="39.223042" lon="-3.270019">
        <time>2021-08-23T15:52:14Z</time>
      </trkpt>
      <trkpt lat="39.221537" lon="-3.269937">
        <time>2021-08-23T15:52:20Z</time>
      </trkpt>
      <trkpt lat="39.217107" lon="-3.270361">
        <time>2021-08-23T15:52:38Z</time>
      </trkpt>
      <trkpt lat="39.216422" lon="-3.270789">
        <time>2021-08-23T15:52:41Z</time>
      </trkpt>
      <trkpt lat="39.214293" lon="-3.271804">
        <time>2021-08-23T15:52:50Z</time>
      </trkpt>
      <trkpt lat="39.21159" lon="-3.27273">
        <time>2021-08-23T15:53:02Z</time>
      </trkpt>
      <trkpt lat="39.21159" lon="-3.27273">
        <time>2021-08-23T15:53:02Z</time>
      </trkpt>
      <trkpt lat="39.208014" lon="-3.275747">
        <time>2021-08-23T15:53:20Z</time>
      </trkpt>
      <trkpt lat="39.207277" lon="-3.275805">
        <time>2021-08-23T15:53:23Z</time>
      </trkpt>
      <trkpt lat="39.20361" lon="-3.275953">
        <time>2021-08-23T15:53:38Z</time>
      </trkpt>
      <trkpt lat="39.202211" lon="-3.276563">
        <time>2021-08-23T15:53:44Z</time>
      </trkpt>
      <trkpt lat="39.197963" lon="-3.278474">
        <time>2021-08-23T15:54:02Z</time>
      </trkpt>
      <trkpt lat="39.196538" lon="-3.278833">
        <time>2021-08-23T15:54:08Z</time>
      </trkpt>
      <trkpt lat="39.193073" lon="-3.278348">
        <time>2021-08-23T15:54:23Z</time>
      </trkpt>
      <trkpt lat="39.188222" lon="-3.277399">
        <time>2021-08-23T15:54:47Z</time>
      </trkpt>
      <trkpt lat="39.188222" lon="-3.277399">
        <time>2021-08-23T15:54:47Z</time>
      </trkpt>
      <trkpt lat="39.187269" lon="-3.277813">
        <time>2021-08-23T15:54:53Z</time>
      </trkpt>
      <trkpt lat="39.187096" lon="-3.278158">
        <time>2021-08-23T15:54:56Z</time>
      </trkpt>
      <trkpt lat="39.187109" lon="-3.278639">
        <time>2021-08-23T15:54:59Z</time>
      </trkpt>
      <trkpt lat="39.188298" lon="-3.282049">
        <time>2021-08-23T15:55:14Z</time>
      </trkpt>
      <trkpt lat="39.19029" lon="-3.287769">
        <time>2021-08-23T15:55:35Z</time>
      </trkpt>
      <trkpt lat="39.192202" lon="-3.293231">
        <time>2021-08-23T15:55:56Z</time>
      </trkpt>
      <trkpt lat="39.194173" lon="-3.298923">
        <time>2021-08-23T15:56:17Z</time>
      </trkpt>
      <trkpt lat="39.196215" lon="-3.3048">
        <time>2021-08-23T15:56:38Z</time>
      </trkpt>
      <trkpt lat="39.198116" lon="-3.310265">
        <time>2021-08-23T15:56:59Z</time>
      </trkpt>
      <trkpt lat="39.200071" lon="-3.315877">
        <time>2021-08-23T15:57:20Z</time>
      </trkpt>
      <trkpt lat="39.202095" lon="-3.32161">
        <time>2021-08-23T15:57:41Z</time>
      </trkpt>
      <trkpt lat="39.20422" lon="-3.327645">
        <time>2021-08-23T15:58:02Z</time>
      </trkpt>
      <trkpt lat="39.206541" lon="-3.333552">
        <time>2021-08-23T15:58:23Z</time>
      </trkpt>
      <trkpt lat="39.208955" lon="-3.339492">
        <time>2021-08-23T15:58:44Z</time>
      </trkpt>
      <trkpt lat="39.211027" lon="-3.34469">
        <time>2021-08-23T15:59:02Z</time>
      </trkpt>
      <trkpt lat="39.213377" lon="-3.350636">
        <time>2021-08-23T15:59:23Z</time>
      </trkpt>
      <trkpt lat="39.215673" lon="-3.356415">
        <time>2021-08-23T15:59:44Z</time>
      </trkpt>
      <trkpt lat="39.217987" lon="-3.362204">
        <time>2021-08-23T16:00:05Z</time>
      </trkpt>
      <trkpt lat="39.220336" lon="-3.368049">
        <time>2021-08-23T16:00:26Z</time>
      </trkpt>
      <trkpt lat="39.222687" lon="-3.373857">
        <time>2021-08-23T16:00:47Z</time>
      </trkpt>
      <trkpt lat="39.224804" lon="-3.379056">
        <time>2021-08-23T16:01:05Z</time>
      </trkpt>
      <trkpt lat="39.22692" lon="-3.384231">
        <time>2021-08-23T16:01:23Z</time>
      </trkpt>
      <trkpt lat="39.229319" lon="-3.390199">
        <time>2021-08-23T16:01:44Z</time>
      </trkpt>
      <trkpt lat="39.23173" lon="-3.396195">
        <time>2021-08-23T16:02:05Z</time>
      </trkpt>
      <trkpt lat="39.233821" lon="-3.401372">
        <time>2021-08-23T16:02:23Z</time>
      </trkpt>
      <trkpt lat="39.235585" lon="-3.406197">
        <time>2021-08-23T16:02:41Z</time>
      </trkpt>
      <trkpt lat="39.235613" lon="-3.406912">
        <time>2021-08-23T16:02:44Z</time>
      </trkpt>
      <trkpt lat="39.235572" lon="-3.411129">
        <time>2021-08-23T16:03:05Z</time>
      </trkpt>
      <trkpt lat="39.235516" lon="-3.411512">
        <time>2021-08-23T16:03:08Z</time>
      </trkpt>
      <trkpt lat="39.235589" lon="-3.412354">
        <time>2021-08-23T16:03:14Z</time>
      </trkpt>
      <trkpt lat="39.235596" lon="-3.412685">
        <time>2021-08-23T16:03:17Z</time>
      </trkpt>
      <trkpt lat="39.235596" lon="-3.412685">
        <time>2021-08-23T16:03:17Z</time>
      </trkpt>
      <trkpt lat="39.23545" lon="-3.413661">
        <time>2021-08-23T16:03:23Z</time>
      </trkpt>
      <trkpt lat="39.235419" lon="-3.415599">
        <time>2021-08-23T16:03:35Z</time>
      </trkpt>
      <trkpt lat="39.235314" lon="-3.418674">
        <time>2021-08-23T16:03:50Z</time>
      </trkpt>
      <trkpt lat="39.235082" lon="-3.423366">
        <time>2021-08-23T16:04:29Z</time>
      </trkpt>
      <trkpt lat="39.234767" lon="-3.424489">
        <time>2021-08-23T16:04:38Z</time>
      </trkpt>
      <trkpt lat="39.233118" lon="-3.430585">
        <time>2021-08-23T16:05:11Z</time>
      </trkpt>
      <trkpt lat="39.231418" lon="-3.436683">
        <time>2021-08-23T16:05:35Z</time>
      </trkpt>
      <trkpt lat="39.229794" lon="-3.4426">
        <time>2021-08-23T16:05:56Z</time>
      </trkpt>
      <trkpt lat="39.228108" lon="-3.4487">
        <time>2021-08-23T16:06:17Z</time>
      </trkpt>
      <trkpt lat="39.226872" lon="-3.455188">
        <time>2021-08-23T16:06:38Z</time>
      </trkpt>
      <trkpt lat="39.225843" lon="-3.461767">
        <time>2021-08-23T16:06:59Z</time>
      </trkpt>
      <trkpt lat="39.224973" lon="-3.467475">
        <time>2021-08-23T16:07:17Z</time>
      </trkpt>
      <trkpt lat="39.224094" lon="-3.473183">
        <time>2021-08-23T16:07:35Z</time>
      </trkpt>
      <trkpt lat="39.223214" lon="-3.478892">
        <time>2021-08-23T16:07:53Z</time>
      </trkpt>
      <trkpt lat="39.222202" lon="-3.485417">
        <time>2021-08-23T16:08:14Z</time>
      </trkpt>
      <trkpt lat="39.221271" lon="-3.491283">
        <time>2021-08-23T16:08:32Z</time>
      </trkpt>
      <trkpt lat="39.219645" lon="-3.496746">
        <time>2021-08-23T16:08:56Z</time>
      </trkpt>
      <trkpt lat="39.219234" lon="-3.497545">
        <time>2021-08-23T16:09:02Z</time>
      </trkpt>
      <trkpt lat="39.218475" lon="-3.499258">
        <time>2021-08-23T16:09:14Z</time>
      </trkpt>
      <trkpt lat="39.217874" lon="-3.502134">
        <time>2021-08-23T16:09:32Z</time>
      </trkpt>
      <trkpt lat="39.217651" lon="-3.502946">
        <time>2021-08-23T16:09:41Z</time>
      </trkpt>
      <trkpt lat="39.217394" lon="-3.503017">
        <time>2021-08-23T16:09:44Z</time>
      </trkpt>
      <trkpt lat="39.21456" lon="-3.503448">
        <time>2021-08-23T16:10:08Z</time>
      </trkpt>
      <trkpt lat="39.214421" lon="-3.503739">
        <time>2021-08-23T16:10:11Z</time>
      </trkpt>
      <trkpt lat="39.214238" lon="-3.50392">
        <time>2021-08-23T16:10:14Z</time>
      </trkpt>
      <trkpt lat="39.213973" lon="-3.503798">
        <time>2021-08-23T16:10:17Z</time>
      </trkpt>
      <trkpt lat="39.213973" lon="-3.503798">
        <time>2021-08-23T16:10:17Z</time>
      </trkpt>
      <trkpt lat="39.213585" lon="-3.503617">
        <time>2021-08-23T16:10:20Z</time>
      </trkpt>
      <trkpt lat="39.213083" lon="-3.503604">
        <time>2021-08-23T16:10:23Z</time>
      </trkpt>
      <trkpt lat="39.209336" lon="-3.504072">
        <time>2021-08-23T16:10:41Z</time>
      </trkpt>
      <trkpt lat="39.204548" lon="-3.504691">
        <time>2021-08-23T16:11:02Z</time>
      </trkpt>
      <trkpt lat="39.199883" lon="-3.50528">
        <time>2021-08-23T16:11:23Z</time>
      </trkpt>
      <trkpt lat="39.194901" lon="-3.505896">
        <time>2021-08-23T16:11:44Z</time>
      </trkpt>
      <trkpt lat="39.189922" lon="-3.506515">
        <time>2021-08-23T16:12:05Z</time>
      </trkpt>
      <trkpt lat="39.184815" lon="-3.507162">
        <time>2021-08-23T16:12:26Z</time>
      </trkpt>
      <trkpt lat="39.180297" lon="-3.50772">
        <time>2021-08-23T16:12:44Z</time>
      </trkpt>
      <trkpt lat="39.175399" lon="-3.508327">
        <time>2021-08-23T16:13:05Z</time>
      </trkpt>
      <trkpt lat="39.170535" lon="-3.508938">
        <time>2021-08-23T16:13:26Z</time>
      </trkpt>
      <trkpt lat="39.16601" lon="-3.509495">
        <time>2021-08-23T16:13:47Z</time>
      </trkpt>
      <trkpt lat="39.161181" lon="-3.510044">
        <time>2021-08-23T16:14:08Z</time>
      </trkpt>
      <trkpt lat="39.156443" lon="-3.510622">
        <time>2021-08-23T16:14:26Z</time>
      </trkpt>
      <trkpt lat="39.151833" lon="-3.511146">
        <time>2021-08-23T16:14:44Z</time>
      </trkpt>
      <trkpt lat="39.147304" lon="-3.511677">
        <time>2021-08-23T16:15:02Z</time>
      </trkpt>
      <trkpt lat="39.144252" lon="-3.511685">
        <time>2021-08-23T16:15:14Z</time>
      </trkpt>
      <trkpt lat="39.142722" lon="-3.511446">
        <time>2021-08-23T16:15:20Z</time>
      </trkpt>
      <trkpt lat="39.14197" lon="-3.511492">
        <time>2021-08-23T16:15:23Z</time>
      </trkpt>
      <trkpt lat="39.138308" lon="-3.51246">
        <time>2021-08-23T16:15:38Z</time>
      </trkpt>
      <trkpt lat="39.133839" lon="-3.513474">
        <time>2021-08-23T16:15:59Z</time>
      </trkpt>
      <trkpt lat="39.133518" lon="-3.513751">
        <time>2021-08-23T16:16:02Z</time>
      </trkpt>
      <trkpt lat="39.133147" lon="-3.513988">
        <time>2021-08-23T16:16:05Z</time>
      </trkpt>
      <trkpt lat="39.132719" lon="-3.514348">
        <time>2021-08-23T16:16:08Z</time>
      </trkpt>
      <trkpt lat="39.130302" lon="-3.517326">
        <time>2021-08-23T16:16:23Z</time>
      </trkpt>
      <trkpt lat="39.126971" lon="-3.521925">
        <time>2021-08-23T16:16:44Z</time>
      </trkpt>
      <trkpt lat="39.12372" lon="-3.526683">
        <time>2021-08-23T16:17:05Z</time>
      </trkpt>
      <trkpt lat="39.120414" lon="-3.531519">
        <time>2021-08-23T16:17:26Z</time>
      </trkpt>
      <trkpt lat="39.116953" lon="-3.536581">
        <time>2021-08-23T16:17:47Z</time>
      </trkpt>
      <trkpt lat="39.113896" lon="-3.541046">
        <time>2021-08-23T16:18:05Z</time>
      </trkpt>
      <trkpt lat="39.110911" lon="-3.545392">
        <time>2021-08-23T16:18:23Z</time>
      </trkpt>
      <trkpt lat="39.107446" lon="-3.550446">
        <time>2021-08-23T16:18:44Z</time>
      </trkpt>
      <trkpt lat="39.104434" lon="-3.554855">
        <time>2021-08-23T16:19:02Z</time>
      </trkpt>
      <trkpt lat="39.101455" lon="-3.559211">
        <time>2021-08-23T16:19:20Z</time>
      </trkpt>
      <trkpt lat="39.098033" lon="-3.564212">
        <time>2021-08-23T16:19:41Z</time>
      </trkpt>
      <trkpt lat="39.095396" lon="-3.56725">
        <time>2021-08-23T16:19:56Z</time>
      </trkpt>
      <trkpt lat="39.094306" lon="-3.567896">
        <time>2021-08-23T16:20:02Z</time>
      </trkpt>
      <trkpt lat="39.093384" lon="-3.568565">
        <time>2021-08-23T16:20:08Z</time>
      </trkpt>
      <trkpt lat="39.09305" lon="-3.569184">
        <time>2021-08-23T16:20:11Z</time>
      </trkpt>
      <trkpt lat="39.092911" lon="-3.56993">
        <time>2021-08-23T16:20:14Z</time>
      </trkpt>
      <trkpt lat="39.093079" lon="-3.571009">
        <time>2021-08-23T16:20:20Z</time>
      </trkpt>
      <trkpt lat="39.093332" lon="-3.571606">
        <time>2021-08-23T16:20:26Z</time>
      </trkpt>
      <trkpt lat="39.093146" lon="-3.571904">
        <time>2021-08-23T16:20:29Z</time>
      </trkpt>
      <trkpt lat="39.092823" lon="-3.572">
        <time>2021-08-23T16:20:32Z</time>
      </trkpt>
      <trkpt lat="39.0925" lon="-3.572272">
        <time>2021-08-23T16:20:35Z</time>
      </trkpt>
      <trkpt lat="39.0925" lon="-3.572272">
        <time>2021-08-23T16:20:35Z</time>
      </trkpt>
      <trkpt lat="39.089261" lon="-3.576991">
        <time>2021-08-23T16:20:59Z</time>
      </trkpt>
      <trkpt lat="39.086035" lon="-3.581724">
        <time>2021-08-23T16:21:23Z</time>
      </trkpt>
      <trkpt lat="39.083133" lon="-3.586153">
        <time>2021-08-23T16:21:44Z</time>
      </trkpt>
      <trkpt lat="39.080088" lon="-3.590867">
        <time>2021-08-23T16:22:08Z</time>
      </trkpt>
      <trkpt lat="39.078647" lon="-3.593367">
        <time>2021-08-23T16:22:20Z</time>
      </trkpt>
      <trkpt lat="39.07834" lon="-3.594773">
        <time>2021-08-23T16:22:26Z</time>
      </trkpt>
      <trkpt lat="39.078568" lon="-3.596376">
        <time>2021-08-23T16:22:32Z</time>
      </trkpt>
      <trkpt lat="39.078568" lon="-3.596376">
        <time>2021-08-23T16:22:32Z</time>
      </trkpt>
      <trkpt lat="39.080381" lon="-3.602466">
        <time>2021-08-23T16:22:56Z</time>
      </trkpt>
      <trkpt lat="39.082062" lon="-3.608567">
        <time>2021-08-23T16:23:20Z</time>
      </trkpt>
      <trkpt lat="39.082572" lon="-3.611772">
        <time>2021-08-23T16:23:32Z</time>
      </trkpt>
      <trkpt lat="39.082586" lon="-3.615087">
        <time>2021-08-23T16:23:44Z</time>
      </trkpt>
      <trkpt lat="39.082498" lon="-3.615958">
        <time>2021-08-23T16:23:47Z</time>
      </trkpt>
      <trkpt lat="39.081505" lon="-3.620182">
        <time>2021-08-23T16:24:02Z</time>
      </trkpt>
      <trkpt lat="39.081215" lon="-3.620932">
        <time>2021-08-23T16:24:05Z</time>
      </trkpt>
      <trkpt lat="39.079746" lon="-3.623687">
        <time>2021-08-23T16:24:17Z</time>
      </trkpt>
      <trkpt lat="39.078367" lon="-3.625442">
        <time>2021-08-23T16:24:26Z</time>
      </trkpt>
      <trkpt lat="39.076932" lon="-3.626791">
        <time>2021-08-23T16:24:35Z</time>
      </trkpt>
      <trkpt lat="39.076048" lon="-3.627483">
        <time>2021-08-23T16:24:44Z</time>
      </trkpt>
      <trkpt lat="39.074337" lon="-3.628367">
        <time>2021-08-23T16:24:56Z</time>
      </trkpt>
      <trkpt lat="39.071997" lon="-3.629109">
        <time>2021-08-23T16:25:08Z</time>
      </trkpt>
      <trkpt lat="39.06966" lon="-3.629524">
        <time>2021-08-23T16:25:20Z</time>
      </trkpt>
      <trkpt lat="39.068481" lon="-3.629731">
        <time>2021-08-23T16:25:29Z</time>
      </trkpt>
      <trkpt lat="39.065111" lon="-3.630118">
        <time>2021-08-23T16:25:47Z</time>
      </trkpt>
      <trkpt lat="39.060317" lon="-3.63078">
        <time>2021-08-23T16:26:08Z</time>
      </trkpt>
      <trkpt lat="39.055345" lon="-3.631472">
        <time>2021-08-23T16:26:32Z</time>
      </trkpt>
      <trkpt lat="39.051094" lon="-3.632146">
        <time>2021-08-23T16:26:53Z</time>
      </trkpt>
      <trkpt lat="39.050609" lon="-3.632376">
        <time>2021-08-23T16:26:56Z</time>
      </trkpt>
      <trkpt lat="39.049906" lon="-3.63289">
        <time>2021-08-23T16:27:02Z</time>
      </trkpt>
      <trkpt lat="39.049772" lon="-3.633187">
        <time>2021-08-23T16:27:05Z</time>
      </trkpt>
      <trkpt lat="39.04965" lon="-3.633486">
        <time>2021-08-23T16:27:08Z</time>
      </trkpt>
      <trkpt lat="39.049436" lon="-3.633692">
        <time>2021-08-23T16:27:11Z</time>
      </trkpt>
      <trkpt lat="39.049205" lon="-3.633937">
        <time>2021-08-23T16:27:14Z</time>
      </trkpt>
      <trkpt lat="39.049068" lon="-3.634345">
        <time>2021-08-23T16:27:17Z</time>
      </trkpt>
      <trkpt lat="39.048245" lon="-3.637375">
        <time>2021-08-23T16:27:32Z</time>
      </trkpt>
      <trkpt lat="39.046713" lon="-3.642976">
        <time>2021-08-23T16:27:53Z</time>
      </trkpt>
      <trkpt lat="39.044988" lon="-3.649308">
        <time>2021-08-23T16:28:14Z</time>
      </trkpt>
      <trkpt lat="39.043493" lon="-3.65479">
        <time>2021-08-23T16:28:32Z</time>
      </trkpt>
      <trkpt lat="39.041957" lon="-3.660362">
        <time>2021-08-23T16:28:50Z</time>
      </trkpt>
      <trkpt lat="39.040403" lon="-3.665988">
        <time>2021-08-23T16:29:08Z</time>
      </trkpt>
      <trkpt lat="39.038852" lon="-3.671636">
        <time>2021-08-23T16:29:26Z</time>
      </trkpt>
      <trkpt lat="39.037326" lon="-3.677183">
        <time>2021-08-23T16:29:44Z</time>
      </trkpt>
      <trkpt lat="39.035811" lon="-3.682708">
        <time>2021-08-23T16:30:02Z</time>
      </trkpt>
      <trkpt lat="39.034047" lon="-3.689064">
        <time>2021-08-23T16:30:23Z</time>
      </trkpt>
      <trkpt lat="39.032299" lon="-3.695351">
        <time>2021-08-23T16:30:44Z</time>
      </trkpt>
      <trkpt lat="39.030769" lon="-3.700816">
        <time>2021-08-23T16:31:02Z</time>
      </trkpt>
      <trkpt lat="39.029237" lon="-3.706289">
        <time>2021-08-23T16:31:20Z</time>
      </trkpt>
      <trkpt lat="39.027521" lon="-3.712407">
        <time>2021-08-23T16:31:41Z</time>
      </trkpt>
      <trkpt lat="39.025978" lon="-3.717924">
        <time>2021-08-23T16:31:59Z</time>
      </trkpt>
      <trkpt lat="39.024337" lon="-3.724081">
        <time>2021-08-23T16:32:20Z</time>
      </trkpt>
      <trkpt lat="39.02374" lon="-3.727591">
        <time>2021-08-23T16:32:32Z</time>
      </trkpt>
      <trkpt lat="39.023992" lon="-3.730426">
        <time>2021-08-23T16:32:41Z</time>
      </trkpt>
      <trkpt lat="39.023992" lon="-3.730426">
        <time>2021-08-23T16:32:41Z</time>
      </trkpt>
      <trkpt lat="39.024743" lon="-3.736462">
        <time>2021-08-23T16:33:02Z</time>
      </trkpt>
      <trkpt lat="39.024747" lon="-3.742388">
        <time>2021-08-23T16:33:20Z</time>
      </trkpt>
      <trkpt lat="39.024738" lon="-3.748354">
        <time>2021-08-23T16:33:38Z</time>
      </trkpt>
      <trkpt lat="39.024714" lon="-3.750278">
        <time>2021-08-23T16:33:44Z</time>
      </trkpt>
      <trkpt lat="39.024114" lon="-3.754732">
        <time>2021-08-23T16:34:02Z</time>
      </trkpt>
      <trkpt lat="39.024114" lon="-3.754732">
        <time>2021-08-23T16:34:02Z</time>
      </trkpt>
      <trkpt lat="39.023426" lon="-3.756751">
        <time>2021-08-23T16:34:14Z</time>
      </trkpt>
      <trkpt lat="39.021589" lon="-3.759844">
        <time>2021-08-23T16:34:29Z</time>
      </trkpt>
      <trkpt lat="39.0188" lon="-3.764475">
        <time>2021-08-23T16:34:50Z</time>
      </trkpt>
      <trkpt lat="39.018123" lon="-3.765938">
        <time>2021-08-23T16:34:56Z</time>
      </trkpt>
      <trkpt lat="39.017556" lon="-3.768488">
        <time>2021-08-23T16:35:05Z</time>
      </trkpt>
      <trkpt lat="39.017509" lon="-3.770319">
        <time>2021-08-23T16:35:11Z</time>
      </trkpt>
      <trkpt lat="39.017688" lon="-3.776655">
        <time>2021-08-23T16:35:32Z</time>
      </trkpt>
      <trkpt lat="39.017885" lon="-3.782896">
        <time>2021-08-23T16:36:32Z</time>
      </trkpt>
      <trkpt lat="39.018085" lon="-3.788874">
        <time>2021-08-23T16:36:50Z</time>
      </trkpt>
      <trkpt lat="39.018301" lon="-3.795359">
        <time>2021-08-23T16:37:08Z</time>
      </trkpt>
      <trkpt lat="39.018515" lon="-3.801469">
        <time>2021-08-23T16:37:26Z</time>
      </trkpt>
      <trkpt lat="39.018319" lon="-3.806946">
        <time>2021-08-23T16:37:47Z</time>
      </trkpt>
      <trkpt lat="39.018111" lon="-3.807324">
        <time>2021-08-23T16:37:50Z</time>
      </trkpt>
      <trkpt lat="39.018111" lon="-3.807324">
        <time>2021-08-23T16:37:50Z</time>
      </trkpt>
      <trkpt lat="39.015207" lon="-3.812184">
        <time>2021-08-23T16:38:20Z</time>
      </trkpt>
      <trkpt lat="39.013441" lon="-3.81595">
        <time>2021-08-23T16:39:11Z</time>
      </trkpt>
      <trkpt lat="39.01308" lon="-3.817653">
        <time>2021-08-23T16:39:20Z</time>
      </trkpt>
      <trkpt lat="39.013032" lon="-3.818143">
        <time>2021-08-23T16:39:23Z</time>
      </trkpt>
      <trkpt lat="39.013095" lon="-3.818784">
        <time>2021-08-23T16:39:29Z</time>
      </trkpt>
      <trkpt lat="39.013095" lon="-3.819062">
        <time>2021-08-23T16:39:32Z</time>
      </trkpt>
      <trkpt lat="39.013045" lon="-3.820019">
        <time>2021-08-23T16:39:41Z</time>
      </trkpt>
      <trkpt lat="39.013383" lon="-3.823839">
        <time>2021-08-23T16:40:05Z</time>
      </trkpt>
      <trkpt lat="39.013658" lon="-3.826693">
        <time>2021-08-23T16:40:20Z</time>
      </trkpt>
      <trkpt lat="39.013795" lon="-3.826866">
        <time>2021-08-23T16:40:23Z</time>
      </trkpt>
      <trkpt lat="39.01377" lon="-3.827162">
        <time>2021-08-23T16:40:26Z</time>
      </trkpt>
      <trkpt lat="39.013558" lon="-3.827516">
        <time>2021-08-23T16:40:29Z</time>
      </trkpt>
      <trkpt lat="39.0134" lon="-3.827969">
        <time>2021-08-23T16:40:32Z</time>
      </trkpt>
      <trkpt lat="39.012902" lon="-3.829921">
        <time>2021-08-23T16:40:41Z</time>
      </trkpt>
      <trkpt lat="39.011132" lon="-3.835414">
        <time>2021-08-23T16:41:02Z</time>
      </trkpt>
      <trkpt lat="39.009122" lon="-3.841643">
        <time>2021-08-23T16:41:23Z</time>
      </trkpt>
      <trkpt lat="39.007194" lon="-3.847601">
        <time>2021-08-23T16:41:47Z</time>
      </trkpt>
      <trkpt lat="39.005275" lon="-3.853618">
        <time>2021-08-23T16:42:08Z</time>
      </trkpt>
      <trkpt lat="39.003329" lon="-3.859671">
        <time>2021-08-23T16:42:29Z</time>
      </trkpt>
      <trkpt lat="39.001505" lon="-3.865385">
        <time>2021-08-23T16:42:50Z</time>
      </trkpt>
      <trkpt lat="38.999739" lon="-3.871353">
        <time>2021-08-23T16:43:11Z</time>
      </trkpt>
      <trkpt lat="38.998172" lon="-3.876893">
        <time>2021-08-23T16:43:29Z</time>
      </trkpt>
      <trkpt lat="38.996618" lon="-3.882443">
        <time>2021-08-23T16:43:47Z</time>
      </trkpt>
      <trkpt lat="38.994998" lon="-3.888177">
        <time>2021-08-23T16:44:08Z</time>
      </trkpt>
      <trkpt lat="38.99336" lon="-3.893924">
        <time>2021-08-23T16:44:44Z</time>
      </trkpt>
      <trkpt lat="38.99199" lon="-3.89833">
        <time>2021-08-23T16:45:08Z</time>
      </trkpt>
      <trkpt lat="38.99147" lon="-3.899546">
        <time>2021-08-23T16:45:14Z</time>
      </trkpt>
      <trkpt lat="38.991376" lon="-3.900161">
        <time>2021-08-23T16:45:17Z</time>
      </trkpt>
      <trkpt lat="38.990936" lon="-3.902668">
        <time>2021-08-23T16:45:32Z</time>
      </trkpt>
      <trkpt lat="38.99019" lon="-3.905202">
        <time>2021-08-23T16:45:47Z</time>
      </trkpt>
      <trkpt lat="38.988538" lon="-3.910913">
        <time>2021-08-23T16:46:26Z</time>
      </trkpt>
      <trkpt lat="38.987441" lon="-3.914664">
        <time>2021-08-23T16:46:53Z</time>
      </trkpt>
      <trkpt lat="38.987384" lon="-3.914914">
        <time>2021-08-23T16:46:56Z</time>
      </trkpt>
      <trkpt lat="38.98676" lon="-3.916806">
        <time>2021-08-23T16:47:08Z</time>
      </trkpt>
      <trkpt lat="38.986135" lon="-3.919651">
        <time>2021-08-23T16:47:53Z</time>
      </trkpt>
      <trkpt lat="38.986235" lon="-3.919993">
        <time>2021-08-23T16:47:56Z</time>
      </trkpt>
      <trkpt lat="38.986451" lon="-3.920148">
        <time>2021-08-23T16:47:59Z</time>
      </trkpt>
      <trkpt lat="38.987006" lon="-3.920387">
        <time>2021-08-23T16:48:05Z</time>
      </trkpt>
      <trkpt lat="38.988029" lon="-3.921009">
        <time>2021-08-23T16:48:14Z</time>
      </trkpt>
      <trkpt lat="38.988832" lon="-3.921332">
        <time>2021-08-23T16:48:20Z</time>
      </trkpt>
      <trkpt lat="38.991286" lon="-3.921927">
        <time>2021-08-23T16:48:38Z</time>
      </trkpt>
      <trkpt lat="38.992406" lon="-3.922572">
        <time>2021-08-23T16:48:47Z</time>
      </trkpt>
      <trkpt lat="38.992743" lon="-3.9229">
        <time>2021-08-23T16:48:50Z</time>
      </trkpt>
      <trkpt lat="38.994422" lon="-3.92489">
        <time>2021-08-23T16:49:08Z</time>
      </trkpt>
      <trkpt lat="38.995478" lon="-3.926957">
        <time>2021-08-23T16:49:23Z</time>
      </trkpt>
      <trkpt lat="38.995829" lon="-3.927593">
        <time>2021-08-23T16:49:32Z</time>
      </trkpt>
      <trkpt lat="38.996007" lon="-3.927829">
        <time>2021-08-23T16:49:38Z</time>
      </trkpt>
      <trkpt lat="38.995946" lon="-3.928073">
        <time>2021-08-23T16:49:41Z</time>
      </trkpt>
      <trkpt lat="38.995862" lon="-3.928401">
        <time>2021-08-23T16:49:44Z</time>
      </trkpt>
      <trkpt lat="38.995767" lon="-3.929148">
        <time>2021-08-23T16:49:50Z</time>
      </trkpt>
      <trkpt lat="38.995548" lon="-3.929485">
        <time>2021-08-23T16:49:53Z</time>
      </trkpt>
      <trkpt lat="38.993458" lon="-3.931263">
        <time>2021-08-23T16:50:17Z</time>
      </trkpt>
      <trkpt lat="38.993458" lon="-3.931263">
        <time>2021-08-23T16:50:17Z</time>
      </trkpt>
      <trkpt lat="38.9905" lon="-3.932641">
        <time>2021-08-23T16:50:50Z</time>
      </trkpt>
      <trkpt lat="38.990396" lon="-3.932719">
        <time>2021-08-23T16:50:53Z</time>
      </trkpt>
      <trkpt lat="38.988958" lon="-3.933377">
        <time>2021-08-23T16:51:08Z</time>
      </trkpt>
      <trkpt lat="38.986725" lon="-3.934235">
        <time>2021-08-23T16:51:29Z</time>
      </trkpt>
      <trkpt lat="38.984457" lon="-3.934502">
        <time>2021-08-23T16:52:23Z</time>
      </trkpt>
      <trkpt lat="38.984191" lon="-3.93453">
        <time>2021-08-23T16:53:14Z</time>
      </trkpt>
      <trkpt lat="38.984191" lon="-3.93453">
        <time>2021-08-23T16:53:14Z</time>
      </trkpt>
      <trkpt lat="38.984084" lon="-3.934717">
        <time>2021-08-23T17:15:03Z</time>
      </trkpt>
      <trkpt lat="38.984084" lon="-3.934717">
        <time>2021-08-23T17:15:05Z</time>
      </trkpt>
      <trkpt lat="38.983849" lon="-3.934829">
        <time>2021-08-23T17:15:48Z</time>
      </trkpt>
      <trkpt lat="38.983674" lon="-3.934781">
        <time>2021-08-23T17:15:51Z</time>
      </trkpt>
      <trkpt lat="38.983628" lon="-3.934574">
        <time>2021-08-23T17:15:54Z</time>
      </trkpt>
      <trkpt lat="38.983686" lon="-3.93441">
        <time>2021-08-23T17:15:57Z</time>
      </trkpt>
      <trkpt lat="38.983788" lon="-3.934341">
        <time>2021-08-23T17:16:36Z</time>
      </trkpt>
      <trkpt lat="38.983902" lon="-3.93439">
        <time>2021-08-23T17:16:39Z</time>
      </trkpt>
      <trkpt lat="38.983932" lon="-3.934565">
        <time>2021-08-23T17:16:42Z</time>
      </trkpt>
      <trkpt lat="38.983929" lon="-3.936421">
        <time>2021-08-23T17:16:57Z</time>
      </trkpt>
      <trkpt lat="38.984032" lon="-3.936433">
        <time>2021-08-23T17:17:00Z</time>
      </trkpt>
      <trkpt lat="38.98481" lon="-3.936104">
        <time>2021-08-23T17:17:12Z</time>
      </trkpt>
      <trkpt lat="38.984814" lon="-3.936014">
        <time>2021-08-23T17:17:15Z</time>
      </trkpt>
      <trkpt lat="38.98467" lon="-3.935387">
        <time>2021-08-23T17:17:24Z</time>
      </trkpt>
      <trkpt lat="38.984758" lon="-3.935989">
        <time>2021-08-23T20:28:25Z</time>
      </trkpt>
      <trkpt lat="38.98489" lon="-3.935956">
        <time>2021-08-23T20:28:28Z</time>
      </trkpt>
      <trkpt lat="38.985198" lon="-3.935642">
        <time>2021-08-23T20:28:37Z</time>
      </trkpt>
      <trkpt lat="38.985225" lon="-3.935433">
        <time>2021-08-23T20:28:40Z</time>
      </trkpt>
      <trkpt lat="38.985352" lon="-3.935368">
        <time>2021-08-23T20:28:43Z</time>
      </trkpt>
      <trkpt lat="38.985263" lon="-3.935121">
        <time>2021-08-23T20:28:46Z</time>
      </trkpt>
      <trkpt lat="38.985227" lon="-3.934978">
        <time>2021-08-23T20:28:49Z</time>
      </trkpt>
      <trkpt lat="38.985186" lon="-3.934829">
        <time>2021-08-23T20:28:52Z</time>
      </trkpt>
      <trkpt lat="38.985007" lon="-3.934708">
        <time>2021-08-23T20:28:55Z</time>
      </trkpt>
      <trkpt lat="38.984126" lon="-3.934333">
        <time>2021-08-23T20:29:10Z</time>
      </trkpt>
      <trkpt lat="38.984009" lon="-3.93437">
        <time>2021-08-23T20:30:07Z</time>
      </trkpt>
      <trkpt lat="38.983853" lon="-3.934522">
        <time>2021-08-23T20:30:10Z</time>
      </trkpt>
      <trkpt lat="38.983728" lon="-3.934495">
        <time>2021-08-23T20:30:13Z</time>
      </trkpt>
      <trkpt lat="38.983644" lon="-3.934297">
        <time>2021-08-23T20:30:16Z</time>
      </trkpt>
      <trkpt lat="38.983435" lon="-3.933967">
        <time>2021-08-23T20:30:22Z</time>
      </trkpt>
      <trkpt lat="38.98313" lon="-3.933818">
        <time>2021-08-23T20:30:28Z</time>
      </trkpt>
      <trkpt lat="38.982415" lon="-3.933449">
        <time>2021-08-23T20:30:34Z</time>
      </trkpt>
      <trkpt lat="38.982415" lon="-3.933449">
        <time>2021-08-23T20:30:34Z</time>
      </trkpt>
      <trkpt lat="38.98105" lon="-3.931324">
        <time>2021-08-23T20:30:52Z</time>
      </trkpt>
      <trkpt lat="38.980269" lon="-3.929656">
        <time>2021-08-23T20:31:10Z</time>
      </trkpt>
      <trkpt lat="38.980218" lon="-3.929552">
        <time>2021-08-23T20:31:13Z</time>
      </trkpt>
      <trkpt lat="38.980163" lon="-3.929374">
        <time>2021-08-23T20:31:16Z</time>
      </trkpt>
      <trkpt lat="38.98011" lon="-3.929183">
        <time>2021-08-23T20:31:19Z</time>
      </trkpt>
      <trkpt lat="38.980205" lon="-3.929044">
        <time>2021-08-23T20:31:22Z</time>
      </trkpt>
      <trkpt lat="38.980272" lon="-3.928893">
        <time>2021-08-23T20:31:25Z</time>
      </trkpt>
      <trkpt lat="38.980303" lon="-3.928704">
        <time>2021-08-23T20:31:28Z</time>
      </trkpt>
      <trkpt lat="38.980267" lon="-3.92849">
        <time>2021-08-23T20:31:31Z</time>
      </trkpt>
      <trkpt lat="38.980267" lon="-3.92849">
        <time>2021-08-23T20:31:31Z</time>
      </trkpt>
      <trkpt lat="38.980166" lon="-3.92734">
        <time>2021-08-23T20:31:43Z</time>
      </trkpt>
      <trkpt lat="38.980215" lon="-3.927128">
        <time>2021-08-23T20:31:46Z</time>
      </trkpt>
      <trkpt lat="38.980352" lon="-3.926986">
        <time>2021-08-23T20:31:49Z</time>
      </trkpt>
      <trkpt lat="38.980557" lon="-3.926783">
        <time>2021-08-23T20:31:52Z</time>
      </trkpt>
      <trkpt lat="38.98253" lon="-3.924107">
        <time>2021-08-23T20:32:31Z</time>
      </trkpt>
      <trkpt lat="38.982696" lon="-3.923678">
        <time>2021-08-23T20:32:34Z</time>
      </trkpt>
      <trkpt lat="38.982815" lon="-3.92318">
        <time>2021-08-23T20:32:37Z</time>
      </trkpt>
      <trkpt lat="38.983112" lon="-3.921324">
        <time>2021-08-23T20:32:49Z</time>
      </trkpt>
      <trkpt lat="38.983359" lon="-3.920893">
        <time>2021-08-23T20:32:55Z</time>
      </trkpt>
      <trkpt lat="38.983478" lon="-3.920881">
        <time>2021-08-23T20:32:58Z</time>
      </trkpt>
      <trkpt lat="38.983576" lon="-3.921035">
        <time>2021-08-23T20:33:01Z</time>
      </trkpt>
      <trkpt lat="38.983701" lon="-3.92124">
        <time>2021-08-23T20:33:04Z</time>
      </trkpt>
      <trkpt lat="38.983878" lon="-3.921317">
        <time>2021-08-23T20:33:07Z</time>
      </trkpt>
      <trkpt lat="38.985452" lon="-3.921798">
        <time>2021-08-23T20:33:40Z</time>
      </trkpt>
      <trkpt lat="38.985456" lon="-3.921846">
        <time>2021-08-23T20:33:43Z</time>
      </trkpt>
      <trkpt lat="38.985481" lon="-3.921916">
        <time>2021-08-23T20:33:46Z</time>
      </trkpt>
      <trkpt lat="38.985499" lon="-3.922012">
        <time>2021-08-23T20:33:52Z</time>
      </trkpt>
      <trkpt lat="38.985533" lon="-3.922341">
        <time>2021-08-23T20:34:55Z</time>
      </trkpt>
      <trkpt lat="38.985463" lon="-3.922625">
        <time>2021-08-23T20:35:01Z</time>
      </trkpt>
      <trkpt lat="38.985338" lon="-3.922697">
        <time>2021-08-23T20:35:04Z</time>
      </trkpt>
      <trkpt lat="38.98534" lon="-3.922829">
        <time>2021-08-23T20:35:07Z</time>
      </trkpt>
      <trkpt lat="38.985307" lon="-3.923104">
        <time>2021-08-23T20:35:13Z</time>
      </trkpt>
      <trkpt lat="38.985153" lon="-3.923778">
        <time>2021-08-23T20:35:28Z</time>
      </trkpt>
      <trkpt lat="38.984999" lon="-3.924005">
        <time>2021-08-23T20:35:34Z</time>
      </trkpt>
      <trkpt lat="38.984821" lon="-3.924256">
        <time>2021-08-23T20:35:37Z</time>
      </trkpt>
      <trkpt lat="38.984793" lon="-3.924524">
        <time>2021-08-23T20:35:46Z</time>
      </trkpt>
      <trkpt lat="38.985157" lon="-3.924879">
        <time>2021-08-23T20:35:58Z</time>
      </trkpt>
      <trkpt lat="38.985277" lon="-3.924963">
        <time>2021-08-23T20:36:04Z</time>
      </trkpt>
      <trkpt lat="38.985518" lon="-3.925093">
        <time>2021-08-23T20:36:10Z</time>
      </trkpt>
      <trkpt lat="38.985791" lon="-3.925154">
        <time>2021-08-23T20:36:16Z</time>
      </trkpt>
      <trkpt lat="38.985936" lon="-3.925243">
        <time>2021-08-23T20:36:22Z</time>
      </trkpt>
      <trkpt lat="38.98603" lon="-3.925309">
        <time>2021-08-23T20:36:25Z</time>
      </trkpt>
      <trkpt lat="38.986299" lon="-3.92533">
        <time>2021-08-23T20:36:31Z</time>
      </trkpt>
      <trkpt lat="38.986375" lon="-3.925388">
        <time>2021-08-23T20:36:34Z</time>
      </trkpt>
      <trkpt lat="38.986442" lon="-3.925481">
        <time>2021-08-23T20:36:37Z</time>
      </trkpt>
      <trkpt lat="38.986656" lon="-3.92563">
        <time>2021-08-23T20:36:43Z</time>
      </trkpt>
      <trkpt lat="38.986889" lon="-3.925679">
        <time>2021-08-23T20:36:46Z</time>
      </trkpt>
      <trkpt lat="38.987684" lon="-3.925852">
        <time>2021-08-23T20:36:58Z</time>
      </trkpt>
      <trkpt lat="38.987846" lon="-3.925921">
        <time>2021-08-23T20:37:01Z</time>
      </trkpt>
      <trkpt lat="38.98799" lon="-3.925948">
        <time>2021-08-23T20:37:04Z</time>
      </trkpt>
      <trkpt lat="38.988137" lon="-3.925899">
        <time>2021-08-23T20:37:07Z</time>
      </trkpt>
      <trkpt lat="38.988624" lon="-3.925641">
        <time>2021-08-23T20:37:16Z</time>
      </trkpt>
      <trkpt lat="38.989233" lon="-3.925382">
        <time>2021-08-23T20:37:25Z</time>
      </trkpt>
      <trkpt lat="38.989818" lon="-3.925066">
        <time>2021-08-23T20:37:34Z</time>
      </trkpt>
      <trkpt lat="38.989984" lon="-3.924897">
        <time>2021-08-23T20:37:37Z</time>
      </trkpt>
      <trkpt lat="38.990713" lon="-3.924246">
        <time>2021-08-23T20:37:49Z</time>
      </trkpt>
      <trkpt lat="38.991141" lon="-3.9238">
        <time>2021-08-23T20:37:55Z</time>
      </trkpt>
      <trkpt lat="38.991647" lon="-3.923447">
        <time>2021-08-23T20:38:01Z</time>
      </trkpt>
      <trkpt lat="38.992026" lon="-3.92307">
        <time>2021-08-23T20:38:07Z</time>
      </trkpt>
      <trkpt lat="38.992241" lon="-3.923057">
        <time>2021-08-23T20:38:10Z</time>
      </trkpt>
      <trkpt lat="38.992391" lon="-3.922807">
        <time>2021-08-23T20:38:13Z</time>
      </trkpt>
      <trkpt lat="38.993345" lon="-3.921501">
        <time>2021-08-23T20:38:31Z</time>
      </trkpt>
      <trkpt lat="38.993405" lon="-3.92137">
        <time>2021-08-23T20:38:52Z</time>
      </trkpt>
      <trkpt lat="38.993421" lon="-3.921296">
        <time>2021-08-23T20:38:55Z</time>
      </trkpt>
      <trkpt lat="38.993404" lon="-3.92121">
        <time>2021-08-23T20:39:26Z</time>
      </trkpt>
      <trkpt lat="38.993404" lon="-3.92121">
        <time>2021-08-23T20:39:26Z</time>
      </trkpt>
      <trkpt lat="38.993529" lon="-3.921218">
        <time>2021-08-23T22:02:41Z</time>
      </trkpt>
      <trkpt lat="38.993529" lon="-3.921218">
        <time>2021-08-23T22:03:42Z</time>
      </trkpt>
      <trkpt lat="38.993529" lon="-3.921218">
        <time>2021-08-23T22:03:49Z</time>
      </trkpt>
      <trkpt lat="38.99356" lon="-3.921168">
        <time>2021-08-23T22:04:14Z</time>
      </trkpt>
      <trkpt lat="38.993684" lon="-3.921099">
        <time>2021-08-23T22:04:20Z</time>
      </trkpt>
      <trkpt lat="38.99383" lon="-3.921185">
        <time>2021-08-23T22:04:23Z</time>
      </trkpt>
      <trkpt lat="38.994869" lon="-3.922093">
        <time>2021-08-23T22:04:44Z</time>
      </trkpt>
      <trkpt lat="38.994854" lon="-3.922266">
        <time>2021-08-23T22:04:47Z</time>
      </trkpt>
      <trkpt lat="38.994888" lon="-3.922495">
        <time>2021-08-23T22:04:50Z</time>
      </trkpt>
      <trkpt lat="38.994926" lon="-3.922676">
        <time>2021-08-23T22:04:53Z</time>
      </trkpt>
      <trkpt lat="38.994826" lon="-3.92282">
        <time>2021-08-23T22:04:56Z</time>
      </trkpt>
      <trkpt lat="38.994088" lon="-3.923689">
        <time>2021-08-23T22:05:08Z</time>
      </trkpt>
      <trkpt lat="38.99402" lon="-3.923846">
        <time>2021-08-23T22:05:11Z</time>
      </trkpt>
      <trkpt lat="38.994014" lon="-3.923946">
        <time>2021-08-23T22:05:14Z</time>
      </trkpt>
      <trkpt lat="38.994168" lon="-3.924222">
        <time>2021-08-23T22:05:17Z</time>
      </trkpt>
      <trkpt lat="38.994168" lon="-3.924222">
        <time>2021-08-23T22:05:20Z</time>
      </trkpt>
      <trkpt lat="38.994726" lon="-3.92527">
        <time>2021-08-23T22:05:23Z</time>
      </trkpt>
      <trkpt lat="38.996042" lon="-3.927824">
        <time>2021-08-23T22:05:47Z</time>
      </trkpt>
      <trkpt lat="38.995901" lon="-3.928281">
        <time>2021-08-23T22:05:53Z</time>
      </trkpt>
      <trkpt lat="38.995845" lon="-3.928894">
        <time>2021-08-23T22:06:17Z</time>
      </trkpt>
      <trkpt lat="38.995701" lon="-3.929224">
        <time>2021-08-23T22:06:20Z</time>
      </trkpt>
      <trkpt lat="38.994725" lon="-3.930156">
        <time>2021-08-23T22:06:29Z</time>
      </trkpt>
      <trkpt lat="38.993786" lon="-3.930979">
        <time>2021-08-23T22:06:41Z</time>
      </trkpt>
      <trkpt lat="38.992647" lon="-3.931546">
        <time>2021-08-23T22:07:29Z</time>
      </trkpt>
      <trkpt lat="38.990427" lon="-3.932551">
        <time>2021-08-23T22:07:50Z</time>
      </trkpt>
      <trkpt lat="38.98697" lon="-3.933977">
        <time>2021-08-23T22:08:26Z</time>
      </trkpt>
      <trkpt lat="38.986863" lon="-3.933868">
        <time>2021-08-23T22:08:29Z</time>
      </trkpt>
      <trkpt lat="38.986816" lon="-3.933703">
        <time>2021-08-23T22:08:32Z</time>
      </trkpt>
      <trkpt lat="38.986743" lon="-3.933592">
        <time>2021-08-23T22:08:35Z</time>
      </trkpt>
      <trkpt lat="38.986439" lon="-3.93314">
        <time>2021-08-23T22:08:47Z</time>
      </trkpt>
      <trkpt lat="38.986483" lon="-3.93289">
        <time>2021-08-23T22:08:50Z</time>
      </trkpt>
      <trkpt lat="38.986483" lon="-3.93289">
        <time>2021-08-23T22:08:50Z</time>
      </trkpt>
      <trkpt lat="38.986358" lon="-3.932796">
        <time>2021-08-23T22:08:53Z</time>
      </trkpt>
      <trkpt lat="38.986175" lon="-3.932556">
        <time>2021-08-23T22:08:59Z</time>
      </trkpt>
      <trkpt lat="38.985806" lon="-3.932237">
        <time>2021-08-23T22:09:05Z</time>
      </trkpt>
      <trkpt lat="38.985477" lon="-3.931971">
        <time>2021-08-23T22:09:11Z</time>
      </trkpt>
      <trkpt lat="38.985405" lon="-3.931769">
        <time>2021-08-23T22:09:14Z</time>
      </trkpt>
      <trkpt lat="38.985295" lon="-3.931235">
        <time>2021-08-23T22:09:20Z</time>
      </trkpt>
      <trkpt lat="38.985169" lon="-3.930877">
        <time>2021-08-23T22:09:26Z</time>
      </trkpt>
      <trkpt lat="38.985075" lon="-3.930754">
        <time>2021-08-23T22:09:29Z</time>
      </trkpt>
      <trkpt lat="38.984622" lon="-3.930389">
        <time>2021-08-23T22:09:44Z</time>
      </trkpt>
      <trkpt lat="38.984535" lon="-3.930416">
        <time>2021-08-23T22:09:50Z</time>
      </trkpt>
      <trkpt lat="38.984532" lon="-3.930341">
        <time>2021-08-23T22:09:53Z</time>
      </trkpt>
      <trkpt lat="38.98454" lon="-3.930186">
        <time>2021-08-23T22:09:56Z</time>
      </trkpt>
      <trkpt lat="38.98459" lon="-3.930096">
        <time>2021-08-23T22:09:59Z</time>
      </trkpt>
      <trkpt lat="38.984491" lon="-3.929965">
        <time>2021-08-23T22:10:08Z</time>
      </trkpt>
      <trkpt lat="38.984436" lon="-3.92985">
        <time>2021-08-23T22:10:53Z</time>
      </trkpt>
      <trkpt lat="38.984456" lon="-3.92958">
        <time>2021-08-23T22:10:59Z</time>
      </trkpt>
      <trkpt lat="38.984561" lon="-3.929209">
        <time>2021-08-23T22:11:05Z</time>
      </trkpt>
      <trkpt lat="38.984611" lon="-3.928911">
        <time>2021-08-23T22:11:20Z</time>
      </trkpt>
      <trkpt lat="38.984634" lon="-3.928949">
        <time>2021-08-23T22:11:23Z</time>
      </trkpt>
      <trkpt lat="38.984593" lon="-3.928928">
        <time>2021-08-23T22:11:26Z</time>
      </trkpt>
      <trkpt lat="38.984415" lon="-3.929071">
        <time>2021-08-23T22:11:32Z</time>
      </trkpt>
      <trkpt lat="38.984446" lon="-3.929101">
        <time>2021-08-23T22:11:35Z</time>
      </trkpt>
      <trkpt lat="38.984694" lon="-3.929224">
        <time>2021-08-23T22:11:41Z</time>
      </trkpt>
      <trkpt lat="38.985017" lon="-3.929525">
        <time>2021-08-23T22:11:50Z</time>
      </trkpt>
      <trkpt lat="38.985101" lon="-3.9299">
        <time>2021-08-23T22:11:59Z</time>
      </trkpt>
      <trkpt lat="38.985202" lon="-3.929968">
        <time>2021-08-23T22:12:02Z</time>
      </trkpt>
      <trkpt lat="38.985269" lon="-3.930049">
        <time>2021-08-23T22:12:05Z</time>
      </trkpt>
      <trkpt lat="38.98542" lon="-3.930202">
        <time>2021-08-23T22:12:11Z</time>
      </trkpt>
      <trkpt lat="38.985553" lon="-3.930245">
        <time>2021-08-23T22:12:14Z</time>
      </trkpt>
      <trkpt lat="38.985966" lon="-3.929967">
        <time>2021-08-23T22:12:23Z</time>
      </trkpt>
      <trkpt lat="38.986312" lon="-3.929515">
        <time>2021-08-23T22:12:44Z</time>
      </trkpt>
      <trkpt lat="38.98642" lon="-3.929498">
        <time>2021-08-23T22:12:47Z</time>
      </trkpt>
      <trkpt lat="38.986702" lon="-3.929514">
        <time>2021-08-23T22:13:32Z</time>
      </trkpt>
      <trkpt lat="38.988072" lon="-3.930267">
        <time>2021-08-23T22:13:53Z</time>
      </trkpt>
      <trkpt lat="38.9883" lon="-3.930347">
        <time>2021-08-23T22:13:59Z</time>
      </trkpt>
      <trkpt lat="38.988315" lon="-3.930305">
        <time>2021-08-23T22:14:02Z</time>
      </trkpt>
      <trkpt lat="38.988388" lon="-3.930329">
        <time>2021-08-23T22:14:05Z</time>
      </trkpt>
      <trkpt lat="38.988579" lon="-3.930388">
        <time>2021-08-23T22:14:11Z</time>
      </trkpt>
      <trkpt lat="38.98874" lon="-3.930522">
        <time>2021-08-23T22:14:14Z</time>
      </trkpt>
      <trkpt lat="38.98874" lon="-3.930522">
        <time>2021-08-23T22:14:14Z</time>
      </trkpt>
      <trkpt lat="38.988879" lon="-3.930778">
        <time>2021-08-23T22:14:17Z</time>
      </trkpt>
      <trkpt lat="38.989774" lon="-3.931991">
        <time>2021-08-23T22:14:35Z</time>
      </trkpt>
      <trkpt lat="38.989839" lon="-3.932141">
        <time>2021-08-23T22:14:38Z</time>
      </trkpt>
      <trkpt lat="38.989868" lon="-3.932343">
        <time>2021-08-23T22:14:41Z</time>
      </trkpt>
      <trkpt lat="38.989902" lon="-3.93247">
        <time>2021-08-23T22:14:44Z</time>
      </trkpt>
      <trkpt lat="38.989831" lon="-3.932577">
        <time>2021-08-23T22:14:50Z</time>
      </trkpt>
      <trkpt lat="38.987567" lon="-3.933676">
        <time>2021-08-23T22:15:14Z</time>
      </trkpt>
      <trkpt lat="38.984555" lon="-3.934489">
        <time>2021-08-23T22:15:44Z</time>
      </trkpt>
      <trkpt lat="38.984583" lon="-3.934622">
        <time>2021-08-23T22:15:56Z</time>
      </trkpt>
      <trkpt lat="38.984689" lon="-3.934896">
        <time>2021-08-23T22:16:02Z</time>
      </trkpt>
      <trkpt lat="38.984811" lon="-3.934269">
        <time>2021-08-24T08:11:01Z</time>
      </trkpt>
      <trkpt lat="38.984858" lon="-3.934396">
        <time>2021-08-24T08:11:04Z</time>
      </trkpt>
      <trkpt lat="38.984858" lon="-3.934396">
        <time>2021-08-24T08:11:04Z</time>
      </trkpt>
      <trkpt lat="38.984778" lon="-3.934152">
        <time>2021-08-24T08:11:40Z</time>
      </trkpt>
      <trkpt lat="38.984676" lon="-3.934175">
        <time>2021-08-24T08:11:43Z</time>
      </trkpt>
      <trkpt lat="38.984618" lon="-3.934416">
        <time>2021-08-24T08:12:01Z</time>
      </trkpt>
      <trkpt lat="38.984451" lon="-3.934384">
        <time>2021-08-24T08:12:07Z</time>
      </trkpt>
      <trkpt lat="38.984262" lon="-3.934351">
        <time>2021-08-24T08:12:10Z</time>
      </trkpt>
      <trkpt lat="38.98313" lon="-3.934807">
        <time>2021-08-24T08:12:22Z</time>
      </trkpt>
      <trkpt lat="38.98047" lon="-3.935665">
        <time>2021-08-24T08:13:28Z</time>
      </trkpt>
      <trkpt lat="38.978452" lon="-3.936008">
        <time>2021-08-24T08:13:49Z</time>
      </trkpt>
      <trkpt lat="38.978055" lon="-3.936288">
        <time>2021-08-24T08:13:55Z</time>
      </trkpt>
      <trkpt lat="38.977547" lon="-3.936606">
        <time>2021-08-24T08:14:01Z</time>
      </trkpt>
      <trkpt lat="38.97664" lon="-3.937274">
        <time>2021-08-24T08:14:10Z</time>
      </trkpt>
      <trkpt lat="38.97664" lon="-3.937274">
        <time>2021-08-24T08:14:13Z</time>
      </trkpt>
      <trkpt lat="38.976151" lon="-3.937727">
        <time>2021-08-24T08:14:16Z</time>
      </trkpt>
      <trkpt lat="38.97232" lon="-3.941517">
        <time>2021-08-24T08:15:37Z</time>
      </trkpt>
      <trkpt lat="38.968425" lon="-3.945387">
        <time>2021-08-24T08:16:07Z</time>
      </trkpt>
      <trkpt lat="38.964743" lon="-3.94903">
        <time>2021-08-24T08:16:34Z</time>
      </trkpt>
      <trkpt lat="38.960842" lon="-3.952886">
        <time>2021-08-24T08:17:04Z</time>
      </trkpt>
      <trkpt lat="38.957638" lon="-3.956236">
        <time>2021-08-24T08:17:31Z</time>
      </trkpt>
      <trkpt lat="38.957225" lon="-3.956577">
        <time>2021-08-24T08:17:37Z</time>
      </trkpt>
      <trkpt lat="38.957225" lon="-3.956577">
        <time>2021-08-24T08:17:37Z</time>
      </trkpt>
      <trkpt lat="38.957177" lon="-3.956912">
        <time>2021-08-24T08:17:40Z</time>
      </trkpt>
      <trkpt lat="38.95709" lon="-3.957766">
        <time>2021-08-24T08:17:46Z</time>
      </trkpt>
      <trkpt lat="38.956816" lon="-3.958112">
        <time>2021-08-24T08:17:49Z</time>
      </trkpt>
      <trkpt lat="38.954193" lon="-3.960872">
        <time>2021-08-24T08:18:10Z</time>
      </trkpt>
      <trkpt lat="38.950394" lon="-3.964848">
        <time>2021-08-24T08:18:37Z</time>
      </trkpt>
      <trkpt lat="38.946889" lon="-3.969059">
        <time>2021-08-24T08:19:10Z</time>
      </trkpt>
      <trkpt lat="38.946889" lon="-3.969059">
        <time>2021-08-24T08:19:10Z</time>
      </trkpt>
      <trkpt lat="38.943457" lon="-3.973059">
        <time>2021-08-24T08:19:37Z</time>
      </trkpt>
      <trkpt lat="38.942774" lon="-3.973658">
        <time>2021-08-24T08:19:43Z</time>
      </trkpt>
      <trkpt lat="38.941506" lon="-3.974958">
        <time>2021-08-24T08:19:55Z</time>
      </trkpt>
      <trkpt lat="38.941306" lon="-3.975227">
        <time>2021-08-24T08:19:58Z</time>
      </trkpt>
      <trkpt lat="38.939842" lon="-3.976993">
        <time>2021-08-24T08:20:13Z</time>
      </trkpt>
      <trkpt lat="38.938235" lon="-3.978835">
        <time>2021-08-24T08:20:34Z</time>
      </trkpt>
      <trkpt lat="38.937534" lon="-3.979651">
        <time>2021-08-24T08:20:46Z</time>
      </trkpt>
      <trkpt lat="38.937487" lon="-3.979717">
        <time>2021-08-24T08:20:49Z</time>
      </trkpt>
      <trkpt lat="38.937453" lon="-3.979684">
        <time>2021-08-24T08:20:52Z</time>
      </trkpt>
      <trkpt lat="38.937489" lon="-3.979696">
        <time>2021-08-24T08:20:55Z</time>
      </trkpt>
      <trkpt lat="38.937596" lon="-3.979688">
        <time>2021-08-24T08:20:58Z</time>
      </trkpt>
      <trkpt lat="38.937622" lon="-3.979766">
        <time>2021-08-24T08:21:01Z</time>
      </trkpt>
      <trkpt lat="38.937633" lon="-3.979999">
        <time>2021-08-24T08:21:07Z</time>
      </trkpt>
      <trkpt lat="38.937567" lon="-3.980072">
        <time>2021-08-24T08:21:10Z</time>
      </trkpt>
      <trkpt lat="38.937459" lon="-3.980166">
        <time>2021-08-24T08:21:36Z</time>
      </trkpt>
      <trkpt lat="38.937459" lon="-3.980166">
        <time>2021-08-24T08:21:36Z</time>
      </trkpt>
      <trkpt lat="38.937554" lon="-3.980212">
        <time>2021-08-24T08:43:56Z</time>
      </trkpt>
      <trkpt lat="38.937576" lon="-3.980229">
        <time>2021-08-24T08:45:44Z</time>
      </trkpt>
      <trkpt lat="38.937675" lon="-3.980151">
        <time>2021-08-24T08:45:47Z</time>
      </trkpt>
      <trkpt lat="38.937758" lon="-3.980015">
        <time>2021-08-24T08:45:50Z</time>
      </trkpt>
      <trkpt lat="38.937728" lon="-3.979849">
        <time>2021-08-24T08:45:53Z</time>
      </trkpt>
      <trkpt lat="38.937591" lon="-3.979733">
        <time>2021-08-24T08:45:59Z</time>
      </trkpt>
      <trkpt lat="38.935511" lon="-3.981653">
        <time>2021-08-24T08:46:29Z</time>
      </trkpt>
      <trkpt lat="38.934743" lon="-3.982732">
        <time>2021-08-24T08:46:44Z</time>
      </trkpt>
      <trkpt lat="38.934544" lon="-3.98305">
        <time>2021-08-24T08:46:44Z</time>
      </trkpt>
      <trkpt lat="38.934151" lon="-3.983522">
        <time>2021-08-24T08:46:50Z</time>
      </trkpt>
      <trkpt lat="38.930479" lon="-3.985796">
        <time>2021-08-24T08:47:23Z</time>
      </trkpt>
      <trkpt lat="38.926265" lon="-3.988618">
        <time>2021-08-24T08:47:50Z</time>
      </trkpt>
      <trkpt lat="38.923515" lon="-3.990235">
        <time>2021-08-24T08:48:08Z</time>
      </trkpt>
      <trkpt lat="38.922921" lon="-3.990273">
        <time>2021-08-24T08:48:14Z</time>
      </trkpt>
      <trkpt lat="38.922756" lon="-3.990536">
        <time>2021-08-24T08:48:17Z</time>
      </trkpt>
      <trkpt lat="38.9223" lon="-3.991233">
        <time>2021-08-24T08:48:23Z</time>
      </trkpt>
      <trkpt lat="38.9223" lon="-3.991233">
        <time>2021-08-24T08:48:23Z</time>
      </trkpt>
      <trkpt lat="38.917873" lon="-3.994148">
        <time>2021-08-24T08:48:53Z</time>
      </trkpt>
      <trkpt lat="38.913774" lon="-3.996905">
        <time>2021-08-24T08:49:17Z</time>
      </trkpt>
      <trkpt lat="38.909742" lon="-3.999593">
        <time>2021-08-24T08:49:41Z</time>
      </trkpt>
      <trkpt lat="38.905467" lon="-4.002427">
        <time>2021-08-24T08:50:05Z</time>
      </trkpt>
      <trkpt lat="38.901084" lon="-4.005349">
        <time>2021-08-24T08:50:29Z</time>
      </trkpt>
      <trkpt lat="38.900167" lon="-4.00633">
        <time>2021-08-24T08:50:35Z</time>
      </trkpt>
      <trkpt lat="38.89883" lon="-4.00906">
        <time>2021-08-24T08:50:47Z</time>
      </trkpt>
      <trkpt lat="38.89781" lon="-4.010103">
        <time>2021-08-24T08:50:53Z</time>
      </trkpt>
      <trkpt lat="38.895671" lon="-4.012021">
        <time>2021-08-24T08:51:05Z</time>
      </trkpt>
      <trkpt lat="38.893385" lon="-4.013264">
        <time>2021-08-24T08:51:17Z</time>
      </trkpt>
      <trkpt lat="38.890407" lon="-4.0144">
        <time>2021-08-24T08:51:32Z</time>
      </trkpt>
      <trkpt lat="38.889943" lon="-4.014946">
        <time>2021-08-24T08:51:35Z</time>
      </trkpt>
      <trkpt lat="38.889333" lon="-4.016391">
        <time>2021-08-24T08:51:41Z</time>
      </trkpt>
      <trkpt lat="38.889333" lon="-4.016391">
        <time>2021-08-24T08:51:41Z</time>
      </trkpt>
      <trkpt lat="38.887492" lon="-4.020717">
        <time>2021-08-24T08:51:59Z</time>
      </trkpt>
      <trkpt lat="38.886847" lon="-4.022057">
        <time>2021-08-24T08:52:05Z</time>
      </trkpt>
      <trkpt lat="38.886847" lon="-4.022057">
        <time>2021-08-24T08:52:05Z</time>
      </trkpt>
      <trkpt lat="38.883035" lon="-4.026385">
        <time>2021-08-24T08:52:29Z</time>
      </trkpt>
      <trkpt lat="38.880663" lon="-4.029181">
        <time>2021-08-24T08:52:44Z</time>
      </trkpt>
      <trkpt lat="38.879925" lon="-4.030652">
        <time>2021-08-24T08:52:50Z</time>
      </trkpt>
      <trkpt lat="38.87739" lon="-4.035782">
        <time>2021-08-24T08:53:11Z</time>
      </trkpt>
      <trkpt lat="38.874776" lon="-4.040497">
        <time>2021-08-24T08:53:32Z</time>
      </trkpt>
      <trkpt lat="38.874776" lon="-4.040497">
        <time>2021-08-24T08:53:32Z</time>
      </trkpt>
      <trkpt lat="38.871024" lon="-4.04486">
        <time>2021-08-24T08:53:56Z</time>
      </trkpt>
      <trkpt lat="38.867908" lon="-4.047604">
        <time>2021-08-24T08:54:14Z</time>
      </trkpt>
      <trkpt lat="38.866729" lon="-4.048292">
        <time>2021-08-24T08:54:20Z</time>
      </trkpt>
      <trkpt lat="38.86287" lon="-4.051551">
        <time>2021-08-24T08:54:41Z</time>
      </trkpt>
      <trkpt lat="38.862345" lon="-4.052065">
        <time>2021-08-24T08:54:44Z</time>
      </trkpt>
      <trkpt lat="38.859327" lon="-4.055347">
        <time>2021-08-24T08:55:02Z</time>
      </trkpt>
      <trkpt lat="38.854971" lon="-4.058708">
        <time>2021-08-24T08:55:26Z</time>
      </trkpt>
      <trkpt lat="38.852738" lon="-4.060416">
        <time>2021-08-24T08:55:38Z</time>
      </trkpt>
      <trkpt lat="38.851481" lon="-4.060717">
        <time>2021-08-24T08:55:44Z</time>
      </trkpt>
      <trkpt lat="38.850834" lon="-4.060757">
        <time>2021-08-24T08:55:47Z</time>
      </trkpt>
      <trkpt lat="38.845796" lon="-4.06131">
        <time>2021-08-24T08:56:11Z</time>
      </trkpt>
      <trkpt lat="38.840736" lon="-4.06143">
        <time>2021-08-24T08:56:35Z</time>
      </trkpt>
      <trkpt lat="38.835805" lon="-4.062366">
        <time>2021-08-24T08:56:59Z</time>
      </trkpt>
      <trkpt lat="38.83091" lon="-4.063144">
        <time>2021-08-24T08:57:23Z</time>
      </trkpt>
      <trkpt lat="38.826102" lon="-4.063617">
        <time>2021-08-24T08:57:50Z</time>
      </trkpt>
      <trkpt lat="38.822369" lon="-4.064279">
        <time>2021-08-24T08:58:11Z</time>
      </trkpt>
      <trkpt lat="38.821981" lon="-4.064774">
        <time>2021-08-24T08:58:14Z</time>
      </trkpt>
      <trkpt lat="38.821731" lon="-4.065446">
        <time>2021-08-24T08:58:17Z</time>
      </trkpt>
      <trkpt lat="38.821731" lon="-4.065446">
        <time>2021-08-24T08:58:17Z</time>
      </trkpt>
      <trkpt lat="38.821052" lon="-4.067435">
        <time>2021-08-24T08:58:26Z</time>
      </trkpt>
      <trkpt lat="38.818995" lon="-4.070188">
        <time>2021-08-24T08:58:41Z</time>
      </trkpt>
      <trkpt lat="38.817145" lon="-4.073081">
        <time>2021-08-24T08:58:56Z</time>
      </trkpt>
      <trkpt lat="38.815699" lon="-4.074183">
        <time>2021-08-24T08:59:05Z</time>
      </trkpt>
      <trkpt lat="38.81528" lon="-4.074717">
        <time>2021-08-24T08:59:08Z</time>
      </trkpt>
      <trkpt lat="38.812212" lon="-4.078721">
        <time>2021-08-24T08:59:29Z</time>
      </trkpt>
      <trkpt lat="38.812212" lon="-4.078721">
        <time>2021-08-24T08:59:29Z</time>
      </trkpt>
      <trkpt lat="38.811331" lon="-4.079697">
        <time>2021-08-24T08:59:35Z</time>
      </trkpt>
      <trkpt lat="38.809208" lon="-4.083787">
        <time>2021-08-24T08:59:53Z</time>
      </trkpt>
      <trkpt lat="38.808463" lon="-4.08513">
        <time>2021-08-24T08:59:59Z</time>
      </trkpt>
      <trkpt lat="38.806041" lon="-4.087982">
        <time>2021-08-24T09:00:14Z</time>
      </trkpt>
      <trkpt lat="38.804031" lon="-4.09085">
        <time>2021-08-24T09:00:29Z</time>
      </trkpt>
      <trkpt lat="38.803236" lon="-4.092977">
        <time>2021-08-24T09:00:38Z</time>
      </trkpt>
      <trkpt lat="38.80306" lon="-4.093744">
        <time>2021-08-24T09:00:41Z</time>
      </trkpt>
      <trkpt lat="38.802023" lon="-4.099282">
        <time>2021-08-24T09:01:02Z</time>
      </trkpt>
      <trkpt lat="38.801064" lon="-4.102441">
        <time>2021-08-24T09:01:14Z</time>
      </trkpt>
      <trkpt lat="38.800091" lon="-4.104724">
        <time>2021-08-24T09:01:23Z</time>
      </trkpt>
      <trkpt lat="38.798033" lon="-4.110029">
        <time>2021-08-24T09:01:44Z</time>
      </trkpt>
      <trkpt lat="38.795879" lon="-4.115243">
        <time>2021-08-24T09:02:05Z</time>
      </trkpt>
      <trkpt lat="38.795441" lon="-4.11682">
        <time>2021-08-24T09:02:11Z</time>
      </trkpt>
      <trkpt lat="38.794596" lon="-4.120854">
        <time>2021-08-24T09:02:26Z</time>
      </trkpt>
      <trkpt lat="38.794596" lon="-4.120854">
        <time>2021-08-24T09:02:26Z</time>
      </trkpt>
      <trkpt lat="38.794074" lon="-4.123087">
        <time>2021-08-24T09:02:35Z</time>
      </trkpt>
      <trkpt lat="38.793878" lon="-4.123769">
        <time>2021-08-24T09:02:38Z</time>
      </trkpt>
      <trkpt lat="38.793083" lon="-4.124953">
        <time>2021-08-24T09:02:44Z</time>
      </trkpt>
      <trkpt lat="38.792058" lon="-4.125946">
        <time>2021-08-24T09:02:50Z</time>
      </trkpt>
      <trkpt lat="38.791622" lon="-4.126508">
        <time>2021-08-24T09:02:53Z</time>
      </trkpt>
      <trkpt lat="38.789143" lon="-4.131111">
        <time>2021-08-24T09:03:14Z</time>
      </trkpt>
      <trkpt lat="38.788979" lon="-4.13187">
        <time>2021-08-24T09:03:17Z</time>
      </trkpt>
      <trkpt lat="38.788734" lon="-4.134565">
        <time>2021-08-24T09:03:29Z</time>
      </trkpt>
      <trkpt lat="38.788579" lon="-4.134828">
        <time>2021-08-24T09:03:32Z</time>
      </trkpt>
      <trkpt lat="38.788302" lon="-4.13496">
        <time>2021-08-24T09:03:35Z</time>
      </trkpt>
      <trkpt lat="38.78714" lon="-4.135468">
        <time>2021-08-24T09:03:44Z</time>
      </trkpt>
      <trkpt lat="38.786409" lon="-4.135708">
        <time>2021-08-24T09:03:50Z</time>
      </trkpt>
      <trkpt lat="38.786171" lon="-4.1358">
        <time>2021-08-24T09:03:53Z</time>
      </trkpt>
      <trkpt lat="38.786032" lon="-4.136054">
        <time>2021-08-24T09:03:56Z</time>
      </trkpt>
      <trkpt lat="38.785614" lon="-4.137899">
        <time>2021-08-24T09:04:23Z</time>
      </trkpt>
      <trkpt lat="38.785594" lon="-4.1379">
        <time>2021-08-24T09:04:26Z</time>
      </trkpt>
      <trkpt lat="38.785663" lon="-4.137718">
        <time>2021-08-24T09:04:29Z</time>
      </trkpt>
      <trkpt lat="38.786015" lon="-4.135899">
        <time>2021-08-24T09:04:44Z</time>
      </trkpt>
      <trkpt lat="38.785871" lon="-4.135592">
        <time>2021-08-24T09:04:47Z</time>
      </trkpt>
      <trkpt lat="38.785514" lon="-4.135255">
        <time>2021-08-24T09:04:50Z</time>
      </trkpt>
      <trkpt lat="38.782182" lon="-4.132254">
        <time>2021-08-24T09:05:11Z</time>
      </trkpt>
      <trkpt lat="38.781663" lon="-4.131969">
        <time>2021-08-24T09:05:14Z</time>
      </trkpt>
      <trkpt lat="38.77908" lon="-4.129833">
        <time>2021-08-24T09:05:29Z</time>
      </trkpt>
      <trkpt lat="38.77769" lon="-4.128495">
        <time>2021-08-24T09:05:38Z</time>
      </trkpt>
      <trkpt lat="38.773788" lon="-4.124938">
        <time>2021-08-24T09:06:02Z</time>
      </trkpt>
      <trkpt lat="38.769764" lon="-4.121985">
        <time>2021-08-24T09:06:23Z</time>
      </trkpt>
      <trkpt lat="38.765813" lon="-4.118258">
        <time>2021-08-24T09:06:44Z</time>
      </trkpt>
      <trkpt lat="38.761832" lon="-4.115084">
        <time>2021-08-24T09:07:05Z</time>
      </trkpt>
      <trkpt lat="38.757532" lon="-4.112233">
        <time>2021-08-24T09:07:26Z</time>
      </trkpt>
      <trkpt lat="38.753443" lon="-4.108823">
        <time>2021-08-24T09:07:47Z</time>
      </trkpt>
      <trkpt lat="38.751803" lon="-4.107151">
        <time>2021-08-24T09:07:56Z</time>
      </trkpt>
      <trkpt lat="38.749858" lon="-4.104628">
        <time>2021-08-24T09:08:08Z</time>
      </trkpt>
      <trkpt lat="38.747833" lon="-4.10247">
        <time>2021-08-24T09:08:20Z</time>
      </trkpt>
      <trkpt lat="38.745986" lon="-4.101283">
        <time>2021-08-24T09:08:29Z</time>
      </trkpt>
      <trkpt lat="38.741748" lon="-4.098338">
        <time>2021-08-24T09:08:50Z</time>
      </trkpt>
      <trkpt lat="38.74011" lon="-4.09688">
        <time>2021-08-24T09:08:59Z</time>
      </trkpt>
      <trkpt lat="38.739345" lon="-4.095514">
        <time>2021-08-24T09:09:05Z</time>
      </trkpt>
      <trkpt lat="38.738691" lon="-4.094057">
        <time>2021-08-24T09:09:11Z</time>
      </trkpt>
      <trkpt lat="38.736426" lon="-4.088998">
        <time>2021-08-24T09:09:32Z</time>
      </trkpt>
      <trkpt lat="38.735343" lon="-4.086017">
        <time>2021-08-24T09:09:47Z</time>
      </trkpt>
      <trkpt lat="38.735442" lon="-4.083507">
        <time>2021-08-24T09:09:59Z</time>
      </trkpt>
      <trkpt lat="38.735306" lon="-4.078852">
        <time>2021-08-24T09:10:20Z</time>
      </trkpt>
      <trkpt lat="38.735262" lon="-4.078579">
        <time>2021-08-24T09:10:23Z</time>
      </trkpt>
      <trkpt lat="38.735364" lon="-4.078434">
        <time>2021-08-24T09:10:26Z</time>
      </trkpt>
      <trkpt lat="38.735569" lon="-4.078403">
        <time>2021-08-24T09:10:29Z</time>
      </trkpt>
      <trkpt lat="38.735932" lon="-4.078381">
        <time>2021-08-24T09:11:14Z</time>
      </trkpt>
      <trkpt lat="38.73912" lon="-4.077914">
        <time>2021-08-24T09:11:35Z</time>
      </trkpt>
      <trkpt lat="38.739518" lon="-4.077573">
        <time>2021-08-24T09:11:38Z</time>
      </trkpt>
      <trkpt lat="38.739756" lon="-4.07701">
        <time>2021-08-24T09:11:41Z</time>
      </trkpt>
      <trkpt lat="38.739811" lon="-4.076341">
        <time>2021-08-24T09:11:44Z</time>
      </trkpt>
      <trkpt lat="38.739811" lon="-4.076341">
        <time>2021-08-24T09:11:44Z</time>
      </trkpt>
      <trkpt lat="38.740111" lon="-4.07451">
        <time>2021-08-24T09:11:53Z</time>
      </trkpt>
      <trkpt lat="38.74049" lon="-4.074289">
        <time>2021-08-24T09:11:56Z</time>
      </trkpt>
      <trkpt lat="38.741062" lon="-4.074105">
        <time>2021-08-24T09:12:02Z</time>
      </trkpt>
      <trkpt lat="38.741107" lon="-4.073815">
        <time>2021-08-24T09:12:05Z</time>
      </trkpt>
      <trkpt lat="38.740932" lon="-4.073578">
        <time>2021-08-24T09:12:08Z</time>
      </trkpt>
      <trkpt lat="38.740583" lon="-4.073501">
        <time>2021-08-24T09:12:11Z</time>
      </trkpt>
      <trkpt lat="38.740178" lon="-4.073673">
        <time>2021-08-24T09:12:14Z</time>
      </trkpt>
      <trkpt lat="38.739766" lon="-4.07385">
        <time>2021-08-24T09:12:17Z</time>
      </trkpt>
      <trkpt lat="38.739335" lon="-4.073735">
        <time>2021-08-24T09:12:20Z</time>
      </trkpt>
      <trkpt lat="38.739335" lon="-4.073735">
        <time>2021-08-24T09:12:20Z</time>
      </trkpt>
      <trkpt lat="38.738985" lon="-4.073316">
        <time>2021-08-24T09:12:23Z</time>
      </trkpt>
      <trkpt lat="38.736225" lon="-4.068832">
        <time>2021-08-24T09:12:44Z</time>
      </trkpt>
      <trkpt lat="38.734791" lon="-4.067066">
        <time>2021-08-24T09:12:53Z</time>
      </trkpt>
      <trkpt lat="38.733524" lon="-4.06601">
        <time>2021-08-24T09:13:02Z</time>
      </trkpt>
      <trkpt lat="38.73323" lon="-4.066029">
        <time>2021-08-24T09:13:05Z</time>
      </trkpt>
      <trkpt lat="38.732965" lon="-4.065971">
        <time>2021-08-24T09:13:08Z</time>
      </trkpt>
      <trkpt lat="38.732792" lon="-4.06567">
        <time>2021-08-24T09:13:11Z</time>
      </trkpt>
      <trkpt lat="38.732561" lon="-4.065344">
        <time>2021-08-24T09:13:14Z</time>
      </trkpt>
      <trkpt lat="38.732561" lon="-4.065344">
        <time>2021-08-24T09:13:14Z</time>
      </trkpt>
      <trkpt lat="38.731167" lon="-4.064687">
        <time>2021-08-24T09:13:23Z</time>
      </trkpt>
      <trkpt lat="38.72816" lon="-4.06417">
        <time>2021-08-24T09:13:38Z</time>
      </trkpt>
      <trkpt lat="38.72816" lon="-4.06417">
        <time>2021-08-24T09:13:38Z</time>
      </trkpt>
      <trkpt lat="38.724991" lon="-4.064804">
        <time>2021-08-24T09:13:53Z</time>
      </trkpt>
      <trkpt lat="38.723738" lon="-4.06542">
        <time>2021-08-24T09:13:59Z</time>
      </trkpt>
      <trkpt lat="38.722016" lon="-4.066697">
        <time>2021-08-24T09:14:08Z</time>
      </trkpt>
      <trkpt lat="38.720087" lon="-4.068936">
        <time>2021-08-24T09:14:20Z</time>
      </trkpt>
      <trkpt lat="38.719223" lon="-4.070211">
        <time>2021-08-24T09:14:26Z</time>
      </trkpt>
      <trkpt lat="38.71712" lon="-4.073493">
        <time>2021-08-24T09:14:41Z</time>
      </trkpt>
      <trkpt lat="38.714169" lon="-4.078146">
        <time>2021-08-24T09:15:02Z</time>
      </trkpt>
      <trkpt lat="38.71126" lon="-4.082674">
        <time>2021-08-24T09:15:23Z</time>
      </trkpt>
      <trkpt lat="38.708995" lon="-4.086595">
        <time>2021-08-24T09:15:41Z</time>
      </trkpt>
      <trkpt lat="38.708717" lon="-4.088153">
        <time>2021-08-24T09:15:47Z</time>
      </trkpt>
      <trkpt lat="38.708717" lon="-4.088153">
        <time>2021-08-24T09:15:47Z</time>
      </trkpt>
      <trkpt lat="38.708874" lon="-4.089797">
        <time>2021-08-24T09:15:53Z</time>
      </trkpt>
      <trkpt lat="38.709348" lon="-4.092148">
        <time>2021-08-24T09:16:05Z</time>
      </trkpt>
      <trkpt lat="38.709604" lon="-4.092752">
        <time>2021-08-24T09:16:11Z</time>
      </trkpt>
      <trkpt lat="38.709501" lon="-4.093043">
        <time>2021-08-24T09:16:14Z</time>
      </trkpt>
      <trkpt lat="38.709019" lon="-4.093588">
        <time>2021-08-24T09:16:20Z</time>
      </trkpt>
      <trkpt lat="38.709019" lon="-4.093588">
        <time>2021-08-24T09:16:20Z</time>
      </trkpt>
      <trkpt lat="38.706494" lon="-4.098335">
        <time>2021-08-24T09:16:47Z</time>
      </trkpt>
      <trkpt lat="38.706395" lon="-4.098569">
        <time>2021-08-24T09:16:50Z</time>
      </trkpt>
      <trkpt lat="38.706395" lon="-4.098569">
        <time>2021-08-24T09:16:50Z</time>
      </trkpt>
      <trkpt lat="38.706196" lon="-4.098708">
        <time>2021-08-24T09:16:53Z</time>
      </trkpt>
      <trkpt lat="38.705684" lon="-4.099095">
        <time>2021-08-24T09:16:59Z</time>
      </trkpt>
      <trkpt lat="38.704017" lon="-4.100655">
        <time>2021-08-24T09:17:23Z</time>
      </trkpt>
      <trkpt lat="38.703958" lon="-4.100901">
        <time>2021-08-24T09:17:26Z</time>
      </trkpt>
      <trkpt lat="38.703855" lon="-4.10108">
        <time>2021-08-24T09:17:29Z</time>
      </trkpt>
      <trkpt lat="38.703657" lon="-4.10112">
        <time>2021-08-24T09:17:32Z</time>
      </trkpt>
      <trkpt lat="38.703405" lon="-4.101166">
        <time>2021-08-24T09:17:35Z</time>
      </trkpt>
      <trkpt lat="38.702734" lon="-4.101762">
        <time>2021-08-24T09:17:41Z</time>
      </trkpt>
      <trkpt lat="38.699069" lon="-4.105074">
        <time>2021-08-24T09:18:20Z</time>
      </trkpt>
      <trkpt lat="38.698832" lon="-4.10529">
        <time>2021-08-24T09:18:23Z</time>
      </trkpt>
      <trkpt lat="38.698595" lon="-4.105478">
        <time>2021-08-24T09:18:26Z</time>
      </trkpt>
      <trkpt lat="38.698161" lon="-4.105849">
        <time>2021-08-24T09:18:35Z</time>
      </trkpt>
      <trkpt lat="38.698129" lon="-4.105948">
        <time>2021-08-24T09:18:38Z</time>
      </trkpt>
      <trkpt lat="38.697992" lon="-4.106278">
        <time>2021-08-24T09:18:44Z</time>
      </trkpt>
      <trkpt lat="38.697809" lon="-4.10631">
        <time>2021-08-24T09:18:47Z</time>
      </trkpt>
      <trkpt lat="38.697532" lon="-4.106492">
        <time>2021-08-24T09:18:50Z</time>
      </trkpt>
      <trkpt lat="38.69517" lon="-4.108721">
        <time>2021-08-24T09:19:14Z</time>
      </trkpt>
      <trkpt lat="38.694751" lon="-4.109209">
        <time>2021-08-24T09:19:26Z</time>
      </trkpt>
      <trkpt lat="38.694624" lon="-4.109371">
        <time>2021-08-24T09:19:29Z</time>
      </trkpt>
      <trkpt lat="38.694508" lon="-4.1095">
        <time>2021-08-24T09:19:32Z</time>
      </trkpt>
      <trkpt lat="38.694351" lon="-4.109932">
        <time>2021-08-24T09:19:38Z</time>
      </trkpt>
      <trkpt lat="38.693929" lon="-4.11187">
        <time>2021-08-24T09:19:56Z</time>
      </trkpt>
      <trkpt lat="38.693707" lon="-4.11215">
        <time>2021-08-24T09:19:59Z</time>
      </trkpt>
      <trkpt lat="38.692101" lon="-4.112681">
        <time>2021-08-24T09:20:11Z</time>
      </trkpt>
      <trkpt lat="38.690717" lon="-4.113205">
        <time>2021-08-24T09:20:23Z</time>
      </trkpt>
      <trkpt lat="38.690541" lon="-4.113323">
        <time>2021-08-24T09:20:26Z</time>
      </trkpt>
      <trkpt lat="38.689965" lon="-4.113321">
        <time>2021-08-24T09:20:32Z</time>
      </trkpt>
      <trkpt lat="38.6888" lon="-4.113493">
        <time>2021-08-24T09:20:44Z</time>
      </trkpt>
      <trkpt lat="38.687506" lon="-4.113482">
        <time>2021-08-24T09:21:02Z</time>
      </trkpt>
      <trkpt lat="38.687429" lon="-4.113419">
        <time>2021-08-24T09:21:05Z</time>
      </trkpt>
      <trkpt lat="38.687404" lon="-4.113261">
        <time>2021-08-24T09:21:08Z</time>
      </trkpt>
      <trkpt lat="38.687275" lon="-4.113074">
        <time>2021-08-24T09:21:14Z</time>
      </trkpt>
      <trkpt lat="38.686911" lon="-4.11314">
        <time>2021-08-24T09:21:20Z</time>
      </trkpt>
      <trkpt lat="38.684933" lon="-4.114349">
        <time>2021-08-24T09:21:38Z</time>
      </trkpt>
      <trkpt lat="38.68383" lon="-4.1161">
        <time>2021-08-24T09:21:50Z</time>
      </trkpt>
      <trkpt lat="38.682592" lon="-4.117968">
        <time>2021-08-24T09:22:02Z</time>
      </trkpt>
      <trkpt lat="38.681636" lon="-4.121073">
        <time>2021-08-24T09:22:17Z</time>
      </trkpt>
      <trkpt lat="38.681153" lon="-4.12296">
        <time>2021-08-24T09:22:26Z</time>
      </trkpt>
      <trkpt lat="38.681043" lon="-4.12462">
        <time>2021-08-24T09:22:35Z</time>
      </trkpt>
      <trkpt lat="38.681" lon="-4.12676">
        <time>2021-08-24T09:22:44Z</time>
      </trkpt>
      <trkpt lat="38.680632" lon="-4.13048">
        <time>2021-08-24T09:22:59Z</time>
      </trkpt>
      <trkpt lat="38.679945" lon="-4.132713">
        <time>2021-08-24T09:23:08Z</time>
      </trkpt>
      <trkpt lat="38.678201" lon="-4.1382">
        <time>2021-08-24T09:23:29Z</time>
      </trkpt>
      <trkpt lat="38.676293" lon="-4.144101">
        <time>2021-08-24T09:23:50Z</time>
      </trkpt>
      <trkpt lat="38.675586" lon="-4.145667">
        <time>2021-08-24T09:23:56Z</time>
      </trkpt>
      <trkpt lat="38.673291" lon="-4.148966">
        <time>2021-08-24T09:24:11Z</time>
      </trkpt>
      <trkpt lat="38.670226" lon="-4.154006">
        <time>2021-08-24T09:24:32Z</time>
      </trkpt>
      <trkpt lat="38.669818" lon="-4.154844">
        <time>2021-08-24T09:24:35Z</time>
      </trkpt>
      <trkpt lat="38.66932" lon="-4.156712">
        <time>2021-08-24T09:24:41Z</time>
      </trkpt>
      <trkpt lat="38.668784" lon="-4.159528">
        <time>2021-08-24T09:24:50Z</time>
      </trkpt>
      <trkpt lat="38.667592" lon="-4.165802">
        <time>2021-08-24T09:25:11Z</time>
      </trkpt>
      <trkpt lat="38.666372" lon="-4.172268">
        <time>2021-08-24T09:25:32Z</time>
      </trkpt>
      <trkpt lat="38.665883" lon="-4.178079">
        <time>2021-08-24T09:25:50Z</time>
      </trkpt>
      <trkpt lat="38.66538" lon="-4.183933">
        <time>2021-08-24T09:26:08Z</time>
      </trkpt>
      <trkpt lat="38.664355" lon="-4.189627">
        <time>2021-08-24T09:26:26Z</time>
      </trkpt>
      <trkpt lat="38.664389" lon="-4.190582">
        <time>2021-08-24T09:26:29Z</time>
      </trkpt>
      <trkpt lat="38.665504" lon="-4.195814">
        <time>2021-08-24T09:26:47Z</time>
      </trkpt>
      <trkpt lat="38.665788" lon="-4.199353">
        <time>2021-08-24T09:26:59Z</time>
      </trkpt>
      <trkpt lat="38.665825" lon="-4.201893">
        <time>2021-08-24T09:27:08Z</time>
      </trkpt>
      <trkpt lat="38.665944" lon="-4.207941">
        <time>2021-08-24T09:27:29Z</time>
      </trkpt>
      <trkpt lat="38.666051" lon="-4.2139">
        <time>2021-08-24T09:27:47Z</time>
      </trkpt>
      <trkpt lat="38.666166" lon="-4.220003">
        <time>2021-08-24T09:28:05Z</time>
      </trkpt>
      <trkpt lat="38.666266" lon="-4.225959">
        <time>2021-08-24T09:28:23Z</time>
      </trkpt>
      <trkpt lat="38.666525" lon="-4.231881">
        <time>2021-08-24T09:28:41Z</time>
      </trkpt>
      <trkpt lat="38.666525" lon="-4.231881">
        <time>2021-08-24T09:28:41Z</time>
      </trkpt>
      <trkpt lat="38.667244" lon="-4.233556">
        <time>2021-08-24T09:28:47Z</time>
      </trkpt>
      <trkpt lat="38.66933" lon="-4.237319">
        <time>2021-08-24T09:29:02Z</time>
      </trkpt>
      <trkpt lat="38.66933" lon="-4.237319">
        <time>2021-08-24T09:29:02Z</time>
      </trkpt>
      <trkpt lat="38.669835" lon="-4.241868">
        <time>2021-08-24T09:29:17Z</time>
      </trkpt>
      <trkpt lat="38.669898" lon="-4.243846">
        <time>2021-08-24T09:29:23Z</time>
      </trkpt>
      <trkpt lat="38.670103" lon="-4.250477">
        <time>2021-08-24T09:29:44Z</time>
      </trkpt>
      <trkpt lat="38.670324" lon="-4.256823">
        <time>2021-08-24T09:30:05Z</time>
      </trkpt>
      <trkpt lat="38.671056" lon="-4.26319">
        <time>2021-08-24T09:30:26Z</time>
      </trkpt>
      <trkpt lat="38.671785" lon="-4.269499">
        <time>2021-08-24T09:30:47Z</time>
      </trkpt>
      <trkpt lat="38.672498" lon="-4.275741">
        <time>2021-08-24T09:31:08Z</time>
      </trkpt>
      <trkpt lat="38.67325" lon="-4.282202">
        <time>2021-08-24T09:31:29Z</time>
      </trkpt>
      <trkpt lat="38.673998" lon="-4.288625">
        <time>2021-08-24T09:31:50Z</time>
      </trkpt>
      <trkpt lat="38.674164" lon="-4.29484">
        <time>2021-08-24T09:32:11Z</time>
      </trkpt>
      <trkpt lat="38.674164" lon="-4.29484">
        <time>2021-08-24T09:32:11Z</time>
      </trkpt>
      <trkpt lat="38.673467" lon="-4.296429">
        <time>2021-08-24T09:32:17Z</time>
      </trkpt>
      <trkpt lat="38.672402" lon="-4.297684">
        <time>2021-08-24T09:32:23Z</time>
      </trkpt>
      <trkpt lat="38.671083" lon="-4.298446">
        <time>2021-08-24T09:32:29Z</time>
      </trkpt>
      <trkpt lat="38.670374" lon="-4.298622">
        <time>2021-08-24T09:32:32Z</time>
      </trkpt>
      <trkpt lat="38.669652" lon="-4.298634">
        <time>2021-08-24T09:32:35Z</time>
      </trkpt>
      <trkpt lat="38.666769" lon="-4.298581">
        <time>2021-08-24T09:32:47Z</time>
      </trkpt>
      <trkpt lat="38.665468" lon="-4.299275">
        <time>2021-08-24T09:32:53Z</time>
      </trkpt>
      <trkpt lat="38.665468" lon="-4.299275">
        <time>2021-08-24T09:32:53Z</time>
      </trkpt>
      <trkpt lat="38.661804" lon="-4.30315">
        <time>2021-08-24T09:33:14Z</time>
      </trkpt>
      <trkpt lat="38.657861" lon="-4.307427">
        <time>2021-08-24T09:33:38Z</time>
      </trkpt>
      <trkpt lat="38.656875" lon="-4.308689">
        <time>2021-08-24T09:33:44Z</time>
      </trkpt>
      <trkpt lat="38.656309" lon="-4.310249">
        <time>2021-08-24T09:33:50Z</time>
      </trkpt>
      <trkpt lat="38.655663" lon="-4.311701">
        <time>2021-08-24T09:33:56Z</time>
      </trkpt>
      <trkpt lat="38.655141" lon="-4.312256">
        <time>2021-08-24T09:33:59Z</time>
      </trkpt>
      <trkpt lat="38.655141" lon="-4.312256">
        <time>2021-08-24T09:33:59Z</time>
      </trkpt>
      <trkpt lat="38.653868" lon="-4.31282">
        <time>2021-08-24T09:34:05Z</time>
      </trkpt>
      <trkpt lat="38.651904" lon="-4.313447">
        <time>2021-08-24T09:34:14Z</time>
      </trkpt>
      <trkpt lat="38.650723" lon="-4.314322">
        <time>2021-08-24T09:34:20Z</time>
      </trkpt>
      <trkpt lat="38.649078" lon="-4.315827">
        <time>2021-08-24T09:34:29Z</time>
      </trkpt>
      <trkpt lat="38.648399" lon="-4.317315">
        <time>2021-08-24T09:34:35Z</time>
      </trkpt>
      <trkpt lat="38.648257" lon="-4.319041">
        <time>2021-08-24T09:34:41Z</time>
      </trkpt>
      <trkpt lat="38.648257" lon="-4.319041">
        <time>2021-08-24T09:34:41Z</time>
      </trkpt>
      <trkpt lat="38.648702" lon="-4.322566">
        <time>2021-08-24T09:34:53Z</time>
      </trkpt>
      <trkpt lat="38.649272" lon="-4.3251">
        <time>2021-08-24T09:35:02Z</time>
      </trkpt>
      <trkpt lat="38.649272" lon="-4.3251">
        <time>2021-08-24T09:35:02Z</time>
      </trkpt>
      <trkpt lat="38.649167" lon="-4.325965">
        <time>2021-08-24T09:35:05Z</time>
      </trkpt>
      <trkpt lat="38.648872" lon="-4.326763">
        <time>2021-08-24T09:35:08Z</time>
      </trkpt>
      <trkpt lat="38.647909" lon="-4.328119">
        <time>2021-08-24T09:35:14Z</time>
      </trkpt>
      <trkpt lat="38.646272" lon="-4.329754">
        <time>2021-08-24T09:35:23Z</time>
      </trkpt>
      <trkpt lat="38.646272" lon="-4.329754">
        <time>2021-08-24T09:35:23Z</time>
      </trkpt>
      <trkpt lat="38.646059" lon="-4.330556">
        <time>2021-08-24T09:35:26Z</time>
      </trkpt>
      <trkpt lat="38.645682" lon="-4.332152">
        <time>2021-08-24T09:35:32Z</time>
      </trkpt>
      <trkpt lat="38.645242" lon="-4.332792">
        <time>2021-08-24T09:35:35Z</time>
      </trkpt>
      <trkpt lat="38.643522" lon="-4.334517">
        <time>2021-08-24T09:35:44Z</time>
      </trkpt>
      <trkpt lat="38.640316" lon="-4.338831">
        <time>2021-08-24T09:36:02Z</time>
      </trkpt>
      <trkpt lat="38.63688" lon="-4.343074">
        <time>2021-08-24T09:36:20Z</time>
      </trkpt>
      <trkpt lat="38.633134" lon="-4.346839">
        <time>2021-08-24T09:36:38Z</time>
      </trkpt>
      <trkpt lat="38.632431" lon="-4.347262">
        <time>2021-08-24T09:36:41Z</time>
      </trkpt>
      <trkpt lat="38.630944" lon="-4.347586">
        <time>2021-08-24T09:36:47Z</time>
      </trkpt>
      <trkpt lat="38.628684" lon="-4.347164">
        <time>2021-08-24T09:36:56Z</time>
      </trkpt>
      <trkpt lat="38.624996" lon="-4.34673">
        <time>2021-08-24T09:37:11Z</time>
      </trkpt>
      <trkpt lat="38.624234" lon="-4.346944">
        <time>2021-08-24T09:37:14Z</time>
      </trkpt>
      <trkpt lat="38.619496" lon="-4.348318">
        <time>2021-08-24T09:37:32Z</time>
      </trkpt>
      <trkpt lat="38.614838" lon="-4.349653">
        <time>2021-08-24T09:37:50Z</time>
      </trkpt>
      <trkpt lat="38.610244" lon="-4.35097">
        <time>2021-08-24T09:38:08Z</time>
      </trkpt>
      <trkpt lat="38.605698" lon="-4.352267">
        <time>2021-08-24T09:38:26Z</time>
      </trkpt>
      <trkpt lat="38.601055" lon="-4.353584">
        <time>2021-08-24T09:38:44Z</time>
      </trkpt>
      <trkpt lat="38.596595" lon="-4.354871">
        <time>2021-08-24T09:39:02Z</time>
      </trkpt>
      <trkpt lat="38.591902" lon="-4.356204">
        <time>2021-08-24T09:39:20Z</time>
      </trkpt>
      <trkpt lat="38.587089" lon="-4.357585">
        <time>2021-08-24T09:39:38Z</time>
      </trkpt>
      <trkpt lat="38.582256" lon="-4.358972">
        <time>2021-08-24T09:39:56Z</time>
      </trkpt>
      <trkpt lat="38.57718" lon="-4.360422">
        <time>2021-08-24T09:40:17Z</time>
      </trkpt>
      <trkpt lat="38.572127" lon="-4.361861">
        <time>2021-08-24T09:40:38Z</time>
      </trkpt>
      <trkpt lat="38.56754" lon="-4.363179">
        <time>2021-08-24T09:40:56Z</time>
      </trkpt>
      <trkpt lat="38.563142" lon="-4.364436">
        <time>2021-08-24T09:41:14Z</time>
      </trkpt>
      <trkpt lat="38.558053" lon="-4.36588">
        <time>2021-08-24T09:41:35Z</time>
      </trkpt>
      <trkpt lat="38.552981" lon="-4.367337">
        <time>2021-08-24T09:41:56Z</time>
      </trkpt>
      <trkpt lat="38.55012" lon="-4.367771">
        <time>2021-08-24T09:42:08Z</time>
      </trkpt>
      <trkpt lat="38.548778" lon="-4.36727">
        <time>2021-08-24T09:42:14Z</time>
      </trkpt>
      <trkpt lat="38.548149" lon="-4.366869">
        <time>2021-08-24T09:42:17Z</time>
      </trkpt>
      <trkpt lat="38.546405" lon="-4.365501">
        <time>2021-08-24T09:42:26Z</time>
      </trkpt>
      <trkpt lat="38.544472" lon="-4.362899">
        <time>2021-08-24T09:42:38Z</time>
      </trkpt>
      <trkpt lat="38.542911" lon="-4.361285">
        <time>2021-08-24T09:42:47Z</time>
      </trkpt>
      <trkpt lat="38.542263" lon="-4.36124">
        <time>2021-08-24T09:42:50Z</time>
      </trkpt>
      <trkpt lat="38.541639" lon="-4.361471">
        <time>2021-08-24T09:42:53Z</time>
      </trkpt>
      <trkpt lat="38.541121" lon="-4.361995">
        <time>2021-08-24T09:42:56Z</time>
      </trkpt>
      <trkpt lat="38.540738" lon="-4.362727">
        <time>2021-08-24T09:42:59Z</time>
      </trkpt>
      <trkpt lat="38.538418" lon="-4.36793">
        <time>2021-08-24T09:43:17Z</time>
      </trkpt>
      <trkpt lat="38.537649" lon="-4.369643">
        <time>2021-08-24T09:43:23Z</time>
      </trkpt>
      <trkpt lat="38.537424" lon="-4.370523">
        <time>2021-08-24T09:43:26Z</time>
      </trkpt>
      <trkpt lat="38.537424" lon="-4.371442">
        <time>2021-08-24T09:43:29Z</time>
      </trkpt>
      <trkpt lat="38.537868" lon="-4.374264">
        <time>2021-08-24T09:43:38Z</time>
      </trkpt>
      <trkpt lat="38.538011" lon="-4.376202">
        <time>2021-08-24T09:43:44Z</time>
      </trkpt>
      <trkpt lat="38.537689" lon="-4.378005">
        <time>2021-08-24T09:43:50Z</time>
      </trkpt>
      <trkpt lat="38.537356" lon="-4.378735">
        <time>2021-08-24T09:43:53Z</time>
      </trkpt>
      <trkpt lat="38.536321" lon="-4.37998">
        <time>2021-08-24T09:43:59Z</time>
      </trkpt>
      <trkpt lat="38.536321" lon="-4.37998">
        <time>2021-08-24T09:43:59Z</time>
      </trkpt>
      <trkpt lat="38.536084" lon="-4.38082">
        <time>2021-08-24T09:44:02Z</time>
      </trkpt>
      <trkpt lat="38.535502" lon="-4.384414">
        <time>2021-08-24T09:44:14Z</time>
      </trkpt>
      <trkpt lat="38.535115" lon="-4.384971">
        <time>2021-08-24T09:44:17Z</time>
      </trkpt>
      <trkpt lat="38.534583" lon="-4.385227">
        <time>2021-08-24T09:44:20Z</time>
      </trkpt>
      <trkpt lat="38.534583" lon="-4.385227">
        <time>2021-08-24T09:44:20Z</time>
      </trkpt>
      <trkpt lat="38.534041" lon="-4.385104">
        <time>2021-08-24T09:44:23Z</time>
      </trkpt>
      <trkpt lat="38.533563" lon="-4.384661">
        <time>2021-08-24T09:44:26Z</time>
      </trkpt>
      <trkpt lat="38.533222" lon="-4.383926">
        <time>2021-08-24T09:44:29Z</time>
      </trkpt>
      <trkpt lat="38.532065" lon="-4.380243">
        <time>2021-08-24T09:44:41Z</time>
      </trkpt>
      <trkpt lat="38.530595" lon="-4.37667">
        <time>2021-08-24T09:44:53Z</time>
      </trkpt>
      <trkpt lat="38.529421" lon="-4.37536">
        <time>2021-08-24T09:44:59Z</time>
      </trkpt>
      <trkpt lat="38.526102" lon="-4.371058">
        <time>2021-08-24T09:45:17Z</time>
      </trkpt>
      <trkpt lat="38.526102" lon="-4.371058">
        <time>2021-08-24T09:45:17Z</time>
      </trkpt>
      <trkpt lat="38.52467" lon="-4.370566">
        <time>2021-08-24T09:45:23Z</time>
      </trkpt>
      <trkpt lat="38.523934" lon="-4.370754">
        <time>2021-08-24T09:45:26Z</time>
      </trkpt>
      <trkpt lat="38.523254" lon="-4.371248">
        <time>2021-08-24T09:45:29Z</time>
      </trkpt>
      <trkpt lat="38.5221" lon="-4.372714">
        <time>2021-08-24T09:45:35Z</time>
      </trkpt>
      <trkpt lat="38.520602" lon="-4.375009">
        <time>2021-08-24T09:45:44Z</time>
      </trkpt>
      <trkpt lat="38.520394" lon="-4.375965">
        <time>2021-08-24T09:45:47Z</time>
      </trkpt>
      <trkpt lat="38.52022" lon="-4.378037">
        <time>2021-08-24T09:45:53Z</time>
      </trkpt>
      <trkpt lat="38.519697" lon="-4.380616">
        <time>2021-08-24T09:46:02Z</time>
      </trkpt>
      <trkpt lat="38.519153" lon="-4.381193">
        <time>2021-08-24T09:46:05Z</time>
      </trkpt>
      <trkpt lat="38.51787" lon="-4.382061">
        <time>2021-08-24T09:46:11Z</time>
      </trkpt>
      <trkpt lat="38.517347" lon="-4.382624">
        <time>2021-08-24T09:46:14Z</time>
      </trkpt>
      <trkpt lat="38.516727" lon="-4.383018">
        <time>2021-08-24T09:46:17Z</time>
      </trkpt>
      <trkpt lat="38.513067" lon="-4.384362">
        <time>2021-08-24T09:46:32Z</time>
      </trkpt>
      <trkpt lat="38.511559" lon="-4.384771">
        <time>2021-08-24T09:46:38Z</time>
      </trkpt>
      <trkpt lat="38.510825" lon="-4.384595">
        <time>2021-08-24T09:46:41Z</time>
      </trkpt>
      <trkpt lat="38.508698" lon="-4.383346">
        <time>2021-08-24T09:46:50Z</time>
      </trkpt>
      <trkpt lat="38.505805" lon="-4.381943">
        <time>2021-08-24T09:47:02Z</time>
      </trkpt>
      <trkpt lat="38.504737" lon="-4.380567">
        <time>2021-08-24T09:47:08Z</time>
      </trkpt>
      <trkpt lat="38.501664" lon="-4.376311">
        <time>2021-08-24T09:47:26Z</time>
      </trkpt>
      <trkpt lat="38.499857" lon="-4.374402">
        <time>2021-08-24T09:47:35Z</time>
      </trkpt>
      <trkpt lat="38.497655" lon="-4.373513">
        <time>2021-08-24T09:47:44Z</time>
      </trkpt>
      <trkpt lat="38.497655" lon="-4.373513">
        <time>2021-08-24T09:47:44Z</time>
      </trkpt>
      <trkpt lat="38.493193" lon="-4.372543">
        <time>2021-08-24T09:48:02Z</time>
      </trkpt>
      <trkpt lat="38.488712" lon="-4.371913">
        <time>2021-08-24T09:48:20Z</time>
      </trkpt>
      <trkpt lat="38.484743" lon="-4.369895">
        <time>2021-08-24T09:48:38Z</time>
      </trkpt>
      <trkpt lat="38.484213" lon="-4.369345">
        <time>2021-08-24T09:48:41Z</time>
      </trkpt>
      <trkpt lat="38.484213" lon="-4.369345">
        <time>2021-08-24T09:48:41Z</time>
      </trkpt>
      <trkpt lat="38.48382" lon="-4.368598">
        <time>2021-08-24T09:48:44Z</time>
      </trkpt>
      <trkpt lat="38.483072" lon="-4.367064">
        <time>2021-08-24T09:48:50Z</time>
      </trkpt>
      <trkpt lat="38.482488" lon="-4.366688">
        <time>2021-08-24T09:48:53Z</time>
      </trkpt>
      <trkpt lat="38.481815" lon="-4.366645">
        <time>2021-08-24T09:48:56Z</time>
      </trkpt>
      <trkpt lat="38.480437" lon="-4.366924">
        <time>2021-08-24T09:49:02Z</time>
      </trkpt>
      <trkpt lat="38.480437" lon="-4.366924">
        <time>2021-08-24T09:49:02Z</time>
      </trkpt>
      <trkpt lat="38.479767" lon="-4.366677">
        <time>2021-08-24T09:49:05Z</time>
      </trkpt>
      <trkpt lat="38.47857" lon="-4.365623">
        <time>2021-08-24T09:49:11Z</time>
      </trkpt>
      <trkpt lat="38.477048" lon="-4.362165">
        <time>2021-08-24T09:49:23Z</time>
      </trkpt>
      <trkpt lat="38.47649" lon="-4.361415">
        <time>2021-08-24T09:49:26Z</time>
      </trkpt>
      <trkpt lat="38.475796" lon="-4.360924">
        <time>2021-08-24T09:49:29Z</time>
      </trkpt>
      <trkpt lat="38.472927" lon="-4.359561">
        <time>2021-08-24T09:49:41Z</time>
      </trkpt>
      <trkpt lat="38.472341" lon="-4.358986">
        <time>2021-08-24T09:49:44Z</time>
      </trkpt>
      <trkpt lat="38.471902" lon="-4.358228">
        <time>2021-08-24T09:49:47Z</time>
      </trkpt>
      <trkpt lat="38.470683" lon="-4.35469">
        <time>2021-08-24T09:49:59Z</time>
      </trkpt>
      <trkpt lat="38.469613" lon="-4.352102">
        <time>2021-08-24T09:50:08Z</time>
      </trkpt>
      <trkpt lat="38.468283" lon="-4.349808">
        <time>2021-08-24T09:50:17Z</time>
      </trkpt>
      <trkpt lat="38.468283" lon="-4.349808">
        <time>2021-08-24T09:50:17Z</time>
      </trkpt>
      <trkpt lat="38.467025" lon="-4.346651">
        <time>2021-08-24T09:50:29Z</time>
      </trkpt>
      <trkpt lat="38.46558" lon="-4.344714">
        <time>2021-08-24T09:50:38Z</time>
      </trkpt>
      <trkpt lat="38.465182" lon="-4.343989">
        <time>2021-08-24T09:50:41Z</time>
      </trkpt>
      <trkpt lat="38.463879" lon="-4.340755">
        <time>2021-08-24T09:50:53Z</time>
      </trkpt>
      <trkpt lat="38.462777" lon="-4.33952">
        <time>2021-08-24T09:50:59Z</time>
      </trkpt>
      <trkpt lat="38.461858" lon="-4.338059">
        <time>2021-08-24T09:51:05Z</time>
      </trkpt>
      <trkpt lat="38.461419" lon="-4.337294">
        <time>2021-08-24T09:51:08Z</time>
      </trkpt>
      <trkpt lat="38.460804" lon="-4.336743">
        <time>2021-08-24T09:51:11Z</time>
      </trkpt>
      <trkpt lat="38.459327" lon="-4.336179">
        <time>2021-08-24T09:51:17Z</time>
      </trkpt>
      <trkpt lat="38.457408" lon="-4.335086">
        <time>2021-08-24T09:51:26Z</time>
      </trkpt>
      <trkpt lat="38.457026" lon="-4.33431">
        <time>2021-08-24T09:51:29Z</time>
      </trkpt>
      <trkpt lat="38.456191" lon="-4.331715">
        <time>2021-08-24T09:51:38Z</time>
      </trkpt>
      <trkpt lat="38.455747" lon="-4.330962">
        <time>2021-08-24T09:51:41Z</time>
      </trkpt>
      <trkpt lat="38.453182" lon="-4.328955">
        <time>2021-08-24T09:51:53Z</time>
      </trkpt>
      <trkpt lat="38.452438" lon="-4.328756">
        <time>2021-08-24T09:51:56Z</time>
      </trkpt>
      <trkpt lat="38.451144" lon="-4.328123">
        <time>2021-08-24T09:52:02Z</time>
      </trkpt>
      <trkpt lat="38.448993" lon="-4.325974">
        <time>2021-08-24T09:52:14Z</time>
      </trkpt>
      <trkpt lat="38.448341" lon="-4.325622">
        <time>2021-08-24T09:52:17Z</time>
      </trkpt>
      <trkpt lat="38.446947" lon="-4.32519">
        <time>2021-08-24T09:52:23Z</time>
      </trkpt>
      <trkpt lat="38.445111" lon="-4.324332">
        <time>2021-08-24T09:52:32Z</time>
      </trkpt>
      <trkpt lat="38.443779" lon="-4.323464">
        <time>2021-08-24T09:52:38Z</time>
      </trkpt>
      <trkpt lat="38.441625" lon="-4.322302">
        <time>2021-08-24T09:52:47Z</time>
      </trkpt>
      <trkpt lat="38.439518" lon="-4.321639">
        <time>2021-08-24T09:52:56Z</time>
      </trkpt>
      <trkpt lat="38.439518" lon="-4.321639">
        <time>2021-08-24T09:52:56Z</time>
      </trkpt>
      <trkpt lat="38.437271" lon="-4.319593">
        <time>2021-08-24T09:53:08Z</time>
      </trkpt>
      <trkpt lat="38.436337" lon="-4.318285">
        <time>2021-08-24T09:53:14Z</time>
      </trkpt>
      <trkpt lat="38.435681" lon="-4.317915">
        <time>2021-08-24T09:53:17Z</time>
      </trkpt>
      <trkpt lat="38.435681" lon="-4.317915">
        <time>2021-08-24T09:53:17Z</time>
      </trkpt>
      <trkpt lat="38.434386" lon="-4.317126">
        <time>2021-08-24T09:53:23Z</time>
      </trkpt>
      <trkpt lat="38.433164" lon="-4.316237">
        <time>2021-08-24T09:53:29Z</time>
      </trkpt>
      <trkpt lat="38.431404" lon="-4.315362">
        <time>2021-08-24T09:53:38Z</time>
      </trkpt>
      <trkpt lat="38.431404" lon="-4.315362">
        <time>2021-08-24T09:53:38Z</time>
      </trkpt>
      <trkpt lat="38.4284" lon="-4.313147">
        <time>2021-08-24T09:53:53Z</time>
      </trkpt>
      <trkpt lat="38.427175" lon="-4.312675">
        <time>2021-08-24T09:53:59Z</time>
      </trkpt>
      <trkpt lat="38.427175" lon="-4.312675">
        <time>2021-08-24T09:53:59Z</time>
      </trkpt>
      <trkpt lat="38.426742" lon="-4.312087">
        <time>2021-08-24T09:54:02Z</time>
      </trkpt>
      <trkpt lat="38.426499" lon="-4.31127">
        <time>2021-08-24T09:54:05Z</time>
      </trkpt>
      <trkpt lat="38.425697" lon="-4.309039">
        <time>2021-08-24T09:54:14Z</time>
      </trkpt>
      <trkpt lat="38.425102" lon="-4.308624">
        <time>2021-08-24T09:54:17Z</time>
      </trkpt>
      <trkpt lat="38.424438" lon="-4.308517">
        <time>2021-08-24T09:54:20Z</time>
      </trkpt>
      <trkpt lat="38.424438" lon="-4.308517">
        <time>2021-08-24T09:54:20Z</time>
      </trkpt>
      <trkpt lat="38.42378" lon="-4.30872">
        <time>2021-08-24T09:54:23Z</time>
      </trkpt>
      <trkpt lat="38.422602" lon="-4.308841">
        <time>2021-08-24T09:54:29Z</time>
      </trkpt>
      <trkpt lat="38.421459" lon="-4.308153">
        <time>2021-08-24T09:54:35Z</time>
      </trkpt>
      <trkpt lat="38.420995" lon="-4.307612">
        <time>2021-08-24T09:54:38Z</time>
      </trkpt>
      <trkpt lat="38.420708" lon="-4.306955">
        <time>2021-08-24T09:54:41Z</time>
      </trkpt>
      <trkpt lat="38.420455" lon="-4.30629">
        <time>2021-08-24T09:54:44Z</time>
      </trkpt>
      <trkpt lat="38.420124" lon="-4.305741">
        <time>2021-08-24T09:54:47Z</time>
      </trkpt>
      <trkpt lat="38.41932" lon="-4.305038">
        <time>2021-08-24T09:54:53Z</time>
      </trkpt>
      <trkpt lat="38.416882" lon="-4.304049">
        <time>2021-08-24T09:55:08Z</time>
      </trkpt>
      <trkpt lat="38.416358" lon="-4.30365">
        <time>2021-08-24T09:55:11Z</time>
      </trkpt>
      <trkpt lat="38.41587" lon="-4.303091">
        <time>2021-08-24T09:55:14Z</time>
      </trkpt>
      <trkpt lat="38.414844" lon="-4.30215">
        <time>2021-08-24T09:55:20Z</time>
      </trkpt>
      <trkpt lat="38.414221" lon="-4.302055">
        <time>2021-08-24T09:55:23Z</time>
      </trkpt>
      <trkpt lat="38.411724" lon="-4.301604">
        <time>2021-08-24T09:55:35Z</time>
      </trkpt>
      <trkpt lat="38.411724" lon="-4.301604">
        <time>2021-08-24T09:55:35Z</time>
      </trkpt>
      <trkpt lat="38.410493" lon="-4.301341">
        <time>2021-08-24T09:55:41Z</time>
      </trkpt>
      <trkpt lat="38.407842" lon="-4.301499">
        <time>2021-08-24T09:55:53Z</time>
      </trkpt>
      <trkpt lat="38.40723" lon="-4.301118">
        <time>2021-08-24T09:55:56Z</time>
      </trkpt>
      <trkpt lat="38.406017" lon="-4.30054">
        <time>2021-08-24T09:56:02Z</time>
      </trkpt>
      <trkpt lat="38.404834" lon="-4.300115">
        <time>2021-08-24T09:56:08Z</time>
      </trkpt>
      <trkpt lat="38.404359" lon="-4.299571">
        <time>2021-08-24T09:56:11Z</time>
      </trkpt>
      <trkpt lat="38.403348" lon="-4.298571">
        <time>2021-08-24T09:56:17Z</time>
      </trkpt>
      <trkpt lat="38.402694" lon="-4.298406">
        <time>2021-08-24T09:56:20Z</time>
      </trkpt>
      <trkpt lat="38.402694" lon="-4.298406">
        <time>2021-08-24T09:56:20Z</time>
      </trkpt>
      <trkpt lat="38.39874" lon="-4.298579">
        <time>2021-08-24T09:56:38Z</time>
      </trkpt>
      <trkpt lat="38.398189" lon="-4.298266">
        <time>2021-08-24T09:56:41Z</time>
      </trkpt>
      <trkpt lat="38.393931" lon="-4.295545">
        <time>2021-08-24T09:57:02Z</time>
      </trkpt>
      <trkpt lat="38.393931" lon="-4.295545">
        <time>2021-08-24T09:57:02Z</time>
      </trkpt>
      <trkpt lat="38.393247" lon="-4.29549">
        <time>2021-08-24T09:57:05Z</time>
      </trkpt>
      <trkpt lat="38.389766" lon="-4.295963">
        <time>2021-08-24T09:57:20Z</time>
      </trkpt>
      <trkpt lat="38.389109" lon="-4.296383">
        <time>2021-08-24T09:57:23Z</time>
      </trkpt>
      <trkpt lat="38.388501" lon="-4.296935">
        <time>2021-08-24T09:57:26Z</time>
      </trkpt>
      <trkpt lat="38.385427" lon="-4.29986">
        <time>2021-08-24T09:57:41Z</time>
      </trkpt>
      <trkpt lat="38.384086" lon="-4.300602">
        <time>2021-08-24T09:57:47Z</time>
      </trkpt>
      <trkpt lat="38.382855" lon="-4.301361">
        <time>2021-08-24T09:57:53Z</time>
      </trkpt>
      <trkpt lat="38.38131" lon="-4.303215">
        <time>2021-08-24T09:58:02Z</time>
      </trkpt>
      <trkpt lat="38.379361" lon="-4.305825">
        <time>2021-08-24T09:58:14Z</time>
      </trkpt>
      <trkpt lat="38.378754" lon="-4.307224">
        <time>2021-08-24T09:58:20Z</time>
      </trkpt>
      <trkpt lat="38.378251" lon="-4.30767">
        <time>2021-08-24T09:58:23Z</time>
      </trkpt>
      <trkpt lat="38.378251" lon="-4.30767">
        <time>2021-08-24T09:58:23Z</time>
      </trkpt>
      <trkpt lat="38.375891" lon="-4.30891">
        <time>2021-08-24T09:58:35Z</time>
      </trkpt>
      <trkpt lat="38.374454" lon="-4.310885">
        <time>2021-08-24T09:58:44Z</time>
      </trkpt>
      <trkpt lat="38.373681" lon="-4.312179">
        <time>2021-08-24T09:58:50Z</time>
      </trkpt>
      <trkpt lat="38.373113" lon="-4.313468">
        <time>2021-08-24T09:58:56Z</time>
      </trkpt>
      <trkpt lat="38.372626" lon="-4.313853">
        <time>2021-08-24T09:58:59Z</time>
      </trkpt>
      <trkpt lat="38.371544" lon="-4.314429">
        <time>2021-08-24T09:59:05Z</time>
      </trkpt>
      <trkpt lat="38.371071" lon="-4.314948">
        <time>2021-08-24T09:59:08Z</time>
      </trkpt>
      <trkpt lat="38.370543" lon="-4.315357">
        <time>2021-08-24T09:59:11Z</time>
      </trkpt>
      <trkpt lat="38.369926" lon="-4.315512">
        <time>2021-08-24T09:59:14Z</time>
      </trkpt>
      <trkpt lat="38.368637" lon="-4.315697">
        <time>2021-08-24T09:59:20Z</time>
      </trkpt>
      <trkpt lat="38.366827" lon="-4.316896">
        <time>2021-08-24T09:59:29Z</time>
      </trkpt>
      <trkpt lat="38.365651" lon="-4.317772">
        <time>2021-08-24T09:59:35Z</time>
      </trkpt>
      <trkpt lat="38.3652" lon="-4.318424">
        <time>2021-08-24T09:59:38Z</time>
      </trkpt>
      <trkpt lat="38.364209" lon="-4.320705">
        <time>2021-08-24T09:59:47Z</time>
      </trkpt>
      <trkpt lat="38.363715" lon="-4.321213">
        <time>2021-08-24T09:59:50Z</time>
      </trkpt>
      <trkpt lat="38.363715" lon="-4.321213">
        <time>2021-08-24T09:59:50Z</time>
      </trkpt>
      <trkpt lat="38.363116" lon="-4.321523">
        <time>2021-08-24T09:59:53Z</time>
      </trkpt>
      <trkpt lat="38.36248" lon="-4.321611">
        <time>2021-08-24T09:59:56Z</time>
      </trkpt>
      <trkpt lat="38.361902" lon="-4.321491">
        <time>2021-08-24T09:59:59Z</time>
      </trkpt>
      <trkpt lat="38.36135" lon="-4.321167">
        <time>2021-08-24T10:00:02Z</time>
      </trkpt>
      <trkpt lat="38.359595" lon="-4.319954">
        <time>2021-08-24T10:00:11Z</time>
      </trkpt>
      <trkpt lat="38.359595" lon="-4.319954">
        <time>2021-08-24T10:00:11Z</time>
      </trkpt>
      <trkpt lat="38.357653" lon="-4.319267">
        <time>2021-08-24T10:00:20Z</time>
      </trkpt>
      <trkpt lat="38.356689" lon="-4.318277">
        <time>2021-08-24T10:00:26Z</time>
      </trkpt>
      <trkpt lat="38.356563" lon="-4.317607">
        <time>2021-08-24T10:00:29Z</time>
      </trkpt>
      <trkpt lat="38.356479" lon="-4.31609">
        <time>2021-08-24T10:00:35Z</time>
      </trkpt>
      <trkpt lat="38.356479" lon="-4.31609">
        <time>2021-08-24T10:00:35Z</time>
      </trkpt>
      <trkpt lat="38.356138" lon="-4.315502">
        <time>2021-08-24T10:00:38Z</time>
      </trkpt>
      <trkpt lat="38.355592" lon="-4.315201">
        <time>2021-08-24T10:00:41Z</time>
      </trkpt>
      <trkpt lat="38.354397" lon="-4.314727">
        <time>2021-08-24T10:00:47Z</time>
      </trkpt>
      <trkpt lat="38.352756" lon="-4.313153">
        <time>2021-08-24T10:00:56Z</time>
      </trkpt>
      <trkpt lat="38.352756" lon="-4.313153">
        <time>2021-08-24T10:00:56Z</time>
      </trkpt>
      <trkpt lat="38.351337" lon="-4.311032">
        <time>2021-08-24T10:01:05Z</time>
      </trkpt>
      <trkpt lat="38.350716" lon="-4.310641">
        <time>2021-08-24T10:01:08Z</time>
      </trkpt>
      <trkpt lat="38.350051" lon="-4.310491">
        <time>2021-08-24T10:01:11Z</time>
      </trkpt>
      <trkpt lat="38.349396" lon="-4.310607">
        <time>2021-08-24T10:01:14Z</time>
      </trkpt>
      <trkpt lat="38.348795" lon="-4.310956">
        <time>2021-08-24T10:01:17Z</time>
      </trkpt>
      <trkpt lat="38.348795" lon="-4.310956">
        <time>2021-08-24T10:01:17Z</time>
      </trkpt>
      <trkpt lat="38.344906" lon="-4.314866">
        <time>2021-08-24T10:01:38Z</time>
      </trkpt>
      <trkpt lat="38.340866" lon="-4.318068">
        <time>2021-08-24T10:01:59Z</time>
      </trkpt>
      <trkpt lat="38.33677" lon="-4.321014">
        <time>2021-08-24T10:02:20Z</time>
      </trkpt>
      <trkpt lat="38.332763" lon="-4.323896">
        <time>2021-08-24T10:02:41Z</time>
      </trkpt>
      <trkpt lat="38.330981" lon="-4.325064">
        <time>2021-08-24T10:02:50Z</time>
      </trkpt>
      <trkpt lat="38.32969" lon="-4.325346">
        <time>2021-08-24T10:02:56Z</time>
      </trkpt>
      <trkpt lat="38.328392" lon="-4.325451">
        <time>2021-08-24T10:03:02Z</time>
      </trkpt>
      <trkpt lat="38.323641" lon="-4.325421">
        <time>2021-08-24T10:03:23Z</time>
      </trkpt>
      <trkpt lat="38.323641" lon="-4.325421">
        <time>2021-08-24T10:03:23Z</time>
      </trkpt>
      <trkpt lat="38.322307" lon="-4.324718">
        <time>2021-08-24T10:03:29Z</time>
      </trkpt>
      <trkpt lat="38.319098" lon="-4.322101">
        <time>2021-08-24T10:03:44Z</time>
      </trkpt>
      <trkpt lat="38.315663" lon="-4.32011">
        <time>2021-08-24T10:03:59Z</time>
      </trkpt>
      <trkpt lat="38.314929" lon="-4.320157">
        <time>2021-08-24T10:04:02Z</time>
      </trkpt>
      <trkpt lat="38.314929" lon="-4.320157">
        <time>2021-08-24T10:04:02Z</time>
      </trkpt>
      <trkpt lat="38.314239" lon="-4.320517">
        <time>2021-08-24T10:04:05Z</time>
      </trkpt>
      <trkpt lat="38.313648" lon="-4.321122">
        <time>2021-08-24T10:04:08Z</time>
      </trkpt>
      <trkpt lat="38.31151" lon="-4.324054">
        <time>2021-08-24T10:04:20Z</time>
      </trkpt>
      <trkpt lat="38.310947" lon="-4.324642">
        <time>2021-08-24T10:04:23Z</time>
      </trkpt>
      <trkpt lat="38.310296" lon="-4.324978">
        <time>2021-08-24T10:04:26Z</time>
      </trkpt>
      <trkpt lat="38.309595" lon="-4.325063">
        <time>2021-08-24T10:04:29Z</time>
      </trkpt>
      <trkpt lat="38.308901" lon="-4.324869">
        <time>2021-08-24T10:04:32Z</time>
      </trkpt>
      <trkpt lat="38.306851" lon="-4.323634">
        <time>2021-08-24T10:04:41Z</time>
      </trkpt>
      <trkpt lat="38.302409" lon="-4.320898">
        <time>2021-08-24T10:04:59Z</time>
      </trkpt>
      <trkpt lat="38.300917" lon="-4.320545">
        <time>2021-08-24T10:05:05Z</time>
      </trkpt>
      <trkpt lat="38.297943" lon="-4.321288">
        <time>2021-08-24T10:05:17Z</time>
      </trkpt>
      <trkpt lat="38.29327" lon="-4.322488">
        <time>2021-08-24T10:05:35Z</time>
      </trkpt>
      <trkpt lat="38.288053" lon="-4.32345">
        <time>2021-08-24T10:05:53Z</time>
      </trkpt>
      <trkpt lat="38.287214" lon="-4.323363">
        <time>2021-08-24T10:05:56Z</time>
      </trkpt>
      <trkpt lat="38.283125" lon="-4.322225">
        <time>2021-08-24T10:06:11Z</time>
      </trkpt>
      <trkpt lat="38.278735" lon="-4.320874">
        <time>2021-08-24T10:06:29Z</time>
      </trkpt>
      <trkpt lat="38.273708" lon="-4.319357">
        <time>2021-08-24T10:06:50Z</time>
      </trkpt>
      <trkpt lat="38.268611" lon="-4.318219">
        <time>2021-08-24T10:07:11Z</time>
      </trkpt>
      <trkpt lat="38.268611" lon="-4.318219">
        <time>2021-08-24T10:07:11Z</time>
      </trkpt>
      <trkpt lat="38.267283" lon="-4.318717">
        <time>2021-08-24T10:07:17Z</time>
      </trkpt>
      <trkpt lat="38.266178" lon="-4.319666">
        <time>2021-08-24T10:07:23Z</time>
      </trkpt>
      <trkpt lat="38.26473" lon="-4.321495">
        <time>2021-08-24T10:07:32Z</time>
      </trkpt>
      <trkpt lat="38.264135" lon="-4.321996">
        <time>2021-08-24T10:07:35Z</time>
      </trkpt>
      <trkpt lat="38.262779" lon="-4.322622">
        <time>2021-08-24T10:07:41Z</time>
      </trkpt>
      <trkpt lat="38.261345" lon="-4.322685">
        <time>2021-08-24T10:07:47Z</time>
      </trkpt>
      <trkpt lat="38.259922" lon="-4.322196">
        <time>2021-08-24T10:07:53Z</time>
      </trkpt>
      <trkpt lat="38.257653" lon="-4.321809">
        <time>2021-08-24T10:08:02Z</time>
      </trkpt>
      <trkpt lat="38.256145" lon="-4.322372">
        <time>2021-08-24T10:08:08Z</time>
      </trkpt>
      <trkpt lat="38.255473" lon="-4.322898">
        <time>2021-08-24T10:08:11Z</time>
      </trkpt>
      <trkpt lat="38.254877" lon="-4.323532">
        <time>2021-08-24T10:08:14Z</time>
      </trkpt>
      <trkpt lat="38.251791" lon="-4.326488">
        <time>2021-08-24T10:08:29Z</time>
      </trkpt>
      <trkpt lat="38.251093" lon="-4.326873">
        <time>2021-08-24T10:08:32Z</time>
      </trkpt>
      <trkpt lat="38.248894" lon="-4.327537">
        <time>2021-08-24T10:08:41Z</time>
      </trkpt>
      <trkpt lat="38.247407" lon="-4.327548">
        <time>2021-08-24T10:08:47Z</time>
      </trkpt>
      <trkpt lat="38.242619" lon="-4.32685">
        <time>2021-08-24T10:09:05Z</time>
      </trkpt>
      <trkpt lat="38.237637" lon="-4.326148">
        <time>2021-08-24T10:09:23Z</time>
      </trkpt>
      <trkpt lat="38.232598" lon="-4.326405">
        <time>2021-08-24T10:09:41Z</time>
      </trkpt>
      <trkpt lat="38.230995" lon="-4.326195">
        <time>2021-08-24T10:09:47Z</time>
      </trkpt>
      <trkpt lat="38.228068" lon="-4.32527">
        <time>2021-08-24T10:09:59Z</time>
      </trkpt>
      <trkpt lat="38.223628" lon="-4.323902">
        <time>2021-08-24T10:10:17Z</time>
      </trkpt>
      <trkpt lat="38.21892" lon="-4.322686">
        <time>2021-08-24T10:10:35Z</time>
      </trkpt>
      <trkpt lat="38.214329" lon="-4.321662">
        <time>2021-08-24T10:10:53Z</time>
      </trkpt>
      <trkpt lat="38.213569" lon="-4.321734">
        <time>2021-08-24T10:10:56Z</time>
      </trkpt>
      <trkpt lat="38.210851" lon="-4.322307">
        <time>2021-08-24T10:11:08Z</time>
      </trkpt>
      <trkpt lat="38.209421" lon="-4.321983">
        <time>2021-08-24T10:11:14Z</time>
      </trkpt>
      <trkpt lat="38.204507" lon="-4.320583">
        <time>2021-08-24T10:11:32Z</time>
      </trkpt>
      <trkpt lat="38.202063" lon="-4.319677">
        <time>2021-08-24T10:11:41Z</time>
      </trkpt>
      <trkpt lat="38.199692" lon="-4.318621">
        <time>2021-08-24T10:11:50Z</time>
      </trkpt>
      <trkpt lat="38.195265" lon="-4.316329">
        <time>2021-08-24T10:12:08Z</time>
      </trkpt>
      <trkpt lat="38.19084" lon="-4.314006">
        <time>2021-08-24T10:12:26Z</time>
      </trkpt>
      <trkpt lat="38.189254" lon="-4.313626">
        <time>2021-08-24T10:12:32Z</time>
      </trkpt>
      <trkpt lat="38.187673" lon="-4.313965">
        <time>2021-08-24T10:12:38Z</time>
      </trkpt>
      <trkpt lat="38.186279" lon="-4.314988">
        <time>2021-08-24T10:12:44Z</time>
      </trkpt>
      <trkpt lat="38.186279" lon="-4.314988">
        <time>2021-08-24T10:12:44Z</time>
      </trkpt>
      <trkpt lat="38.18444" lon="-4.317009">
        <time>2021-08-24T10:12:53Z</time>
      </trkpt>
      <trkpt lat="38.182908" lon="-4.317703">
        <time>2021-08-24T10:12:59Z</time>
      </trkpt>
      <trkpt lat="38.182094" lon="-4.317788">
        <time>2021-08-24T10:13:02Z</time>
      </trkpt>
      <trkpt lat="38.181287" lon="-4.317727">
        <time>2021-08-24T10:13:05Z</time>
      </trkpt>
      <trkpt lat="38.179682" lon="-4.317735">
        <time>2021-08-24T10:13:11Z</time>
      </trkpt>
      <trkpt lat="38.178242" lon="-4.318385">
        <time>2021-08-24T10:13:17Z</time>
      </trkpt>
      <trkpt lat="38.177651" lon="-4.318875">
        <time>2021-08-24T10:13:20Z</time>
      </trkpt>
      <trkpt lat="38.17371" lon="-4.323154">
        <time>2021-08-24T10:13:44Z</time>
      </trkpt>
      <trkpt lat="38.169552" lon="-4.326817">
        <time>2021-08-24T10:14:02Z</time>
      </trkpt>
      <trkpt lat="38.169552" lon="-4.326817">
        <time>2021-08-24T10:14:02Z</time>
      </trkpt>
      <trkpt lat="38.165569" lon="-4.32821">
        <time>2021-08-24T10:14:17Z</time>
      </trkpt>
      <trkpt lat="38.164727" lon="-4.328306">
        <time>2021-08-24T10:14:20Z</time>
      </trkpt>
      <trkpt lat="38.160681" lon="-4.328692">
        <time>2021-08-24T10:14:35Z</time>
      </trkpt>
      <trkpt lat="38.159925" lon="-4.329009">
        <time>2021-08-24T10:14:38Z</time>
      </trkpt>
      <trkpt lat="38.157143" lon="-4.329997">
        <time>2021-08-24T10:14:50Z</time>
      </trkpt>
      <trkpt lat="38.154965" lon="-4.329712">
        <time>2021-08-24T10:14:59Z</time>
      </trkpt>
      <trkpt lat="38.154241" lon="-4.329871">
        <time>2021-08-24T10:15:02Z</time>
      </trkpt>
      <trkpt lat="38.152935" lon="-4.330757">
        <time>2021-08-24T10:15:08Z</time>
      </trkpt>
      <trkpt lat="38.152069" lon="-4.33225">
        <time>2021-08-24T10:15:14Z</time>
      </trkpt>
      <trkpt lat="38.151128" lon="-4.333705">
        <time>2021-08-24T10:15:20Z</time>
      </trkpt>
      <trkpt lat="38.151128" lon="-4.333705">
        <time>2021-08-24T10:15:20Z</time>
      </trkpt>
      <trkpt lat="38.149726" lon="-4.334546">
        <time>2021-08-24T10:15:26Z</time>
      </trkpt>
      <trkpt lat="38.148391" lon="-4.335467">
        <time>2021-08-24T10:15:32Z</time>
      </trkpt>
      <trkpt lat="38.147898" lon="-4.336205">
        <time>2021-08-24T10:15:35Z</time>
      </trkpt>
      <trkpt lat="38.147552" lon="-4.337061">
        <time>2021-08-24T10:15:38Z</time>
      </trkpt>
      <trkpt lat="38.147373" lon="-4.338012">
        <time>2021-08-24T10:15:41Z</time>
      </trkpt>
      <trkpt lat="38.14722" lon="-4.340995">
        <time>2021-08-24T10:15:50Z</time>
      </trkpt>
      <trkpt lat="38.146358" lon="-4.342726">
        <time>2021-08-24T10:15:56Z</time>
      </trkpt>
      <trkpt lat="38.146358" lon="-4.342726">
        <time>2021-08-24T10:15:56Z</time>
      </trkpt>
      <trkpt lat="38.145692" lon="-4.343321">
        <time>2021-08-24T10:15:59Z</time>
      </trkpt>
      <trkpt lat="38.144121" lon="-4.343777">
        <time>2021-08-24T10:16:05Z</time>
      </trkpt>
      <trkpt lat="38.141645" lon="-4.343721">
        <time>2021-08-24T10:16:14Z</time>
      </trkpt>
      <trkpt lat="38.136594" lon="-4.343586">
        <time>2021-08-24T10:16:32Z</time>
      </trkpt>
      <trkpt lat="38.134976" lon="-4.34341">
        <time>2021-08-24T10:16:38Z</time>
      </trkpt>
      <trkpt lat="38.133529" lon="-4.342593">
        <time>2021-08-24T10:16:44Z</time>
      </trkpt>
      <trkpt lat="38.13223" lon="-4.341476">
        <time>2021-08-24T10:16:50Z</time>
      </trkpt>
      <trkpt lat="38.131498" lon="-4.341062">
        <time>2021-08-24T10:16:53Z</time>
      </trkpt>
      <trkpt lat="38.129894" lon="-4.340759">
        <time>2021-08-24T10:16:59Z</time>
      </trkpt>
      <trkpt lat="38.128349" lon="-4.34117">
        <time>2021-08-24T10:17:05Z</time>
      </trkpt>
      <trkpt lat="38.127676" lon="-4.341606">
        <time>2021-08-24T10:17:08Z</time>
      </trkpt>
      <trkpt lat="38.127079" lon="-4.342172">
        <time>2021-08-24T10:17:11Z</time>
      </trkpt>
      <trkpt lat="38.12612" lon="-4.343653">
        <time>2021-08-24T10:17:17Z</time>
      </trkpt>
      <trkpt lat="38.124803" lon="-4.346122">
        <time>2021-08-24T10:17:26Z</time>
      </trkpt>
      <trkpt lat="38.124803" lon="-4.346122">
        <time>2021-08-24T10:17:26Z</time>
      </trkpt>
      <trkpt lat="38.12343" lon="-4.347044">
        <time>2021-08-24T10:17:32Z</time>
      </trkpt>
      <trkpt lat="38.12192" lon="-4.347184">
        <time>2021-08-24T10:17:38Z</time>
      </trkpt>
      <trkpt lat="38.120512" lon="-4.346555">
        <time>2021-08-24T10:17:44Z</time>
      </trkpt>
      <trkpt lat="38.120512" lon="-4.346555">
        <time>2021-08-24T10:17:44Z</time>
      </trkpt>
      <trkpt lat="38.116975" lon="-4.344678">
        <time>2021-08-24T10:17:59Z</time>
      </trkpt>
      <trkpt lat="38.116197" lon="-4.344726">
        <time>2021-08-24T10:18:02Z</time>
      </trkpt>
      <trkpt lat="38.115447" lon="-4.34497">
        <time>2021-08-24T10:18:05Z</time>
      </trkpt>
      <trkpt lat="38.11423" lon="-4.345974">
        <time>2021-08-24T10:18:11Z</time>
      </trkpt>
      <trkpt lat="38.112527" lon="-4.348985">
        <time>2021-08-24T10:18:23Z</time>
      </trkpt>
      <trkpt lat="38.110933" lon="-4.35107">
        <time>2021-08-24T10:18:32Z</time>
      </trkpt>
      <trkpt lat="38.109047" lon="-4.353069">
        <time>2021-08-24T10:18:41Z</time>
      </trkpt>
      <trkpt lat="38.105133" lon="-4.357178">
        <time>2021-08-24T10:18:59Z</time>
      </trkpt>
      <trkpt lat="38.103772" lon="-4.358214">
        <time>2021-08-24T10:19:05Z</time>
      </trkpt>
      <trkpt lat="38.10231" lon="-4.358722">
        <time>2021-08-24T10:19:11Z</time>
      </trkpt>
      <trkpt lat="38.100782" lon="-4.358818">
        <time>2021-08-24T10:19:17Z</time>
      </trkpt>
      <trkpt lat="38.099295" lon="-4.359346">
        <time>2021-08-24T10:19:23Z</time>
      </trkpt>
      <trkpt lat="38.098081" lon="-4.360579">
        <time>2021-08-24T10:19:29Z</time>
      </trkpt>
      <trkpt lat="38.096969" lon="-4.361969">
        <time>2021-08-24T10:19:35Z</time>
      </trkpt>
      <trkpt lat="38.094721" lon="-4.364516">
        <time>2021-08-24T10:19:47Z</time>
      </trkpt>
      <trkpt lat="38.09338" lon="-4.365068">
        <time>2021-08-24T10:19:53Z</time>
      </trkpt>
      <trkpt lat="38.09269" lon="-4.365082">
        <time>2021-08-24T10:19:56Z</time>
      </trkpt>
      <trkpt lat="38.091999" lon="-4.364985">
        <time>2021-08-24T10:19:59Z</time>
      </trkpt>
      <trkpt lat="38.087705" lon="-4.364157">
        <time>2021-08-24T10:20:17Z</time>
      </trkpt>
      <trkpt lat="38.085534" lon="-4.364111">
        <time>2021-08-24T10:20:26Z</time>
      </trkpt>
      <trkpt lat="38.0834" lon="-4.365022">
        <time>2021-08-24T10:20:35Z</time>
      </trkpt>
      <trkpt lat="38.082742" lon="-4.365534">
        <time>2021-08-24T10:20:38Z</time>
      </trkpt>
      <trkpt lat="38.078618" lon="-4.368903">
        <time>2021-08-24T10:20:59Z</time>
      </trkpt>
      <trkpt lat="38.078618" lon="-4.368903">
        <time>2021-08-24T10:20:59Z</time>
      </trkpt>
      <trkpt lat="38.07794" lon="-4.37036">
        <time>2021-08-24T10:21:05Z</time>
      </trkpt>
      <trkpt lat="38.076612" lon="-4.37403">
        <time>2021-08-24T10:21:20Z</time>
      </trkpt>
      <trkpt lat="38.076612" lon="-4.37403">
        <time>2021-08-24T10:21:20Z</time>
      </trkpt>
      <trkpt lat="38.075186" lon="-4.37576">
        <time>2021-08-24T10:21:29Z</time>
      </trkpt>
      <trkpt lat="38.073364" lon="-4.376852">
        <time>2021-08-24T10:21:38Z</time>
      </trkpt>
      <trkpt lat="38.072702" lon="-4.377053">
        <time>2021-08-24T10:21:41Z</time>
      </trkpt>
      <trkpt lat="38.071298" lon="-4.377182">
        <time>2021-08-24T10:21:47Z</time>
      </trkpt>
      <trkpt lat="38.067647" lon="-4.37669">
        <time>2021-08-24T10:22:02Z</time>
      </trkpt>
      <trkpt lat="38.064844" lon="-4.376949">
        <time>2021-08-24T10:22:14Z</time>
      </trkpt>
      <trkpt lat="38.062779" lon="-4.377658">
        <time>2021-08-24T10:22:23Z</time>
      </trkpt>
      <trkpt lat="38.058477" lon="-4.378692">
        <time>2021-08-24T10:22:41Z</time>
      </trkpt>
      <trkpt lat="38.057805" lon="-4.378631">
        <time>2021-08-24T10:22:44Z</time>
      </trkpt>
      <trkpt lat="38.056525" lon="-4.37822">
        <time>2021-08-24T10:22:50Z</time>
      </trkpt>
      <trkpt lat="38.053074" lon="-4.376809">
        <time>2021-08-24T10:23:05Z</time>
      </trkpt>
      <trkpt lat="38.048732" lon="-4.375047">
        <time>2021-08-24T10:23:23Z</time>
      </trkpt>
      <trkpt lat="38.04433" lon="-4.373226">
        <time>2021-08-24T10:23:41Z</time>
      </trkpt>
      <trkpt lat="38.039702" lon="-4.371732">
        <time>2021-08-24T10:23:59Z</time>
      </trkpt>
      <trkpt lat="38.034676" lon="-4.370301">
        <time>2021-08-24T10:24:20Z</time>
      </trkpt>
      <trkpt lat="38.031478" lon="-4.369677">
        <time>2021-08-24T10:24:32Z</time>
      </trkpt>
      <trkpt lat="38.029936" lon="-4.370133">
        <time>2021-08-24T10:24:38Z</time>
      </trkpt>
      <trkpt lat="38.026205" lon="-4.371104">
        <time>2021-08-24T10:24:53Z</time>
      </trkpt>
      <trkpt lat="38.025499" lon="-4.370935">
        <time>2021-08-24T10:24:56Z</time>
      </trkpt>
      <trkpt lat="38.024834" lon="-4.370626">
        <time>2021-08-24T10:24:59Z</time>
      </trkpt>
      <trkpt lat="38.020919" lon="-4.368206">
        <time>2021-08-24T10:25:17Z</time>
      </trkpt>
      <trkpt lat="38.020237" lon="-4.36804">
        <time>2021-08-24T10:25:20Z</time>
      </trkpt>
      <trkpt lat="38.018839" lon="-4.368106">
        <time>2021-08-24T10:25:26Z</time>
      </trkpt>
      <trkpt lat="38.01609" lon="-4.369216">
        <time>2021-08-24T10:25:38Z</time>
      </trkpt>
      <trkpt lat="38.01351" lon="-4.370541">
        <time>2021-08-24T10:25:50Z</time>
      </trkpt>
      <trkpt lat="38.012529" lon="-4.371419">
        <time>2021-08-24T10:25:56Z</time>
      </trkpt>
      <trkpt lat="38.012164" lon="-4.371969">
        <time>2021-08-24T10:25:59Z</time>
      </trkpt>
      <trkpt lat="38.010698" lon="-4.374555">
        <time>2021-08-24T10:26:14Z</time>
      </trkpt>
      <trkpt lat="38.010251" lon="-4.377154">
        <time>2021-08-24T10:26:26Z</time>
      </trkpt>
      <trkpt lat="38.010195" lon="-4.37783">
        <time>2021-08-24T10:26:29Z</time>
      </trkpt>
      <trkpt lat="38.010008" lon="-4.379518">
        <time>2021-08-24T10:26:38Z</time>
      </trkpt>
      <trkpt lat="38.009959" lon="-4.37987">
        <time>2021-08-24T10:26:41Z</time>
      </trkpt>
      <trkpt lat="38.00991" lon="-4.380071">
        <time>2021-08-24T10:26:44Z</time>
      </trkpt>
      <trkpt lat="38.009739" lon="-4.380048">
        <time>2021-08-24T10:26:47Z</time>
      </trkpt>
      <trkpt lat="38.00941" lon="-4.380055">
        <time>2021-08-24T10:26:50Z</time>
      </trkpt>
      <trkpt lat="38.007509" lon="-4.380132">
        <time>2021-08-24T10:27:02Z</time>
      </trkpt>
      <trkpt lat="38.007509" lon="-4.380132">
        <time>2021-08-24T10:27:02Z</time>
      </trkpt>
      <trkpt lat="38.002989" lon="-4.380084">
        <time>2021-08-24T10:27:29Z</time>
      </trkpt>
      <trkpt lat="38.001794" lon="-4.380233">
        <time>2021-08-24T10:27:35Z</time>
      </trkpt>
      <trkpt lat="37.998452" lon="-4.38191">
        <time>2021-08-24T10:27:53Z</time>
      </trkpt>
      <trkpt lat="37.997896" lon="-4.381913">
        <time>2021-08-24T10:27:56Z</time>
      </trkpt>
      <trkpt lat="37.994478" lon="-4.381565">
        <time>2021-08-24T10:29:35Z</time>
      </trkpt>
      <trkpt lat="37.99397" lon="-4.381763">
        <time>2021-08-24T10:29:38Z</time>
      </trkpt>
      <trkpt lat="37.991697" lon="-4.382466">
        <time>2021-08-24T10:29:50Z</time>
      </trkpt>
      <trkpt lat="37.98906" lon="-4.382287">
        <time>2021-08-24T10:30:02Z</time>
      </trkpt>
      <trkpt lat="37.985683" lon="-4.381646">
        <time>2021-08-24T10:30:17Z</time>
      </trkpt>
      <trkpt lat="37.985084" lon="-4.381236">
        <time>2021-08-24T10:30:20Z</time>
      </trkpt>
      <trkpt lat="37.984549" lon="-4.38065">
        <time>2021-08-24T10:30:23Z</time>
      </trkpt>
      <trkpt lat="37.982265" lon="-4.378407">
        <time>2021-08-24T10:30:35Z</time>
      </trkpt>
      <trkpt lat="37.981576" lon="-4.378339">
        <time>2021-08-24T10:30:38Z</time>
      </trkpt>
      <trkpt lat="37.980273" lon="-4.378274">
        <time>2021-08-24T10:30:44Z</time>
      </trkpt>
      <trkpt lat="37.980273" lon="-4.378274">
        <time>2021-08-24T10:30:44Z</time>
      </trkpt>
      <trkpt lat="37.979694" lon="-4.377859">
        <time>2021-08-24T10:30:47Z</time>
      </trkpt>
      <trkpt lat="37.977663" lon="-4.375639">
        <time>2021-08-24T10:30:59Z</time>
      </trkpt>
      <trkpt lat="37.976336" lon="-4.37528">
        <time>2021-08-24T10:31:05Z</time>
      </trkpt>
      <trkpt lat="37.973563" lon="-4.374772">
        <time>2021-08-24T10:31:17Z</time>
      </trkpt>
      <trkpt lat="37.971642" lon="-4.374836">
        <time>2021-08-24T10:31:26Z</time>
      </trkpt>
      <trkpt lat="37.971642" lon="-4.374836">
        <time>2021-08-24T10:31:26Z</time>
      </trkpt>
      <trkpt lat="37.971119" lon="-4.374422">
        <time>2021-08-24T10:31:29Z</time>
      </trkpt>
      <trkpt lat="37.97038" lon="-4.373162">
        <time>2021-08-24T10:31:35Z</time>
      </trkpt>
      <trkpt lat="37.969255" lon="-4.371309">
        <time>2021-08-24T10:31:44Z</time>
      </trkpt>
      <trkpt lat="37.968068" lon="-4.370623">
        <time>2021-08-24T10:31:50Z</time>
      </trkpt>
      <trkpt lat="37.964051" lon="-4.368623">
        <time>2021-08-24T10:32:08Z</time>
      </trkpt>
      <trkpt lat="37.96336" lon="-4.368458">
        <time>2021-08-24T10:32:11Z</time>
      </trkpt>
      <trkpt lat="37.96336" lon="-4.368458">
        <time>2021-08-24T10:32:11Z</time>
      </trkpt>
      <trkpt lat="37.960517" lon="-4.368602">
        <time>2021-08-24T10:32:23Z</time>
      </trkpt>
      <trkpt lat="37.958295" lon="-4.368421">
        <time>2021-08-24T10:32:32Z</time>
      </trkpt>
      <trkpt lat="37.95377" lon="-4.368401">
        <time>2021-08-24T10:32:50Z</time>
      </trkpt>
      <trkpt lat="37.950641" lon="-4.368648">
        <time>2021-08-24T10:33:02Z</time>
      </trkpt>
      <trkpt lat="37.94926" lon="-4.368872">
        <time>2021-08-24T10:33:08Z</time>
      </trkpt>
      <trkpt lat="37.94926" lon="-4.368872">
        <time>2021-08-24T10:33:08Z</time>
      </trkpt>
      <trkpt lat="37.948587" lon="-4.368671">
        <time>2021-08-24T10:33:11Z</time>
      </trkpt>
      <trkpt lat="37.947276" lon="-4.368261">
        <time>2021-08-24T10:33:17Z</time>
      </trkpt>
      <trkpt lat="37.946565" lon="-4.368404">
        <time>2021-08-24T10:33:20Z</time>
      </trkpt>
      <trkpt lat="37.945908" lon="-4.368863">
        <time>2021-08-24T10:33:23Z</time>
      </trkpt>
      <trkpt lat="37.945408" lon="-4.369579">
        <time>2021-08-24T10:33:26Z</time>
      </trkpt>
      <trkpt lat="37.945041" lon="-4.370436">
        <time>2021-08-24T10:33:29Z</time>
      </trkpt>
      <trkpt lat="37.943107" lon="-4.374564">
        <time>2021-08-24T10:33:44Z</time>
      </trkpt>
      <trkpt lat="37.94256" lon="-4.375227">
        <time>2021-08-24T10:33:47Z</time>
      </trkpt>
      <trkpt lat="37.94089" lon="-4.376629">
        <time>2021-08-24T10:33:56Z</time>
      </trkpt>
      <trkpt lat="37.940251" lon="-4.376597">
        <time>2021-08-24T10:33:59Z</time>
      </trkpt>
      <trkpt lat="37.938227" lon="-4.375613">
        <time>2021-08-24T10:34:08Z</time>
      </trkpt>
      <trkpt lat="37.937546" lon="-4.375184">
        <time>2021-08-24T10:34:11Z</time>
      </trkpt>
      <trkpt lat="37.936209" lon="-4.374591">
        <time>2021-08-24T10:34:17Z</time>
      </trkpt>
      <trkpt lat="37.933387" lon="-4.374731">
        <time>2021-08-24T10:34:29Z</time>
      </trkpt>
      <trkpt lat="37.931932" lon="-4.374873">
        <time>2021-08-24T10:34:35Z</time>
      </trkpt>
      <trkpt lat="37.93124" lon="-4.375189">
        <time>2021-08-24T10:34:38Z</time>
      </trkpt>
      <trkpt lat="37.928576" lon="-4.376946">
        <time>2021-08-24T10:34:50Z</time>
      </trkpt>
      <trkpt lat="37.925767" lon="-4.37842">
        <time>2021-08-24T10:35:02Z</time>
      </trkpt>
      <trkpt lat="37.924293" lon="-4.378518">
        <time>2021-08-24T10:35:08Z</time>
      </trkpt>
      <trkpt lat="37.922158" lon="-4.378941">
        <time>2021-08-24T10:35:17Z</time>
      </trkpt>
      <trkpt lat="37.920809" lon="-4.379388">
        <time>2021-08-24T10:35:23Z</time>
      </trkpt>
      <trkpt lat="37.919412" lon="-4.379065">
        <time>2021-08-24T10:35:29Z</time>
      </trkpt>
      <trkpt lat="37.919412" lon="-4.379065">
        <time>2021-08-24T10:35:29Z</time>
      </trkpt>
      <trkpt lat="37.916612" lon="-4.378169">
        <time>2021-08-24T10:35:41Z</time>
      </trkpt>
      <trkpt lat="37.914396" lon="-4.378179">
        <time>2021-08-24T10:35:50Z</time>
      </trkpt>
      <trkpt lat="37.90925" lon="-4.378707">
        <time>2021-08-24T10:36:11Z</time>
      </trkpt>
      <trkpt lat="37.907762" lon="-4.378932">
        <time>2021-08-24T10:36:17Z</time>
      </trkpt>
      <trkpt lat="37.905837" lon="-4.380316">
        <time>2021-08-24T10:36:26Z</time>
      </trkpt>
      <trkpt lat="37.905443" lon="-4.38105">
        <time>2021-08-24T10:36:29Z</time>
      </trkpt>
      <trkpt lat="37.905182" lon="-4.381835">
        <time>2021-08-24T10:36:32Z</time>
      </trkpt>
      <trkpt lat="37.904679" lon="-4.383549">
        <time>2021-08-24T10:36:41Z</time>
      </trkpt>
      <trkpt lat="37.904574" lon="-4.383958">
        <time>2021-08-24T10:36:44Z</time>
      </trkpt>
      <trkpt lat="37.904342" lon="-4.384195">
        <time>2021-08-24T10:36:47Z</time>
      </trkpt>
      <trkpt lat="37.904045" lon="-4.38423">
        <time>2021-08-24T10:36:50Z</time>
      </trkpt>
      <trkpt lat="37.903777" lon="-4.384195">
        <time>2021-08-24T10:36:53Z</time>
      </trkpt>
      <trkpt lat="37.9036" lon="-4.383932">
        <time>2021-08-24T10:36:56Z</time>
      </trkpt>
      <trkpt lat="37.903611" lon="-4.383506">
        <time>2021-08-24T10:36:59Z</time>
      </trkpt>
      <trkpt lat="37.903585" lon="-4.382372">
        <time>2021-08-24T10:37:05Z</time>
      </trkpt>
      <trkpt lat="37.903261" lon="-4.381826">
        <time>2021-08-24T10:37:08Z</time>
      </trkpt>
      <trkpt lat="37.903261" lon="-4.381826">
        <time>2021-08-24T10:37:08Z</time>
      </trkpt>
      <trkpt lat="37.902268" lon="-4.380947">
        <time>2021-08-24T10:37:14Z</time>
      </trkpt>
      <trkpt lat="37.901397" lon="-4.379889">
        <time>2021-08-24T10:37:20Z</time>
      </trkpt>
      <trkpt lat="37.901152" lon="-4.37915">
        <time>2021-08-24T10:37:23Z</time>
      </trkpt>
      <trkpt lat="37.900683" lon="-4.376731">
        <time>2021-08-24T10:37:32Z</time>
      </trkpt>
      <trkpt lat="37.900683" lon="-4.376731">
        <time>2021-08-24T10:37:32Z</time>
      </trkpt>
      <trkpt lat="37.899784" lon="-4.375525">
        <time>2021-08-24T10:37:38Z</time>
      </trkpt>
      <trkpt lat="37.899057" lon="-4.374142">
        <time>2021-08-24T10:37:44Z</time>
      </trkpt>
      <trkpt lat="37.898287" lon="-4.372953">
        <time>2021-08-24T10:37:50Z</time>
      </trkpt>
      <trkpt lat="37.89775" lon="-4.372591">
        <time>2021-08-24T10:37:53Z</time>
      </trkpt>
      <trkpt lat="37.897137" lon="-4.372397">
        <time>2021-08-24T10:37:56Z</time>
      </trkpt>
      <trkpt lat="37.896501" lon="-4.372339">
        <time>2021-08-24T10:37:59Z</time>
      </trkpt>
      <trkpt lat="37.895233" lon="-4.371842">
        <time>2021-08-24T10:38:05Z</time>
      </trkpt>
      <trkpt lat="37.893969" lon="-4.371169">
        <time>2021-08-24T10:38:11Z</time>
      </trkpt>
      <trkpt lat="37.893283" lon="-4.37118">
        <time>2021-08-24T10:38:14Z</time>
      </trkpt>
      <trkpt lat="37.892632" lon="-4.37145">
        <time>2021-08-24T10:38:17Z</time>
      </trkpt>
      <trkpt lat="37.892632" lon="-4.37145">
        <time>2021-08-24T10:38:17Z</time>
      </trkpt>
      <trkpt lat="37.890164" lon="-4.373694">
        <time>2021-08-24T10:38:32Z</time>
      </trkpt>
      <trkpt lat="37.888775" lon="-4.375095">
        <time>2021-08-24T10:38:41Z</time>
      </trkpt>
      <trkpt lat="37.885004" lon="-4.378611">
        <time>2021-08-24T10:39:08Z</time>
      </trkpt>
      <trkpt lat="37.881716" lon="-4.38127">
        <time>2021-08-24T10:39:26Z</time>
      </trkpt>
      <trkpt lat="37.88135" lon="-4.381969">
        <time>2021-08-24T10:39:29Z</time>
      </trkpt>
      <trkpt lat="37.879375" lon="-4.385291">
        <time>2021-08-24T10:39:44Z</time>
      </trkpt>
      <trkpt lat="37.878486" lon="-4.386423">
        <time>2021-08-24T10:39:50Z</time>
      </trkpt>
      <trkpt lat="37.878486" lon="-4.386423">
        <time>2021-08-24T10:39:50Z</time>
      </trkpt>
      <trkpt lat="37.875875" lon="-4.391468">
        <time>2021-08-24T10:40:11Z</time>
      </trkpt>
      <trkpt lat="37.874649" lon="-4.393451">
        <time>2021-08-24T10:40:20Z</time>
      </trkpt>
      <trkpt lat="37.872337" lon="-4.395454">
        <time>2021-08-24T10:40:32Z</time>
      </trkpt>
      <trkpt lat="37.868451" lon="-4.399257">
        <time>2021-08-24T10:40:53Z</time>
      </trkpt>
      <trkpt lat="37.868451" lon="-4.399257">
        <time>2021-08-24T10:40:53Z</time>
      </trkpt>
      <trkpt lat="37.86812" lon="-4.400052">
        <time>2021-08-24T10:40:56Z</time>
      </trkpt>
      <trkpt lat="37.866855" lon="-4.404985">
        <time>2021-08-24T10:41:14Z</time>
      </trkpt>
      <trkpt lat="37.866296" lon="-4.406533">
        <time>2021-08-24T10:41:20Z</time>
      </trkpt>
      <trkpt lat="37.864308" lon="-4.410291">
        <time>2021-08-24T10:41:35Z</time>
      </trkpt>
      <trkpt lat="37.86182" lon="-4.41506">
        <time>2021-08-24T10:41:53Z</time>
      </trkpt>
      <trkpt lat="37.858963" lon="-4.420509">
        <time>2021-08-24T10:42:14Z</time>
      </trkpt>
      <trkpt lat="37.856465" lon="-4.425313">
        <time>2021-08-24T10:42:32Z</time>
      </trkpt>
      <trkpt lat="37.854217" lon="-4.428978">
        <time>2021-08-24T10:42:47Z</time>
      </trkpt>
      <trkpt lat="37.852927" lon="-4.429703">
        <time>2021-08-24T10:42:53Z</time>
      </trkpt>
      <trkpt lat="37.852363" lon="-4.430262">
        <time>2021-08-24T10:42:56Z</time>
      </trkpt>
      <trkpt lat="37.848987" lon="-4.433981">
        <time>2021-08-24T10:43:14Z</time>
      </trkpt>
      <trkpt lat="37.845492" lon="-4.438605">
        <time>2021-08-24T10:43:35Z</time>
      </trkpt>
      <trkpt lat="37.845492" lon="-4.438605">
        <time>2021-08-24T10:43:35Z</time>
      </trkpt>
      <trkpt lat="37.845492" lon="-4.438605">
        <time>2021-08-24T10:43:35Z</time>
      </trkpt>
      <trkpt lat="37.845492" lon="-4.438605">
        <time>2021-08-24T10:43:35Z</time>
      </trkpt>
      <trkpt lat="37.84281" lon="-4.443362">
        <time>2021-08-24T10:43:53Z</time>
      </trkpt>
      <trkpt lat="37.840699" lon="-4.446819">
        <time>2021-08-24T10:44:08Z</time>
      </trkpt>
      <trkpt lat="37.840086" lon="-4.447214">
        <time>2021-08-24T10:44:11Z</time>
      </trkpt>
      <trkpt lat="37.839385" lon="-4.447356">
        <time>2021-08-24T10:44:14Z</time>
      </trkpt>
      <trkpt lat="37.839385" lon="-4.447356">
        <time>2021-08-24T10:44:14Z</time>
      </trkpt>
      <trkpt lat="37.838662" lon="-4.447232">
        <time>2021-08-24T10:44:17Z</time>
      </trkpt>
      <trkpt lat="37.83495" lon="-4.446062">
        <time>2021-08-24T10:44:32Z</time>
      </trkpt>
      <trkpt lat="37.834196" lon="-4.446152">
        <time>2021-08-24T10:44:35Z</time>
      </trkpt>
      <trkpt lat="37.830658" lon="-4.447843">
        <time>2021-08-24T10:44:50Z</time>
      </trkpt>
      <trkpt lat="37.826377" lon="-4.449896">
        <time>2021-08-24T10:45:08Z</time>
      </trkpt>
      <trkpt lat="37.825719" lon="-4.450282">
        <time>2021-08-24T10:45:11Z</time>
      </trkpt>
      <trkpt lat="37.824628" lon="-4.451475">
        <time>2021-08-24T10:45:17Z</time>
      </trkpt>
      <trkpt lat="37.822411" lon="-4.453874">
        <time>2021-08-24T10:45:29Z</time>
      </trkpt>
      <trkpt lat="37.81914" lon="-4.456328">
        <time>2021-08-24T10:45:44Z</time>
      </trkpt>
      <trkpt lat="37.818513" lon="-4.456798">
        <time>2021-08-24T10:45:47Z</time>
      </trkpt>
      <trkpt lat="37.818513" lon="-4.456798">
        <time>2021-08-24T10:45:47Z</time>
      </trkpt>
      <trkpt lat="37.814771" lon="-4.460429">
        <time>2021-08-24T10:46:05Z</time>
      </trkpt>
      <trkpt lat="37.811012" lon="-4.464368">
        <time>2021-08-24T10:46:23Z</time>
      </trkpt>
      <trkpt lat="37.809278" lon="-4.466451">
        <time>2021-08-24T10:46:32Z</time>
      </trkpt>
      <trkpt lat="37.809278" lon="-4.466451">
        <time>2021-08-24T10:46:32Z</time>
      </trkpt>
      <trkpt lat="37.807603" lon="-4.468507">
        <time>2021-08-24T10:46:41Z</time>
      </trkpt>
      <trkpt lat="37.805299" lon="-4.470924">
        <time>2021-08-24T10:46:53Z</time>
      </trkpt>
      <trkpt lat="37.804626" lon="-4.471075">
        <time>2021-08-24T10:46:56Z</time>
      </trkpt>
      <trkpt lat="37.803251" lon="-4.471012">
        <time>2021-08-24T10:47:02Z</time>
      </trkpt>
      <trkpt lat="37.802587" lon="-4.471232">
        <time>2021-08-24T10:47:05Z</time>
      </trkpt>
      <trkpt lat="37.80198" lon="-4.471713">
        <time>2021-08-24T10:47:08Z</time>
      </trkpt>
      <trkpt lat="37.798962" lon="-4.474252">
        <time>2021-08-24T10:47:23Z</time>
      </trkpt>
      <trkpt lat="37.79766" lon="-4.475073">
        <time>2021-08-24T10:47:29Z</time>
      </trkpt>
      <trkpt lat="37.796188" lon="-4.475251">
        <time>2021-08-24T10:47:35Z</time>
      </trkpt>
      <trkpt lat="37.793847" lon="-4.475365">
        <time>2021-08-24T10:47:44Z</time>
      </trkpt>
      <trkpt lat="37.790723" lon="-4.475735">
        <time>2021-08-24T10:47:56Z</time>
      </trkpt>
      <trkpt lat="37.789248" lon="-4.476391">
        <time>2021-08-24T10:48:02Z</time>
      </trkpt>
      <trkpt lat="37.784627" lon="-4.478016">
        <time>2021-08-24T10:48:20Z</time>
      </trkpt>
      <trkpt lat="37.779919" lon="-4.479468">
        <time>2021-08-24T10:48:38Z</time>
      </trkpt>
      <trkpt lat="37.775502" lon="-4.481345">
        <time>2021-08-24T10:48:56Z</time>
      </trkpt>
      <trkpt lat="37.775502" lon="-4.481345">
        <time>2021-08-24T10:48:56Z</time>
      </trkpt>
      <trkpt lat="37.775502" lon="-4.481345">
        <time>2021-08-24T10:48:56Z</time>
      </trkpt>
      <trkpt lat="37.775117" lon="-4.482127">
        <time>2021-08-24T10:48:59Z</time>
      </trkpt>
      <trkpt lat="37.774941" lon="-4.483044">
        <time>2021-08-24T10:49:02Z</time>
      </trkpt>
      <trkpt lat="37.774983" lon="-4.484015">
        <time>2021-08-24T10:49:05Z</time>
      </trkpt>
      <trkpt lat="37.77532" lon="-4.486983">
        <time>2021-08-24T10:49:14Z</time>
      </trkpt>
      <trkpt lat="37.775403" lon="-4.488765">
        <time>2021-08-24T10:49:20Z</time>
      </trkpt>
      <trkpt lat="37.775213" lon="-4.489575">
        <time>2021-08-24T10:49:23Z</time>
      </trkpt>
      <trkpt lat="37.77483" lon="-4.490287">
        <time>2021-08-24T10:49:26Z</time>
      </trkpt>
      <trkpt lat="37.773071" lon="-4.492126">
        <time>2021-08-24T10:49:35Z</time>
      </trkpt>
      <trkpt lat="37.769182" lon="-4.496049">
        <time>2021-08-24T10:49:53Z</time>
      </trkpt>
      <trkpt lat="37.766608" lon="-4.498555">
        <time>2021-08-24T10:50:05Z</time>
      </trkpt>
      <trkpt lat="37.76522" lon="-4.499446">
        <time>2021-08-24T10:50:11Z</time>
      </trkpt>
      <trkpt lat="37.761104" lon="-4.501964">
        <time>2021-08-24T10:50:29Z</time>
      </trkpt>
      <trkpt lat="37.756756" lon="-4.504631">
        <time>2021-08-24T10:50:50Z</time>
      </trkpt>
      <trkpt lat="37.752534" lon="-4.507206">
        <time>2021-08-24T10:51:08Z</time>
      </trkpt>
      <trkpt lat="37.748182" lon="-4.509852">
        <time>2021-08-24T10:51:26Z</time>
      </trkpt>
      <trkpt lat="37.743726" lon="-4.512711">
        <time>2021-08-24T10:51:44Z</time>
      </trkpt>
      <trkpt lat="37.74106" lon="-4.514713">
        <time>2021-08-24T10:51:56Z</time>
      </trkpt>
      <trkpt lat="37.739542" lon="-4.514887">
        <time>2021-08-24T10:52:02Z</time>
      </trkpt>
      <trkpt lat="37.739542" lon="-4.514887">
        <time>2021-08-24T10:52:02Z</time>
      </trkpt>
      <trkpt lat="37.735395" lon="-4.513979">
        <time>2021-08-24T10:52:17Z</time>
      </trkpt>
      <trkpt lat="37.734599" lon="-4.514166">
        <time>2021-08-24T10:52:20Z</time>
      </trkpt>
      <trkpt lat="37.730017" lon="-4.515128">
        <time>2021-08-24T10:52:38Z</time>
      </trkpt>
      <trkpt lat="37.730017" lon="-4.515128">
        <time>2021-08-24T10:52:38Z</time>
      </trkpt>
      <trkpt lat="37.725634" lon="-4.513908">
        <time>2021-08-24T10:52:56Z</time>
      </trkpt>
      <trkpt lat="37.725634" lon="-4.513908">
        <time>2021-08-24T10:52:56Z</time>
      </trkpt>
      <trkpt lat="37.720636" lon="-4.514477">
        <time>2021-08-24T10:53:23Z</time>
      </trkpt>
      <trkpt lat="37.720037" lon="-4.514383">
        <time>2021-08-24T10:53:26Z</time>
      </trkpt>
      <trkpt lat="37.719464" lon="-4.514089">
        <time>2021-08-24T10:53:29Z</time>
      </trkpt>
      <trkpt lat="37.717112" lon="-4.512304">
        <time>2021-08-24T10:53:41Z</time>
      </trkpt>
      <trkpt lat="37.716419" lon="-4.512177">
        <time>2021-08-24T10:53:44Z</time>
      </trkpt>
      <trkpt lat="37.711906" lon="-4.511884">
        <time>2021-08-24T10:54:02Z</time>
      </trkpt>
      <trkpt lat="37.708075" lon="-4.511392">
        <time>2021-08-24T10:54:17Z</time>
      </trkpt>
      <trkpt lat="37.707428" lon="-4.510918">
        <time>2021-08-24T10:54:20Z</time>
      </trkpt>
      <trkpt lat="37.705486" lon="-4.509617">
        <time>2021-08-24T10:54:29Z</time>
      </trkpt>
      <trkpt lat="37.703304" lon="-4.50904">
        <time>2021-08-24T10:54:38Z</time>
      </trkpt>
      <trkpt lat="37.702602" lon="-4.509228">
        <time>2021-08-24T10:54:41Z</time>
      </trkpt>
      <trkpt lat="37.702602" lon="-4.509228">
        <time>2021-08-24T10:54:41Z</time>
      </trkpt>
      <trkpt lat="37.699836" lon="-4.510091">
        <time>2021-08-24T10:54:53Z</time>
      </trkpt>
      <trkpt lat="37.699211" lon="-4.509889">
        <time>2021-08-24T10:54:56Z</time>
      </trkpt>
      <trkpt lat="37.698683" lon="-4.509446">
        <time>2021-08-24T10:54:59Z</time>
      </trkpt>
      <trkpt lat="37.69829" lon="-4.508801">
        <time>2021-08-24T10:55:02Z</time>
      </trkpt>
      <trkpt lat="37.69829" lon="-4.508801">
        <time>2021-08-24T10:55:02Z</time>
      </trkpt>
      <trkpt lat="37.697062" lon="-4.506576">
        <time>2021-08-24T10:55:11Z</time>
      </trkpt>
      <trkpt lat="37.694928" lon="-4.504152">
        <time>2021-08-24T10:55:23Z</time>
      </trkpt>
      <trkpt lat="37.693646" lon="-4.50303">
        <time>2021-08-24T10:55:32Z</time>
      </trkpt>
      <trkpt lat="37.69246" lon="-4.502732">
        <time>2021-08-24T10:55:38Z</time>
      </trkpt>
      <trkpt lat="37.691788" lon="-4.502881">
        <time>2021-08-24T10:55:41Z</time>
      </trkpt>
      <trkpt lat="37.691144" lon="-4.503249">
        <time>2021-08-24T10:55:44Z</time>
      </trkpt>
      <trkpt lat="37.690566" lon="-4.503829">
        <time>2021-08-24T10:55:47Z</time>
      </trkpt>
      <trkpt lat="37.688705" lon="-4.505542">
        <time>2021-08-24T10:55:56Z</time>
      </trkpt>
      <trkpt lat="37.686199" lon="-4.506361">
        <time>2021-08-24T10:56:08Z</time>
      </trkpt>
      <trkpt lat="37.685898" lon="-4.506624">
        <time>2021-08-24T10:56:11Z</time>
      </trkpt>
      <trkpt lat="37.685738" lon="-4.507148">
        <time>2021-08-24T10:56:14Z</time>
      </trkpt>
      <trkpt lat="37.684964" lon="-4.510014">
        <time>2021-08-24T10:56:26Z</time>
      </trkpt>
      <trkpt lat="37.684198" lon="-4.511425">
        <time>2021-08-24T10:56:32Z</time>
      </trkpt>
      <trkpt lat="37.682454" lon="-4.515268">
        <time>2021-08-24T10:56:47Z</time>
      </trkpt>
      <trkpt lat="37.682299" lon="-4.517024">
        <time>2021-08-24T10:56:53Z</time>
      </trkpt>
      <trkpt lat="37.682124" lon="-4.5205">
        <time>2021-08-24T10:57:08Z</time>
      </trkpt>
      <trkpt lat="37.681764" lon="-4.522142">
        <time>2021-08-24T10:57:17Z</time>
      </trkpt>
      <trkpt lat="37.682002" lon="-4.522583">
        <time>2021-08-24T10:57:20Z</time>
      </trkpt>
      <trkpt lat="37.682002" lon="-4.522583">
        <time>2021-08-24T10:57:20Z</time>
      </trkpt>
      <trkpt lat="37.682555" lon="-4.523543">
        <time>2021-08-24T10:57:26Z</time>
      </trkpt>
      <trkpt lat="37.682572" lon="-4.524158">
        <time>2021-08-24T10:57:29Z</time>
      </trkpt>
      <trkpt lat="37.682636" lon="-4.52474">
        <time>2021-08-24T10:57:32Z</time>
      </trkpt>
      <trkpt lat="37.682942" lon="-4.525183">
        <time>2021-08-24T10:57:35Z</time>
      </trkpt>
      <trkpt lat="37.684649" lon="-4.526647">
        <time>2021-08-24T10:57:47Z</time>
      </trkpt>
      <trkpt lat="37.684854" lon="-4.527188">
        <time>2021-08-24T10:57:50Z</time>
      </trkpt>
      <trkpt lat="37.685121" lon="-4.527612">
        <time>2021-08-24T10:57:53Z</time>
      </trkpt>
      <trkpt lat="37.685462" lon="-4.527893">
        <time>2021-08-24T10:57:56Z</time>
      </trkpt>
      <trkpt lat="37.685873" lon="-4.528016">
        <time>2021-08-24T10:57:59Z</time>
      </trkpt>
      <trkpt lat="37.686759" lon="-4.528108">
        <time>2021-08-24T10:58:05Z</time>
      </trkpt>
      <trkpt lat="37.687133" lon="-4.5284">
        <time>2021-08-24T10:58:08Z</time>
      </trkpt>
      <trkpt lat="37.687392" lon="-4.528833">
        <time>2021-08-24T10:58:11Z</time>
      </trkpt>
      <trkpt lat="37.687507" lon="-4.529309">
        <time>2021-08-24T10:58:14Z</time>
      </trkpt>
      <trkpt lat="37.687491" lon="-4.530828">
        <time>2021-08-24T10:58:26Z</time>
      </trkpt>
      <trkpt lat="37.687491" lon="-4.530828">
        <time>2021-08-24T10:58:26Z</time>
      </trkpt>
      <trkpt lat="37.686242" lon="-4.534462">
        <time>2021-08-24T10:58:53Z</time>
      </trkpt>
      <trkpt lat="37.686153" lon="-4.536242">
        <time>2021-08-24T10:59:02Z</time>
      </trkpt>
      <trkpt lat="37.685875" lon="-4.539638">
        <time>2021-08-24T10:59:20Z</time>
      </trkpt>
      <trkpt lat="37.685098" lon="-4.541863">
        <time>2021-08-24T10:59:32Z</time>
      </trkpt>
      <trkpt lat="37.683494" lon="-4.545238">
        <time>2021-08-24T10:59:53Z</time>
      </trkpt>
      <trkpt lat="37.68237" lon="-4.546909">
        <time>2021-08-24T11:00:05Z</time>
      </trkpt>
      <trkpt lat="37.680431" lon="-4.549773">
        <time>2021-08-24T11:00:32Z</time>
      </trkpt>
      <trkpt lat="37.68045" lon="-4.54983">
        <time>2021-08-24T11:01:14Z</time>
      </trkpt>
      <trkpt lat="37.68045" lon="-4.54983">
        <time>2021-08-24T11:01:14Z</time>
      </trkpt>
      <trkpt lat="37.680463" lon="-4.549782">
        <time>2021-08-24T11:13:59Z</time>
      </trkpt>
      <trkpt lat="37.680247" lon="-4.54994">
        <time>2021-08-24T11:14:17Z</time>
      </trkpt>
      <trkpt lat="37.678943" lon="-4.551345">
        <time>2021-08-24T11:14:29Z</time>
      </trkpt>
      <trkpt lat="37.676709" lon="-4.553303">
        <time>2021-08-24T11:14:47Z</time>
      </trkpt>
      <trkpt lat="37.676002" lon="-4.554172">
        <time>2021-08-24T11:14:53Z</time>
      </trkpt>
      <trkpt lat="37.674471" lon="-4.556972">
        <time>2021-08-24T11:15:14Z</time>
      </trkpt>
      <trkpt lat="37.674291" lon="-4.557377">
        <time>2021-08-24T11:15:14Z</time>
      </trkpt>
      <trkpt lat="37.67418" lon="-4.558116">
        <time>2021-08-24T11:15:20Z</time>
      </trkpt>
      <trkpt lat="37.67418" lon="-4.558116">
        <time>2021-08-24T11:15:20Z</time>
      </trkpt>
      <trkpt lat="37.674124" lon="-4.5586">
        <time>2021-08-24T11:15:32Z</time>
      </trkpt>
      <trkpt lat="37.673865" lon="-4.558651">
        <time>2021-08-24T11:15:35Z</time>
      </trkpt>
      <trkpt lat="37.672396" lon="-4.558702">
        <time>2021-08-24T11:15:47Z</time>
      </trkpt>
      <trkpt lat="37.670236" lon="-4.558694">
        <time>2021-08-24T11:15:59Z</time>
      </trkpt>
      <trkpt lat="37.669658" lon="-4.558947">
        <time>2021-08-24T11:16:02Z</time>
      </trkpt>
      <trkpt lat="37.665043" lon="-4.561644">
        <time>2021-08-24T11:17:23Z</time>
      </trkpt>
      <trkpt lat="37.664442" lon="-4.562051">
        <time>2021-08-24T11:17:26Z</time>
      </trkpt>
      <trkpt lat="37.660829" lon="-4.565395">
        <time>2021-08-24T11:17:44Z</time>
      </trkpt>
      <trkpt lat="37.656638" lon="-4.568844">
        <time>2021-08-24T11:18:05Z</time>
      </trkpt>
      <trkpt lat="37.654995" lon="-4.570359">
        <time>2021-08-24T11:18:14Z</time>
      </trkpt>
      <trkpt lat="37.654129" lon="-4.57337">
        <time>2021-08-24T11:18:26Z</time>
      </trkpt>
      <trkpt lat="37.653889" lon="-4.573891">
        <time>2021-08-24T11:18:29Z</time>
      </trkpt>
      <trkpt lat="37.652481" lon="-4.576737">
        <time>2021-08-24T11:20:02Z</time>
      </trkpt>
      <trkpt lat="37.651911" lon="-4.578838">
        <time>2021-08-24T11:20:11Z</time>
      </trkpt>
      <trkpt lat="37.650924" lon="-4.581913">
        <time>2021-08-24T11:20:23Z</time>
      </trkpt>
      <trkpt lat="37.650436" lon="-4.582479">
        <time>2021-08-24T11:20:26Z</time>
      </trkpt>
      <trkpt lat="37.649184" lon="-4.583169">
        <time>2021-08-24T11:20:32Z</time>
      </trkpt>
      <trkpt lat="37.648511" lon="-4.583474">
        <time>2021-08-24T11:20:35Z</time>
      </trkpt>
      <trkpt lat="37.644263" lon="-4.585451">
        <time>2021-08-24T11:20:53Z</time>
      </trkpt>
      <trkpt lat="37.639909" lon="-4.587473">
        <time>2021-08-24T11:21:11Z</time>
      </trkpt>
      <trkpt lat="37.635785" lon="-4.589771">
        <time>2021-08-24T11:21:29Z</time>
      </trkpt>
      <trkpt lat="37.635785" lon="-4.589771">
        <time>2021-08-24T11:21:29Z</time>
      </trkpt>
      <trkpt lat="37.63228" lon="-4.593604">
        <time>2021-08-24T11:21:47Z</time>
      </trkpt>
      <trkpt lat="37.63228" lon="-4.593604">
        <time>2021-08-24T11:21:47Z</time>
      </trkpt>
      <trkpt lat="37.630059" lon="-4.595783">
        <time>2021-08-24T11:21:59Z</time>
      </trkpt>
      <trkpt lat="37.627996" lon="-4.596888">
        <time>2021-08-24T11:22:08Z</time>
      </trkpt>
      <trkpt lat="37.627371" lon="-4.597473">
        <time>2021-08-24T11:22:11Z</time>
      </trkpt>
      <trkpt lat="37.624661" lon="-4.600915">
        <time>2021-08-24T11:22:26Z</time>
      </trkpt>
      <trkpt lat="37.622185" lon="-4.604621">
        <time>2021-08-24T11:22:41Z</time>
      </trkpt>
      <trkpt lat="37.621966" lon="-4.605519">
        <time>2021-08-24T11:22:44Z</time>
      </trkpt>
      <trkpt lat="37.620778" lon="-4.609815">
        <time>2021-08-24T11:22:59Z</time>
      </trkpt>
      <trkpt lat="37.620297" lon="-4.610322">
        <time>2021-08-24T11:23:02Z</time>
      </trkpt>
      <trkpt lat="37.61969" lon="-4.610655">
        <time>2021-08-24T11:23:05Z</time>
      </trkpt>
      <trkpt lat="37.617904" lon="-4.611924">
        <time>2021-08-24T11:23:14Z</time>
      </trkpt>
      <trkpt lat="37.616565" lon="-4.615109">
        <time>2021-08-24T11:23:26Z</time>
      </trkpt>
      <trkpt lat="37.615009" lon="-4.618156">
        <time>2021-08-24T11:23:38Z</time>
      </trkpt>
      <trkpt lat="37.613187" lon="-4.619659">
        <time>2021-08-24T11:23:47Z</time>
      </trkpt>
      <trkpt lat="37.610101" lon="-4.622012">
        <time>2021-08-24T11:24:02Z</time>
      </trkpt>
      <trkpt lat="37.608725" lon="-4.622464">
        <time>2021-08-24T11:24:08Z</time>
      </trkpt>
      <trkpt lat="37.608725" lon="-4.622464">
        <time>2021-08-24T11:24:08Z</time>
      </trkpt>
      <trkpt lat="37.607311" lon="-4.622363">
        <time>2021-08-24T11:24:14Z</time>
      </trkpt>
      <trkpt lat="37.604112" lon="-4.620645">
        <time>2021-08-24T11:24:29Z</time>
      </trkpt>
      <trkpt lat="37.604112" lon="-4.620645">
        <time>2021-08-24T11:24:29Z</time>
      </trkpt>
      <trkpt lat="37.600235" lon="-4.618729">
        <time>2021-08-24T11:24:47Z</time>
      </trkpt>
      <trkpt lat="37.599548" lon="-4.61864">
        <time>2021-08-24T11:24:50Z</time>
      </trkpt>
      <trkpt lat="37.594809" lon="-4.618887">
        <time>2021-08-24T11:25:11Z</time>
      </trkpt>
      <trkpt lat="37.589699" lon="-4.619227">
        <time>2021-08-24T11:25:32Z</time>
      </trkpt>
      <trkpt lat="37.584717" lon="-4.619549">
        <time>2021-08-24T11:25:53Z</time>
      </trkpt>
      <trkpt lat="37.583348" lon="-4.619674">
        <time>2021-08-24T11:25:59Z</time>
      </trkpt>
      <trkpt lat="37.581659" lon="-4.620199">
        <time>2021-08-24T11:26:08Z</time>
      </trkpt>
      <trkpt lat="37.580517" lon="-4.620887">
        <time>2021-08-24T11:26:17Z</time>
      </trkpt>
      <trkpt lat="37.580218" lon="-4.62077">
        <time>2021-08-24T11:26:23Z</time>
      </trkpt>
      <trkpt lat="37.580218" lon="-4.62077">
        <time>2021-08-24T11:26:23Z</time>
      </trkpt>
      <trkpt lat="37.578424" lon="-4.619129">
        <time>2021-08-24T11:26:41Z</time>
      </trkpt>
      <trkpt lat="37.578085" lon="-4.619328">
        <time>2021-08-24T11:26:44Z</time>
      </trkpt>
      <trkpt lat="37.576792" lon="-4.620541">
        <time>2021-08-24T11:26:56Z</time>
      </trkpt>
      <trkpt lat="37.576411" lon="-4.62039">
        <time>2021-08-24T11:26:59Z</time>
      </trkpt>
      <trkpt lat="37.576411" lon="-4.62039">
        <time>2021-08-24T11:26:59Z</time>
      </trkpt>
      <trkpt lat="37.5757" lon="-4.619574">
        <time>2021-08-24T11:27:05Z</time>
      </trkpt>
      <trkpt lat="37.573158" lon="-4.617677">
        <time>2021-08-24T11:27:20Z</time>
      </trkpt>
      <trkpt lat="37.572944" lon="-4.617137">
        <time>2021-08-24T11:27:23Z</time>
      </trkpt>
      <trkpt lat="37.572878" lon="-4.616535">
        <time>2021-08-24T11:27:26Z</time>
      </trkpt>
      <trkpt lat="37.572582" lon="-4.615953">
        <time>2021-08-24T11:27:29Z</time>
      </trkpt>
      <trkpt lat="37.570096" lon="-4.611736">
        <time>2021-08-24T11:27:47Z</time>
      </trkpt>
      <trkpt lat="37.56958" lon="-4.611113">
        <time>2021-08-24T11:27:50Z</time>
      </trkpt>
      <trkpt lat="37.568075" lon="-4.609419">
        <time>2021-08-24T11:27:59Z</time>
      </trkpt>
      <trkpt lat="37.567456" lon="-4.607911">
        <time>2021-08-24T11:28:05Z</time>
      </trkpt>
      <trkpt lat="37.56724" lon="-4.6071">
        <time>2021-08-24T11:28:08Z</time>
      </trkpt>
      <trkpt lat="37.56586" lon="-4.601297">
        <time>2021-08-24T11:28:32Z</time>
      </trkpt>
      <trkpt lat="37.56586" lon="-4.601297">
        <time>2021-08-24T11:28:32Z</time>
      </trkpt>
      <trkpt lat="37.565594" lon="-4.600848">
        <time>2021-08-24T11:28:35Z</time>
      </trkpt>
      <trkpt lat="37.565202" lon="-4.60066">
        <time>2021-08-24T11:28:38Z</time>
      </trkpt>
      <trkpt lat="37.56476" lon="-4.600819">
        <time>2021-08-24T11:28:41Z</time>
      </trkpt>
      <trkpt lat="37.563806" lon="-4.601117">
        <time>2021-08-24T11:28:47Z</time>
      </trkpt>
      <trkpt lat="37.563806" lon="-4.601117">
        <time>2021-08-24T11:28:47Z</time>
      </trkpt>
      <trkpt lat="37.562082" lon="-4.600251">
        <time>2021-08-24T11:28:56Z</time>
      </trkpt>
      <trkpt lat="37.561476" lon="-4.599831">
        <time>2021-08-24T11:28:59Z</time>
      </trkpt>
      <trkpt lat="37.557987" lon="-4.598022">
        <time>2021-08-24T11:29:17Z</time>
      </trkpt>
      <trkpt lat="37.557089" lon="-4.59717">
        <time>2021-08-24T11:29:23Z</time>
      </trkpt>
      <trkpt lat="37.553707" lon="-4.592889">
        <time>2021-08-24T11:29:44Z</time>
      </trkpt>
      <trkpt lat="37.550193" lon="-4.589076">
        <time>2021-08-24T11:30:05Z</time>
      </trkpt>
      <trkpt lat="37.548705" lon="-4.587248">
        <time>2021-08-24T11:30:17Z</time>
      </trkpt>
      <trkpt lat="37.548524" lon="-4.586785">
        <time>2021-08-24T11:30:23Z</time>
      </trkpt>
      <trkpt lat="37.547942" lon="-4.58639">
        <time>2021-08-24T11:30:29Z</time>
      </trkpt>
      <trkpt lat="37.547359" lon="-4.585691">
        <time>2021-08-24T11:30:35Z</time>
      </trkpt>
      <trkpt lat="37.547294" lon="-4.585299">
        <time>2021-08-24T11:30:38Z</time>
      </trkpt>
      <trkpt lat="37.547355" lon="-4.584861">
        <time>2021-08-24T11:30:41Z</time>
      </trkpt>
      <trkpt lat="37.547293" lon="-4.584435">
        <time>2021-08-24T11:30:44Z</time>
      </trkpt>
      <trkpt lat="37.547064" lon="-4.584039">
        <time>2021-08-24T11:30:47Z</time>
      </trkpt>
      <trkpt lat="37.545787" lon="-4.582611">
        <time>2021-08-24T11:30:59Z</time>
      </trkpt>
      <trkpt lat="37.544865" lon="-4.58116">
        <time>2021-08-24T11:31:08Z</time>
      </trkpt>
      <trkpt lat="37.544357" lon="-4.580896">
        <time>2021-08-24T11:31:11Z</time>
      </trkpt>
      <trkpt lat="37.54383" lon="-4.580713">
        <time>2021-08-24T11:31:14Z</time>
      </trkpt>
      <trkpt lat="37.543459" lon="-4.580432">
        <time>2021-08-24T11:31:17Z</time>
      </trkpt>
      <trkpt lat="37.542062" lon="-4.578389">
        <time>2021-08-24T11:31:29Z</time>
      </trkpt>
      <trkpt lat="37.540176" lon="-4.576507">
        <time>2021-08-24T11:31:41Z</time>
      </trkpt>
      <trkpt lat="37.540176" lon="-4.576507">
        <time>2021-08-24T11:31:41Z</time>
      </trkpt>
      <trkpt lat="37.540176" lon="-4.576507">
        <time>2021-08-24T11:31:41Z</time>
      </trkpt>
      <trkpt lat="37.540176" lon="-4.576507">
        <time>2021-08-24T11:31:41Z</time>
      </trkpt>
      <trkpt lat="37.540176" lon="-4.576507">
        <time>2021-08-24T11:31:41Z</time>
      </trkpt>
      <trkpt lat="37.539865" lon="-4.576003">
        <time>2021-08-24T11:31:44Z</time>
      </trkpt>
      <trkpt lat="37.539671" lon="-4.57543">
        <time>2021-08-24T11:31:47Z</time>
      </trkpt>
      <trkpt lat="37.539391" lon="-4.572902">
        <time>2021-08-24T11:31:59Z</time>
      </trkpt>
      <trkpt lat="37.53903" lon="-4.572582">
        <time>2021-08-24T11:32:02Z</time>
      </trkpt>
      <trkpt lat="37.538046" lon="-4.571873">
        <time>2021-08-24T11:32:14Z</time>
      </trkpt>
      <trkpt lat="37.538046" lon="-4.571873">
        <time>2021-08-24T11:32:14Z</time>
      </trkpt>
      <trkpt lat="37.537348" lon="-4.571802">
        <time>2021-08-24T11:32:20Z</time>
      </trkpt>
      <trkpt lat="37.537348" lon="-4.571802">
        <time>2021-08-24T11:32:20Z</time>
      </trkpt>
      <trkpt lat="37.536523" lon="-4.57162">
        <time>2021-08-24T11:32:26Z</time>
      </trkpt>
      <trkpt lat="37.533737" lon="-4.56954">
        <time>2021-08-24T11:32:47Z</time>
      </trkpt>
      <trkpt lat="37.532902" lon="-4.568667">
        <time>2021-08-24T11:32:53Z</time>
      </trkpt>
      <trkpt lat="37.531169" lon="-4.566582">
        <time>2021-08-24T11:33:08Z</time>
      </trkpt>
      <trkpt lat="37.530322" lon="-4.565189">
        <time>2021-08-24T11:33:17Z</time>
      </trkpt>
      <trkpt lat="37.530127" lon="-4.564634">
        <time>2021-08-24T11:33:20Z</time>
      </trkpt>
      <trkpt lat="37.529651" lon="-4.56144">
        <time>2021-08-24T11:33:38Z</time>
      </trkpt>
      <trkpt lat="37.529226" lon="-4.560439">
        <time>2021-08-24T11:33:44Z</time>
      </trkpt>
      <trkpt lat="37.528672" lon="-4.559848">
        <time>2021-08-24T11:33:50Z</time>
      </trkpt>
      <trkpt lat="37.528672" lon="-4.559848">
        <time>2021-08-24T11:33:50Z</time>
      </trkpt>
      <trkpt lat="37.52768" lon="-4.559445">
        <time>2021-08-24T11:33:59Z</time>
      </trkpt>
      <trkpt lat="37.527079" lon="-4.559284">
        <time>2021-08-24T11:34:05Z</time>
      </trkpt>
      <trkpt lat="37.524849" lon="-4.557721">
        <time>2021-08-24T11:34:20Z</time>
      </trkpt>
      <trkpt lat="37.524333" lon="-4.557608">
        <time>2021-08-24T11:34:23Z</time>
      </trkpt>
      <trkpt lat="37.52041" lon="-4.557091">
        <time>2021-08-24T11:34:47Z</time>
      </trkpt>
      <trkpt lat="37.519557" lon="-4.557264">
        <time>2021-08-24T11:34:53Z</time>
      </trkpt>
      <trkpt lat="37.519557" lon="-4.557264">
        <time>2021-08-24T11:34:53Z</time>
      </trkpt>
      <trkpt lat="37.519189" lon="-4.557106">
        <time>2021-08-24T11:34:56Z</time>
      </trkpt>
      <trkpt lat="37.518897" lon="-4.556758">
        <time>2021-08-24T11:34:59Z</time>
      </trkpt>
      <trkpt lat="37.51838" lon="-4.555765">
        <time>2021-08-24T11:35:08Z</time>
      </trkpt>
      <trkpt lat="37.518202" lon="-4.555729">
        <time>2021-08-24T11:35:11Z</time>
      </trkpt>
      <trkpt lat="37.518001" lon="-4.555868">
        <time>2021-08-24T11:35:14Z</time>
      </trkpt>
      <trkpt lat="37.517894" lon="-4.55622">
        <time>2021-08-24T11:35:17Z</time>
      </trkpt>
      <trkpt lat="37.517531" lon="-4.558566">
        <time>2021-08-24T11:35:35Z</time>
      </trkpt>
      <trkpt lat="37.517531" lon="-4.558566">
        <time>2021-08-24T11:35:35Z</time>
      </trkpt>
      <trkpt lat="37.51725" lon="-4.558767">
        <time>2021-08-24T11:35:38Z</time>
      </trkpt>
      <trkpt lat="37.51694" lon="-4.558953">
        <time>2021-08-24T11:35:41Z</time>
      </trkpt>
      <trkpt lat="37.515919" lon="-4.559374">
        <time>2021-08-24T11:35:50Z</time>
      </trkpt>
      <trkpt lat="37.515177" lon="-4.559438">
        <time>2021-08-24T11:35:56Z</time>
      </trkpt>
      <trkpt lat="37.513903" lon="-4.55949">
        <time>2021-08-24T11:36:05Z</time>
      </trkpt>
      <trkpt lat="37.51341" lon="-4.559799">
        <time>2021-08-24T11:36:08Z</time>
      </trkpt>
      <trkpt lat="37.512994" lon="-4.56019">
        <time>2021-08-24T11:36:11Z</time>
      </trkpt>
      <trkpt lat="37.512589" lon="-4.560401">
        <time>2021-08-24T11:36:14Z</time>
      </trkpt>
      <trkpt lat="37.512149" lon="-4.560355">
        <time>2021-08-24T11:36:17Z</time>
      </trkpt>
      <trkpt lat="37.511767" lon="-4.56041">
        <time>2021-08-24T11:36:20Z</time>
      </trkpt>
      <trkpt lat="37.511429" lon="-4.56076">
        <time>2021-08-24T11:36:23Z</time>
      </trkpt>
      <trkpt lat="37.510277" lon="-4.562157">
        <time>2021-08-24T11:36:32Z</time>
      </trkpt>
      <trkpt lat="37.51009" lon="-4.562722">
        <time>2021-08-24T11:36:35Z</time>
      </trkpt>
      <trkpt lat="37.509832" lon="-4.563859">
        <time>2021-08-24T11:36:41Z</time>
      </trkpt>
      <trkpt lat="37.509832" lon="-4.563859">
        <time>2021-08-24T11:36:41Z</time>
      </trkpt>
      <trkpt lat="37.50921" lon="-4.564983">
        <time>2021-08-24T11:36:47Z</time>
      </trkpt>
      <trkpt lat="37.508308" lon="-4.566776">
        <time>2021-08-24T11:36:56Z</time>
      </trkpt>
      <trkpt lat="37.50753" lon="-4.568867">
        <time>2021-08-24T11:37:05Z</time>
      </trkpt>
      <trkpt lat="37.507174" lon="-4.569529">
        <time>2021-08-24T11:37:08Z</time>
      </trkpt>
      <trkpt lat="37.506345" lon="-4.571345">
        <time>2021-08-24T11:37:17Z</time>
      </trkpt>
      <trkpt lat="37.506164" lon="-4.571738">
        <time>2021-08-24T11:37:20Z</time>
      </trkpt>
      <trkpt lat="37.505871" lon="-4.57186">
        <time>2021-08-24T11:37:23Z</time>
      </trkpt>
      <trkpt lat="37.505572" lon="-4.572003">
        <time>2021-08-24T11:37:26Z</time>
      </trkpt>
      <trkpt lat="37.504901" lon="-4.572296">
        <time>2021-08-24T11:37:32Z</time>
      </trkpt>
      <trkpt lat="37.504433" lon="-4.572254">
        <time>2021-08-24T11:37:35Z</time>
      </trkpt>
      <trkpt lat="37.502843" lon="-4.571944">
        <time>2021-08-24T11:37:44Z</time>
      </trkpt>
      <trkpt lat="37.500349" lon="-4.570216">
        <time>2021-08-24T11:37:59Z</time>
      </trkpt>
      <trkpt lat="37.499759" lon="-4.570082">
        <time>2021-08-24T11:38:02Z</time>
      </trkpt>
      <trkpt lat="37.49866" lon="-4.570007">
        <time>2021-08-24T11:38:08Z</time>
      </trkpt>
      <trkpt lat="37.498223" lon="-4.570242">
        <time>2021-08-24T11:38:11Z</time>
      </trkpt>
      <trkpt lat="37.497798" lon="-4.570425">
        <time>2021-08-24T11:38:14Z</time>
      </trkpt>
      <trkpt lat="37.496995" lon="-4.570765">
        <time>2021-08-24T11:38:20Z</time>
      </trkpt>
      <trkpt lat="37.495851" lon="-4.572659">
        <time>2021-08-24T11:38:32Z</time>
      </trkpt>
      <trkpt lat="37.495511" lon="-4.572828">
        <time>2021-08-24T11:38:35Z</time>
      </trkpt>
      <trkpt lat="37.491051" lon="-4.573083">
        <time>2021-08-24T11:38:59Z</time>
      </trkpt>
      <trkpt lat="37.486376" lon="-4.5733">
        <time>2021-08-24T11:39:23Z</time>
      </trkpt>
      <trkpt lat="37.485236" lon="-4.573581">
        <time>2021-08-24T11:39:29Z</time>
      </trkpt>
      <trkpt lat="37.484368" lon="-4.573814">
        <time>2021-08-24T11:39:35Z</time>
      </trkpt>
      <trkpt lat="37.483058" lon="-4.573492">
        <time>2021-08-24T11:39:44Z</time>
      </trkpt>
      <trkpt lat="37.482567" lon="-4.573262">
        <time>2021-08-24T11:39:47Z</time>
      </trkpt>
      <trkpt lat="37.481974" lon="-4.573102">
        <time>2021-08-24T11:39:50Z</time>
      </trkpt>
      <trkpt lat="37.480165" lon="-4.572803">
        <time>2021-08-24T11:39:59Z</time>
      </trkpt>
      <trkpt lat="37.477482" lon="-4.573721">
        <time>2021-08-24T11:40:14Z</time>
      </trkpt>
      <trkpt lat="37.477482" lon="-4.573721">
        <time>2021-08-24T11:40:14Z</time>
      </trkpt>
      <trkpt lat="37.47573" lon="-4.574187">
        <time>2021-08-24T11:40:26Z</time>
      </trkpt>
      <trkpt lat="37.474815" lon="-4.574378">
        <time>2021-08-24T11:40:32Z</time>
      </trkpt>
      <trkpt lat="37.473491" lon="-4.57509">
        <time>2021-08-24T11:40:44Z</time>
      </trkpt>
      <trkpt lat="37.473365" lon="-4.575178">
        <time>2021-08-24T11:40:50Z</time>
      </trkpt>
      <trkpt lat="37.473231" lon="-4.575064">
        <time>2021-08-24T11:40:53Z</time>
      </trkpt>
      <trkpt lat="37.473048" lon="-4.574755">
        <time>2021-08-24T11:40:56Z</time>
      </trkpt>
      <trkpt lat="37.471626" lon="-4.572146">
        <time>2021-08-24T11:41:14Z</time>
      </trkpt>
      <trkpt lat="37.469732" lon="-4.570284">
        <time>2021-08-24T11:41:29Z</time>
      </trkpt>
      <trkpt lat="37.466698" lon="-4.567332">
        <time>2021-08-24T11:41:53Z</time>
      </trkpt>
      <trkpt lat="37.466199" lon="-4.566989">
        <time>2021-08-24T11:41:59Z</time>
      </trkpt>
      <trkpt lat="37.466023" lon="-4.566624">
        <time>2021-08-24T11:42:02Z</time>
      </trkpt>
      <trkpt lat="37.466023" lon="-4.566624">
        <time>2021-08-24T11:42:02Z</time>
      </trkpt>
      <trkpt lat="37.461959" lon="-4.562617">
        <time>2021-08-24T11:42:26Z</time>
      </trkpt>
      <trkpt lat="37.460025" lon="-4.560257">
        <time>2021-08-24T11:42:38Z</time>
      </trkpt>
      <trkpt lat="37.458621" lon="-4.558472">
        <time>2021-08-24T11:42:47Z</time>
      </trkpt>
      <trkpt lat="37.458621" lon="-4.558472">
        <time>2021-08-24T11:42:47Z</time>
      </trkpt>
      <trkpt lat="37.454231" lon="-4.555235">
        <time>2021-08-24T11:43:08Z</time>
      </trkpt>
      <trkpt lat="37.449778" lon="-4.551946">
        <time>2021-08-24T11:43:29Z</time>
      </trkpt>
      <trkpt lat="37.448398" lon="-4.551269">
        <time>2021-08-24T11:43:35Z</time>
      </trkpt>
      <trkpt lat="37.448398" lon="-4.551269">
        <time>2021-08-24T11:43:35Z</time>
      </trkpt>
      <trkpt lat="37.44692" lon="-4.551117">
        <time>2021-08-24T11:43:41Z</time>
      </trkpt>
      <trkpt lat="37.44475" lon="-4.551081">
        <time>2021-08-24T11:43:50Z</time>
      </trkpt>
      <trkpt lat="37.44475" lon="-4.551081">
        <time>2021-08-24T11:43:50Z</time>
      </trkpt>
      <trkpt lat="37.444121" lon="-4.550675">
        <time>2021-08-24T11:43:53Z</time>
      </trkpt>
      <trkpt lat="37.440866" lon="-4.547311">
        <time>2021-08-24T11:44:11Z</time>
      </trkpt>
      <trkpt lat="37.437109" lon="-4.54324">
        <time>2021-08-24T11:44:32Z</time>
      </trkpt>
      <trkpt lat="37.436635" lon="-4.542585">
        <time>2021-08-24T11:44:35Z</time>
      </trkpt>
      <trkpt lat="37.433725" lon="-4.538784">
        <time>2021-08-24T11:44:53Z</time>
      </trkpt>
      <trkpt lat="37.433725" lon="-4.538784">
        <time>2021-08-24T11:44:53Z</time>
      </trkpt>
      <trkpt lat="37.429459" lon="-4.535318">
        <time>2021-08-24T11:45:14Z</time>
      </trkpt>
      <trkpt lat="37.429459" lon="-4.535318">
        <time>2021-08-24T11:45:14Z</time>
      </trkpt>
      <trkpt lat="37.426289" lon="-4.531123">
        <time>2021-08-24T11:45:35Z</time>
      </trkpt>
      <trkpt lat="37.424489" lon="-4.52808">
        <time>2021-08-24T11:45:53Z</time>
      </trkpt>
      <trkpt lat="37.423719" lon="-4.526267">
        <time>2021-08-24T11:46:02Z</time>
      </trkpt>
      <trkpt lat="37.421399" lon="-4.520952">
        <time>2021-08-24T11:46:29Z</time>
      </trkpt>
      <trkpt lat="37.419369" lon="-4.515785">
        <time>2021-08-24T11:47:02Z</time>
      </trkpt>
      <trkpt lat="37.419369" lon="-4.515785">
        <time>2021-08-24T11:47:02Z</time>
      </trkpt>
      <trkpt lat="37.418715" lon="-4.513405">
        <time>2021-08-24T11:47:17Z</time>
      </trkpt>
      <trkpt lat="37.416796" lon="-4.511363">
        <time>2021-08-24T11:47:38Z</time>
      </trkpt>
      <trkpt lat="37.416312" lon="-4.510595">
        <time>2021-08-24T11:47:44Z</time>
      </trkpt>
      <trkpt lat="37.416058" lon="-4.509673">
        <time>2021-08-24T11:47:50Z</time>
      </trkpt>
      <trkpt lat="37.416063" lon="-4.508692">
        <time>2021-08-24T11:47:56Z</time>
      </trkpt>
      <trkpt lat="37.41618" lon="-4.506653">
        <time>2021-08-24T11:48:08Z</time>
      </trkpt>
      <trkpt lat="37.415932" lon="-4.505629">
        <time>2021-08-24T11:48:14Z</time>
      </trkpt>
      <trkpt lat="37.415311" lon="-4.50312">
        <time>2021-08-24T11:48:38Z</time>
      </trkpt>
      <trkpt lat="37.415252" lon="-4.503055">
        <time>2021-08-24T11:48:50Z</time>
      </trkpt>
      <trkpt lat="37.415126" lon="-4.503055">
        <time>2021-08-24T11:48:53Z</time>
      </trkpt>
      <trkpt lat="37.41492" lon="-4.503076">
        <time>2021-08-24T11:48:56Z</time>
      </trkpt>
      <trkpt lat="37.414698" lon="-4.503002">
        <time>2021-08-24T11:48:59Z</time>
      </trkpt>
      <trkpt lat="37.414515" lon="-4.502814">
        <time>2021-08-24T11:49:02Z</time>
      </trkpt>
      <trkpt lat="37.414425" lon="-4.502534">
        <time>2021-08-24T11:49:05Z</time>
      </trkpt>
      <trkpt lat="37.414427" lon="-4.502257">
        <time>2021-08-24T11:49:08Z</time>
      </trkpt>
      <trkpt lat="37.414404" lon="-4.501956">
        <time>2021-08-24T11:49:11Z</time>
      </trkpt>
      <trkpt lat="37.414207" lon="-4.501781">
        <time>2021-08-24T11:49:14Z</time>
      </trkpt>
      <trkpt lat="37.413862" lon="-4.501714">
        <time>2021-08-24T11:49:17Z</time>
      </trkpt>
      <trkpt lat="37.413414" lon="-4.501704">
        <time>2021-08-24T11:49:20Z</time>
      </trkpt>
      <trkpt lat="37.411767" lon="-4.502005">
        <time>2021-08-24T11:49:29Z</time>
      </trkpt>
      <trkpt lat="37.410007" lon="-4.502447">
        <time>2021-08-24T11:49:38Z</time>
      </trkpt>
      <trkpt lat="37.408827" lon="-4.502027">
        <time>2021-08-24T11:49:44Z</time>
      </trkpt>
      <trkpt lat="37.408827" lon="-4.502027">
        <time>2021-08-24T11:49:44Z</time>
      </trkpt>
      <trkpt lat="37.407563" lon="-4.501611">
        <time>2021-08-24T11:49:53Z</time>
      </trkpt>
      <trkpt lat="37.407329" lon="-4.501691">
        <time>2021-08-24T11:49:56Z</time>
      </trkpt>
      <trkpt lat="37.407119" lon="-4.501579">
        <time>2021-08-24T11:49:59Z</time>
      </trkpt>
      <trkpt lat="37.406574" lon="-4.501172">
        <time>2021-08-24T11:50:05Z</time>
      </trkpt>
      <trkpt lat="37.40441" lon="-4.501312">
        <time>2021-08-24T11:50:17Z</time>
      </trkpt>
      <trkpt lat="37.40441" lon="-4.501312">
        <time>2021-08-24T11:50:17Z</time>
      </trkpt>
      <trkpt lat="37.401738" lon="-4.502511">
        <time>2021-08-24T11:50:32Z</time>
      </trkpt>
      <trkpt lat="37.401251" lon="-4.502809">
        <time>2021-08-24T11:50:38Z</time>
      </trkpt>
      <trkpt lat="37.400905" lon="-4.502992">
        <time>2021-08-24T11:50:41Z</time>
      </trkpt>
      <trkpt lat="37.39997" lon="-4.503463">
        <time>2021-08-24T11:50:47Z</time>
      </trkpt>
      <trkpt lat="37.399389" lon="-4.503616">
        <time>2021-08-24T11:50:50Z</time>
      </trkpt>
      <trkpt lat="37.398008" lon="-4.503902">
        <time>2021-08-24T11:50:59Z</time>
      </trkpt>
      <trkpt lat="37.397753" lon="-4.504024">
        <time>2021-08-24T11:51:02Z</time>
      </trkpt>
      <trkpt lat="37.397489" lon="-4.503873">
        <time>2021-08-24T11:51:05Z</time>
      </trkpt>
      <trkpt lat="37.397116" lon="-4.503795">
        <time>2021-08-24T11:51:08Z</time>
      </trkpt>
      <trkpt lat="37.395421" lon="-4.504193">
        <time>2021-08-24T11:51:17Z</time>
      </trkpt>
      <trkpt lat="37.395421" lon="-4.504193">
        <time>2021-08-24T11:51:17Z</time>
      </trkpt>
      <trkpt lat="37.393294" lon="-4.505197">
        <time>2021-08-24T11:51:29Z</time>
      </trkpt>
      <trkpt lat="37.392266" lon="-4.505207">
        <time>2021-08-24T11:51:38Z</time>
      </trkpt>
      <trkpt lat="37.392057" lon="-4.505259">
        <time>2021-08-24T11:51:41Z</time>
      </trkpt>
      <trkpt lat="37.391845" lon="-4.505329">
        <time>2021-08-24T11:51:44Z</time>
      </trkpt>
      <trkpt lat="37.391647" lon="-4.505191">
        <time>2021-08-24T11:51:47Z</time>
      </trkpt>
      <trkpt lat="37.391181" lon="-4.504773">
        <time>2021-08-24T11:51:53Z</time>
      </trkpt>
      <trkpt lat="37.391181" lon="-4.504773">
        <time>2021-08-24T11:51:53Z</time>
      </trkpt>
      <trkpt lat="37.386592" lon="-4.50269">
        <time>2021-08-24T11:52:23Z</time>
      </trkpt>
      <trkpt lat="37.386207" lon="-4.502606">
        <time>2021-08-24T11:52:26Z</time>
      </trkpt>
      <trkpt lat="37.385409" lon="-4.502603">
        <time>2021-08-24T11:52:35Z</time>
      </trkpt>
      <trkpt lat="37.385206" lon="-4.502646">
        <time>2021-08-24T11:52:38Z</time>
      </trkpt>
      <trkpt lat="37.385013" lon="-4.502506">
        <time>2021-08-24T11:52:41Z</time>
      </trkpt>
      <trkpt lat="37.384746" lon="-4.502366">
        <time>2021-08-24T11:52:44Z</time>
      </trkpt>
      <trkpt lat="37.383907" lon="-4.501981">
        <time>2021-08-24T11:52:50Z</time>
      </trkpt>
      <trkpt lat="37.382044" lon="-4.50057">
        <time>2021-08-24T11:52:59Z</time>
      </trkpt>
      <trkpt lat="37.381502" lon="-4.499937">
        <time>2021-08-24T11:53:02Z</time>
      </trkpt>
      <trkpt lat="37.379837" lon="-4.498457">
        <time>2021-08-24T11:53:11Z</time>
      </trkpt>
      <trkpt lat="37.378117" lon="-4.497654">
        <time>2021-08-24T11:53:20Z</time>
      </trkpt>
      <trkpt lat="37.3761" lon="-4.496152">
        <time>2021-08-24T11:53:32Z</time>
      </trkpt>
      <trkpt lat="37.374052" lon="-4.494094">
        <time>2021-08-24T11:53:44Z</time>
      </trkpt>
      <trkpt lat="37.370757" lon="-4.490393">
        <time>2021-08-24T11:54:05Z</time>
      </trkpt>
      <trkpt lat="37.370274" lon="-4.490181">
        <time>2021-08-24T11:54:08Z</time>
      </trkpt>
      <trkpt lat="37.365579" lon="-4.488234">
        <time>2021-08-24T11:54:32Z</time>
      </trkpt>
      <trkpt lat="37.362297" lon="-4.487335">
        <time>2021-08-24T11:54:47Z</time>
      </trkpt>
      <trkpt lat="37.361198" lon="-4.487552">
        <time>2021-08-24T11:54:53Z</time>
      </trkpt>
      <trkpt lat="37.360867" lon="-4.487772">
        <time>2021-08-24T11:54:56Z</time>
      </trkpt>
      <trkpt lat="37.360867" lon="-4.487772">
        <time>2021-08-24T11:54:56Z</time>
      </trkpt>
      <trkpt lat="37.360626" lon="-4.487969">
        <time>2021-08-24T11:54:59Z</time>
      </trkpt>
      <trkpt lat="37.360324" lon="-4.487883">
        <time>2021-08-24T11:55:02Z</time>
      </trkpt>
      <trkpt lat="37.359889" lon="-4.487852">
        <time>2021-08-24T11:55:05Z</time>
      </trkpt>
      <trkpt lat="37.356222" lon="-4.488786">
        <time>2021-08-24T11:55:23Z</time>
      </trkpt>
      <trkpt lat="37.354204" lon="-4.488949">
        <time>2021-08-24T11:55:32Z</time>
      </trkpt>
      <trkpt lat="37.351431" lon="-4.488561">
        <time>2021-08-24T11:55:44Z</time>
      </trkpt>
      <trkpt lat="37.346854" lon="-4.488428">
        <time>2021-08-24T11:56:05Z</time>
      </trkpt>
      <trkpt lat="37.345062" lon="-4.48777">
        <time>2021-08-24T11:56:14Z</time>
      </trkpt>
      <trkpt lat="37.342334" lon="-4.485656">
        <time>2021-08-24T11:56:29Z</time>
      </trkpt>
      <trkpt lat="37.341283" lon="-4.484632">
        <time>2021-08-24T11:56:35Z</time>
      </trkpt>
      <trkpt lat="37.338536" lon="-4.481852">
        <time>2021-08-24T11:56:50Z</time>
      </trkpt>
      <trkpt lat="37.334216" lon="-4.47836">
        <time>2021-08-24T11:57:11Z</time>
      </trkpt>
      <trkpt lat="37.334216" lon="-4.47836">
        <time>2021-08-24T11:57:11Z</time>
      </trkpt>
      <trkpt lat="37.33097" lon="-4.477">
        <time>2021-08-24T11:57:26Z</time>
      </trkpt>
      <trkpt lat="37.330162" lon="-4.475692">
        <time>2021-08-24T11:57:32Z</time>
      </trkpt>
      <trkpt lat="37.329661" lon="-4.475177">
        <time>2021-08-24T11:57:35Z</time>
      </trkpt>
      <trkpt lat="37.329037" lon="-4.474933">
        <time>2021-08-24T11:57:38Z</time>
      </trkpt>
      <trkpt lat="37.328382" lon="-4.475009">
        <time>2021-08-24T11:57:41Z</time>
      </trkpt>
      <trkpt lat="37.327793" lon="-4.475384">
        <time>2021-08-24T11:57:44Z</time>
      </trkpt>
      <trkpt lat="37.327344" lon="-4.47601">
        <time>2021-08-24T11:57:47Z</time>
      </trkpt>
      <trkpt lat="37.326617" lon="-4.477304">
        <time>2021-08-24T11:57:53Z</time>
      </trkpt>
      <trkpt lat="37.32616" lon="-4.477825">
        <time>2021-08-24T11:57:56Z</time>
      </trkpt>
      <trkpt lat="37.325568" lon="-4.478126">
        <time>2021-08-24T11:57:59Z</time>
      </trkpt>
      <trkpt lat="37.324918" lon="-4.47813">
        <time>2021-08-24T11:58:02Z</time>
      </trkpt>
      <trkpt lat="37.324285" lon="-4.477859">
        <time>2021-08-24T11:58:05Z</time>
      </trkpt>
      <trkpt lat="37.322979" lon="-4.47738">
        <time>2021-08-24T11:58:11Z</time>
      </trkpt>
      <trkpt lat="37.322267" lon="-4.477374">
        <time>2021-08-24T11:58:14Z</time>
      </trkpt>
      <trkpt lat="37.317239" lon="-4.477277">
        <time>2021-08-24T11:58:35Z</time>
      </trkpt>
      <trkpt lat="37.314264" lon="-4.477061">
        <time>2021-08-24T11:58:47Z</time>
      </trkpt>
      <trkpt lat="37.312837" lon="-4.476359">
        <time>2021-08-24T11:58:53Z</time>
      </trkpt>
      <trkpt lat="37.311402" lon="-4.476068">
        <time>2021-08-24T11:58:59Z</time>
      </trkpt>
      <trkpt lat="37.308426" lon="-4.476732">
        <time>2021-08-24T11:59:11Z</time>
      </trkpt>
      <trkpt lat="37.308426" lon="-4.476732">
        <time>2021-08-24T11:59:11Z</time>
      </trkpt>
      <trkpt lat="37.303846" lon="-4.476645">
        <time>2021-08-24T11:59:29Z</time>
      </trkpt>
      <trkpt lat="37.303846" lon="-4.476645">
        <time>2021-08-24T11:59:29Z</time>
      </trkpt>
      <trkpt lat="37.298938" lon="-4.475924">
        <time>2021-08-24T11:59:50Z</time>
      </trkpt>
      <trkpt lat="37.294176" lon="-4.474603">
        <time>2021-08-24T12:00:11Z</time>
      </trkpt>
      <trkpt lat="37.293523" lon="-4.474373">
        <time>2021-08-24T12:00:14Z</time>
      </trkpt>
      <trkpt lat="37.29111" lon="-4.473723">
        <time>2021-08-24T12:00:26Z</time>
      </trkpt>
      <trkpt lat="37.290568" lon="-4.473798">
        <time>2021-08-24T12:00:29Z</time>
      </trkpt>
      <trkpt lat="37.289566" lon="-4.473745">
        <time>2021-08-24T12:00:35Z</time>
      </trkpt>
      <trkpt lat="37.289566" lon="-4.473745">
        <time>2021-08-24T12:00:35Z</time>
      </trkpt>
      <trkpt lat="37.286349" lon="-4.476089">
        <time>2021-08-24T12:00:53Z</time>
      </trkpt>
      <trkpt lat="37.285978" lon="-4.476749">
        <time>2021-08-24T12:00:56Z</time>
      </trkpt>
      <trkpt lat="37.285742" lon="-4.477521">
        <time>2021-08-24T12:00:59Z</time>
      </trkpt>
      <trkpt lat="37.284837" lon="-4.481292">
        <time>2021-08-24T12:01:14Z</time>
      </trkpt>
      <trkpt lat="37.284491" lon="-4.482055">
        <time>2021-08-24T12:01:23Z</time>
      </trkpt>
      <trkpt lat="37.284506" lon="-4.482303">
        <time>2021-08-24T12:01:26Z</time>
      </trkpt>
      <trkpt lat="37.284371" lon="-4.482516">
        <time>2021-08-24T12:01:29Z</time>
      </trkpt>
      <trkpt lat="37.284082" lon="-4.482693">
        <time>2021-08-24T12:01:32Z</time>
      </trkpt>
      <trkpt lat="37.283619" lon="-4.483244">
        <time>2021-08-24T12:01:38Z</time>
      </trkpt>
      <trkpt lat="37.283425" lon="-4.483403">
        <time>2021-08-24T12:01:41Z</time>
      </trkpt>
      <trkpt lat="37.283136" lon="-4.483352">
        <time>2021-08-24T12:01:44Z</time>
      </trkpt>
      <trkpt lat="37.282724" lon="-4.48337">
        <time>2021-08-24T12:01:47Z</time>
      </trkpt>
      <trkpt lat="37.280043" lon="-4.484229">
        <time>2021-08-24T12:02:02Z</time>
      </trkpt>
      <trkpt lat="37.279533" lon="-4.484546">
        <time>2021-08-24T12:02:05Z</time>
      </trkpt>
      <trkpt lat="37.276664" lon="-4.486876">
        <time>2021-08-24T12:02:26Z</time>
      </trkpt>
      <trkpt lat="37.275807" lon="-4.48793">
        <time>2021-08-24T12:02:35Z</time>
      </trkpt>
      <trkpt lat="37.275807" lon="-4.48793">
        <time>2021-08-24T12:02:35Z</time>
      </trkpt>
      <trkpt lat="37.273595" lon="-4.491685">
        <time>2021-08-24T12:03:08Z</time>
      </trkpt>
      <trkpt lat="37.27313" lon="-4.492386">
        <time>2021-08-24T12:03:14Z</time>
      </trkpt>
      <trkpt lat="37.273012" lon="-4.492883">
        <time>2021-08-24T12:03:17Z</time>
      </trkpt>
      <trkpt lat="37.273012" lon="-4.492883">
        <time>2021-08-24T12:03:17Z</time>
      </trkpt>
      <trkpt lat="37.273121" lon="-4.498945">
        <time>2021-08-24T12:03:41Z</time>
      </trkpt>
      <trkpt lat="37.273259" lon="-4.504608">
        <time>2021-08-24T12:03:59Z</time>
      </trkpt>
      <trkpt lat="37.27339" lon="-4.510296">
        <time>2021-08-24T12:04:17Z</time>
      </trkpt>
      <trkpt lat="37.273349" lon="-4.514643">
        <time>2021-08-24T12:04:32Z</time>
      </trkpt>
      <trkpt lat="37.272773" lon="-4.51616">
        <time>2021-08-24T12:04:38Z</time>
      </trkpt>
      <trkpt lat="37.271415" lon="-4.519119">
        <time>2021-08-24T12:04:50Z</time>
      </trkpt>
      <trkpt lat="37.269718" lon="-4.520832">
        <time>2021-08-24T12:04:59Z</time>
      </trkpt>
      <trkpt lat="37.269718" lon="-4.520832">
        <time>2021-08-24T12:04:59Z</time>
      </trkpt>
      <trkpt lat="37.266639" lon="-4.522887">
        <time>2021-08-24T12:05:14Z</time>
      </trkpt>
      <trkpt lat="37.265476" lon="-4.523437">
        <time>2021-08-24T12:05:20Z</time>
      </trkpt>
      <trkpt lat="37.264791" lon="-4.523846">
        <time>2021-08-24T12:05:26Z</time>
      </trkpt>
      <trkpt lat="37.264755" lon="-4.524105">
        <time>2021-08-24T12:05:29Z</time>
      </trkpt>
      <trkpt lat="37.264883" lon="-4.524454">
        <time>2021-08-24T12:05:32Z</time>
      </trkpt>
      <trkpt lat="37.265238" lon="-4.52534">
        <time>2021-08-24T12:05:38Z</time>
      </trkpt>
      <trkpt lat="37.266526" lon="-4.528487">
        <time>2021-08-24T12:05:53Z</time>
      </trkpt>
      <trkpt lat="37.26687" lon="-4.529847">
        <time>2021-08-24T12:05:59Z</time>
      </trkpt>
      <trkpt lat="37.266832" lon="-4.53046">
        <time>2021-08-24T12:06:02Z</time>
      </trkpt>
      <trkpt lat="37.265327" lon="-4.534059">
        <time>2021-08-24T12:06:33Z</time>
      </trkpt>
      <trkpt lat="37.265073" lon="-4.533751">
        <time>2021-08-24T12:06:36Z</time>
      </trkpt>
      <trkpt lat="37.265073" lon="-4.533751">
        <time>2021-08-24T12:06:36Z</time>
      </trkpt>
      <trkpt lat="37.264151" lon="-4.532428">
        <time>2021-08-24T12:06:45Z</time>
      </trkpt>
      <trkpt lat="37.263063" lon="-4.532241">
        <time>2021-08-24T12:06:51Z</time>
      </trkpt>
      <trkpt lat="37.262583" lon="-4.532508">
        <time>2021-08-24T12:06:54Z</time>
      </trkpt>
      <trkpt lat="37.262583" lon="-4.532508">
        <time>2021-08-24T12:06:54Z</time>
      </trkpt>
      <trkpt lat="37.26209" lon="-4.532773">
        <time>2021-08-24T12:06:57Z</time>
      </trkpt>
      <trkpt lat="37.260506" lon="-4.533044">
        <time>2021-08-24T12:07:06Z</time>
      </trkpt>
      <trkpt lat="37.260026" lon="-4.533014">
        <time>2021-08-24T12:07:09Z</time>
      </trkpt>
      <trkpt lat="37.259647" lon="-4.533289">
        <time>2021-08-24T12:07:12Z</time>
      </trkpt>
      <trkpt lat="37.259411" lon="-4.533789">
        <time>2021-08-24T12:07:15Z</time>
      </trkpt>
      <trkpt lat="37.259064" lon="-4.534989">
        <time>2021-08-24T12:07:21Z</time>
      </trkpt>
      <trkpt lat="37.259064" lon="-4.534989">
        <time>2021-08-24T12:07:21Z</time>
      </trkpt>
      <trkpt lat="37.258914" lon="-4.535589">
        <time>2021-08-24T12:07:24Z</time>
      </trkpt>
      <trkpt lat="37.258723" lon="-4.536206">
        <time>2021-08-24T12:07:27Z</time>
      </trkpt>
      <trkpt lat="37.258576" lon="-4.536865">
        <time>2021-08-24T12:07:33Z</time>
      </trkpt>
      <trkpt lat="37.258178" lon="-4.537723">
        <time>2021-08-24T12:07:36Z</time>
      </trkpt>
      <trkpt lat="37.257357" lon="-4.537948">
        <time>2021-08-24T12:07:42Z</time>
      </trkpt>
      <trkpt lat="37.256525" lon="-4.537863">
        <time>2021-08-24T12:07:48Z</time>
      </trkpt>
      <trkpt lat="37.256343" lon="-4.53804">
        <time>2021-08-24T12:07:51Z</time>
      </trkpt>
      <trkpt lat="37.256446" lon="-4.538226">
        <time>2021-08-24T12:07:54Z</time>
      </trkpt>
      <trkpt lat="37.256739" lon="-4.538303">
        <time>2021-08-24T12:07:57Z</time>
      </trkpt>
      <trkpt lat="37.256739" lon="-4.538303">
        <time>2021-08-24T12:07:57Z</time>
      </trkpt>
      <trkpt lat="37.257241" lon="-4.538393">
        <time>2021-08-24T12:08:03Z</time>
      </trkpt>
      <trkpt lat="37.257182" lon="-4.538642">
        <time>2021-08-24T12:08:06Z</time>
      </trkpt>
      <trkpt lat="37.2569" lon="-4.538724">
        <time>2021-08-24T12:08:09Z</time>
      </trkpt>
      <trkpt lat="37.256017" lon="-4.538941">
        <time>2021-08-24T12:08:15Z</time>
      </trkpt>
      <trkpt lat="37.255204" lon="-4.539765">
        <time>2021-08-24T12:08:21Z</time>
      </trkpt>
      <trkpt lat="37.254344" lon="-4.541213">
        <time>2021-08-24T12:08:30Z</time>
      </trkpt>
      <trkpt lat="37.254045" lon="-4.541407">
        <time>2021-08-24T12:08:33Z</time>
      </trkpt>
      <trkpt lat="37.254045" lon="-4.541407">
        <time>2021-08-24T12:08:33Z</time>
      </trkpt>
      <trkpt lat="37.253907" lon="-4.541786">
        <time>2021-08-24T12:08:36Z</time>
      </trkpt>
      <trkpt lat="37.253389" lon="-4.543012">
        <time>2021-08-24T12:08:45Z</time>
      </trkpt>
      <trkpt lat="37.252997" lon="-4.54298">
        <time>2021-08-24T12:08:48Z</time>
      </trkpt>
      <trkpt lat="37.252132" lon="-4.542724">
        <time>2021-08-24T12:08:54Z</time>
      </trkpt>
      <trkpt lat="37.251125" lon="-4.542819">
        <time>2021-08-24T12:09:00Z</time>
      </trkpt>
      <trkpt lat="37.250645" lon="-4.542593">
        <time>2021-08-24T12:09:03Z</time>
      </trkpt>
      <trkpt lat="37.250237" lon="-4.542172">
        <time>2021-08-24T12:09:06Z</time>
      </trkpt>
      <trkpt lat="37.249888" lon="-4.5418">
        <time>2021-08-24T12:09:09Z</time>
      </trkpt>
      <trkpt lat="37.249465" lon="-4.541657">
        <time>2021-08-24T12:09:12Z</time>
      </trkpt>
      <trkpt lat="37.248959" lon="-4.541736">
        <time>2021-08-24T12:09:15Z</time>
      </trkpt>
      <trkpt lat="37.248526" lon="-4.542054">
        <time>2021-08-24T12:09:18Z</time>
      </trkpt>
      <trkpt lat="37.247625" lon="-4.542601">
        <time>2021-08-24T12:09:24Z</time>
      </trkpt>
      <trkpt lat="37.247154" lon="-4.54282">
        <time>2021-08-24T12:09:27Z</time>
      </trkpt>
      <trkpt lat="37.246482" lon="-4.543577">
        <time>2021-08-24T12:09:33Z</time>
      </trkpt>
      <trkpt lat="37.246217" lon="-4.544051">
        <time>2021-08-24T12:09:36Z</time>
      </trkpt>
      <trkpt lat="37.244946" lon="-4.546029">
        <time>2021-08-24T12:09:51Z</time>
      </trkpt>
      <trkpt lat="37.244502" lon="-4.546132">
        <time>2021-08-24T12:09:54Z</time>
      </trkpt>
      <trkpt lat="37.241951" lon="-4.545975">
        <time>2021-08-24T12:10:06Z</time>
      </trkpt>
      <trkpt lat="37.240187" lon="-4.545889">
        <time>2021-08-24T12:10:15Z</time>
      </trkpt>
      <trkpt lat="37.239137" lon="-4.546132">
        <time>2021-08-24T12:10:21Z</time>
      </trkpt>
      <trkpt lat="37.238691" lon="-4.545937">
        <time>2021-08-24T12:10:24Z</time>
      </trkpt>
      <trkpt lat="37.237461" lon="-4.544945">
        <time>2021-08-24T12:10:36Z</time>
      </trkpt>
      <trkpt lat="37.234123" lon="-4.54252">
        <time>2021-08-24T12:11:03Z</time>
      </trkpt>
      <trkpt lat="37.2336" lon="-4.54234">
        <time>2021-08-24T12:11:09Z</time>
      </trkpt>
      <trkpt lat="37.233407" lon="-4.541975">
        <time>2021-08-24T12:11:12Z</time>
      </trkpt>
      <trkpt lat="37.23302" lon="-4.541672">
        <time>2021-08-24T12:11:15Z</time>
      </trkpt>
      <trkpt lat="37.229128" lon="-4.539534">
        <time>2021-08-24T12:11:36Z</time>
      </trkpt>
      <trkpt lat="37.224532" lon="-4.537375">
        <time>2021-08-24T12:12:00Z</time>
      </trkpt>
      <trkpt lat="37.222841" lon="-4.536629">
        <time>2021-08-24T12:12:09Z</time>
      </trkpt>
      <trkpt lat="37.221071" lon="-4.53638">
        <time>2021-08-24T12:12:18Z</time>
      </trkpt>
      <trkpt lat="37.219808" lon="-4.536468">
        <time>2021-08-24T12:12:24Z</time>
      </trkpt>
      <trkpt lat="37.218529" lon="-4.536265">
        <time>2021-08-24T12:12:30Z</time>
      </trkpt>
      <trkpt lat="37.216052" lon="-4.535768">
        <time>2021-08-24T12:12:42Z</time>
      </trkpt>
      <trkpt lat="37.214861" lon="-4.536211">
        <time>2021-08-24T12:12:48Z</time>
      </trkpt>
      <trkpt lat="37.214861" lon="-4.536211">
        <time>2021-08-24T12:12:48Z</time>
      </trkpt>
      <trkpt lat="37.213677" lon="-4.536715">
        <time>2021-08-24T12:12:54Z</time>
      </trkpt>
      <trkpt lat="37.212641" lon="-4.536528">
        <time>2021-08-24T12:13:00Z</time>
      </trkpt>
      <trkpt lat="37.211776" lon="-4.535743">
        <time>2021-08-24T12:13:09Z</time>
      </trkpt>
      <trkpt lat="37.210195" lon="-4.535529">
        <time>2021-08-24T12:13:18Z</time>
      </trkpt>
      <trkpt lat="37.205694" lon="-4.534509">
        <time>2021-08-24T12:13:39Z</time>
      </trkpt>
      <trkpt lat="37.205694" lon="-4.534509">
        <time>2021-08-24T12:13:39Z</time>
      </trkpt>
      <trkpt lat="37.200707" lon="-4.535277">
        <time>2021-08-24T12:14:03Z</time>
      </trkpt>
      <trkpt lat="37.200139" lon="-4.535558">
        <time>2021-08-24T12:14:06Z</time>
      </trkpt>
      <trkpt lat="37.196583" lon="-4.537886">
        <time>2021-08-24T12:14:24Z</time>
      </trkpt>
      <trkpt lat="37.192231" lon="-4.540495">
        <time>2021-08-24T12:14:45Z</time>
      </trkpt>
      <trkpt lat="37.18781" lon="-4.542661">
        <time>2021-08-24T12:15:06Z</time>
      </trkpt>
      <trkpt lat="37.183571" lon="-4.544726">
        <time>2021-08-24T12:15:27Z</time>
      </trkpt>
      <trkpt lat="37.17933" lon="-4.546794">
        <time>2021-08-24T12:15:48Z</time>
      </trkpt>
      <trkpt lat="37.174896" lon="-4.548951">
        <time>2021-08-24T12:16:09Z</time>
      </trkpt>
      <trkpt lat="37.170441" lon="-4.551155">
        <time>2021-08-24T12:16:30Z</time>
      </trkpt>
      <trkpt lat="37.168676" lon="-4.551809">
        <time>2021-08-24T12:16:39Z</time>
      </trkpt>
      <trkpt lat="37.168212" lon="-4.551766">
        <time>2021-08-24T12:16:42Z</time>
      </trkpt>
      <trkpt lat="37.167762" lon="-4.551744">
        <time>2021-08-24T12:16:48Z</time>
      </trkpt>
      <trkpt lat="37.167396" lon="-4.552008">
        <time>2021-08-24T12:16:54Z</time>
      </trkpt>
      <trkpt lat="37.167158" lon="-4.551847">
        <time>2021-08-24T12:16:57Z</time>
      </trkpt>
      <trkpt lat="37.167034" lon="-4.551553">
        <time>2021-08-24T12:17:00Z</time>
      </trkpt>
      <trkpt lat="37.166855" lon="-4.55145">
        <time>2021-08-24T12:17:03Z</time>
      </trkpt>
      <trkpt lat="37.166572" lon="-4.551597">
        <time>2021-08-24T12:17:06Z</time>
      </trkpt>
      <trkpt lat="37.166269" lon="-4.55195">
        <time>2021-08-24T12:17:09Z</time>
      </trkpt>
      <trkpt lat="37.166269" lon="-4.55195">
        <time>2021-08-24T12:17:09Z</time>
      </trkpt>
      <trkpt lat="37.165643" lon="-4.552838">
        <time>2021-08-24T12:17:15Z</time>
      </trkpt>
      <trkpt lat="37.163983" lon="-4.55385">
        <time>2021-08-24T12:17:27Z</time>
      </trkpt>
      <trkpt lat="37.162172" lon="-4.554543">
        <time>2021-08-24T12:17:36Z</time>
      </trkpt>
      <trkpt lat="37.157004" lon="-4.555821">
        <time>2021-08-24T12:17:57Z</time>
      </trkpt>
      <trkpt lat="37.152176" lon="-4.55702">
        <time>2021-08-24T12:18:15Z</time>
      </trkpt>
      <trkpt lat="37.147381" lon="-4.558169">
        <time>2021-08-24T12:18:33Z</time>
      </trkpt>
      <trkpt lat="37.142468" lon="-4.559384">
        <time>2021-08-24T12:18:51Z</time>
      </trkpt>
      <trkpt lat="37.137941" lon="-4.5605">
        <time>2021-08-24T12:19:06Z</time>
      </trkpt>
      <trkpt lat="37.132623" lon="-4.561809">
        <time>2021-08-24T12:19:21Z</time>
      </trkpt>
      <trkpt lat="37.12806" lon="-4.562933">
        <time>2021-08-24T12:19:36Z</time>
      </trkpt>
      <trkpt lat="37.123447" lon="-4.564073">
        <time>2021-08-24T12:19:54Z</time>
      </trkpt>
      <trkpt lat="37.118897" lon="-4.56517">
        <time>2021-08-24T12:20:12Z</time>
      </trkpt>
      <trkpt lat="37.118121" lon="-4.565256">
        <time>2021-08-24T12:20:15Z</time>
      </trkpt>
      <trkpt lat="37.114565" lon="-4.564913">
        <time>2021-08-24T12:20:30Z</time>
      </trkpt>
      <trkpt lat="37.114565" lon="-4.564913">
        <time>2021-08-24T12:20:30Z</time>
      </trkpt>
      <trkpt lat="37.114038" lon="-4.564577">
        <time>2021-08-24T12:20:33Z</time>
      </trkpt>
      <trkpt lat="37.113589" lon="-4.56409">
        <time>2021-08-24T12:20:36Z</time>
      </trkpt>
      <trkpt lat="37.112835" lon="-4.562841">
        <time>2021-08-24T12:20:45Z</time>
      </trkpt>
      <trkpt lat="37.112628" lon="-4.562778">
        <time>2021-08-24T12:20:48Z</time>
      </trkpt>
      <trkpt lat="37.112468" lon="-4.562824">
        <time>2021-08-24T12:20:51Z</time>
      </trkpt>
      <trkpt lat="37.112327" lon="-4.562942">
        <time>2021-08-24T12:20:54Z</time>
      </trkpt>
      <trkpt lat="37.112273" lon="-4.563098">
        <time>2021-08-24T12:20:57Z</time>
      </trkpt>
      <trkpt lat="37.112279" lon="-4.563173">
        <time>2021-08-24T12:23:01Z</time>
      </trkpt>
      <trkpt lat="37.11221" lon="-4.56333">
        <time>2021-08-24T12:23:09Z</time>
      </trkpt>
      <trkpt lat="37.112026" lon="-4.563496">
        <time>2021-08-24T12:23:12Z</time>
      </trkpt>
      <trkpt lat="37.111873" lon="-4.563766">
        <time>2021-08-24T12:23:15Z</time>
      </trkpt>
      <trkpt lat="37.111247" lon="-4.565647">
        <time>2021-08-24T12:23:30Z</time>
      </trkpt>
      <trkpt lat="37.111042" lon="-4.566519">
        <time>2021-08-24T12:23:36Z</time>
      </trkpt>
      <trkpt lat="37.111102" lon="-4.566787">
        <time>2021-08-24T12:23:39Z</time>
      </trkpt>
      <trkpt lat="37.111214" lon="-4.56698">
        <time>2021-08-24T12:23:42Z</time>
      </trkpt>
      <trkpt lat="37.111164" lon="-4.567166">
        <time>2021-08-24T12:23:45Z</time>
      </trkpt>
      <trkpt lat="37.110986" lon="-4.567219">
        <time>2021-08-24T12:23:48Z</time>
      </trkpt>
      <trkpt lat="37.108271" lon="-4.567333">
        <time>2021-08-24T12:24:06Z</time>
      </trkpt>
      <trkpt lat="37.108271" lon="-4.567333">
        <time>2021-08-24T12:24:09Z</time>
      </trkpt>
      <trkpt lat="37.10765" lon="-4.567389">
        <time>2021-08-24T12:24:09Z</time>
      </trkpt>
      <trkpt lat="37.102734" lon="-4.567825">
        <time>2021-08-24T12:24:30Z</time>
      </trkpt>
      <trkpt lat="37.097738" lon="-4.568271">
        <time>2021-08-24T12:24:51Z</time>
      </trkpt>
      <trkpt lat="37.092856" lon="-4.568711">
        <time>2021-08-24T12:25:12Z</time>
      </trkpt>
      <trkpt lat="37.087692" lon="-4.568805">
        <time>2021-08-24T12:25:33Z</time>
      </trkpt>
      <trkpt lat="37.083035" lon="-4.567844">
        <time>2021-08-24T12:25:51Z</time>
      </trkpt>
      <trkpt lat="37.078159" lon="-4.566845">
        <time>2021-08-24T12:26:15Z</time>
      </trkpt>
      <trkpt lat="37.07504" lon="-4.566211">
        <time>2021-08-24T12:26:30Z</time>
      </trkpt>
      <trkpt lat="37.073166" lon="-4.565828">
        <time>2021-08-24T12:26:39Z</time>
      </trkpt>
      <trkpt lat="37.068336" lon="-4.564849">
        <time>2021-08-24T12:27:03Z</time>
      </trkpt>
      <trkpt lat="37.063734" lon="-4.563908">
        <time>2021-08-24T12:27:24Z</time>
      </trkpt>
      <trkpt lat="37.059119" lon="-4.562979">
        <time>2021-08-24T12:27:45Z</time>
      </trkpt>
      <trkpt lat="37.054459" lon="-4.562122">
        <time>2021-08-24T12:28:06Z</time>
      </trkpt>
      <trkpt lat="37.053891" lon="-4.562195">
        <time>2021-08-24T12:28:09Z</time>
      </trkpt>
      <trkpt lat="37.051931" lon="-4.562664">
        <time>2021-08-24T12:28:21Z</time>
      </trkpt>
      <trkpt lat="37.049665" lon="-4.562484">
        <time>2021-08-24T12:28:33Z</time>
      </trkpt>
      <trkpt lat="37.044668" lon="-4.562047">
        <time>2021-08-24T12:28:57Z</time>
      </trkpt>
      <trkpt lat="37.039831" lon="-4.561635">
        <time>2021-08-24T12:29:18Z</time>
      </trkpt>
      <trkpt lat="37.034948" lon="-4.561218">
        <time>2021-08-24T12:29:39Z</time>
      </trkpt>
      <trkpt lat="37.030423" lon="-4.560875">
        <time>2021-08-24T12:30:03Z</time>
      </trkpt>
      <trkpt lat="37.030423" lon="-4.560875">
        <time>2021-08-24T12:30:03Z</time>
      </trkpt>
      <trkpt lat="37.029881" lon="-4.560863">
        <time>2021-08-24T12:30:09Z</time>
      </trkpt>
      <trkpt lat="37.029554" lon="-4.560803">
        <time>2021-08-24T12:30:12Z</time>
      </trkpt>
      <trkpt lat="37.02921" lon="-4.560894">
        <time>2021-08-24T12:30:15Z</time>
      </trkpt>
      <trkpt lat="37.028978" lon="-4.561169">
        <time>2021-08-24T12:30:18Z</time>
      </trkpt>
      <trkpt lat="37.028891" lon="-4.561595">
        <time>2021-08-24T12:30:21Z</time>
      </trkpt>
      <trkpt lat="37.028879" lon="-4.563784">
        <time>2021-08-24T12:30:33Z</time>
      </trkpt>
      <trkpt lat="37.028687" lon="-4.564124">
        <time>2021-08-24T12:30:36Z</time>
      </trkpt>
      <trkpt lat="37.028465" lon="-4.564247">
        <time>2021-08-24T12:30:39Z</time>
      </trkpt>
      <trkpt lat="37.02827" lon="-4.564211">
        <time>2021-08-24T12:30:51Z</time>
      </trkpt>
      <trkpt lat="37.028137" lon="-4.564178">
        <time>2021-08-24T12:31:06Z</time>
      </trkpt>
      <trkpt lat="37.028023" lon="-4.564341">
        <time>2021-08-24T12:31:09Z</time>
      </trkpt>
      <trkpt lat="37.028023" lon="-4.564341">
        <time>2021-08-24T12:31:09Z</time>
      </trkpt>
      <trkpt lat="37.027993" lon="-4.564695">
        <time>2021-08-24T12:31:12Z</time>
      </trkpt>
      <trkpt lat="37.028018" lon="-4.570325">
        <time>2021-08-24T12:31:36Z</time>
      </trkpt>
      <trkpt lat="37.027544" lon="-4.574722">
        <time>2021-08-24T12:31:54Z</time>
      </trkpt>
      <trkpt lat="37.027415" lon="-4.57565">
        <time>2021-08-24T12:32:03Z</time>
      </trkpt>
      <trkpt lat="37.02737" lon="-4.575865">
        <time>2021-08-24T12:32:06Z</time>
      </trkpt>
      <trkpt lat="37.027354" lon="-4.576066">
        <time>2021-08-24T12:32:09Z</time>
      </trkpt>
      <trkpt lat="37.027354" lon="-4.576066">
        <time>2021-08-24T12:32:09Z</time>
      </trkpt>
      <trkpt lat="37.027378" lon="-4.57628">
        <time>2021-08-24T12:32:15Z</time>
      </trkpt>
      <trkpt lat="37.027303" lon="-4.57634">
        <time>2021-08-24T12:32:18Z</time>
      </trkpt>
      <trkpt lat="37.027237" lon="-4.576387">
        <time>2021-08-24T12:32:21Z</time>
      </trkpt>
      <trkpt lat="37.027218" lon="-4.576361">
        <time>2021-08-24T12:32:24Z</time>
      </trkpt>
      <trkpt lat="37.027192" lon="-4.576347">
        <time>2021-08-24T12:32:27Z</time>
      </trkpt>
      <trkpt lat="37.027138" lon="-4.576386">
        <time>2021-08-24T12:32:36Z</time>
      </trkpt>
      <trkpt lat="37.027138" lon="-4.576386">
        <time>2021-08-24T12:32:37Z</time>
      </trkpt>
      <trkpt lat="37.027138" lon="-4.576386">
        <time>2021-08-24T12:32:37Z</time>
      </trkpt>
      <trkpt lat="37.027048" lon="-4.576476">
        <time>2021-08-24T12:38:28Z</time>
      </trkpt>
      <trkpt lat="37.027037" lon="-4.576465">
        <time>2021-08-24T12:39:56Z</time>
      </trkpt>
      <trkpt lat="37.027188" lon="-4.576416">
        <time>2021-08-24T12:41:25Z</time>
      </trkpt>
      <trkpt lat="37.027276" lon="-4.576335">
        <time>2021-08-24T12:41:28Z</time>
      </trkpt>
      <trkpt lat="37.0273" lon="-4.576215">
        <time>2021-08-24T12:41:31Z</time>
      </trkpt>
      <trkpt lat="37.027289" lon="-4.576137">
        <time>2021-08-24T12:41:34Z</time>
      </trkpt>
      <trkpt lat="37.026887" lon="-4.575472">
        <time>2021-08-24T12:41:52Z</time>
      </trkpt>
      <trkpt lat="37.026231" lon="-4.574844">
        <time>2021-08-24T12:42:01Z</time>
      </trkpt>
      <trkpt lat="37.025763" lon="-4.574195">
        <time>2021-08-24T12:42:13Z</time>
      </trkpt>
      <trkpt lat="37.025595" lon="-4.574161">
        <time>2021-08-24T12:42:16Z</time>
      </trkpt>
      <trkpt lat="37.025379" lon="-4.574234">
        <time>2021-08-24T12:42:22Z</time>
      </trkpt>
      <trkpt lat="37.024017" lon="-4.574721">
        <time>2021-08-24T12:42:43Z</time>
      </trkpt>
      <trkpt lat="37.021037" lon="-4.575782">
        <time>2021-08-24T12:43:19Z</time>
      </trkpt>
      <trkpt lat="37.020863" lon="-4.575894">
        <time>2021-08-24T12:43:22Z</time>
      </trkpt>
      <trkpt lat="37.020755" lon="-4.575768">
        <time>2021-08-24T12:43:25Z</time>
      </trkpt>
      <trkpt lat="37.020795" lon="-4.575524">
        <time>2021-08-24T12:43:28Z</time>
      </trkpt>
      <trkpt lat="37.020806" lon="-4.575267">
        <time>2021-08-24T12:43:31Z</time>
      </trkpt>
      <trkpt lat="37.020735" lon="-4.57483">
        <time>2021-08-24T12:43:40Z</time>
      </trkpt>
      <trkpt lat="37.020599" lon="-4.574371">
        <time>2021-08-24T12:43:49Z</time>
      </trkpt>
      <trkpt lat="37.019299" lon="-4.570677">
        <time>2021-08-24T12:44:22Z</time>
      </trkpt>
      <trkpt lat="37.019227" lon="-4.570415">
        <time>2021-08-24T12:44:25Z</time>
      </trkpt>
      <trkpt lat="37.018993" lon="-4.569751">
        <time>2021-08-24T12:44:31Z</time>
      </trkpt>
      <trkpt lat="37.018601" lon="-4.569065">
        <time>2021-08-24T12:44:37Z</time>
      </trkpt>
      <trkpt lat="37.017187" lon="-4.566217">
        <time>2021-08-24T12:45:07Z</time>
      </trkpt>
      <trkpt lat="37.017041" lon="-4.566224">
        <time>2021-08-24T12:45:10Z</time>
      </trkpt>
      <trkpt lat="37.016326" lon="-4.56646">
        <time>2021-08-24T12:45:28Z</time>
      </trkpt>
      <trkpt lat="37.016101" lon="-4.566633">
        <time>2021-08-24T12:45:37Z</time>
      </trkpt>
      <trkpt lat="37.015863" lon="-4.566834">
        <time>2021-08-24T12:46:10Z</time>
      </trkpt>
      <trkpt lat="37.015557" lon="-4.566936">
        <time>2021-08-24T12:46:13Z</time>
      </trkpt>
      <trkpt lat="37.015222" lon="-4.566904">
        <time>2021-08-24T12:46:16Z</time>
      </trkpt>
      <trkpt lat="37.015222" lon="-4.566904">
        <time>2021-08-24T12:46:16Z</time>
      </trkpt>
      <trkpt lat="37.013942" lon="-4.566207">
        <time>2021-08-24T12:46:28Z</time>
      </trkpt>
      <trkpt lat="37.013387" lon="-4.565538">
        <time>2021-08-24T12:46:34Z</time>
      </trkpt>
      <trkpt lat="37.013064" lon="-4.565505">
        <time>2021-08-24T12:46:37Z</time>
      </trkpt>
      <trkpt lat="37.012423" lon="-4.565414">
        <time>2021-08-24T12:46:43Z</time>
      </trkpt>
      <trkpt lat="37.012225" lon="-4.565075">
        <time>2021-08-24T12:46:46Z</time>
      </trkpt>
      <trkpt lat="37.01145" lon="-4.563828">
        <time>2021-08-24T12:46:55Z</time>
      </trkpt>
      <trkpt lat="37.010324" lon="-4.561922">
        <time>2021-08-24T12:47:07Z</time>
      </trkpt>
      <trkpt lat="37.008899" lon="-4.560501">
        <time>2021-08-24T12:47:19Z</time>
      </trkpt>
      <trkpt lat="37.008527" lon="-4.560444">
        <time>2021-08-24T12:47:22Z</time>
      </trkpt>
      <trkpt lat="37.008094" lon="-4.560512">
        <time>2021-08-24T12:47:25Z</time>
      </trkpt>
      <trkpt lat="37.007189" lon="-4.560429">
        <time>2021-08-24T12:47:31Z</time>
      </trkpt>
      <trkpt lat="37.006722" lon="-4.560447">
        <time>2021-08-24T12:47:34Z</time>
      </trkpt>
      <trkpt lat="37.005248" lon="-4.560684">
        <time>2021-08-24T12:47:43Z</time>
      </trkpt>
      <trkpt lat="37.004818" lon="-4.560522">
        <time>2021-08-24T12:47:46Z</time>
      </trkpt>
      <trkpt lat="37.003628" lon="-4.559782">
        <time>2021-08-24T12:47:55Z</time>
      </trkpt>
      <trkpt lat="37.002925" lon="-4.559091">
        <time>2021-08-24T12:48:01Z</time>
      </trkpt>
      <trkpt lat="37.002925" lon="-4.559091">
        <time>2021-08-24T12:48:01Z</time>
      </trkpt>
      <trkpt lat="37.002925" lon="-4.559091">
        <time>2021-08-24T12:48:01Z</time>
      </trkpt>
      <trkpt lat="37.002925" lon="-4.559091">
        <time>2021-08-24T12:48:01Z</time>
      </trkpt>
      <trkpt lat="37.002514" lon="-4.558761">
        <time>2021-08-24T12:48:04Z</time>
      </trkpt>
      <trkpt lat="37.002514" lon="-4.558761">
        <time>2021-08-24T12:48:04Z</time>
      </trkpt>
      <trkpt lat="37.002052" lon="-4.558606">
        <time>2021-08-24T12:48:07Z</time>
      </trkpt>
      <trkpt lat="37.000969" lon="-4.558427">
        <time>2021-08-24T12:48:16Z</time>
      </trkpt>
      <trkpt lat="37.000808" lon="-4.558067">
        <time>2021-08-24T12:48:19Z</time>
      </trkpt>
      <trkpt lat="37.00073" lon="-4.557246">
        <time>2021-08-24T12:48:25Z</time>
      </trkpt>
      <trkpt lat="37.000922" lon="-4.556941">
        <time>2021-08-24T12:48:28Z</time>
      </trkpt>
      <trkpt lat="37.001119" lon="-4.556476">
        <time>2021-08-24T12:48:31Z</time>
      </trkpt>
      <trkpt lat="37.001119" lon="-4.556476">
        <time>2021-08-24T12:48:31Z</time>
      </trkpt>
      <trkpt lat="37.001205" lon="-4.555513">
        <time>2021-08-24T12:48:37Z</time>
      </trkpt>
      <trkpt lat="37.000782" lon="-4.55463">
        <time>2021-08-24T12:48:43Z</time>
      </trkpt>
      <trkpt lat="37.000422" lon="-4.554486">
        <time>2021-08-24T12:48:46Z</time>
      </trkpt>
      <trkpt lat="36.997794" lon="-4.553697">
        <time>2021-08-24T12:49:04Z</time>
      </trkpt>
      <trkpt lat="36.997794" lon="-4.553697">
        <time>2021-08-24T12:49:04Z</time>
      </trkpt>
      <trkpt lat="36.997406" lon="-4.553488">
        <time>2021-08-24T12:49:07Z</time>
      </trkpt>
      <trkpt lat="36.99702" lon="-4.553222">
        <time>2021-08-24T12:49:10Z</time>
      </trkpt>
      <trkpt lat="36.996699" lon="-4.552809">
        <time>2021-08-24T12:49:13Z</time>
      </trkpt>
      <trkpt lat="36.996521" lon="-4.55229">
        <time>2021-08-24T12:49:16Z</time>
      </trkpt>
      <trkpt lat="36.996168" lon="-4.551403">
        <time>2021-08-24T12:49:22Z</time>
      </trkpt>
      <trkpt lat="36.995869" lon="-4.551146">
        <time>2021-08-24T12:49:25Z</time>
      </trkpt>
      <trkpt lat="36.995121" lon="-4.550542">
        <time>2021-08-24T12:49:31Z</time>
      </trkpt>
      <trkpt lat="36.994261" lon="-4.549414">
        <time>2021-08-24T12:49:37Z</time>
      </trkpt>
      <trkpt lat="36.993554" lon="-4.548207">
        <time>2021-08-24T12:49:43Z</time>
      </trkpt>
      <trkpt lat="36.993554" lon="-4.548207">
        <time>2021-08-24T12:49:43Z</time>
      </trkpt>
      <trkpt lat="36.993554" lon="-4.548207">
        <time>2021-08-24T12:49:43Z</time>
      </trkpt>
      <trkpt lat="36.993554" lon="-4.548207">
        <time>2021-08-24T12:49:43Z</time>
      </trkpt>
      <trkpt lat="36.992078" lon="-4.545202">
        <time>2021-08-24T12:49:58Z</time>
      </trkpt>
      <trkpt lat="36.992018" lon="-4.544593">
        <time>2021-08-24T12:50:01Z</time>
      </trkpt>
      <trkpt lat="36.991875" lon="-4.544074">
        <time>2021-08-24T12:50:04Z</time>
      </trkpt>
      <trkpt lat="36.990587" lon="-4.542274">
        <time>2021-08-24T12:50:16Z</time>
      </trkpt>
      <trkpt lat="36.990135" lon="-4.542161">
        <time>2021-08-24T12:50:19Z</time>
      </trkpt>
      <trkpt lat="36.988162" lon="-4.541546">
        <time>2021-08-24T12:50:31Z</time>
      </trkpt>
      <trkpt lat="36.988162" lon="-4.541546">
        <time>2021-08-24T12:50:31Z</time>
      </trkpt>
      <trkpt lat="36.9873" lon="-4.5409">
        <time>2021-08-24T12:50:37Z</time>
      </trkpt>
      <trkpt lat="36.987121" lon="-4.540449">
        <time>2021-08-24T12:50:40Z</time>
      </trkpt>
      <trkpt lat="36.986943" lon="-4.536369">
        <time>2021-08-24T12:50:58Z</time>
      </trkpt>
      <trkpt lat="36.986756" lon="-4.532968">
        <time>2021-08-24T12:51:13Z</time>
      </trkpt>
      <trkpt lat="36.986413" lon="-4.531844">
        <time>2021-08-24T12:51:19Z</time>
      </trkpt>
      <trkpt lat="36.986507" lon="-4.531235">
        <time>2021-08-24T12:51:22Z</time>
      </trkpt>
      <trkpt lat="36.98658" lon="-4.530604">
        <time>2021-08-24T12:51:25Z</time>
      </trkpt>
      <trkpt lat="36.98658" lon="-4.530604">
        <time>2021-08-24T12:51:25Z</time>
      </trkpt>
      <trkpt lat="36.986635" lon="-4.529578">
        <time>2021-08-24T12:51:31Z</time>
      </trkpt>
      <trkpt lat="36.986965" lon="-4.52927">
        <time>2021-08-24T12:51:34Z</time>
      </trkpt>
      <trkpt lat="36.987237" lon="-4.528923">
        <time>2021-08-24T12:51:37Z</time>
      </trkpt>
      <trkpt lat="36.987218" lon="-4.52863">
        <time>2021-08-24T12:51:40Z</time>
      </trkpt>
      <trkpt lat="36.986981" lon="-4.528439">
        <time>2021-08-24T12:51:43Z</time>
      </trkpt>
      <trkpt lat="36.986746" lon="-4.528059">
        <time>2021-08-24T12:51:46Z</time>
      </trkpt>
      <trkpt lat="36.985785" lon="-4.525871">
        <time>2021-08-24T12:51:58Z</time>
      </trkpt>
      <trkpt lat="36.984237" lon="-4.523027">
        <time>2021-08-24T12:52:13Z</time>
      </trkpt>
      <trkpt lat="36.983674" lon="-4.520958">
        <time>2021-08-24T12:52:22Z</time>
      </trkpt>
      <trkpt lat="36.983444" lon="-4.51954">
        <time>2021-08-24T12:52:28Z</time>
      </trkpt>
      <trkpt lat="36.983205" lon="-4.515575">
        <time>2021-08-24T12:52:46Z</time>
      </trkpt>
      <trkpt lat="36.983026" lon="-4.514938">
        <time>2021-08-24T12:52:49Z</time>
      </trkpt>
      <trkpt lat="36.981232" lon="-4.510218">
        <time>2021-08-24T12:53:13Z</time>
      </trkpt>
      <trkpt lat="36.981222" lon="-4.50965">
        <time>2021-08-24T12:53:16Z</time>
      </trkpt>
      <trkpt lat="36.98104" lon="-4.509186">
        <time>2021-08-24T12:53:19Z</time>
      </trkpt>
      <trkpt lat="36.980377" lon="-4.508386">
        <time>2021-08-24T12:53:25Z</time>
      </trkpt>
      <trkpt lat="36.979754" lon="-4.50756">
        <time>2021-08-24T12:53:31Z</time>
      </trkpt>
      <trkpt lat="36.978154" lon="-4.505109">
        <time>2021-08-24T12:53:49Z</time>
      </trkpt>
      <trkpt lat="36.975457" lon="-4.50004">
        <time>2021-08-24T12:54:13Z</time>
      </trkpt>
      <trkpt lat="36.973796" lon="-4.496669">
        <time>2021-08-24T12:54:31Z</time>
      </trkpt>
      <trkpt lat="36.973747" lon="-4.496107">
        <time>2021-08-24T12:54:34Z</time>
      </trkpt>
      <trkpt lat="36.97393" lon="-4.49509">
        <time>2021-08-24T12:54:40Z</time>
      </trkpt>
      <trkpt lat="36.974042" lon="-4.494763">
        <time>2021-08-24T12:54:43Z</time>
      </trkpt>
      <trkpt lat="36.974042" lon="-4.494763">
        <time>2021-08-24T12:54:43Z</time>
      </trkpt>
      <trkpt lat="36.973945" lon="-4.494675">
        <time>2021-08-24T12:54:46Z</time>
      </trkpt>
      <trkpt lat="36.973718" lon="-4.494859">
        <time>2021-08-24T12:54:49Z</time>
      </trkpt>
      <trkpt lat="36.973311" lon="-4.495045">
        <time>2021-08-24T12:54:55Z</time>
      </trkpt>
      <trkpt lat="36.973377" lon="-4.494805">
        <time>2021-08-24T12:54:58Z</time>
      </trkpt>
      <trkpt lat="36.973743" lon="-4.493846">
        <time>2021-08-24T12:55:04Z</time>
      </trkpt>
      <trkpt lat="36.973768" lon="-4.492393">
        <time>2021-08-24T12:55:13Z</time>
      </trkpt>
      <trkpt lat="36.973642" lon="-4.492445">
        <time>2021-08-24T12:55:16Z</time>
      </trkpt>
      <trkpt lat="36.973536" lon="-4.492749">
        <time>2021-08-24T12:55:19Z</time>
      </trkpt>
      <trkpt lat="36.973381" lon="-4.493711">
        <time>2021-08-24T12:55:25Z</time>
      </trkpt>
      <trkpt lat="36.973132" lon="-4.494213">
        <time>2021-08-24T12:55:28Z</time>
      </trkpt>
      <trkpt lat="36.973132" lon="-4.494213">
        <time>2021-08-24T12:55:28Z</time>
      </trkpt>
      <trkpt lat="36.97181" lon="-4.496447">
        <time>2021-08-24T12:55:40Z</time>
      </trkpt>
      <trkpt lat="36.971522" lon="-4.496939">
        <time>2021-08-24T12:55:43Z</time>
      </trkpt>
      <trkpt lat="36.971221" lon="-4.497424">
        <time>2021-08-24T12:55:46Z</time>
      </trkpt>
      <trkpt lat="36.970315" lon="-4.499243">
        <time>2021-08-24T12:55:55Z</time>
      </trkpt>
      <trkpt lat="36.969747" lon="-4.500463">
        <time>2021-08-24T12:56:04Z</time>
      </trkpt>
      <trkpt lat="36.969965" lon="-4.500471">
        <time>2021-08-24T12:56:07Z</time>
      </trkpt>
      <trkpt lat="36.970268" lon="-4.500387">
        <time>2021-08-24T12:56:10Z</time>
      </trkpt>
      <trkpt lat="36.97043" lon="-4.500516">
        <time>2021-08-24T12:56:13Z</time>
      </trkpt>
      <trkpt lat="36.970339" lon="-4.500757">
        <time>2021-08-24T12:56:16Z</time>
      </trkpt>
      <trkpt lat="36.969302" lon="-4.501995">
        <time>2021-08-24T12:56:25Z</time>
      </trkpt>
      <trkpt lat="36.968655" lon="-4.503107">
        <time>2021-08-24T12:56:31Z</time>
      </trkpt>
      <trkpt lat="36.968655" lon="-4.503107">
        <time>2021-08-24T12:56:31Z</time>
      </trkpt>
      <trkpt lat="36.968237" lon="-4.503552">
        <time>2021-08-24T12:56:34Z</time>
      </trkpt>
      <trkpt lat="36.967565" lon="-4.504355">
        <time>2021-08-24T12:56:40Z</time>
      </trkpt>
      <trkpt lat="36.966555" lon="-4.50666">
        <time>2021-08-24T12:56:52Z</time>
      </trkpt>
      <trkpt lat="36.966177" lon="-4.507788">
        <time>2021-08-24T12:56:58Z</time>
      </trkpt>
      <trkpt lat="36.965891" lon="-4.508363">
        <time>2021-08-24T12:57:01Z</time>
      </trkpt>
      <trkpt lat="36.963419" lon="-4.512464">
        <time>2021-08-24T12:57:28Z</time>
      </trkpt>
      <trkpt lat="36.96174" lon="-4.515207">
        <time>2021-08-24T12:57:43Z</time>
      </trkpt>
      <trkpt lat="36.961312" lon="-4.515544">
        <time>2021-08-24T12:57:46Z</time>
      </trkpt>
      <trkpt lat="36.960636" lon="-4.516277">
        <time>2021-08-24T12:57:52Z</time>
      </trkpt>
      <trkpt lat="36.960307" lon="-4.516781">
        <time>2021-08-24T12:57:55Z</time>
      </trkpt>
      <trkpt lat="36.959888" lon="-4.51716">
        <time>2021-08-24T12:57:58Z</time>
      </trkpt>
      <trkpt lat="36.959614" lon="-4.517467">
        <time>2021-08-24T12:58:01Z</time>
      </trkpt>
      <trkpt lat="36.959234" lon="-4.51805">
        <time>2021-08-24T12:58:07Z</time>
      </trkpt>
      <trkpt lat="36.958648" lon="-4.518539">
        <time>2021-08-24T12:58:13Z</time>
      </trkpt>
      <trkpt lat="36.958335" lon="-4.519344">
        <time>2021-08-24T12:58:19Z</time>
      </trkpt>
      <trkpt lat="36.957973" lon="-4.519416">
        <time>2021-08-24T12:58:22Z</time>
      </trkpt>
      <trkpt lat="36.957549" lon="-4.519505">
        <time>2021-08-24T12:58:25Z</time>
      </trkpt>
      <trkpt lat="36.957152" lon="-4.519805">
        <time>2021-08-24T12:58:28Z</time>
      </trkpt>
      <trkpt lat="36.956837" lon="-4.52027">
        <time>2021-08-24T12:58:31Z</time>
      </trkpt>
      <trkpt lat="36.956837" lon="-4.52027">
        <time>2021-08-24T12:58:31Z</time>
      </trkpt>
      <trkpt lat="36.955718" lon="-4.521882">
        <time>2021-08-24T12:58:40Z</time>
      </trkpt>
      <trkpt lat="36.955337" lon="-4.522362">
        <time>2021-08-24T12:58:43Z</time>
      </trkpt>
      <trkpt lat="36.953894" lon="-4.524585">
        <time>2021-08-24T12:58:55Z</time>
      </trkpt>
      <trkpt lat="36.953894" lon="-4.524585">
        <time>2021-08-24T12:58:55Z</time>
      </trkpt>
      <trkpt lat="36.953894" lon="-4.524585">
        <time>2021-08-24T12:58:55Z</time>
      </trkpt>
      <trkpt lat="36.953648" lon="-4.525101">
        <time>2021-08-24T12:58:58Z</time>
      </trkpt>
      <trkpt lat="36.953005" lon="-4.52688">
        <time>2021-08-24T12:59:07Z</time>
      </trkpt>
      <trkpt lat="36.952567" lon="-4.528105">
        <time>2021-08-24T12:59:13Z</time>
      </trkpt>
      <trkpt lat="36.952358" lon="-4.528546">
        <time>2021-08-24T12:59:16Z</time>
      </trkpt>
      <trkpt lat="36.951346" lon="-4.529623">
        <time>2021-08-24T12:59:25Z</time>
      </trkpt>
      <trkpt lat="36.951346" lon="-4.529623">
        <time>2021-08-24T12:59:25Z</time>
      </trkpt>
      <trkpt lat="36.950965" lon="-4.529661">
        <time>2021-08-24T12:59:28Z</time>
      </trkpt>
      <trkpt lat="36.950593" lon="-4.52975">
        <time>2021-08-24T12:59:31Z</time>
      </trkpt>
      <trkpt lat="36.950359" lon="-4.53013">
        <time>2021-08-24T12:59:34Z</time>
      </trkpt>
      <trkpt lat="36.949603" lon="-4.531754">
        <time>2021-08-24T12:59:43Z</time>
      </trkpt>
      <trkpt lat="36.948755" lon="-4.532532">
        <time>2021-08-24T12:59:49Z</time>
      </trkpt>
      <trkpt lat="36.948145" lon="-4.532988">
        <time>2021-08-24T12:59:55Z</time>
      </trkpt>
      <trkpt lat="36.948024" lon="-4.533427">
        <time>2021-08-24T12:59:58Z</time>
      </trkpt>
      <trkpt lat="36.947847" lon="-4.533863">
        <time>2021-08-24T13:00:01Z</time>
      </trkpt>
      <trkpt lat="36.947486" lon="-4.534077">
        <time>2021-08-24T13:00:04Z</time>
      </trkpt>
      <trkpt lat="36.947092" lon="-4.534266">
        <time>2021-08-24T13:00:07Z</time>
      </trkpt>
      <trkpt lat="36.946833" lon="-4.534655">
        <time>2021-08-24T13:00:10Z</time>
      </trkpt>
      <trkpt lat="36.945725" lon="-4.536395">
        <time>2021-08-24T13:00:22Z</time>
      </trkpt>
      <trkpt lat="36.945078" lon="-4.5368">
        <time>2021-08-24T13:00:28Z</time>
      </trkpt>
      <trkpt lat="36.944942" lon="-4.536665">
        <time>2021-08-24T13:00:31Z</time>
      </trkpt>
      <trkpt lat="36.944941" lon="-4.536351">
        <time>2021-08-24T13:00:34Z</time>
      </trkpt>
      <trkpt lat="36.944941" lon="-4.536351">
        <time>2021-08-24T13:00:34Z</time>
      </trkpt>
      <trkpt lat="36.944847" lon="-4.536145">
        <time>2021-08-24T13:00:37Z</time>
      </trkpt>
      <trkpt lat="36.9446" lon="-4.536204">
        <time>2021-08-24T13:00:40Z</time>
      </trkpt>
      <trkpt lat="36.94389" lon="-4.536361">
        <time>2021-08-24T13:00:46Z</time>
      </trkpt>
      <trkpt lat="36.943673" lon="-4.53614">
        <time>2021-08-24T13:00:49Z</time>
      </trkpt>
      <trkpt lat="36.943598" lon="-4.53571">
        <time>2021-08-24T13:00:52Z</time>
      </trkpt>
      <trkpt lat="36.943476" lon="-4.534897">
        <time>2021-08-24T13:00:58Z</time>
      </trkpt>
      <trkpt lat="36.943143" lon="-4.534778">
        <time>2021-08-24T13:01:01Z</time>
      </trkpt>
      <trkpt lat="36.942376" lon="-4.534842">
        <time>2021-08-24T13:01:07Z</time>
      </trkpt>
      <trkpt lat="36.942213" lon="-4.53509">
        <time>2021-08-24T13:01:10Z</time>
      </trkpt>
      <trkpt lat="36.942094" lon="-4.535749">
        <time>2021-08-24T13:01:16Z</time>
      </trkpt>
      <trkpt lat="36.94192" lon="-4.535666">
        <time>2021-08-24T13:01:19Z</time>
      </trkpt>
      <trkpt lat="36.94192" lon="-4.535666">
        <time>2021-08-24T13:01:19Z</time>
      </trkpt>
      <trkpt lat="36.941787" lon="-4.535258">
        <time>2021-08-24T13:01:22Z</time>
      </trkpt>
      <trkpt lat="36.940986" lon="-4.532527">
        <time>2021-08-24T13:01:37Z</time>
      </trkpt>
      <trkpt lat="36.94069" lon="-4.532478">
        <time>2021-08-24T13:01:40Z</time>
      </trkpt>
      <trkpt lat="36.940349" lon="-4.53265">
        <time>2021-08-24T13:01:43Z</time>
      </trkpt>
      <trkpt lat="36.940028" lon="-4.532884">
        <time>2021-08-24T13:01:46Z</time>
      </trkpt>
      <trkpt lat="36.939654" lon="-4.532871">
        <time>2021-08-24T13:01:49Z</time>
      </trkpt>
      <trkpt lat="36.939338" lon="-4.532594">
        <time>2021-08-24T13:01:52Z</time>
      </trkpt>
      <trkpt lat="36.939077" lon="-4.532153">
        <time>2021-08-24T13:01:55Z</time>
      </trkpt>
      <trkpt lat="36.938088" lon="-4.530941">
        <time>2021-08-24T13:02:04Z</time>
      </trkpt>
      <trkpt lat="36.937775" lon="-4.530514">
        <time>2021-08-24T13:02:07Z</time>
      </trkpt>
      <trkpt lat="36.937068" lon="-4.529511">
        <time>2021-08-24T13:02:16Z</time>
      </trkpt>
      <trkpt lat="36.936688" lon="-4.529592">
        <time>2021-08-24T13:02:19Z</time>
      </trkpt>
      <trkpt lat="36.936336" lon="-4.529913">
        <time>2021-08-24T13:02:22Z</time>
      </trkpt>
      <trkpt lat="36.935998" lon="-4.53022">
        <time>2021-08-24T13:02:25Z</time>
      </trkpt>
      <trkpt lat="36.935679" lon="-4.530228">
        <time>2021-08-24T13:02:28Z</time>
      </trkpt>
      <trkpt lat="36.935679" lon="-4.530228">
        <time>2021-08-24T13:02:28Z</time>
      </trkpt>
      <trkpt lat="36.934998" lon="-4.529708">
        <time>2021-08-24T13:02:34Z</time>
      </trkpt>
      <trkpt lat="36.934857" lon="-4.529294">
        <time>2021-08-24T13:02:37Z</time>
      </trkpt>
      <trkpt lat="36.934836" lon="-4.528607">
        <time>2021-08-24T13:02:43Z</time>
      </trkpt>
      <trkpt lat="36.934537" lon="-4.528588">
        <time>2021-08-24T13:02:46Z</time>
      </trkpt>
      <trkpt lat="36.933753" lon="-4.5285">
        <time>2021-08-24T13:02:52Z</time>
      </trkpt>
      <trkpt lat="36.933517" lon="-4.528206">
        <time>2021-08-24T13:02:55Z</time>
      </trkpt>
      <trkpt lat="36.933393" lon="-4.527893">
        <time>2021-08-24T13:02:58Z</time>
      </trkpt>
      <trkpt lat="36.93319" lon="-4.527884">
        <time>2021-08-24T13:03:01Z</time>
      </trkpt>
      <trkpt lat="36.932957" lon="-4.528147">
        <time>2021-08-24T13:03:04Z</time>
      </trkpt>
      <trkpt lat="36.932546" lon="-4.528692">
        <time>2021-08-24T13:03:10Z</time>
      </trkpt>
      <trkpt lat="36.932248" lon="-4.528982">
        <time>2021-08-24T13:03:16Z</time>
      </trkpt>
      <trkpt lat="36.932086" lon="-4.528892">
        <time>2021-08-24T13:03:19Z</time>
      </trkpt>
      <trkpt lat="36.931878" lon="-4.528726">
        <time>2021-08-24T13:03:22Z</time>
      </trkpt>
      <trkpt lat="36.931627" lon="-4.528282">
        <time>2021-08-24T13:03:28Z</time>
      </trkpt>
      <trkpt lat="36.931225" lon="-4.527806">
        <time>2021-08-24T13:03:34Z</time>
      </trkpt>
      <trkpt lat="36.930351" lon="-4.527475">
        <time>2021-08-24T13:03:43Z</time>
      </trkpt>
      <trkpt lat="36.929853" lon="-4.527583">
        <time>2021-08-24T13:03:49Z</time>
      </trkpt>
      <trkpt lat="36.929706" lon="-4.527898">
        <time>2021-08-24T13:03:52Z</time>
      </trkpt>
      <trkpt lat="36.929327" lon="-4.528479">
        <time>2021-08-24T13:03:58Z</time>
      </trkpt>
      <trkpt lat="36.92906" lon="-4.528607">
        <time>2021-08-24T13:04:01Z</time>
      </trkpt>
      <trkpt lat="36.928756" lon="-4.528587">
        <time>2021-08-24T13:04:04Z</time>
      </trkpt>
      <trkpt lat="36.928756" lon="-4.528587">
        <time>2021-08-24T13:04:04Z</time>
      </trkpt>
      <trkpt lat="36.928135" lon="-4.52841">
        <time>2021-08-24T13:04:10Z</time>
      </trkpt>
      <trkpt lat="36.927688" lon="-4.528313">
        <time>2021-08-24T13:04:16Z</time>
      </trkpt>
      <trkpt lat="36.927343" lon="-4.528192">
        <time>2021-08-24T13:04:19Z</time>
      </trkpt>
      <trkpt lat="36.926498" lon="-4.528397">
        <time>2021-08-24T13:04:25Z</time>
      </trkpt>
      <trkpt lat="36.926209" lon="-4.528401">
        <time>2021-08-24T13:04:28Z</time>
      </trkpt>
      <trkpt lat="36.925995" lon="-4.528115">
        <time>2021-08-24T13:04:31Z</time>
      </trkpt>
      <trkpt lat="36.925439" lon="-4.527512">
        <time>2021-08-24T13:04:37Z</time>
      </trkpt>
      <trkpt lat="36.92531" lon="-4.527314">
        <time>2021-08-24T13:04:40Z</time>
      </trkpt>
      <trkpt lat="36.925435" lon="-4.527117">
        <time>2021-08-24T13:04:43Z</time>
      </trkpt>
      <trkpt lat="36.925907" lon="-4.526844">
        <time>2021-08-24T13:04:49Z</time>
      </trkpt>
      <trkpt lat="36.925907" lon="-4.526844">
        <time>2021-08-24T13:04:49Z</time>
      </trkpt>
      <trkpt lat="36.925845" lon="-4.526624">
        <time>2021-08-24T13:04:52Z</time>
      </trkpt>
      <trkpt lat="36.924942" lon="-4.52585">
        <time>2021-08-24T13:05:01Z</time>
      </trkpt>
      <trkpt lat="36.924666" lon="-4.52553">
        <time>2021-08-24T13:05:04Z</time>
      </trkpt>
      <trkpt lat="36.924413" lon="-4.525369">
        <time>2021-08-24T13:05:07Z</time>
      </trkpt>
      <trkpt lat="36.92413" lon="-4.525518">
        <time>2021-08-24T13:05:10Z</time>
      </trkpt>
      <trkpt lat="36.923445" lon="-4.526053">
        <time>2021-08-24T13:05:16Z</time>
      </trkpt>
      <trkpt lat="36.923009" lon="-4.52611">
        <time>2021-08-24T13:05:19Z</time>
      </trkpt>
      <trkpt lat="36.92194" lon="-4.526046">
        <time>2021-08-24T13:05:25Z</time>
      </trkpt>
      <trkpt lat="36.921048" lon="-4.525888">
        <time>2021-08-24T13:05:31Z</time>
      </trkpt>
      <trkpt lat="36.920375" lon="-4.525423">
        <time>2021-08-24T13:05:37Z</time>
      </trkpt>
      <trkpt lat="36.919013" lon="-4.525546">
        <time>2021-08-24T13:05:46Z</time>
      </trkpt>
      <trkpt lat="36.91846" lon="-4.52579">
        <time>2021-08-24T13:05:52Z</time>
      </trkpt>
      <trkpt lat="36.918427" lon="-4.525557">
        <time>2021-08-24T13:05:55Z</time>
      </trkpt>
      <trkpt lat="36.918629" lon="-4.524939">
        <time>2021-08-24T13:06:01Z</time>
      </trkpt>
      <trkpt lat="36.918409" lon="-4.524837">
        <time>2021-08-24T13:06:04Z</time>
      </trkpt>
      <trkpt lat="36.918409" lon="-4.524837">
        <time>2021-08-24T13:06:04Z</time>
      </trkpt>
      <trkpt lat="36.918102" lon="-4.52474">
        <time>2021-08-24T13:06:07Z</time>
      </trkpt>
      <trkpt lat="36.917235" lon="-4.524266">
        <time>2021-08-24T13:06:16Z</time>
      </trkpt>
      <trkpt lat="36.917036" lon="-4.523899">
        <time>2021-08-24T13:06:19Z</time>
      </trkpt>
      <trkpt lat="36.916792" lon="-4.523514">
        <time>2021-08-24T13:06:25Z</time>
      </trkpt>
      <trkpt lat="36.915535" lon="-4.523698">
        <time>2021-08-24T13:06:34Z</time>
      </trkpt>
      <trkpt lat="36.914283" lon="-4.523607">
        <time>2021-08-24T13:06:40Z</time>
      </trkpt>
      <trkpt lat="36.909419" lon="-4.523077">
        <time>2021-08-24T13:07:04Z</time>
      </trkpt>
      <trkpt lat="36.908304" lon="-4.523295">
        <time>2021-08-24T13:07:10Z</time>
      </trkpt>
      <trkpt lat="36.907843" lon="-4.52355">
        <time>2021-08-24T13:07:13Z</time>
      </trkpt>
      <trkpt lat="36.905384" lon="-4.525527">
        <time>2021-08-24T13:07:28Z</time>
      </trkpt>
      <trkpt lat="36.904416" lon="-4.525861">
        <time>2021-08-24T13:07:34Z</time>
      </trkpt>
      <trkpt lat="36.903426" lon="-4.525891">
        <time>2021-08-24T13:07:40Z</time>
      </trkpt>
      <trkpt lat="36.90182" lon="-4.526711">
        <time>2021-08-24T13:07:49Z</time>
      </trkpt>
      <trkpt lat="36.900587" lon="-4.526949">
        <time>2021-08-24T13:07:55Z</time>
      </trkpt>
      <trkpt lat="36.899033" lon="-4.527152">
        <time>2021-08-24T13:08:04Z</time>
      </trkpt>
      <trkpt lat="36.898757" lon="-4.5269">
        <time>2021-08-24T13:08:07Z</time>
      </trkpt>
      <trkpt lat="36.898593" lon="-4.526394">
        <time>2021-08-24T13:08:10Z</time>
      </trkpt>
      <trkpt lat="36.898511" lon="-4.525725">
        <time>2021-08-24T13:08:13Z</time>
      </trkpt>
      <trkpt lat="36.898494" lon="-4.52384">
        <time>2021-08-24T13:08:22Z</time>
      </trkpt>
      <trkpt lat="36.898147" lon="-4.523358">
        <time>2021-08-24T13:08:25Z</time>
      </trkpt>
      <trkpt lat="36.895225" lon="-4.518461">
        <time>2021-08-24T13:08:46Z</time>
      </trkpt>
      <trkpt lat="36.893338" lon="-4.516055">
        <time>2021-08-24T13:08:58Z</time>
      </trkpt>
      <trkpt lat="36.892862" lon="-4.515681">
        <time>2021-08-24T13:09:01Z</time>
      </trkpt>
      <trkpt lat="36.891664" lon="-4.515447">
        <time>2021-08-24T13:09:07Z</time>
      </trkpt>
      <trkpt lat="36.891131" lon="-4.515628">
        <time>2021-08-24T13:09:10Z</time>
      </trkpt>
      <trkpt lat="36.891131" lon="-4.515628">
        <time>2021-08-24T13:09:10Z</time>
      </trkpt>
      <trkpt lat="36.890706" lon="-4.515833">
        <time>2021-08-24T13:09:13Z</time>
      </trkpt>
      <trkpt lat="36.890246" lon="-4.515764">
        <time>2021-08-24T13:09:16Z</time>
      </trkpt>
      <trkpt lat="36.889365" lon="-4.515264">
        <time>2021-08-24T13:09:22Z</time>
      </trkpt>
      <trkpt lat="36.888333" lon="-4.51453">
        <time>2021-08-24T13:09:28Z</time>
      </trkpt>
      <trkpt lat="36.887812" lon="-4.514461">
        <time>2021-08-24T13:09:31Z</time>
      </trkpt>
      <trkpt lat="36.887056" lon="-4.514421">
        <time>2021-08-24T13:09:37Z</time>
      </trkpt>
      <trkpt lat="36.886725" lon="-4.514068">
        <time>2021-08-24T13:09:40Z</time>
      </trkpt>
      <trkpt lat="36.886545" lon="-4.513642">
        <time>2021-08-24T13:09:43Z</time>
      </trkpt>
      <trkpt lat="36.886402" lon="-4.513311">
        <time>2021-08-24T13:09:46Z</time>
      </trkpt>
      <trkpt lat="36.886167" lon="-4.51334">
        <time>2021-08-24T13:09:49Z</time>
      </trkpt>
      <trkpt lat="36.885984" lon="-4.513706">
        <time>2021-08-24T13:09:52Z</time>
      </trkpt>
      <trkpt lat="36.885509" lon="-4.514674">
        <time>2021-08-24T13:09:58Z</time>
      </trkpt>
      <trkpt lat="36.885233" lon="-4.514952">
        <time>2021-08-24T13:10:01Z</time>
      </trkpt>
      <trkpt lat="36.885008" lon="-4.514913">
        <time>2021-08-24T13:10:04Z</time>
      </trkpt>
      <trkpt lat="36.884901" lon="-4.514584">
        <time>2021-08-24T13:10:07Z</time>
      </trkpt>
      <trkpt lat="36.884339" lon="-4.512497">
        <time>2021-08-24T13:10:25Z</time>
      </trkpt>
      <trkpt lat="36.884339" lon="-4.512497">
        <time>2021-08-24T13:10:25Z</time>
      </trkpt>
      <trkpt lat="36.883759" lon="-4.511707">
        <time>2021-08-24T13:10:31Z</time>
      </trkpt>
      <trkpt lat="36.883131" lon="-4.511115">
        <time>2021-08-24T13:10:40Z</time>
      </trkpt>
      <trkpt lat="36.883645" lon="-4.509698">
        <time>2021-08-24T13:10:52Z</time>
      </trkpt>
      <trkpt lat="36.883663" lon="-4.509508">
        <time>2021-08-24T13:11:01Z</time>
      </trkpt>
      <trkpt lat="36.883803" lon="-4.509556">
        <time>2021-08-24T13:11:07Z</time>
      </trkpt>
      <trkpt lat="36.883975" lon="-4.509582">
        <time>2021-08-24T13:11:10Z</time>
      </trkpt>
      <trkpt lat="36.884781" lon="-4.509639">
        <time>2021-08-24T13:11:22Z</time>
      </trkpt>
      <trkpt lat="36.884837" lon="-4.50927">
        <time>2021-08-24T13:11:25Z</time>
      </trkpt>
      <trkpt lat="36.884935" lon="-4.508592">
        <time>2021-08-24T13:11:28Z</time>
      </trkpt>
      <trkpt lat="36.885463" lon="-4.503068">
        <time>2021-08-24T13:11:49Z</time>
      </trkpt>
      <trkpt lat="36.885543" lon="-4.502592">
        <time>2021-08-24T13:11:52Z</time>
      </trkpt>
      <trkpt lat="36.885543" lon="-4.502592">
        <time>2021-08-24T13:11:52Z</time>
      </trkpt>
      <trkpt lat="36.885573" lon="-4.501731">
        <time>2021-08-24T13:11:58Z</time>
      </trkpt>
      <trkpt lat="36.886477" lon="-4.500419">
        <time>2021-08-24T13:12:07Z</time>
      </trkpt>
      <trkpt lat="36.886901" lon="-4.500194">
        <time>2021-08-24T13:12:10Z</time>
      </trkpt>
      <trkpt lat="36.887231" lon="-4.500007">
        <time>2021-08-24T13:12:13Z</time>
      </trkpt>
      <trkpt lat="36.887392" lon="-4.49962">
        <time>2021-08-24T13:12:16Z</time>
      </trkpt>
      <trkpt lat="36.887624" lon="-4.499227">
        <time>2021-08-24T13:12:19Z</time>
      </trkpt>
      <trkpt lat="36.888346" lon="-4.498569">
        <time>2021-08-24T13:12:25Z</time>
      </trkpt>
      <trkpt lat="36.888772" lon="-4.49833">
        <time>2021-08-24T13:12:28Z</time>
      </trkpt>
      <trkpt lat="36.889652" lon="-4.497826">
        <time>2021-08-24T13:12:34Z</time>
      </trkpt>
      <trkpt lat="36.889865" lon="-4.497343">
        <time>2021-08-24T13:12:37Z</time>
      </trkpt>
      <trkpt lat="36.890438" lon="-4.495604">
        <time>2021-08-24T13:12:46Z</time>
      </trkpt>
      <trkpt lat="36.890851" lon="-4.494471">
        <time>2021-08-24T13:12:52Z</time>
      </trkpt>
      <trkpt lat="36.890902" lon="-4.493828">
        <time>2021-08-24T13:12:55Z</time>
      </trkpt>
      <trkpt lat="36.891174" lon="-4.491994">
        <time>2021-08-24T13:13:04Z</time>
      </trkpt>
      <trkpt lat="36.892692" lon="-4.490182">
        <time>2021-08-24T13:13:16Z</time>
      </trkpt>
      <trkpt lat="36.893527" lon="-4.489329">
        <time>2021-08-24T13:13:22Z</time>
      </trkpt>
      <trkpt lat="36.893527" lon="-4.489329">
        <time>2021-08-24T13:13:22Z</time>
      </trkpt>
      <trkpt lat="36.893949" lon="-4.489021">
        <time>2021-08-24T13:13:25Z</time>
      </trkpt>
      <trkpt lat="36.895666" lon="-4.488124">
        <time>2021-08-24T13:13:37Z</time>
      </trkpt>
      <trkpt lat="36.896371" lon="-4.488076">
        <time>2021-08-24T13:13:43Z</time>
      </trkpt>
      <trkpt lat="36.896573" lon="-4.4877">
        <time>2021-08-24T13:13:46Z</time>
      </trkpt>
      <trkpt lat="36.897063" lon="-4.486755">
        <time>2021-08-24T13:13:52Z</time>
      </trkpt>
      <trkpt lat="36.897417" lon="-4.486311">
        <time>2021-08-24T13:13:55Z</time>
      </trkpt>
      <trkpt lat="36.898207" lon="-4.484905">
        <time>2021-08-24T13:14:04Z</time>
      </trkpt>
      <trkpt lat="36.898129" lon="-4.481608">
        <time>2021-08-24T13:14:19Z</time>
      </trkpt>
      <trkpt lat="36.898036" lon="-4.481017">
        <time>2021-08-24T13:14:22Z</time>
      </trkpt>
      <trkpt lat="36.898098" lon="-4.480425">
        <time>2021-08-24T13:14:25Z</time>
      </trkpt>
      <trkpt lat="36.8982" lon="-4.479178">
        <time>2021-08-24T13:14:31Z</time>
      </trkpt>
      <trkpt lat="36.898467" lon="-4.476521">
        <time>2021-08-24T13:14:43Z</time>
      </trkpt>
      <trkpt lat="36.899075" lon="-4.475467">
        <time>2021-08-24T13:14:49Z</time>
      </trkpt>
      <trkpt lat="36.899075" lon="-4.475467">
        <time>2021-08-24T13:14:49Z</time>
      </trkpt>
      <trkpt lat="36.900073" lon="-4.473819">
        <time>2021-08-24T13:14:58Z</time>
      </trkpt>
      <trkpt lat="36.900057" lon="-4.473289">
        <time>2021-08-24T13:15:01Z</time>
      </trkpt>
      <trkpt lat="36.900002" lon="-4.472169">
        <time>2021-08-24T13:15:07Z</time>
      </trkpt>
      <trkpt lat="36.900202" lon="-4.470282">
        <time>2021-08-24T13:15:16Z</time>
      </trkpt>
      <trkpt lat="36.900202" lon="-4.470282">
        <time>2021-08-24T13:15:16Z</time>
      </trkpt>
      <trkpt lat="36.899533" lon="-4.466761">
        <time>2021-08-24T13:15:40Z</time>
      </trkpt>
      <trkpt lat="36.899657" lon="-4.464916">
        <time>2021-08-24T13:15:49Z</time>
      </trkpt>
      <trkpt lat="36.899522" lon="-4.46432">
        <time>2021-08-24T13:15:52Z</time>
      </trkpt>
      <trkpt lat="36.898747" lon="-4.458327">
        <time>2021-08-24T13:16:19Z</time>
      </trkpt>
      <trkpt lat="36.898747" lon="-4.458327">
        <time>2021-08-24T13:16:19Z</time>
      </trkpt>
      <trkpt lat="36.898858" lon="-4.457696">
        <time>2021-08-24T13:16:22Z</time>
      </trkpt>
      <trkpt lat="36.899126" lon="-4.457155">
        <time>2021-08-24T13:16:25Z</time>
      </trkpt>
      <trkpt lat="36.899474" lon="-4.456806">
        <time>2021-08-24T13:16:28Z</time>
      </trkpt>
      <trkpt lat="36.90087" lon="-4.455966">
        <time>2021-08-24T13:16:40Z</time>
      </trkpt>
      <trkpt lat="36.90106" lon="-4.455434">
        <time>2021-08-24T13:16:43Z</time>
      </trkpt>
      <trkpt lat="36.901127" lon="-4.454795">
        <time>2021-08-24T13:16:46Z</time>
      </trkpt>
      <trkpt lat="36.901108" lon="-4.454099">
        <time>2021-08-24T13:16:49Z</time>
      </trkpt>
      <trkpt lat="36.90129" lon="-4.44988">
        <time>2021-08-24T13:17:07Z</time>
      </trkpt>
      <trkpt lat="36.901789" lon="-4.448577">
        <time>2021-08-24T13:17:13Z</time>
      </trkpt>
      <trkpt lat="36.901896" lon="-4.447896">
        <time>2021-08-24T13:17:16Z</time>
      </trkpt>
      <trkpt lat="36.902092" lon="-4.445153">
        <time>2021-08-24T13:17:28Z</time>
      </trkpt>
      <trkpt lat="36.902075" lon="-4.443079">
        <time>2021-08-24T13:17:37Z</time>
      </trkpt>
      <trkpt lat="36.902277" lon="-4.442432">
        <time>2021-08-24T13:17:40Z</time>
      </trkpt>
      <trkpt lat="36.902575" lon="-4.441827">
        <time>2021-08-24T13:17:43Z</time>
      </trkpt>
      <trkpt lat="36.903817" lon="-4.439305">
        <time>2021-08-24T13:17:55Z</time>
      </trkpt>
      <trkpt lat="36.90382" lon="-4.43775">
        <time>2021-08-24T13:18:01Z</time>
      </trkpt>
      <trkpt lat="36.903608" lon="-4.437013">
        <time>2021-08-24T13:18:04Z</time>
      </trkpt>
      <trkpt lat="36.903274" lon="-4.436357">
        <time>2021-08-24T13:18:07Z</time>
      </trkpt>
      <trkpt lat="36.90113" lon="-4.43362">
        <time>2021-08-24T13:18:22Z</time>
      </trkpt>
      <trkpt lat="36.900958" lon="-4.432889">
        <time>2021-08-24T13:18:25Z</time>
      </trkpt>
      <trkpt lat="36.90099" lon="-4.432125">
        <time>2021-08-24T13:18:28Z</time>
      </trkpt>
      <trkpt lat="36.90099" lon="-4.432125">
        <time>2021-08-24T13:18:28Z</time>
      </trkpt>
      <trkpt lat="36.901732" lon="-4.428298">
        <time>2021-08-24T13:18:43Z</time>
      </trkpt>
      <trkpt lat="36.901559" lon="-4.427575">
        <time>2021-08-24T13:18:46Z</time>
      </trkpt>
      <trkpt lat="36.901232" lon="-4.426959">
        <time>2021-08-24T13:18:49Z</time>
      </trkpt>
      <trkpt lat="36.900858" lon="-4.426432">
        <time>2021-08-24T13:18:52Z</time>
      </trkpt>
      <trkpt lat="36.900392" lon="-4.425139">
        <time>2021-08-24T13:18:58Z</time>
      </trkpt>
      <trkpt lat="36.900415" lon="-4.424379">
        <time>2021-08-24T13:19:01Z</time>
      </trkpt>
      <trkpt lat="36.900701" lon="-4.421032">
        <time>2021-08-24T13:19:13Z</time>
      </trkpt>
      <trkpt lat="36.900629" lon="-4.420192">
        <time>2021-08-24T13:19:16Z</time>
      </trkpt>
      <trkpt lat="36.900437" lon="-4.41395">
        <time>2021-08-24T13:19:40Z</time>
      </trkpt>
      <trkpt lat="36.900652" lon="-4.409668">
        <time>2021-08-24T13:19:55Z</time>
      </trkpt>
      <trkpt lat="36.900839" lon="-4.407858">
        <time>2021-08-24T13:20:01Z</time>
      </trkpt>
      <trkpt lat="36.901331" lon="-4.401595">
        <time>2021-08-24T13:20:22Z</time>
      </trkpt>
      <trkpt lat="36.901506" lon="-4.39536">
        <time>2021-08-24T13:20:43Z</time>
      </trkpt>
      <trkpt lat="36.901413" lon="-4.38899">
        <time>2021-08-24T13:21:04Z</time>
      </trkpt>
      <trkpt lat="36.901827" lon="-4.386613">
        <time>2021-08-24T13:21:13Z</time>
      </trkpt>
      <trkpt lat="36.903579" lon="-4.383668">
        <time>2021-08-24T13:21:25Z</time>
      </trkpt>
      <trkpt lat="36.904649" lon="-4.381166">
        <time>2021-08-24T13:21:34Z</time>
      </trkpt>
      <trkpt lat="36.904935" lon="-4.37925">
        <time>2021-08-24T13:21:40Z</time>
      </trkpt>
      <trkpt lat="36.904872" lon="-4.378239">
        <time>2021-08-24T13:21:43Z</time>
      </trkpt>
      <trkpt lat="36.904676" lon="-4.377274">
        <time>2021-08-24T13:21:46Z</time>
      </trkpt>
      <trkpt lat="36.90437" lon="-4.375414">
        <time>2021-08-24T13:21:52Z</time>
      </trkpt>
      <trkpt lat="36.904136" lon="-4.372611">
        <time>2021-08-24T13:22:01Z</time>
      </trkpt>
      <trkpt lat="36.904136" lon="-4.372611">
        <time>2021-08-24T13:22:01Z</time>
      </trkpt>
      <trkpt lat="36.902488" lon="-4.366416">
        <time>2021-08-24T13:22:22Z</time>
      </trkpt>
      <trkpt lat="36.901374" lon="-4.360214">
        <time>2021-08-24T13:22:43Z</time>
      </trkpt>
      <trkpt lat="36.901203" lon="-4.358778">
        <time>2021-08-24T13:22:49Z</time>
      </trkpt>
      <trkpt lat="36.901399" lon="-4.357384">
        <time>2021-08-24T13:22:55Z</time>
      </trkpt>
      <trkpt lat="36.901732" lon="-4.356415">
        <time>2021-08-24T13:23:01Z</time>
      </trkpt>
      <trkpt lat="36.901693" lon="-4.356015">
        <time>2021-08-24T13:23:04Z</time>
      </trkpt>
      <trkpt lat="36.901749" lon="-4.355587">
        <time>2021-08-24T13:23:07Z</time>
      </trkpt>
      <trkpt lat="36.90196" lon="-4.354439">
        <time>2021-08-24T13:23:13Z</time>
      </trkpt>
      <trkpt lat="36.90196" lon="-4.354439">
        <time>2021-08-24T13:23:13Z</time>
      </trkpt>
      <trkpt lat="36.901823" lon="-4.353844">
        <time>2021-08-24T13:23:16Z</time>
      </trkpt>
      <trkpt lat="36.900791" lon="-4.351733">
        <time>2021-08-24T13:23:28Z</time>
      </trkpt>
      <trkpt lat="36.900801" lon="-4.351115">
        <time>2021-08-24T13:23:31Z</time>
      </trkpt>
      <trkpt lat="36.900789" lon="-4.35049">
        <time>2021-08-24T13:23:34Z</time>
      </trkpt>
      <trkpt lat="36.900593" lon="-4.349934">
        <time>2021-08-24T13:23:37Z</time>
      </trkpt>
      <trkpt lat="36.900317" lon="-4.349042">
        <time>2021-08-24T13:23:43Z</time>
      </trkpt>
      <trkpt lat="36.900317" lon="-4.349042">
        <time>2021-08-24T13:23:43Z</time>
      </trkpt>
      <trkpt lat="36.900455" lon="-4.348556">
        <time>2021-08-24T13:23:46Z</time>
      </trkpt>
      <trkpt lat="36.901014" lon="-4.347679">
        <time>2021-08-24T13:23:52Z</time>
      </trkpt>
      <trkpt lat="36.901405" lon="-4.347406">
        <time>2021-08-24T13:23:55Z</time>
      </trkpt>
      <trkpt lat="36.901842" lon="-4.347342">
        <time>2021-08-24T13:23:58Z</time>
      </trkpt>
      <trkpt lat="36.902223" lon="-4.347185">
        <time>2021-08-24T13:24:01Z</time>
      </trkpt>
      <trkpt lat="36.902509" lon="-4.34678">
        <time>2021-08-24T13:24:04Z</time>
      </trkpt>
      <trkpt lat="36.902802" lon="-4.345546">
        <time>2021-08-24T13:24:10Z</time>
      </trkpt>
      <trkpt lat="36.90284" lon="-4.344887">
        <time>2021-08-24T13:24:13Z</time>
      </trkpt>
      <trkpt lat="36.902802" lon="-4.343279">
        <time>2021-08-24T13:24:22Z</time>
      </trkpt>
      <trkpt lat="36.902563" lon="-4.341977">
        <time>2021-08-24T13:24:40Z</time>
      </trkpt>
      <trkpt lat="36.902394" lon="-4.341978">
        <time>2021-08-24T13:24:43Z</time>
      </trkpt>
      <trkpt lat="36.90073" lon="-4.343297">
        <time>2021-08-24T13:24:58Z</time>
      </trkpt>
      <trkpt lat="36.900325" lon="-4.343346">
        <time>2021-08-24T13:25:01Z</time>
      </trkpt>
      <trkpt lat="36.900325" lon="-4.343346">
        <time>2021-08-24T13:25:01Z</time>
      </trkpt>
      <trkpt lat="36.899871" lon="-4.343366">
        <time>2021-08-24T13:25:07Z</time>
      </trkpt>
      <trkpt lat="36.899938" lon="-4.343638">
        <time>2021-08-24T13:25:10Z</time>
      </trkpt>
      <trkpt lat="36.899834" lon="-4.343889">
        <time>2021-08-24T13:25:13Z</time>
      </trkpt>
      <trkpt lat="36.89957" lon="-4.343915">
        <time>2021-08-24T13:25:16Z</time>
      </trkpt>
      <trkpt lat="36.899355" lon="-4.344108">
        <time>2021-08-24T13:25:19Z</time>
      </trkpt>
      <trkpt lat="36.899067" lon="-4.344759">
        <time>2021-08-24T13:25:25Z</time>
      </trkpt>
      <trkpt lat="36.898799" lon="-4.344705">
        <time>2021-08-24T13:25:28Z</time>
      </trkpt>
      <trkpt lat="36.898638" lon="-4.344324">
        <time>2021-08-24T13:25:31Z</time>
      </trkpt>
      <trkpt lat="36.898173" lon="-4.343443">
        <time>2021-08-24T13:25:37Z</time>
      </trkpt>
      <trkpt lat="36.897741" lon="-4.343334">
        <time>2021-08-24T13:25:40Z</time>
      </trkpt>
      <trkpt lat="36.897345" lon="-4.343088">
        <time>2021-08-24T13:25:43Z</time>
      </trkpt>
      <trkpt lat="36.897097" lon="-4.342632">
        <time>2021-08-24T13:25:46Z</time>
      </trkpt>
      <trkpt lat="36.897097" lon="-4.342632">
        <time>2021-08-24T13:25:46Z</time>
      </trkpt>
      <trkpt lat="36.896656" lon="-4.341855">
        <time>2021-08-24T13:25:52Z</time>
      </trkpt>
      <trkpt lat="36.896317" lon="-4.341902">
        <time>2021-08-24T13:25:55Z</time>
      </trkpt>
      <trkpt lat="36.895817" lon="-4.342194">
        <time>2021-08-24T13:26:01Z</time>
      </trkpt>
      <trkpt lat="36.895817" lon="-4.342194">
        <time>2021-08-24T13:26:01Z</time>
      </trkpt>
      <trkpt lat="36.895573" lon="-4.341876">
        <time>2021-08-24T13:26:04Z</time>
      </trkpt>
      <trkpt lat="36.895218" lon="-4.341697">
        <time>2021-08-24T13:26:07Z</time>
      </trkpt>
      <trkpt lat="36.894771" lon="-4.341829">
        <time>2021-08-24T13:26:10Z</time>
      </trkpt>
      <trkpt lat="36.893884" lon="-4.342471">
        <time>2021-08-24T13:26:19Z</time>
      </trkpt>
      <trkpt lat="36.893835" lon="-4.343313">
        <time>2021-08-24T13:26:25Z</time>
      </trkpt>
      <trkpt lat="36.893835" lon="-4.343313">
        <time>2021-08-24T13:26:25Z</time>
      </trkpt>
      <trkpt lat="36.893529" lon="-4.343698">
        <time>2021-08-24T13:26:28Z</time>
      </trkpt>
      <trkpt lat="36.892893" lon="-4.344288">
        <time>2021-08-24T13:26:34Z</time>
      </trkpt>
      <trkpt lat="36.892641" lon="-4.344184">
        <time>2021-08-24T13:26:37Z</time>
      </trkpt>
      <trkpt lat="36.892638" lon="-4.343889">
        <time>2021-08-24T13:26:40Z</time>
      </trkpt>
      <trkpt lat="36.892894" lon="-4.343723">
        <time>2021-08-24T13:26:43Z</time>
      </trkpt>
      <trkpt lat="36.893206" lon="-4.34346">
        <time>2021-08-24T13:26:46Z</time>
      </trkpt>
      <trkpt lat="36.893346" lon="-4.343075">
        <time>2021-08-24T13:26:49Z</time>
      </trkpt>
      <trkpt lat="36.893193" lon="-4.34277">
        <time>2021-08-24T13:26:52Z</time>
      </trkpt>
      <trkpt lat="36.892847" lon="-4.342678">
        <time>2021-08-24T13:26:55Z</time>
      </trkpt>
      <trkpt lat="36.892495" lon="-4.342557">
        <time>2021-08-24T13:26:58Z</time>
      </trkpt>
      <trkpt lat="36.892307" lon="-4.342197">
        <time>2021-08-24T13:27:01Z</time>
      </trkpt>
      <trkpt lat="36.89202" lon="-4.341918">
        <time>2021-08-24T13:27:04Z</time>
      </trkpt>
      <trkpt lat="36.891617" lon="-4.341832">
        <time>2021-08-24T13:27:07Z</time>
      </trkpt>
      <trkpt lat="36.891229" lon="-4.341933">
        <time>2021-08-24T13:27:10Z</time>
      </trkpt>
      <trkpt lat="36.891068" lon="-4.342274">
        <time>2021-08-24T13:27:13Z</time>
      </trkpt>
      <trkpt lat="36.891106" lon="-4.342698">
        <time>2021-08-24T13:27:16Z</time>
      </trkpt>
      <trkpt lat="36.89101" lon="-4.343071">
        <time>2021-08-24T13:27:19Z</time>
      </trkpt>
      <trkpt lat="36.890675" lon="-4.343259">
        <time>2021-08-24T13:27:22Z</time>
      </trkpt>
      <trkpt lat="36.890293" lon="-4.343534">
        <time>2021-08-24T13:27:25Z</time>
      </trkpt>
      <trkpt lat="36.889062" lon="-4.345239">
        <time>2021-08-24T13:27:37Z</time>
      </trkpt>
      <trkpt lat="36.888702" lon="-4.34523">
        <time>2021-08-24T13:27:40Z</time>
      </trkpt>
      <trkpt lat="36.888415" lon="-4.345007">
        <time>2021-08-24T13:27:43Z</time>
      </trkpt>
      <trkpt lat="36.888415" lon="-4.345007">
        <time>2021-08-24T13:27:43Z</time>
      </trkpt>
      <trkpt lat="36.888316" lon="-4.344563">
        <time>2021-08-24T13:27:46Z</time>
      </trkpt>
      <trkpt lat="36.888118" lon="-4.344047">
        <time>2021-08-24T13:27:49Z</time>
      </trkpt>
      <trkpt lat="36.887835" lon="-4.343632">
        <time>2021-08-24T13:27:52Z</time>
      </trkpt>
      <trkpt lat="36.887468" lon="-4.343398">
        <time>2021-08-24T13:27:55Z</time>
      </trkpt>
      <trkpt lat="36.887179" lon="-4.343491">
        <time>2021-08-24T13:27:58Z</time>
      </trkpt>
      <trkpt lat="36.886934" lon="-4.343787">
        <time>2021-08-24T13:28:01Z</time>
      </trkpt>
      <trkpt lat="36.886533" lon="-4.34386">
        <time>2021-08-24T13:28:04Z</time>
      </trkpt>
      <trkpt lat="36.885691" lon="-4.343675">
        <time>2021-08-24T13:28:10Z</time>
      </trkpt>
      <trkpt lat="36.885452" lon="-4.343288">
        <time>2021-08-24T13:28:13Z</time>
      </trkpt>
      <trkpt lat="36.885179" lon="-4.342948">
        <time>2021-08-24T13:28:16Z</time>
      </trkpt>
      <trkpt lat="36.884803" lon="-4.342669">
        <time>2021-08-24T13:28:19Z</time>
      </trkpt>
      <trkpt lat="36.884531" lon="-4.342144">
        <time>2021-08-24T13:28:22Z</time>
      </trkpt>
      <trkpt lat="36.8841" lon="-4.341112">
        <time>2021-08-24T13:28:28Z</time>
      </trkpt>
      <trkpt lat="36.883499" lon="-4.34005">
        <time>2021-08-24T13:28:34Z</time>
      </trkpt>
      <trkpt lat="36.883242" lon="-4.339524">
        <time>2021-08-24T13:28:37Z</time>
      </trkpt>
      <trkpt lat="36.882833" lon="-4.339244">
        <time>2021-08-24T13:28:40Z</time>
      </trkpt>
      <trkpt lat="36.881503" lon="-4.338568">
        <time>2021-08-24T13:28:49Z</time>
      </trkpt>
      <trkpt lat="36.881503" lon="-4.338568">
        <time>2021-08-24T13:28:49Z</time>
      </trkpt>
      <trkpt lat="36.881225" lon="-4.33854">
        <time>2021-08-24T13:28:52Z</time>
      </trkpt>
      <trkpt lat="36.880924" lon="-4.338791">
        <time>2021-08-24T13:28:55Z</time>
      </trkpt>
      <trkpt lat="36.880924" lon="-4.338791">
        <time>2021-08-24T13:28:55Z</time>
      </trkpt>
      <trkpt lat="36.880726" lon="-4.339224">
        <time>2021-08-24T13:28:58Z</time>
      </trkpt>
      <trkpt lat="36.880318" lon="-4.340351">
        <time>2021-08-24T13:29:04Z</time>
      </trkpt>
      <trkpt lat="36.879951" lon="-4.340801">
        <time>2021-08-24T13:29:07Z</time>
      </trkpt>
      <trkpt lat="36.879525" lon="-4.341045">
        <time>2021-08-24T13:29:10Z</time>
      </trkpt>
      <trkpt lat="36.879148" lon="-4.341191">
        <time>2021-08-24T13:29:13Z</time>
      </trkpt>
      <trkpt lat="36.878882" lon="-4.341624">
        <time>2021-08-24T13:29:16Z</time>
      </trkpt>
      <trkpt lat="36.878346" lon="-4.342649">
        <time>2021-08-24T13:29:22Z</time>
      </trkpt>
      <trkpt lat="36.878346" lon="-4.342649">
        <time>2021-08-24T13:29:22Z</time>
      </trkpt>
      <trkpt lat="36.877614" lon="-4.343677">
        <time>2021-08-24T13:29:28Z</time>
      </trkpt>
      <trkpt lat="36.877438" lon="-4.344293">
        <time>2021-08-24T13:29:31Z</time>
      </trkpt>
      <trkpt lat="36.877228" lon="-4.344886">
        <time>2021-08-24T13:29:34Z</time>
      </trkpt>
      <trkpt lat="36.876846" lon="-4.34605">
        <time>2021-08-24T13:29:40Z</time>
      </trkpt>
      <trkpt lat="36.876602" lon="-4.346591">
        <time>2021-08-24T13:29:43Z</time>
      </trkpt>
      <trkpt lat="36.87592" lon="-4.347521">
        <time>2021-08-24T13:29:49Z</time>
      </trkpt>
      <trkpt lat="36.875516" lon="-4.347822">
        <time>2021-08-24T13:29:52Z</time>
      </trkpt>
      <trkpt lat="36.875027" lon="-4.347919">
        <time>2021-08-24T13:29:55Z</time>
      </trkpt>
      <trkpt lat="36.874527" lon="-4.347773">
        <time>2021-08-24T13:29:58Z</time>
      </trkpt>
      <trkpt lat="36.873601" lon="-4.347649">
        <time>2021-08-24T13:30:04Z</time>
      </trkpt>
      <trkpt lat="36.873071" lon="-4.347669">
        <time>2021-08-24T13:30:07Z</time>
      </trkpt>
      <trkpt lat="36.871423" lon="-4.347148">
        <time>2021-08-24T13:30:16Z</time>
      </trkpt>
      <trkpt lat="36.871423" lon="-4.347148">
        <time>2021-08-24T13:30:16Z</time>
      </trkpt>
      <trkpt lat="36.870612" lon="-4.346893">
        <time>2021-08-24T13:30:22Z</time>
      </trkpt>
      <trkpt lat="36.869036" lon="-4.346812">
        <time>2021-08-24T13:30:31Z</time>
      </trkpt>
      <trkpt lat="36.868615" lon="-4.346863">
        <time>2021-08-24T13:30:34Z</time>
      </trkpt>
      <trkpt lat="36.867704" lon="-4.347386">
        <time>2021-08-24T13:30:40Z</time>
      </trkpt>
      <trkpt lat="36.867201" lon="-4.347601">
        <time>2021-08-24T13:30:43Z</time>
      </trkpt>
      <trkpt lat="36.866821" lon="-4.347828">
        <time>2021-08-24T13:30:46Z</time>
      </trkpt>
      <trkpt lat="36.866821" lon="-4.347828">
        <time>2021-08-24T13:30:46Z</time>
      </trkpt>
      <trkpt lat="36.866503" lon="-4.34773">
        <time>2021-08-24T13:30:49Z</time>
      </trkpt>
      <trkpt lat="36.866144" lon="-4.347528">
        <time>2021-08-24T13:30:52Z</time>
      </trkpt>
      <trkpt lat="36.865671" lon="-4.347577">
        <time>2021-08-24T13:30:55Z</time>
      </trkpt>
      <trkpt lat="36.864656" lon="-4.348066">
        <time>2021-08-24T13:31:01Z</time>
      </trkpt>
      <trkpt lat="36.863656" lon="-4.348557">
        <time>2021-08-24T13:31:07Z</time>
      </trkpt>
      <trkpt lat="36.862136" lon="-4.348937">
        <time>2021-08-24T13:31:16Z</time>
      </trkpt>
      <trkpt lat="36.862136" lon="-4.348937">
        <time>2021-08-24T13:31:16Z</time>
      </trkpt>
      <trkpt lat="36.861569" lon="-4.348847">
        <time>2021-08-24T13:31:19Z</time>
      </trkpt>
      <trkpt lat="36.860481" lon="-4.348496">
        <time>2021-08-24T13:31:25Z</time>
      </trkpt>
      <trkpt lat="36.858978" lon="-4.348648">
        <time>2021-08-24T13:31:34Z</time>
      </trkpt>
      <trkpt lat="36.858034" lon="-4.349031">
        <time>2021-08-24T13:31:40Z</time>
      </trkpt>
      <trkpt lat="36.857516" lon="-4.349156">
        <time>2021-08-24T13:31:43Z</time>
      </trkpt>
      <trkpt lat="36.857067" lon="-4.349378">
        <time>2021-08-24T13:31:46Z</time>
      </trkpt>
      <trkpt lat="36.856642" lon="-4.349602">
        <time>2021-08-24T13:31:49Z</time>
      </trkpt>
      <trkpt lat="36.855788" lon="-4.35015">
        <time>2021-08-24T13:31:55Z</time>
      </trkpt>
      <trkpt lat="36.854402" lon="-4.350423">
        <time>2021-08-24T13:32:04Z</time>
      </trkpt>
      <trkpt lat="36.853448" lon="-4.34999">
        <time>2021-08-24T13:32:10Z</time>
      </trkpt>
      <trkpt lat="36.852986" lon="-4.349997">
        <time>2021-08-24T13:32:13Z</time>
      </trkpt>
      <trkpt lat="36.852986" lon="-4.349997">
        <time>2021-08-24T13:32:13Z</time>
      </trkpt>
      <trkpt lat="36.852097" lon="-4.350238">
        <time>2021-08-24T13:32:19Z</time>
      </trkpt>
      <trkpt lat="36.850039" lon="-4.350163">
        <time>2021-08-24T13:32:31Z</time>
      </trkpt>
      <trkpt lat="36.848596" lon="-4.349834">
        <time>2021-08-24T13:32:40Z</time>
      </trkpt>
      <trkpt lat="36.848077" lon="-4.349839">
        <time>2021-08-24T13:32:43Z</time>
      </trkpt>
      <trkpt lat="36.847532" lon="-4.349761">
        <time>2021-08-24T13:32:46Z</time>
      </trkpt>
      <trkpt lat="36.84646" lon="-4.349636">
        <time>2021-08-24T13:32:52Z</time>
      </trkpt>
      <trkpt lat="36.845997" lon="-4.349604">
        <time>2021-08-24T13:32:55Z</time>
      </trkpt>
      <trkpt lat="36.845602" lon="-4.349316">
        <time>2021-08-24T13:32:58Z</time>
      </trkpt>
      <trkpt lat="36.844824" lon="-4.348854">
        <time>2021-08-24T13:33:04Z</time>
      </trkpt>
      <trkpt lat="36.844418" lon="-4.349031">
        <time>2021-08-24T13:33:07Z</time>
      </trkpt>
      <trkpt lat="36.843647" lon="-4.349097">
        <time>2021-08-24T13:33:13Z</time>
      </trkpt>
      <trkpt lat="36.843647" lon="-4.349097">
        <time>2021-08-24T13:33:13Z</time>
      </trkpt>
      <trkpt lat="36.843245" lon="-4.348884">
        <time>2021-08-24T13:33:16Z</time>
      </trkpt>
      <trkpt lat="36.842865" lon="-4.34869">
        <time>2021-08-24T13:33:19Z</time>
      </trkpt>
      <trkpt lat="36.842048" lon="-4.348324">
        <time>2021-08-24T13:33:25Z</time>
      </trkpt>
      <trkpt lat="36.841781" lon="-4.347994">
        <time>2021-08-24T13:33:28Z</time>
      </trkpt>
      <trkpt lat="36.841559" lon="-4.347695">
        <time>2021-08-24T13:33:31Z</time>
      </trkpt>
      <trkpt lat="36.840431" lon="-4.34706">
        <time>2021-08-24T13:33:40Z</time>
      </trkpt>
      <trkpt lat="36.840163" lon="-4.346798">
        <time>2021-08-24T13:33:43Z</time>
      </trkpt>
      <trkpt lat="36.839889" lon="-4.346812">
        <time>2021-08-24T13:33:46Z</time>
      </trkpt>
      <trkpt lat="36.839889" lon="-4.346812">
        <time>2021-08-24T13:33:46Z</time>
      </trkpt>
      <trkpt lat="36.839779" lon="-4.347188">
        <time>2021-08-24T13:33:49Z</time>
      </trkpt>
      <trkpt lat="36.839779" lon="-4.347188">
        <time>2021-08-24T13:33:49Z</time>
      </trkpt>
      <trkpt lat="36.839511" lon="-4.351713">
        <time>2021-08-24T13:34:10Z</time>
      </trkpt>
      <trkpt lat="36.839511" lon="-4.351713">
        <time>2021-08-24T13:34:10Z</time>
      </trkpt>
      <trkpt lat="36.839183" lon="-4.352763">
        <time>2021-08-24T13:34:16Z</time>
      </trkpt>
      <trkpt lat="36.839183" lon="-4.352763">
        <time>2021-08-24T13:34:16Z</time>
      </trkpt>
      <trkpt lat="36.838923" lon="-4.35301">
        <time>2021-08-24T13:34:19Z</time>
      </trkpt>
      <trkpt lat="36.838149" lon="-4.353293">
        <time>2021-08-24T13:34:25Z</time>
      </trkpt>
      <trkpt lat="36.837786" lon="-4.353483">
        <time>2021-08-24T13:34:28Z</time>
      </trkpt>
      <trkpt lat="36.836945" lon="-4.353527">
        <time>2021-08-24T13:34:34Z</time>
      </trkpt>
      <trkpt lat="36.835462" lon="-4.354202">
        <time>2021-08-24T13:34:43Z</time>
      </trkpt>
      <trkpt lat="36.834481" lon="-4.35462">
        <time>2021-08-24T13:34:49Z</time>
      </trkpt>
      <trkpt lat="36.834481" lon="-4.35462">
        <time>2021-08-24T13:34:49Z</time>
      </trkpt>
      <trkpt lat="36.834481" lon="-4.35462">
        <time>2021-08-24T13:34:49Z</time>
      </trkpt>
      <trkpt lat="36.834481" lon="-4.35462">
        <time>2021-08-24T13:34:49Z</time>
      </trkpt>
      <trkpt lat="36.834481" lon="-4.35462">
        <time>2021-08-24T13:34:49Z</time>
      </trkpt>
      <trkpt lat="36.834481" lon="-4.35462">
        <time>2021-08-24T13:34:49Z</time>
      </trkpt>
      <trkpt lat="36.8336" lon="-4.354928">
        <time>2021-08-24T13:34:55Z</time>
      </trkpt>
      <trkpt lat="36.832774" lon="-4.354606">
        <time>2021-08-24T13:35:01Z</time>
      </trkpt>
      <trkpt lat="36.8316" lon="-4.353755">
        <time>2021-08-24T13:35:10Z</time>
      </trkpt>
      <trkpt lat="36.831169" lon="-4.353852">
        <time>2021-08-24T13:35:13Z</time>
      </trkpt>
      <trkpt lat="36.830674" lon="-4.353852">
        <time>2021-08-24T13:35:16Z</time>
      </trkpt>
      <trkpt lat="36.830164" lon="-4.353819">
        <time>2021-08-24T13:35:19Z</time>
      </trkpt>
      <trkpt lat="36.828248" lon="-4.353801">
        <time>2021-08-24T13:35:31Z</time>
      </trkpt>
      <trkpt lat="36.827816" lon="-4.353946">
        <time>2021-08-24T13:35:34Z</time>
      </trkpt>
      <trkpt lat="36.825769" lon="-4.353665">
        <time>2021-08-24T13:35:46Z</time>
      </trkpt>
      <trkpt lat="36.825356" lon="-4.353511">
        <time>2021-08-24T13:35:49Z</time>
      </trkpt>
      <trkpt lat="36.824933" lon="-4.353608">
        <time>2021-08-24T13:35:52Z</time>
      </trkpt>
      <trkpt lat="36.824011" lon="-4.353841">
        <time>2021-08-24T13:35:58Z</time>
      </trkpt>
      <trkpt lat="36.82216" lon="-4.3537">
        <time>2021-08-24T13:36:10Z</time>
      </trkpt>
      <trkpt lat="36.821284" lon="-4.353518">
        <time>2021-08-24T13:36:16Z</time>
      </trkpt>
      <trkpt lat="36.820883" lon="-4.353467">
        <time>2021-08-24T13:36:19Z</time>
      </trkpt>
      <trkpt lat="36.820431" lon="-4.353301">
        <time>2021-08-24T13:36:25Z</time>
      </trkpt>
      <trkpt lat="36.820261" lon="-4.353076">
        <time>2021-08-24T13:36:28Z</time>
      </trkpt>
      <trkpt lat="36.819944" lon="-4.353008">
        <time>2021-08-24T13:36:31Z</time>
      </trkpt>
      <trkpt lat="36.819145" lon="-4.353214">
        <time>2021-08-24T13:36:37Z</time>
      </trkpt>
      <trkpt lat="36.818794" lon="-4.353086">
        <time>2021-08-24T13:36:40Z</time>
      </trkpt>
      <trkpt lat="36.818539" lon="-4.352728">
        <time>2021-08-24T13:36:43Z</time>
      </trkpt>
      <trkpt lat="36.81836" lon="-4.352246">
        <time>2021-08-24T13:36:46Z</time>
      </trkpt>
      <trkpt lat="36.818047" lon="-4.351634">
        <time>2021-08-24T13:36:52Z</time>
      </trkpt>
      <trkpt lat="36.817789" lon="-4.351808">
        <time>2021-08-24T13:36:55Z</time>
      </trkpt>
      <trkpt lat="36.817238" lon="-4.352274">
        <time>2021-08-24T13:37:01Z</time>
      </trkpt>
      <trkpt lat="36.817238" lon="-4.352274">
        <time>2021-08-24T13:37:01Z</time>
      </trkpt>
      <trkpt lat="36.817001" lon="-4.352181">
        <time>2021-08-24T13:37:04Z</time>
      </trkpt>
      <trkpt lat="36.816727" lon="-4.352028">
        <time>2021-08-24T13:37:07Z</time>
      </trkpt>
      <trkpt lat="36.816411" lon="-4.352058">
        <time>2021-08-24T13:37:10Z</time>
      </trkpt>
      <trkpt lat="36.816113" lon="-4.351884">
        <time>2021-08-24T13:37:13Z</time>
      </trkpt>
      <trkpt lat="36.815945" lon="-4.351586">
        <time>2021-08-24T13:37:16Z</time>
      </trkpt>
      <trkpt lat="36.816002" lon="-4.351188">
        <time>2021-08-24T13:37:19Z</time>
      </trkpt>
      <trkpt lat="36.816003" lon="-4.350719">
        <time>2021-08-24T13:37:22Z</time>
      </trkpt>
      <trkpt lat="36.815851" lon="-4.350321">
        <time>2021-08-24T13:37:25Z</time>
      </trkpt>
      <trkpt lat="36.81556" lon="-4.350094">
        <time>2021-08-24T13:37:28Z</time>
      </trkpt>
      <trkpt lat="36.815267" lon="-4.349931">
        <time>2021-08-24T13:37:31Z</time>
      </trkpt>
      <trkpt lat="36.815092" lon="-4.349526">
        <time>2021-08-24T13:37:34Z</time>
      </trkpt>
      <trkpt lat="36.81478" lon="-4.348435">
        <time>2021-08-24T13:37:40Z</time>
      </trkpt>
      <trkpt lat="36.8145" lon="-4.347536">
        <time>2021-08-24T13:37:46Z</time>
      </trkpt>
      <trkpt lat="36.814602" lon="-4.347067">
        <time>2021-08-24T13:37:49Z</time>
      </trkpt>
      <trkpt lat="36.814687" lon="-4.346594">
        <time>2021-08-24T13:37:52Z</time>
      </trkpt>
      <trkpt lat="36.814725" lon="-4.34551">
        <time>2021-08-24T13:37:58Z</time>
      </trkpt>
      <trkpt lat="36.815088" lon="-4.344503">
        <time>2021-08-24T13:38:04Z</time>
      </trkpt>
      <trkpt lat="36.815126" lon="-4.344024">
        <time>2021-08-24T13:38:07Z</time>
      </trkpt>
      <trkpt lat="36.815059" lon="-4.342873">
        <time>2021-08-24T13:38:13Z</time>
      </trkpt>
      <trkpt lat="36.81488" lon="-4.339431">
        <time>2021-08-24T13:38:31Z</time>
      </trkpt>
      <trkpt lat="36.814124" lon="-4.338046">
        <time>2021-08-24T13:38:40Z</time>
      </trkpt>
      <trkpt lat="36.813768" lon="-4.337794">
        <time>2021-08-24T13:38:43Z</time>
      </trkpt>
      <trkpt lat="36.811865" lon="-4.335615">
        <time>2021-08-24T13:38:58Z</time>
      </trkpt>
      <trkpt lat="36.811366" lon="-4.334632">
        <time>2021-08-24T13:39:04Z</time>
      </trkpt>
      <trkpt lat="36.811198" lon="-4.333574">
        <time>2021-08-24T13:39:10Z</time>
      </trkpt>
      <trkpt lat="36.811108" lon="-4.333051">
        <time>2021-08-24T13:39:13Z</time>
      </trkpt>
      <trkpt lat="36.811108" lon="-4.333051">
        <time>2021-08-24T13:39:13Z</time>
      </trkpt>
      <trkpt lat="36.811145" lon="-4.331847">
        <time>2021-08-24T13:39:22Z</time>
      </trkpt>
      <trkpt lat="36.810862" lon="-4.331875">
        <time>2021-08-24T13:39:25Z</time>
      </trkpt>
      <trkpt lat="36.81053" lon="-4.332076">
        <time>2021-08-24T13:39:28Z</time>
      </trkpt>
      <trkpt lat="36.809984" lon="-4.332453">
        <time>2021-08-24T13:39:34Z</time>
      </trkpt>
      <trkpt lat="36.809709" lon="-4.332258">
        <time>2021-08-24T13:39:37Z</time>
      </trkpt>
      <trkpt lat="36.80921" lon="-4.331648">
        <time>2021-08-24T13:39:43Z</time>
      </trkpt>
      <trkpt lat="36.808596" lon="-4.331002">
        <time>2021-08-24T13:39:49Z</time>
      </trkpt>
      <trkpt lat="36.808048" lon="-4.330277">
        <time>2021-08-24T13:39:55Z</time>
      </trkpt>
      <trkpt lat="36.808048" lon="-4.330277">
        <time>2021-08-24T13:39:55Z</time>
      </trkpt>
      <trkpt lat="36.807705" lon="-4.329971">
        <time>2021-08-24T13:39:58Z</time>
      </trkpt>
      <trkpt lat="36.807399" lon="-4.329782">
        <time>2021-08-24T13:40:01Z</time>
      </trkpt>
      <trkpt lat="36.807026" lon="-4.329872">
        <time>2021-08-24T13:40:04Z</time>
      </trkpt>
      <trkpt lat="36.806709" lon="-4.330017">
        <time>2021-08-24T13:40:07Z</time>
      </trkpt>
      <trkpt lat="36.806346" lon="-4.329928">
        <time>2021-08-24T13:40:10Z</time>
      </trkpt>
      <trkpt lat="36.805064" lon="-4.329475">
        <time>2021-08-24T13:40:19Z</time>
      </trkpt>
      <trkpt lat="36.80433" lon="-4.328612">
        <time>2021-08-24T13:40:25Z</time>
      </trkpt>
      <trkpt lat="36.804105" lon="-4.328059">
        <time>2021-08-24T13:40:28Z</time>
      </trkpt>
      <trkpt lat="36.803992" lon="-4.327472">
        <time>2021-08-24T13:40:31Z</time>
      </trkpt>
      <trkpt lat="36.803745" lon="-4.32647">
        <time>2021-08-24T13:40:37Z</time>
      </trkpt>
      <trkpt lat="36.803446" lon="-4.326315">
        <time>2021-08-24T13:40:40Z</time>
      </trkpt>
      <trkpt lat="36.803103" lon="-4.326039">
        <time>2021-08-24T13:40:43Z</time>
      </trkpt>
      <trkpt lat="36.802515" lon="-4.325174">
        <time>2021-08-24T13:40:49Z</time>
      </trkpt>
      <trkpt lat="36.801869" lon="-4.324426">
        <time>2021-08-24T13:40:55Z</time>
      </trkpt>
      <trkpt lat="36.801737" lon="-4.324037">
        <time>2021-08-24T13:40:58Z</time>
      </trkpt>
      <trkpt lat="36.801502" lon="-4.323774">
        <time>2021-08-24T13:41:01Z</time>
      </trkpt>
      <trkpt lat="36.801377" lon="-4.323303">
        <time>2021-08-24T13:41:04Z</time>
      </trkpt>
      <trkpt lat="36.800986" lon="-4.322406">
        <time>2021-08-24T13:41:10Z</time>
      </trkpt>
      <trkpt lat="36.800722" lon="-4.321656">
        <time>2021-08-24T13:41:16Z</time>
      </trkpt>
      <trkpt lat="36.800916" lon="-4.321308">
        <time>2021-08-24T13:41:19Z</time>
      </trkpt>
      <trkpt lat="36.801163" lon="-4.32099">
        <time>2021-08-24T13:41:22Z</time>
      </trkpt>
      <trkpt lat="36.801206" lon="-4.320644">
        <time>2021-08-24T13:41:25Z</time>
      </trkpt>
      <trkpt lat="36.801123" lon="-4.320525">
        <time>2021-08-24T13:41:28Z</time>
      </trkpt>
      <trkpt lat="36.800931" lon="-4.320621">
        <time>2021-08-24T13:41:31Z</time>
      </trkpt>
      <trkpt lat="36.800721" lon="-4.320932">
        <time>2021-08-24T13:41:34Z</time>
      </trkpt>
      <trkpt lat="36.800171" lon="-4.321639">
        <time>2021-08-24T13:41:40Z</time>
      </trkpt>
      <trkpt lat="36.799743" lon="-4.321793">
        <time>2021-08-24T13:41:43Z</time>
      </trkpt>
      <trkpt lat="36.799743" lon="-4.321793">
        <time>2021-08-24T13:41:43Z</time>
      </trkpt>
      <trkpt lat="36.798845" lon="-4.321853">
        <time>2021-08-24T13:41:49Z</time>
      </trkpt>
      <trkpt lat="36.798395" lon="-4.321914">
        <time>2021-08-24T13:41:52Z</time>
      </trkpt>
      <trkpt lat="36.79797" lon="-4.322121">
        <time>2021-08-24T13:41:55Z</time>
      </trkpt>
      <trkpt lat="36.795856" lon="-4.322952">
        <time>2021-08-24T13:42:10Z</time>
      </trkpt>
      <trkpt lat="36.795093" lon="-4.322827">
        <time>2021-08-24T13:42:16Z</time>
      </trkpt>
      <trkpt lat="36.795093" lon="-4.322827">
        <time>2021-08-24T13:42:16Z</time>
      </trkpt>
      <trkpt lat="36.794744" lon="-4.323033">
        <time>2021-08-24T13:42:19Z</time>
      </trkpt>
      <trkpt lat="36.794064" lon="-4.323412">
        <time>2021-08-24T13:42:25Z</time>
      </trkpt>
      <trkpt lat="36.793737" lon="-4.323685">
        <time>2021-08-24T13:42:28Z</time>
      </trkpt>
      <trkpt lat="36.791025" lon="-4.326072">
        <time>2021-08-24T13:42:46Z</time>
      </trkpt>
      <trkpt lat="36.791025" lon="-4.326072">
        <time>2021-08-24T13:42:46Z</time>
      </trkpt>
      <trkpt lat="36.790591" lon="-4.326125">
        <time>2021-08-24T13:42:49Z</time>
      </trkpt>
      <trkpt lat="36.789814" lon="-4.326205">
        <time>2021-08-24T13:42:55Z</time>
      </trkpt>
      <trkpt lat="36.789599" lon="-4.326293">
        <time>2021-08-24T13:42:58Z</time>
      </trkpt>
      <trkpt lat="36.789391" lon="-4.326062">
        <time>2021-08-24T13:43:01Z</time>
      </trkpt>
      <trkpt lat="36.788822" lon="-4.325353">
        <time>2021-08-24T13:43:07Z</time>
      </trkpt>
      <trkpt lat="36.788549" lon="-4.324435">
        <time>2021-08-24T13:43:13Z</time>
      </trkpt>
      <trkpt lat="36.788383" lon="-4.324143">
        <time>2021-08-24T13:43:16Z</time>
      </trkpt>
      <trkpt lat="36.788027" lon="-4.32401">
        <time>2021-08-24T13:43:19Z</time>
      </trkpt>
      <trkpt lat="36.787265" lon="-4.323678">
        <time>2021-08-24T13:43:25Z</time>
      </trkpt>
      <trkpt lat="36.787265" lon="-4.323678">
        <time>2021-08-24T13:43:25Z</time>
      </trkpt>
      <trkpt lat="36.786991" lon="-4.323203">
        <time>2021-08-24T13:43:28Z</time>
      </trkpt>
      <trkpt lat="36.786257" lon="-4.32153">
        <time>2021-08-24T13:43:37Z</time>
      </trkpt>
      <trkpt lat="36.785808" lon="-4.321241">
        <time>2021-08-24T13:43:40Z</time>
      </trkpt>
      <trkpt lat="36.785302" lon="-4.321145">
        <time>2021-08-24T13:43:43Z</time>
      </trkpt>
      <trkpt lat="36.784833" lon="-4.321258">
        <time>2021-08-24T13:43:46Z</time>
      </trkpt>
      <trkpt lat="36.784338" lon="-4.321234">
        <time>2021-08-24T13:43:52Z</time>
      </trkpt>
      <trkpt lat="36.784465" lon="-4.321029">
        <time>2021-08-24T13:43:55Z</time>
      </trkpt>
      <trkpt lat="36.784814" lon="-4.320877">
        <time>2021-08-24T13:43:58Z</time>
      </trkpt>
      <trkpt lat="36.785165" lon="-4.320787">
        <time>2021-08-24T13:44:01Z</time>
      </trkpt>
      <trkpt lat="36.785369" lon="-4.320713">
        <time>2021-08-24T13:44:04Z</time>
      </trkpt>
      <trkpt lat="36.785354" lon="-4.320544">
        <time>2021-08-24T13:44:07Z</time>
      </trkpt>
      <trkpt lat="36.785101" lon="-4.320586">
        <time>2021-08-24T13:44:10Z</time>
      </trkpt>
      <trkpt lat="36.784376" lon="-4.320615">
        <time>2021-08-24T13:44:16Z</time>
      </trkpt>
      <trkpt lat="36.784" lon="-4.320653">
        <time>2021-08-24T13:44:19Z</time>
      </trkpt>
      <trkpt lat="36.782821" lon="-4.320852">
        <time>2021-08-24T13:44:28Z</time>
      </trkpt>
      <trkpt lat="36.78197" lon="-4.321087">
        <time>2021-08-24T13:44:34Z</time>
      </trkpt>
      <trkpt lat="36.781483" lon="-4.320981">
        <time>2021-08-24T13:44:37Z</time>
      </trkpt>
      <trkpt lat="36.781058" lon="-4.320831">
        <time>2021-08-24T13:44:40Z</time>
      </trkpt>
      <trkpt lat="36.780821" lon="-4.320479">
        <time>2021-08-24T13:44:43Z</time>
      </trkpt>
      <trkpt lat="36.780073" lon="-4.319225">
        <time>2021-08-24T13:44:52Z</time>
      </trkpt>
      <trkpt lat="36.779797" lon="-4.318755">
        <time>2021-08-24T13:44:55Z</time>
      </trkpt>
      <trkpt lat="36.779419" lon="-4.317632">
        <time>2021-08-24T13:45:01Z</time>
      </trkpt>
      <trkpt lat="36.779013" lon="-4.317041">
        <time>2021-08-24T13:45:07Z</time>
      </trkpt>
      <trkpt lat="36.778648" lon="-4.317169">
        <time>2021-08-24T13:45:10Z</time>
      </trkpt>
      <trkpt lat="36.778648" lon="-4.317169">
        <time>2021-08-24T13:45:10Z</time>
      </trkpt>
      <trkpt lat="36.777953" lon="-4.317752">
        <time>2021-08-24T13:45:16Z</time>
      </trkpt>
      <trkpt lat="36.77784" lon="-4.318054">
        <time>2021-08-24T13:45:19Z</time>
      </trkpt>
      <trkpt lat="36.778064" lon="-4.318957">
        <time>2021-08-24T13:45:25Z</time>
      </trkpt>
      <trkpt lat="36.778126" lon="-4.319451">
        <time>2021-08-24T13:45:28Z</time>
      </trkpt>
      <trkpt lat="36.777973" lon="-4.320086">
        <time>2021-08-24T13:45:34Z</time>
      </trkpt>
      <trkpt lat="36.777673" lon="-4.320119">
        <time>2021-08-24T13:45:37Z</time>
      </trkpt>
      <trkpt lat="36.777373" lon="-4.32021">
        <time>2021-08-24T13:45:40Z</time>
      </trkpt>
      <trkpt lat="36.777257" lon="-4.320508">
        <time>2021-08-24T13:45:43Z</time>
      </trkpt>
      <trkpt lat="36.77736" lon="-4.321255">
        <time>2021-08-24T13:45:49Z</time>
      </trkpt>
      <trkpt lat="36.777172" lon="-4.321354">
        <time>2021-08-24T13:45:52Z</time>
      </trkpt>
      <trkpt lat="36.777172" lon="-4.321354">
        <time>2021-08-24T13:45:52Z</time>
      </trkpt>
      <trkpt lat="36.776007" lon="-4.321004">
        <time>2021-08-24T13:46:01Z</time>
      </trkpt>
      <trkpt lat="36.775451" lon="-4.320249">
        <time>2021-08-24T13:46:07Z</time>
      </trkpt>
      <trkpt lat="36.775079" lon="-4.320121">
        <time>2021-08-24T13:46:10Z</time>
      </trkpt>
      <trkpt lat="36.773786" lon="-4.319678">
        <time>2021-08-24T13:46:19Z</time>
      </trkpt>
      <trkpt lat="36.77318" lon="-4.319283">
        <time>2021-08-24T13:46:25Z</time>
      </trkpt>
      <trkpt lat="36.772945" lon="-4.319495">
        <time>2021-08-24T13:46:28Z</time>
      </trkpt>
      <trkpt lat="36.772945" lon="-4.319495">
        <time>2021-08-24T13:46:28Z</time>
      </trkpt>
      <trkpt lat="36.772749" lon="-4.320197">
        <time>2021-08-24T13:46:34Z</time>
      </trkpt>
      <trkpt lat="36.772976" lon="-4.320907">
        <time>2021-08-24T13:46:40Z</time>
      </trkpt>
      <trkpt lat="36.772873" lon="-4.321047">
        <time>2021-08-24T13:46:43Z</time>
      </trkpt>
      <trkpt lat="36.772739" lon="-4.320981">
        <time>2021-08-24T13:46:46Z</time>
      </trkpt>
      <trkpt lat="36.771748" lon="-4.320331">
        <time>2021-08-24T13:46:58Z</time>
      </trkpt>
      <trkpt lat="36.771537" lon="-4.320221">
        <time>2021-08-24T13:47:01Z</time>
      </trkpt>
      <trkpt lat="36.771357" lon="-4.320355">
        <time>2021-08-24T13:47:04Z</time>
      </trkpt>
      <trkpt lat="36.771145" lon="-4.320467">
        <time>2021-08-24T13:47:07Z</time>
      </trkpt>
      <trkpt lat="36.770619" lon="-4.320597">
        <time>2021-08-24T13:47:13Z</time>
      </trkpt>
      <trkpt lat="36.770506" lon="-4.32081">
        <time>2021-08-24T13:47:16Z</time>
      </trkpt>
      <trkpt lat="36.770335" lon="-4.320884">
        <time>2021-08-24T13:47:19Z</time>
      </trkpt>
      <trkpt lat="36.770022" lon="-4.320856">
        <time>2021-08-24T13:47:22Z</time>
      </trkpt>
      <trkpt lat="36.769298" lon="-4.32075">
        <time>2021-08-24T13:47:28Z</time>
      </trkpt>
      <trkpt lat="36.768955" lon="-4.320695">
        <time>2021-08-24T13:47:31Z</time>
      </trkpt>
      <trkpt lat="36.76863" lon="-4.320781">
        <time>2021-08-24T13:47:34Z</time>
      </trkpt>
      <trkpt lat="36.768172" lon="-4.321166">
        <time>2021-08-24T13:47:40Z</time>
      </trkpt>
      <trkpt lat="36.768041" lon="-4.320986">
        <time>2021-08-24T13:47:43Z</time>
      </trkpt>
      <trkpt lat="36.767795" lon="-4.320689">
        <time>2021-08-24T13:47:46Z</time>
      </trkpt>
      <trkpt lat="36.767521" lon="-4.320527">
        <time>2021-08-24T13:47:49Z</time>
      </trkpt>
      <trkpt lat="36.76731" lon="-4.320569">
        <time>2021-08-24T13:47:52Z</time>
      </trkpt>
      <trkpt lat="36.767152" lon="-4.320888">
        <time>2021-08-24T13:47:55Z</time>
      </trkpt>
      <trkpt lat="36.766967" lon="-4.321252">
        <time>2021-08-24T13:47:58Z</time>
      </trkpt>
      <trkpt lat="36.766735" lon="-4.3214">
        <time>2021-08-24T13:48:01Z</time>
      </trkpt>
      <trkpt lat="36.766554" lon="-4.321226">
        <time>2021-08-24T13:48:04Z</time>
      </trkpt>
      <trkpt lat="36.766295" lon="-4.321094">
        <time>2021-08-24T13:48:07Z</time>
      </trkpt>
      <trkpt lat="36.765978" lon="-4.321156">
        <time>2021-08-24T13:48:10Z</time>
      </trkpt>
      <trkpt lat="36.764726" lon="-4.321055">
        <time>2021-08-24T13:48:19Z</time>
      </trkpt>
      <trkpt lat="36.764346" lon="-4.321018">
        <time>2021-08-24T13:48:22Z</time>
      </trkpt>
      <trkpt lat="36.763717" lon="-4.32077">
        <time>2021-08-24T13:48:28Z</time>
      </trkpt>
      <trkpt lat="36.763667" lon="-4.320997">
        <time>2021-08-24T13:48:31Z</time>
      </trkpt>
      <trkpt lat="36.763667" lon="-4.320997">
        <time>2021-08-24T13:48:31Z</time>
      </trkpt>
      <trkpt lat="36.764012" lon="-4.322404">
        <time>2021-08-24T13:48:40Z</time>
      </trkpt>
      <trkpt lat="36.764001" lon="-4.323382">
        <time>2021-08-24T13:48:46Z</time>
      </trkpt>
      <trkpt lat="36.763807" lon="-4.323581">
        <time>2021-08-24T13:48:49Z</time>
      </trkpt>
      <trkpt lat="36.763807" lon="-4.323581">
        <time>2021-08-24T13:48:49Z</time>
      </trkpt>
      <trkpt lat="36.76284" lon="-4.324148">
        <time>2021-08-24T13:48:58Z</time>
      </trkpt>
      <trkpt lat="36.762645" lon="-4.324348">
        <time>2021-08-24T13:49:01Z</time>
      </trkpt>
      <trkpt lat="36.762072" lon="-4.324518">
        <time>2021-08-24T13:49:07Z</time>
      </trkpt>
      <trkpt lat="36.761056" lon="-4.32534">
        <time>2021-08-24T13:49:16Z</time>
      </trkpt>
      <trkpt lat="36.760848" lon="-4.32551">
        <time>2021-08-24T13:49:19Z</time>
      </trkpt>
      <trkpt lat="36.760696" lon="-4.325782">
        <time>2021-08-24T13:49:22Z</time>
      </trkpt>
      <trkpt lat="36.760451" lon="-4.326085">
        <time>2021-08-24T13:49:25Z</time>
      </trkpt>
      <trkpt lat="36.760333" lon="-4.326554">
        <time>2021-08-24T13:49:28Z</time>
      </trkpt>
      <trkpt lat="36.760266" lon="-4.326991">
        <time>2021-08-24T13:49:31Z</time>
      </trkpt>
      <trkpt lat="36.760266" lon="-4.326991">
        <time>2021-08-24T13:49:31Z</time>
      </trkpt>
      <trkpt lat="36.760003" lon="-4.327336">
        <time>2021-08-24T13:49:34Z</time>
      </trkpt>
      <trkpt lat="36.759788" lon="-4.327811">
        <time>2021-08-24T13:49:37Z</time>
      </trkpt>
      <trkpt lat="36.759533" lon="-4.328191">
        <time>2021-08-24T13:49:40Z</time>
      </trkpt>
      <trkpt lat="36.758717" lon="-4.328619">
        <time>2021-08-24T13:49:46Z</time>
      </trkpt>
      <trkpt lat="36.75828" lon="-4.32861">
        <time>2021-08-24T13:49:49Z</time>
      </trkpt>
      <trkpt lat="36.757934" lon="-4.328437">
        <time>2021-08-24T13:49:52Z</time>
      </trkpt>
      <trkpt lat="36.757689" lon="-4.328473">
        <time>2021-08-24T13:49:55Z</time>
      </trkpt>
      <trkpt lat="36.757557" lon="-4.328793">
        <time>2021-08-24T13:49:58Z</time>
      </trkpt>
      <trkpt lat="36.757174" lon="-4.329538">
        <time>2021-08-24T13:50:04Z</time>
      </trkpt>
      <trkpt lat="36.756786" lon="-4.329737">
        <time>2021-08-24T13:50:07Z</time>
      </trkpt>
      <trkpt lat="36.756385" lon="-4.32993">
        <time>2021-08-24T13:50:10Z</time>
      </trkpt>
      <trkpt lat="36.755935" lon="-4.329842">
        <time>2021-08-24T13:50:13Z</time>
      </trkpt>
      <trkpt lat="36.755186" lon="-4.329779">
        <time>2021-08-24T13:50:19Z</time>
      </trkpt>
      <trkpt lat="36.753087" lon="-4.331394">
        <time>2021-08-24T13:50:34Z</time>
      </trkpt>
      <trkpt lat="36.753087" lon="-4.331394">
        <time>2021-08-24T13:50:34Z</time>
      </trkpt>
      <trkpt lat="36.753087" lon="-4.331394">
        <time>2021-08-24T13:50:34Z</time>
      </trkpt>
      <trkpt lat="36.753087" lon="-4.331394">
        <time>2021-08-24T13:50:34Z</time>
      </trkpt>
      <trkpt lat="36.752744" lon="-4.331759">
        <time>2021-08-24T13:50:37Z</time>
      </trkpt>
      <trkpt lat="36.752367" lon="-4.331889">
        <time>2021-08-24T13:50:40Z</time>
      </trkpt>
      <trkpt lat="36.751394" lon="-4.33197">
        <time>2021-08-24T13:50:46Z</time>
      </trkpt>
      <trkpt lat="36.750449" lon="-4.332347">
        <time>2021-08-24T13:50:52Z</time>
      </trkpt>
      <trkpt lat="36.749923" lon="-4.332639">
        <time>2021-08-24T13:50:58Z</time>
      </trkpt>
      <trkpt lat="36.750008" lon="-4.332835">
        <time>2021-08-24T13:51:01Z</time>
      </trkpt>
      <trkpt lat="36.750256" lon="-4.33272">
        <time>2021-08-24T13:51:04Z</time>
      </trkpt>
      <trkpt lat="36.750614" lon="-4.33253">
        <time>2021-08-24T13:51:07Z</time>
      </trkpt>
      <trkpt lat="36.751589" lon="-4.332446">
        <time>2021-08-24T13:51:13Z</time>
      </trkpt>
      <trkpt lat="36.751968" lon="-4.332439">
        <time>2021-08-24T13:51:16Z</time>
      </trkpt>
      <trkpt lat="36.752126" lon="-4.332626">
        <time>2021-08-24T13:51:19Z</time>
      </trkpt>
      <trkpt lat="36.751977" lon="-4.332775">
        <time>2021-08-24T13:51:22Z</time>
      </trkpt>
      <trkpt lat="36.750771" lon="-4.332917">
        <time>2021-08-24T13:51:31Z</time>
      </trkpt>
      <trkpt lat="36.750418" lon="-4.333244">
        <time>2021-08-24T13:51:34Z</time>
      </trkpt>
      <trkpt lat="36.750084" lon="-4.333566">
        <time>2021-08-24T13:51:37Z</time>
      </trkpt>
      <trkpt lat="36.74959" lon="-4.33395">
        <time>2021-08-24T13:51:43Z</time>
      </trkpt>
      <trkpt lat="36.749344" lon="-4.333756">
        <time>2021-08-24T13:51:46Z</time>
      </trkpt>
      <trkpt lat="36.749134" lon="-4.333455">
        <time>2021-08-24T13:51:49Z</time>
      </trkpt>
      <trkpt lat="36.7491" lon="-4.33301">
        <time>2021-08-24T13:51:52Z</time>
      </trkpt>
      <trkpt lat="36.749102" lon="-4.332463">
        <time>2021-08-24T13:51:55Z</time>
      </trkpt>
      <trkpt lat="36.748927" lon="-4.331215">
        <time>2021-08-24T13:52:04Z</time>
      </trkpt>
      <trkpt lat="36.748631" lon="-4.331066">
        <time>2021-08-24T13:52:07Z</time>
      </trkpt>
      <trkpt lat="36.748399" lon="-4.33121">
        <time>2021-08-24T13:52:10Z</time>
      </trkpt>
      <trkpt lat="36.748257" lon="-4.331451">
        <time>2021-08-24T13:52:13Z</time>
      </trkpt>
      <trkpt lat="36.748062" lon="-4.331459">
        <time>2021-08-24T13:52:16Z</time>
      </trkpt>
      <trkpt lat="36.748012" lon="-4.331212">
        <time>2021-08-24T13:52:19Z</time>
      </trkpt>
      <trkpt lat="36.747886" lon="-4.330613">
        <time>2021-08-24T13:52:25Z</time>
      </trkpt>
      <trkpt lat="36.747715" lon="-4.33045">
        <time>2021-08-24T13:52:28Z</time>
      </trkpt>
      <trkpt lat="36.747436" lon="-4.330528">
        <time>2021-08-24T13:52:31Z</time>
      </trkpt>
      <trkpt lat="36.747125" lon="-4.330516">
        <time>2021-08-24T13:52:34Z</time>
      </trkpt>
      <trkpt lat="36.746812" lon="-4.330408">
        <time>2021-08-24T13:52:37Z</time>
      </trkpt>
      <trkpt lat="36.74652" lon="-4.33054">
        <time>2021-08-24T13:52:40Z</time>
      </trkpt>
      <trkpt lat="36.74625" lon="-4.330557">
        <time>2021-08-24T13:52:43Z</time>
      </trkpt>
      <trkpt lat="36.745952" lon="-4.330451">
        <time>2021-08-24T13:52:46Z</time>
      </trkpt>
      <trkpt lat="36.745952" lon="-4.330451">
        <time>2021-08-24T13:52:46Z</time>
      </trkpt>
      <trkpt lat="36.745498" lon="-4.330368">
        <time>2021-08-24T13:52:52Z</time>
      </trkpt>
      <trkpt lat="36.745284" lon="-4.330067">
        <time>2021-08-24T13:52:58Z</time>
      </trkpt>
      <trkpt lat="36.745056" lon="-4.329889">
        <time>2021-08-24T13:53:01Z</time>
      </trkpt>
      <trkpt lat="36.744737" lon="-4.329304">
        <time>2021-08-24T13:53:07Z</time>
      </trkpt>
      <trkpt lat="36.744483" lon="-4.329346">
        <time>2021-08-24T13:53:10Z</time>
      </trkpt>
      <trkpt lat="36.744236" lon="-4.32937">
        <time>2021-08-24T13:53:13Z</time>
      </trkpt>
      <trkpt lat="36.743976" lon="-4.329295">
        <time>2021-08-24T13:53:16Z</time>
      </trkpt>
      <trkpt lat="36.743674" lon="-4.329479">
        <time>2021-08-24T13:53:19Z</time>
      </trkpt>
      <trkpt lat="36.743012" lon="-4.330011">
        <time>2021-08-24T13:53:25Z</time>
      </trkpt>
      <trkpt lat="36.742797" lon="-4.330121">
        <time>2021-08-24T13:53:28Z</time>
      </trkpt>
      <trkpt lat="36.742604" lon="-4.329974">
        <time>2021-08-24T13:53:31Z</time>
      </trkpt>
      <trkpt lat="36.74244" lon="-4.330043">
        <time>2021-08-24T13:53:34Z</time>
      </trkpt>
      <trkpt lat="36.742333" lon="-4.330384">
        <time>2021-08-24T13:53:37Z</time>
      </trkpt>
      <trkpt lat="36.742333" lon="-4.330384">
        <time>2021-08-24T13:53:37Z</time>
      </trkpt>
      <trkpt lat="36.742266" lon="-4.330806">
        <time>2021-08-24T13:53:40Z</time>
      </trkpt>
      <trkpt lat="36.742208" lon="-4.33114">
        <time>2021-08-24T13:53:43Z</time>
      </trkpt>
      <trkpt lat="36.742052" lon="-4.331242">
        <time>2021-08-24T13:53:46Z</time>
      </trkpt>
      <trkpt lat="36.741821" lon="-4.331045">
        <time>2021-08-24T13:53:49Z</time>
      </trkpt>
      <trkpt lat="36.741357" lon="-4.330497">
        <time>2021-08-24T13:53:55Z</time>
      </trkpt>
      <trkpt lat="36.741157" lon="-4.33044">
        <time>2021-08-24T13:53:58Z</time>
      </trkpt>
      <trkpt lat="36.740847" lon="-4.330648">
        <time>2021-08-24T13:54:01Z</time>
      </trkpt>
      <trkpt lat="36.740565" lon="-4.33096">
        <time>2021-08-24T13:54:04Z</time>
      </trkpt>
      <trkpt lat="36.740493" lon="-4.331372">
        <time>2021-08-24T13:54:07Z</time>
      </trkpt>
      <trkpt lat="36.740347" lon="-4.331768">
        <time>2021-08-24T13:54:10Z</time>
      </trkpt>
      <trkpt lat="36.739708" lon="-4.332221">
        <time>2021-08-24T13:54:16Z</time>
      </trkpt>
      <trkpt lat="36.739052" lon="-4.331775">
        <time>2021-08-24T13:54:22Z</time>
      </trkpt>
      <trkpt lat="36.739052" lon="-4.331775">
        <time>2021-08-24T13:54:22Z</time>
      </trkpt>
      <trkpt lat="36.738755" lon="-4.331537">
        <time>2021-08-24T13:54:25Z</time>
      </trkpt>
      <trkpt lat="36.738357" lon="-4.331544">
        <time>2021-08-24T13:54:28Z</time>
      </trkpt>
      <trkpt lat="36.73763" lon="-4.331783">
        <time>2021-08-24T13:54:34Z</time>
      </trkpt>
      <trkpt lat="36.737386" lon="-4.332395">
        <time>2021-08-24T13:54:40Z</time>
      </trkpt>
      <trkpt lat="36.737551" lon="-4.332465">
        <time>2021-08-24T13:54:43Z</time>
      </trkpt>
      <trkpt lat="36.737678" lon="-4.332215">
        <time>2021-08-24T13:54:46Z</time>
      </trkpt>
      <trkpt lat="36.73786" lon="-4.331994">
        <time>2021-08-24T13:54:49Z</time>
      </trkpt>
      <trkpt lat="36.738133" lon="-4.332074">
        <time>2021-08-24T13:54:52Z</time>
      </trkpt>
      <trkpt lat="36.738588" lon="-4.332359">
        <time>2021-08-24T13:54:58Z</time>
      </trkpt>
      <trkpt lat="36.738487" lon="-4.332584">
        <time>2021-08-24T13:55:01Z</time>
      </trkpt>
      <trkpt lat="36.738244" lon="-4.332519">
        <time>2021-08-24T13:55:04Z</time>
      </trkpt>
      <trkpt lat="36.737978" lon="-4.332422">
        <time>2021-08-24T13:55:07Z</time>
      </trkpt>
      <trkpt lat="36.737849" lon="-4.332577">
        <time>2021-08-24T13:55:10Z</time>
      </trkpt>
      <trkpt lat="36.737749" lon="-4.332933">
        <time>2021-08-24T13:55:13Z</time>
      </trkpt>
      <trkpt lat="36.737494" lon="-4.333316">
        <time>2021-08-24T13:55:16Z</time>
      </trkpt>
      <trkpt lat="36.737173" lon="-4.333551">
        <time>2021-08-24T13:55:19Z</time>
      </trkpt>
      <trkpt lat="36.736825" lon="-4.333682">
        <time>2021-08-24T13:55:22Z</time>
      </trkpt>
      <trkpt lat="36.736571" lon="-4.334082">
        <time>2021-08-24T13:55:25Z</time>
      </trkpt>
      <trkpt lat="36.73616" lon="-4.334892">
        <time>2021-08-24T13:55:31Z</time>
      </trkpt>
      <trkpt lat="36.734571" lon="-4.33579">
        <time>2021-08-24T13:55:43Z</time>
      </trkpt>
      <trkpt lat="36.73431" lon="-4.336099">
        <time>2021-08-24T13:55:46Z</time>
      </trkpt>
      <trkpt lat="36.734169" lon="-4.336443">
        <time>2021-08-24T13:55:49Z</time>
      </trkpt>
      <trkpt lat="36.733827" lon="-4.336679">
        <time>2021-08-24T13:55:52Z</time>
      </trkpt>
      <trkpt lat="36.733103" lon="-4.33716">
        <time>2021-08-24T13:55:58Z</time>
      </trkpt>
      <trkpt lat="36.732907" lon="-4.337527">
        <time>2021-08-24T13:56:01Z</time>
      </trkpt>
      <trkpt lat="36.732882" lon="-4.337966">
        <time>2021-08-24T13:56:04Z</time>
      </trkpt>
      <trkpt lat="36.73308" lon="-4.338287">
        <time>2021-08-24T13:56:07Z</time>
      </trkpt>
      <trkpt lat="36.733415" lon="-4.338364">
        <time>2021-08-24T13:56:10Z</time>
      </trkpt>
      <trkpt lat="36.733714" lon="-4.338261">
        <time>2021-08-24T13:56:13Z</time>
      </trkpt>
      <trkpt lat="36.733867" lon="-4.337941">
        <time>2021-08-24T13:56:16Z</time>
      </trkpt>
      <trkpt lat="36.733973" lon="-4.33776">
        <time>2021-08-24T13:56:19Z</time>
      </trkpt>
      <trkpt lat="36.734035" lon="-4.337806">
        <time>2021-08-24T13:56:22Z</time>
      </trkpt>
      <trkpt lat="36.73399" lon="-4.338194">
        <time>2021-08-24T13:56:25Z</time>
      </trkpt>
      <trkpt lat="36.733826" lon="-4.338632">
        <time>2021-08-24T13:56:28Z</time>
      </trkpt>
      <trkpt lat="36.733361" lon="-4.339314">
        <time>2021-08-24T13:56:34Z</time>
      </trkpt>
      <trkpt lat="36.733361" lon="-4.339314">
        <time>2021-08-24T13:56:34Z</time>
      </trkpt>
      <trkpt lat="36.732995" lon="-4.339435">
        <time>2021-08-24T13:56:37Z</time>
      </trkpt>
      <trkpt lat="36.731969" lon="-4.339916">
        <time>2021-08-24T13:56:46Z</time>
      </trkpt>
      <trkpt lat="36.7318" lon="-4.34024">
        <time>2021-08-24T13:56:49Z</time>
      </trkpt>
      <trkpt lat="36.73148" lon="-4.340259">
        <time>2021-08-24T13:56:52Z</time>
      </trkpt>
      <trkpt lat="36.731175" lon="-4.340052">
        <time>2021-08-24T13:56:55Z</time>
      </trkpt>
      <trkpt lat="36.730846" lon="-4.339865">
        <time>2021-08-24T13:56:58Z</time>
      </trkpt>
      <trkpt lat="36.730505" lon="-4.33978">
        <time>2021-08-24T13:57:01Z</time>
      </trkpt>
      <trkpt lat="36.730192" lon="-4.339969">
        <time>2021-08-24T13:57:04Z</time>
      </trkpt>
      <trkpt lat="36.729984" lon="-4.340435">
        <time>2021-08-24T13:57:07Z</time>
      </trkpt>
      <trkpt lat="36.729776" lon="-4.341001">
        <time>2021-08-24T13:57:10Z</time>
      </trkpt>
      <trkpt lat="36.729367" lon="-4.341993">
        <time>2021-08-24T13:57:16Z</time>
      </trkpt>
      <trkpt lat="36.729073" lon="-4.342198">
        <time>2021-08-24T13:57:19Z</time>
      </trkpt>
      <trkpt lat="36.72876" lon="-4.34237">
        <time>2021-08-24T13:57:22Z</time>
      </trkpt>
      <trkpt lat="36.728261" lon="-4.342984">
        <time>2021-08-24T13:57:28Z</time>
      </trkpt>
      <trkpt lat="36.727798" lon="-4.343215">
        <time>2021-08-24T13:57:34Z</time>
      </trkpt>
      <trkpt lat="36.727776" lon="-4.342988">
        <time>2021-08-24T13:57:37Z</time>
      </trkpt>
      <trkpt lat="36.727675" lon="-4.342893">
        <time>2021-08-24T13:57:40Z</time>
      </trkpt>
      <trkpt lat="36.72749" lon="-4.34305">
        <time>2021-08-24T13:57:43Z</time>
      </trkpt>
      <trkpt lat="36.726841" lon="-4.343443">
        <time>2021-08-24T13:57:49Z</time>
      </trkpt>
      <trkpt lat="36.726469" lon="-4.343644">
        <time>2021-08-24T13:57:52Z</time>
      </trkpt>
      <trkpt lat="36.726195" lon="-4.343961">
        <time>2021-08-24T13:57:55Z</time>
      </trkpt>
      <trkpt lat="36.726195" lon="-4.343961">
        <time>2021-08-24T13:57:55Z</time>
      </trkpt>
      <trkpt lat="36.726088" lon="-4.344363">
        <time>2021-08-24T13:57:58Z</time>
      </trkpt>
      <trkpt lat="36.726014" lon="-4.344681">
        <time>2021-08-24T13:58:01Z</time>
      </trkpt>
      <trkpt lat="36.725801" lon="-4.344829">
        <time>2021-08-24T13:58:04Z</time>
      </trkpt>
      <trkpt lat="36.724225" lon="-4.345413">
        <time>2021-08-24T13:58:16Z</time>
      </trkpt>
      <trkpt lat="36.723501" lon="-4.346046">
        <time>2021-08-24T13:58:22Z</time>
      </trkpt>
      <trkpt lat="36.722638" lon="-4.347131">
        <time>2021-08-24T13:58:31Z</time>
      </trkpt>
      <trkpt lat="36.722023" lon="-4.348064">
        <time>2021-08-24T13:58:43Z</time>
      </trkpt>
      <trkpt lat="36.72115" lon="-4.350655">
        <time>2021-08-24T13:59:04Z</time>
      </trkpt>
      <trkpt lat="36.720937" lon="-4.351263">
        <time>2021-08-24T13:59:10Z</time>
      </trkpt>
      <trkpt lat="36.720702" lon="-4.352436">
        <time>2021-08-24T13:59:19Z</time>
      </trkpt>
      <trkpt lat="36.720546" lon="-4.352746">
        <time>2021-08-24T13:59:22Z</time>
      </trkpt>
      <trkpt lat="36.720274" lon="-4.353275">
        <time>2021-08-24T13:59:52Z</time>
      </trkpt>
      <trkpt lat="36.720178" lon="-4.353301">
        <time>2021-08-24T13:59:55Z</time>
      </trkpt>
      <trkpt lat="36.720164" lon="-4.353475">
        <time>2021-08-24T13:59:58Z</time>
      </trkpt>
      <trkpt lat="36.720263" lon="-4.35508">
        <time>2021-08-24T14:01:43Z</time>
      </trkpt>
      <trkpt lat="36.720198" lon="-4.355083">
        <time>2021-08-24T14:01:46Z</time>
      </trkpt>
      <trkpt lat="36.720189" lon="-4.355127">
        <time>2021-08-24T14:01:49Z</time>
      </trkpt>
      <trkpt lat="36.72021" lon="-4.35525">
        <time>2021-08-24T14:01:55Z</time>
      </trkpt>
      <trkpt lat="36.720061" lon="-4.355357">
        <time>2021-08-24T14:02:01Z</time>
      </trkpt>
      <trkpt lat="36.719985" lon="-4.35548">
        <time>2021-08-24T14:02:07Z</time>
      </trkpt>
      <trkpt lat="36.719738" lon="-4.3555">
        <time>2021-08-24T14:03:22Z</time>
      </trkpt>
      <trkpt lat="36.719575" lon="-4.355483">
        <time>2021-08-24T14:03:25Z</time>
      </trkpt>
      <trkpt lat="36.719293" lon="-4.355166">
        <time>2021-08-24T14:03:28Z</time>
      </trkpt>
      <trkpt lat="36.718597" lon="-4.354192">
        <time>2021-08-24T14:03:55Z</time>
      </trkpt>
      <trkpt lat="36.718597" lon="-4.354192">
        <time>2021-08-24T14:03:55Z</time>
      </trkpt>
      <trkpt lat="36.718504" lon="-4.353949">
        <time>2021-08-24T14:03:58Z</time>
      </trkpt>
      <trkpt lat="36.717578" lon="-4.349333">
        <time>2021-08-24T14:04:37Z</time>
      </trkpt>
      <trkpt lat="36.717422" lon="-4.348775">
        <time>2021-08-24T14:04:52Z</time>
      </trkpt>
      <trkpt lat="36.717296" lon="-4.348558">
        <time>2021-08-24T14:04:58Z</time>
      </trkpt>
      <trkpt lat="36.717191" lon="-4.348443">
        <time>2021-08-24T14:06:25Z</time>
      </trkpt>
      <trkpt lat="36.717107" lon="-4.34827">
        <time>2021-08-24T14:07:16Z</time>
      </trkpt>
      <trkpt lat="36.717107" lon="-4.34827">
        <time>2021-08-24T14:07:16Z</time>
      </trkpt>
      <trkpt lat="36.717151" lon="-4.348141">
        <time>2021-08-24T15:10:07Z</time>
      </trkpt>
      <trkpt lat="36.717176" lon="-4.348135">
        <time>2021-08-24T15:10:13Z</time>
      </trkpt>
      <trkpt lat="36.717153" lon="-4.348217">
        <time>2021-08-24T15:11:07Z</time>
      </trkpt>
      <trkpt lat="36.717162" lon="-4.348156">
        <time>2021-08-24T15:13:01Z</time>
      </trkpt>
      <trkpt lat="36.717133" lon="-4.347982">
        <time>2021-08-24T15:13:07Z</time>
      </trkpt>
      <trkpt lat="36.717015" lon="-4.347612">
        <time>2021-08-24T15:13:19Z</time>
      </trkpt>
      <trkpt lat="36.716941" lon="-4.347554">
        <time>2021-08-24T15:13:22Z</time>
      </trkpt>
      <trkpt lat="36.716828" lon="-4.347437">
        <time>2021-08-24T15:13:43Z</time>
      </trkpt>
      <trkpt lat="36.716569" lon="-4.347051">
        <time>2021-08-24T15:14:28Z</time>
      </trkpt>
      <trkpt lat="36.715833" lon="-4.346462">
        <time>2021-08-24T15:15:10Z</time>
      </trkpt>
      <trkpt lat="36.715444" lon="-4.345942">
        <time>2021-08-24T15:15:16Z</time>
      </trkpt>
      <trkpt lat="36.715303" lon="-4.345471">
        <time>2021-08-24T15:15:19Z</time>
      </trkpt>
      <trkpt lat="36.71493" lon="-4.343874">
        <time>2021-08-24T15:15:28Z</time>
      </trkpt>
      <trkpt lat="36.714602" lon="-4.343441">
        <time>2021-08-24T15:15:31Z</time>
      </trkpt>
      <trkpt lat="36.714602" lon="-4.343441">
        <time>2021-08-24T15:15:31Z</time>
      </trkpt>
      <trkpt lat="36.713946" lon="-4.342543">
        <time>2021-08-24T15:15:37Z</time>
      </trkpt>
      <trkpt lat="36.713566" lon="-4.341359">
        <time>2021-08-24T15:15:43Z</time>
      </trkpt>
      <trkpt lat="36.713439" lon="-4.340052">
        <time>2021-08-24T15:15:49Z</time>
      </trkpt>
      <trkpt lat="36.713627" lon="-4.338809">
        <time>2021-08-24T15:15:55Z</time>
      </trkpt>
      <trkpt lat="36.713803" lon="-4.338213">
        <time>2021-08-24T15:15:58Z</time>
      </trkpt>
      <trkpt lat="36.714337" lon="-4.336433">
        <time>2021-08-24T15:16:10Z</time>
      </trkpt>
      <trkpt lat="36.714376" lon="-4.335813">
        <time>2021-08-24T15:16:10Z</time>
      </trkpt>
      <trkpt lat="36.714265" lon="-4.334621">
        <time>2021-08-24T15:16:16Z</time>
      </trkpt>
      <trkpt lat="36.71369" lon="-4.332353">
        <time>2021-08-24T15:16:28Z</time>
      </trkpt>
      <trkpt lat="36.713624" lon="-4.331672">
        <time>2021-08-24T15:16:31Z</time>
      </trkpt>
      <trkpt lat="36.71328" lon="-4.326351">
        <time>2021-08-24T15:16:55Z</time>
      </trkpt>
      <trkpt lat="36.713189" lon="-4.325971">
        <time>2021-08-24T15:16:58Z</time>
      </trkpt>
      <trkpt lat="36.713162" lon="-4.32575">
        <time>2021-08-24T15:17:01Z</time>
      </trkpt>
      <trkpt lat="36.713122" lon="-4.324456">
        <time>2021-08-24T15:17:10Z</time>
      </trkpt>
      <trkpt lat="36.712898" lon="-4.323614">
        <time>2021-08-24T15:17:16Z</time>
      </trkpt>
      <trkpt lat="36.712745" lon="-4.323213">
        <time>2021-08-24T15:17:22Z</time>
      </trkpt>
      <trkpt lat="36.71283" lon="-4.323114">
        <time>2021-08-24T15:17:25Z</time>
      </trkpt>
      <trkpt lat="36.712911" lon="-4.323122">
        <time>2021-08-24T15:17:28Z</time>
      </trkpt>
      <trkpt lat="36.713018" lon="-4.323117">
        <time>2021-08-24T15:17:31Z</time>
      </trkpt>
      <trkpt lat="36.713077" lon="-4.32334">
        <time>2021-08-24T15:17:34Z</time>
      </trkpt>
      <trkpt lat="36.713288" lon="-4.325282">
        <time>2021-08-24T15:17:49Z</time>
      </trkpt>
      <trkpt lat="36.713691" lon="-4.331491">
        <time>2021-08-24T15:18:16Z</time>
      </trkpt>
      <trkpt lat="36.714131" lon="-4.333658">
        <time>2021-08-24T15:18:25Z</time>
      </trkpt>
      <trkpt lat="36.71504" lon="-4.335654">
        <time>2021-08-24T15:18:34Z</time>
      </trkpt>
      <trkpt lat="36.716015" lon="-4.336585">
        <time>2021-08-24T15:18:40Z</time>
      </trkpt>
      <trkpt lat="36.716015" lon="-4.336585">
        <time>2021-08-24T15:18:40Z</time>
      </trkpt>
      <trkpt lat="36.717221" lon="-4.337064">
        <time>2021-08-24T15:18:46Z</time>
      </trkpt>
      <trkpt lat="36.720491" lon="-4.33716">
        <time>2021-08-24T15:19:01Z</time>
      </trkpt>
      <trkpt lat="36.720491" lon="-4.33716">
        <time>2021-08-24T15:19:01Z</time>
      </trkpt>
      <trkpt lat="36.721719" lon="-4.33784">
        <time>2021-08-24T15:19:07Z</time>
      </trkpt>
      <trkpt lat="36.722714" lon="-4.338987">
        <time>2021-08-24T15:19:13Z</time>
      </trkpt>
      <trkpt lat="36.723374" lon="-4.34051">
        <time>2021-08-24T15:19:19Z</time>
      </trkpt>
      <trkpt lat="36.723575" lon="-4.341374">
        <time>2021-08-24T15:19:22Z</time>
      </trkpt>
      <trkpt lat="36.72491" lon="-4.345633">
        <time>2021-08-24T15:19:37Z</time>
      </trkpt>
      <trkpt lat="36.725751" lon="-4.347103">
        <time>2021-08-24T15:19:43Z</time>
      </trkpt>
      <trkpt lat="36.726753" lon="-4.34837">
        <time>2021-08-24T15:19:49Z</time>
      </trkpt>
      <trkpt lat="36.729145" lon="-4.350216">
        <time>2021-08-24T15:20:01Z</time>
      </trkpt>
      <trkpt lat="36.729803" lon="-4.350574">
        <time>2021-08-24T15:20:04Z</time>
      </trkpt>
      <trkpt lat="36.732151" lon="-4.351496">
        <time>2021-08-24T15:20:16Z</time>
      </trkpt>
      <trkpt lat="36.732725" lon="-4.352619">
        <time>2021-08-24T15:20:22Z</time>
      </trkpt>
      <trkpt lat="36.732626" lon="-4.353364">
        <time>2021-08-24T15:20:25Z</time>
      </trkpt>
      <trkpt lat="36.732513" lon="-4.354106">
        <time>2021-08-24T15:20:28Z</time>
      </trkpt>
      <trkpt lat="36.731747" lon="-4.356906">
        <time>2021-08-24T15:20:40Z</time>
      </trkpt>
      <trkpt lat="36.730943" lon="-4.358176">
        <time>2021-08-24T15:20:46Z</time>
      </trkpt>
      <trkpt lat="36.729941" lon="-4.359354">
        <time>2021-08-24T15:20:52Z</time>
      </trkpt>
      <trkpt lat="36.728887" lon="-4.361609">
        <time>2021-08-24T15:21:01Z</time>
      </trkpt>
      <trkpt lat="36.728772" lon="-4.363318">
        <time>2021-08-24T15:21:07Z</time>
      </trkpt>
      <trkpt lat="36.72913" lon="-4.364978">
        <time>2021-08-24T15:21:13Z</time>
      </trkpt>
      <trkpt lat="36.72913" lon="-4.364978">
        <time>2021-08-24T15:21:13Z</time>
      </trkpt>
      <trkpt lat="36.731514" lon="-4.369643">
        <time>2021-08-24T15:21:37Z</time>
      </trkpt>
      <trkpt lat="36.731634" lon="-4.370276">
        <time>2021-08-24T15:21:40Z</time>
      </trkpt>
      <trkpt lat="36.73168" lon="-4.370944">
        <time>2021-08-24T15:21:43Z</time>
      </trkpt>
      <trkpt lat="36.731828" lon="-4.373729">
        <time>2021-08-24T15:21:55Z</time>
      </trkpt>
      <trkpt lat="36.732315" lon="-4.375002">
        <time>2021-08-24T15:22:01Z</time>
      </trkpt>
      <trkpt lat="36.732686" lon="-4.375575">
        <time>2021-08-24T15:22:04Z</time>
      </trkpt>
      <trkpt lat="36.733132" lon="-4.376064">
        <time>2021-08-24T15:22:07Z</time>
      </trkpt>
      <trkpt lat="36.734194" lon="-4.376753">
        <time>2021-08-24T15:22:13Z</time>
      </trkpt>
      <trkpt lat="36.73716" lon="-4.377873">
        <time>2021-08-24T15:22:28Z</time>
      </trkpt>
      <trkpt lat="36.740168" lon="-4.38699">
        <time>2021-08-24T15:23:12Z</time>
      </trkpt>
      <trkpt lat="36.740168" lon="-4.38699">
        <time>2021-08-24T15:23:12Z</time>
      </trkpt>
      <trkpt lat="36.738433" lon="-4.391549">
        <time>2021-08-24T15:23:30Z</time>
      </trkpt>
      <trkpt lat="36.738388" lon="-4.392439">
        <time>2021-08-24T15:23:33Z</time>
      </trkpt>
      <trkpt lat="36.738459" lon="-4.393328">
        <time>2021-08-24T15:23:36Z</time>
      </trkpt>
      <trkpt lat="36.738913" lon="-4.395029">
        <time>2021-08-24T15:23:42Z</time>
      </trkpt>
      <trkpt lat="36.73971" lon="-4.397549">
        <time>2021-08-24T15:23:51Z</time>
      </trkpt>
      <trkpt lat="36.739796" lon="-4.398511">
        <time>2021-08-24T15:23:54Z</time>
      </trkpt>
      <trkpt lat="36.740229" lon="-4.400422">
        <time>2021-08-24T15:24:00Z</time>
      </trkpt>
      <trkpt lat="36.742131" lon="-4.403652">
        <time>2021-08-24T15:24:12Z</time>
      </trkpt>
      <trkpt lat="36.74362" lon="-4.405971">
        <time>2021-08-24T15:24:21Z</time>
      </trkpt>
      <trkpt lat="36.74549" lon="-4.407843">
        <time>2021-08-24T15:24:30Z</time>
      </trkpt>
      <trkpt lat="36.74549" lon="-4.407843">
        <time>2021-08-24T15:24:30Z</time>
      </trkpt>
      <trkpt lat="36.749326" lon="-4.41119">
        <time>2021-08-24T15:24:48Z</time>
      </trkpt>
      <trkpt lat="36.751935" lon="-4.414732">
        <time>2021-08-24T15:25:03Z</time>
      </trkpt>
      <trkpt lat="36.752653" lon="-4.415221">
        <time>2021-08-24T15:25:06Z</time>
      </trkpt>
      <trkpt lat="36.755902" lon="-4.417589">
        <time>2021-08-24T15:25:21Z</time>
      </trkpt>
      <trkpt lat="36.756278" lon="-4.418398">
        <time>2021-08-24T15:25:24Z</time>
      </trkpt>
      <trkpt lat="36.756708" lon="-4.427568">
        <time>2021-08-24T15:25:57Z</time>
      </trkpt>
      <trkpt lat="36.756708" lon="-4.427568">
        <time>2021-08-24T15:25:57Z</time>
      </trkpt>
      <trkpt lat="36.755657" lon="-4.428827">
        <time>2021-08-24T15:26:03Z</time>
      </trkpt>
      <trkpt lat="36.752348" lon="-4.430875">
        <time>2021-08-24T15:26:18Z</time>
      </trkpt>
      <trkpt lat="36.749047" lon="-4.433193">
        <time>2021-08-24T15:26:33Z</time>
      </trkpt>
      <trkpt lat="36.748514" lon="-4.43392">
        <time>2021-08-24T15:26:36Z</time>
      </trkpt>
      <trkpt lat="36.747671" lon="-4.435568">
        <time>2021-08-24T15:26:42Z</time>
      </trkpt>
      <trkpt lat="36.747187" lon="-4.437349">
        <time>2021-08-24T15:26:48Z</time>
      </trkpt>
      <trkpt lat="36.746947" lon="-4.439149">
        <time>2021-08-24T15:26:54Z</time>
      </trkpt>
      <trkpt lat="36.746458" lon="-4.440829">
        <time>2021-08-24T15:27:00Z</time>
      </trkpt>
      <trkpt lat="36.745561" lon="-4.442276">
        <time>2021-08-24T15:27:06Z</time>
      </trkpt>
      <trkpt lat="36.743952" lon="-4.444356">
        <time>2021-08-24T15:27:15Z</time>
      </trkpt>
      <trkpt lat="36.743952" lon="-4.444356">
        <time>2021-08-24T15:27:15Z</time>
      </trkpt>
      <trkpt lat="36.743326" lon="-4.446263">
        <time>2021-08-24T15:27:21Z</time>
      </trkpt>
      <trkpt lat="36.743318" lon="-4.448398">
        <time>2021-08-24T15:27:27Z</time>
      </trkpt>
      <trkpt lat="36.743689" lon="-4.450521">
        <time>2021-08-24T15:27:33Z</time>
      </trkpt>
      <trkpt lat="36.743759" lon="-4.452618">
        <time>2021-08-24T15:27:39Z</time>
      </trkpt>
      <trkpt lat="36.743698" lon="-4.456764">
        <time>2021-08-24T15:27:51Z</time>
      </trkpt>
      <trkpt lat="36.743698" lon="-4.456764">
        <time>2021-08-24T15:27:51Z</time>
      </trkpt>
      <trkpt lat="36.744618" lon="-4.459808">
        <time>2021-08-24T15:28:00Z</time>
      </trkpt>
      <trkpt lat="36.744618" lon="-4.459808">
        <time>2021-08-24T15:28:00Z</time>
      </trkpt>
      <trkpt lat="36.744618" lon="-4.459808">
        <time>2021-08-24T15:28:00Z</time>
      </trkpt>
      <trkpt lat="36.746367" lon="-4.462257">
        <time>2021-08-24T15:28:09Z</time>
      </trkpt>
      <trkpt lat="36.746367" lon="-4.462257">
        <time>2021-08-24T15:28:09Z</time>
      </trkpt>
      <trkpt lat="36.749522" lon="-4.465823">
        <time>2021-08-24T15:28:24Z</time>
      </trkpt>
      <trkpt lat="36.750037" lon="-4.466677">
        <time>2021-08-24T15:28:27Z</time>
      </trkpt>
      <trkpt lat="36.753231" lon="-4.471771">
        <time>2021-08-24T15:28:45Z</time>
      </trkpt>
      <trkpt lat="36.756621" lon="-4.476784">
        <time>2021-08-24T15:29:03Z</time>
      </trkpt>
      <trkpt lat="36.756621" lon="-4.476784">
        <time>2021-08-24T15:29:03Z</time>
      </trkpt>
      <trkpt lat="36.757227" lon="-4.478831">
        <time>2021-08-24T15:29:09Z</time>
      </trkpt>
      <trkpt lat="36.757354" lon="-4.480999">
        <time>2021-08-24T15:29:15Z</time>
      </trkpt>
      <trkpt lat="36.756989" lon="-4.483169">
        <time>2021-08-24T15:29:21Z</time>
      </trkpt>
      <trkpt lat="36.756624" lon="-4.484189">
        <time>2021-08-24T15:29:24Z</time>
      </trkpt>
      <trkpt lat="36.755558" lon="-4.486028">
        <time>2021-08-24T15:29:30Z</time>
      </trkpt>
      <trkpt lat="36.754199" lon="-4.487568">
        <time>2021-08-24T15:29:36Z</time>
      </trkpt>
      <trkpt lat="36.75242" lon="-4.490282">
        <time>2021-08-24T15:29:45Z</time>
      </trkpt>
      <trkpt lat="36.751583" lon="-4.492417">
        <time>2021-08-24T15:29:51Z</time>
      </trkpt>
      <trkpt lat="36.749012" lon="-4.497632">
        <time>2021-08-24T15:30:06Z</time>
      </trkpt>
      <trkpt lat="36.749012" lon="-4.497632">
        <time>2021-08-24T15:30:06Z</time>
      </trkpt>
      <trkpt lat="36.746023" lon="-4.500741">
        <time>2021-08-24T15:30:18Z</time>
      </trkpt>
      <trkpt lat="36.74517" lon="-4.501339">
        <time>2021-08-24T15:30:21Z</time>
      </trkpt>
      <trkpt lat="36.742392" lon="-4.502682">
        <time>2021-08-24T15:30:30Z</time>
      </trkpt>
      <trkpt lat="36.740568" lon="-4.503385">
        <time>2021-08-24T15:30:36Z</time>
      </trkpt>
      <trkpt lat="36.736511" lon="-4.505978">
        <time>2021-08-24T15:30:51Z</time>
      </trkpt>
      <trkpt lat="36.7348" lon="-4.506771">
        <time>2021-08-24T15:30:57Z</time>
      </trkpt>
      <trkpt lat="36.732064" lon="-4.507133">
        <time>2021-08-24T15:31:06Z</time>
      </trkpt>
      <trkpt lat="36.732064" lon="-4.507133">
        <time>2021-08-24T15:31:06Z</time>
      </trkpt>
      <trkpt lat="36.727688" lon="-4.50726">
        <time>2021-08-24T15:31:21Z</time>
      </trkpt>
      <trkpt lat="36.726808" lon="-4.507598">
        <time>2021-08-24T15:31:24Z</time>
      </trkpt>
      <trkpt lat="36.721718" lon="-4.509272">
        <time>2021-08-24T15:31:42Z</time>
      </trkpt>
      <trkpt lat="36.721718" lon="-4.509272">
        <time>2021-08-24T15:31:42Z</time>
      </trkpt>
      <trkpt lat="36.71662" lon="-4.508865">
        <time>2021-08-24T15:32:00Z</time>
      </trkpt>
      <trkpt lat="36.71409" lon="-4.509099">
        <time>2021-08-24T15:32:09Z</time>
      </trkpt>
      <trkpt lat="36.711697" lon="-4.510075">
        <time>2021-08-24T15:32:18Z</time>
      </trkpt>
      <trkpt lat="36.711697" lon="-4.510075">
        <time>2021-08-24T15:32:18Z</time>
      </trkpt>
      <trkpt lat="36.707349" lon="-4.513466">
        <time>2021-08-24T15:32:36Z</time>
      </trkpt>
      <trkpt lat="36.706574" lon="-4.51388">
        <time>2021-08-24T15:32:39Z</time>
      </trkpt>
      <trkpt lat="36.702312" lon="-4.515175">
        <time>2021-08-24T15:32:54Z</time>
      </trkpt>
      <trkpt lat="36.700646" lon="-4.516046">
        <time>2021-08-24T15:33:00Z</time>
      </trkpt>
      <trkpt lat="36.698398" lon="-4.517996">
        <time>2021-08-24T15:33:09Z</time>
      </trkpt>
      <trkpt lat="36.697735" lon="-4.51875">
        <time>2021-08-24T15:33:12Z</time>
      </trkpt>
      <trkpt lat="36.694763" lon="-4.522773">
        <time>2021-08-24T15:33:27Z</time>
      </trkpt>
      <trkpt lat="36.692647" lon="-4.524932">
        <time>2021-08-24T15:33:36Z</time>
      </trkpt>
      <trkpt lat="36.692647" lon="-4.524932">
        <time>2021-08-24T15:33:36Z</time>
      </trkpt>
      <trkpt lat="36.692647" lon="-4.524932">
        <time>2021-08-24T15:33:36Z</time>
      </trkpt>
      <trkpt lat="36.691016" lon="-4.525982">
        <time>2021-08-24T15:33:42Z</time>
      </trkpt>
      <trkpt lat="36.690161" lon="-4.526365">
        <time>2021-08-24T15:33:45Z</time>
      </trkpt>
      <trkpt lat="36.686619" lon="-4.527036">
        <time>2021-08-24T15:33:57Z</time>
      </trkpt>
      <trkpt lat="36.686619" lon="-4.527036">
        <time>2021-08-24T15:33:57Z</time>
      </trkpt>
      <trkpt lat="36.681419" lon="-4.526136">
        <time>2021-08-24T15:34:15Z</time>
      </trkpt>
      <trkpt lat="36.677665" lon="-4.526127">
        <time>2021-08-24T15:34:27Z</time>
      </trkpt>
      <trkpt lat="36.676752" lon="-4.526307">
        <time>2021-08-24T15:34:30Z</time>
      </trkpt>
      <trkpt lat="36.673386" lon="-4.527671">
        <time>2021-08-24T15:34:42Z</time>
      </trkpt>
      <trkpt lat="36.671862" lon="-4.528457">
        <time>2021-08-24T15:34:48Z</time>
      </trkpt>
      <trkpt lat="36.669446" lon="-4.529233">
        <time>2021-08-24T15:34:57Z</time>
      </trkpt>
      <trkpt lat="36.666723" lon="-4.52924">
        <time>2021-08-24T15:35:06Z</time>
      </trkpt>
      <trkpt lat="36.666723" lon="-4.52924">
        <time>2021-08-24T15:35:06Z</time>
      </trkpt>
      <trkpt lat="36.665743" lon="-4.52905">
        <time>2021-08-24T15:35:09Z</time>
      </trkpt>
      <trkpt lat="36.662703" lon="-4.527692">
        <time>2021-08-24T15:35:18Z</time>
      </trkpt>
      <trkpt lat="36.661748" lon="-4.526979">
        <time>2021-08-24T15:35:21Z</time>
      </trkpt>
      <trkpt lat="36.660135" lon="-4.525283">
        <time>2021-08-24T15:35:27Z</time>
      </trkpt>
      <trkpt lat="36.658391" lon="-4.522478">
        <time>2021-08-24T15:35:36Z</time>
      </trkpt>
      <trkpt lat="36.657394" lon="-4.520512">
        <time>2021-08-24T15:35:42Z</time>
      </trkpt>
      <trkpt lat="36.646981" lon="-4.512788">
        <time>2021-08-24T15:36:26Z</time>
      </trkpt>
      <trkpt lat="36.646981" lon="-4.512788">
        <time>2021-08-24T15:36:26Z</time>
      </trkpt>
      <trkpt lat="36.642352" lon="-4.513996">
        <time>2021-08-24T15:36:41Z</time>
      </trkpt>
      <trkpt lat="36.638695" lon="-4.514438">
        <time>2021-08-24T15:36:53Z</time>
      </trkpt>
      <trkpt lat="36.637778" lon="-4.514338">
        <time>2021-08-24T15:36:56Z</time>
      </trkpt>
      <trkpt lat="36.633136" lon="-4.51316">
        <time>2021-08-24T15:37:11Z</time>
      </trkpt>
      <trkpt lat="36.631251" lon="-4.513163">
        <time>2021-08-24T15:37:17Z</time>
      </trkpt>
      <trkpt lat="36.62866" lon="-4.513999">
        <time>2021-08-24T15:37:26Z</time>
      </trkpt>
      <trkpt lat="36.62866" lon="-4.513999">
        <time>2021-08-24T15:37:26Z</time>
      </trkpt>
      <trkpt lat="36.62417" lon="-4.516792">
        <time>2021-08-24T15:37:44Z</time>
      </trkpt>
      <trkpt lat="36.621659" lon="-4.517771">
        <time>2021-08-24T15:37:53Z</time>
      </trkpt>
      <trkpt lat="36.619505" lon="-4.518222">
        <time>2021-08-24T15:38:02Z</time>
      </trkpt>
      <trkpt lat="36.617648" lon="-4.518867">
        <time>2021-08-24T15:38:14Z</time>
      </trkpt>
      <trkpt lat="36.616366" lon="-4.519904">
        <time>2021-08-24T15:38:32Z</time>
      </trkpt>
      <trkpt lat="36.615561" lon="-4.520987">
        <time>2021-08-24T15:38:41Z</time>
      </trkpt>
      <trkpt lat="36.615226" lon="-4.521636">
        <time>2021-08-24T15:38:44Z</time>
      </trkpt>
      <trkpt lat="36.613462" lon="-4.526889">
        <time>2021-08-24T15:39:02Z</time>
      </trkpt>
      <trkpt lat="36.613462" lon="-4.526889">
        <time>2021-08-24T15:39:02Z</time>
      </trkpt>
      <trkpt lat="36.611153" lon="-4.530447">
        <time>2021-08-24T15:39:17Z</time>
      </trkpt>
      <trkpt lat="36.610675" lon="-4.532219">
        <time>2021-08-24T15:39:23Z</time>
      </trkpt>
      <trkpt lat="36.610675" lon="-4.532219">
        <time>2021-08-24T15:39:23Z</time>
      </trkpt>
      <trkpt lat="36.609472" lon="-4.538216">
        <time>2021-08-24T15:39:41Z</time>
      </trkpt>
      <trkpt lat="36.609472" lon="-4.538216">
        <time>2021-08-24T15:39:41Z</time>
      </trkpt>
      <trkpt lat="36.607212" lon="-4.543143">
        <time>2021-08-24T15:39:59Z</time>
      </trkpt>
      <trkpt lat="36.605983" lon="-4.546533">
        <time>2021-08-24T15:40:11Z</time>
      </trkpt>
      <trkpt lat="36.605772" lon="-4.548398">
        <time>2021-08-24T15:40:17Z</time>
      </trkpt>
      <trkpt lat="36.605775" lon="-4.549427">
        <time>2021-08-24T15:40:20Z</time>
      </trkpt>
      <trkpt lat="36.60665" lon="-4.554319">
        <time>2021-08-24T15:40:35Z</time>
      </trkpt>
      <trkpt lat="36.606686" lon="-4.555326">
        <time>2021-08-24T15:40:38Z</time>
      </trkpt>
      <trkpt lat="36.606434" lon="-4.55736">
        <time>2021-08-24T15:40:44Z</time>
      </trkpt>
      <trkpt lat="36.605489" lon="-4.559984">
        <time>2021-08-24T15:40:53Z</time>
      </trkpt>
      <trkpt lat="36.605042" lon="-4.56182">
        <time>2021-08-24T15:40:59Z</time>
      </trkpt>
      <trkpt lat="36.604781" lon="-4.565769">
        <time>2021-08-24T15:41:11Z</time>
      </trkpt>
      <trkpt lat="36.604553" lon="-4.566773">
        <time>2021-08-24T15:41:14Z</time>
      </trkpt>
      <trkpt lat="36.603789" lon="-4.568651">
        <time>2021-08-24T15:41:20Z</time>
      </trkpt>
      <trkpt lat="36.602619" lon="-4.57027">
        <time>2021-08-24T15:41:26Z</time>
      </trkpt>
      <trkpt lat="36.601933" lon="-4.570946">
        <time>2021-08-24T15:41:29Z</time>
      </trkpt>
      <trkpt lat="36.598126" lon="-4.574579">
        <time>2021-08-24T15:41:44Z</time>
      </trkpt>
      <trkpt lat="36.594233" lon="-4.57831">
        <time>2021-08-24T15:41:59Z</time>
      </trkpt>
      <trkpt lat="36.590829" lon="-4.582072">
        <time>2021-08-24T15:42:14Z</time>
      </trkpt>
      <trkpt lat="36.590223" lon="-4.582957">
        <time>2021-08-24T15:42:17Z</time>
      </trkpt>
      <trkpt lat="36.58832" lon="-4.587023">
        <time>2021-08-24T15:42:29Z</time>
      </trkpt>
      <trkpt lat="36.58832" lon="-4.587023">
        <time>2021-08-24T15:42:29Z</time>
      </trkpt>
      <trkpt lat="36.5874" lon="-4.59156">
        <time>2021-08-24T15:42:41Z</time>
      </trkpt>
      <trkpt lat="36.587304" lon="-4.592725">
        <time>2021-08-24T15:42:44Z</time>
      </trkpt>
      <trkpt lat="36.586461" lon="-4.599036">
        <time>2021-08-24T15:43:02Z</time>
      </trkpt>
      <trkpt lat="36.586461" lon="-4.599036">
        <time>2021-08-24T15:43:02Z</time>
      </trkpt>
      <trkpt lat="36.584935" lon="-4.602496">
        <time>2021-08-24T15:43:14Z</time>
      </trkpt>
      <trkpt lat="36.583908" lon="-4.603951">
        <time>2021-08-24T15:43:20Z</time>
      </trkpt>
      <trkpt lat="36.580559" lon="-4.607948">
        <time>2021-08-24T15:43:38Z</time>
      </trkpt>
      <trkpt lat="36.57764" lon="-4.612358">
        <time>2021-08-24T15:43:56Z</time>
      </trkpt>
      <trkpt lat="36.57764" lon="-4.612358">
        <time>2021-08-24T15:43:56Z</time>
      </trkpt>
      <trkpt lat="36.575583" lon="-4.618191">
        <time>2021-08-24T15:44:14Z</time>
      </trkpt>
      <trkpt lat="36.573418" lon="-4.623669">
        <time>2021-08-24T15:44:32Z</time>
      </trkpt>
      <trkpt lat="36.573418" lon="-4.623669">
        <time>2021-08-24T15:44:32Z</time>
      </trkpt>
      <trkpt lat="36.572124" lon="-4.624852">
        <time>2021-08-24T15:44:38Z</time>
      </trkpt>
      <trkpt lat="36.57047" lon="-4.625267">
        <time>2021-08-24T15:44:44Z</time>
      </trkpt>
      <trkpt lat="36.568864" lon="-4.624845">
        <time>2021-08-24T15:44:50Z</time>
      </trkpt>
      <trkpt lat="36.568864" lon="-4.624845">
        <time>2021-08-24T15:44:50Z</time>
      </trkpt>
      <trkpt lat="36.565311" lon="-4.622213">
        <time>2021-08-24T15:45:05Z</time>
      </trkpt>
      <trkpt lat="36.56451" lon="-4.621996">
        <time>2021-08-24T15:45:08Z</time>
      </trkpt>
      <trkpt lat="36.5601" lon="-4.620671">
        <time>2021-08-24T15:45:26Z</time>
      </trkpt>
      <trkpt lat="36.5601" lon="-4.620671">
        <time>2021-08-24T15:45:26Z</time>
      </trkpt>
      <trkpt lat="36.5601" lon="-4.620671">
        <time>2021-08-24T15:45:26Z</time>
      </trkpt>
      <trkpt lat="36.5601" lon="-4.620671">
        <time>2021-08-24T15:45:26Z</time>
      </trkpt>
      <trkpt lat="36.557937" lon="-4.620063">
        <time>2021-08-24T15:45:35Z</time>
      </trkpt>
      <trkpt lat="36.556499" lon="-4.620417">
        <time>2021-08-24T15:45:41Z</time>
      </trkpt>
      <trkpt lat="36.55525" lon="-4.621253">
        <time>2021-08-24T15:45:47Z</time>
      </trkpt>
      <trkpt lat="36.55525" lon="-4.621253">
        <time>2021-08-24T15:45:47Z</time>
      </trkpt>
      <trkpt lat="36.552545" lon="-4.624664">
        <time>2021-08-24T15:46:02Z</time>
      </trkpt>
      <trkpt lat="36.552072" lon="-4.625422">
        <time>2021-08-24T15:46:05Z</time>
      </trkpt>
      <trkpt lat="36.549074" lon="-4.629852">
        <time>2021-08-24T15:46:23Z</time>
      </trkpt>
      <trkpt lat="36.547846" lon="-4.63114">
        <time>2021-08-24T15:46:29Z</time>
      </trkpt>
      <trkpt lat="36.545264" lon="-4.633278">
        <time>2021-08-24T15:46:41Z</time>
      </trkpt>
      <trkpt lat="36.543207" lon="-4.634536">
        <time>2021-08-24T15:46:50Z</time>
      </trkpt>
      <trkpt lat="36.540887" lon="-4.635071">
        <time>2021-08-24T15:46:59Z</time>
      </trkpt>
      <trkpt lat="36.540887" lon="-4.635071">
        <time>2021-08-24T15:46:59Z</time>
      </trkpt>
      <trkpt lat="36.538531" lon="-4.634796">
        <time>2021-08-24T15:47:08Z</time>
      </trkpt>
      <trkpt lat="36.536249" lon="-4.633753">
        <time>2021-08-24T15:47:17Z</time>
      </trkpt>
      <trkpt lat="36.533403" lon="-4.632035">
        <time>2021-08-24T15:47:29Z</time>
      </trkpt>
      <trkpt lat="36.53212" lon="-4.630889">
        <time>2021-08-24T15:47:35Z</time>
      </trkpt>
      <trkpt lat="36.529701" lon="-4.62868">
        <time>2021-08-24T15:47:47Z</time>
      </trkpt>
      <trkpt lat="36.528966" lon="-4.628552">
        <time>2021-08-24T15:47:50Z</time>
      </trkpt>
      <trkpt lat="36.528214" lon="-4.628684">
        <time>2021-08-24T15:47:53Z</time>
      </trkpt>
      <trkpt lat="36.528214" lon="-4.628684">
        <time>2021-08-24T15:47:53Z</time>
      </trkpt>
      <trkpt lat="36.52753" lon="-4.629073">
        <time>2021-08-24T15:47:56Z</time>
      </trkpt>
      <trkpt lat="36.5252" lon="-4.630349">
        <time>2021-08-24T15:48:08Z</time>
      </trkpt>
      <trkpt lat="36.523663" lon="-4.630327">
        <time>2021-08-24T15:48:17Z</time>
      </trkpt>
      <trkpt lat="36.518779" lon="-4.630321">
        <time>2021-08-24T15:48:38Z</time>
      </trkpt>
      <trkpt lat="36.518779" lon="-4.630321">
        <time>2021-08-24T15:48:38Z</time>
      </trkpt>
      <trkpt lat="36.517435" lon="-4.630933">
        <time>2021-08-24T15:48:44Z</time>
      </trkpt>
      <trkpt lat="36.514434" lon="-4.633526">
        <time>2021-08-24T15:48:59Z</time>
      </trkpt>
      <trkpt lat="36.510455" lon="-4.636247">
        <time>2021-08-24T15:49:20Z</time>
      </trkpt>
      <trkpt lat="36.508408" lon="-4.637635">
        <time>2021-08-24T15:49:32Z</time>
      </trkpt>
      <trkpt lat="36.507329" lon="-4.639238">
        <time>2021-08-24T15:49:41Z</time>
      </trkpt>
      <trkpt lat="36.50714" lon="-4.639882">
        <time>2021-08-24T15:49:44Z</time>
      </trkpt>
      <trkpt lat="36.507054" lon="-4.640574">
        <time>2021-08-24T15:49:47Z</time>
      </trkpt>
      <trkpt lat="36.507077" lon="-4.644075">
        <time>2021-08-24T15:50:02Z</time>
      </trkpt>
      <trkpt lat="36.507361" lon="-4.644672">
        <time>2021-08-24T15:50:05Z</time>
      </trkpt>
      <trkpt lat="36.507729" lon="-4.645204">
        <time>2021-08-24T15:50:08Z</time>
      </trkpt>
      <trkpt lat="36.508013" lon="-4.645803">
        <time>2021-08-24T15:50:11Z</time>
      </trkpt>
      <trkpt lat="36.508123" lon="-4.646475">
        <time>2021-08-24T15:50:14Z</time>
      </trkpt>
      <trkpt lat="36.508067" lon="-4.647157">
        <time>2021-08-24T15:50:17Z</time>
      </trkpt>
      <trkpt lat="36.507127" lon="-4.650637">
        <time>2021-08-24T15:50:32Z</time>
      </trkpt>
      <trkpt lat="36.506155" lon="-4.654266">
        <time>2021-08-24T15:50:47Z</time>
      </trkpt>
      <trkpt lat="36.506309" lon="-4.655004">
        <time>2021-08-24T15:50:50Z</time>
      </trkpt>
      <trkpt lat="36.506826" lon="-4.65643">
        <time>2021-08-24T15:50:56Z</time>
      </trkpt>
      <trkpt lat="36.506993" lon="-4.657153">
        <time>2021-08-24T15:50:59Z</time>
      </trkpt>
      <trkpt lat="36.507282" lon="-4.660912">
        <time>2021-08-24T15:51:14Z</time>
      </trkpt>
      <trkpt lat="36.507426" lon="-4.662387">
        <time>2021-08-24T15:51:20Z</time>
      </trkpt>
      <trkpt lat="36.507426" lon="-4.662387">
        <time>2021-08-24T15:51:20Z</time>
      </trkpt>
      <trkpt lat="36.507104" lon="-4.663778">
        <time>2021-08-24T15:51:26Z</time>
      </trkpt>
      <trkpt lat="36.507104" lon="-4.663778">
        <time>2021-08-24T15:51:26Z</time>
      </trkpt>
      <trkpt lat="36.507104" lon="-4.663778">
        <time>2021-08-24T15:51:26Z</time>
      </trkpt>
      <trkpt lat="36.507104" lon="-4.663778">
        <time>2021-08-24T15:51:26Z</time>
      </trkpt>
      <trkpt lat="36.507104" lon="-4.663778">
        <time>2021-08-24T15:51:26Z</time>
      </trkpt>
      <trkpt lat="36.507104" lon="-4.663778">
        <time>2021-08-24T15:51:26Z</time>
      </trkpt>
      <trkpt lat="36.505407" lon="-4.667792">
        <time>2021-08-24T15:51:44Z</time>
      </trkpt>
      <trkpt lat="36.504507" lon="-4.670422">
        <time>2021-08-24T15:51:56Z</time>
      </trkpt>
      <trkpt lat="36.504233" lon="-4.673481">
        <time>2021-08-24T15:52:08Z</time>
      </trkpt>
      <trkpt lat="36.504233" lon="-4.673481">
        <time>2021-08-24T15:52:08Z</time>
      </trkpt>
      <trkpt lat="36.504277" lon="-4.674951">
        <time>2021-08-24T15:52:14Z</time>
      </trkpt>
      <trkpt lat="36.504669" lon="-4.675493">
        <time>2021-08-24T15:52:17Z</time>
      </trkpt>
      <trkpt lat="36.505906" lon="-4.676792">
        <time>2021-08-24T15:52:26Z</time>
      </trkpt>
      <trkpt lat="36.506259" lon="-4.677962">
        <time>2021-08-24T15:52:32Z</time>
      </trkpt>
      <trkpt lat="36.506271" lon="-4.678608">
        <time>2021-08-24T15:52:35Z</time>
      </trkpt>
      <trkpt lat="36.506165" lon="-4.679274">
        <time>2021-08-24T15:52:38Z</time>
      </trkpt>
      <trkpt lat="36.505611" lon="-4.68037">
        <time>2021-08-24T15:52:44Z</time>
      </trkpt>
      <trkpt lat="36.503381" lon="-4.682465">
        <time>2021-08-24T15:52:59Z</time>
      </trkpt>
      <trkpt lat="36.503011" lon="-4.683044">
        <time>2021-08-24T15:53:02Z</time>
      </trkpt>
      <trkpt lat="36.501577" lon="-4.68527">
        <time>2021-08-24T15:53:14Z</time>
      </trkpt>
      <trkpt lat="36.499697" lon="-4.686971">
        <time>2021-08-24T15:53:29Z</time>
      </trkpt>
      <trkpt lat="36.499667" lon="-4.687118">
        <time>2021-08-24T15:53:32Z</time>
      </trkpt>
      <trkpt lat="36.499765" lon="-4.687159">
        <time>2021-08-24T15:53:35Z</time>
      </trkpt>
      <trkpt lat="36.499934" lon="-4.687002">
        <time>2021-08-24T15:53:38Z</time>
      </trkpt>
      <trkpt lat="36.501465" lon="-4.685755">
        <time>2021-08-24T15:53:59Z</time>
      </trkpt>
      <trkpt lat="36.5015" lon="-4.685849">
        <time>2021-08-24T15:54:02Z</time>
      </trkpt>
      <trkpt lat="36.501426" lon="-4.685934">
        <time>2021-08-24T15:54:05Z</time>
      </trkpt>
      <trkpt lat="36.501376" lon="-4.686005">
        <time>2021-08-24T15:54:08Z</time>
      </trkpt>
      <trkpt lat="36.501358" lon="-4.68606">
        <time>2021-08-24T15:55:52Z</time>
      </trkpt>
      <trkpt lat="36.501358" lon="-4.68606">
        <time>2021-08-24T15:56:12Z</time>
      </trkpt>
      <trkpt lat="36.501358" lon="-4.68606">
        <time>2021-08-24T16:01:54Z</time>
      </trkpt>
      <trkpt lat="36.501358" lon="-4.68606">
        <time>2021-08-24T16:01:54Z</time>
      </trkpt>
      <trkpt lat="36.501343" lon="-4.685924">
        <time>2021-08-24T16:04:23Z</time>
      </trkpt>
      <trkpt lat="36.501371" lon="-4.686004">
        <time>2021-08-24T16:04:32Z</time>
      </trkpt>
      <trkpt lat="36.501239" lon="-4.686091">
        <time>2021-08-24T16:04:56Z</time>
      </trkpt>
      <trkpt lat="36.500903" lon="-4.686284">
        <time>2021-08-24T16:05:02Z</time>
      </trkpt>
      <trkpt lat="36.500673" lon="-4.686399">
        <time>2021-08-24T16:05:05Z</time>
      </trkpt>
      <trkpt lat="36.499591" lon="-4.687374">
        <time>2021-08-24T16:05:23Z</time>
      </trkpt>
      <trkpt lat="36.497781" lon="-4.688851">
        <time>2021-08-24T16:05:53Z</time>
      </trkpt>
      <trkpt lat="36.497687" lon="-4.688886">
        <time>2021-08-24T16:05:53Z</time>
      </trkpt>
      <trkpt lat="36.497555" lon="-4.688833">
        <time>2021-08-24T16:06:14Z</time>
      </trkpt>
      <trkpt lat="36.497287" lon="-4.689013">
        <time>2021-08-24T16:06:17Z</time>
      </trkpt>
      <trkpt lat="36.493114" lon="-4.691948">
        <time>2021-08-24T16:06:41Z</time>
      </trkpt>
      <trkpt lat="36.492622" lon="-4.692383">
        <time>2021-08-24T16:06:44Z</time>
      </trkpt>
      <trkpt lat="36.491765" lon="-4.693582">
        <time>2021-08-24T16:06:50Z</time>
      </trkpt>
      <trkpt lat="36.491331" lon="-4.69514">
        <time>2021-08-24T16:06:56Z</time>
      </trkpt>
      <trkpt lat="36.491249" lon="-4.696779">
        <time>2021-08-24T16:07:02Z</time>
      </trkpt>
      <trkpt lat="36.491126" lon="-4.702374">
        <time>2021-08-24T16:07:26Z</time>
      </trkpt>
      <trkpt lat="36.49082" lon="-4.706644">
        <time>2021-08-24T16:07:44Z</time>
      </trkpt>
      <trkpt lat="36.490495" lon="-4.707942">
        <time>2021-08-24T16:07:50Z</time>
      </trkpt>
      <trkpt lat="36.490252" lon="-4.709328">
        <time>2021-08-24T16:08:33Z</time>
      </trkpt>
      <trkpt lat="36.490252" lon="-4.709328">
        <time>2021-08-24T16:08:33Z</time>
      </trkpt>
      <trkpt lat="36.490272" lon="-4.709389">
        <time>2021-08-24T16:13:56Z</time>
      </trkpt>
      <trkpt lat="36.490189" lon="-4.709558">
        <time>2021-08-24T16:14:50Z</time>
      </trkpt>
      <trkpt lat="36.490107" lon="-4.709624">
        <time>2021-08-24T16:14:53Z</time>
      </trkpt>
      <trkpt lat="36.490023" lon="-4.709817">
        <time>2021-08-24T16:15:08Z</time>
      </trkpt>
      <trkpt lat="36.489415" lon="-4.712447">
        <time>2021-08-24T16:15:20Z</time>
      </trkpt>
      <trkpt lat="36.489255" lon="-4.715168">
        <time>2021-08-24T16:15:32Z</time>
      </trkpt>
      <trkpt lat="36.488918" lon="-4.72145">
        <time>2021-08-24T16:15:59Z</time>
      </trkpt>
      <trkpt lat="36.488834" lon="-4.723133">
        <time>2021-08-24T16:16:09Z</time>
      </trkpt>
      <trkpt lat="36.488602" lon="-4.727595">
        <time>2021-08-24T16:16:20Z</time>
      </trkpt>
      <trkpt lat="36.488229" lon="-4.733872">
        <time>2021-08-24T16:16:41Z</time>
      </trkpt>
      <trkpt lat="36.487782" lon="-4.739941">
        <time>2021-08-24T16:17:02Z</time>
      </trkpt>
      <trkpt lat="36.487782" lon="-4.739941">
        <time>2021-08-24T16:17:02Z</time>
      </trkpt>
      <trkpt lat="36.487937" lon="-4.743225">
        <time>2021-08-24T16:17:14Z</time>
      </trkpt>
      <trkpt lat="36.488562" lon="-4.744618">
        <time>2021-08-24T16:17:20Z</time>
      </trkpt>
      <trkpt lat="36.488981" lon="-4.745235">
        <time>2021-08-24T16:17:23Z</time>
      </trkpt>
      <trkpt lat="36.492256" lon="-4.750033">
        <time>2021-08-24T16:17:47Z</time>
      </trkpt>
      <trkpt lat="36.493375" lon="-4.751877">
        <time>2021-08-24T16:17:56Z</time>
      </trkpt>
      <trkpt lat="36.493653" lon="-4.753349">
        <time>2021-08-24T16:18:02Z</time>
      </trkpt>
      <trkpt lat="36.493721" lon="-4.755603">
        <time>2021-08-24T16:18:11Z</time>
      </trkpt>
      <trkpt lat="36.493721" lon="-4.755603">
        <time>2021-08-24T16:18:11Z</time>
      </trkpt>
      <trkpt lat="36.492895" lon="-4.75881">
        <time>2021-08-24T16:18:23Z</time>
      </trkpt>
      <trkpt lat="36.49308" lon="-4.761439">
        <time>2021-08-24T16:18:32Z</time>
      </trkpt>
      <trkpt lat="36.493242" lon="-4.762317">
        <time>2021-08-24T16:18:35Z</time>
      </trkpt>
      <trkpt lat="36.493885" lon="-4.764812">
        <time>2021-08-24T16:18:44Z</time>
      </trkpt>
      <trkpt lat="36.494149" lon="-4.767339">
        <time>2021-08-24T16:18:53Z</time>
      </trkpt>
      <trkpt lat="36.494731" lon="-4.772895">
        <time>2021-08-24T16:19:11Z</time>
      </trkpt>
      <trkpt lat="36.495473" lon="-4.779098">
        <time>2021-08-24T16:19:32Z</time>
      </trkpt>
      <trkpt lat="36.496801" lon="-4.784655">
        <time>2021-08-24T16:19:53Z</time>
      </trkpt>
      <trkpt lat="36.498488" lon="-4.790479">
        <time>2021-08-24T16:20:14Z</time>
      </trkpt>
      <trkpt lat="36.499984" lon="-4.796592">
        <time>2021-08-24T16:20:35Z</time>
      </trkpt>
      <trkpt lat="36.501259" lon="-4.801951">
        <time>2021-08-24T16:20:53Z</time>
      </trkpt>
      <trkpt lat="36.502105" lon="-4.805308">
        <time>2021-08-24T16:21:05Z</time>
      </trkpt>
      <trkpt lat="36.503084" lon="-4.807569">
        <time>2021-08-24T16:21:14Z</time>
      </trkpt>
      <trkpt lat="36.505245" lon="-4.812889">
        <time>2021-08-24T16:21:35Z</time>
      </trkpt>
      <trkpt lat="36.505245" lon="-4.812889">
        <time>2021-08-24T16:21:35Z</time>
      </trkpt>
      <trkpt lat="36.505791" lon="-4.818439">
        <time>2021-08-24T16:21:56Z</time>
      </trkpt>
      <trkpt lat="36.506358" lon="-4.824157">
        <time>2021-08-24T16:22:29Z</time>
      </trkpt>
      <trkpt lat="36.50697" lon="-4.82994">
        <time>2021-08-24T16:22:56Z</time>
      </trkpt>
      <trkpt lat="36.507012" lon="-4.836309">
        <time>2021-08-24T16:23:20Z</time>
      </trkpt>
      <trkpt lat="36.507033" lon="-4.842249">
        <time>2021-08-24T16:23:44Z</time>
      </trkpt>
      <trkpt lat="36.507033" lon="-4.842249">
        <time>2021-08-24T16:23:44Z</time>
      </trkpt>
      <trkpt lat="36.506888" lon="-4.842919">
        <time>2021-08-24T16:23:47Z</time>
      </trkpt>
      <trkpt lat="36.506265" lon="-4.844099">
        <time>2021-08-24T16:23:53Z</time>
      </trkpt>
      <trkpt lat="36.5057" lon="-4.845468">
        <time>2021-08-24T16:23:59Z</time>
      </trkpt>
      <trkpt lat="36.505666" lon="-4.846263">
        <time>2021-08-24T16:24:02Z</time>
      </trkpt>
      <trkpt lat="36.505936" lon="-4.847567">
        <time>2021-08-24T16:24:08Z</time>
      </trkpt>
      <trkpt lat="36.507229" lon="-4.852933">
        <time>2021-08-24T16:24:32Z</time>
      </trkpt>
      <trkpt lat="36.508509" lon="-4.858826">
        <time>2021-08-24T16:24:56Z</time>
      </trkpt>
      <trkpt lat="36.50873" lon="-4.859644">
        <time>2021-08-24T16:24:59Z</time>
      </trkpt>
      <trkpt lat="36.509467" lon="-4.861235">
        <time>2021-08-24T16:25:05Z</time>
      </trkpt>
      <trkpt lat="36.510554" lon="-4.862473">
        <time>2021-08-24T16:25:11Z</time>
      </trkpt>
      <trkpt lat="36.511888" lon="-4.863279">
        <time>2021-08-24T16:25:17Z</time>
      </trkpt>
      <trkpt lat="36.51261" lon="-4.863596">
        <time>2021-08-24T16:25:20Z</time>
      </trkpt>
      <trkpt lat="36.516298" lon="-4.865181">
        <time>2021-08-24T16:25:35Z</time>
      </trkpt>
      <trkpt lat="36.51911" lon="-4.866915">
        <time>2021-08-24T16:25:47Z</time>
      </trkpt>
      <trkpt lat="36.520095" lon="-4.868535">
        <time>2021-08-24T16:25:53Z</time>
      </trkpt>
      <trkpt lat="36.520095" lon="-4.868535">
        <time>2021-08-24T16:25:53Z</time>
      </trkpt>
      <trkpt lat="36.520505" lon="-4.870431">
        <time>2021-08-24T16:25:59Z</time>
      </trkpt>
      <trkpt lat="36.52034" lon="-4.872297">
        <time>2021-08-24T16:26:05Z</time>
      </trkpt>
      <trkpt lat="36.519962" lon="-4.874128">
        <time>2021-08-24T16:26:11Z</time>
      </trkpt>
      <trkpt lat="36.519944" lon="-4.875107">
        <time>2021-08-24T16:26:14Z</time>
      </trkpt>
      <trkpt lat="36.520875" lon="-4.879959">
        <time>2021-08-24T16:26:29Z</time>
      </trkpt>
      <trkpt lat="36.520879" lon="-4.880953">
        <time>2021-08-24T16:26:32Z</time>
      </trkpt>
      <trkpt lat="36.519854" lon="-4.885823">
        <time>2021-08-24T16:26:47Z</time>
      </trkpt>
      <trkpt lat="36.519025" lon="-4.891687">
        <time>2021-08-24T16:27:05Z</time>
      </trkpt>
      <trkpt lat="36.518606" lon="-4.893664">
        <time>2021-08-24T16:27:11Z</time>
      </trkpt>
      <trkpt lat="36.517332" lon="-4.897538">
        <time>2021-08-24T16:27:23Z</time>
      </trkpt>
      <trkpt lat="36.516563" lon="-4.901515">
        <time>2021-08-24T16:27:35Z</time>
      </trkpt>
      <trkpt lat="36.516551" lon="-4.903508">
        <time>2021-08-24T16:27:41Z</time>
      </trkpt>
      <trkpt lat="36.516365" lon="-4.907412">
        <time>2021-08-24T16:27:53Z</time>
      </trkpt>
      <trkpt lat="36.515803" lon="-4.909172">
        <time>2021-08-24T16:27:59Z</time>
      </trkpt>
      <trkpt lat="36.514473" lon="-4.913729">
        <time>2021-08-24T16:28:14Z</time>
      </trkpt>
      <trkpt lat="36.514326" lon="-4.914706">
        <time>2021-08-24T16:28:17Z</time>
      </trkpt>
      <trkpt lat="36.5135" lon="-4.920436">
        <time>2021-08-24T16:28:35Z</time>
      </trkpt>
      <trkpt lat="36.513027" lon="-4.926354">
        <time>2021-08-24T16:28:53Z</time>
      </trkpt>
      <trkpt lat="36.513032" lon="-4.928853">
        <time>2021-08-24T16:29:02Z</time>
      </trkpt>
      <trkpt lat="36.51362" lon="-4.931343">
        <time>2021-08-24T16:29:11Z</time>
      </trkpt>
      <trkpt lat="36.513936" lon="-4.932049">
        <time>2021-08-24T16:29:14Z</time>
      </trkpt>
      <trkpt lat="36.513605" lon="-4.943391">
        <time>2021-08-24T16:30:05Z</time>
      </trkpt>
      <trkpt lat="36.513605" lon="-4.943391">
        <time>2021-08-24T16:30:05Z</time>
      </trkpt>
      <trkpt lat="36.511506" lon="-4.947228">
        <time>2021-08-24T16:30:23Z</time>
      </trkpt>
      <trkpt lat="36.510326" lon="-4.948142">
        <time>2021-08-24T16:30:29Z</time>
      </trkpt>
      <trkpt lat="36.510326" lon="-4.948142">
        <time>2021-08-24T16:30:29Z</time>
      </trkpt>
      <trkpt lat="36.508942" lon="-4.948521">
        <time>2021-08-24T16:30:35Z</time>
      </trkpt>
      <trkpt lat="36.505753" lon="-4.947929">
        <time>2021-08-24T16:30:53Z</time>
      </trkpt>
      <trkpt lat="36.505431" lon="-4.947856">
        <time>2021-08-24T16:30:56Z</time>
      </trkpt>
      <trkpt lat="36.50117" lon="-4.947309">
        <time>2021-08-24T16:31:35Z</time>
      </trkpt>
      <trkpt lat="36.499775" lon="-4.947369">
        <time>2021-08-24T16:31:47Z</time>
      </trkpt>
      <trkpt lat="36.498165" lon="-4.947729">
        <time>2021-08-24T16:32:05Z</time>
      </trkpt>
      <trkpt lat="36.496727" lon="-4.948555">
        <time>2021-08-24T16:32:26Z</time>
      </trkpt>
      <trkpt lat="36.496141" lon="-4.948993">
        <time>2021-08-24T16:32:35Z</time>
      </trkpt>
      <trkpt lat="36.493151" lon="-4.952086">
        <time>2021-08-24T16:33:05Z</time>
      </trkpt>
      <trkpt lat="36.489656" lon="-4.955876">
        <time>2021-08-24T16:33:50Z</time>
      </trkpt>
      <trkpt lat="36.489355" lon="-4.956352">
        <time>2021-08-24T16:33:56Z</time>
      </trkpt>
      <trkpt lat="36.488985" lon="-4.957318">
        <time>2021-08-24T16:34:05Z</time>
      </trkpt>
      <trkpt lat="36.488173" lon="-4.961209">
        <time>2021-08-24T16:34:32Z</time>
      </trkpt>
      <trkpt lat="36.487244" lon="-4.96686">
        <time>2021-08-24T16:35:05Z</time>
      </trkpt>
      <trkpt lat="36.487211" lon="-4.967126">
        <time>2021-08-24T16:35:08Z</time>
      </trkpt>
      <trkpt lat="36.486376" lon="-4.972696">
        <time>2021-08-24T16:35:59Z</time>
      </trkpt>
      <trkpt lat="36.485486" lon="-4.978918">
        <time>2021-08-24T16:36:29Z</time>
      </trkpt>
      <trkpt lat="36.484515" lon="-4.984586">
        <time>2021-08-24T16:36:50Z</time>
      </trkpt>
      <trkpt lat="36.484515" lon="-4.984586">
        <time>2021-08-24T16:36:50Z</time>
      </trkpt>
      <trkpt lat="36.477383" lon="-4.996834">
        <time>2021-08-24T16:37:42Z</time>
      </trkpt>
      <trkpt lat="36.477383" lon="-4.996834">
        <time>2021-08-24T16:37:42Z</time>
      </trkpt>
      <trkpt lat="36.474288" lon="-5.001965">
        <time>2021-08-24T16:38:03Z</time>
      </trkpt>
      <trkpt lat="36.473418" lon="-5.004354">
        <time>2021-08-24T16:38:12Z</time>
      </trkpt>
      <trkpt lat="36.472798" lon="-5.007719">
        <time>2021-08-24T16:38:24Z</time>
      </trkpt>
      <trkpt lat="36.472347" lon="-5.010055">
        <time>2021-08-24T16:38:33Z</time>
      </trkpt>
      <trkpt lat="36.471981" lon="-5.010699">
        <time>2021-08-24T16:38:36Z</time>
      </trkpt>
      <trkpt lat="36.471007" lon="-5.011554">
        <time>2021-08-24T16:38:42Z</time>
      </trkpt>
      <trkpt lat="36.469995" lon="-5.012456">
        <time>2021-08-24T16:38:48Z</time>
      </trkpt>
      <trkpt lat="36.469995" lon="-5.012456">
        <time>2021-08-24T16:38:48Z</time>
      </trkpt>
      <trkpt lat="36.469275" lon="-5.013851">
        <time>2021-08-24T16:38:54Z</time>
      </trkpt>
      <trkpt lat="36.468307" lon="-5.017801">
        <time>2021-08-24T16:39:09Z</time>
      </trkpt>
      <trkpt lat="36.466981" lon="-5.02342">
        <time>2021-08-24T16:39:33Z</time>
      </trkpt>
      <trkpt lat="36.465657" lon="-5.029002">
        <time>2021-08-24T16:39:54Z</time>
      </trkpt>
      <trkpt lat="36.464258" lon="-5.03486">
        <time>2021-08-24T16:40:15Z</time>
      </trkpt>
      <trkpt lat="36.462858" lon="-5.040754">
        <time>2021-08-24T16:40:36Z</time>
      </trkpt>
      <trkpt lat="36.461346" lon="-5.046372">
        <time>2021-08-24T16:40:57Z</time>
      </trkpt>
      <trkpt lat="36.459013" lon="-5.051703">
        <time>2021-08-24T16:41:21Z</time>
      </trkpt>
      <trkpt lat="36.456886" lon="-5.057002">
        <time>2021-08-24T16:41:45Z</time>
      </trkpt>
      <trkpt lat="36.456231" lon="-5.058518">
        <time>2021-08-24T16:41:51Z</time>
      </trkpt>
      <trkpt lat="36.454362" lon="-5.062243">
        <time>2021-08-24T16:42:06Z</time>
      </trkpt>
      <trkpt lat="36.454362" lon="-5.062243">
        <time>2021-08-24T16:42:06Z</time>
      </trkpt>
      <trkpt lat="36.454041" lon="-5.065252">
        <time>2021-08-24T16:42:15Z</time>
      </trkpt>
      <trkpt lat="36.453895" lon="-5.068221">
        <time>2021-08-24T16:42:24Z</time>
      </trkpt>
      <trkpt lat="36.453618" lon="-5.074315">
        <time>2021-08-24T16:42:45Z</time>
      </trkpt>
      <trkpt lat="36.45312" lon="-5.080166">
        <time>2021-08-24T16:43:06Z</time>
      </trkpt>
      <trkpt lat="36.45312" lon="-5.080166">
        <time>2021-08-24T16:43:06Z</time>
      </trkpt>
      <trkpt lat="36.450619" lon="-5.085331">
        <time>2021-08-24T16:43:27Z</time>
      </trkpt>
      <trkpt lat="36.447877" lon="-5.09075">
        <time>2021-08-24T16:43:48Z</time>
      </trkpt>
      <trkpt lat="36.44522" lon="-5.09594">
        <time>2021-08-24T16:44:06Z</time>
      </trkpt>
      <trkpt lat="36.44522" lon="-5.09594">
        <time>2021-08-24T16:44:06Z</time>
      </trkpt>
      <trkpt lat="36.443127" lon="-5.098908">
        <time>2021-08-24T16:44:18Z</time>
      </trkpt>
      <trkpt lat="36.44182" lon="-5.099842">
        <time>2021-08-24T16:44:24Z</time>
      </trkpt>
      <trkpt lat="36.441249" lon="-5.100516">
        <time>2021-08-24T16:44:27Z</time>
      </trkpt>
      <trkpt lat="36.438847" lon="-5.104405">
        <time>2021-08-24T16:44:42Z</time>
      </trkpt>
      <trkpt lat="36.436582" lon="-5.108475">
        <time>2021-08-24T16:45:00Z</time>
      </trkpt>
      <trkpt lat="36.436295" lon="-5.109221">
        <time>2021-08-24T16:45:03Z</time>
      </trkpt>
      <trkpt lat="36.434249" lon="-5.114444">
        <time>2021-08-24T16:45:24Z</time>
      </trkpt>
      <trkpt lat="36.43254" lon="-5.119485">
        <time>2021-08-24T16:45:42Z</time>
      </trkpt>
      <trkpt lat="36.432473" lon="-5.120415">
        <time>2021-08-24T16:45:45Z</time>
      </trkpt>
      <trkpt lat="36.43251" lon="-5.121352">
        <time>2021-08-24T16:45:48Z</time>
      </trkpt>
      <trkpt lat="36.433193" lon="-5.124072">
        <time>2021-08-24T16:45:57Z</time>
      </trkpt>
      <trkpt lat="36.434055" lon="-5.125679">
        <time>2021-08-24T16:46:03Z</time>
      </trkpt>
      <trkpt lat="36.436513" lon="-5.130647">
        <time>2021-08-24T16:46:21Z</time>
      </trkpt>
      <trkpt lat="36.436513" lon="-5.130647">
        <time>2021-08-24T16:46:21Z</time>
      </trkpt>
      <trkpt lat="36.437314" lon="-5.136578">
        <time>2021-08-24T16:46:39Z</time>
      </trkpt>
      <trkpt lat="36.437314" lon="-5.136578">
        <time>2021-08-24T16:46:39Z</time>
      </trkpt>
      <trkpt lat="36.436957" lon="-5.138402">
        <time>2021-08-24T16:46:45Z</time>
      </trkpt>
      <trkpt lat="36.43565" lon="-5.141727">
        <time>2021-08-24T16:46:57Z</time>
      </trkpt>
      <trkpt lat="36.43565" lon="-5.141727">
        <time>2021-08-24T16:46:57Z</time>
      </trkpt>
      <trkpt lat="36.435629" lon="-5.143658">
        <time>2021-08-24T16:47:03Z</time>
      </trkpt>
      <trkpt lat="36.435807" lon="-5.147703">
        <time>2021-08-24T16:47:15Z</time>
      </trkpt>
      <trkpt lat="36.435539" lon="-5.151744">
        <time>2021-08-24T16:47:27Z</time>
      </trkpt>
      <trkpt lat="36.435125" lon="-5.153648">
        <time>2021-08-24T16:47:33Z</time>
      </trkpt>
      <trkpt lat="36.433651" lon="-5.159332">
        <time>2021-08-24T16:47:51Z</time>
      </trkpt>
      <trkpt lat="36.433143" lon="-5.163338">
        <time>2021-08-24T16:48:03Z</time>
      </trkpt>
      <trkpt lat="36.433156" lon="-5.165352">
        <time>2021-08-24T16:48:09Z</time>
      </trkpt>
      <trkpt lat="36.43333" lon="-5.169825">
        <time>2021-08-24T16:48:24Z</time>
      </trkpt>
      <trkpt lat="36.433624" lon="-5.171431">
        <time>2021-08-24T16:48:30Z</time>
      </trkpt>
      <trkpt lat="36.433491" lon="-5.172076">
        <time>2021-08-24T16:48:33Z</time>
      </trkpt>
      <trkpt lat="36.433153" lon="-5.172538">
        <time>2021-08-24T16:48:36Z</time>
      </trkpt>
      <trkpt lat="36.432764" lon="-5.172742">
        <time>2021-08-24T16:48:39Z</time>
      </trkpt>
      <trkpt lat="36.432345" lon="-5.172923">
        <time>2021-08-24T16:48:45Z</time>
      </trkpt>
      <trkpt lat="36.432281" lon="-5.173147">
        <time>2021-08-24T16:48:48Z</time>
      </trkpt>
      <trkpt lat="36.432145" lon="-5.173422">
        <time>2021-08-24T16:48:51Z</time>
      </trkpt>
      <trkpt lat="36.431887" lon="-5.173454">
        <time>2021-08-24T16:48:54Z</time>
      </trkpt>
      <trkpt lat="36.431658" lon="-5.173191">
        <time>2021-08-24T16:48:57Z</time>
      </trkpt>
      <trkpt lat="36.431351" lon="-5.172936">
        <time>2021-08-24T16:49:00Z</time>
      </trkpt>
      <trkpt lat="36.430871" lon="-5.172932">
        <time>2021-08-24T16:49:03Z</time>
      </trkpt>
      <trkpt lat="36.429494" lon="-5.173133">
        <time>2021-08-24T16:49:09Z</time>
      </trkpt>
      <trkpt lat="36.424429" lon="-5.174184">
        <time>2021-08-24T16:49:27Z</time>
      </trkpt>
      <trkpt lat="36.421112" lon="-5.175015">
        <time>2021-08-24T16:49:39Z</time>
      </trkpt>
      <trkpt lat="36.419648" lon="-5.175804">
        <time>2021-08-24T16:49:45Z</time>
      </trkpt>
      <trkpt lat="36.418537" lon="-5.176706">
        <time>2021-08-24T16:49:51Z</time>
      </trkpt>
      <trkpt lat="36.41739" lon="-5.178009">
        <time>2021-08-24T16:50:09Z</time>
      </trkpt>
      <trkpt lat="36.415795" lon="-5.179355">
        <time>2021-08-24T16:50:18Z</time>
      </trkpt>
      <trkpt lat="36.411711" lon="-5.183169">
        <time>2021-08-24T16:50:39Z</time>
      </trkpt>
      <trkpt lat="36.409585" lon="-5.185357">
        <time>2021-08-24T16:50:51Z</time>
      </trkpt>
      <trkpt lat="36.408419" lon="-5.187343">
        <time>2021-08-24T16:51:00Z</time>
      </trkpt>
      <trkpt lat="36.407951" lon="-5.188184">
        <time>2021-08-24T16:51:06Z</time>
      </trkpt>
      <trkpt lat="36.407854" lon="-5.18849">
        <time>2021-08-24T16:51:09Z</time>
      </trkpt>
      <trkpt lat="36.405565" lon="-5.191859">
        <time>2021-08-24T16:51:27Z</time>
      </trkpt>
      <trkpt lat="36.40468" lon="-5.193328">
        <time>2021-08-24T16:51:36Z</time>
      </trkpt>
      <trkpt lat="36.404287" lon="-5.193899">
        <time>2021-08-24T16:51:42Z</time>
      </trkpt>
      <trkpt lat="36.402909" lon="-5.195068">
        <time>2021-08-24T16:51:51Z</time>
      </trkpt>
      <trkpt lat="36.401556" lon="-5.195252">
        <time>2021-08-24T16:51:57Z</time>
      </trkpt>
      <trkpt lat="36.401556" lon="-5.195252">
        <time>2021-08-24T16:51:57Z</time>
      </trkpt>
      <trkpt lat="36.398702" lon="-5.195026">
        <time>2021-08-24T16:52:09Z</time>
      </trkpt>
      <trkpt lat="36.398117" lon="-5.195498">
        <time>2021-08-24T16:52:12Z</time>
      </trkpt>
      <trkpt lat="36.397261" lon="-5.196949">
        <time>2021-08-24T16:52:18Z</time>
      </trkpt>
      <trkpt lat="36.397261" lon="-5.196949">
        <time>2021-08-24T16:52:18Z</time>
      </trkpt>
      <trkpt lat="36.395509" lon="-5.199921">
        <time>2021-08-24T16:52:30Z</time>
      </trkpt>
      <trkpt lat="36.394318" lon="-5.201104">
        <time>2021-08-24T16:52:36Z</time>
      </trkpt>
      <trkpt lat="36.393131" lon="-5.202724">
        <time>2021-08-24T16:52:45Z</time>
      </trkpt>
      <trkpt lat="36.393009" lon="-5.203094">
        <time>2021-08-24T16:52:48Z</time>
      </trkpt>
      <trkpt lat="36.39281" lon="-5.203385">
        <time>2021-08-24T16:52:51Z</time>
      </trkpt>
      <trkpt lat="36.391564" lon="-5.20454">
        <time>2021-08-24T16:53:00Z</time>
      </trkpt>
      <trkpt lat="36.390937" lon="-5.204791">
        <time>2021-08-24T16:53:03Z</time>
      </trkpt>
      <trkpt lat="36.387188" lon="-5.20747">
        <time>2021-08-24T16:53:21Z</time>
      </trkpt>
      <trkpt lat="36.386596" lon="-5.208024">
        <time>2021-08-24T16:53:24Z</time>
      </trkpt>
      <trkpt lat="36.383391" lon="-5.211438">
        <time>2021-08-24T16:53:42Z</time>
      </trkpt>
      <trkpt lat="36.382708" lon="-5.211575">
        <time>2021-08-24T16:53:45Z</time>
      </trkpt>
      <trkpt lat="36.382084" lon="-5.211935">
        <time>2021-08-24T16:53:48Z</time>
      </trkpt>
      <trkpt lat="36.381618" lon="-5.212576">
        <time>2021-08-24T16:53:51Z</time>
      </trkpt>
      <trkpt lat="36.381367" lon="-5.213358">
        <time>2021-08-24T16:53:54Z</time>
      </trkpt>
      <trkpt lat="36.380785" lon="-5.216273">
        <time>2021-08-24T16:54:09Z</time>
      </trkpt>
      <trkpt lat="36.380714" lon="-5.216613">
        <time>2021-08-24T16:54:12Z</time>
      </trkpt>
      <trkpt lat="36.380714" lon="-5.216613">
        <time>2021-08-24T16:54:12Z</time>
      </trkpt>
      <trkpt lat="36.380063" lon="-5.218262">
        <time>2021-08-24T16:54:21Z</time>
      </trkpt>
      <trkpt lat="36.378579" lon="-5.219815">
        <time>2021-08-24T16:54:30Z</time>
      </trkpt>
      <trkpt lat="36.377526" lon="-5.220829">
        <time>2021-08-24T16:54:36Z</time>
      </trkpt>
      <trkpt lat="36.377085" lon="-5.22143">
        <time>2021-08-24T16:54:39Z</time>
      </trkpt>
      <trkpt lat="36.375118" lon="-5.224837">
        <time>2021-08-24T16:54:54Z</time>
      </trkpt>
      <trkpt lat="36.374475" lon="-5.225124">
        <time>2021-08-24T16:54:57Z</time>
      </trkpt>
      <trkpt lat="36.37315" lon="-5.22554">
        <time>2021-08-24T16:55:03Z</time>
      </trkpt>
      <trkpt lat="36.371824" lon="-5.22591">
        <time>2021-08-24T16:55:12Z</time>
      </trkpt>
      <trkpt lat="36.371434" lon="-5.226068">
        <time>2021-08-24T16:55:18Z</time>
      </trkpt>
      <trkpt lat="36.371043" lon="-5.226096">
        <time>2021-08-24T16:55:21Z</time>
      </trkpt>
      <trkpt lat="36.369965" lon="-5.226443">
        <time>2021-08-24T16:55:27Z</time>
      </trkpt>
      <trkpt lat="36.365638" lon="-5.2286">
        <time>2021-08-24T16:55:48Z</time>
      </trkpt>
      <trkpt lat="36.361001" lon="-5.23016">
        <time>2021-08-24T16:56:09Z</time>
      </trkpt>
      <trkpt lat="36.356528" lon="-5.232686">
        <time>2021-08-24T16:56:30Z</time>
      </trkpt>
      <trkpt lat="36.351815" lon="-5.234886">
        <time>2021-08-24T16:56:51Z</time>
      </trkpt>
      <trkpt lat="36.350398" lon="-5.235345">
        <time>2021-08-24T16:56:57Z</time>
      </trkpt>
      <trkpt lat="36.349055" lon="-5.235728">
        <time>2021-08-24T16:57:06Z</time>
      </trkpt>
      <trkpt lat="36.348819" lon="-5.235826">
        <time>2021-08-24T16:57:09Z</time>
      </trkpt>
      <trkpt lat="36.348007" lon="-5.236034">
        <time>2021-08-24T16:57:15Z</time>
      </trkpt>
      <trkpt lat="36.347469" lon="-5.236286">
        <time>2021-08-24T16:57:18Z</time>
      </trkpt>
      <trkpt lat="36.342685" lon="-5.238114">
        <time>2021-08-24T16:57:39Z</time>
      </trkpt>
      <trkpt lat="36.3382" lon="-5.239377">
        <time>2021-08-24T16:57:57Z</time>
      </trkpt>
      <trkpt lat="36.333614" lon="-5.240615">
        <time>2021-08-24T16:58:21Z</time>
      </trkpt>
      <trkpt lat="36.333614" lon="-5.240615">
        <time>2021-08-24T16:58:21Z</time>
      </trkpt>
      <trkpt lat="36.329835" lon="-5.241449">
        <time>2021-08-24T16:58:39Z</time>
      </trkpt>
      <trkpt lat="36.329136" lon="-5.241734">
        <time>2021-08-24T16:58:42Z</time>
      </trkpt>
      <trkpt lat="36.326961" lon="-5.242317">
        <time>2021-08-24T16:58:51Z</time>
      </trkpt>
      <trkpt lat="36.326961" lon="-5.242317">
        <time>2021-08-24T16:58:51Z</time>
      </trkpt>
      <trkpt lat="36.324701" lon="-5.242575">
        <time>2021-08-24T16:59:00Z</time>
      </trkpt>
      <trkpt lat="36.323984" lon="-5.242796">
        <time>2021-08-24T16:59:03Z</time>
      </trkpt>
      <trkpt lat="36.322839" lon="-5.243728">
        <time>2021-08-24T16:59:09Z</time>
      </trkpt>
      <trkpt lat="36.322299" lon="-5.244689">
        <time>2021-08-24T16:59:15Z</time>
      </trkpt>
      <trkpt lat="36.322078" lon="-5.245001">
        <time>2021-08-24T16:59:18Z</time>
      </trkpt>
      <trkpt lat="36.320723" lon="-5.246106">
        <time>2021-08-24T16:59:27Z</time>
      </trkpt>
      <trkpt lat="36.320723" lon="-5.246106">
        <time>2021-08-24T16:59:27Z</time>
      </trkpt>
      <trkpt lat="36.320058" lon="-5.246161">
        <time>2021-08-24T16:59:30Z</time>
      </trkpt>
      <trkpt lat="36.318032" lon="-5.245671">
        <time>2021-08-24T16:59:39Z</time>
      </trkpt>
      <trkpt lat="36.318032" lon="-5.245671">
        <time>2021-08-24T16:59:39Z</time>
      </trkpt>
      <trkpt lat="36.318032" lon="-5.245671">
        <time>2021-08-24T16:59:39Z</time>
      </trkpt>
      <trkpt lat="36.315845" lon="-5.246449">
        <time>2021-08-24T16:59:48Z</time>
      </trkpt>
      <trkpt lat="36.312797" lon="-5.247672">
        <time>2021-08-24T17:00:00Z</time>
      </trkpt>
      <trkpt lat="36.311605" lon="-5.24867">
        <time>2021-08-24T17:00:06Z</time>
      </trkpt>
      <trkpt lat="36.311605" lon="-5.24867">
        <time>2021-08-24T17:00:06Z</time>
      </trkpt>
      <trkpt lat="36.311301" lon="-5.249422">
        <time>2021-08-24T17:00:09Z</time>
      </trkpt>
      <trkpt lat="36.311249" lon="-5.250264">
        <time>2021-08-24T17:00:12Z</time>
      </trkpt>
      <trkpt lat="36.311463" lon="-5.251063">
        <time>2021-08-24T17:00:15Z</time>
      </trkpt>
      <trkpt lat="36.312333" lon="-5.253125">
        <time>2021-08-24T17:00:24Z</time>
      </trkpt>
      <trkpt lat="36.31215" lon="-5.253902">
        <time>2021-08-24T17:00:27Z</time>
      </trkpt>
      <trkpt lat="36.31191" lon="-5.254739">
        <time>2021-08-24T17:00:30Z</time>
      </trkpt>
      <trkpt lat="36.311557" lon="-5.257246">
        <time>2021-08-24T17:00:39Z</time>
      </trkpt>
      <trkpt lat="36.312012" lon="-5.258845">
        <time>2021-08-24T17:00:45Z</time>
      </trkpt>
      <trkpt lat="36.311991" lon="-5.259653">
        <time>2021-08-24T17:00:48Z</time>
      </trkpt>
      <trkpt lat="36.311991" lon="-5.259653">
        <time>2021-08-24T17:00:48Z</time>
      </trkpt>
      <trkpt lat="36.311787" lon="-5.260321">
        <time>2021-08-24T17:00:51Z</time>
      </trkpt>
      <trkpt lat="36.311505" lon="-5.261133">
        <time>2021-08-24T17:00:57Z</time>
      </trkpt>
      <trkpt lat="36.311374" lon="-5.261468">
        <time>2021-08-24T17:01:00Z</time>
      </trkpt>
      <trkpt lat="36.310642" lon="-5.262135">
        <time>2021-08-24T17:01:06Z</time>
      </trkpt>
      <trkpt lat="36.308366" lon="-5.263509">
        <time>2021-08-24T17:01:18Z</time>
      </trkpt>
      <trkpt lat="36.308366" lon="-5.263509">
        <time>2021-08-24T17:01:18Z</time>
      </trkpt>
      <trkpt lat="36.307542" lon="-5.264983">
        <time>2021-08-24T17:01:24Z</time>
      </trkpt>
      <trkpt lat="36.307283" lon="-5.266832">
        <time>2021-08-24T17:01:30Z</time>
      </trkpt>
      <trkpt lat="36.307377" lon="-5.268747">
        <time>2021-08-24T17:01:36Z</time>
      </trkpt>
      <trkpt lat="36.307154" lon="-5.270635">
        <time>2021-08-24T17:01:42Z</time>
      </trkpt>
      <trkpt lat="36.306489" lon="-5.27244">
        <time>2021-08-24T17:01:48Z</time>
      </trkpt>
      <trkpt lat="36.305437" lon="-5.273921">
        <time>2021-08-24T17:01:54Z</time>
      </trkpt>
      <trkpt lat="36.305437" lon="-5.273921">
        <time>2021-08-24T17:01:54Z</time>
      </trkpt>
      <trkpt lat="36.302629" lon="-5.277366">
        <time>2021-08-24T17:02:09Z</time>
      </trkpt>
      <trkpt lat="36.301907" lon="-5.277804">
        <time>2021-08-24T17:02:12Z</time>
      </trkpt>
      <trkpt lat="36.301117" lon="-5.278036">
        <time>2021-08-24T17:02:15Z</time>
      </trkpt>
      <trkpt lat="36.298929" lon="-5.2786">
        <time>2021-08-24T17:02:24Z</time>
      </trkpt>
      <trkpt lat="36.297128" lon="-5.279595">
        <time>2021-08-24T17:02:33Z</time>
      </trkpt>
      <trkpt lat="36.297128" lon="-5.279595">
        <time>2021-08-24T17:02:33Z</time>
      </trkpt>
      <trkpt lat="36.296374" lon="-5.279773">
        <time>2021-08-24T17:02:39Z</time>
      </trkpt>
      <trkpt lat="36.296295" lon="-5.280067">
        <time>2021-08-24T17:02:42Z</time>
      </trkpt>
      <trkpt lat="36.296387" lon="-5.280514">
        <time>2021-08-24T17:02:45Z</time>
      </trkpt>
      <trkpt lat="36.297112" lon="-5.28293">
        <time>2021-08-24T17:03:00Z</time>
      </trkpt>
      <trkpt lat="36.297185" lon="-5.283199">
        <time>2021-08-24T17:03:03Z</time>
      </trkpt>
      <trkpt lat="36.297221" lon="-5.283553">
        <time>2021-08-24T17:03:06Z</time>
      </trkpt>
      <trkpt lat="36.297452" lon="-5.284262">
        <time>2021-08-24T17:03:12Z</time>
      </trkpt>
      <trkpt lat="36.29755" lon="-5.284509">
        <time>2021-08-24T17:03:15Z</time>
      </trkpt>
      <trkpt lat="36.297735" lon="-5.284848">
        <time>2021-08-24T17:03:21Z</time>
      </trkpt>
      <trkpt lat="36.297566" lon="-5.284966">
        <time>2021-08-24T17:03:24Z</time>
      </trkpt>
      <trkpt lat="36.296993" lon="-5.28522">
        <time>2021-08-24T17:03:30Z</time>
      </trkpt>
      <trkpt lat="36.296571" lon="-5.285982">
        <time>2021-08-24T17:03:36Z</time>
      </trkpt>
      <trkpt lat="36.295536" lon="-5.288976">
        <time>2021-08-24T17:03:51Z</time>
      </trkpt>
      <trkpt lat="36.293925" lon="-5.294272">
        <time>2021-08-24T17:04:09Z</time>
      </trkpt>
      <trkpt lat="36.292277" lon="-5.299807">
        <time>2021-08-24T17:04:27Z</time>
      </trkpt>
      <trkpt lat="36.290281" lon="-5.305108">
        <time>2021-08-24T17:04:45Z</time>
      </trkpt>
      <trkpt lat="36.288719" lon="-5.308625">
        <time>2021-08-24T17:04:57Z</time>
      </trkpt>
      <trkpt lat="36.287619" lon="-5.310107">
        <time>2021-08-24T17:05:03Z</time>
      </trkpt>
      <trkpt lat="36.287017" lon="-5.31073">
        <time>2021-08-24T17:05:06Z</time>
      </trkpt>
      <trkpt lat="36.284376" lon="-5.312464">
        <time>2021-08-24T17:05:18Z</time>
      </trkpt>
      <trkpt lat="36.283636" lon="-5.312753">
        <time>2021-08-24T17:05:21Z</time>
      </trkpt>
      <trkpt lat="36.279059" lon="-5.314504">
        <time>2021-08-24T17:05:39Z</time>
      </trkpt>
      <trkpt lat="36.274924" lon="-5.316959">
        <time>2021-08-24T17:05:57Z</time>
      </trkpt>
      <trkpt lat="36.271808" lon="-5.317631">
        <time>2021-08-24T17:06:09Z</time>
      </trkpt>
      <trkpt lat="36.271808" lon="-5.317631">
        <time>2021-08-24T17:06:09Z</time>
      </trkpt>
      <trkpt lat="36.270238" lon="-5.317394">
        <time>2021-08-24T17:06:15Z</time>
      </trkpt>
      <trkpt lat="36.269484" lon="-5.317151">
        <time>2021-08-24T17:06:18Z</time>
      </trkpt>
      <trkpt lat="36.267167" lon="-5.316704">
        <time>2021-08-24T17:06:27Z</time>
      </trkpt>
      <trkpt lat="36.26566" lon="-5.317183">
        <time>2021-08-24T17:06:33Z</time>
      </trkpt>
      <trkpt lat="36.26566" lon="-5.317183">
        <time>2021-08-24T17:06:33Z</time>
      </trkpt>
      <trkpt lat="36.264432" lon="-5.318221">
        <time>2021-08-24T17:06:39Z</time>
      </trkpt>
      <trkpt lat="36.263577" lon="-5.319666">
        <time>2021-08-24T17:06:45Z</time>
      </trkpt>
      <trkpt lat="36.26314" lon="-5.32142">
        <time>2021-08-24T17:06:51Z</time>
      </trkpt>
      <trkpt lat="36.263017" lon="-5.322375">
        <time>2021-08-24T17:06:54Z</time>
      </trkpt>
      <trkpt lat="36.261921" lon="-5.327136">
        <time>2021-08-24T17:07:09Z</time>
      </trkpt>
      <trkpt lat="36.261572" lon="-5.328027">
        <time>2021-08-24T17:07:12Z</time>
      </trkpt>
      <trkpt lat="36.259007" lon="-5.332833">
        <time>2021-08-24T17:07:30Z</time>
      </trkpt>
      <trkpt lat="36.256271" lon="-5.337577">
        <time>2021-08-24T17:07:48Z</time>
      </trkpt>
      <trkpt lat="36.256271" lon="-5.337577">
        <time>2021-08-24T17:07:48Z</time>
      </trkpt>
      <trkpt lat="36.255084" lon="-5.338812">
        <time>2021-08-24T17:07:54Z</time>
      </trkpt>
      <trkpt lat="36.25362" lon="-5.339492">
        <time>2021-08-24T17:08:00Z</time>
      </trkpt>
      <trkpt lat="36.252033" lon="-5.339503">
        <time>2021-08-24T17:08:06Z</time>
      </trkpt>
      <trkpt lat="36.252033" lon="-5.339503">
        <time>2021-08-24T17:08:06Z</time>
      </trkpt>
      <trkpt lat="36.250517" lon="-5.338906">
        <time>2021-08-24T17:08:12Z</time>
      </trkpt>
      <trkpt lat="36.248295" lon="-5.338097">
        <time>2021-08-24T17:08:21Z</time>
      </trkpt>
      <trkpt lat="36.247529" lon="-5.338097">
        <time>2021-08-24T17:08:24Z</time>
      </trkpt>
      <trkpt lat="36.246754" lon="-5.338234">
        <time>2021-08-24T17:08:27Z</time>
      </trkpt>
      <trkpt lat="36.245259" lon="-5.338919">
        <time>2021-08-24T17:08:33Z</time>
      </trkpt>
      <trkpt lat="36.243173" lon="-5.340391">
        <time>2021-08-24T17:08:42Z</time>
      </trkpt>
      <trkpt lat="36.238889" lon="-5.342896">
        <time>2021-08-24T17:09:00Z</time>
      </trkpt>
      <trkpt lat="36.236358" lon="-5.345205">
        <time>2021-08-24T17:09:12Z</time>
      </trkpt>
      <trkpt lat="36.235194" lon="-5.34651">
        <time>2021-08-24T17:09:18Z</time>
      </trkpt>
      <trkpt lat="36.231969" lon="-5.350902">
        <time>2021-08-24T17:09:36Z</time>
      </trkpt>
      <trkpt lat="36.231969" lon="-5.350902">
        <time>2021-08-24T17:09:36Z</time>
      </trkpt>
      <trkpt lat="36.229551" lon="-5.355963">
        <time>2021-08-24T17:09:54Z</time>
      </trkpt>
      <trkpt lat="36.228102" lon="-5.359365">
        <time>2021-08-24T17:10:06Z</time>
      </trkpt>
      <trkpt lat="36.227863" lon="-5.361249">
        <time>2021-08-24T17:10:12Z</time>
      </trkpt>
      <trkpt lat="36.227863" lon="-5.361249">
        <time>2021-08-24T17:10:12Z</time>
      </trkpt>
      <trkpt lat="36.227358" lon="-5.364959">
        <time>2021-08-24T17:10:24Z</time>
      </trkpt>
      <trkpt lat="36.226545" lon="-5.366605">
        <time>2021-08-24T17:10:30Z</time>
      </trkpt>
      <trkpt lat="36.226545" lon="-5.366605">
        <time>2021-08-24T17:10:30Z</time>
      </trkpt>
      <trkpt lat="36.223045" lon="-5.370743">
        <time>2021-08-24T17:10:48Z</time>
      </trkpt>
      <trkpt lat="36.219949" lon="-5.374932">
        <time>2021-08-24T17:11:06Z</time>
      </trkpt>
      <trkpt lat="36.217698" lon="-5.37741">
        <time>2021-08-24T17:11:18Z</time>
      </trkpt>
      <trkpt lat="36.215755" lon="-5.378567">
        <time>2021-08-24T17:11:27Z</time>
      </trkpt>
      <trkpt lat="36.212676" lon="-5.379814">
        <time>2021-08-24T17:11:42Z</time>
      </trkpt>
      <trkpt lat="36.210939" lon="-5.380488">
        <time>2021-08-24T17:11:51Z</time>
      </trkpt>
      <trkpt lat="36.207601" lon="-5.382058">
        <time>2021-08-24T17:12:09Z</time>
      </trkpt>
      <trkpt lat="36.207159" lon="-5.382663">
        <time>2021-08-24T17:12:12Z</time>
      </trkpt>
      <trkpt lat="36.206852" lon="-5.383395">
        <time>2021-08-24T17:12:15Z</time>
      </trkpt>
      <trkpt lat="36.206707" lon="-5.384212">
        <time>2021-08-24T17:12:18Z</time>
      </trkpt>
      <trkpt lat="36.206758" lon="-5.385044">
        <time>2021-08-24T17:12:21Z</time>
      </trkpt>
      <trkpt lat="36.207228" lon="-5.386564">
        <time>2021-08-24T17:12:27Z</time>
      </trkpt>
      <trkpt lat="36.207733" lon="-5.38819">
        <time>2021-08-24T17:12:33Z</time>
      </trkpt>
      <trkpt lat="36.207728" lon="-5.389102">
        <time>2021-08-24T17:12:36Z</time>
      </trkpt>
      <trkpt lat="36.207728" lon="-5.389102">
        <time>2021-08-24T17:12:36Z</time>
      </trkpt>
      <trkpt lat="36.207046" lon="-5.394963">
        <time>2021-08-24T17:12:54Z</time>
      </trkpt>
      <trkpt lat="36.207046" lon="-5.394963">
        <time>2021-08-24T17:12:54Z</time>
      </trkpt>
      <trkpt lat="36.207654" lon="-5.401211">
        <time>2021-08-24T17:13:12Z</time>
      </trkpt>
      <trkpt lat="36.207812" lon="-5.405163">
        <time>2021-08-24T17:13:24Z</time>
      </trkpt>
      <trkpt lat="36.20748" lon="-5.407083">
        <time>2021-08-24T17:13:30Z</time>
      </trkpt>
      <trkpt lat="36.2062" lon="-5.412748">
        <time>2021-08-24T17:13:48Z</time>
      </trkpt>
      <trkpt lat="36.204914" lon="-5.416116">
        <time>2021-08-24T17:14:00Z</time>
      </trkpt>
      <trkpt lat="36.203859" lon="-5.418442">
        <time>2021-08-24T17:14:09Z</time>
      </trkpt>
      <trkpt lat="36.203859" lon="-5.418442">
        <time>2021-08-24T17:14:09Z</time>
      </trkpt>
      <trkpt lat="36.203323" lon="-5.422041">
        <time>2021-08-24T17:14:21Z</time>
      </trkpt>
      <trkpt lat="36.202462" lon="-5.423509">
        <time>2021-08-24T17:14:27Z</time>
      </trkpt>
      <trkpt lat="36.201923" lon="-5.424108">
        <time>2021-08-24T17:14:30Z</time>
      </trkpt>
      <trkpt lat="36.198335" lon="-5.427697">
        <time>2021-08-24T17:14:48Z</time>
      </trkpt>
      <trkpt lat="36.193974" lon="-5.431052">
        <time>2021-08-24T17:15:06Z</time>
      </trkpt>
      <trkpt lat="36.189852" lon="-5.434664">
        <time>2021-08-24T17:15:24Z</time>
      </trkpt>
      <trkpt lat="36.185887" lon="-5.438149">
        <time>2021-08-24T17:15:42Z</time>
      </trkpt>
      <trkpt lat="36.183917" lon="-5.440053">
        <time>2021-08-24T17:15:51Z</time>
      </trkpt>
      <trkpt lat="36.182416" lon="-5.442496">
        <time>2021-08-24T17:16:00Z</time>
      </trkpt>
      <trkpt lat="36.179597" lon="-5.447085">
        <time>2021-08-24T17:16:18Z</time>
      </trkpt>
      <trkpt lat="36.176606" lon="-5.452069">
        <time>2021-08-24T17:16:39Z</time>
      </trkpt>
      <trkpt lat="36.174587" lon="-5.45486">
        <time>2021-08-24T17:16:51Z</time>
      </trkpt>
      <trkpt lat="36.173123" lon="-5.455469">
        <time>2021-08-24T17:16:57Z</time>
      </trkpt>
      <trkpt lat="36.169488" lon="-5.456742">
        <time>2021-08-24T17:17:12Z</time>
      </trkpt>
      <trkpt lat="36.168742" lon="-5.456919">
        <time>2021-08-24T17:17:15Z</time>
      </trkpt>
      <trkpt lat="36.16438" lon="-5.458686">
        <time>2021-08-24T17:17:33Z</time>
      </trkpt>
      <trkpt lat="36.16073" lon="-5.459611">
        <time>2021-08-24T17:17:48Z</time>
      </trkpt>
      <trkpt lat="36.159371" lon="-5.459043">
        <time>2021-08-24T17:17:54Z</time>
      </trkpt>
      <trkpt lat="36.159371" lon="-5.459043">
        <time>2021-08-24T17:17:54Z</time>
      </trkpt>
      <trkpt lat="36.157418" lon="-5.457095">
        <time>2021-08-24T17:18:06Z</time>
      </trkpt>
      <trkpt lat="36.155966" lon="-5.455316">
        <time>2021-08-24T17:18:30Z</time>
      </trkpt>
      <trkpt lat="36.155677" lon="-5.455072">
        <time>2021-08-24T17:18:33Z</time>
      </trkpt>
      <trkpt lat="36.155014" lon="-5.454783">
        <time>2021-08-24T17:18:39Z</time>
      </trkpt>
      <trkpt lat="36.153618" lon="-5.454762">
        <time>2021-08-24T17:18:51Z</time>
      </trkpt>
      <trkpt lat="36.151356" lon="-5.454824">
        <time>2021-08-24T17:19:09Z</time>
      </trkpt>
      <trkpt lat="36.148782" lon="-5.454757">
        <time>2021-08-24T17:19:27Z</time>
      </trkpt>
      <trkpt lat="36.146491" lon="-5.453597">
        <time>2021-08-24T17:19:42Z</time>
      </trkpt>
      <trkpt lat="36.14589" lon="-5.453529">
        <time>2021-08-24T17:19:45Z</time>
      </trkpt>
      <trkpt lat="36.145266" lon="-5.453771">
        <time>2021-08-24T17:19:48Z</time>
      </trkpt>
      <trkpt lat="36.144789" lon="-5.454287">
        <time>2021-08-24T17:19:51Z</time>
      </trkpt>
      <trkpt lat="36.143624" lon="-5.457353">
        <time>2021-08-24T17:20:03Z</time>
      </trkpt>
      <trkpt lat="36.142715" lon="-5.459469">
        <time>2021-08-24T17:20:12Z</time>
      </trkpt>
      <trkpt lat="36.14171" lon="-5.460377">
        <time>2021-08-24T17:20:18Z</time>
      </trkpt>
      <trkpt lat="36.141094" lon="-5.46059">
        <time>2021-08-24T17:20:21Z</time>
      </trkpt>
      <trkpt lat="36.139767" lon="-5.460487">
        <time>2021-08-24T17:20:27Z</time>
      </trkpt>
      <trkpt lat="36.139767" lon="-5.460487">
        <time>2021-08-24T17:20:27Z</time>
      </trkpt>
      <trkpt lat="36.137076" lon="-5.460042">
        <time>2021-08-24T17:20:39Z</time>
      </trkpt>
      <trkpt lat="36.135668" lon="-5.460483">
        <time>2021-08-24T17:20:45Z</time>
      </trkpt>
      <trkpt lat="36.135" lon="-5.460964">
        <time>2021-08-24T17:20:48Z</time>
      </trkpt>
      <trkpt lat="36.134404" lon="-5.461582">
        <time>2021-08-24T17:20:51Z</time>
      </trkpt>
      <trkpt lat="36.132048" lon="-5.464169">
        <time>2021-08-24T17:21:06Z</time>
      </trkpt>
      <trkpt lat="36.131513" lon="-5.464366">
        <time>2021-08-24T17:21:09Z</time>
      </trkpt>
      <trkpt lat="36.130924" lon="-5.464403">
        <time>2021-08-24T17:21:12Z</time>
      </trkpt>
      <trkpt lat="36.127047" lon="-5.463485">
        <time>2021-08-24T17:21:30Z</time>
      </trkpt>
      <trkpt lat="36.126365" lon="-5.46326">
        <time>2021-08-24T17:21:33Z</time>
      </trkpt>
      <trkpt lat="36.125175" lon="-5.462327">
        <time>2021-08-24T17:21:39Z</time>
      </trkpt>
      <trkpt lat="36.123419" lon="-5.460944">
        <time>2021-08-24T17:21:48Z</time>
      </trkpt>
      <trkpt lat="36.122715" lon="-5.460835">
        <time>2021-08-24T17:21:51Z</time>
      </trkpt>
      <trkpt lat="36.122715" lon="-5.460835">
        <time>2021-08-24T17:21:51Z</time>
      </trkpt>
      <trkpt lat="36.117689" lon="-5.461092">
        <time>2021-08-24T17:22:12Z</time>
      </trkpt>
      <trkpt lat="36.117053" lon="-5.46089">
        <time>2021-08-24T17:22:15Z</time>
      </trkpt>
      <trkpt lat="36.116079" lon="-5.460085">
        <time>2021-08-24T17:22:21Z</time>
      </trkpt>
      <trkpt lat="36.114381" lon="-5.457291">
        <time>2021-08-24T17:22:39Z</time>
      </trkpt>
      <trkpt lat="36.113653" lon="-5.456173">
        <time>2021-08-24T17:22:51Z</time>
      </trkpt>
      <trkpt lat="36.113424" lon="-5.4561">
        <time>2021-08-24T17:22:54Z</time>
      </trkpt>
      <trkpt lat="36.112965" lon="-5.456212">
        <time>2021-08-24T17:23:00Z</time>
      </trkpt>
      <trkpt lat="36.112731" lon="-5.456131">
        <time>2021-08-24T17:23:03Z</time>
      </trkpt>
      <trkpt lat="36.11262" lon="-5.455808">
        <time>2021-08-24T17:23:06Z</time>
      </trkpt>
      <trkpt lat="36.112571" lon="-5.45503">
        <time>2021-08-24T17:23:12Z</time>
      </trkpt>
      <trkpt lat="36.112188" lon="-5.453954">
        <time>2021-08-24T17:23:21Z</time>
      </trkpt>
      <trkpt lat="36.112087" lon="-5.453836">
        <time>2021-08-24T17:23:24Z</time>
      </trkpt>
      <trkpt lat="36.111933" lon="-5.453661">
        <time>2021-08-24T17:23:27Z</time>
      </trkpt>
      <trkpt lat="36.111787" lon="-5.453382">
        <time>2021-08-24T17:23:30Z</time>
      </trkpt>
      <trkpt lat="36.111787" lon="-5.453382">
        <time>2021-08-24T17:23:30Z</time>
      </trkpt>
      <trkpt lat="36.109149" lon="-5.451031">
        <time>2021-08-24T17:24:09Z</time>
      </trkpt>
      <trkpt lat="36.108962" lon="-5.450922">
        <time>2021-08-24T17:24:12Z</time>
      </trkpt>
      <trkpt lat="36.108841" lon="-5.450677">
        <time>2021-08-24T17:24:15Z</time>
      </trkpt>
      <trkpt lat="36.107903" lon="-5.449823">
        <time>2021-08-24T17:24:24Z</time>
      </trkpt>
      <trkpt lat="36.107669" lon="-5.449439">
        <time>2021-08-24T17:24:27Z</time>
      </trkpt>
      <trkpt lat="36.107526" lon="-5.448988">
        <time>2021-08-24T17:24:30Z</time>
      </trkpt>
      <trkpt lat="36.107431" lon="-5.44809">
        <time>2021-08-24T17:24:39Z</time>
      </trkpt>
      <trkpt lat="36.107558" lon="-5.44792">
        <time>2021-08-24T17:24:42Z</time>
      </trkpt>
      <trkpt lat="36.107655" lon="-5.447746">
        <time>2021-08-24T17:24:45Z</time>
      </trkpt>
      <trkpt lat="36.108478" lon="-5.444617">
        <time>2021-08-24T17:25:21Z</time>
      </trkpt>
      <trkpt lat="36.109414" lon="-5.441213">
        <time>2021-08-24T17:25:51Z</time>
      </trkpt>
      <trkpt lat="36.109496" lon="-5.440735">
        <time>2021-08-24T17:26:00Z</time>
      </trkpt>
      <trkpt lat="36.10939" lon="-5.440647">
        <time>2021-08-24T17:26:03Z</time>
      </trkpt>
      <trkpt lat="36.108304" lon="-5.440933">
        <time>2021-08-24T17:26:12Z</time>
      </trkpt>
      <trkpt lat="36.106663" lon="-5.441046">
        <time>2021-08-24T17:26:30Z</time>
      </trkpt>
      <trkpt lat="36.106402" lon="-5.441063">
        <time>2021-08-24T17:26:36Z</time>
      </trkpt>
      <trkpt lat="36.106312" lon="-5.441131">
        <time>2021-08-24T17:26:39Z</time>
      </trkpt>
      <trkpt lat="36.106294" lon="-5.441278">
        <time>2021-08-24T17:26:42Z</time>
      </trkpt>
      <trkpt lat="36.1063" lon="-5.443069">
        <time>2021-08-24T17:27:06Z</time>
      </trkpt>
      <trkpt lat="36.106395" lon="-5.443179">
        <time>2021-08-24T17:27:09Z</time>
      </trkpt>
      <trkpt lat="36.106599" lon="-5.443201">
        <time>2021-08-24T17:27:12Z</time>
      </trkpt>
      <trkpt lat="36.107034" lon="-5.443192">
        <time>2021-08-24T17:27:18Z</time>
      </trkpt>
      <trkpt lat="36.107208" lon="-5.443149">
        <time>2021-08-24T17:27:21Z</time>
      </trkpt>
      <trkpt lat="36.107208" lon="-5.443149">
        <time>2021-08-24T17:27:21Z</time>
      </trkpt>
      <trkpt lat="36.107456" lon="-5.443164">
        <time>2021-08-24T17:27:27Z</time>
      </trkpt>
      <trkpt lat="36.107482" lon="-5.443294">
        <time>2021-08-24T17:27:30Z</time>
      </trkpt>
      <trkpt lat="36.107526" lon="-5.443641">
        <time>2021-08-24T17:28:59Z</time>
      </trkpt>
      <trkpt lat="36.107526" lon="-5.443641">
        <time>2021-08-24T17:28:59Z</time>
      </trkpt>
      <trkpt lat="36.107308" lon="-5.443646">
        <time>2021-08-18T07:08:35Z</time>
      </trkpt>
      <trkpt lat="36.107308" lon="-5.443646">
        <time>2021-08-18T07:08:39Z</time>
      </trkpt>
      <trkpt lat="36.107324" lon="-5.443641">
        <time>2021-08-18T07:10:02Z</time>
      </trkpt>
      <trkpt lat="36.107324" lon="-5.443641">
        <time>2021-08-18T07:10:08Z</time>
      </trkpt>
      <trkpt lat="36.107324" lon="-5.443641">
        <time>2021-08-18T07:13:30Z</time>
      </trkpt>
      <trkpt lat="36.107522" lon="-5.443702">
        <time>2021-08-18T07:18:46Z</time>
      </trkpt>
      <trkpt lat="36.107522" lon="-5.443702">
        <time>2021-08-18T07:19:25Z</time>
      </trkpt>
      <trkpt lat="36.107559" lon="-5.443627">
        <time>2021-08-18T07:19:32Z</time>
      </trkpt>
      <trkpt lat="36.107616" lon="-5.443493">
        <time>2021-08-18T07:19:35Z</time>
      </trkpt>
      <trkpt lat="36.107631" lon="-5.443365">
        <time>2021-08-18T07:19:38Z</time>
      </trkpt>
      <trkpt lat="36.107557" lon="-5.443081">
        <time>2021-08-18T07:19:44Z</time>
      </trkpt>
      <trkpt lat="36.107289" lon="-5.443058">
        <time>2021-08-18T07:19:50Z</time>
      </trkpt>
      <trkpt lat="36.106948" lon="-5.443157">
        <time>2021-08-18T07:19:56Z</time>
      </trkpt>
      <trkpt lat="36.106484" lon="-5.443279">
        <time>2021-08-18T07:20:08Z</time>
      </trkpt>
      <trkpt lat="36.106416" lon="-5.443638">
        <time>2021-08-18T07:20:23Z</time>
      </trkpt>
      <trkpt lat="36.106477" lon="-5.445832">
        <time>2021-08-18T07:20:50Z</time>
      </trkpt>
      <trkpt lat="36.10716" lon="-5.44583">
        <time>2021-08-18T07:20:59Z</time>
      </trkpt>
      <trkpt lat="36.10716" lon="-5.44583">
        <time>2021-08-18T07:20:59Z</time>
      </trkpt>
      <trkpt lat="36.108077" lon="-5.445817">
        <time>2021-08-18T07:21:20Z</time>
      </trkpt>
      <trkpt lat="36.108072" lon="-5.445947">
        <time>2021-08-18T07:21:23Z</time>
      </trkpt>
      <trkpt lat="36.107423" lon="-5.44854">
        <time>2021-08-18T07:21:53Z</time>
      </trkpt>
      <trkpt lat="36.107554" lon="-5.449087">
        <time>2021-08-18T07:21:59Z</time>
      </trkpt>
      <trkpt lat="36.107935" lon="-5.449784">
        <time>2021-08-18T07:22:05Z</time>
      </trkpt>
      <trkpt lat="36.108136" lon="-5.450031">
        <time>2021-08-18T07:22:08Z</time>
      </trkpt>
      <trkpt lat="36.108702" lon="-5.450744">
        <time>2021-08-18T07:22:17Z</time>
      </trkpt>
      <trkpt lat="36.108702" lon="-5.450744">
        <time>2021-08-18T07:22:20Z</time>
      </trkpt>
      <trkpt lat="36.109022" lon="-5.450961">
        <time>2021-08-18T07:22:23Z</time>
      </trkpt>
      <trkpt lat="36.109147" lon="-5.451149">
        <time>2021-08-18T07:22:26Z</time>
      </trkpt>
      <trkpt lat="36.111691" lon="-5.453413">
        <time>2021-08-18T07:23:50Z</time>
      </trkpt>
      <trkpt lat="36.111691" lon="-5.453413">
        <time>2021-08-18T07:23:50Z</time>
      </trkpt>
      <trkpt lat="36.111883" lon="-5.453501">
        <time>2021-08-18T07:23:53Z</time>
      </trkpt>
      <trkpt lat="36.111989" lon="-5.453638">
        <time>2021-08-18T07:23:56Z</time>
      </trkpt>
      <trkpt lat="36.112173" lon="-5.454287">
        <time>2021-08-18T07:24:02Z</time>
      </trkpt>
      <trkpt lat="36.112416" lon="-5.454776">
        <time>2021-08-18T07:24:08Z</time>
      </trkpt>
      <trkpt lat="36.112626" lon="-5.454752">
        <time>2021-08-18T07:24:11Z</time>
      </trkpt>
      <trkpt lat="36.112932" lon="-5.454729">
        <time>2021-08-18T07:24:14Z</time>
      </trkpt>
      <trkpt lat="36.113198" lon="-5.454896">
        <time>2021-08-18T07:24:17Z</time>
      </trkpt>
      <trkpt lat="36.113337" lon="-5.455184">
        <time>2021-08-18T07:24:20Z</time>
      </trkpt>
      <trkpt lat="36.113654" lon="-5.455884">
        <time>2021-08-18T07:24:26Z</time>
      </trkpt>
      <trkpt lat="36.114597" lon="-5.457537">
        <time>2021-08-18T07:24:38Z</time>
      </trkpt>
      <trkpt lat="36.116557" lon="-5.46047">
        <time>2021-08-18T07:24:56Z</time>
      </trkpt>
      <trkpt lat="36.117564" lon="-5.460969">
        <time>2021-08-18T07:25:02Z</time>
      </trkpt>
      <trkpt lat="36.11813" lon="-5.461054">
        <time>2021-08-18T07:25:05Z</time>
      </trkpt>
      <trkpt lat="36.119312" lon="-5.461006">
        <time>2021-08-18T07:25:11Z</time>
      </trkpt>
      <trkpt lat="36.122894" lon="-5.460761">
        <time>2021-08-18T07:25:29Z</time>
      </trkpt>
      <trkpt lat="36.123479" lon="-5.460889">
        <time>2021-08-18T07:25:32Z</time>
      </trkpt>
      <trkpt lat="36.124489" lon="-5.461534">
        <time>2021-08-18T07:25:38Z</time>
      </trkpt>
      <trkpt lat="36.126323" lon="-5.463139">
        <time>2021-08-18T07:25:50Z</time>
      </trkpt>
      <trkpt lat="36.126919" lon="-5.463351">
        <time>2021-08-18T07:25:53Z</time>
      </trkpt>
      <trkpt lat="36.130555" lon="-5.464251">
        <time>2021-08-18T07:26:11Z</time>
      </trkpt>
      <trkpt lat="36.131793" lon="-5.464146">
        <time>2021-08-18T07:26:17Z</time>
      </trkpt>
      <trkpt lat="36.131793" lon="-5.464146">
        <time>2021-08-18T07:26:17Z</time>
      </trkpt>
      <trkpt lat="36.132352" lon="-5.463832">
        <time>2021-08-18T07:26:20Z</time>
      </trkpt>
      <trkpt lat="36.133677" lon="-5.462372">
        <time>2021-08-18T07:26:29Z</time>
      </trkpt>
      <trkpt lat="36.13551" lon="-5.460451">
        <time>2021-08-18T07:26:41Z</time>
      </trkpt>
      <trkpt lat="36.13551" lon="-5.460451">
        <time>2021-08-18T07:26:41Z</time>
      </trkpt>
      <trkpt lat="36.136662" lon="-5.460012">
        <time>2021-08-18T07:26:47Z</time>
      </trkpt>
      <trkpt lat="36.137889" lon="-5.459988">
        <time>2021-08-18T07:26:53Z</time>
      </trkpt>
      <trkpt lat="36.140386" lon="-5.460551">
        <time>2021-08-18T07:27:05Z</time>
      </trkpt>
      <trkpt lat="36.14102" lon="-5.460533">
        <time>2021-08-18T07:27:08Z</time>
      </trkpt>
      <trkpt lat="36.142142" lon="-5.459981">
        <time>2021-08-18T07:27:14Z</time>
      </trkpt>
      <trkpt lat="36.142955" lon="-5.45883">
        <time>2021-08-18T07:27:20Z</time>
      </trkpt>
      <trkpt lat="36.143749" lon="-5.45673">
        <time>2021-08-18T07:27:29Z</time>
      </trkpt>
      <trkpt lat="36.144795" lon="-5.454173">
        <time>2021-08-18T07:27:41Z</time>
      </trkpt>
      <trkpt lat="36.145208" lon="-5.453755">
        <time>2021-08-18T07:27:44Z</time>
      </trkpt>
      <trkpt lat="36.145674" lon="-5.453547">
        <time>2021-08-18T07:27:47Z</time>
      </trkpt>
      <trkpt lat="36.146489" lon="-5.453588">
        <time>2021-08-18T07:27:53Z</time>
      </trkpt>
      <trkpt lat="36.146822" lon="-5.453716">
        <time>2021-08-18T07:27:56Z</time>
      </trkpt>
      <trkpt lat="36.147333" lon="-5.454014">
        <time>2021-08-18T07:28:08Z</time>
      </trkpt>
      <trkpt lat="36.149312" lon="-5.45487">
        <time>2021-08-18T07:28:26Z</time>
      </trkpt>
      <trkpt lat="36.151311" lon="-5.454834">
        <time>2021-08-18T07:28:35Z</time>
      </trkpt>
      <trkpt lat="36.1551" lon="-5.454765">
        <time>2021-08-18T07:28:59Z</time>
      </trkpt>
      <trkpt lat="36.155763" lon="-5.455084">
        <time>2021-08-18T07:29:23Z</time>
      </trkpt>
      <trkpt lat="36.155763" lon="-5.455084">
        <time>2021-08-18T07:29:23Z</time>
      </trkpt>
      <trkpt lat="36.156529" lon="-5.455844">
        <time>2021-08-18T07:29:29Z</time>
      </trkpt>
      <trkpt lat="36.159238" lon="-5.458931">
        <time>2021-08-18T07:29:47Z</time>
      </trkpt>
      <trkpt lat="36.159238" lon="-5.458931">
        <time>2021-08-18T07:29:47Z</time>
      </trkpt>
      <trkpt lat="36.160395" lon="-5.459524">
        <time>2021-08-18T07:29:53Z</time>
      </trkpt>
      <trkpt lat="36.161712" lon="-5.459504">
        <time>2021-08-18T07:29:59Z</time>
      </trkpt>
      <trkpt lat="36.163645" lon="-5.458825">
        <time>2021-08-18T07:30:08Z</time>
      </trkpt>
      <trkpt lat="36.167883" lon="-5.456757">
        <time>2021-08-18T07:30:29Z</time>
      </trkpt>
      <trkpt lat="36.169716" lon="-5.456066">
        <time>2021-08-18T07:30:38Z</time>
      </trkpt>
      <trkpt lat="36.170841" lon="-5.456398">
        <time>2021-08-18T07:30:44Z</time>
      </trkpt>
      <trkpt lat="36.171322" lon="-5.456819">
        <time>2021-08-18T07:30:47Z</time>
      </trkpt>
      <trkpt lat="36.171322" lon="-5.456819">
        <time>2021-08-18T07:30:47Z</time>
      </trkpt>
      <trkpt lat="36.171322" lon="-5.456819">
        <time>2021-08-18T07:30:47Z</time>
      </trkpt>
      <trkpt lat="36.171322" lon="-5.456819">
        <time>2021-08-18T07:30:47Z</time>
      </trkpt>
      <trkpt lat="36.171322" lon="-5.456819">
        <time>2021-08-18T07:30:47Z</time>
      </trkpt>
      <trkpt lat="36.171322" lon="-5.456819">
        <time>2021-08-18T07:30:47Z</time>
      </trkpt>
      <trkpt lat="36.171966" lon="-5.458111">
        <time>2021-08-18T07:30:53Z</time>
      </trkpt>
      <trkpt lat="36.171966" lon="-5.458111">
        <time>2021-08-18T07:30:53Z</time>
      </trkpt>
      <trkpt lat="36.172465" lon="-5.460437">
        <time>2021-08-18T07:31:02Z</time>
      </trkpt>
      <trkpt lat="36.173856" lon="-5.46313">
        <time>2021-08-18T07:31:14Z</time>
      </trkpt>
      <trkpt lat="36.174698" lon="-5.465446">
        <time>2021-08-18T07:31:23Z</time>
      </trkpt>
      <trkpt lat="36.174845" lon="-5.467126">
        <time>2021-08-18T07:31:29Z</time>
      </trkpt>
      <trkpt lat="36.174656" lon="-5.468761">
        <time>2021-08-18T07:31:35Z</time>
      </trkpt>
      <trkpt lat="36.17445" lon="-5.469525">
        <time>2021-08-18T07:31:38Z</time>
      </trkpt>
      <trkpt lat="36.173499" lon="-5.471521">
        <time>2021-08-18T07:31:47Z</time>
      </trkpt>
      <trkpt lat="36.172445" lon="-5.473687">
        <time>2021-08-18T07:31:56Z</time>
      </trkpt>
      <trkpt lat="36.172198" lon="-5.474504">
        <time>2021-08-18T07:31:59Z</time>
      </trkpt>
      <trkpt lat="36.171882" lon="-5.476849">
        <time>2021-08-18T07:32:08Z</time>
      </trkpt>
      <trkpt lat="36.171882" lon="-5.476849">
        <time>2021-08-18T07:32:08Z</time>
      </trkpt>
      <trkpt lat="36.172066" lon="-5.479168">
        <time>2021-08-18T07:32:17Z</time>
      </trkpt>
      <trkpt lat="36.172066" lon="-5.479168">
        <time>2021-08-18T07:32:17Z</time>
      </trkpt>
      <trkpt lat="36.173504" lon="-5.484825">
        <time>2021-08-18T07:32:38Z</time>
      </trkpt>
      <trkpt lat="36.174347" lon="-5.490783">
        <time>2021-08-18T07:32:59Z</time>
      </trkpt>
      <trkpt lat="36.175446" lon="-5.493985">
        <time>2021-08-18T07:33:11Z</time>
      </trkpt>
      <trkpt lat="36.176646" lon="-5.496194">
        <time>2021-08-18T07:33:20Z</time>
      </trkpt>
      <trkpt lat="36.178612" lon="-5.498886">
        <time>2021-08-18T07:33:32Z</time>
      </trkpt>
      <trkpt lat="36.180187" lon="-5.500781">
        <time>2021-08-18T07:33:41Z</time>
      </trkpt>
      <trkpt lat="36.1843" lon="-5.504814">
        <time>2021-08-18T07:34:02Z</time>
      </trkpt>
      <trkpt lat="36.18798" lon="-5.508101">
        <time>2021-08-18T07:34:20Z</time>
      </trkpt>
      <trkpt lat="36.191955" lon="-5.511649">
        <time>2021-08-18T07:34:41Z</time>
      </trkpt>
      <trkpt lat="36.193166" lon="-5.512592">
        <time>2021-08-18T07:34:47Z</time>
      </trkpt>
      <trkpt lat="36.196328" lon="-5.514572">
        <time>2021-08-18T07:35:02Z</time>
      </trkpt>
      <trkpt lat="36.199677" lon="-5.516015">
        <time>2021-08-18T07:35:17Z</time>
      </trkpt>
      <trkpt lat="36.201061" lon="-5.516481">
        <time>2021-08-18T07:35:23Z</time>
      </trkpt>
      <trkpt lat="36.205921" lon="-5.518448">
        <time>2021-08-18T07:35:44Z</time>
      </trkpt>
      <trkpt lat="36.205921" lon="-5.518448">
        <time>2021-08-18T07:35:44Z</time>
      </trkpt>
      <trkpt lat="36.207505" lon="-5.520125">
        <time>2021-08-18T07:35:53Z</time>
      </trkpt>
      <trkpt lat="36.208643" lon="-5.522301">
        <time>2021-08-18T07:36:02Z</time>
      </trkpt>
      <trkpt lat="36.208886" lon="-5.523125">
        <time>2021-08-18T07:36:05Z</time>
      </trkpt>
      <trkpt lat="36.209154" lon="-5.524856">
        <time>2021-08-18T07:36:11Z</time>
      </trkpt>
      <trkpt lat="36.209028" lon="-5.527405">
        <time>2021-08-18T07:36:20Z</time>
      </trkpt>
      <trkpt lat="36.208689" lon="-5.529014">
        <time>2021-08-18T07:36:26Z</time>
      </trkpt>
      <trkpt lat="36.207474" lon="-5.534598">
        <time>2021-08-18T07:36:47Z</time>
      </trkpt>
      <trkpt lat="36.207425" lon="-5.535406">
        <time>2021-08-18T07:36:50Z</time>
      </trkpt>
      <trkpt lat="36.207654" lon="-5.537701">
        <time>2021-08-18T07:36:59Z</time>
      </trkpt>
      <trkpt lat="36.208411" lon="-5.539796">
        <time>2021-08-18T07:37:08Z</time>
      </trkpt>
      <trkpt lat="36.208782" lon="-5.540438">
        <time>2021-08-18T07:37:11Z</time>
      </trkpt>
      <trkpt lat="36.209711" lon="-5.541592">
        <time>2021-08-18T07:37:17Z</time>
      </trkpt>
      <trkpt lat="36.211421" lon="-5.542835">
        <time>2021-08-18T07:37:26Z</time>
      </trkpt>
      <trkpt lat="36.212553" lon="-5.543508">
        <time>2021-08-18T07:37:32Z</time>
      </trkpt>
      <trkpt lat="36.213637" lon="-5.544467">
        <time>2021-08-18T07:37:38Z</time>
      </trkpt>
      <trkpt lat="36.214996" lon="-5.546549">
        <time>2021-08-18T07:37:47Z</time>
      </trkpt>
      <trkpt lat="36.215579" lon="-5.548162">
        <time>2021-08-18T07:37:53Z</time>
      </trkpt>
      <trkpt lat="36.217514" lon="-5.553482">
        <time>2021-08-18T07:38:14Z</time>
      </trkpt>
      <trkpt lat="36.218991" lon="-5.556119">
        <time>2021-08-18T07:38:26Z</time>
      </trkpt>
      <trkpt lat="36.220171" lon="-5.558031">
        <time>2021-08-18T07:38:35Z</time>
      </trkpt>
      <trkpt lat="36.222059" lon="-5.562255">
        <time>2021-08-18T07:38:53Z</time>
      </trkpt>
      <trkpt lat="36.222299" lon="-5.562976">
        <time>2021-08-18T07:38:56Z</time>
      </trkpt>
      <trkpt lat="36.22501" lon="-5.568206">
        <time>2021-08-18T07:39:20Z</time>
      </trkpt>
      <trkpt lat="36.226127" lon="-5.570071">
        <time>2021-08-18T07:39:29Z</time>
      </trkpt>
      <trkpt lat="36.227087" lon="-5.571066">
        <time>2021-08-18T07:39:35Z</time>
      </trkpt>
      <trkpt lat="36.230772" lon="-5.573702">
        <time>2021-08-18T07:39:56Z</time>
      </trkpt>
      <trkpt lat="36.233857" lon="-5.57659">
        <time>2021-08-18T07:40:14Z</time>
      </trkpt>
      <trkpt lat="36.234246" lon="-5.577326">
        <time>2021-08-18T07:40:17Z</time>
      </trkpt>
      <trkpt lat="36.235532" lon="-5.57958">
        <time>2021-08-18T07:40:26Z</time>
      </trkpt>
      <trkpt lat="36.236728" lon="-5.580668">
        <time>2021-08-18T07:40:32Z</time>
      </trkpt>
      <trkpt lat="36.238079" lon="-5.581293">
        <time>2021-08-18T07:40:38Z</time>
      </trkpt>
      <trkpt lat="36.238079" lon="-5.581293">
        <time>2021-08-18T07:40:38Z</time>
      </trkpt>
      <trkpt lat="36.239552" lon="-5.581448">
        <time>2021-08-18T07:40:44Z</time>
      </trkpt>
      <trkpt lat="36.243104" lon="-5.580727">
        <time>2021-08-18T07:40:59Z</time>
      </trkpt>
      <trkpt lat="36.243104" lon="-5.580727">
        <time>2021-08-18T07:40:59Z</time>
      </trkpt>
      <trkpt lat="36.247802" lon="-5.580546">
        <time>2021-08-18T07:41:20Z</time>
      </trkpt>
      <trkpt lat="36.249903" lon="-5.580007">
        <time>2021-08-18T07:41:29Z</time>
      </trkpt>
      <trkpt lat="36.253118" lon="-5.580258">
        <time>2021-08-18T07:41:43Z</time>
      </trkpt>
      <trkpt lat="36.253118" lon="-5.580258">
        <time>2021-08-18T07:41:43Z</time>
      </trkpt>
      <trkpt lat="36.257188" lon="-5.582574">
        <time>2021-08-18T07:42:01Z</time>
      </trkpt>
      <trkpt lat="36.25986" lon="-5.583637">
        <time>2021-08-18T07:42:13Z</time>
      </trkpt>
      <trkpt lat="36.261997" lon="-5.583751">
        <time>2021-08-18T07:42:22Z</time>
      </trkpt>
      <trkpt lat="36.261997" lon="-5.583751">
        <time>2021-08-18T07:42:22Z</time>
      </trkpt>
      <trkpt lat="36.266567" lon="-5.583916">
        <time>2021-08-18T07:42:40Z</time>
      </trkpt>
      <trkpt lat="36.27168" lon="-5.584075">
        <time>2021-08-18T07:42:58Z</time>
      </trkpt>
      <trkpt lat="36.276626" lon="-5.583652">
        <time>2021-08-18T07:43:16Z</time>
      </trkpt>
      <trkpt lat="36.281339" lon="-5.583351">
        <time>2021-08-18T07:43:34Z</time>
      </trkpt>
      <trkpt lat="36.282814" lon="-5.583643">
        <time>2021-08-18T07:43:40Z</time>
      </trkpt>
      <trkpt lat="36.287779" lon="-5.586695">
        <time>2021-08-18T07:44:02Z</time>
      </trkpt>
      <trkpt lat="36.287779" lon="-5.586695">
        <time>2021-08-18T07:44:02Z</time>
      </trkpt>
      <trkpt lat="36.291721" lon="-5.589923">
        <time>2021-08-18T07:44:20Z</time>
      </trkpt>
      <trkpt lat="36.295898" lon="-5.592525">
        <time>2021-08-18T07:44:38Z</time>
      </trkpt>
      <trkpt lat="36.295898" lon="-5.592525">
        <time>2021-08-18T07:44:38Z</time>
      </trkpt>
      <trkpt lat="36.30035" lon="-5.594309">
        <time>2021-08-18T07:44:56Z</time>
      </trkpt>
      <trkpt lat="36.304785" lon="-5.596076">
        <time>2021-08-18T07:45:14Z</time>
      </trkpt>
      <trkpt lat="36.309233" lon="-5.597848">
        <time>2021-08-18T07:45:32Z</time>
      </trkpt>
      <trkpt lat="36.313518" lon="-5.599543">
        <time>2021-08-18T07:45:50Z</time>
      </trkpt>
      <trkpt lat="36.317747" lon="-5.600786">
        <time>2021-08-18T07:46:08Z</time>
      </trkpt>
      <trkpt lat="36.318533" lon="-5.600756">
        <time>2021-08-18T07:46:11Z</time>
      </trkpt>
      <trkpt lat="36.32338" lon="-5.600094">
        <time>2021-08-18T07:46:29Z</time>
      </trkpt>
      <trkpt lat="36.325769" lon="-5.60045">
        <time>2021-08-18T07:46:38Z</time>
      </trkpt>
      <trkpt lat="36.328006" lon="-5.601775">
        <time>2021-08-18T07:46:47Z</time>
      </trkpt>
      <trkpt lat="36.328006" lon="-5.601775">
        <time>2021-08-18T07:46:47Z</time>
      </trkpt>
      <trkpt lat="36.329796" lon="-5.603951">
        <time>2021-08-18T07:46:56Z</time>
      </trkpt>
      <trkpt lat="36.331366" lon="-5.606502">
        <time>2021-08-18T07:47:05Z</time>
      </trkpt>
      <trkpt lat="36.334594" lon="-5.611636">
        <time>2021-08-18T07:47:23Z</time>
      </trkpt>
      <trkpt lat="36.33836" lon="-5.616161">
        <time>2021-08-18T07:47:41Z</time>
      </trkpt>
      <trkpt lat="36.342151" lon="-5.62073">
        <time>2021-08-18T07:47:59Z</time>
      </trkpt>
      <trkpt lat="36.344107" lon="-5.622858">
        <time>2021-08-18T07:48:08Z</time>
      </trkpt>
      <trkpt lat="36.346256" lon="-5.624777">
        <time>2021-08-18T07:48:17Z</time>
      </trkpt>
      <trkpt lat="36.350454" lon="-5.628489">
        <time>2021-08-18T07:48:35Z</time>
      </trkpt>
      <trkpt lat="36.35285" lon="-5.63122">
        <time>2021-08-18T07:48:47Z</time>
      </trkpt>
      <trkpt lat="36.353822" lon="-5.632952">
        <time>2021-08-18T07:48:53Z</time>
      </trkpt>
      <trkpt lat="36.356525" lon="-5.638453">
        <time>2021-08-18T07:49:11Z</time>
      </trkpt>
      <trkpt lat="36.358058" lon="-5.640827">
        <time>2021-08-18T07:49:20Z</time>
      </trkpt>
      <trkpt lat="36.360091" lon="-5.642441">
        <time>2021-08-18T07:49:29Z</time>
      </trkpt>
      <trkpt lat="36.360091" lon="-5.642441">
        <time>2021-08-18T07:49:29Z</time>
      </trkpt>
      <trkpt lat="36.363351" lon="-5.643383">
        <time>2021-08-18T07:49:41Z</time>
      </trkpt>
      <trkpt lat="36.365031" lon="-5.643702">
        <time>2021-08-18T07:49:47Z</time>
      </trkpt>
      <trkpt lat="36.367436" lon="-5.644503">
        <time>2021-08-18T07:49:56Z</time>
      </trkpt>
      <trkpt lat="36.369544" lon="-5.646178">
        <time>2021-08-18T07:50:05Z</time>
      </trkpt>
      <trkpt lat="36.370218" lon="-5.646818">
        <time>2021-08-18T07:50:08Z</time>
      </trkpt>
      <trkpt lat="36.373522" lon="-5.65007">
        <time>2021-08-18T07:50:23Z</time>
      </trkpt>
      <trkpt lat="36.375689" lon="-5.65158">
        <time>2021-08-18T07:50:32Z</time>
      </trkpt>
      <trkpt lat="36.378127" lon="-5.652311">
        <time>2021-08-18T07:50:41Z</time>
      </trkpt>
      <trkpt lat="36.383238" lon="-5.653281">
        <time>2021-08-18T07:50:59Z</time>
      </trkpt>
      <trkpt lat="36.383238" lon="-5.653281">
        <time>2021-08-18T07:50:59Z</time>
      </trkpt>
      <trkpt lat="36.388313" lon="-5.652319">
        <time>2021-08-18T07:51:17Z</time>
      </trkpt>
      <trkpt lat="36.392515" lon="-5.652634">
        <time>2021-08-18T07:51:32Z</time>
      </trkpt>
      <trkpt lat="36.393337" lon="-5.652941">
        <time>2021-08-18T07:51:35Z</time>
      </trkpt>
      <trkpt lat="36.398215" lon="-5.654811">
        <time>2021-08-18T07:51:53Z</time>
      </trkpt>
      <trkpt lat="36.403238" lon="-5.655835">
        <time>2021-08-18T07:52:11Z</time>
      </trkpt>
      <trkpt lat="36.408179" lon="-5.657374">
        <time>2021-08-18T07:52:29Z</time>
      </trkpt>
      <trkpt lat="36.410433" lon="-5.658821">
        <time>2021-08-18T07:52:38Z</time>
      </trkpt>
      <trkpt lat="36.412482" lon="-5.660696">
        <time>2021-08-18T07:52:47Z</time>
      </trkpt>
      <trkpt lat="36.413702" lon="-5.662149">
        <time>2021-08-18T07:52:53Z</time>
      </trkpt>
      <trkpt lat="36.41576" lon="-5.665427">
        <time>2021-08-18T07:53:05Z</time>
      </trkpt>
      <trkpt lat="36.416197" lon="-5.66634">
        <time>2021-08-18T07:53:08Z</time>
      </trkpt>
      <trkpt lat="36.417903" lon="-5.671107">
        <time>2021-08-18T07:53:23Z</time>
      </trkpt>
      <trkpt lat="36.420167" lon="-5.676449">
        <time>2021-08-18T07:53:41Z</time>
      </trkpt>
      <trkpt lat="36.421663" lon="-5.678986">
        <time>2021-08-18T07:53:50Z</time>
      </trkpt>
      <trkpt lat="36.423335" lon="-5.681365">
        <time>2021-08-18T07:53:59Z</time>
      </trkpt>
      <trkpt lat="36.426638" lon="-5.686035">
        <time>2021-08-18T07:54:17Z</time>
      </trkpt>
      <trkpt lat="36.427089" lon="-5.686933">
        <time>2021-08-18T07:54:20Z</time>
      </trkpt>
      <trkpt lat="36.427985" lon="-5.68988">
        <time>2021-08-18T07:54:29Z</time>
      </trkpt>
      <trkpt lat="36.42826" lon="-5.691904">
        <time>2021-08-18T07:54:35Z</time>
      </trkpt>
      <trkpt lat="36.428302" lon="-5.693896">
        <time>2021-08-18T07:54:41Z</time>
      </trkpt>
      <trkpt lat="36.428136" lon="-5.697917">
        <time>2021-08-18T07:54:53Z</time>
      </trkpt>
      <trkpt lat="36.42835" lon="-5.702036">
        <time>2021-08-18T07:55:05Z</time>
      </trkpt>
      <trkpt lat="36.428943" lon="-5.704011">
        <time>2021-08-18T07:55:11Z</time>
      </trkpt>
      <trkpt lat="36.429353" lon="-5.70491">
        <time>2021-08-18T07:55:14Z</time>
      </trkpt>
      <trkpt lat="36.431472" lon="-5.709349">
        <time>2021-08-18T07:55:29Z</time>
      </trkpt>
      <trkpt lat="36.433561" lon="-5.712415">
        <time>2021-08-18T07:55:41Z</time>
      </trkpt>
      <trkpt lat="36.434837" lon="-5.713767">
        <time>2021-08-18T07:55:47Z</time>
      </trkpt>
      <trkpt lat="36.435922" lon="-5.715328">
        <time>2021-08-18T07:55:53Z</time>
      </trkpt>
      <trkpt lat="36.437712" lon="-5.718777">
        <time>2021-08-18T07:56:05Z</time>
      </trkpt>
      <trkpt lat="36.438875" lon="-5.72025">
        <time>2021-08-18T07:56:11Z</time>
      </trkpt>
      <trkpt lat="36.441253" lon="-5.72305">
        <time>2021-08-18T07:56:23Z</time>
      </trkpt>
      <trkpt lat="36.441736" lon="-5.723879">
        <time>2021-08-18T07:56:26Z</time>
      </trkpt>
      <trkpt lat="36.442786" lon="-5.726669">
        <time>2021-08-18T07:56:35Z</time>
      </trkpt>
      <trkpt lat="36.443109" lon="-5.728687">
        <time>2021-08-18T07:56:41Z</time>
      </trkpt>
      <trkpt lat="36.443165" lon="-5.729719">
        <time>2021-08-18T07:56:44Z</time>
      </trkpt>
      <trkpt lat="36.442651" lon="-5.734933">
        <time>2021-08-18T07:56:59Z</time>
      </trkpt>
      <trkpt lat="36.44265" lon="-5.736987">
        <time>2021-08-18T07:57:05Z</time>
      </trkpt>
      <trkpt lat="36.443447" lon="-5.740922">
        <time>2021-08-18T07:57:17Z</time>
      </trkpt>
      <trkpt lat="36.443447" lon="-5.740922">
        <time>2021-08-18T07:57:17Z</time>
      </trkpt>
      <trkpt lat="36.44474" lon="-5.743601">
        <time>2021-08-18T07:57:26Z</time>
      </trkpt>
      <trkpt lat="36.446531" lon="-5.745816">
        <time>2021-08-18T07:57:35Z</time>
      </trkpt>
      <trkpt lat="36.447196" lon="-5.746435">
        <time>2021-08-18T07:57:38Z</time>
      </trkpt>
      <trkpt lat="36.450472" lon="-5.749533">
        <time>2021-08-18T07:57:53Z</time>
      </trkpt>
      <trkpt lat="36.454244" lon="-5.753882">
        <time>2021-08-18T07:58:11Z</time>
      </trkpt>
      <trkpt lat="36.454244" lon="-5.753882">
        <time>2021-08-18T07:58:11Z</time>
      </trkpt>
      <trkpt lat="36.455388" lon="-5.756873">
        <time>2021-08-18T07:58:20Z</time>
      </trkpt>
      <trkpt lat="36.455784" lon="-5.760078">
        <time>2021-08-18T07:58:29Z</time>
      </trkpt>
      <trkpt lat="36.455784" lon="-5.760078">
        <time>2021-08-18T07:58:29Z</time>
      </trkpt>
      <trkpt lat="36.456243" lon="-5.765385">
        <time>2021-08-18T07:58:44Z</time>
      </trkpt>
      <trkpt lat="36.456512" lon="-5.766368">
        <time>2021-08-18T07:58:47Z</time>
      </trkpt>
      <trkpt lat="36.457722" lon="-5.769197">
        <time>2021-08-18T07:58:56Z</time>
      </trkpt>
      <trkpt lat="36.459382" lon="-5.771827">
        <time>2021-08-18T07:59:05Z</time>
      </trkpt>
      <trkpt lat="36.460646" lon="-5.774637">
        <time>2021-08-18T07:59:14Z</time>
      </trkpt>
      <trkpt lat="36.461712" lon="-5.777464">
        <time>2021-08-18T07:59:23Z</time>
      </trkpt>
      <trkpt lat="36.464229" lon="-5.783074">
        <time>2021-08-18T07:59:41Z</time>
      </trkpt>
      <trkpt lat="36.46707" lon="-5.788325">
        <time>2021-08-18T07:59:59Z</time>
      </trkpt>
      <trkpt lat="36.470618" lon="-5.793783">
        <time>2021-08-18T08:00:25Z</time>
      </trkpt>
      <trkpt lat="36.470618" lon="-5.793783">
        <time>2021-08-18T08:00:25Z</time>
      </trkpt>
      <trkpt lat="36.471978" lon="-5.796571">
        <time>2021-08-18T08:00:37Z</time>
      </trkpt>
      <trkpt lat="36.47255" lon="-5.799202">
        <time>2021-08-18T08:00:46Z</time>
      </trkpt>
      <trkpt lat="36.47255" lon="-5.799202">
        <time>2021-08-18T08:00:46Z</time>
      </trkpt>
      <trkpt lat="36.472564" lon="-5.802077">
        <time>2021-08-18T08:00:55Z</time>
      </trkpt>
      <trkpt lat="36.471883" lon="-5.804992">
        <time>2021-08-18T08:01:04Z</time>
      </trkpt>
      <trkpt lat="36.471883" lon="-5.804992">
        <time>2021-08-18T08:01:04Z</time>
      </trkpt>
      <trkpt lat="36.469955" lon="-5.810694">
        <time>2021-08-18T08:01:22Z</time>
      </trkpt>
      <trkpt lat="36.469955" lon="-5.810694">
        <time>2021-08-18T08:01:22Z</time>
      </trkpt>
      <trkpt lat="36.468686" lon="-5.816627">
        <time>2021-08-18T08:01:40Z</time>
      </trkpt>
      <trkpt lat="36.467534" lon="-5.822209">
        <time>2021-08-18T08:01:58Z</time>
      </trkpt>
      <trkpt lat="36.467181" lon="-5.826538">
        <time>2021-08-18T08:02:13Z</time>
      </trkpt>
      <trkpt lat="36.467243" lon="-5.828371">
        <time>2021-08-18T08:02:19Z</time>
      </trkpt>
      <trkpt lat="36.467907" lon="-5.834427">
        <time>2021-08-18T08:02:37Z</time>
      </trkpt>
      <trkpt lat="36.468617" lon="-5.840576">
        <time>2021-08-18T08:02:55Z</time>
      </trkpt>
      <trkpt lat="36.469308" lon="-5.846678">
        <time>2021-08-18T08:03:13Z</time>
      </trkpt>
      <trkpt lat="36.469371" lon="-5.852831">
        <time>2021-08-18T08:03:31Z</time>
      </trkpt>
      <trkpt lat="36.46928" lon="-5.853885">
        <time>2021-08-18T08:03:34Z</time>
      </trkpt>
      <trkpt lat="36.469121" lon="-5.859181">
        <time>2021-08-18T08:03:49Z</time>
      </trkpt>
      <trkpt lat="36.469325" lon="-5.861235">
        <time>2021-08-18T08:03:55Z</time>
      </trkpt>
      <trkpt lat="36.470264" lon="-5.865304">
        <time>2021-08-18T08:04:07Z</time>
      </trkpt>
      <trkpt lat="36.470601" lon="-5.866281">
        <time>2021-08-18T08:04:10Z</time>
      </trkpt>
      <trkpt lat="36.472631" lon="-5.870504">
        <time>2021-08-18T08:04:25Z</time>
      </trkpt>
      <trkpt lat="36.475213" lon="-5.8753">
        <time>2021-08-18T08:04:43Z</time>
      </trkpt>
      <trkpt lat="36.477292" lon="-5.88055">
        <time>2021-08-18T08:05:01Z</time>
      </trkpt>
      <trkpt lat="36.477574" lon="-5.881453">
        <time>2021-08-18T08:05:04Z</time>
      </trkpt>
      <trkpt lat="36.478884" lon="-5.886404">
        <time>2021-08-18T08:05:22Z</time>
      </trkpt>
      <trkpt lat="36.480673" lon="-5.891876">
        <time>2021-08-18T08:05:40Z</time>
      </trkpt>
      <trkpt lat="36.482946" lon="-5.897467">
        <time>2021-08-18T08:05:58Z</time>
      </trkpt>
      <trkpt lat="36.484067" lon="-5.903602">
        <time>2021-08-18T08:06:16Z</time>
      </trkpt>
      <trkpt lat="36.485794" lon="-5.909391">
        <time>2021-08-18T08:06:34Z</time>
      </trkpt>
      <trkpt lat="36.487892" lon="-5.915334">
        <time>2021-08-18T08:06:52Z</time>
      </trkpt>
      <trkpt lat="36.489596" lon="-5.921546">
        <time>2021-08-18T08:07:10Z</time>
      </trkpt>
      <trkpt lat="36.491156" lon="-5.927493">
        <time>2021-08-18T08:07:28Z</time>
      </trkpt>
      <trkpt lat="36.491999" lon="-5.929341">
        <time>2021-08-18T08:07:34Z</time>
      </trkpt>
      <trkpt lat="36.49432" lon="-5.932512">
        <time>2021-08-18T08:07:46Z</time>
      </trkpt>
      <trkpt lat="36.495721" lon="-5.935085">
        <time>2021-08-18T08:07:55Z</time>
      </trkpt>
      <trkpt lat="36.495721" lon="-5.935085">
        <time>2021-08-18T08:07:55Z</time>
      </trkpt>
      <trkpt lat="36.496642" lon="-5.937955">
        <time>2021-08-18T08:08:04Z</time>
      </trkpt>
      <trkpt lat="36.497976" lon="-5.940663">
        <time>2021-08-18T08:08:13Z</time>
      </trkpt>
      <trkpt lat="36.499846" lon="-5.942842">
        <time>2021-08-18T08:08:22Z</time>
      </trkpt>
      <trkpt lat="36.503507" lon="-5.946994">
        <time>2021-08-18T08:08:40Z</time>
      </trkpt>
      <trkpt lat="36.505043" lon="-5.949414">
        <time>2021-08-18T08:08:49Z</time>
      </trkpt>
      <trkpt lat="36.506384" lon="-5.952142">
        <time>2021-08-18T08:08:58Z</time>
      </trkpt>
      <trkpt lat="36.507775" lon="-5.956041">
        <time>2021-08-18T08:09:10Z</time>
      </trkpt>
      <trkpt lat="36.508235" lon="-5.95807">
        <time>2021-08-18T08:09:16Z</time>
      </trkpt>
      <trkpt lat="36.50891" lon="-5.964346">
        <time>2021-08-18T08:09:34Z</time>
      </trkpt>
      <trkpt lat="36.509395" lon="-5.966387">
        <time>2021-08-18T08:09:40Z</time>
      </trkpt>
      <trkpt lat="36.511021" lon="-5.970242">
        <time>2021-08-18T08:09:52Z</time>
      </trkpt>
      <trkpt lat="36.513696" lon="-5.975979">
        <time>2021-08-18T08:10:10Z</time>
      </trkpt>
      <trkpt lat="36.514234" lon="-5.976851">
        <time>2021-08-18T08:10:13Z</time>
      </trkpt>
      <trkpt lat="36.516157" lon="-5.97898">
        <time>2021-08-18T08:10:22Z</time>
      </trkpt>
      <trkpt lat="36.517695" lon="-5.98001">
        <time>2021-08-18T08:10:28Z</time>
      </trkpt>
      <trkpt lat="36.522494" lon="-5.982626">
        <time>2021-08-18T08:10:46Z</time>
      </trkpt>
      <trkpt lat="36.527237" lon="-5.985062">
        <time>2021-08-18T08:11:04Z</time>
      </trkpt>
      <trkpt lat="36.527237" lon="-5.985062">
        <time>2021-08-18T08:11:04Z</time>
      </trkpt>
      <trkpt lat="36.52979" lon="-5.98544">
        <time>2021-08-18T08:11:13Z</time>
      </trkpt>
      <trkpt lat="36.532415" lon="-5.985169">
        <time>2021-08-18T08:11:22Z</time>
      </trkpt>
      <trkpt lat="36.537625" lon="-5.985372">
        <time>2021-08-18T08:11:40Z</time>
      </trkpt>
      <trkpt lat="36.538501" lon="-5.985559">
        <time>2021-08-18T08:11:43Z</time>
      </trkpt>
      <trkpt lat="36.542664" lon="-5.987046">
        <time>2021-08-18T08:11:58Z</time>
      </trkpt>
      <trkpt lat="36.544242" lon="-5.987916">
        <time>2021-08-18T08:12:04Z</time>
      </trkpt>
      <trkpt lat="36.547172" lon="-5.990117">
        <time>2021-08-18T08:12:16Z</time>
      </trkpt>
      <trkpt lat="36.549178" lon="-5.99217">
        <time>2021-08-18T08:12:25Z</time>
      </trkpt>
      <trkpt lat="36.550719" lon="-5.994735">
        <time>2021-08-18T08:12:34Z</time>
      </trkpt>
      <trkpt lat="36.550719" lon="-5.994735">
        <time>2021-08-18T08:12:34Z</time>
      </trkpt>
      <trkpt lat="36.552467" lon="-6.001059">
        <time>2021-08-18T08:12:52Z</time>
      </trkpt>
      <trkpt lat="36.554286" lon="-6.006197">
        <time>2021-08-18T08:13:07Z</time>
      </trkpt>
      <trkpt lat="36.555216" lon="-6.008139">
        <time>2021-08-18T08:13:13Z</time>
      </trkpt>
      <trkpt lat="36.556782" lon="-6.010883">
        <time>2021-08-18T08:13:22Z</time>
      </trkpt>
      <trkpt lat="36.559853" lon="-6.014935">
        <time>2021-08-18T08:13:37Z</time>
      </trkpt>
      <trkpt lat="36.560501" lon="-6.01565">
        <time>2021-08-18T08:13:40Z</time>
      </trkpt>
      <trkpt lat="36.56474" lon="-6.019299">
        <time>2021-08-18T08:13:58Z</time>
      </trkpt>
      <trkpt lat="36.565511" lon="-6.019811">
        <time>2021-08-18T08:14:01Z</time>
      </trkpt>
      <trkpt lat="36.568856" lon="-6.021616">
        <time>2021-08-18T08:14:13Z</time>
      </trkpt>
      <trkpt lat="36.572534" lon="-6.022907">
        <time>2021-08-18T08:14:25Z</time>
      </trkpt>
      <trkpt lat="36.573445" lon="-6.023161">
        <time>2021-08-18T08:14:28Z</time>
      </trkpt>
      <trkpt lat="36.577953" lon="-6.024383">
        <time>2021-08-18T08:14:43Z</time>
      </trkpt>
      <trkpt lat="36.583004" lon="-6.026556">
        <time>2021-08-18T08:15:01Z</time>
      </trkpt>
      <trkpt lat="36.583004" lon="-6.026556">
        <time>2021-08-18T08:15:01Z</time>
      </trkpt>
      <trkpt lat="36.586442" lon="-6.029824">
        <time>2021-08-18T08:15:16Z</time>
      </trkpt>
      <trkpt lat="36.587005" lon="-6.030605">
        <time>2021-08-18T08:15:19Z</time>
      </trkpt>
      <trkpt lat="36.589869" lon="-6.035829">
        <time>2021-08-18T08:15:37Z</time>
      </trkpt>
      <trkpt lat="36.591645" lon="-6.038256">
        <time>2021-08-18T08:15:46Z</time>
      </trkpt>
      <trkpt lat="36.593632" lon="-6.040413">
        <time>2021-08-18T08:15:55Z</time>
      </trkpt>
      <trkpt lat="36.597543" lon="-6.044549">
        <time>2021-08-18T08:16:13Z</time>
      </trkpt>
      <trkpt lat="36.601599" lon="-6.048861">
        <time>2021-08-18T08:16:31Z</time>
      </trkpt>
      <trkpt lat="36.605452" lon="-6.052938">
        <time>2021-08-18T08:16:49Z</time>
      </trkpt>
      <trkpt lat="36.609258" lon="-6.056827">
        <time>2021-08-18T08:17:07Z</time>
      </trkpt>
      <trkpt lat="36.610679" lon="-6.057883">
        <time>2021-08-18T08:17:13Z</time>
      </trkpt>
      <trkpt lat="36.61356" lon="-6.059563">
        <time>2021-08-18T08:17:25Z</time>
      </trkpt>
      <trkpt lat="36.614834" lon="-6.060772">
        <time>2021-08-18T08:17:31Z</time>
      </trkpt>
      <trkpt lat="36.616369" lon="-6.063085">
        <time>2021-08-18T08:17:40Z</time>
      </trkpt>
      <trkpt lat="36.616789" lon="-6.063949">
        <time>2021-08-18T08:17:43Z</time>
      </trkpt>
      <trkpt lat="36.618869" lon="-6.067266">
        <time>2021-08-18T08:17:55Z</time>
      </trkpt>
      <trkpt lat="36.620189" lon="-6.068497">
        <time>2021-08-18T08:18:01Z</time>
      </trkpt>
      <trkpt lat="36.621679" lon="-6.069461">
        <time>2021-08-18T08:18:07Z</time>
      </trkpt>
      <trkpt lat="36.624144" lon="-6.070287">
        <time>2021-08-18T08:18:16Z</time>
      </trkpt>
      <trkpt lat="36.62498" lon="-6.070377">
        <time>2021-08-18T08:18:19Z</time>
      </trkpt>
      <trkpt lat="36.62997" lon="-6.070815">
        <time>2021-08-18T08:18:37Z</time>
      </trkpt>
      <trkpt lat="36.630787" lon="-6.071179">
        <time>2021-08-18T08:18:40Z</time>
      </trkpt>
      <trkpt lat="36.633014" lon="-6.07285">
        <time>2021-08-18T08:18:49Z</time>
      </trkpt>
      <trkpt lat="36.634283" lon="-6.074241">
        <time>2021-08-18T08:18:55Z</time>
      </trkpt>
      <trkpt lat="36.636337" lon="-6.075893">
        <time>2021-08-18T08:19:04Z</time>
      </trkpt>
      <trkpt lat="36.638481" lon="-6.077191">
        <time>2021-08-18T08:19:13Z</time>
      </trkpt>
      <trkpt lat="36.642871" lon="-6.079853">
        <time>2021-08-18T08:19:31Z</time>
      </trkpt>
      <trkpt lat="36.646001" lon="-6.081124">
        <time>2021-08-18T08:19:43Z</time>
      </trkpt>
      <trkpt lat="36.64763" lon="-6.081399">
        <time>2021-08-18T08:19:49Z</time>
      </trkpt>
      <trkpt lat="36.651317" lon="-6.082284">
        <time>2021-08-18T08:20:04Z</time>
      </trkpt>
      <trkpt lat="36.652267" lon="-6.082907">
        <time>2021-08-18T08:20:10Z</time>
      </trkpt>
      <trkpt lat="36.653022" lon="-6.083586">
        <time>2021-08-18T08:20:16Z</time>
      </trkpt>
      <trkpt lat="36.653843" lon="-6.08421">
        <time>2021-08-18T08:20:22Z</time>
      </trkpt>
      <trkpt lat="36.656941" lon="-6.084584">
        <time>2021-08-18T08:20:37Z</time>
      </trkpt>
      <trkpt lat="36.661438" lon="-6.085752">
        <time>2021-08-18T08:20:55Z</time>
      </trkpt>
      <trkpt lat="36.662207" lon="-6.08607">
        <time>2021-08-18T08:20:58Z</time>
      </trkpt>
      <trkpt lat="36.666181" lon="-6.087613">
        <time>2021-08-18T08:21:13Z</time>
      </trkpt>
      <trkpt lat="36.669538" lon="-6.088242">
        <time>2021-08-18T08:21:25Z</time>
      </trkpt>
      <trkpt lat="36.67125" lon="-6.088296">
        <time>2021-08-18T08:21:31Z</time>
      </trkpt>
      <trkpt lat="36.675417" lon="-6.087742">
        <time>2021-08-18T08:21:46Z</time>
      </trkpt>
      <trkpt lat="36.676236" lon="-6.087519">
        <time>2021-08-18T08:21:49Z</time>
      </trkpt>
      <trkpt lat="36.681009" lon="-6.085365">
        <time>2021-08-18T08:22:07Z</time>
      </trkpt>
      <trkpt lat="36.681009" lon="-6.085365">
        <time>2021-08-18T08:22:07Z</time>
      </trkpt>
      <trkpt lat="36.685508" lon="-6.082203">
        <time>2021-08-18T08:22:25Z</time>
      </trkpt>
      <trkpt lat="36.690067" lon="-6.079481">
        <time>2021-08-18T08:22:43Z</time>
      </trkpt>
      <trkpt lat="36.694794" lon="-6.077425">
        <time>2021-08-18T08:23:01Z</time>
      </trkpt>
      <trkpt lat="36.694794" lon="-6.077425">
        <time>2021-08-18T08:23:01Z</time>
      </trkpt>
      <trkpt lat="36.699865" lon="-6.075967">
        <time>2021-08-18T08:23:19Z</time>
      </trkpt>
      <trkpt lat="36.704821" lon="-6.074664">
        <time>2021-08-18T08:23:37Z</time>
      </trkpt>
      <trkpt lat="36.709651" lon="-6.072981">
        <time>2021-08-18T08:23:55Z</time>
      </trkpt>
      <trkpt lat="36.714294" lon="-6.070916">
        <time>2021-08-18T08:24:13Z</time>
      </trkpt>
      <trkpt lat="36.718133" lon="-6.06887">
        <time>2021-08-18T08:24:28Z</time>
      </trkpt>
      <trkpt lat="36.718904" lon="-6.068416">
        <time>2021-08-18T08:24:31Z</time>
      </trkpt>
      <trkpt lat="36.723462" lon="-6.065445">
        <time>2021-08-18T08:24:49Z</time>
      </trkpt>
      <trkpt lat="36.727749" lon="-6.062142">
        <time>2021-08-18T08:25:07Z</time>
      </trkpt>
      <trkpt lat="36.730467" lon="-6.059753">
        <time>2021-08-18T08:25:19Z</time>
      </trkpt>
      <trkpt lat="36.731795" lon="-6.058522">
        <time>2021-08-18T08:25:25Z</time>
      </trkpt>
      <trkpt lat="36.735759" lon="-6.054754">
        <time>2021-08-18T08:25:43Z</time>
      </trkpt>
      <trkpt lat="36.739833" lon="-6.051399">
        <time>2021-08-18T08:26:01Z</time>
      </trkpt>
      <trkpt lat="36.744308" lon="-6.048425">
        <time>2021-08-18T08:26:19Z</time>
      </trkpt>
      <trkpt lat="36.744308" lon="-6.048425">
        <time>2021-08-18T08:26:19Z</time>
      </trkpt>
      <trkpt lat="36.748805" lon="-6.046047">
        <time>2021-08-18T08:26:37Z</time>
      </trkpt>
      <trkpt lat="36.753564" lon="-6.044156">
        <time>2021-08-18T08:26:55Z</time>
      </trkpt>
      <trkpt lat="36.758556" lon="-6.042782">
        <time>2021-08-18T08:27:13Z</time>
      </trkpt>
      <trkpt lat="36.758556" lon="-6.042782">
        <time>2021-08-18T08:27:13Z</time>
      </trkpt>
      <trkpt lat="36.763666" lon="-6.041985">
        <time>2021-08-18T08:27:31Z</time>
      </trkpt>
      <trkpt lat="36.768787" lon="-6.041823">
        <time>2021-08-18T08:27:49Z</time>
      </trkpt>
      <trkpt lat="36.771343" lon="-6.041983">
        <time>2021-08-18T08:27:58Z</time>
      </trkpt>
      <trkpt lat="36.773887" lon="-6.042286">
        <time>2021-08-18T08:28:07Z</time>
      </trkpt>
      <trkpt lat="36.77892" lon="-6.043184">
        <time>2021-08-18T08:28:25Z</time>
      </trkpt>
      <trkpt lat="36.784205" lon="-6.043671">
        <time>2021-08-18T08:28:43Z</time>
      </trkpt>
      <trkpt lat="36.78908" lon="-6.043481">
        <time>2021-08-18T08:29:01Z</time>
      </trkpt>
      <trkpt lat="36.78908" lon="-6.043481">
        <time>2021-08-18T08:29:01Z</time>
      </trkpt>
      <trkpt lat="36.794223" lon="-6.042785">
        <time>2021-08-18T08:29:19Z</time>
      </trkpt>
      <trkpt lat="36.799342" lon="-6.042396">
        <time>2021-08-18T08:29:37Z</time>
      </trkpt>
      <trkpt lat="36.804386" lon="-6.041288">
        <time>2021-08-18T08:29:55Z</time>
      </trkpt>
      <trkpt lat="36.809293" lon="-6.039477">
        <time>2021-08-18T08:30:13Z</time>
      </trkpt>
      <trkpt lat="36.809293" lon="-6.039477">
        <time>2021-08-18T08:30:13Z</time>
      </trkpt>
      <trkpt lat="36.814134" lon="-6.037349">
        <time>2021-08-18T08:30:31Z</time>
      </trkpt>
      <trkpt lat="36.819208" lon="-6.035618">
        <time>2021-08-18T08:30:49Z</time>
      </trkpt>
      <trkpt lat="36.821565" lon="-6.034157">
        <time>2021-08-18T08:30:58Z</time>
      </trkpt>
      <trkpt lat="36.823607" lon="-6.032205">
        <time>2021-08-18T08:31:07Z</time>
      </trkpt>
      <trkpt lat="36.824809" lon="-6.030604">
        <time>2021-08-18T08:31:13Z</time>
      </trkpt>
      <trkpt lat="36.826709" lon="-6.026929">
        <time>2021-08-18T08:31:25Z</time>
      </trkpt>
      <trkpt lat="36.829507" lon="-6.021481">
        <time>2021-08-18T08:31:43Z</time>
      </trkpt>
      <trkpt lat="36.832741" lon="-6.016401">
        <time>2021-08-18T08:32:01Z</time>
      </trkpt>
      <trkpt lat="36.833927" lon="-6.014834">
        <time>2021-08-18T08:32:07Z</time>
      </trkpt>
      <trkpt lat="36.836587" lon="-6.012174">
        <time>2021-08-18T08:32:19Z</time>
      </trkpt>
      <trkpt lat="36.83731" lon="-6.0116">
        <time>2021-08-18T08:32:22Z</time>
      </trkpt>
      <trkpt lat="36.841089" lon="-6.009301">
        <time>2021-08-18T08:32:37Z</time>
      </trkpt>
      <trkpt lat="36.845486" lon="-6.006028">
        <time>2021-08-18T08:32:55Z</time>
      </trkpt>
      <trkpt lat="36.846844" lon="-6.004696">
        <time>2021-08-18T08:33:01Z</time>
      </trkpt>
      <trkpt lat="36.84946" lon="-6.001827">
        <time>2021-08-18T08:33:13Z</time>
      </trkpt>
      <trkpt lat="36.853805" lon="-5.998177">
        <time>2021-08-18T08:33:31Z</time>
      </trkpt>
      <trkpt lat="36.854603" lon="-5.997644">
        <time>2021-08-18T08:33:34Z</time>
      </trkpt>
      <trkpt lat="36.8581" lon="-5.995814">
        <time>2021-08-18T08:33:46Z</time>
      </trkpt>
      <trkpt lat="36.861646" lon="-5.994647">
        <time>2021-08-18T08:33:58Z</time>
      </trkpt>
      <trkpt lat="36.862553" lon="-5.994445">
        <time>2021-08-18T08:34:01Z</time>
      </trkpt>
      <trkpt lat="36.867092" lon="-5.994011">
        <time>2021-08-18T08:34:16Z</time>
      </trkpt>
      <trkpt lat="36.872413" lon="-5.993581">
        <time>2021-08-18T08:34:34Z</time>
      </trkpt>
      <trkpt lat="36.874972" lon="-5.992822">
        <time>2021-08-18T08:34:43Z</time>
      </trkpt>
      <trkpt lat="36.87743" lon="-5.991687">
        <time>2021-08-18T08:34:52Z</time>
      </trkpt>
      <trkpt lat="36.880466" lon="-5.989665">
        <time>2021-08-18T08:35:04Z</time>
      </trkpt>
      <trkpt lat="36.881917" lon="-5.988418">
        <time>2021-08-18T08:35:10Z</time>
      </trkpt>
      <trkpt lat="36.885261" lon="-5.98458">
        <time>2021-08-18T08:35:25Z</time>
      </trkpt>
      <trkpt lat="36.885261" lon="-5.98458">
        <time>2021-08-18T08:35:25Z</time>
      </trkpt>
      <trkpt lat="36.888749" lon="-5.979568">
        <time>2021-08-18T08:35:43Z</time>
      </trkpt>
      <trkpt lat="36.892111" lon="-5.976024">
        <time>2021-08-18T08:35:58Z</time>
      </trkpt>
      <trkpt lat="36.892858" lon="-5.975373">
        <time>2021-08-18T08:36:01Z</time>
      </trkpt>
      <trkpt lat="36.896789" lon="-5.972658">
        <time>2021-08-18T08:36:16Z</time>
      </trkpt>
      <trkpt lat="36.898407" lon="-5.971818">
        <time>2021-08-18T08:36:22Z</time>
      </trkpt>
      <trkpt lat="36.901628" lon="-5.970601">
        <time>2021-08-18T08:36:34Z</time>
      </trkpt>
      <trkpt lat="36.905852" lon="-5.969757">
        <time>2021-08-18T08:36:49Z</time>
      </trkpt>
      <trkpt lat="36.906674" lon="-5.9697">
        <time>2021-08-18T08:36:52Z</time>
      </trkpt>
      <trkpt lat="36.911356" lon="-5.969846">
        <time>2021-08-18T08:37:10Z</time>
      </trkpt>
      <trkpt lat="36.916361" lon="-5.970012">
        <time>2021-08-18T08:37:28Z</time>
      </trkpt>
      <trkpt lat="36.921335" lon="-5.969618">
        <time>2021-08-18T08:37:46Z</time>
      </trkpt>
      <trkpt lat="36.926394" lon="-5.969157">
        <time>2021-08-18T08:38:04Z</time>
      </trkpt>
      <trkpt lat="36.931462" lon="-5.96931">
        <time>2021-08-18T08:38:22Z</time>
      </trkpt>
      <trkpt lat="36.936592" lon="-5.969217">
        <time>2021-08-18T08:38:40Z</time>
      </trkpt>
      <trkpt lat="36.941707" lon="-5.968044">
        <time>2021-08-18T08:38:58Z</time>
      </trkpt>
      <trkpt lat="36.942529" lon="-5.967755">
        <time>2021-08-18T08:39:01Z</time>
      </trkpt>
      <trkpt lat="36.94636" lon="-5.965975">
        <time>2021-08-18T08:39:16Z</time>
      </trkpt>
      <trkpt lat="36.949968" lon="-5.963611">
        <time>2021-08-18T08:39:31Z</time>
      </trkpt>
      <trkpt lat="36.950686" lon="-5.96304">
        <time>2021-08-18T08:39:34Z</time>
      </trkpt>
      <trkpt lat="36.955034" lon="-5.959932">
        <time>2021-08-18T08:39:52Z</time>
      </trkpt>
      <trkpt lat="36.956634" lon="-5.959124">
        <time>2021-08-18T08:39:58Z</time>
      </trkpt>
      <trkpt lat="36.959975" lon="-5.957996">
        <time>2021-08-18T08:40:10Z</time>
      </trkpt>
      <trkpt lat="36.963183" lon="-5.957475">
        <time>2021-08-18T08:40:22Z</time>
      </trkpt>
      <trkpt lat="36.964756" lon="-5.957416">
        <time>2021-08-18T08:40:28Z</time>
      </trkpt>
      <trkpt lat="36.969949" lon="-5.956871">
        <time>2021-08-18T08:40:46Z</time>
      </trkpt>
      <trkpt lat="36.971702" lon="-5.956332">
        <time>2021-08-18T08:40:52Z</time>
      </trkpt>
      <trkpt lat="36.975008" lon="-5.95481">
        <time>2021-08-18T08:41:04Z</time>
      </trkpt>
      <trkpt lat="36.977185" lon="-5.953379">
        <time>2021-08-18T08:41:13Z</time>
      </trkpt>
      <trkpt lat="36.979189" lon="-5.951674">
        <time>2021-08-18T08:41:22Z</time>
      </trkpt>
      <trkpt lat="36.983098" lon="-5.947589">
        <time>2021-08-18T08:41:40Z</time>
      </trkpt>
      <trkpt lat="36.987334" lon="-5.944324">
        <time>2021-08-18T08:41:58Z</time>
      </trkpt>
      <trkpt lat="36.987334" lon="-5.944324">
        <time>2021-08-18T08:41:58Z</time>
      </trkpt>
      <trkpt lat="36.992393" lon="-5.942179">
        <time>2021-08-18T08:42:16Z</time>
      </trkpt>
      <trkpt lat="36.99323" lon="-5.941975">
        <time>2021-08-18T08:42:19Z</time>
      </trkpt>
      <trkpt lat="36.997354" lon="-5.941288">
        <time>2021-08-18T08:42:34Z</time>
      </trkpt>
      <trkpt lat="37.002432" lon="-5.939345">
        <time>2021-08-18T08:42:52Z</time>
      </trkpt>
      <trkpt lat="37.002432" lon="-5.939345">
        <time>2021-08-18T08:42:52Z</time>
      </trkpt>
      <trkpt lat="37.007162" lon="-5.936319">
        <time>2021-08-18T08:43:10Z</time>
      </trkpt>
      <trkpt lat="37.011961" lon="-5.933326">
        <time>2021-08-18T08:43:28Z</time>
      </trkpt>
      <trkpt lat="37.016806" lon="-5.930924">
        <time>2021-08-18T08:43:46Z</time>
      </trkpt>
      <trkpt lat="37.019959" lon="-5.929723">
        <time>2021-08-18T08:43:58Z</time>
      </trkpt>
      <trkpt lat="37.021538" lon="-5.929212">
        <time>2021-08-18T08:44:04Z</time>
      </trkpt>
      <trkpt lat="37.026657" lon="-5.927915">
        <time>2021-08-18T08:44:22Z</time>
      </trkpt>
      <trkpt lat="37.031673" lon="-5.927159">
        <time>2021-08-18T08:44:40Z</time>
      </trkpt>
      <trkpt lat="37.036422" lon="-5.927014">
        <time>2021-08-18T08:44:58Z</time>
      </trkpt>
      <trkpt lat="37.036422" lon="-5.927014">
        <time>2021-08-18T08:44:58Z</time>
      </trkpt>
      <trkpt lat="37.041396" lon="-5.927333">
        <time>2021-08-18T08:45:16Z</time>
      </trkpt>
      <trkpt lat="37.04637" lon="-5.928162">
        <time>2021-08-18T08:45:34Z</time>
      </trkpt>
      <trkpt lat="37.051266" lon="-5.929568">
        <time>2021-08-18T08:45:52Z</time>
      </trkpt>
      <trkpt lat="37.052052" lon="-5.929844">
        <time>2021-08-18T08:45:55Z</time>
      </trkpt>
      <trkpt lat="37.055957" lon="-5.931433">
        <time>2021-08-18T08:46:10Z</time>
      </trkpt>
      <trkpt lat="37.06064" lon="-5.933272">
        <time>2021-08-18T08:46:28Z</time>
      </trkpt>
      <trkpt lat="37.065375" lon="-5.934699">
        <time>2021-08-18T08:46:46Z</time>
      </trkpt>
      <trkpt lat="37.070271" lon="-5.935769">
        <time>2021-08-18T08:47:04Z</time>
      </trkpt>
      <trkpt lat="37.075245" lon="-5.936411">
        <time>2021-08-18T08:47:22Z</time>
      </trkpt>
      <trkpt lat="37.075245" lon="-5.936411">
        <time>2021-08-18T08:47:22Z</time>
      </trkpt>
      <trkpt lat="37.080314" lon="-5.936653">
        <time>2021-08-18T08:47:40Z</time>
      </trkpt>
      <trkpt lat="37.085608" lon="-5.936377">
        <time>2021-08-18T08:47:58Z</time>
      </trkpt>
      <trkpt lat="37.090077" lon="-5.935776">
        <time>2021-08-18T08:48:13Z</time>
      </trkpt>
      <trkpt lat="37.095124" lon="-5.935045">
        <time>2021-08-18T08:48:31Z</time>
      </trkpt>
      <trkpt lat="37.100475" lon="-5.934302">
        <time>2021-08-18T08:48:49Z</time>
      </trkpt>
      <trkpt lat="37.105778" lon="-5.933445">
        <time>2021-08-18T08:49:07Z</time>
      </trkpt>
      <trkpt lat="37.110087" lon="-5.932516">
        <time>2021-08-18T08:49:22Z</time>
      </trkpt>
      <trkpt lat="37.110924" lon="-5.932303">
        <time>2021-08-18T08:49:25Z</time>
      </trkpt>
      <trkpt lat="37.115769" lon="-5.930862">
        <time>2021-08-18T08:49:43Z</time>
      </trkpt>
      <trkpt lat="37.120744" lon="-5.929005">
        <time>2021-08-18T08:50:01Z</time>
      </trkpt>
      <trkpt lat="37.125806" lon="-5.926682">
        <time>2021-08-18T08:50:19Z</time>
      </trkpt>
      <trkpt lat="37.129977" lon="-5.924446">
        <time>2021-08-18T08:50:34Z</time>
      </trkpt>
      <trkpt lat="37.132361" lon="-5.923034">
        <time>2021-08-18T08:50:43Z</time>
      </trkpt>
      <trkpt lat="37.134677" lon="-5.92159">
        <time>2021-08-18T08:50:52Z</time>
      </trkpt>
      <trkpt lat="37.139346" lon="-5.91873">
        <time>2021-08-18T08:51:10Z</time>
      </trkpt>
      <trkpt lat="37.144159" lon="-5.916322">
        <time>2021-08-18T08:51:28Z</time>
      </trkpt>
      <trkpt lat="37.149016" lon="-5.914495">
        <time>2021-08-18T08:51:46Z</time>
      </trkpt>
      <trkpt lat="37.153271" lon="-5.91266">
        <time>2021-08-18T08:52:01Z</time>
      </trkpt>
      <trkpt lat="37.157943" lon="-5.91033">
        <time>2021-08-18T08:52:19Z</time>
      </trkpt>
      <trkpt lat="37.162076" lon="-5.908988">
        <time>2021-08-18T08:52:34Z</time>
      </trkpt>
      <trkpt lat="37.162922" lon="-5.908815">
        <time>2021-08-18T08:52:37Z</time>
      </trkpt>
      <trkpt lat="37.168171" lon="-5.908474">
        <time>2021-08-18T08:52:55Z</time>
      </trkpt>
      <trkpt lat="37.169051" lon="-5.908531">
        <time>2021-08-18T08:52:58Z</time>
      </trkpt>
      <trkpt lat="37.173429" lon="-5.909228">
        <time>2021-08-18T08:53:13Z</time>
      </trkpt>
      <trkpt lat="37.178713" lon="-5.910177">
        <time>2021-08-18T08:53:31Z</time>
      </trkpt>
      <trkpt lat="37.184008" lon="-5.910694">
        <time>2021-08-18T08:53:49Z</time>
      </trkpt>
      <trkpt lat="37.189236" lon="-5.91079">
        <time>2021-08-18T08:54:07Z</time>
      </trkpt>
      <trkpt lat="37.194071" lon="-5.910587">
        <time>2021-08-18T08:54:25Z</time>
      </trkpt>
      <trkpt lat="37.196806" lon="-5.910302">
        <time>2021-08-18T08:54:34Z</time>
      </trkpt>
      <trkpt lat="37.198589" lon="-5.910069">
        <time>2021-08-18T08:54:40Z</time>
      </trkpt>
      <trkpt lat="37.203722" lon="-5.90928">
        <time>2021-08-18T08:54:58Z</time>
      </trkpt>
      <trkpt lat="37.209019" lon="-5.908844">
        <time>2021-08-18T08:55:16Z</time>
      </trkpt>
      <trkpt lat="37.214318" lon="-5.908886">
        <time>2021-08-18T08:55:34Z</time>
      </trkpt>
      <trkpt lat="37.21943" lon="-5.909387">
        <time>2021-08-18T08:55:52Z</time>
      </trkpt>
      <trkpt lat="37.220204" lon="-5.909499">
        <time>2021-08-18T08:55:55Z</time>
      </trkpt>
      <trkpt lat="37.224311" lon="-5.910169">
        <time>2021-08-18T08:56:10Z</time>
      </trkpt>
      <trkpt lat="37.229684" lon="-5.910742">
        <time>2021-08-18T08:56:28Z</time>
      </trkpt>
      <trkpt lat="37.234427" lon="-5.910942">
        <time>2021-08-18T08:56:43Z</time>
      </trkpt>
      <trkpt lat="37.239624" lon="-5.910663">
        <time>2021-08-18T08:57:01Z</time>
      </trkpt>
      <trkpt lat="37.239624" lon="-5.910663">
        <time>2021-08-18T08:57:01Z</time>
      </trkpt>
      <trkpt lat="37.244535" lon="-5.91038">
        <time>2021-08-18T08:57:19Z</time>
      </trkpt>
      <trkpt lat="37.244535" lon="-5.91038">
        <time>2021-08-18T08:57:19Z</time>
      </trkpt>
      <trkpt lat="37.246906" lon="-5.911425">
        <time>2021-08-18T08:57:28Z</time>
      </trkpt>
      <trkpt lat="37.248934" lon="-5.913395">
        <time>2021-08-18T08:57:37Z</time>
      </trkpt>
      <trkpt lat="37.248934" lon="-5.913395">
        <time>2021-08-18T08:57:37Z</time>
      </trkpt>
      <trkpt lat="37.250328" lon="-5.915981">
        <time>2021-08-18T08:57:46Z</time>
      </trkpt>
      <trkpt lat="37.251103" lon="-5.919042">
        <time>2021-08-18T08:57:55Z</time>
      </trkpt>
      <trkpt lat="37.252311" lon="-5.925393">
        <time>2021-08-18T08:58:13Z</time>
      </trkpt>
      <trkpt lat="37.253414" lon="-5.931349">
        <time>2021-08-18T08:58:31Z</time>
      </trkpt>
      <trkpt lat="37.254472" lon="-5.937482">
        <time>2021-08-18T08:58:49Z</time>
      </trkpt>
      <trkpt lat="37.254472" lon="-5.937482">
        <time>2021-08-18T08:58:49Z</time>
      </trkpt>
      <trkpt lat="37.254942" lon="-5.943456">
        <time>2021-08-18T08:59:07Z</time>
      </trkpt>
      <trkpt lat="37.255136" lon="-5.949399">
        <time>2021-08-18T08:59:25Z</time>
      </trkpt>
      <trkpt lat="37.255618" lon="-5.952542">
        <time>2021-08-18T08:59:34Z</time>
      </trkpt>
      <trkpt lat="37.256481" lon="-5.955358">
        <time>2021-08-18T08:59:43Z</time>
      </trkpt>
      <trkpt lat="37.257324" lon="-5.957091">
        <time>2021-08-18T08:59:49Z</time>
      </trkpt>
      <trkpt lat="37.259631" lon="-5.960007">
        <time>2021-08-18T09:00:01Z</time>
      </trkpt>
      <trkpt lat="37.259631" lon="-5.960007">
        <time>2021-08-18T09:00:01Z</time>
      </trkpt>
      <trkpt lat="37.263564" lon="-5.963593">
        <time>2021-08-18T09:00:19Z</time>
      </trkpt>
      <trkpt lat="37.267171" lon="-5.967923">
        <time>2021-08-18T09:00:37Z</time>
      </trkpt>
      <trkpt lat="37.267171" lon="-5.967923">
        <time>2021-08-18T09:00:37Z</time>
      </trkpt>
      <trkpt lat="37.270041" lon="-5.972599">
        <time>2021-08-18T09:00:55Z</time>
      </trkpt>
      <trkpt lat="37.27232" lon="-5.975615">
        <time>2021-08-18T09:01:07Z</time>
      </trkpt>
      <trkpt lat="37.273648" lon="-5.976773">
        <time>2021-08-18T09:01:13Z</time>
      </trkpt>
      <trkpt lat="37.275067" lon="-5.977673">
        <time>2021-08-18T09:01:19Z</time>
      </trkpt>
      <trkpt lat="37.278158" lon="-5.978726">
        <time>2021-08-18T09:01:31Z</time>
      </trkpt>
      <trkpt lat="37.278962" lon="-5.97885">
        <time>2021-08-18T09:01:34Z</time>
      </trkpt>
      <trkpt lat="37.282911" lon="-5.979055">
        <time>2021-08-18T09:01:49Z</time>
      </trkpt>
      <trkpt lat="37.287737" lon="-5.978712">
        <time>2021-08-18T09:02:07Z</time>
      </trkpt>
      <trkpt lat="37.292639" lon="-5.978558">
        <time>2021-08-18T09:02:25Z</time>
      </trkpt>
      <trkpt lat="37.297394" lon="-5.979254">
        <time>2021-08-18T09:02:43Z</time>
      </trkpt>
      <trkpt lat="37.300517" lon="-5.9802">
        <time>2021-08-18T09:02:55Z</time>
      </trkpt>
      <trkpt lat="37.302067" lon="-5.980778">
        <time>2021-08-18T09:03:01Z</time>
      </trkpt>
      <trkpt lat="37.30683" lon="-5.982407">
        <time>2021-08-18T09:03:19Z</time>
      </trkpt>
      <trkpt lat="37.311709" lon="-5.983022">
        <time>2021-08-18T09:03:37Z</time>
      </trkpt>
      <trkpt lat="37.311709" lon="-5.983022">
        <time>2021-08-18T09:03:37Z</time>
      </trkpt>
      <trkpt lat="37.316263" lon="-5.982928">
        <time>2021-08-18T09:03:55Z</time>
      </trkpt>
      <trkpt lat="37.316263" lon="-5.982928">
        <time>2021-08-18T09:03:55Z</time>
      </trkpt>
      <trkpt lat="37.320964" lon="-5.983716">
        <time>2021-08-18T09:04:13Z</time>
      </trkpt>
      <trkpt lat="37.32246" lon="-5.984176">
        <time>2021-08-18T09:04:19Z</time>
      </trkpt>
      <trkpt lat="37.325533" lon="-5.985074">
        <time>2021-08-18T09:04:31Z</time>
      </trkpt>
      <trkpt lat="37.330182" lon="-5.985674">
        <time>2021-08-18T09:04:49Z</time>
      </trkpt>
      <trkpt lat="37.330941" lon="-5.985674">
        <time>2021-08-18T09:04:52Z</time>
      </trkpt>
      <trkpt lat="37.334713" lon="-5.985204">
        <time>2021-08-18T09:05:07Z</time>
      </trkpt>
      <trkpt lat="37.336951" lon="-5.984559">
        <time>2021-08-18T09:05:16Z</time>
      </trkpt>
      <trkpt lat="37.339228" lon="-5.98331">
        <time>2021-08-18T09:05:28Z</time>
      </trkpt>
      <trkpt lat="37.340054" lon="-5.982719">
        <time>2021-08-18T09:05:34Z</time>
      </trkpt>
      <trkpt lat="37.341747" lon="-5.981028">
        <time>2021-08-18T09:05:49Z</time>
      </trkpt>
      <trkpt lat="37.342085" lon="-5.980347">
        <time>2021-08-18T09:05:55Z</time>
      </trkpt>
      <trkpt lat="37.342139" lon="-5.979992">
        <time>2021-08-18T09:05:58Z</time>
      </trkpt>
      <trkpt lat="37.342032" lon="-5.979688">
        <time>2021-08-18T09:06:01Z</time>
      </trkpt>
      <trkpt lat="37.341799" lon="-5.979523">
        <time>2021-08-18T09:06:04Z</time>
      </trkpt>
      <trkpt lat="37.341799" lon="-5.979523">
        <time>2021-08-18T09:06:04Z</time>
      </trkpt>
      <trkpt lat="37.341517" lon="-5.979582">
        <time>2021-08-18T09:06:07Z</time>
      </trkpt>
      <trkpt lat="37.341296" lon="-5.979844">
        <time>2021-08-18T09:06:10Z</time>
      </trkpt>
      <trkpt lat="37.341232" lon="-5.980215">
        <time>2021-08-18T09:06:13Z</time>
      </trkpt>
      <trkpt lat="37.34153" lon="-5.982103">
        <time>2021-08-18T09:06:25Z</time>
      </trkpt>
      <trkpt lat="37.342244" lon="-5.984651">
        <time>2021-08-18T09:06:40Z</time>
      </trkpt>
      <trkpt lat="37.342244" lon="-5.984651">
        <time>2021-08-18T09:06:40Z</time>
      </trkpt>
      <trkpt lat="37.343335" lon="-5.986328">
        <time>2021-08-18T09:06:58Z</time>
      </trkpt>
      <trkpt lat="37.345411" lon="-5.988831">
        <time>2021-08-18T09:07:22Z</time>
      </trkpt>
      <trkpt lat="37.348762" lon="-5.992844">
        <time>2021-08-18T09:07:58Z</time>
      </trkpt>
      <trkpt lat="37.352216" lon="-5.996911">
        <time>2021-08-18T09:08:34Z</time>
      </trkpt>
      <trkpt lat="37.355732" lon="-6.001055">
        <time>2021-08-18T09:09:04Z</time>
      </trkpt>
      <trkpt lat="37.359387" lon="-6.005369">
        <time>2021-08-18T09:09:31Z</time>
      </trkpt>
      <trkpt lat="37.363005" lon="-6.009644">
        <time>2021-08-18T09:09:55Z</time>
      </trkpt>
      <trkpt lat="37.366744" lon="-6.01375">
        <time>2021-08-18T09:10:16Z</time>
      </trkpt>
      <trkpt lat="37.366744" lon="-6.01375">
        <time>2021-08-18T09:10:16Z</time>
      </trkpt>
      <trkpt lat="37.368059" lon="-6.01424">
        <time>2021-08-18T09:10:22Z</time>
      </trkpt>
      <trkpt lat="37.368059" lon="-6.01424">
        <time>2021-08-18T09:10:22Z</time>
      </trkpt>
      <trkpt lat="37.369353" lon="-6.014165">
        <time>2021-08-18T09:10:28Z</time>
      </trkpt>
      <trkpt lat="37.371142" lon="-6.013888">
        <time>2021-08-18T09:10:37Z</time>
      </trkpt>
      <trkpt lat="37.371702" lon="-6.014044">
        <time>2021-08-18T09:10:40Z</time>
      </trkpt>
      <trkpt lat="37.3722" lon="-6.014335">
        <time>2021-08-18T09:10:43Z</time>
      </trkpt>
      <trkpt lat="37.372564" lon="-6.01477">
        <time>2021-08-18T09:10:46Z</time>
      </trkpt>
      <trkpt lat="37.372745" lon="-6.015289">
        <time>2021-08-18T09:10:49Z</time>
      </trkpt>
      <trkpt lat="37.372774" lon="-6.015799">
        <time>2021-08-18T09:10:52Z</time>
      </trkpt>
      <trkpt lat="37.372346" lon="-6.019231">
        <time>2021-08-18T09:11:10Z</time>
      </trkpt>
      <trkpt lat="37.372253" lon="-6.022923">
        <time>2021-08-18T09:11:25Z</time>
      </trkpt>
      <trkpt lat="37.372505" lon="-6.025274">
        <time>2021-08-18T09:11:34Z</time>
      </trkpt>
      <trkpt lat="37.372756" lon="-6.026401">
        <time>2021-08-18T09:11:40Z</time>
      </trkpt>
      <trkpt lat="37.372985" lon="-6.026783">
        <time>2021-08-18T09:11:43Z</time>
      </trkpt>
      <trkpt lat="37.373337" lon="-6.027105">
        <time>2021-08-18T09:11:46Z</time>
      </trkpt>
      <trkpt lat="37.37387" lon="-6.027289">
        <time>2021-08-18T09:11:49Z</time>
      </trkpt>
      <trkpt lat="37.374493" lon="-6.027197">
        <time>2021-08-18T09:11:52Z</time>
      </trkpt>
      <trkpt lat="37.376489" lon="-6.026657">
        <time>2021-08-18T09:12:01Z</time>
      </trkpt>
      <trkpt lat="37.380964" lon="-6.025957">
        <time>2021-08-18T09:12:25Z</time>
      </trkpt>
      <trkpt lat="37.384743" lon="-6.025554">
        <time>2021-08-18T09:12:43Z</time>
      </trkpt>
      <trkpt lat="37.385449" lon="-6.025576">
        <time>2021-08-18T09:12:46Z</time>
      </trkpt>
      <trkpt lat="37.386746" lon="-6.025355">
        <time>2021-08-18T09:12:52Z</time>
      </trkpt>
      <trkpt lat="37.389032" lon="-6.024583">
        <time>2021-08-18T09:13:04Z</time>
      </trkpt>
      <trkpt lat="37.390277" lon="-6.024812">
        <time>2021-08-18T09:13:10Z</time>
      </trkpt>
      <trkpt lat="37.390277" lon="-6.024812">
        <time>2021-08-18T09:13:10Z</time>
      </trkpt>
      <trkpt lat="37.392271" lon="-6.025499">
        <time>2021-08-18T09:13:19Z</time>
      </trkpt>
      <trkpt lat="37.395181" lon="-6.025412">
        <time>2021-08-18T09:13:31Z</time>
      </trkpt>
      <trkpt lat="37.397443" lon="-6.025797">
        <time>2021-08-18T09:13:40Z</time>
      </trkpt>
      <trkpt lat="37.399677" lon="-6.026653">
        <time>2021-08-18T09:13:49Z</time>
      </trkpt>
      <trkpt lat="37.402423" lon="-6.028291">
        <time>2021-08-18T09:14:01Z</time>
      </trkpt>
      <trkpt lat="37.403786" lon="-6.029273">
        <time>2021-08-18T09:14:07Z</time>
      </trkpt>
      <trkpt lat="37.40829" lon="-6.032349">
        <time>2021-08-18T09:14:28Z</time>
      </trkpt>
      <trkpt lat="37.40829" lon="-6.032349">
        <time>2021-08-18T09:14:28Z</time>
      </trkpt>
      <trkpt lat="37.409627" lon="-6.032489">
        <time>2021-08-18T09:14:34Z</time>
      </trkpt>
      <trkpt lat="37.412782" lon="-6.032059">
        <time>2021-08-18T09:14:49Z</time>
      </trkpt>
      <trkpt lat="37.417417" lon="-6.031137">
        <time>2021-08-18T09:15:10Z</time>
      </trkpt>
      <trkpt lat="37.417417" lon="-6.031137">
        <time>2021-08-18T09:15:10Z</time>
      </trkpt>
      <trkpt lat="37.421328" lon="-6.028721">
        <time>2021-08-18T09:15:28Z</time>
      </trkpt>
      <trkpt lat="37.422055" lon="-6.028597">
        <time>2021-08-18T09:15:31Z</time>
      </trkpt>
      <trkpt lat="37.422816" lon="-6.028596">
        <time>2021-08-18T09:15:34Z</time>
      </trkpt>
      <trkpt lat="37.424335" lon="-6.028996">
        <time>2021-08-18T09:15:40Z</time>
      </trkpt>
      <trkpt lat="37.426623" lon="-6.030189">
        <time>2021-08-18T09:15:49Z</time>
      </trkpt>
      <trkpt lat="37.429634" lon="-6.031462">
        <time>2021-08-18T09:16:01Z</time>
      </trkpt>
      <trkpt lat="37.431228" lon="-6.031722">
        <time>2021-08-18T09:16:07Z</time>
      </trkpt>
      <trkpt lat="37.435936" lon="-6.032422">
        <time>2021-08-18T09:16:25Z</time>
      </trkpt>
      <trkpt lat="37.440554" lon="-6.033262">
        <time>2021-08-18T09:16:43Z</time>
      </trkpt>
      <trkpt lat="37.442976" lon="-6.034143">
        <time>2021-08-18T09:16:52Z</time>
      </trkpt>
      <trkpt lat="37.445158" lon="-6.035522">
        <time>2021-08-18T09:17:01Z</time>
      </trkpt>
      <trkpt lat="37.446466" lon="-6.03667">
        <time>2021-08-18T09:17:07Z</time>
      </trkpt>
      <trkpt lat="37.448979" lon="-6.039251">
        <time>2021-08-18T09:17:19Z</time>
      </trkpt>
      <trkpt lat="37.452946" lon="-6.042671">
        <time>2021-08-18T09:17:37Z</time>
      </trkpt>
      <trkpt lat="37.453638" lon="-6.043073">
        <time>2021-08-18T09:17:40Z</time>
      </trkpt>
      <trkpt lat="37.457265" lon="-6.044391">
        <time>2021-08-18T09:17:55Z</time>
      </trkpt>
      <trkpt lat="37.458039" lon="-6.044504">
        <time>2021-08-18T09:17:58Z</time>
      </trkpt>
      <trkpt lat="37.461983" lon="-6.044469">
        <time>2021-08-18T09:18:13Z</time>
      </trkpt>
      <trkpt lat="37.46717" lon="-6.044644">
        <time>2021-08-18T09:18:34Z</time>
      </trkpt>
      <trkpt lat="37.46717" lon="-6.044644">
        <time>2021-08-18T09:18:34Z</time>
      </trkpt>
      <trkpt lat="37.46924" lon="-6.045861">
        <time>2021-08-18T09:18:43Z</time>
      </trkpt>
      <trkpt lat="37.47099" lon="-6.047847">
        <time>2021-08-18T09:18:52Z</time>
      </trkpt>
      <trkpt lat="37.471518" lon="-6.048588">
        <time>2021-08-18T09:18:55Z</time>
      </trkpt>
      <trkpt lat="37.47455" lon="-6.052805">
        <time>2021-08-18T09:19:10Z</time>
      </trkpt>
      <trkpt lat="37.477395" lon="-6.055869">
        <time>2021-08-18T09:19:22Z</time>
      </trkpt>
      <trkpt lat="37.478229" lon="-6.056395">
        <time>2021-08-18T09:19:25Z</time>
      </trkpt>
      <trkpt lat="37.483008" lon="-6.058834">
        <time>2021-08-18T09:19:43Z</time>
      </trkpt>
      <trkpt lat="37.483698" lon="-6.059411">
        <time>2021-08-18T09:19:46Z</time>
      </trkpt>
      <trkpt lat="37.487058" lon="-6.062637">
        <time>2021-08-18T09:20:01Z</time>
      </trkpt>
      <trkpt lat="37.490983" lon="-6.066417">
        <time>2021-08-18T09:20:19Z</time>
      </trkpt>
      <trkpt lat="37.494975" lon="-6.070194">
        <time>2021-08-18T09:20:37Z</time>
      </trkpt>
      <trkpt lat="37.497156" lon="-6.07154">
        <time>2021-08-18T09:20:46Z</time>
      </trkpt>
      <trkpt lat="37.499485" lon="-6.072028">
        <time>2021-08-18T09:20:55Z</time>
      </trkpt>
      <trkpt lat="37.499485" lon="-6.072028">
        <time>2021-08-18T09:20:55Z</time>
      </trkpt>
      <trkpt lat="37.50183" lon="-6.071661">
        <time>2021-08-18T09:21:04Z</time>
      </trkpt>
      <trkpt lat="37.504008" lon="-6.0709">
        <time>2021-08-18T09:21:13Z</time>
      </trkpt>
      <trkpt lat="37.507708" lon="-6.07015">
        <time>2021-08-18T09:21:28Z</time>
      </trkpt>
      <trkpt lat="37.509027" lon="-6.070291">
        <time>2021-08-18T09:21:34Z</time>
      </trkpt>
      <trkpt lat="37.511257" lon="-6.070578">
        <time>2021-08-18T09:21:49Z</time>
      </trkpt>
      <trkpt lat="37.511383" lon="-6.0707">
        <time>2021-08-18T09:21:52Z</time>
      </trkpt>
      <trkpt lat="37.511394" lon="-6.070787">
        <time>2021-08-18T09:21:55Z</time>
      </trkpt>
      <trkpt lat="37.511357" lon="-6.0709">
        <time>2021-08-18T09:22:13Z</time>
      </trkpt>
      <trkpt lat="37.511181" lon="-6.071129">
        <time>2021-08-18T09:22:16Z</time>
      </trkpt>
      <trkpt lat="37.509837" lon="-6.072659">
        <time>2021-08-18T09:22:31Z</time>
      </trkpt>
      <trkpt lat="37.508703" lon="-6.0736">
        <time>2021-08-18T09:22:40Z</time>
      </trkpt>
      <trkpt lat="37.507653" lon="-6.074361">
        <time>2021-08-18T09:22:52Z</time>
      </trkpt>
      <trkpt lat="37.507642" lon="-6.074502">
        <time>2021-08-18T09:22:55Z</time>
      </trkpt>
      <trkpt lat="37.507713" lon="-6.074703">
        <time>2021-08-18T09:23:01Z</time>
      </trkpt>
      <trkpt lat="37.507796" lon="-6.074756">
        <time>2021-08-18T09:23:04Z</time>
      </trkpt>
      <trkpt lat="37.507918" lon="-6.074882">
        <time>2021-08-18T09:23:10Z</time>
      </trkpt>
      <trkpt lat="37.507967" lon="-6.074899">
        <time>2021-08-18T09:23:13Z</time>
      </trkpt>
      <trkpt lat="37.507999" lon="-6.07487">
        <time>2021-08-18T09:25:13Z</time>
      </trkpt>
      <trkpt lat="37.507999" lon="-6.07487">
        <time>2021-08-18T09:25:48Z</time>
      </trkpt>
      <trkpt lat="37.507999" lon="-6.07487">
        <time>2021-08-18T09:25:54Z</time>
      </trkpt>
      <trkpt lat="37.507999" lon="-6.07487">
        <time>2021-08-18T09:25:54Z</time>
      </trkpt>
      <trkpt lat="37.508107" lon="-6.074835">
        <time>2021-08-18T09:54:02Z</time>
      </trkpt>
      <trkpt lat="37.5081" lon="-6.07483">
        <time>2021-08-18T09:54:43Z</time>
      </trkpt>
      <trkpt lat="37.5081" lon="-6.07483">
        <time>2021-08-18T09:56:39Z</time>
      </trkpt>
      <trkpt lat="37.5081" lon="-6.07483">
        <time>2021-08-18T09:59:59Z</time>
      </trkpt>
      <trkpt lat="37.507983" lon="-6.075077">
        <time>2021-08-18T10:01:05Z</time>
      </trkpt>
      <trkpt lat="37.508095" lon="-6.075248">
        <time>2021-08-18T10:01:08Z</time>
      </trkpt>
      <trkpt lat="37.512256" lon="-6.076804">
        <time>2021-08-18T10:01:38Z</time>
      </trkpt>
      <trkpt lat="37.51532" lon="-6.077795">
        <time>2021-08-18T10:01:59Z</time>
      </trkpt>
      <trkpt lat="37.516934" lon="-6.078318">
        <time>2021-08-18T10:02:05Z</time>
      </trkpt>
      <trkpt lat="37.521325" lon="-6.079672">
        <time>2021-08-18T10:02:29Z</time>
      </trkpt>
      <trkpt lat="37.523489" lon="-6.080629">
        <time>2021-08-18T10:02:41Z</time>
      </trkpt>
      <trkpt lat="37.524806" lon="-6.082131">
        <time>2021-08-18T10:02:50Z</time>
      </trkpt>
      <trkpt lat="37.525154" lon="-6.082759">
        <time>2021-08-18T10:02:53Z</time>
      </trkpt>
      <trkpt lat="37.526562" lon="-6.085345">
        <time>2021-08-18T10:03:05Z</time>
      </trkpt>
      <trkpt lat="37.527618" lon="-6.086261">
        <time>2021-08-18T10:03:11Z</time>
      </trkpt>
      <trkpt lat="37.528872" lon="-6.08672">
        <time>2021-08-18T10:03:17Z</time>
      </trkpt>
      <trkpt lat="37.528872" lon="-6.08672">
        <time>2021-08-18T10:03:17Z</time>
      </trkpt>
      <trkpt lat="37.528872" lon="-6.08672">
        <time>2021-08-18T10:03:17Z</time>
      </trkpt>
      <trkpt lat="37.528872" lon="-6.08672">
        <time>2021-08-18T10:03:17Z</time>
      </trkpt>
      <trkpt lat="37.533487" lon="-6.086736">
        <time>2021-08-18T10:03:38Z</time>
      </trkpt>
      <trkpt lat="37.534086" lon="-6.086978">
        <time>2021-08-18T10:03:41Z</time>
      </trkpt>
      <trkpt lat="37.534086" lon="-6.086978">
        <time>2021-08-18T10:03:41Z</time>
      </trkpt>
      <trkpt lat="37.535031" lon="-6.087927">
        <time>2021-08-18T10:03:47Z</time>
      </trkpt>
      <trkpt lat="37.535707" lon="-6.089188">
        <time>2021-08-18T10:03:53Z</time>
      </trkpt>
      <trkpt lat="37.536267" lon="-6.09146">
        <time>2021-08-18T10:04:02Z</time>
      </trkpt>
      <trkpt lat="37.537535" lon="-6.095261">
        <time>2021-08-18T10:04:17Z</time>
      </trkpt>
      <trkpt lat="37.538529" lon="-6.096405">
        <time>2021-08-18T10:04:23Z</time>
      </trkpt>
      <trkpt lat="37.538529" lon="-6.096405">
        <time>2021-08-18T10:04:23Z</time>
      </trkpt>
      <trkpt lat="37.542216" lon="-6.098691">
        <time>2021-08-18T10:04:41Z</time>
      </trkpt>
      <trkpt lat="37.542899" lon="-6.098952">
        <time>2021-08-18T10:04:44Z</time>
      </trkpt>
      <trkpt lat="37.542899" lon="-6.098952">
        <time>2021-08-18T10:04:44Z</time>
      </trkpt>
      <trkpt lat="37.542899" lon="-6.098952">
        <time>2021-08-18T10:04:44Z</time>
      </trkpt>
      <trkpt lat="37.542899" lon="-6.098952">
        <time>2021-08-18T10:04:44Z</time>
      </trkpt>
      <trkpt lat="37.547046" lon="-6.100061">
        <time>2021-08-18T10:05:02Z</time>
      </trkpt>
      <trkpt lat="37.547767" lon="-6.100011">
        <time>2021-08-18T10:05:05Z</time>
      </trkpt>
      <trkpt lat="37.550527" lon="-6.100342">
        <time>2021-08-18T10:05:17Z</time>
      </trkpt>
      <trkpt lat="37.552468" lon="-6.101501">
        <time>2021-08-18T10:05:26Z</time>
      </trkpt>
      <trkpt lat="37.555237" lon="-6.102565">
        <time>2021-08-18T10:05:38Z</time>
      </trkpt>
      <trkpt lat="37.557363" lon="-6.102903">
        <time>2021-08-18T10:05:47Z</time>
      </trkpt>
      <trkpt lat="37.558774" lon="-6.102823">
        <time>2021-08-18T10:05:53Z</time>
      </trkpt>
      <trkpt lat="37.562173" lon="-6.102112">
        <time>2021-08-18T10:06:08Z</time>
      </trkpt>
      <trkpt lat="37.565632" lon="-6.101806">
        <time>2021-08-18T10:06:23Z</time>
      </trkpt>
      <trkpt lat="37.566912" lon="-6.102144">
        <time>2021-08-18T10:06:29Z</time>
      </trkpt>
      <trkpt lat="37.569528" lon="-6.102932">
        <time>2021-08-18T10:06:44Z</time>
      </trkpt>
      <trkpt lat="37.569792" lon="-6.102886">
        <time>2021-08-18T10:06:47Z</time>
      </trkpt>
      <trkpt lat="37.57004" lon="-6.103089">
        <time>2021-08-18T10:06:50Z</time>
      </trkpt>
      <trkpt lat="37.570395" lon="-6.10329">
        <time>2021-08-18T10:06:53Z</time>
      </trkpt>
      <trkpt lat="37.571354" lon="-6.103565">
        <time>2021-08-18T10:06:59Z</time>
      </trkpt>
      <trkpt lat="37.575999" lon="-6.104898">
        <time>2021-08-18T10:07:44Z</time>
      </trkpt>
      <trkpt lat="37.575999" lon="-6.104898">
        <time>2021-08-18T10:07:44Z</time>
      </trkpt>
      <trkpt lat="37.576832" lon="-6.105605">
        <time>2021-08-18T10:07:56Z</time>
      </trkpt>
      <trkpt lat="37.579826" lon="-6.10873">
        <time>2021-08-18T10:08:35Z</time>
      </trkpt>
      <trkpt lat="37.582213" lon="-6.110829">
        <time>2021-08-18T10:08:53Z</time>
      </trkpt>
      <trkpt lat="37.583922" lon="-6.111244">
        <time>2021-08-18T10:09:02Z</time>
      </trkpt>
      <trkpt lat="37.583922" lon="-6.111244">
        <time>2021-08-18T10:09:02Z</time>
      </trkpt>
      <trkpt lat="37.588351" lon="-6.11236">
        <time>2021-08-18T10:09:23Z</time>
      </trkpt>
      <trkpt lat="37.588351" lon="-6.11236">
        <time>2021-08-18T10:09:23Z</time>
      </trkpt>
      <trkpt lat="37.591378" lon="-6.113367">
        <time>2021-08-18T10:09:38Z</time>
      </trkpt>
      <trkpt lat="37.593314" lon="-6.112863">
        <time>2021-08-18T10:09:47Z</time>
      </trkpt>
      <trkpt lat="37.597967" lon="-6.111827">
        <time>2021-08-18T10:10:08Z</time>
      </trkpt>
      <trkpt lat="37.600777" lon="-6.111576">
        <time>2021-08-18T10:10:20Z</time>
      </trkpt>
      <trkpt lat="37.602931" lon="-6.112033">
        <time>2021-08-18T10:10:29Z</time>
      </trkpt>
      <trkpt lat="37.606421" lon="-6.112112">
        <time>2021-08-18T10:10:44Z</time>
      </trkpt>
      <trkpt lat="37.607708" lon="-6.112">
        <time>2021-08-18T10:10:50Z</time>
      </trkpt>
      <trkpt lat="37.608954" lon="-6.112043">
        <time>2021-08-18T10:10:56Z</time>
      </trkpt>
      <trkpt lat="37.609533" lon="-6.112313">
        <time>2021-08-18T10:10:59Z</time>
      </trkpt>
      <trkpt lat="37.61005" lon="-6.112792">
        <time>2021-08-18T10:11:02Z</time>
      </trkpt>
      <trkpt lat="37.611361" lon="-6.114777">
        <time>2021-08-18T10:11:11Z</time>
      </trkpt>
      <trkpt lat="37.614331" lon="-6.119214">
        <time>2021-08-18T10:11:32Z</time>
      </trkpt>
      <trkpt lat="37.617785" lon="-6.123379">
        <time>2021-08-18T10:11:53Z</time>
      </trkpt>
      <trkpt lat="37.618344" lon="-6.123877">
        <time>2021-08-18T10:11:56Z</time>
      </trkpt>
      <trkpt lat="37.621803" lon="-6.126517">
        <time>2021-08-18T10:12:14Z</time>
      </trkpt>
      <trkpt lat="37.622755" lon="-6.127605">
        <time>2021-08-18T10:12:20Z</time>
      </trkpt>
      <trkpt lat="37.624716" lon="-6.131011">
        <time>2021-08-18T10:12:35Z</time>
      </trkpt>
      <trkpt lat="37.625215" lon="-6.13157">
        <time>2021-08-18T10:12:38Z</time>
      </trkpt>
      <trkpt lat="37.626953" lon="-6.133816">
        <time>2021-08-18T10:12:50Z</time>
      </trkpt>
      <trkpt lat="37.627739" lon="-6.13595">
        <time>2021-08-18T10:12:59Z</time>
      </trkpt>
      <trkpt lat="37.629711" lon="-6.140641">
        <time>2021-08-18T10:13:20Z</time>
      </trkpt>
      <trkpt lat="37.630044" lon="-6.141123">
        <time>2021-08-18T10:13:23Z</time>
      </trkpt>
      <trkpt lat="37.630535" lon="-6.141761">
        <time>2021-08-18T10:13:29Z</time>
      </trkpt>
      <trkpt lat="37.631222" lon="-6.142066">
        <time>2021-08-18T10:13:35Z</time>
      </trkpt>
      <trkpt lat="37.632091" lon="-6.142428">
        <time>2021-08-18T10:13:41Z</time>
      </trkpt>
      <trkpt lat="37.633761" lon="-6.143798">
        <time>2021-08-18T10:13:53Z</time>
      </trkpt>
      <trkpt lat="37.634094" lon="-6.144306">
        <time>2021-08-18T10:13:56Z</time>
      </trkpt>
      <trkpt lat="37.63435" lon="-6.144818">
        <time>2021-08-18T10:13:59Z</time>
      </trkpt>
      <trkpt lat="37.635314" lon="-6.146867">
        <time>2021-08-18T10:14:11Z</time>
      </trkpt>
      <trkpt lat="37.635746" lon="-6.147268">
        <time>2021-08-18T10:14:14Z</time>
      </trkpt>
      <trkpt lat="37.637225" lon="-6.148314">
        <time>2021-08-18T10:14:23Z</time>
      </trkpt>
      <trkpt lat="37.641355" lon="-6.151543">
        <time>2021-08-18T10:14:47Z</time>
      </trkpt>
      <trkpt lat="37.645438" lon="-6.154287">
        <time>2021-08-18T10:15:11Z</time>
      </trkpt>
      <trkpt lat="37.647602" lon="-6.155632">
        <time>2021-08-18T10:15:23Z</time>
      </trkpt>
      <trkpt lat="37.648178" lon="-6.155706">
        <time>2021-08-18T10:15:26Z</time>
      </trkpt>
      <trkpt lat="37.649356" lon="-6.155309">
        <time>2021-08-18T10:15:32Z</time>
      </trkpt>
      <trkpt lat="37.64992" lon="-6.154986">
        <time>2021-08-18T10:15:35Z</time>
      </trkpt>
      <trkpt lat="37.65054" lon="-6.154836">
        <time>2021-08-18T10:15:38Z</time>
      </trkpt>
      <trkpt lat="37.653314" lon="-6.155156">
        <time>2021-08-18T10:15:50Z</time>
      </trkpt>
      <trkpt lat="37.654619" lon="-6.155792">
        <time>2021-08-18T10:15:56Z</time>
      </trkpt>
      <trkpt lat="37.655224" lon="-6.156208">
        <time>2021-08-18T10:15:59Z</time>
      </trkpt>
      <trkpt lat="37.656459" lon="-6.156685">
        <time>2021-08-18T10:16:05Z</time>
      </trkpt>
      <trkpt lat="37.657081" lon="-6.156473">
        <time>2021-08-18T10:16:08Z</time>
      </trkpt>
      <trkpt lat="37.65762" lon="-6.155992">
        <time>2021-08-18T10:16:11Z</time>
      </trkpt>
      <trkpt lat="37.658731" lon="-6.155139">
        <time>2021-08-18T10:16:17Z</time>
      </trkpt>
      <trkpt lat="37.658731" lon="-6.155139">
        <time>2021-08-18T10:16:17Z</time>
      </trkpt>
      <trkpt lat="37.659388" lon="-6.155114">
        <time>2021-08-18T10:16:20Z</time>
      </trkpt>
      <trkpt lat="37.659971" lon="-6.155388">
        <time>2021-08-18T10:16:23Z</time>
      </trkpt>
      <trkpt lat="37.66044" lon="-6.155907">
        <time>2021-08-18T10:16:26Z</time>
      </trkpt>
      <trkpt lat="37.660737" lon="-6.156618">
        <time>2021-08-18T10:16:29Z</time>
      </trkpt>
      <trkpt lat="37.661129" lon="-6.159169">
        <time>2021-08-18T10:16:38Z</time>
      </trkpt>
      <trkpt lat="37.661619" lon="-6.16083">
        <time>2021-08-18T10:16:44Z</time>
      </trkpt>
      <trkpt lat="37.662654" lon="-6.162102">
        <time>2021-08-18T10:16:50Z</time>
      </trkpt>
      <trkpt lat="37.664389" lon="-6.16392">
        <time>2021-08-18T10:16:59Z</time>
      </trkpt>
      <trkpt lat="37.66692" lon="-6.166011">
        <time>2021-08-18T10:17:11Z</time>
      </trkpt>
      <trkpt lat="37.668395" lon="-6.1666">
        <time>2021-08-18T10:17:17Z</time>
      </trkpt>
      <trkpt lat="37.669018" lon="-6.167153">
        <time>2021-08-18T10:17:20Z</time>
      </trkpt>
      <trkpt lat="37.669508" lon="-6.167896">
        <time>2021-08-18T10:17:23Z</time>
      </trkpt>
      <trkpt lat="37.669789" lon="-6.168708">
        <time>2021-08-18T10:17:26Z</time>
      </trkpt>
      <trkpt lat="37.669956" lon="-6.170231">
        <time>2021-08-18T10:17:32Z</time>
      </trkpt>
      <trkpt lat="37.670057" lon="-6.170967">
        <time>2021-08-18T10:17:35Z</time>
      </trkpt>
      <trkpt lat="37.670312" lon="-6.17168">
        <time>2021-08-18T10:17:38Z</time>
      </trkpt>
      <trkpt lat="37.671018" lon="-6.174003">
        <time>2021-08-18T10:17:47Z</time>
      </trkpt>
      <trkpt lat="37.671065" lon="-6.175557">
        <time>2021-08-18T10:17:53Z</time>
      </trkpt>
      <trkpt lat="37.670872" lon="-6.176234">
        <time>2021-08-18T10:17:56Z</time>
      </trkpt>
      <trkpt lat="37.67062" lon="-6.177472">
        <time>2021-08-18T10:18:02Z</time>
      </trkpt>
      <trkpt lat="37.67062" lon="-6.177472">
        <time>2021-08-18T10:18:02Z</time>
      </trkpt>
      <trkpt lat="37.670905" lon="-6.178033">
        <time>2021-08-18T10:18:05Z</time>
      </trkpt>
      <trkpt lat="37.674098" lon="-6.181979">
        <time>2021-08-18T10:18:26Z</time>
      </trkpt>
      <trkpt lat="37.675562" lon="-6.183379">
        <time>2021-08-18T10:18:35Z</time>
      </trkpt>
      <trkpt lat="37.676506" lon="-6.184219">
        <time>2021-08-18T10:18:41Z</time>
      </trkpt>
      <trkpt lat="37.67739" lon="-6.184647">
        <time>2021-08-18T10:18:47Z</time>
      </trkpt>
      <trkpt lat="37.677762" lon="-6.184455">
        <time>2021-08-18T10:18:50Z</time>
      </trkpt>
      <trkpt lat="37.678125" lon="-6.184073">
        <time>2021-08-18T10:18:53Z</time>
      </trkpt>
      <trkpt lat="37.680251" lon="-6.182142">
        <time>2021-08-18T10:19:08Z</time>
      </trkpt>
      <trkpt lat="37.680395" lon="-6.181594">
        <time>2021-08-18T10:19:11Z</time>
      </trkpt>
      <trkpt lat="37.681201" lon="-6.180088">
        <time>2021-08-18T10:19:20Z</time>
      </trkpt>
      <trkpt lat="37.681276" lon="-6.17968">
        <time>2021-08-18T10:19:23Z</time>
      </trkpt>
      <trkpt lat="37.681427" lon="-6.179074">
        <time>2021-08-18T10:19:29Z</time>
      </trkpt>
      <trkpt lat="37.68168" lon="-6.179069">
        <time>2021-08-18T10:19:32Z</time>
      </trkpt>
      <trkpt lat="37.681855" lon="-6.179338">
        <time>2021-08-18T10:19:35Z</time>
      </trkpt>
      <trkpt lat="37.682315" lon="-6.18016">
        <time>2021-08-18T10:19:41Z</time>
      </trkpt>
      <trkpt lat="37.683639" lon="-6.181198">
        <time>2021-08-18T10:19:50Z</time>
      </trkpt>
      <trkpt lat="37.684841" lon="-6.181447">
        <time>2021-08-18T10:19:56Z</time>
      </trkpt>
      <trkpt lat="37.687316" lon="-6.182114">
        <time>2021-08-18T10:20:08Z</time>
      </trkpt>
      <trkpt lat="37.689803" lon="-6.181641">
        <time>2021-08-18T10:20:20Z</time>
      </trkpt>
      <trkpt lat="37.690955" lon="-6.181314">
        <time>2021-08-18T10:20:26Z</time>
      </trkpt>
      <trkpt lat="37.692075" lon="-6.181222">
        <time>2021-08-18T10:20:32Z</time>
      </trkpt>
      <trkpt lat="37.693852" lon="-6.181761">
        <time>2021-08-18T10:20:41Z</time>
      </trkpt>
      <trkpt lat="37.694465" lon="-6.181723">
        <time>2021-08-18T10:20:44Z</time>
      </trkpt>
      <trkpt lat="37.696156" lon="-6.18131">
        <time>2021-08-18T10:20:53Z</time>
      </trkpt>
      <trkpt lat="37.696633" lon="-6.180878">
        <time>2021-08-18T10:20:56Z</time>
      </trkpt>
      <trkpt lat="37.697694" lon="-6.178752">
        <time>2021-08-18T10:21:05Z</time>
      </trkpt>
      <trkpt lat="37.697887" lon="-6.177949">
        <time>2021-08-18T10:21:08Z</time>
      </trkpt>
      <trkpt lat="37.698112" lon="-6.177223">
        <time>2021-08-18T10:21:11Z</time>
      </trkpt>
      <trkpt lat="37.698533" lon="-6.176792">
        <time>2021-08-18T10:21:14Z</time>
      </trkpt>
      <trkpt lat="37.699098" lon="-6.176654">
        <time>2021-08-18T10:21:17Z</time>
      </trkpt>
      <trkpt lat="37.699692" lon="-6.176446">
        <time>2021-08-18T10:21:20Z</time>
      </trkpt>
      <trkpt lat="37.700689" lon="-6.175778">
        <time>2021-08-18T10:21:26Z</time>
      </trkpt>
      <trkpt lat="37.701176" lon="-6.175786">
        <time>2021-08-18T10:21:29Z</time>
      </trkpt>
      <trkpt lat="37.701618" lon="-6.17612">
        <time>2021-08-18T10:21:32Z</time>
      </trkpt>
      <trkpt lat="37.702024" lon="-6.176679">
        <time>2021-08-18T10:21:35Z</time>
      </trkpt>
      <trkpt lat="37.702487" lon="-6.177201">
        <time>2021-08-18T10:21:38Z</time>
      </trkpt>
      <trkpt lat="37.703082" lon="-6.177403">
        <time>2021-08-18T10:21:41Z</time>
      </trkpt>
      <trkpt lat="37.704189" lon="-6.177836">
        <time>2021-08-18T10:21:47Z</time>
      </trkpt>
      <trkpt lat="37.705041" lon="-6.178909">
        <time>2021-08-18T10:21:53Z</time>
      </trkpt>
      <trkpt lat="37.705754" lon="-6.180192">
        <time>2021-08-18T10:21:59Z</time>
      </trkpt>
      <trkpt lat="37.705754" lon="-6.180192">
        <time>2021-08-18T10:21:59Z</time>
      </trkpt>
      <trkpt lat="37.707805" lon="-6.182132">
        <time>2021-08-18T10:22:11Z</time>
      </trkpt>
      <trkpt lat="37.708615" lon="-6.183303">
        <time>2021-08-18T10:22:17Z</time>
      </trkpt>
      <trkpt lat="37.709163" lon="-6.183541">
        <time>2021-08-18T10:22:20Z</time>
      </trkpt>
      <trkpt lat="37.709734" lon="-6.183691">
        <time>2021-08-18T10:22:23Z</time>
      </trkpt>
      <trkpt lat="37.710801" lon="-6.183588">
        <time>2021-08-18T10:22:29Z</time>
      </trkpt>
      <trkpt lat="37.711838" lon="-6.182814">
        <time>2021-08-18T10:22:35Z</time>
      </trkpt>
      <trkpt lat="37.712991" lon="-6.182016">
        <time>2021-08-18T10:22:41Z</time>
      </trkpt>
      <trkpt lat="37.714261" lon="-6.181286">
        <time>2021-08-18T10:22:47Z</time>
      </trkpt>
      <trkpt lat="37.717175" lon="-6.179297">
        <time>2021-08-18T10:23:02Z</time>
      </trkpt>
      <trkpt lat="37.718389" lon="-6.178945">
        <time>2021-08-18T10:23:08Z</time>
      </trkpt>
      <trkpt lat="37.720742" lon="-6.17803">
        <time>2021-08-18T10:23:20Z</time>
      </trkpt>
      <trkpt lat="37.721928" lon="-6.177336">
        <time>2021-08-18T10:23:32Z</time>
      </trkpt>
      <trkpt lat="37.722281" lon="-6.177348">
        <time>2021-08-18T10:23:38Z</time>
      </trkpt>
      <trkpt lat="37.722961" lon="-6.17747">
        <time>2021-08-18T10:23:44Z</time>
      </trkpt>
      <trkpt lat="37.723281" lon="-6.177448">
        <time>2021-08-18T10:23:47Z</time>
      </trkpt>
      <trkpt lat="37.723564" lon="-6.177283">
        <time>2021-08-18T10:23:50Z</time>
      </trkpt>
      <trkpt lat="37.724063" lon="-6.176995">
        <time>2021-08-18T10:23:56Z</time>
      </trkpt>
      <trkpt lat="37.727509" lon="-6.176639">
        <time>2021-08-18T10:24:26Z</time>
      </trkpt>
      <trkpt lat="37.727509" lon="-6.176639">
        <time>2021-08-18T10:24:26Z</time>
      </trkpt>
      <trkpt lat="37.727809" lon="-6.176896">
        <time>2021-08-18T10:24:29Z</time>
      </trkpt>
      <trkpt lat="37.72895" lon="-6.177572">
        <time>2021-08-18T10:24:38Z</time>
      </trkpt>
      <trkpt lat="37.730876" lon="-6.17783">
        <time>2021-08-18T10:24:50Z</time>
      </trkpt>
      <trkpt lat="37.732091" lon="-6.177691">
        <time>2021-08-18T10:24:56Z</time>
      </trkpt>
      <trkpt lat="37.73599" lon="-6.177013">
        <time>2021-08-18T10:25:14Z</time>
      </trkpt>
      <trkpt lat="37.736551" lon="-6.176545">
        <time>2021-08-18T10:25:17Z</time>
      </trkpt>
      <trkpt lat="37.737055" lon="-6.176022">
        <time>2021-08-18T10:25:20Z</time>
      </trkpt>
      <trkpt lat="37.739462" lon="-6.173468">
        <time>2021-08-18T10:25:35Z</time>
      </trkpt>
      <trkpt lat="37.740146" lon="-6.173371">
        <time>2021-08-18T10:25:38Z</time>
      </trkpt>
      <trkpt lat="37.740146" lon="-6.173371">
        <time>2021-08-18T10:25:38Z</time>
      </trkpt>
      <trkpt lat="37.740837" lon="-6.173524">
        <time>2021-08-18T10:25:41Z</time>
      </trkpt>
      <trkpt lat="37.743533" lon="-6.174369">
        <time>2021-08-18T10:25:53Z</time>
      </trkpt>
      <trkpt lat="37.744981" lon="-6.174156">
        <time>2021-08-18T10:25:59Z</time>
      </trkpt>
      <trkpt lat="37.746426" lon="-6.173789">
        <time>2021-08-18T10:26:05Z</time>
      </trkpt>
      <trkpt lat="37.747675" lon="-6.172954">
        <time>2021-08-18T10:26:11Z</time>
      </trkpt>
      <trkpt lat="37.748593" lon="-6.171625">
        <time>2021-08-18T10:26:17Z</time>
      </trkpt>
      <trkpt lat="37.748903" lon="-6.170863">
        <time>2021-08-18T10:26:20Z</time>
      </trkpt>
      <trkpt lat="37.749234" lon="-6.170209">
        <time>2021-08-18T10:26:23Z</time>
      </trkpt>
      <trkpt lat="37.749732" lon="-6.169843">
        <time>2021-08-18T10:26:26Z</time>
      </trkpt>
      <trkpt lat="37.750316" lon="-6.169852">
        <time>2021-08-18T10:26:29Z</time>
      </trkpt>
      <trkpt lat="37.752117" lon="-6.170532">
        <time>2021-08-18T10:26:38Z</time>
      </trkpt>
      <trkpt lat="37.752754" lon="-6.170311">
        <time>2021-08-18T10:26:41Z</time>
      </trkpt>
      <trkpt lat="37.753395" lon="-6.169967">
        <time>2021-08-18T10:26:44Z</time>
      </trkpt>
      <trkpt lat="37.754633" lon="-6.169171">
        <time>2021-08-18T10:26:50Z</time>
      </trkpt>
      <trkpt lat="37.756804" lon="-6.166079">
        <time>2021-08-18T10:27:05Z</time>
      </trkpt>
      <trkpt lat="37.757212" lon="-6.165649">
        <time>2021-08-18T10:27:08Z</time>
      </trkpt>
      <trkpt lat="37.757714" lon="-6.165358">
        <time>2021-08-18T10:27:11Z</time>
      </trkpt>
      <trkpt lat="37.758302" lon="-6.165276">
        <time>2021-08-18T10:27:14Z</time>
      </trkpt>
      <trkpt lat="37.758887" lon="-6.165355">
        <time>2021-08-18T10:27:17Z</time>
      </trkpt>
      <trkpt lat="37.75943" lon="-6.165676">
        <time>2021-08-18T10:27:20Z</time>
      </trkpt>
      <trkpt lat="37.760956" lon="-6.167075">
        <time>2021-08-18T10:27:29Z</time>
      </trkpt>
      <trkpt lat="37.760956" lon="-6.167075">
        <time>2021-08-18T10:27:29Z</time>
      </trkpt>
      <trkpt lat="37.761567" lon="-6.167244">
        <time>2021-08-18T10:27:32Z</time>
      </trkpt>
      <trkpt lat="37.762193" lon="-6.167208">
        <time>2021-08-18T10:27:35Z</time>
      </trkpt>
      <trkpt lat="37.764009" lon="-6.166961">
        <time>2021-08-18T10:27:44Z</time>
      </trkpt>
      <trkpt lat="37.764577" lon="-6.167257">
        <time>2021-08-18T10:27:47Z</time>
      </trkpt>
      <trkpt lat="37.765711" lon="-6.168156">
        <time>2021-08-18T10:27:53Z</time>
      </trkpt>
      <trkpt lat="37.76741" lon="-6.169632">
        <time>2021-08-18T10:28:02Z</time>
      </trkpt>
      <trkpt lat="37.767745" lon="-6.170298">
        <time>2021-08-18T10:28:05Z</time>
      </trkpt>
      <trkpt lat="37.768375" lon="-6.171614">
        <time>2021-08-18T10:28:11Z</time>
      </trkpt>
      <trkpt lat="37.768919" lon="-6.17184">
        <time>2021-08-18T10:28:14Z</time>
      </trkpt>
      <trkpt lat="37.769511" lon="-6.171703">
        <time>2021-08-18T10:28:17Z</time>
      </trkpt>
      <trkpt lat="37.769511" lon="-6.171703">
        <time>2021-08-18T10:28:17Z</time>
      </trkpt>
      <trkpt lat="37.771421" lon="-6.170923">
        <time>2021-08-18T10:28:26Z</time>
      </trkpt>
      <trkpt lat="37.772123" lon="-6.171084">
        <time>2021-08-18T10:28:29Z</time>
      </trkpt>
      <trkpt lat="37.772759" lon="-6.171514">
        <time>2021-08-18T10:28:32Z</time>
      </trkpt>
      <trkpt lat="37.773255" lon="-6.172181">
        <time>2021-08-18T10:28:35Z</time>
      </trkpt>
      <trkpt lat="37.773592" lon="-6.173008">
        <time>2021-08-18T10:28:38Z</time>
      </trkpt>
      <trkpt lat="37.774511" lon="-6.175357">
        <time>2021-08-18T10:28:47Z</time>
      </trkpt>
      <trkpt lat="37.775017" lon="-6.175766">
        <time>2021-08-18T10:28:50Z</time>
      </trkpt>
      <trkpt lat="37.77687" lon="-6.176981">
        <time>2021-08-18T10:28:59Z</time>
      </trkpt>
      <trkpt lat="37.777399" lon="-6.177602">
        <time>2021-08-18T10:29:02Z</time>
      </trkpt>
      <trkpt lat="37.780119" lon="-6.181052">
        <time>2021-08-18T10:29:20Z</time>
      </trkpt>
      <trkpt lat="37.781753" lon="-6.182562">
        <time>2021-08-18T10:29:29Z</time>
      </trkpt>
      <trkpt lat="37.784346" lon="-6.184283">
        <time>2021-08-18T10:29:41Z</time>
      </trkpt>
      <trkpt lat="37.787741" lon="-6.187382">
        <time>2021-08-18T10:29:59Z</time>
      </trkpt>
      <trkpt lat="37.788281" lon="-6.188003">
        <time>2021-08-18T10:30:02Z</time>
      </trkpt>
      <trkpt lat="37.789744" lon="-6.189973">
        <time>2021-08-18T10:30:11Z</time>
      </trkpt>
      <trkpt lat="37.791107" lon="-6.192945">
        <time>2021-08-18T10:30:23Z</time>
      </trkpt>
      <trkpt lat="37.793563" lon="-6.198442">
        <time>2021-08-18T10:30:44Z</time>
      </trkpt>
      <trkpt lat="37.794181" lon="-6.199962">
        <time>2021-08-18T10:30:50Z</time>
      </trkpt>
      <trkpt lat="37.794662" lon="-6.202344">
        <time>2021-08-18T10:30:59Z</time>
      </trkpt>
      <trkpt lat="37.795075" lon="-6.202945">
        <time>2021-08-18T10:31:02Z</time>
      </trkpt>
      <trkpt lat="37.795586" lon="-6.203476">
        <time>2021-08-18T10:31:05Z</time>
      </trkpt>
      <trkpt lat="37.798354" lon="-6.207427">
        <time>2021-08-18T10:31:23Z</time>
      </trkpt>
      <trkpt lat="37.79898" lon="-6.207767">
        <time>2021-08-18T10:31:26Z</time>
      </trkpt>
      <trkpt lat="37.79898" lon="-6.207767">
        <time>2021-08-18T10:31:26Z</time>
      </trkpt>
      <trkpt lat="37.79967" lon="-6.207817">
        <time>2021-08-18T10:31:29Z</time>
      </trkpt>
      <trkpt lat="37.800337" lon="-6.207552">
        <time>2021-08-18T10:31:32Z</time>
      </trkpt>
      <trkpt lat="37.80089" lon="-6.207044">
        <time>2021-08-18T10:31:35Z</time>
      </trkpt>
      <trkpt lat="37.801301" lon="-6.206341">
        <time>2021-08-18T10:31:38Z</time>
      </trkpt>
      <trkpt lat="37.802427" lon="-6.204108">
        <time>2021-08-18T10:31:47Z</time>
      </trkpt>
      <trkpt lat="37.802427" lon="-6.204108">
        <time>2021-08-18T10:31:47Z</time>
      </trkpt>
      <trkpt lat="37.805696" lon="-6.201942">
        <time>2021-08-18T10:32:02Z</time>
      </trkpt>
      <trkpt lat="37.807181" lon="-6.202095">
        <time>2021-08-18T10:32:08Z</time>
      </trkpt>
      <trkpt lat="37.809359" lon="-6.202398">
        <time>2021-08-18T10:32:17Z</time>
      </trkpt>
      <trkpt lat="37.812033" lon="-6.204047">
        <time>2021-08-18T10:32:29Z</time>
      </trkpt>
      <trkpt lat="37.813816" lon="-6.205345">
        <time>2021-08-18T10:32:38Z</time>
      </trkpt>
      <trkpt lat="37.815868" lon="-6.207497">
        <time>2021-08-18T10:32:50Z</time>
      </trkpt>
      <trkpt lat="37.818831" lon="-6.210041">
        <time>2021-08-18T10:33:05Z</time>
      </trkpt>
      <trkpt lat="37.819522" lon="-6.210061">
        <time>2021-08-18T10:33:08Z</time>
      </trkpt>
      <trkpt lat="37.820243" lon="-6.209904">
        <time>2021-08-18T10:33:11Z</time>
      </trkpt>
      <trkpt lat="37.822242" lon="-6.209576">
        <time>2021-08-18T10:33:20Z</time>
      </trkpt>
      <trkpt lat="37.822848" lon="-6.209857">
        <time>2021-08-18T10:33:23Z</time>
      </trkpt>
      <trkpt lat="37.824362" lon="-6.21169">
        <time>2021-08-18T10:33:32Z</time>
      </trkpt>
      <trkpt lat="37.824362" lon="-6.21169">
        <time>2021-08-18T10:33:32Z</time>
      </trkpt>
      <trkpt lat="37.824517" lon="-6.212478">
        <time>2021-08-18T10:33:35Z</time>
      </trkpt>
      <trkpt lat="37.824993" lon="-6.213978">
        <time>2021-08-18T10:33:41Z</time>
      </trkpt>
      <trkpt lat="37.825541" lon="-6.214425">
        <time>2021-08-18T10:33:44Z</time>
      </trkpt>
      <trkpt lat="37.827515" lon="-6.215429">
        <time>2021-08-18T10:33:53Z</time>
      </trkpt>
      <trkpt lat="37.831859" lon="-6.217546">
        <time>2021-08-18T10:34:11Z</time>
      </trkpt>
      <trkpt lat="37.83588" lon="-6.219442">
        <time>2021-08-18T10:34:29Z</time>
      </trkpt>
      <trkpt lat="37.836534" lon="-6.219222">
        <time>2021-08-18T10:34:32Z</time>
      </trkpt>
      <trkpt lat="37.836534" lon="-6.219222">
        <time>2021-08-18T10:34:32Z</time>
      </trkpt>
      <trkpt lat="37.839831" lon="-6.217103">
        <time>2021-08-18T10:34:47Z</time>
      </trkpt>
      <trkpt lat="37.840544" lon="-6.21709">
        <time>2021-08-18T10:34:50Z</time>
      </trkpt>
      <trkpt lat="37.841254" lon="-6.217338">
        <time>2021-08-18T10:34:53Z</time>
      </trkpt>
      <trkpt lat="37.844854" lon="-6.218814">
        <time>2021-08-18T10:35:08Z</time>
      </trkpt>
      <trkpt lat="37.845572" lon="-6.218735">
        <time>2021-08-18T10:35:11Z</time>
      </trkpt>
      <trkpt lat="37.845572" lon="-6.218735">
        <time>2021-08-18T10:35:11Z</time>
      </trkpt>
      <trkpt lat="37.846948" lon="-6.217925">
        <time>2021-08-18T10:35:17Z</time>
      </trkpt>
      <trkpt lat="37.849705" lon="-6.215961">
        <time>2021-08-18T10:35:29Z</time>
      </trkpt>
      <trkpt lat="37.851162" lon="-6.215454">
        <time>2021-08-18T10:35:35Z</time>
      </trkpt>
      <trkpt lat="37.854337" lon="-6.21561">
        <time>2021-08-18T10:35:47Z</time>
      </trkpt>
      <trkpt lat="37.854337" lon="-6.21561">
        <time>2021-08-18T10:35:47Z</time>
      </trkpt>
      <trkpt lat="37.85872" lon="-6.21695">
        <time>2021-08-18T10:36:05Z</time>
      </trkpt>
      <trkpt lat="37.859508" lon="-6.217003">
        <time>2021-08-18T10:36:08Z</time>
      </trkpt>
      <trkpt lat="37.86333" lon="-6.217679">
        <time>2021-08-18T10:36:23Z</time>
      </trkpt>
      <trkpt lat="37.867176" lon="-6.218189">
        <time>2021-08-18T10:36:38Z</time>
      </trkpt>
      <trkpt lat="37.867882" lon="-6.218521">
        <time>2021-08-18T10:36:41Z</time>
      </trkpt>
      <trkpt lat="37.869245" lon="-6.218745">
        <time>2021-08-18T10:36:47Z</time>
      </trkpt>
      <trkpt lat="37.87133" lon="-6.218334">
        <time>2021-08-18T10:36:56Z</time>
      </trkpt>
      <trkpt lat="37.872734" lon="-6.218461">
        <time>2021-08-18T10:37:02Z</time>
      </trkpt>
      <trkpt lat="37.877896" lon="-6.219372">
        <time>2021-08-18T10:37:23Z</time>
      </trkpt>
      <trkpt lat="37.880766" lon="-6.21934">
        <time>2021-08-18T10:37:35Z</time>
      </trkpt>
      <trkpt lat="37.882947" lon="-6.218953">
        <time>2021-08-18T10:37:44Z</time>
      </trkpt>
      <trkpt lat="37.884202" lon="-6.219057">
        <time>2021-08-18T10:37:50Z</time>
      </trkpt>
      <trkpt lat="37.885308" lon="-6.219876">
        <time>2021-08-18T10:37:56Z</time>
      </trkpt>
      <trkpt lat="37.886533" lon="-6.220224">
        <time>2021-08-18T10:38:02Z</time>
      </trkpt>
      <trkpt lat="37.887137" lon="-6.220114">
        <time>2021-08-18T10:38:05Z</time>
      </trkpt>
      <trkpt lat="37.887748" lon="-6.219835">
        <time>2021-08-18T10:38:08Z</time>
      </trkpt>
      <trkpt lat="37.889618" lon="-6.219356">
        <time>2021-08-18T10:38:17Z</time>
      </trkpt>
      <trkpt lat="37.892711" lon="-6.220333">
        <time>2021-08-18T10:38:32Z</time>
      </trkpt>
      <trkpt lat="37.89331" lon="-6.220659">
        <time>2021-08-18T10:38:35Z</time>
      </trkpt>
      <trkpt lat="37.895093" lon="-6.221349">
        <time>2021-08-18T10:38:44Z</time>
      </trkpt>
      <trkpt lat="37.897045" lon="-6.221567">
        <time>2021-08-18T10:38:53Z</time>
      </trkpt>
      <trkpt lat="37.899539" lon="-6.221814">
        <time>2021-08-18T10:39:05Z</time>
      </trkpt>
      <trkpt lat="37.901094" lon="-6.221164">
        <time>2021-08-18T10:39:14Z</time>
      </trkpt>
      <trkpt lat="37.901659" lon="-6.221218">
        <time>2021-08-18T10:39:17Z</time>
      </trkpt>
      <trkpt lat="37.902802" lon="-6.221278">
        <time>2021-08-18T10:39:26Z</time>
      </trkpt>
      <trkpt lat="37.903583" lon="-6.221425">
        <time>2021-08-18T10:39:32Z</time>
      </trkpt>
      <trkpt lat="37.905286" lon="-6.221854">
        <time>2021-08-18T10:39:47Z</time>
      </trkpt>
      <trkpt lat="37.906253" lon="-6.222685">
        <time>2021-08-18T10:39:56Z</time>
      </trkpt>
      <trkpt lat="37.906711" lon="-6.223241">
        <time>2021-08-18T10:40:02Z</time>
      </trkpt>
      <trkpt lat="37.907238" lon="-6.224267">
        <time>2021-08-18T10:40:11Z</time>
      </trkpt>
      <trkpt lat="37.907258" lon="-6.224644">
        <time>2021-08-18T10:40:14Z</time>
      </trkpt>
      <trkpt lat="37.906449" lon="-6.228097">
        <time>2021-08-18T10:40:41Z</time>
      </trkpt>
      <trkpt lat="37.906332" lon="-6.22909">
        <time>2021-08-18T10:40:50Z</time>
      </trkpt>
      <trkpt lat="37.906449" lon="-6.229668">
        <time>2021-08-18T10:40:56Z</time>
      </trkpt>
      <trkpt lat="37.906688" lon="-6.229782">
        <time>2021-08-18T10:40:59Z</time>
      </trkpt>
      <trkpt lat="37.907584" lon="-6.230098">
        <time>2021-08-18T10:41:08Z</time>
      </trkpt>
      <trkpt lat="37.909773" lon="-6.230376">
        <time>2021-08-18T10:41:26Z</time>
      </trkpt>
      <trkpt lat="37.909773" lon="-6.230376">
        <time>2021-08-18T10:41:26Z</time>
      </trkpt>
      <trkpt lat="37.910014" lon="-6.23025">
        <time>2021-08-18T10:41:29Z</time>
      </trkpt>
      <trkpt lat="37.910224" lon="-6.230242">
        <time>2021-08-18T10:41:32Z</time>
      </trkpt>
      <trkpt lat="37.91033" lon="-6.230484">
        <time>2021-08-18T10:41:35Z</time>
      </trkpt>
      <trkpt lat="37.910505" lon="-6.230795">
        <time>2021-08-18T10:41:38Z</time>
      </trkpt>
      <trkpt lat="37.910832" lon="-6.231004">
        <time>2021-08-18T10:41:41Z</time>
      </trkpt>
      <trkpt lat="37.913182" lon="-6.232338">
        <time>2021-08-18T10:41:56Z</time>
      </trkpt>
      <trkpt lat="37.9136" lon="-6.232808">
        <time>2021-08-18T10:41:59Z</time>
      </trkpt>
      <trkpt lat="37.915792" lon="-6.235189">
        <time>2021-08-18T10:42:14Z</time>
      </trkpt>
      <trkpt lat="37.917549" lon="-6.236063">
        <time>2021-08-18T10:42:23Z</time>
      </trkpt>
      <trkpt lat="37.920634" lon="-6.237381">
        <time>2021-08-18T10:42:38Z</time>
      </trkpt>
      <trkpt lat="37.921757" lon="-6.238115">
        <time>2021-08-18T10:42:44Z</time>
      </trkpt>
      <trkpt lat="37.922373" lon="-6.238219">
        <time>2021-08-18T10:42:47Z</time>
      </trkpt>
      <trkpt lat="37.926481" lon="-6.23839">
        <time>2021-08-18T10:43:05Z</time>
      </trkpt>
      <trkpt lat="37.92851" lon="-6.238145">
        <time>2021-08-18T10:43:14Z</time>
      </trkpt>
      <trkpt lat="37.931296" lon="-6.23716">
        <time>2021-08-18T10:43:26Z</time>
      </trkpt>
      <trkpt lat="37.936026" lon="-6.235875">
        <time>2021-08-18T10:43:47Z</time>
      </trkpt>
      <trkpt lat="37.936635" lon="-6.23559">
        <time>2021-08-18T10:43:50Z</time>
      </trkpt>
      <trkpt lat="37.938254" lon="-6.234202">
        <time>2021-08-18T10:43:59Z</time>
      </trkpt>
      <trkpt lat="37.94033" lon="-6.233303">
        <time>2021-08-18T10:44:08Z</time>
      </trkpt>
      <trkpt lat="37.941619" lon="-6.232565">
        <time>2021-08-18T10:44:14Z</time>
      </trkpt>
      <trkpt lat="37.943594" lon="-6.23145">
        <time>2021-08-18T10:44:23Z</time>
      </trkpt>
      <trkpt lat="37.94495" lon="-6.230945">
        <time>2021-08-18T10:44:29Z</time>
      </trkpt>
      <trkpt lat="37.945613" lon="-6.230912">
        <time>2021-08-18T10:44:32Z</time>
      </trkpt>
      <trkpt lat="37.946256" lon="-6.231106">
        <time>2021-08-18T10:44:35Z</time>
      </trkpt>
      <trkpt lat="37.948183" lon="-6.23198">
        <time>2021-08-18T10:44:44Z</time>
      </trkpt>
      <trkpt lat="37.948887" lon="-6.231863">
        <time>2021-08-18T10:44:47Z</time>
      </trkpt>
      <trkpt lat="37.949529" lon="-6.231482">
        <time>2021-08-18T10:44:50Z</time>
      </trkpt>
      <trkpt lat="37.949529" lon="-6.231482">
        <time>2021-08-18T10:44:50Z</time>
      </trkpt>
      <trkpt lat="37.953119" lon="-6.227597">
        <time>2021-08-18T10:45:11Z</time>
      </trkpt>
      <trkpt lat="37.953119" lon="-6.227597">
        <time>2021-08-18T10:45:11Z</time>
      </trkpt>
      <trkpt lat="37.954409" lon="-6.227143">
        <time>2021-08-18T10:45:17Z</time>
      </trkpt>
      <trkpt lat="37.957914" lon="-6.227115">
        <time>2021-08-18T10:45:32Z</time>
      </trkpt>
      <trkpt lat="37.960545" lon="-6.227222">
        <time>2021-08-18T10:45:47Z</time>
      </trkpt>
      <trkpt lat="37.961573" lon="-6.22781">
        <time>2021-08-18T10:45:53Z</time>
      </trkpt>
      <trkpt lat="37.962395" lon="-6.229055">
        <time>2021-08-18T10:45:59Z</time>
      </trkpt>
      <trkpt lat="37.962395" lon="-6.229055">
        <time>2021-08-18T10:45:59Z</time>
      </trkpt>
      <trkpt lat="37.96457" lon="-6.232367">
        <time>2021-08-18T10:46:14Z</time>
      </trkpt>
      <trkpt lat="37.96585" lon="-6.233242">
        <time>2021-08-18T10:46:20Z</time>
      </trkpt>
      <trkpt lat="37.969087" lon="-6.234994">
        <time>2021-08-18T10:46:35Z</time>
      </trkpt>
      <trkpt lat="37.970514" lon="-6.234891">
        <time>2021-08-18T10:46:41Z</time>
      </trkpt>
      <trkpt lat="37.973322" lon="-6.234371">
        <time>2021-08-18T10:46:53Z</time>
      </trkpt>
      <trkpt lat="37.973937" lon="-6.233887">
        <time>2021-08-18T10:46:56Z</time>
      </trkpt>
      <trkpt lat="37.974438" lon="-6.23321">
        <time>2021-08-18T10:46:59Z</time>
      </trkpt>
      <trkpt lat="37.974856" lon="-6.232405">
        <time>2021-08-18T10:47:02Z</time>
      </trkpt>
      <trkpt lat="37.976263" lon="-6.230121">
        <time>2021-08-18T10:47:11Z</time>
      </trkpt>
      <trkpt lat="37.976927" lon="-6.229784">
        <time>2021-08-18T10:47:14Z</time>
      </trkpt>
      <trkpt lat="37.977648" lon="-6.229716">
        <time>2021-08-18T10:47:17Z</time>
      </trkpt>
      <trkpt lat="37.979138" lon="-6.230103">
        <time>2021-08-18T10:47:23Z</time>
      </trkpt>
      <trkpt lat="37.983711" lon="-6.23083">
        <time>2021-08-18T10:47:41Z</time>
      </trkpt>
      <trkpt lat="37.983711" lon="-6.23083">
        <time>2021-08-18T10:47:41Z</time>
      </trkpt>
      <trkpt lat="37.988189" lon="-6.230363">
        <time>2021-08-18T10:47:59Z</time>
      </trkpt>
      <trkpt lat="37.99322" lon="-6.229837">
        <time>2021-08-18T10:48:20Z</time>
      </trkpt>
      <trkpt lat="37.998221" lon="-6.229404">
        <time>2021-08-18T10:48:41Z</time>
      </trkpt>
      <trkpt lat="37.998938" lon="-6.229564">
        <time>2021-08-18T10:48:44Z</time>
      </trkpt>
      <trkpt lat="38.002333" lon="-6.23104">
        <time>2021-08-18T10:48:59Z</time>
      </trkpt>
      <trkpt lat="38.002993" lon="-6.230887">
        <time>2021-08-18T10:49:02Z</time>
      </trkpt>
      <trkpt lat="38.003655" lon="-6.230656">
        <time>2021-08-18T10:49:05Z</time>
      </trkpt>
      <trkpt lat="38.007646" lon="-6.228356">
        <time>2021-08-18T10:49:23Z</time>
      </trkpt>
      <trkpt lat="38.012199" lon="-6.225489">
        <time>2021-08-18T10:49:44Z</time>
      </trkpt>
      <trkpt lat="38.016811" lon="-6.222653">
        <time>2021-08-18T10:50:05Z</time>
      </trkpt>
      <trkpt lat="38.021292" lon="-6.21986">
        <time>2021-08-18T10:50:26Z</time>
      </trkpt>
      <trkpt lat="38.021292" lon="-6.21986">
        <time>2021-08-18T10:50:26Z</time>
      </trkpt>
      <trkpt lat="38.021793" lon="-6.219466">
        <time>2021-08-18T10:50:29Z</time>
      </trkpt>
      <trkpt lat="38.022349" lon="-6.21932">
        <time>2021-08-18T10:50:32Z</time>
      </trkpt>
      <trkpt lat="38.022945" lon="-6.21944">
        <time>2021-08-18T10:50:35Z</time>
      </trkpt>
      <trkpt lat="38.024741" lon="-6.219923">
        <time>2021-08-18T10:50:44Z</time>
      </trkpt>
      <trkpt lat="38.025812" lon="-6.219876">
        <time>2021-08-18T10:50:50Z</time>
      </trkpt>
      <trkpt lat="38.025812" lon="-6.219876">
        <time>2021-08-18T10:50:50Z</time>
      </trkpt>
      <trkpt lat="38.026879" lon="-6.220451">
        <time>2021-08-18T10:50:56Z</time>
      </trkpt>
      <trkpt lat="38.028357" lon="-6.221221">
        <time>2021-08-18T10:51:05Z</time>
      </trkpt>
      <trkpt lat="38.028692" lon="-6.221138">
        <time>2021-08-18T10:51:08Z</time>
      </trkpt>
      <trkpt lat="38.028948" lon="-6.221018">
        <time>2021-08-18T10:51:11Z</time>
      </trkpt>
      <trkpt lat="38.029192" lon="-6.221112">
        <time>2021-08-18T10:51:14Z</time>
      </trkpt>
      <trkpt lat="38.029303" lon="-6.221391">
        <time>2021-08-18T10:51:17Z</time>
      </trkpt>
      <trkpt lat="38.029244" lon="-6.221621">
        <time>2021-08-18T10:51:20Z</time>
      </trkpt>
      <trkpt lat="38.029049" lon="-6.221732">
        <time>2021-08-18T10:51:23Z</time>
      </trkpt>
      <trkpt lat="38.02882" lon="-6.221656">
        <time>2021-08-18T10:51:26Z</time>
      </trkpt>
      <trkpt lat="38.02882" lon="-6.221656">
        <time>2021-08-18T10:51:26Z</time>
      </trkpt>
      <trkpt lat="38.02868" lon="-6.221437">
        <time>2021-08-18T10:51:29Z</time>
      </trkpt>
      <trkpt lat="38.028693" lon="-6.221187">
        <time>2021-08-18T10:51:32Z</time>
      </trkpt>
      <trkpt lat="38.028847" lon="-6.220978">
        <time>2021-08-18T10:51:35Z</time>
      </trkpt>
      <trkpt lat="38.029059" lon="-6.220926">
        <time>2021-08-18T10:51:38Z</time>
      </trkpt>
      <trkpt lat="38.029212" lon="-6.220988">
        <time>2021-08-18T10:51:41Z</time>
      </trkpt>
      <trkpt lat="38.029305" lon="-6.221227">
        <time>2021-08-18T10:51:50Z</time>
      </trkpt>
      <trkpt lat="38.029395" lon="-6.221621">
        <time>2021-08-18T10:51:53Z</time>
      </trkpt>
      <trkpt lat="38.029674" lon="-6.221985">
        <time>2021-08-18T10:51:56Z</time>
      </trkpt>
      <trkpt lat="38.031237" lon="-6.223727">
        <time>2021-08-18T10:52:08Z</time>
      </trkpt>
      <trkpt lat="38.031769" lon="-6.2239">
        <time>2021-08-18T10:52:11Z</time>
      </trkpt>
      <trkpt lat="38.03233" lon="-6.223945">
        <time>2021-08-18T10:52:14Z</time>
      </trkpt>
      <trkpt lat="38.034697" lon="-6.224084">
        <time>2021-08-18T10:52:26Z</time>
      </trkpt>
      <trkpt lat="38.035227" lon="-6.224445">
        <time>2021-08-18T10:52:29Z</time>
      </trkpt>
      <trkpt lat="38.035665" lon="-6.224973">
        <time>2021-08-18T10:52:32Z</time>
      </trkpt>
      <trkpt lat="38.036035" lon="-6.225601">
        <time>2021-08-18T10:52:35Z</time>
      </trkpt>
      <trkpt lat="38.037757" lon="-6.228021">
        <time>2021-08-18T10:52:47Z</time>
      </trkpt>
      <trkpt lat="38.039504" lon="-6.229341">
        <time>2021-08-18T10:52:56Z</time>
      </trkpt>
      <trkpt lat="38.043688" lon="-6.232457">
        <time>2021-08-18T10:53:17Z</time>
      </trkpt>
      <trkpt lat="38.048125" lon="-6.235522">
        <time>2021-08-18T10:53:38Z</time>
      </trkpt>
      <trkpt lat="38.052489" lon="-6.238304">
        <time>2021-08-18T10:53:59Z</time>
      </trkpt>
      <trkpt lat="38.052489" lon="-6.238304">
        <time>2021-08-18T10:53:59Z</time>
      </trkpt>
      <trkpt lat="38.053667" lon="-6.238499">
        <time>2021-08-18T10:54:05Z</time>
      </trkpt>
      <trkpt lat="38.057605" lon="-6.238108">
        <time>2021-08-18T10:54:23Z</time>
      </trkpt>
      <trkpt lat="38.057605" lon="-6.238108">
        <time>2021-08-18T10:54:23Z</time>
      </trkpt>
      <trkpt lat="38.060269" lon="-6.239531">
        <time>2021-08-18T10:54:35Z</time>
      </trkpt>
      <trkpt lat="38.062189" lon="-6.240725">
        <time>2021-08-18T10:54:44Z</time>
      </trkpt>
      <trkpt lat="38.065774" lon="-6.24339">
        <time>2021-08-18T10:55:02Z</time>
      </trkpt>
      <trkpt lat="38.066447" lon="-6.243587">
        <time>2021-08-18T10:55:05Z</time>
      </trkpt>
      <trkpt lat="38.067132" lon="-6.243595">
        <time>2021-08-18T10:55:08Z</time>
      </trkpt>
      <trkpt lat="38.068487" lon="-6.243507">
        <time>2021-08-18T10:55:14Z</time>
      </trkpt>
      <trkpt lat="38.069108" lon="-6.243782">
        <time>2021-08-18T10:55:17Z</time>
      </trkpt>
      <trkpt lat="38.069615" lon="-6.24432">
        <time>2021-08-18T10:55:20Z</time>
      </trkpt>
      <trkpt lat="38.069941" lon="-6.245071">
        <time>2021-08-18T10:55:23Z</time>
      </trkpt>
      <trkpt lat="38.070101" lon="-6.245944">
        <time>2021-08-18T10:55:26Z</time>
      </trkpt>
      <trkpt lat="38.070336" lon="-6.246786">
        <time>2021-08-18T10:55:29Z</time>
      </trkpt>
      <trkpt lat="38.070788" lon="-6.247465">
        <time>2021-08-18T10:55:32Z</time>
      </trkpt>
      <trkpt lat="38.072861" lon="-6.249995">
        <time>2021-08-18T10:55:44Z</time>
      </trkpt>
      <trkpt lat="38.073231" lon="-6.250811">
        <time>2021-08-18T10:55:47Z</time>
      </trkpt>
      <trkpt lat="38.07447" lon="-6.25313">
        <time>2021-08-18T10:55:56Z</time>
      </trkpt>
      <trkpt lat="38.076615" lon="-6.255598">
        <time>2021-08-18T10:56:08Z</time>
      </trkpt>
      <trkpt lat="38.077235" lon="-6.256093">
        <time>2021-08-18T10:56:11Z</time>
      </trkpt>
      <trkpt lat="38.079663" lon="-6.258026">
        <time>2021-08-18T10:56:23Z</time>
      </trkpt>
      <trkpt lat="38.079959" lon="-6.258824">
        <time>2021-08-18T10:56:26Z</time>
      </trkpt>
      <trkpt lat="38.080123" lon="-6.259629">
        <time>2021-08-18T10:56:29Z</time>
      </trkpt>
      <trkpt lat="38.080835" lon="-6.262162">
        <time>2021-08-18T10:56:41Z</time>
      </trkpt>
      <trkpt lat="38.081109" lon="-6.262513">
        <time>2021-08-18T10:56:44Z</time>
      </trkpt>
      <trkpt lat="38.081492" lon="-6.263042">
        <time>2021-08-18T10:56:50Z</time>
      </trkpt>
      <trkpt lat="38.081672" lon="-6.263495">
        <time>2021-08-18T10:56:53Z</time>
      </trkpt>
      <trkpt lat="38.08236" lon="-6.265088">
        <time>2021-08-18T10:57:02Z</time>
      </trkpt>
      <trkpt lat="38.083462" lon="-6.267796">
        <time>2021-08-18T10:57:20Z</time>
      </trkpt>
      <trkpt lat="38.083991" lon="-6.268322">
        <time>2021-08-18T10:57:29Z</time>
      </trkpt>
      <trkpt lat="38.084605" lon="-6.268843">
        <time>2021-08-18T10:57:38Z</time>
      </trkpt>
      <trkpt lat="38.085303" lon="-6.269261">
        <time>2021-08-18T10:57:47Z</time>
      </trkpt>
      <trkpt lat="38.085303" lon="-6.269261">
        <time>2021-08-18T10:57:47Z</time>
      </trkpt>
      <trkpt lat="38.086409" lon="-6.271567">
        <time>2021-08-18T10:58:14Z</time>
      </trkpt>
      <trkpt lat="38.08788" lon="-6.272542">
        <time>2021-08-18T10:58:41Z</time>
      </trkpt>
      <trkpt lat="38.088666" lon="-6.272826">
        <time>2021-08-18T10:58:53Z</time>
      </trkpt>
      <trkpt lat="38.089746" lon="-6.27323">
        <time>2021-08-18T10:59:11Z</time>
      </trkpt>
      <trkpt lat="38.09095" lon="-6.273523">
        <time>2021-08-18T10:59:35Z</time>
      </trkpt>
      <trkpt lat="38.092818" lon="-6.275294">
        <time>2021-08-18T11:00:08Z</time>
      </trkpt>
      <trkpt lat="38.095234" lon="-6.277238">
        <time>2021-08-18T11:00:38Z</time>
      </trkpt>
      <trkpt lat="38.097121" lon="-6.278353">
        <time>2021-08-18T11:00:50Z</time>
      </trkpt>
      <trkpt lat="38.098767" lon="-6.279104">
        <time>2021-08-18T11:00:59Z</time>
      </trkpt>
      <trkpt lat="38.102043" lon="-6.279618">
        <time>2021-08-18T11:01:14Z</time>
      </trkpt>
      <trkpt lat="38.103331" lon="-6.279634">
        <time>2021-08-18T11:01:20Z</time>
      </trkpt>
      <trkpt lat="38.103943" lon="-6.279294">
        <time>2021-08-18T11:01:23Z</time>
      </trkpt>
      <trkpt lat="38.104467" lon="-6.278736">
        <time>2021-08-18T11:01:26Z</time>
      </trkpt>
      <trkpt lat="38.105985" lon="-6.277129">
        <time>2021-08-18T11:01:35Z</time>
      </trkpt>
      <trkpt lat="38.106915" lon="-6.276435">
        <time>2021-08-18T11:01:41Z</time>
      </trkpt>
      <trkpt lat="38.1079" lon="-6.276207">
        <time>2021-08-18T11:01:47Z</time>
      </trkpt>
      <trkpt lat="38.109968" lon="-6.27672">
        <time>2021-08-18T11:01:59Z</time>
      </trkpt>
      <trkpt lat="38.110472" lon="-6.276665">
        <time>2021-08-18T11:02:02Z</time>
      </trkpt>
      <trkpt lat="38.110952" lon="-6.276439">
        <time>2021-08-18T11:02:05Z</time>
      </trkpt>
      <trkpt lat="38.111982" lon="-6.275474">
        <time>2021-08-18T11:02:11Z</time>
      </trkpt>
      <trkpt lat="38.114341" lon="-6.272938">
        <time>2021-08-18T11:02:23Z</time>
      </trkpt>
      <trkpt lat="38.116112" lon="-6.271266">
        <time>2021-08-18T11:02:32Z</time>
      </trkpt>
      <trkpt lat="38.116813" lon="-6.271072">
        <time>2021-08-18T11:02:35Z</time>
      </trkpt>
      <trkpt lat="38.117541" lon="-6.271164">
        <time>2021-08-18T11:02:38Z</time>
      </trkpt>
      <trkpt lat="38.118944" lon="-6.272015">
        <time>2021-08-18T11:02:44Z</time>
      </trkpt>
      <trkpt lat="38.123332" lon="-6.27498">
        <time>2021-08-18T11:03:02Z</time>
      </trkpt>
      <trkpt lat="38.12545" lon="-6.275879">
        <time>2021-08-18T11:03:11Z</time>
      </trkpt>
      <trkpt lat="38.127652" lon="-6.276217">
        <time>2021-08-18T11:03:20Z</time>
      </trkpt>
      <trkpt lat="38.128276" lon="-6.276746">
        <time>2021-08-18T11:03:23Z</time>
      </trkpt>
      <trkpt lat="38.128276" lon="-6.276746">
        <time>2021-08-18T11:03:23Z</time>
      </trkpt>
      <trkpt lat="38.130147" lon="-6.27839">
        <time>2021-08-18T11:03:32Z</time>
      </trkpt>
      <trkpt lat="38.132414" lon="-6.278736">
        <time>2021-08-18T11:03:41Z</time>
      </trkpt>
      <trkpt lat="38.132414" lon="-6.278736">
        <time>2021-08-18T11:03:41Z</time>
      </trkpt>
      <trkpt lat="38.133905" lon="-6.278141">
        <time>2021-08-18T11:03:47Z</time>
      </trkpt>
      <trkpt lat="38.135342" lon="-6.27781">
        <time>2021-08-18T11:03:53Z</time>
      </trkpt>
      <trkpt lat="38.136051" lon="-6.278042">
        <time>2021-08-18T11:03:56Z</time>
      </trkpt>
      <trkpt lat="38.136672" lon="-6.278511">
        <time>2021-08-18T11:03:59Z</time>
      </trkpt>
      <trkpt lat="38.136672" lon="-6.278511">
        <time>2021-08-18T11:03:59Z</time>
      </trkpt>
      <trkpt lat="38.137166" lon="-6.279215">
        <time>2021-08-18T11:04:02Z</time>
      </trkpt>
      <trkpt lat="38.138657" lon="-6.28136">
        <time>2021-08-18T11:04:11Z</time>
      </trkpt>
      <trkpt lat="38.140129" lon="-6.282082">
        <time>2021-08-18T11:04:17Z</time>
      </trkpt>
      <trkpt lat="38.140129" lon="-6.282082">
        <time>2021-08-18T11:04:17Z</time>
      </trkpt>
      <trkpt lat="38.141731" lon="-6.281925">
        <time>2021-08-18T11:04:23Z</time>
      </trkpt>
      <trkpt lat="38.143146" lon="-6.280859">
        <time>2021-08-18T11:04:29Z</time>
      </trkpt>
      <trkpt lat="38.144419" lon="-6.279579">
        <time>2021-08-18T11:04:35Z</time>
      </trkpt>
      <trkpt lat="38.145163" lon="-6.279201">
        <time>2021-08-18T11:04:38Z</time>
      </trkpt>
      <trkpt lat="38.146686" lon="-6.27909">
        <time>2021-08-18T11:04:44Z</time>
      </trkpt>
      <trkpt lat="38.148061" lon="-6.279758">
        <time>2021-08-18T11:04:50Z</time>
      </trkpt>
      <trkpt lat="38.148711" lon="-6.280301">
        <time>2021-08-18T11:04:53Z</time>
      </trkpt>
      <trkpt lat="38.152608" lon="-6.283654">
        <time>2021-08-18T11:05:11Z</time>
      </trkpt>
      <trkpt lat="38.154582" lon="-6.284828">
        <time>2021-08-18T11:05:20Z</time>
      </trkpt>
      <trkpt lat="38.157422" lon="-6.285651">
        <time>2021-08-18T11:05:32Z</time>
      </trkpt>
      <trkpt lat="38.159507" lon="-6.285846">
        <time>2021-08-18T11:05:41Z</time>
      </trkpt>
      <trkpt lat="38.160916" lon="-6.285372">
        <time>2021-08-18T11:05:47Z</time>
      </trkpt>
      <trkpt lat="38.162341" lon="-6.284525">
        <time>2021-08-18T11:05:53Z</time>
      </trkpt>
      <trkpt lat="38.16677" lon="-6.28183">
        <time>2021-08-18T11:06:11Z</time>
      </trkpt>
      <trkpt lat="38.170288" lon="-6.280057">
        <time>2021-08-18T11:06:26Z</time>
      </trkpt>
      <trkpt lat="38.171018" lon="-6.280194">
        <time>2021-08-18T11:06:29Z</time>
      </trkpt>
      <trkpt lat="38.175636" lon="-6.281614">
        <time>2021-08-18T11:06:47Z</time>
      </trkpt>
      <trkpt lat="38.180263" lon="-6.282837">
        <time>2021-08-18T11:07:05Z</time>
      </trkpt>
      <trkpt lat="38.181854" lon="-6.282858">
        <time>2021-08-18T11:07:11Z</time>
      </trkpt>
      <trkpt lat="38.183352" lon="-6.282265">
        <time>2021-08-18T11:07:17Z</time>
      </trkpt>
      <trkpt lat="38.184709" lon="-6.281331">
        <time>2021-08-18T11:07:23Z</time>
      </trkpt>
      <trkpt lat="38.185416" lon="-6.280967">
        <time>2021-08-18T11:07:26Z</time>
      </trkpt>
      <trkpt lat="38.186173" lon="-6.280911">
        <time>2021-08-18T11:07:29Z</time>
      </trkpt>
      <trkpt lat="38.187642" lon="-6.281528">
        <time>2021-08-18T11:07:35Z</time>
      </trkpt>
      <trkpt lat="38.189143" lon="-6.282237">
        <time>2021-08-18T11:07:41Z</time>
      </trkpt>
      <trkpt lat="38.193806" lon="-6.284486">
        <time>2021-08-18T11:07:59Z</time>
      </trkpt>
      <trkpt lat="38.198532" lon="-6.286771">
        <time>2021-08-18T11:08:17Z</time>
      </trkpt>
      <trkpt lat="38.2033" lon="-6.289076">
        <time>2021-08-18T11:08:35Z</time>
      </trkpt>
      <trkpt lat="38.205698" lon="-6.289919">
        <time>2021-08-18T11:08:44Z</time>
      </trkpt>
      <trkpt lat="38.208138" lon="-6.290036">
        <time>2021-08-18T11:08:53Z</time>
      </trkpt>
      <trkpt lat="38.213141" lon="-6.290256">
        <time>2021-08-18T11:09:11Z</time>
      </trkpt>
      <trkpt lat="38.216418" lon="-6.290589">
        <time>2021-08-18T11:09:23Z</time>
      </trkpt>
      <trkpt lat="38.217845" lon="-6.291475">
        <time>2021-08-18T11:09:29Z</time>
      </trkpt>
      <trkpt lat="38.222234" lon="-6.294478">
        <time>2021-08-18T11:09:47Z</time>
      </trkpt>
      <trkpt lat="38.222234" lon="-6.294478">
        <time>2021-08-18T11:09:47Z</time>
      </trkpt>
      <trkpt lat="38.226073" lon="-6.298414">
        <time>2021-08-18T11:10:05Z</time>
      </trkpt>
      <trkpt lat="38.226073" lon="-6.298414">
        <time>2021-08-18T11:10:05Z</time>
      </trkpt>
      <trkpt lat="38.230635" lon="-6.300344">
        <time>2021-08-18T11:10:23Z</time>
      </trkpt>
      <trkpt lat="38.231401" lon="-6.300453">
        <time>2021-08-18T11:10:26Z</time>
      </trkpt>
      <trkpt lat="38.23535" lon="-6.300569">
        <time>2021-08-18T11:10:41Z</time>
      </trkpt>
      <trkpt lat="38.240299" lon="-6.300866">
        <time>2021-08-18T11:11:02Z</time>
      </trkpt>
      <trkpt lat="38.243123" lon="-6.300943">
        <time>2021-08-18T11:11:20Z</time>
      </trkpt>
      <trkpt lat="38.244922" lon="-6.300186">
        <time>2021-08-18T11:11:35Z</time>
      </trkpt>
      <trkpt lat="38.246087" lon="-6.299889">
        <time>2021-08-18T11:11:44Z</time>
      </trkpt>
      <trkpt lat="38.246477" lon="-6.300093">
        <time>2021-08-18T11:11:50Z</time>
      </trkpt>
      <trkpt lat="38.246511" lon="-6.300256">
        <time>2021-08-18T11:11:53Z</time>
      </trkpt>
      <trkpt lat="38.246664" lon="-6.300305">
        <time>2021-08-18T11:11:56Z</time>
      </trkpt>
      <trkpt lat="38.246827" lon="-6.300312">
        <time>2021-08-18T11:11:59Z</time>
      </trkpt>
      <trkpt lat="38.246911" lon="-6.300365">
        <time>2021-08-18T11:12:02Z</time>
      </trkpt>
      <trkpt lat="38.246904" lon="-6.300435">
        <time>2021-08-18T11:12:05Z</time>
      </trkpt>
      <trkpt lat="38.24688" lon="-6.300424">
        <time>2021-08-18T11:12:38Z</time>
      </trkpt>
      <trkpt lat="38.246867" lon="-6.300387">
        <time>2021-08-18T11:12:41Z</time>
      </trkpt>
      <trkpt lat="38.246884" lon="-6.300378">
        <time>2021-08-18T11:12:44Z</time>
      </trkpt>
      <trkpt lat="38.246917" lon="-6.300378">
        <time>2021-08-18T11:12:47Z</time>
      </trkpt>
      <trkpt lat="38.246898" lon="-6.300365">
        <time>2021-08-18T11:13:11Z</time>
      </trkpt>
      <trkpt lat="38.246898" lon="-6.300365">
        <time>2021-08-18T11:13:11Z</time>
      </trkpt>
      <trkpt lat="38.246967" lon="-6.30059">
        <time>2021-08-18T11:20:34Z</time>
      </trkpt>
      <trkpt lat="38.246967" lon="-6.30059">
        <time>2021-08-18T11:21:17Z</time>
      </trkpt>
      <trkpt lat="38.246967" lon="-6.30059">
        <time>2021-08-18T11:23:36Z</time>
      </trkpt>
      <trkpt lat="38.246967" lon="-6.30059">
        <time>2021-08-18T11:23:36Z</time>
      </trkpt>
      <trkpt lat="38.246997" lon="-6.300476">
        <time>2021-08-18T11:24:41Z</time>
      </trkpt>
      <trkpt lat="38.246997" lon="-6.300476">
        <time>2021-08-18T11:25:23Z</time>
      </trkpt>
      <trkpt lat="38.246997" lon="-6.300476">
        <time>2021-08-18T11:27:12Z</time>
      </trkpt>
      <trkpt lat="38.246997" lon="-6.300476">
        <time>2021-08-18T11:28:13Z</time>
      </trkpt>
      <trkpt lat="38.246997" lon="-6.300476">
        <time>2021-08-18T11:28:25Z</time>
      </trkpt>
      <trkpt lat="38.246896" lon="-6.300297">
        <time>2021-08-18T11:29:47Z</time>
      </trkpt>
      <trkpt lat="38.246802" lon="-6.300255">
        <time>2021-08-18T11:29:50Z</time>
      </trkpt>
      <trkpt lat="38.246526" lon="-6.300175">
        <time>2021-08-18T11:29:59Z</time>
      </trkpt>
      <trkpt lat="38.246514" lon="-6.300055">
        <time>2021-08-18T11:30:02Z</time>
      </trkpt>
      <trkpt lat="38.246549" lon="-6.300015">
        <time>2021-08-18T11:30:11Z</time>
      </trkpt>
      <trkpt lat="38.246749" lon="-6.300094">
        <time>2021-08-18T11:30:14Z</time>
      </trkpt>
      <trkpt lat="38.250234" lon="-6.301289">
        <time>2021-08-18T11:30:41Z</time>
      </trkpt>
      <trkpt lat="38.254847" lon="-6.302619">
        <time>2021-08-18T11:31:11Z</time>
      </trkpt>
      <trkpt lat="38.254321" lon="-6.302487">
        <time>2021-08-18T11:31:12Z</time>
      </trkpt>
      <trkpt lat="38.259653" lon="-6.303923">
        <time>2021-08-18T11:31:35Z</time>
      </trkpt>
      <trkpt lat="38.259653" lon="-6.303923">
        <time>2021-08-18T11:31:35Z</time>
      </trkpt>
      <trkpt lat="38.259653" lon="-6.303923">
        <time>2021-08-18T11:31:35Z</time>
      </trkpt>
      <trkpt lat="38.259653" lon="-6.303923">
        <time>2021-08-18T11:31:35Z</time>
      </trkpt>
      <trkpt lat="38.259653" lon="-6.303923">
        <time>2021-08-18T11:31:35Z</time>
      </trkpt>
      <trkpt lat="38.259653" lon="-6.303923">
        <time>2021-08-18T11:31:35Z</time>
      </trkpt>
      <trkpt lat="38.264276" lon="-6.305106">
        <time>2021-08-18T11:31:56Z</time>
      </trkpt>
      <trkpt lat="38.269266" lon="-6.306351">
        <time>2021-08-18T11:32:17Z</time>
      </trkpt>
      <trkpt lat="38.269266" lon="-6.306351">
        <time>2021-08-18T11:32:17Z</time>
      </trkpt>
      <trkpt lat="38.274165" lon="-6.307566">
        <time>2021-08-18T11:32:38Z</time>
      </trkpt>
      <trkpt lat="38.278833" lon="-6.309345">
        <time>2021-08-18T11:32:59Z</time>
      </trkpt>
      <trkpt lat="38.281276" lon="-6.310355">
        <time>2021-08-18T11:33:11Z</time>
      </trkpt>
      <trkpt lat="38.283319" lon="-6.310408">
        <time>2021-08-18T11:33:20Z</time>
      </trkpt>
      <trkpt lat="38.287846" lon="-6.310541">
        <time>2021-08-18T11:33:38Z</time>
      </trkpt>
      <trkpt lat="38.292536" lon="-6.310683">
        <time>2021-08-18T11:33:56Z</time>
      </trkpt>
      <trkpt lat="38.297505" lon="-6.310838">
        <time>2021-08-18T11:34:17Z</time>
      </trkpt>
      <trkpt lat="38.302368" lon="-6.311464">
        <time>2021-08-18T11:34:53Z</time>
      </trkpt>
      <trkpt lat="38.303167" lon="-6.311718">
        <time>2021-08-18T11:34:59Z</time>
      </trkpt>
      <trkpt lat="38.305835" lon="-6.312604">
        <time>2021-08-18T11:35:14Z</time>
      </trkpt>
      <trkpt lat="38.307171" lon="-6.312788">
        <time>2021-08-18T11:35:20Z</time>
      </trkpt>
      <trkpt lat="38.312159" lon="-6.313061">
        <time>2021-08-18T11:35:41Z</time>
      </trkpt>
      <trkpt lat="38.316471" lon="-6.312788">
        <time>2021-08-18T11:35:59Z</time>
      </trkpt>
      <trkpt lat="38.317127" lon="-6.313132">
        <time>2021-08-18T11:36:02Z</time>
      </trkpt>
      <trkpt lat="38.319049" lon="-6.314424">
        <time>2021-08-18T11:36:11Z</time>
      </trkpt>
      <trkpt lat="38.321418" lon="-6.316708">
        <time>2021-08-18T11:36:23Z</time>
      </trkpt>
      <trkpt lat="38.324954" lon="-6.320558">
        <time>2021-08-18T11:36:41Z</time>
      </trkpt>
      <trkpt lat="38.325589" lon="-6.320983">
        <time>2021-08-18T11:36:44Z</time>
      </trkpt>
      <trkpt lat="38.326285" lon="-6.321146">
        <time>2021-08-18T11:36:47Z</time>
      </trkpt>
      <trkpt lat="38.32988" lon="-6.320607">
        <time>2021-08-18T11:37:02Z</time>
      </trkpt>
      <trkpt lat="38.334701" lon="-6.319965">
        <time>2021-08-18T11:37:23Z</time>
      </trkpt>
      <trkpt lat="38.336048" lon="-6.319675">
        <time>2021-08-18T11:37:29Z</time>
      </trkpt>
      <trkpt lat="38.339321" lon="-6.318501">
        <time>2021-08-18T11:37:44Z</time>
      </trkpt>
      <trkpt lat="38.342758" lon="-6.317745">
        <time>2021-08-18T11:37:59Z</time>
      </trkpt>
      <trkpt lat="38.344241" lon="-6.318384">
        <time>2021-08-18T11:38:05Z</time>
      </trkpt>
      <trkpt lat="38.344241" lon="-6.318384">
        <time>2021-08-18T11:38:05Z</time>
      </trkpt>
      <trkpt lat="38.348184" lon="-6.321616">
        <time>2021-08-18T11:38:20Z</time>
      </trkpt>
      <trkpt lat="38.352171" lon="-6.324925">
        <time>2021-08-18T11:38:38Z</time>
      </trkpt>
      <trkpt lat="38.356533" lon="-6.327451">
        <time>2021-08-18T11:38:56Z</time>
      </trkpt>
      <trkpt lat="38.357995" lon="-6.328148">
        <time>2021-08-18T11:39:02Z</time>
      </trkpt>
      <trkpt lat="38.360982" lon="-6.329445">
        <time>2021-08-18T11:39:14Z</time>
      </trkpt>
      <trkpt lat="38.365478" lon="-6.33098">
        <time>2021-08-18T11:39:32Z</time>
      </trkpt>
      <trkpt lat="38.370488" lon="-6.332219">
        <time>2021-08-18T11:39:53Z</time>
      </trkpt>
      <trkpt lat="38.370488" lon="-6.332219">
        <time>2021-08-18T11:39:53Z</time>
      </trkpt>
      <trkpt lat="38.37097" lon="-6.332695">
        <time>2021-08-18T11:39:56Z</time>
      </trkpt>
      <trkpt lat="38.374265" lon="-6.336414">
        <time>2021-08-18T11:40:14Z</time>
      </trkpt>
      <trkpt lat="38.374265" lon="-6.336414">
        <time>2021-08-18T11:40:14Z</time>
      </trkpt>
      <trkpt lat="38.378391" lon="-6.339044">
        <time>2021-08-18T11:40:32Z</time>
      </trkpt>
      <trkpt lat="38.379869" lon="-6.339641">
        <time>2021-08-18T11:40:38Z</time>
      </trkpt>
      <trkpt lat="38.382618" lon="-6.341228">
        <time>2021-08-18T11:40:50Z</time>
      </trkpt>
      <trkpt lat="38.386735" lon="-6.34375">
        <time>2021-08-18T11:41:08Z</time>
      </trkpt>
      <trkpt lat="38.390973" lon="-6.345772">
        <time>2021-08-18T11:41:26Z</time>
      </trkpt>
      <trkpt lat="38.39234" lon="-6.346203">
        <time>2021-08-18T11:41:32Z</time>
      </trkpt>
      <trkpt lat="38.396076" lon="-6.347136">
        <time>2021-08-18T11:41:47Z</time>
      </trkpt>
      <trkpt lat="38.400963" lon="-6.348596">
        <time>2021-08-18T11:42:08Z</time>
      </trkpt>
      <trkpt lat="38.405872" lon="-6.350469">
        <time>2021-08-18T11:42:29Z</time>
      </trkpt>
      <trkpt lat="38.407349" lon="-6.350512">
        <time>2021-08-18T11:42:35Z</time>
      </trkpt>
      <trkpt lat="38.410428" lon="-6.350324">
        <time>2021-08-18T11:42:47Z</time>
      </trkpt>
      <trkpt lat="38.415008" lon="-6.349844">
        <time>2021-08-18T11:43:05Z</time>
      </trkpt>
      <trkpt lat="38.417186" lon="-6.349885">
        <time>2021-08-18T11:43:14Z</time>
      </trkpt>
      <trkpt lat="38.419933" lon="-6.350922">
        <time>2021-08-18T11:43:26Z</time>
      </trkpt>
      <trkpt lat="38.422719" lon="-6.352212">
        <time>2021-08-18T11:43:38Z</time>
      </trkpt>
      <trkpt lat="38.424513" lon="-6.353976">
        <time>2021-08-18T11:43:47Z</time>
      </trkpt>
      <trkpt lat="38.427555" lon="-6.356855">
        <time>2021-08-18T11:44:02Z</time>
      </trkpt>
      <trkpt lat="38.428264" lon="-6.357196">
        <time>2021-08-18T11:44:05Z</time>
      </trkpt>
      <trkpt lat="38.429526" lon="-6.358224">
        <time>2021-08-18T11:44:11Z</time>
      </trkpt>
      <trkpt lat="38.432103" lon="-6.360402">
        <time>2021-08-18T11:44:23Z</time>
      </trkpt>
      <trkpt lat="38.43276" lon="-6.36075">
        <time>2021-08-18T11:44:26Z</time>
      </trkpt>
      <trkpt lat="38.433467" lon="-6.360848">
        <time>2021-08-18T11:44:29Z</time>
      </trkpt>
      <trkpt lat="38.434182" lon="-6.360707">
        <time>2021-08-18T11:44:32Z</time>
      </trkpt>
      <trkpt lat="38.436935" lon="-6.358961">
        <time>2021-08-18T11:44:44Z</time>
      </trkpt>
      <trkpt lat="38.441087" lon="-6.356264">
        <time>2021-08-18T11:45:02Z</time>
      </trkpt>
      <trkpt lat="38.443129" lon="-6.355333">
        <time>2021-08-18T11:45:11Z</time>
      </trkpt>
      <trkpt lat="38.444522" lon="-6.355692">
        <time>2021-08-18T11:45:17Z</time>
      </trkpt>
      <trkpt lat="38.44513" lon="-6.356162">
        <time>2021-08-18T11:45:20Z</time>
      </trkpt>
      <trkpt lat="38.445678" lon="-6.356749">
        <time>2021-08-18T11:45:23Z</time>
      </trkpt>
      <trkpt lat="38.449562" lon="-6.36088">
        <time>2021-08-18T11:45:44Z</time>
      </trkpt>
      <trkpt lat="38.452902" lon="-6.36407">
        <time>2021-08-18T11:46:05Z</time>
      </trkpt>
      <trkpt lat="38.453541" lon="-6.364273">
        <time>2021-08-18T11:46:08Z</time>
      </trkpt>
      <trkpt lat="38.455485" lon="-6.364445">
        <time>2021-08-18T11:46:17Z</time>
      </trkpt>
      <trkpt lat="38.458089" lon="-6.364523">
        <time>2021-08-18T11:46:29Z</time>
      </trkpt>
      <trkpt lat="38.462811" lon="-6.364671">
        <time>2021-08-18T11:46:53Z</time>
      </trkpt>
      <trkpt lat="38.467699" lon="-6.364333">
        <time>2021-08-18T11:47:17Z</time>
      </trkpt>
      <trkpt lat="38.468838" lon="-6.364031">
        <time>2021-08-18T11:47:23Z</time>
      </trkpt>
      <trkpt lat="38.472653" lon="-6.362944">
        <time>2021-08-18T11:47:41Z</time>
      </trkpt>
      <trkpt lat="38.47714" lon="-6.361494">
        <time>2021-08-18T11:47:59Z</time>
      </trkpt>
      <trkpt lat="38.481808" lon="-6.359922">
        <time>2021-08-18T11:48:17Z</time>
      </trkpt>
      <trkpt lat="38.486657" lon="-6.358298">
        <time>2021-08-18T11:48:35Z</time>
      </trkpt>
      <trkpt lat="38.491477" lon="-6.35669">
        <time>2021-08-18T11:48:53Z</time>
      </trkpt>
      <trkpt lat="38.493041" lon="-6.356512">
        <time>2021-08-18T11:48:59Z</time>
      </trkpt>
      <trkpt lat="38.496099" lon="-6.356698">
        <time>2021-08-18T11:49:11Z</time>
      </trkpt>
      <trkpt lat="38.500918" lon="-6.357013">
        <time>2021-08-18T11:49:29Z</time>
      </trkpt>
      <trkpt lat="38.503983" lon="-6.35686">
        <time>2021-08-18T11:49:41Z</time>
      </trkpt>
      <trkpt lat="38.505573" lon="-6.35637">
        <time>2021-08-18T11:49:47Z</time>
      </trkpt>
      <trkpt lat="38.510365" lon="-6.354944">
        <time>2021-08-18T11:50:05Z</time>
      </trkpt>
      <trkpt lat="38.514813" lon="-6.353615">
        <time>2021-08-18T11:50:23Z</time>
      </trkpt>
      <trkpt lat="38.519286" lon="-6.352249">
        <time>2021-08-18T11:50:41Z</time>
      </trkpt>
      <trkpt lat="38.524016" lon="-6.350925">
        <time>2021-08-18T11:50:59Z</time>
      </trkpt>
      <trkpt lat="38.528774" lon="-6.349551">
        <time>2021-08-18T11:51:17Z</time>
      </trkpt>
      <trkpt lat="38.531028" lon="-6.349265">
        <time>2021-08-18T11:51:26Z</time>
      </trkpt>
      <trkpt lat="38.53374" lon="-6.350258">
        <time>2021-08-18T11:51:38Z</time>
      </trkpt>
      <trkpt lat="38.538301" lon="-6.351413">
        <time>2021-08-18T11:51:59Z</time>
      </trkpt>
      <trkpt lat="38.539057" lon="-6.351355">
        <time>2021-08-18T11:52:02Z</time>
      </trkpt>
      <trkpt lat="38.542811" lon="-6.350995">
        <time>2021-08-18T11:52:17Z</time>
      </trkpt>
      <trkpt lat="38.547931" lon="-6.35066">
        <time>2021-08-18T11:52:38Z</time>
      </trkpt>
      <trkpt lat="38.552829" lon="-6.350267">
        <time>2021-08-18T11:52:59Z</time>
      </trkpt>
      <trkpt lat="38.553538" lon="-6.350338">
        <time>2021-08-18T11:53:02Z</time>
      </trkpt>
      <trkpt lat="38.557438" lon="-6.350062">
        <time>2021-08-18T11:53:23Z</time>
      </trkpt>
      <trkpt lat="38.562256" lon="-6.350046">
        <time>2021-08-18T11:53:53Z</time>
      </trkpt>
      <trkpt lat="38.566816" lon="-6.35029">
        <time>2021-08-18T11:54:20Z</time>
      </trkpt>
      <trkpt lat="38.567834" lon="-6.350555">
        <time>2021-08-18T11:54:26Z</time>
      </trkpt>
      <trkpt lat="38.570999" lon="-6.351483">
        <time>2021-08-18T11:54:50Z</time>
      </trkpt>
      <trkpt lat="38.571232" lon="-6.351416">
        <time>2021-08-18T11:54:53Z</time>
      </trkpt>
      <trkpt lat="38.571465" lon="-6.351521">
        <time>2021-08-18T11:54:56Z</time>
      </trkpt>
      <trkpt lat="38.571992" lon="-6.35187">
        <time>2021-08-18T11:55:02Z</time>
      </trkpt>
      <trkpt lat="38.575671" lon="-6.353231">
        <time>2021-08-18T11:55:23Z</time>
      </trkpt>
      <trkpt lat="38.580388" lon="-6.355507">
        <time>2021-08-18T11:55:47Z</time>
      </trkpt>
      <trkpt lat="38.584942" lon="-6.356528">
        <time>2021-08-18T11:56:08Z</time>
      </trkpt>
      <trkpt lat="38.589438" lon="-6.358186">
        <time>2021-08-18T11:56:26Z</time>
      </trkpt>
      <trkpt lat="38.594329" lon="-6.36012">
        <time>2021-08-18T11:56:47Z</time>
      </trkpt>
      <trkpt lat="38.598809" lon="-6.361977">
        <time>2021-08-18T11:57:05Z</time>
      </trkpt>
      <trkpt lat="38.602925" lon="-6.362836">
        <time>2021-08-18T11:57:23Z</time>
      </trkpt>
      <trkpt lat="38.60358" lon="-6.362808">
        <time>2021-08-18T11:57:26Z</time>
      </trkpt>
      <trkpt lat="38.608548" lon="-6.362599">
        <time>2021-08-18T11:57:50Z</time>
      </trkpt>
      <trkpt lat="38.613255" lon="-6.36239">
        <time>2021-08-18T11:58:08Z</time>
      </trkpt>
      <trkpt lat="38.617596" lon="-6.362775">
        <time>2021-08-18T11:58:23Z</time>
      </trkpt>
      <trkpt lat="38.618431" lon="-6.363065">
        <time>2021-08-18T11:58:26Z</time>
      </trkpt>
      <trkpt lat="38.623093" lon="-6.364953">
        <time>2021-08-18T11:58:44Z</time>
      </trkpt>
      <trkpt lat="38.627455" lon="-6.36671">
        <time>2021-08-18T11:59:02Z</time>
      </trkpt>
      <trkpt lat="38.632338" lon="-6.368681">
        <time>2021-08-18T11:59:23Z</time>
      </trkpt>
      <trkpt lat="38.6367" lon="-6.370447">
        <time>2021-08-18T11:59:41Z</time>
      </trkpt>
      <trkpt lat="38.641468" lon="-6.372379">
        <time>2021-08-18T11:59:59Z</time>
      </trkpt>
      <trkpt lat="38.645835" lon="-6.374136">
        <time>2021-08-18T12:00:17Z</time>
      </trkpt>
      <trkpt lat="38.650119" lon="-6.37588">
        <time>2021-08-18T12:00:35Z</time>
      </trkpt>
      <trkpt lat="38.65456" lon="-6.377695">
        <time>2021-08-18T12:00:53Z</time>
      </trkpt>
      <trkpt lat="38.65517" lon="-6.378086">
        <time>2021-08-18T12:00:56Z</time>
      </trkpt>
      <trkpt lat="38.656421" lon="-6.378562">
        <time>2021-08-18T12:01:02Z</time>
      </trkpt>
      <trkpt lat="38.658331" lon="-6.378853">
        <time>2021-08-18T12:01:11Z</time>
      </trkpt>
      <trkpt lat="38.658906" lon="-6.37874">
        <time>2021-08-18T12:01:14Z</time>
      </trkpt>
      <trkpt lat="38.661004" lon="-6.378261">
        <time>2021-08-18T12:01:29Z</time>
      </trkpt>
      <trkpt lat="38.661689" lon="-6.378523">
        <time>2021-08-18T12:01:35Z</time>
      </trkpt>
      <trkpt lat="38.663031" lon="-6.379835">
        <time>2021-08-18T12:01:50Z</time>
      </trkpt>
      <trkpt lat="38.663685" lon="-6.380385">
        <time>2021-08-18T12:01:59Z</time>
      </trkpt>
      <trkpt lat="38.663898" lon="-6.380406">
        <time>2021-08-18T12:02:02Z</time>
      </trkpt>
      <trkpt lat="38.664131" lon="-6.380477">
        <time>2021-08-18T12:02:05Z</time>
      </trkpt>
      <trkpt lat="38.66427" lon="-6.380719">
        <time>2021-08-18T12:02:08Z</time>
      </trkpt>
      <trkpt lat="38.664464" lon="-6.381289">
        <time>2021-08-18T12:02:14Z</time>
      </trkpt>
      <trkpt lat="38.66649" lon="-6.383385">
        <time>2021-08-18T12:02:38Z</time>
      </trkpt>
      <trkpt lat="38.67015" lon="-6.387059">
        <time>2021-08-18T12:03:17Z</time>
      </trkpt>
      <trkpt lat="38.6706" lon="-6.387465">
        <time>2021-08-18T12:03:23Z</time>
      </trkpt>
      <trkpt lat="38.670719" lon="-6.387509">
        <time>2021-08-18T12:03:26Z</time>
      </trkpt>
      <trkpt lat="38.670869" lon="-6.387561">
        <time>2021-08-18T12:03:29Z</time>
      </trkpt>
      <trkpt lat="38.671004" lon="-6.38778">
        <time>2021-08-18T12:03:32Z</time>
      </trkpt>
      <trkpt lat="38.6712" lon="-6.388023">
        <time>2021-08-18T12:03:35Z</time>
      </trkpt>
      <trkpt lat="38.673836" lon="-6.390536">
        <time>2021-08-18T12:04:02Z</time>
      </trkpt>
      <trkpt lat="38.67573" lon="-6.392264">
        <time>2021-08-18T12:04:23Z</time>
      </trkpt>
      <trkpt lat="38.676016" lon="-6.392495">
        <time>2021-08-18T12:04:29Z</time>
      </trkpt>
      <trkpt lat="38.676149" lon="-6.392727">
        <time>2021-08-18T12:04:32Z</time>
      </trkpt>
      <trkpt lat="38.677484" lon="-6.394013">
        <time>2021-08-18T12:04:47Z</time>
      </trkpt>
      <trkpt lat="38.681209" lon="-6.397557">
        <time>2021-08-18T12:05:20Z</time>
      </trkpt>
      <trkpt lat="38.682162" lon="-6.398426">
        <time>2021-08-18T12:05:29Z</time>
      </trkpt>
      <trkpt lat="38.682363" lon="-6.398575">
        <time>2021-08-18T12:05:32Z</time>
      </trkpt>
      <trkpt lat="38.682964" lon="-6.399228">
        <time>2021-08-18T12:05:38Z</time>
      </trkpt>
      <trkpt lat="38.683757" lon="-6.399937">
        <time>2021-08-18T12:05:50Z</time>
      </trkpt>
      <trkpt lat="38.683879" lon="-6.400117">
        <time>2021-08-18T12:05:53Z</time>
      </trkpt>
      <trkpt lat="38.684119" lon="-6.400382">
        <time>2021-08-18T12:05:56Z</time>
      </trkpt>
      <trkpt lat="38.684837" lon="-6.401064">
        <time>2021-08-18T12:06:02Z</time>
      </trkpt>
      <trkpt lat="38.688321" lon="-6.404433">
        <time>2021-08-18T12:06:35Z</time>
      </trkpt>
      <trkpt lat="38.688523" lon="-6.404714">
        <time>2021-08-18T12:06:38Z</time>
      </trkpt>
      <trkpt lat="38.688523" lon="-6.404714">
        <time>2021-08-18T12:06:38Z</time>
      </trkpt>
      <trkpt lat="38.690159" lon="-6.406027">
        <time>2021-08-18T12:06:56Z</time>
      </trkpt>
      <trkpt lat="38.690554" lon="-6.405961">
        <time>2021-08-18T12:06:59Z</time>
      </trkpt>
      <trkpt lat="38.691388" lon="-6.405586">
        <time>2021-08-18T12:07:08Z</time>
      </trkpt>
      <trkpt lat="38.691578" lon="-6.405448">
        <time>2021-08-18T12:07:11Z</time>
      </trkpt>
      <trkpt lat="38.692323" lon="-6.405387">
        <time>2021-08-18T12:07:17Z</time>
      </trkpt>
      <trkpt lat="38.692816" lon="-6.405218">
        <time>2021-08-18T12:07:20Z</time>
      </trkpt>
      <trkpt lat="38.697515" lon="-6.403672">
        <time>2021-08-18T12:07:50Z</time>
      </trkpt>
      <trkpt lat="38.699342" lon="-6.402898">
        <time>2021-08-18T12:08:05Z</time>
      </trkpt>
      <trkpt lat="38.699604" lon="-6.402882">
        <time>2021-08-18T12:08:08Z</time>
      </trkpt>
      <trkpt lat="38.699952" lon="-6.402899">
        <time>2021-08-18T12:08:11Z</time>
      </trkpt>
      <trkpt lat="38.702036" lon="-6.402198">
        <time>2021-08-18T12:08:23Z</time>
      </trkpt>
      <trkpt lat="38.704247" lon="-6.401334">
        <time>2021-08-18T12:08:38Z</time>
      </trkpt>
      <trkpt lat="38.704499" lon="-6.401235">
        <time>2021-08-18T12:08:41Z</time>
      </trkpt>
      <trkpt lat="38.705291" lon="-6.401114">
        <time>2021-08-18T12:08:47Z</time>
      </trkpt>
      <trkpt lat="38.706858" lon="-6.4006">
        <time>2021-08-18T12:08:56Z</time>
      </trkpt>
      <trkpt lat="38.709958" lon="-6.399479">
        <time>2021-08-18T12:09:17Z</time>
      </trkpt>
      <trkpt lat="38.710093" lon="-6.399221">
        <time>2021-08-18T12:09:20Z</time>
      </trkpt>
      <trkpt lat="38.710259" lon="-6.399026">
        <time>2021-08-18T12:09:23Z</time>
      </trkpt>
      <trkpt lat="38.710522" lon="-6.399056">
        <time>2021-08-18T12:09:26Z</time>
      </trkpt>
      <trkpt lat="38.711109" lon="-6.399208">
        <time>2021-08-18T12:09:32Z</time>
      </trkpt>
      <trkpt lat="38.711109" lon="-6.399208">
        <time>2021-08-18T12:09:32Z</time>
      </trkpt>
      <trkpt lat="38.715801" lon="-6.39769">
        <time>2021-08-18T12:09:56Z</time>
      </trkpt>
      <trkpt lat="38.720161" lon="-6.396272">
        <time>2021-08-18T12:10:14Z</time>
      </trkpt>
      <trkpt lat="38.724863" lon="-6.394729">
        <time>2021-08-18T12:10:32Z</time>
      </trkpt>
      <trkpt lat="38.729802" lon="-6.393129">
        <time>2021-08-18T12:10:53Z</time>
      </trkpt>
      <trkpt lat="38.73484" lon="-6.391481">
        <time>2021-08-18T12:11:14Z</time>
      </trkpt>
      <trkpt lat="38.739248" lon="-6.390053">
        <time>2021-08-18T12:11:32Z</time>
      </trkpt>
      <trkpt lat="38.743687" lon="-6.388604">
        <time>2021-08-18T12:11:50Z</time>
      </trkpt>
      <trkpt lat="38.748148" lon="-6.387157">
        <time>2021-08-18T12:12:08Z</time>
      </trkpt>
      <trkpt lat="38.752862" lon="-6.385607">
        <time>2021-08-18T12:12:26Z</time>
      </trkpt>
      <trkpt lat="38.757702" lon="-6.384033">
        <time>2021-08-18T12:12:44Z</time>
      </trkpt>
      <trkpt lat="38.762399" lon="-6.382497">
        <time>2021-08-18T12:13:02Z</time>
      </trkpt>
      <trkpt lat="38.76695" lon="-6.381017">
        <time>2021-08-18T12:13:20Z</time>
      </trkpt>
      <trkpt lat="38.768456" lon="-6.380807">
        <time>2021-08-18T12:13:26Z</time>
      </trkpt>
      <trkpt lat="38.76999" lon="-6.381065">
        <time>2021-08-18T12:13:32Z</time>
      </trkpt>
      <trkpt lat="38.771392" lon="-6.381722">
        <time>2021-08-18T12:13:38Z</time>
      </trkpt>
      <trkpt lat="38.772638" lon="-6.381942">
        <time>2021-08-18T12:13:44Z</time>
      </trkpt>
      <trkpt lat="38.773454" lon="-6.38153">
        <time>2021-08-18T12:13:50Z</time>
      </trkpt>
      <trkpt lat="38.773887" lon="-6.380419">
        <time>2021-08-18T12:13:59Z</time>
      </trkpt>
      <trkpt lat="38.773903" lon="-6.379594">
        <time>2021-08-18T12:14:05Z</time>
      </trkpt>
      <trkpt lat="38.773945" lon="-6.379309">
        <time>2021-08-18T12:14:08Z</time>
      </trkpt>
      <trkpt lat="38.774155" lon="-6.379174">
        <time>2021-08-18T12:14:11Z</time>
      </trkpt>
      <trkpt lat="38.774483" lon="-6.379045">
        <time>2021-08-18T12:14:14Z</time>
      </trkpt>
      <trkpt lat="38.774483" lon="-6.379045">
        <time>2021-08-18T12:14:14Z</time>
      </trkpt>
      <trkpt lat="38.776045" lon="-6.378566">
        <time>2021-08-18T12:14:23Z</time>
      </trkpt>
      <trkpt lat="38.779408" lon="-6.378487">
        <time>2021-08-18T12:14:38Z</time>
      </trkpt>
      <trkpt lat="38.783927" lon="-6.378402">
        <time>2021-08-18T12:14:59Z</time>
      </trkpt>
      <trkpt lat="38.788659" lon="-6.378268">
        <time>2021-08-18T12:15:29Z</time>
      </trkpt>
      <trkpt lat="38.793309" lon="-6.377797">
        <time>2021-08-18T12:16:08Z</time>
      </trkpt>
      <trkpt lat="38.797923" lon="-6.377055">
        <time>2021-08-18T12:16:35Z</time>
      </trkpt>
      <trkpt lat="38.799332" lon="-6.376632">
        <time>2021-08-18T12:16:44Z</time>
      </trkpt>
      <trkpt lat="38.802357" lon="-6.375432">
        <time>2021-08-18T12:17:05Z</time>
      </trkpt>
      <trkpt lat="38.806718" lon="-6.37387">
        <time>2021-08-18T12:17:35Z</time>
      </trkpt>
      <trkpt lat="38.811219" lon="-6.372271">
        <time>2021-08-18T12:18:05Z</time>
      </trkpt>
      <trkpt lat="38.81589" lon="-6.370592">
        <time>2021-08-18T12:18:29Z</time>
      </trkpt>
      <trkpt lat="38.820653" lon="-6.369195">
        <time>2021-08-18T12:18:53Z</time>
      </trkpt>
      <trkpt lat="38.825443" lon="-6.367799">
        <time>2021-08-18T12:19:11Z</time>
      </trkpt>
      <trkpt lat="38.830223" lon="-6.366131">
        <time>2021-08-18T12:19:29Z</time>
      </trkpt>
      <trkpt lat="38.835054" lon="-6.364936">
        <time>2021-08-18T12:19:47Z</time>
      </trkpt>
      <trkpt lat="38.839764" lon="-6.363882">
        <time>2021-08-18T12:20:05Z</time>
      </trkpt>
      <trkpt lat="38.844175" lon="-6.362463">
        <time>2021-08-18T12:20:23Z</time>
      </trkpt>
      <trkpt lat="38.847531" lon="-6.360844">
        <time>2021-08-18T12:20:38Z</time>
      </trkpt>
      <trkpt lat="38.848957" lon="-6.360716">
        <time>2021-08-18T12:20:44Z</time>
      </trkpt>
      <trkpt lat="38.852587" lon="-6.360391">
        <time>2021-08-18T12:20:59Z</time>
      </trkpt>
      <trkpt lat="38.854002" lon="-6.360841">
        <time>2021-08-18T12:21:05Z</time>
      </trkpt>
      <trkpt lat="38.859027" lon="-6.36249">
        <time>2021-08-18T12:21:26Z</time>
      </trkpt>
      <trkpt lat="38.859769" lon="-6.362564">
        <time>2021-08-18T12:21:29Z</time>
      </trkpt>
      <trkpt lat="38.862573" lon="-6.362128">
        <time>2021-08-18T12:21:41Z</time>
      </trkpt>
      <trkpt lat="38.863896" lon="-6.362781">
        <time>2021-08-18T12:21:47Z</time>
      </trkpt>
      <trkpt lat="38.863896" lon="-6.362781">
        <time>2021-08-18T12:21:47Z</time>
      </trkpt>
      <trkpt lat="38.865331" lon="-6.363279">
        <time>2021-08-18T12:21:53Z</time>
      </trkpt>
      <trkpt lat="38.868348" lon="-6.363546">
        <time>2021-08-18T12:22:05Z</time>
      </trkpt>
      <trkpt lat="38.872994" lon="-6.36393">
        <time>2021-08-18T12:22:23Z</time>
      </trkpt>
      <trkpt lat="38.877662" lon="-6.364452">
        <time>2021-08-18T12:22:41Z</time>
      </trkpt>
      <trkpt lat="38.882334" lon="-6.365216">
        <time>2021-08-18T12:22:59Z</time>
      </trkpt>
      <trkpt lat="38.886836" lon="-6.365954">
        <time>2021-08-18T12:23:17Z</time>
      </trkpt>
      <trkpt lat="38.891178" lon="-6.366243">
        <time>2021-08-18T12:23:35Z</time>
      </trkpt>
      <trkpt lat="38.891798" lon="-6.366013">
        <time>2021-08-18T12:23:38Z</time>
      </trkpt>
      <trkpt lat="38.892358" lon="-6.365915">
        <time>2021-08-18T12:23:41Z</time>
      </trkpt>
      <trkpt lat="38.892808" lon="-6.366046">
        <time>2021-08-18T12:23:44Z</time>
      </trkpt>
      <trkpt lat="38.894081" lon="-6.366408">
        <time>2021-08-18T12:23:53Z</time>
      </trkpt>
      <trkpt lat="38.896649" lon="-6.366471">
        <time>2021-08-18T12:24:05Z</time>
      </trkpt>
      <trkpt lat="38.901312" lon="-6.366575">
        <time>2021-08-18T12:24:26Z</time>
      </trkpt>
      <trkpt lat="38.90515" lon="-6.366627">
        <time>2021-08-18T12:24:50Z</time>
      </trkpt>
      <trkpt lat="38.905294" lon="-6.366375">
        <time>2021-08-18T12:24:53Z</time>
      </trkpt>
      <trkpt lat="38.905274" lon="-6.365995">
        <time>2021-08-18T12:24:56Z</time>
      </trkpt>
      <trkpt lat="38.905181" lon="-6.365517">
        <time>2021-08-18T12:24:59Z</time>
      </trkpt>
      <trkpt lat="38.904826" lon="-6.364349">
        <time>2021-08-18T12:25:08Z</time>
      </trkpt>
      <trkpt lat="38.904714" lon="-6.364099">
        <time>2021-08-18T12:25:11Z</time>
      </trkpt>
      <trkpt lat="38.904603" lon="-6.361196">
        <time>2021-08-18T12:25:29Z</time>
      </trkpt>
      <trkpt lat="38.905015" lon="-6.359541">
        <time>2021-08-18T12:25:38Z</time>
      </trkpt>
      <trkpt lat="38.906651" lon="-6.354">
        <time>2021-08-18T12:26:17Z</time>
      </trkpt>
      <trkpt lat="38.9084" lon="-6.348326">
        <time>2021-08-18T12:26:53Z</time>
      </trkpt>
      <trkpt lat="38.910147" lon="-6.342579">
        <time>2021-08-18T12:27:29Z</time>
      </trkpt>
      <trkpt lat="38.910853" lon="-6.340507">
        <time>2021-08-18T12:27:45Z</time>
      </trkpt>
      <trkpt lat="38.911904" lon="-6.337692">
        <time>2021-08-18T12:28:12Z</time>
      </trkpt>
      <trkpt lat="38.912083" lon="-6.337417">
        <time>2021-08-18T12:28:15Z</time>
      </trkpt>
      <trkpt lat="38.91333" lon="-6.334639">
        <time>2021-08-18T12:28:33Z</time>
      </trkpt>
      <trkpt lat="38.914524" lon="-6.333035">
        <time>2021-08-18T12:28:48Z</time>
      </trkpt>
      <trkpt lat="38.914604" lon="-6.332884">
        <time>2021-08-18T12:28:51Z</time>
      </trkpt>
      <trkpt lat="38.914795" lon="-6.332827">
        <time>2021-08-18T12:28:54Z</time>
      </trkpt>
      <trkpt lat="38.915027" lon="-6.33258">
        <time>2021-08-18T12:28:57Z</time>
      </trkpt>
      <trkpt lat="38.916292" lon="-6.330929">
        <time>2021-08-18T12:29:15Z</time>
      </trkpt>
      <trkpt lat="38.916532" lon="-6.330626">
        <time>2021-08-18T12:29:21Z</time>
      </trkpt>
      <trkpt lat="38.917851" lon="-6.3301">
        <time>2021-08-18T12:29:33Z</time>
      </trkpt>
      <trkpt lat="38.918758" lon="-6.32967">
        <time>2021-08-18T12:29:39Z</time>
      </trkpt>
      <trkpt lat="38.923082" lon="-6.327656">
        <time>2021-08-18T12:30:09Z</time>
      </trkpt>
      <trkpt lat="38.923548" lon="-6.327321">
        <time>2021-08-18T12:30:15Z</time>
      </trkpt>
      <trkpt lat="38.924439" lon="-6.326601">
        <time>2021-08-18T12:30:27Z</time>
      </trkpt>
      <trkpt lat="38.924605" lon="-6.326791">
        <time>2021-08-18T12:30:30Z</time>
      </trkpt>
      <trkpt lat="38.924777" lon="-6.327016">
        <time>2021-08-18T12:30:33Z</time>
      </trkpt>
      <trkpt lat="38.925177" lon="-6.327405">
        <time>2021-08-18T12:30:48Z</time>
      </trkpt>
      <trkpt lat="38.925531" lon="-6.328052">
        <time>2021-08-18T12:31:00Z</time>
      </trkpt>
      <trkpt lat="38.926496" lon="-6.329679">
        <time>2021-08-18T12:31:30Z</time>
      </trkpt>
      <trkpt lat="38.929312" lon="-6.334871">
        <time>2021-08-18T12:32:36Z</time>
      </trkpt>
      <trkpt lat="38.930817" lon="-6.337471">
        <time>2021-08-18T12:33:09Z</time>
      </trkpt>
      <trkpt lat="38.931139" lon="-6.337873">
        <time>2021-08-18T12:33:15Z</time>
      </trkpt>
      <trkpt lat="38.931407" lon="-6.338694">
        <time>2021-08-18T12:33:21Z</time>
      </trkpt>
      <trkpt lat="38.931878" lon="-6.339731">
        <time>2021-08-18T12:33:27Z</time>
      </trkpt>
      <trkpt lat="38.932313" lon="-6.340447">
        <time>2021-08-18T12:33:33Z</time>
      </trkpt>
      <trkpt lat="38.932526" lon="-6.340599">
        <time>2021-08-18T12:33:36Z</time>
      </trkpt>
      <trkpt lat="38.9326" lon="-6.3409">
        <time>2021-08-18T12:33:39Z</time>
      </trkpt>
      <trkpt lat="38.932648" lon="-6.341241">
        <time>2021-08-18T12:33:42Z</time>
      </trkpt>
      <trkpt lat="38.93286" lon="-6.341587">
        <time>2021-08-18T12:33:45Z</time>
      </trkpt>
      <trkpt lat="38.935153" lon="-6.344113">
        <time>2021-08-18T12:34:06Z</time>
      </trkpt>
      <trkpt lat="38.935443" lon="-6.344368">
        <time>2021-08-18T12:34:09Z</time>
      </trkpt>
      <trkpt lat="38.935771" lon="-6.344487">
        <time>2021-08-18T12:34:12Z</time>
      </trkpt>
      <trkpt lat="38.93664" lon="-6.344476">
        <time>2021-08-18T12:34:18Z</time>
      </trkpt>
      <trkpt lat="38.939612" lon="-6.343495">
        <time>2021-08-18T12:34:36Z</time>
      </trkpt>
      <trkpt lat="38.939835" lon="-6.343229">
        <time>2021-08-18T12:34:39Z</time>
      </trkpt>
      <trkpt lat="38.940104" lon="-6.342996">
        <time>2021-08-18T12:34:42Z</time>
      </trkpt>
      <trkpt lat="38.940306" lon="-6.342832">
        <time>2021-08-18T12:34:45Z</time>
      </trkpt>
      <trkpt lat="38.94036" lon="-6.342874">
        <time>2021-08-18T12:35:24Z</time>
      </trkpt>
      <trkpt lat="38.940452" lon="-6.343054">
        <time>2021-08-18T12:35:27Z</time>
      </trkpt>
      <trkpt lat="38.94054" lon="-6.343322">
        <time>2021-08-18T12:35:30Z</time>
      </trkpt>
      <trkpt lat="38.940488" lon="-6.343632">
        <time>2021-08-18T12:35:33Z</time>
      </trkpt>
      <trkpt lat="38.940288" lon="-6.343838">
        <time>2021-08-18T12:35:36Z</time>
      </trkpt>
      <trkpt lat="38.940026" lon="-6.34383">
        <time>2021-08-18T12:35:39Z</time>
      </trkpt>
      <trkpt lat="38.939847" lon="-6.34362">
        <time>2021-08-18T12:35:42Z</time>
      </trkpt>
      <trkpt lat="38.939798" lon="-6.343303">
        <time>2021-08-18T12:35:45Z</time>
      </trkpt>
      <trkpt lat="38.939766" lon="-6.342508">
        <time>2021-08-18T12:35:51Z</time>
      </trkpt>
      <trkpt lat="38.939927" lon="-6.34208">
        <time>2021-08-18T12:35:54Z</time>
      </trkpt>
      <trkpt lat="38.940741" lon="-6.340627">
        <time>2021-08-18T12:36:03Z</time>
      </trkpt>
      <trkpt lat="38.941096" lon="-6.340129">
        <time>2021-08-18T12:36:06Z</time>
      </trkpt>
      <trkpt lat="38.942048" lon="-6.339424">
        <time>2021-08-18T12:36:12Z</time>
      </trkpt>
      <trkpt lat="38.943199" lon="-6.33926">
        <time>2021-08-18T12:36:18Z</time>
      </trkpt>
      <trkpt lat="38.94494" lon="-6.339273">
        <time>2021-08-18T12:36:27Z</time>
      </trkpt>
      <trkpt lat="38.945988" lon="-6.339123">
        <time>2021-08-18T12:36:33Z</time>
      </trkpt>
      <trkpt lat="38.946625" lon="-6.338663">
        <time>2021-08-18T12:36:39Z</time>
      </trkpt>
      <trkpt lat="38.946879" lon="-6.338099">
        <time>2021-08-18T12:36:45Z</time>
      </trkpt>
      <trkpt lat="38.947178" lon="-6.338109">
        <time>2021-08-18T12:36:48Z</time>
      </trkpt>
      <trkpt lat="38.947983" lon="-6.338348">
        <time>2021-08-18T12:36:54Z</time>
      </trkpt>
      <trkpt lat="38.948379" lon="-6.338734">
        <time>2021-08-18T12:36:57Z</time>
      </trkpt>
      <trkpt lat="38.949061" lon="-6.339808">
        <time>2021-08-18T12:37:03Z</time>
      </trkpt>
      <trkpt lat="38.950897" lon="-6.341744">
        <time>2021-08-18T12:37:15Z</time>
      </trkpt>
      <trkpt lat="38.952559" lon="-6.342772">
        <time>2021-08-18T12:37:24Z</time>
      </trkpt>
      <trkpt lat="38.953191" lon="-6.342832">
        <time>2021-08-18T12:37:27Z</time>
      </trkpt>
      <trkpt lat="38.953827" lon="-6.342734">
        <time>2021-08-18T12:37:30Z</time>
      </trkpt>
      <trkpt lat="38.95773" lon="-6.341586">
        <time>2021-08-18T12:37:48Z</time>
      </trkpt>
      <trkpt lat="38.958992" lon="-6.341526">
        <time>2021-08-18T12:37:54Z</time>
      </trkpt>
      <trkpt lat="38.960959" lon="-6.341501">
        <time>2021-08-18T12:38:03Z</time>
      </trkpt>
      <trkpt lat="38.961552" lon="-6.341195">
        <time>2021-08-18T12:38:06Z</time>
      </trkpt>
      <trkpt lat="38.962082" lon="-6.340704">
        <time>2021-08-18T12:38:09Z</time>
      </trkpt>
      <trkpt lat="38.965917" lon="-6.336939">
        <time>2021-08-18T12:38:30Z</time>
      </trkpt>
      <trkpt lat="38.970073" lon="-6.333653">
        <time>2021-08-18T12:38:51Z</time>
      </trkpt>
      <trkpt lat="38.970757" lon="-6.333218">
        <time>2021-08-18T12:38:54Z</time>
      </trkpt>
      <trkpt lat="38.974276" lon="-6.330969">
        <time>2021-08-18T12:39:09Z</time>
      </trkpt>
      <trkpt lat="38.974915" lon="-6.330711">
        <time>2021-08-18T12:39:12Z</time>
      </trkpt>
      <trkpt lat="38.976882" lon="-6.330512">
        <time>2021-08-18T12:39:21Z</time>
      </trkpt>
      <trkpt lat="38.978154" lon="-6.329798">
        <time>2021-08-18T12:39:30Z</time>
      </trkpt>
      <trkpt lat="38.978467" lon="-6.329692">
        <time>2021-08-18T12:39:33Z</time>
      </trkpt>
      <trkpt lat="38.978906" lon="-6.329653">
        <time>2021-08-18T12:39:36Z</time>
      </trkpt>
      <trkpt lat="38.983995" lon="-6.328528">
        <time>2021-08-18T12:40:00Z</time>
      </trkpt>
      <trkpt lat="38.988821" lon="-6.327884">
        <time>2021-08-18T12:40:21Z</time>
      </trkpt>
      <trkpt lat="38.988821" lon="-6.327884">
        <time>2021-08-18T12:40:21Z</time>
      </trkpt>
      <trkpt lat="38.993668" lon="-6.328733">
        <time>2021-08-18T12:40:42Z</time>
      </trkpt>
      <trkpt lat="38.998519" lon="-6.329624">
        <time>2021-08-18T12:41:03Z</time>
      </trkpt>
      <trkpt lat="38.998519" lon="-6.329624">
        <time>2021-08-18T12:41:03Z</time>
      </trkpt>
      <trkpt lat="39.000395" lon="-6.330393">
        <time>2021-08-18T12:41:12Z</time>
      </trkpt>
      <trkpt lat="39.002444" lon="-6.330368">
        <time>2021-08-18T12:41:21Z</time>
      </trkpt>
      <trkpt lat="39.003083" lon="-6.330067">
        <time>2021-08-18T12:41:24Z</time>
      </trkpt>
      <trkpt lat="39.003654" lon="-6.329577">
        <time>2021-08-18T12:41:27Z</time>
      </trkpt>
      <trkpt lat="39.006665" lon="-6.325893">
        <time>2021-08-18T12:41:45Z</time>
      </trkpt>
      <trkpt lat="39.008381" lon="-6.3244">
        <time>2021-08-18T12:41:54Z</time>
      </trkpt>
      <trkpt lat="39.01099" lon="-6.323308">
        <time>2021-08-18T12:42:06Z</time>
      </trkpt>
      <trkpt lat="39.015577" lon="-6.321638">
        <time>2021-08-18T12:42:27Z</time>
      </trkpt>
      <trkpt lat="39.016155" lon="-6.321429">
        <time>2021-08-18T12:42:30Z</time>
      </trkpt>
      <trkpt lat="39.016763" lon="-6.321422">
        <time>2021-08-18T12:42:33Z</time>
      </trkpt>
      <trkpt lat="39.01737" lon="-6.321658">
        <time>2021-08-18T12:42:36Z</time>
      </trkpt>
      <trkpt lat="39.019168" lon="-6.322229">
        <time>2021-08-18T12:42:45Z</time>
      </trkpt>
      <trkpt lat="39.019773" lon="-6.322032">
        <time>2021-08-18T12:42:48Z</time>
      </trkpt>
      <trkpt lat="39.020369" lon="-6.321738">
        <time>2021-08-18T12:42:51Z</time>
      </trkpt>
      <trkpt lat="39.022253" lon="-6.321053">
        <time>2021-08-18T12:43:00Z</time>
      </trkpt>
      <trkpt lat="39.022915" lon="-6.321203">
        <time>2021-08-18T12:43:03Z</time>
      </trkpt>
      <trkpt lat="39.023517" lon="-6.321605">
        <time>2021-08-18T12:43:06Z</time>
      </trkpt>
      <trkpt lat="39.024472" lon="-6.322875">
        <time>2021-08-18T12:43:12Z</time>
      </trkpt>
      <trkpt lat="39.026953" lon="-6.32593">
        <time>2021-08-18T12:43:27Z</time>
      </trkpt>
      <trkpt lat="39.027604" lon="-6.326122">
        <time>2021-08-18T12:43:30Z</time>
      </trkpt>
      <trkpt lat="39.028282" lon="-6.326104">
        <time>2021-08-18T12:43:33Z</time>
      </trkpt>
      <trkpt lat="39.033368" lon="-6.325652">
        <time>2021-08-18T12:43:54Z</time>
      </trkpt>
      <trkpt lat="39.034783" lon="-6.325824">
        <time>2021-08-18T12:44:00Z</time>
      </trkpt>
      <trkpt lat="39.037707" lon="-6.327151">
        <time>2021-08-18T12:44:15Z</time>
      </trkpt>
      <trkpt lat="39.042178" lon="-6.328912">
        <time>2021-08-18T12:44:45Z</time>
      </trkpt>
      <trkpt lat="39.042178" lon="-6.328912">
        <time>2021-08-18T12:44:45Z</time>
      </trkpt>
      <trkpt lat="39.043767" lon="-6.328605">
        <time>2021-08-18T12:44:54Z</time>
      </trkpt>
      <trkpt lat="39.046485" lon="-6.326936">
        <time>2021-08-18T12:45:09Z</time>
      </trkpt>
      <trkpt lat="39.047497" lon="-6.32621">
        <time>2021-08-18T12:45:15Z</time>
      </trkpt>
      <trkpt lat="39.048794" lon="-6.324587">
        <time>2021-08-18T12:45:24Z</time>
      </trkpt>
      <trkpt lat="39.04996" lon="-6.322822">
        <time>2021-08-18T12:45:33Z</time>
      </trkpt>
      <trkpt lat="39.051177" lon="-6.321169">
        <time>2021-08-18T12:45:42Z</time>
      </trkpt>
      <trkpt lat="39.051701" lon="-6.320872">
        <time>2021-08-18T12:45:45Z</time>
      </trkpt>
      <trkpt lat="39.052256" lon="-6.320802">
        <time>2021-08-18T12:45:48Z</time>
      </trkpt>
      <trkpt lat="39.053355" lon="-6.321159">
        <time>2021-08-18T12:45:54Z</time>
      </trkpt>
      <trkpt lat="39.053906" lon="-6.321386">
        <time>2021-08-18T12:45:57Z</time>
      </trkpt>
      <trkpt lat="39.055004" lon="-6.321686">
        <time>2021-08-18T12:46:03Z</time>
      </trkpt>
      <trkpt lat="39.055532" lon="-6.321518">
        <time>2021-08-18T12:46:06Z</time>
      </trkpt>
      <trkpt lat="39.055991" lon="-6.321112">
        <time>2021-08-18T12:46:09Z</time>
      </trkpt>
      <trkpt lat="39.057413" lon="-6.318742">
        <time>2021-08-18T12:46:21Z</time>
      </trkpt>
      <trkpt lat="39.057909" lon="-6.318344">
        <time>2021-08-18T12:46:24Z</time>
      </trkpt>
      <trkpt lat="39.061834" lon="-6.316892">
        <time>2021-08-18T12:46:45Z</time>
      </trkpt>
      <trkpt lat="39.063527" lon="-6.315853">
        <time>2021-08-18T12:46:54Z</time>
      </trkpt>
      <trkpt lat="39.066332" lon="-6.313837">
        <time>2021-08-18T12:47:09Z</time>
      </trkpt>
      <trkpt lat="39.069373" lon="-6.312448">
        <time>2021-08-18T12:47:24Z</time>
      </trkpt>
      <trkpt lat="39.069977" lon="-6.31242">
        <time>2021-08-18T12:47:27Z</time>
      </trkpt>
      <trkpt lat="39.071154" lon="-6.312827">
        <time>2021-08-18T12:47:33Z</time>
      </trkpt>
      <trkpt lat="39.071774" lon="-6.312829">
        <time>2021-08-18T12:47:36Z</time>
      </trkpt>
      <trkpt lat="39.072976" lon="-6.312336">
        <time>2021-08-18T12:47:42Z</time>
      </trkpt>
      <trkpt lat="39.0734" lon="-6.311798">
        <time>2021-08-18T12:47:45Z</time>
      </trkpt>
      <trkpt lat="39.073638" lon="-6.31111">
        <time>2021-08-18T12:47:48Z</time>
      </trkpt>
      <trkpt lat="39.073683" lon="-6.310351">
        <time>2021-08-18T12:47:51Z</time>
      </trkpt>
      <trkpt lat="39.073712" lon="-6.308737">
        <time>2021-08-18T12:47:57Z</time>
      </trkpt>
      <trkpt lat="39.073712" lon="-6.308737">
        <time>2021-08-18T12:47:57Z</time>
      </trkpt>
      <trkpt lat="39.074018" lon="-6.307999">
        <time>2021-08-18T12:48:00Z</time>
      </trkpt>
      <trkpt lat="39.077016" lon="-6.30418">
        <time>2021-08-18T12:48:18Z</time>
      </trkpt>
      <trkpt lat="39.08027" lon="-6.300084">
        <time>2021-08-18T12:48:36Z</time>
      </trkpt>
      <trkpt lat="39.083868" lon="-6.295592">
        <time>2021-08-18T12:48:57Z</time>
      </trkpt>
      <trkpt lat="39.087585" lon="-6.291024">
        <time>2021-08-18T12:49:18Z</time>
      </trkpt>
      <trkpt lat="39.087585" lon="-6.291024">
        <time>2021-08-18T12:49:18Z</time>
      </trkpt>
      <trkpt lat="39.091657" lon="-6.288248">
        <time>2021-08-18T12:49:36Z</time>
      </trkpt>
      <trkpt lat="39.095139" lon="-6.286068">
        <time>2021-08-18T12:49:51Z</time>
      </trkpt>
      <trkpt lat="39.095862" lon="-6.285938">
        <time>2021-08-18T12:49:54Z</time>
      </trkpt>
      <trkpt lat="39.096585" lon="-6.285957">
        <time>2021-08-18T12:49:57Z</time>
      </trkpt>
      <trkpt lat="39.09803" lon="-6.285836">
        <time>2021-08-18T12:50:03Z</time>
      </trkpt>
      <trkpt lat="39.100771" lon="-6.284277">
        <time>2021-08-18T12:50:15Z</time>
      </trkpt>
      <trkpt lat="39.105048" lon="-6.281634">
        <time>2021-08-18T12:50:33Z</time>
      </trkpt>
      <trkpt lat="39.107257" lon="-6.280873">
        <time>2021-08-18T12:50:42Z</time>
      </trkpt>
      <trkpt lat="39.109539" lon="-6.280335">
        <time>2021-08-18T12:50:51Z</time>
      </trkpt>
      <trkpt lat="39.11409" lon="-6.279241">
        <time>2021-08-18T12:51:09Z</time>
      </trkpt>
      <trkpt lat="39.118675" lon="-6.278126">
        <time>2021-08-18T12:51:27Z</time>
      </trkpt>
      <trkpt lat="39.123312" lon="-6.276999">
        <time>2021-08-18T12:51:45Z</time>
      </trkpt>
      <trkpt lat="39.127961" lon="-6.275874">
        <time>2021-08-18T12:52:03Z</time>
      </trkpt>
      <trkpt lat="39.132495" lon="-6.274794">
        <time>2021-08-18T12:52:21Z</time>
      </trkpt>
      <trkpt lat="39.137146" lon="-6.27368">
        <time>2021-08-18T12:52:39Z</time>
      </trkpt>
      <trkpt lat="39.141666" lon="-6.272715">
        <time>2021-08-18T12:52:57Z</time>
      </trkpt>
      <trkpt lat="39.146779" lon="-6.271843">
        <time>2021-08-18T12:53:18Z</time>
      </trkpt>
      <trkpt lat="39.151577" lon="-6.26985">
        <time>2021-08-18T12:53:39Z</time>
      </trkpt>
      <trkpt lat="39.156524" lon="-6.268494">
        <time>2021-08-18T12:54:00Z</time>
      </trkpt>
      <trkpt lat="39.156524" lon="-6.268494">
        <time>2021-08-18T12:54:00Z</time>
      </trkpt>
      <trkpt lat="39.16117" lon="-6.265697">
        <time>2021-08-18T12:54:21Z</time>
      </trkpt>
      <trkpt lat="39.163004" lon="-6.264509">
        <time>2021-08-18T12:54:36Z</time>
      </trkpt>
      <trkpt lat="39.163584" lon="-6.263699">
        <time>2021-08-18T12:54:51Z</time>
      </trkpt>
      <trkpt lat="39.163606" lon="-6.263599">
        <time>2021-08-18T12:54:54Z</time>
      </trkpt>
      <trkpt lat="39.163572" lon="-6.263494">
        <time>2021-08-18T12:54:57Z</time>
      </trkpt>
      <trkpt lat="39.163515" lon="-6.263465">
        <time>2021-08-18T12:55:00Z</time>
      </trkpt>
      <trkpt lat="39.163489" lon="-6.263516">
        <time>2021-08-18T12:55:03Z</time>
      </trkpt>
      <trkpt lat="39.163528" lon="-6.263575">
        <time>2021-08-18T12:55:06Z</time>
      </trkpt>
      <trkpt lat="39.163544" lon="-6.263684">
        <time>2021-08-18T12:55:21Z</time>
      </trkpt>
      <trkpt lat="39.163429" lon="-6.263927">
        <time>2021-08-18T12:55:24Z</time>
      </trkpt>
      <trkpt lat="39.16331" lon="-6.264157">
        <time>2021-08-18T12:55:27Z</time>
      </trkpt>
      <trkpt lat="39.163322" lon="-6.26443">
        <time>2021-08-18T12:55:30Z</time>
      </trkpt>
      <trkpt lat="39.163348" lon="-6.26471">
        <time>2021-08-18T12:55:33Z</time>
      </trkpt>
      <trkpt lat="39.163229" lon="-6.264895">
        <time>2021-08-18T12:55:36Z</time>
      </trkpt>
      <trkpt lat="39.163045" lon="-6.264869">
        <time>2021-08-18T12:55:39Z</time>
      </trkpt>
      <trkpt lat="39.162879" lon="-6.264759">
        <time>2021-08-18T12:55:42Z</time>
      </trkpt>
      <trkpt lat="39.162879" lon="-6.264759">
        <time>2021-08-18T12:55:42Z</time>
      </trkpt>
      <trkpt lat="39.162721" lon="-6.264788">
        <time>2021-08-18T12:55:45Z</time>
      </trkpt>
      <trkpt lat="39.162706" lon="-6.264895">
        <time>2021-08-18T12:55:48Z</time>
      </trkpt>
      <trkpt lat="39.162646" lon="-6.264887">
        <time>2021-08-18T12:55:51Z</time>
      </trkpt>
      <trkpt lat="39.162558" lon="-6.264719">
        <time>2021-08-18T12:56:03Z</time>
      </trkpt>
      <trkpt lat="39.162375" lon="-6.264366">
        <time>2021-08-18T12:57:25Z</time>
      </trkpt>
      <trkpt lat="39.162375" lon="-6.264366">
        <time>2021-08-18T12:57:53Z</time>
      </trkpt>
      <trkpt lat="39.162375" lon="-6.264366">
        <time>2021-08-18T12:57:53Z</time>
      </trkpt>
      <trkpt lat="39.16219" lon="-6.26424">
        <time>2021-08-18T13:53:59Z</time>
      </trkpt>
      <trkpt lat="39.162582" lon="-6.264499">
        <time>2021-08-18T13:54:30Z</time>
      </trkpt>
      <trkpt lat="39.162747" lon="-6.264596">
        <time>2021-08-18T13:54:33Z</time>
      </trkpt>
      <trkpt lat="39.162914" lon="-6.26459">
        <time>2021-08-18T13:54:36Z</time>
      </trkpt>
      <trkpt lat="39.163319" lon="-6.264481">
        <time>2021-08-18T13:54:42Z</time>
      </trkpt>
      <trkpt lat="39.163586" lon="-6.2645">
        <time>2021-08-18T13:54:45Z</time>
      </trkpt>
      <trkpt lat="39.16671" lon="-6.263872">
        <time>2021-08-18T13:55:09Z</time>
      </trkpt>
      <trkpt lat="39.169441" lon="-6.263923">
        <time>2021-08-18T13:55:28Z</time>
      </trkpt>
      <trkpt lat="39.169835" lon="-6.263996">
        <time>2021-08-18T13:55:30Z</time>
      </trkpt>
      <trkpt lat="39.171518" lon="-6.264334">
        <time>2021-08-18T13:55:42Z</time>
      </trkpt>
      <trkpt lat="39.176454" lon="-6.265533">
        <time>2021-08-18T13:56:15Z</time>
      </trkpt>
      <trkpt lat="39.181252" lon="-6.267103">
        <time>2021-08-18T13:56:42Z</time>
      </trkpt>
      <trkpt lat="39.185653" lon="-6.268696">
        <time>2021-08-18T13:57:06Z</time>
      </trkpt>
      <trkpt lat="39.185653" lon="-6.268696">
        <time>2021-08-18T13:57:06Z</time>
      </trkpt>
      <trkpt lat="39.189909" lon="-6.271185">
        <time>2021-08-18T13:57:27Z</time>
      </trkpt>
      <trkpt lat="39.194563" lon="-6.273691">
        <time>2021-08-18T13:57:48Z</time>
      </trkpt>
      <trkpt lat="39.198935" lon="-6.276004">
        <time>2021-08-18T13:58:06Z</time>
      </trkpt>
      <trkpt lat="39.203481" lon="-6.278414">
        <time>2021-08-18T13:58:24Z</time>
      </trkpt>
      <trkpt lat="39.208156" lon="-6.280907">
        <time>2021-08-18T13:58:42Z</time>
      </trkpt>
      <trkpt lat="39.211129" lon="-6.282958">
        <time>2021-08-18T13:58:54Z</time>
      </trkpt>
      <trkpt lat="39.212444" lon="-6.284303">
        <time>2021-08-18T13:59:00Z</time>
      </trkpt>
      <trkpt lat="39.215795" lon="-6.287374">
        <time>2021-08-18T13:59:15Z</time>
      </trkpt>
      <trkpt lat="39.21653" lon="-6.287777">
        <time>2021-08-18T13:59:18Z</time>
      </trkpt>
      <trkpt lat="39.221051" lon="-6.290226">
        <time>2021-08-18T13:59:36Z</time>
      </trkpt>
      <trkpt lat="39.225589" lon="-6.292685">
        <time>2021-08-18T13:59:54Z</time>
      </trkpt>
      <trkpt lat="39.229966" lon="-6.295099">
        <time>2021-08-18T14:00:12Z</time>
      </trkpt>
      <trkpt lat="39.234718" lon="-6.297745">
        <time>2021-08-18T14:00:33Z</time>
      </trkpt>
      <trkpt lat="39.239087" lon="-6.301144">
        <time>2021-08-18T14:00:54Z</time>
      </trkpt>
      <trkpt lat="39.243297" lon="-6.303281">
        <time>2021-08-18T14:01:12Z</time>
      </trkpt>
      <trkpt lat="39.24762" lon="-6.305465">
        <time>2021-08-18T14:01:30Z</time>
      </trkpt>
      <trkpt lat="39.251974" lon="-6.30766">
        <time>2021-08-18T14:01:48Z</time>
      </trkpt>
      <trkpt lat="39.256351" lon="-6.30986">
        <time>2021-08-18T14:02:06Z</time>
      </trkpt>
      <trkpt lat="39.26079" lon="-6.312095">
        <time>2021-08-18T14:02:24Z</time>
      </trkpt>
      <trkpt lat="39.265259" lon="-6.314342">
        <time>2021-08-18T14:02:42Z</time>
      </trkpt>
      <trkpt lat="39.26953" lon="-6.316178">
        <time>2021-08-18T14:03:00Z</time>
      </trkpt>
      <trkpt lat="39.26953" lon="-6.316178">
        <time>2021-08-18T14:03:00Z</time>
      </trkpt>
      <trkpt lat="39.274706" lon="-6.316937">
        <time>2021-08-18T14:03:21Z</time>
      </trkpt>
      <trkpt lat="39.2792" lon="-6.317602">
        <time>2021-08-18T14:03:39Z</time>
      </trkpt>
      <trkpt lat="39.283908" lon="-6.318299">
        <time>2021-08-18T14:03:57Z</time>
      </trkpt>
      <trkpt lat="39.285197" lon="-6.318807">
        <time>2021-08-18T14:04:03Z</time>
      </trkpt>
      <trkpt lat="39.287895" lon="-6.32129">
        <time>2021-08-18T14:04:21Z</time>
      </trkpt>
      <trkpt lat="39.288909" lon="-6.322027">
        <time>2021-08-18T14:04:27Z</time>
      </trkpt>
      <trkpt lat="39.292678" lon="-6.322993">
        <time>2021-08-18T14:04:45Z</time>
      </trkpt>
      <trkpt lat="39.297308" lon="-6.324086">
        <time>2021-08-18T14:05:06Z</time>
      </trkpt>
      <trkpt lat="39.302194" lon="-6.325251">
        <time>2021-08-18T14:05:27Z</time>
      </trkpt>
      <trkpt lat="39.304155" lon="-6.326085">
        <time>2021-08-18T14:05:36Z</time>
      </trkpt>
      <trkpt lat="39.306232" lon="-6.327062">
        <time>2021-08-18T14:05:45Z</time>
      </trkpt>
      <trkpt lat="39.306994" lon="-6.327153">
        <time>2021-08-18T14:05:48Z</time>
      </trkpt>
      <trkpt lat="39.307747" lon="-6.327124">
        <time>2021-08-18T14:05:51Z</time>
      </trkpt>
      <trkpt lat="39.3122" lon="-6.326583">
        <time>2021-08-18T14:06:09Z</time>
      </trkpt>
      <trkpt lat="39.316826" lon="-6.326069">
        <time>2021-08-18T14:06:27Z</time>
      </trkpt>
      <trkpt lat="39.317582" lon="-6.326225">
        <time>2021-08-18T14:06:30Z</time>
      </trkpt>
      <trkpt lat="39.321332" lon="-6.327224">
        <time>2021-08-18T14:06:45Z</time>
      </trkpt>
      <trkpt lat="39.326449" lon="-6.328585">
        <time>2021-08-18T14:07:06Z</time>
      </trkpt>
      <trkpt lat="39.3316" lon="-6.32995">
        <time>2021-08-18T14:07:27Z</time>
      </trkpt>
      <trkpt lat="39.336092" lon="-6.331129">
        <time>2021-08-18T14:07:45Z</time>
      </trkpt>
      <trkpt lat="39.341205" lon="-6.332476">
        <time>2021-08-18T14:08:06Z</time>
      </trkpt>
      <trkpt lat="39.345608" lon="-6.334242">
        <time>2021-08-18T14:08:36Z</time>
      </trkpt>
      <trkpt lat="39.35008" lon="-6.336402">
        <time>2021-08-18T14:09:15Z</time>
      </trkpt>
      <trkpt lat="39.35497" lon="-6.338074">
        <time>2021-08-18T14:09:42Z</time>
      </trkpt>
      <trkpt lat="39.356325" lon="-6.338073">
        <time>2021-08-18T14:09:48Z</time>
      </trkpt>
      <trkpt lat="39.35833" lon="-6.337576">
        <time>2021-08-18T14:09:57Z</time>
      </trkpt>
      <trkpt lat="39.359608" lon="-6.338176">
        <time>2021-08-18T14:10:03Z</time>
      </trkpt>
      <trkpt lat="39.359608" lon="-6.338176">
        <time>2021-08-18T14:10:03Z</time>
      </trkpt>
      <trkpt lat="39.361943" lon="-6.340414">
        <time>2021-08-18T14:10:15Z</time>
      </trkpt>
      <trkpt lat="39.364058" lon="-6.341181">
        <time>2021-08-18T14:10:24Z</time>
      </trkpt>
      <trkpt lat="39.36842" lon="-6.342697">
        <time>2021-08-18T14:10:42Z</time>
      </trkpt>
      <trkpt lat="39.373454" lon="-6.344419">
        <time>2021-08-18T14:11:03Z</time>
      </trkpt>
      <trkpt lat="39.378302" lon="-6.346097">
        <time>2021-08-18T14:11:24Z</time>
      </trkpt>
      <trkpt lat="39.383194" lon="-6.347797">
        <time>2021-08-18T14:11:45Z</time>
      </trkpt>
      <trkpt lat="39.385115" lon="-6.348847">
        <time>2021-08-18T14:11:54Z</time>
      </trkpt>
      <trkpt lat="39.386444" lon="-6.35054">
        <time>2021-08-18T14:12:06Z</time>
      </trkpt>
      <trkpt lat="39.386738" lon="-6.350585">
        <time>2021-08-18T14:12:09Z</time>
      </trkpt>
      <trkpt lat="39.387019" lon="-6.350855">
        <time>2021-08-18T14:12:12Z</time>
      </trkpt>
      <trkpt lat="39.387019" lon="-6.350855">
        <time>2021-08-18T14:12:12Z</time>
      </trkpt>
      <trkpt lat="39.387393" lon="-6.350968">
        <time>2021-08-18T14:12:15Z</time>
      </trkpt>
      <trkpt lat="39.390902" lon="-6.350948">
        <time>2021-08-18T14:12:36Z</time>
      </trkpt>
      <trkpt lat="39.39113" lon="-6.350717">
        <time>2021-08-18T14:12:39Z</time>
      </trkpt>
      <trkpt lat="39.391413" lon="-6.350568">
        <time>2021-08-18T14:12:42Z</time>
      </trkpt>
      <trkpt lat="39.391698" lon="-6.35074">
        <time>2021-08-18T14:12:45Z</time>
      </trkpt>
      <trkpt lat="39.391698" lon="-6.35074">
        <time>2021-08-18T14:12:45Z</time>
      </trkpt>
      <trkpt lat="39.392033" lon="-6.350967">
        <time>2021-08-18T14:12:48Z</time>
      </trkpt>
      <trkpt lat="39.396014" lon="-6.352341">
        <time>2021-08-18T14:13:09Z</time>
      </trkpt>
      <trkpt lat="39.397931" lon="-6.352744">
        <time>2021-08-18T14:13:18Z</time>
      </trkpt>
      <trkpt lat="39.400594" lon="-6.352629">
        <time>2021-08-18T14:13:30Z</time>
      </trkpt>
      <trkpt lat="39.400594" lon="-6.352629">
        <time>2021-08-18T14:13:30Z</time>
      </trkpt>
      <trkpt lat="39.401808" lon="-6.353519">
        <time>2021-08-18T14:13:36Z</time>
      </trkpt>
      <trkpt lat="39.402924" lon="-6.354701">
        <time>2021-08-18T14:13:42Z</time>
      </trkpt>
      <trkpt lat="39.403614" lon="-6.354987">
        <time>2021-08-18T14:13:45Z</time>
      </trkpt>
      <trkpt lat="39.404357" lon="-6.355038">
        <time>2021-08-18T14:13:48Z</time>
      </trkpt>
      <trkpt lat="39.405116" lon="-6.354911">
        <time>2021-08-18T14:13:51Z</time>
      </trkpt>
      <trkpt lat="39.409646" lon="-6.354062">
        <time>2021-08-18T14:14:09Z</time>
      </trkpt>
      <trkpt lat="39.411914" lon="-6.354173">
        <time>2021-08-18T14:14:18Z</time>
      </trkpt>
      <trkpt lat="39.414072" lon="-6.355048">
        <time>2021-08-18T14:14:27Z</time>
      </trkpt>
      <trkpt lat="39.416244" lon="-6.355603">
        <time>2021-08-18T14:14:36Z</time>
      </trkpt>
      <trkpt lat="39.419254" lon="-6.355397">
        <time>2021-08-18T14:14:48Z</time>
      </trkpt>
      <trkpt lat="39.421307" lon="-6.355716">
        <time>2021-08-18T14:14:57Z</time>
      </trkpt>
      <trkpt lat="39.422512" lon="-6.356493">
        <time>2021-08-18T14:15:03Z</time>
      </trkpt>
      <trkpt lat="39.423378" lon="-6.357865">
        <time>2021-08-18T14:15:09Z</time>
      </trkpt>
      <trkpt lat="39.423378" lon="-6.357865">
        <time>2021-08-18T14:15:09Z</time>
      </trkpt>
      <trkpt lat="39.426423" lon="-6.362725">
        <time>2021-08-18T14:15:30Z</time>
      </trkpt>
      <trkpt lat="39.426423" lon="-6.362725">
        <time>2021-08-18T14:15:30Z</time>
      </trkpt>
      <trkpt lat="39.429255" lon="-6.364498">
        <time>2021-08-18T14:15:45Z</time>
      </trkpt>
      <trkpt lat="39.430609" lon="-6.364818">
        <time>2021-08-18T14:15:57Z</time>
      </trkpt>
      <trkpt lat="39.430609" lon="-6.364818">
        <time>2021-08-18T14:15:57Z</time>
      </trkpt>
      <trkpt lat="39.431084" lon="-6.365638">
        <time>2021-08-18T14:16:03Z</time>
      </trkpt>
      <trkpt lat="39.431625" lon="-6.367546">
        <time>2021-08-18T14:16:12Z</time>
      </trkpt>
      <trkpt lat="39.432929" lon="-6.370026">
        <time>2021-08-18T14:16:24Z</time>
      </trkpt>
      <trkpt lat="39.433974" lon="-6.371891">
        <time>2021-08-18T14:16:39Z</time>
      </trkpt>
      <trkpt lat="39.434187" lon="-6.372124">
        <time>2021-08-18T14:16:42Z</time>
      </trkpt>
      <trkpt lat="39.434344" lon="-6.372389">
        <time>2021-08-18T14:16:45Z</time>
      </trkpt>
      <trkpt lat="39.435811" lon="-6.375496">
        <time>2021-08-18T14:17:03Z</time>
      </trkpt>
      <trkpt lat="39.435811" lon="-6.375496">
        <time>2021-08-18T14:17:03Z</time>
      </trkpt>
      <trkpt lat="39.437675" lon="-6.378172">
        <time>2021-08-18T14:17:15Z</time>
      </trkpt>
      <trkpt lat="39.439628" lon="-6.379652">
        <time>2021-08-18T14:17:24Z</time>
      </trkpt>
      <trkpt lat="39.440337" lon="-6.379898">
        <time>2021-08-18T14:17:27Z</time>
      </trkpt>
      <trkpt lat="39.444356" lon="-6.37957">
        <time>2021-08-18T14:17:45Z</time>
      </trkpt>
      <trkpt lat="39.444356" lon="-6.37957">
        <time>2021-08-18T14:17:45Z</time>
      </trkpt>
      <trkpt lat="39.445036" lon="-6.379203">
        <time>2021-08-18T14:17:51Z</time>
      </trkpt>
      <trkpt lat="39.445327" lon="-6.379004">
        <time>2021-08-18T14:17:54Z</time>
      </trkpt>
      <trkpt lat="39.445686" lon="-6.379062">
        <time>2021-08-18T14:17:57Z</time>
      </trkpt>
      <trkpt lat="39.448584" lon="-6.380549">
        <time>2021-08-18T14:18:15Z</time>
      </trkpt>
      <trkpt lat="39.453022" lon="-6.383091">
        <time>2021-08-18T14:18:45Z</time>
      </trkpt>
      <trkpt lat="39.454535" lon="-6.383663">
        <time>2021-08-18T14:18:54Z</time>
      </trkpt>
      <trkpt lat="39.457848" lon="-6.384153">
        <time>2021-08-18T14:19:24Z</time>
      </trkpt>
      <trkpt lat="39.457848" lon="-6.384153">
        <time>2021-08-18T14:19:24Z</time>
      </trkpt>
      <trkpt lat="39.457848" lon="-6.384153">
        <time>2021-08-18T14:19:24Z</time>
      </trkpt>
      <trkpt lat="39.460607" lon="-6.384507">
        <time>2021-08-18T14:19:45Z</time>
      </trkpt>
      <trkpt lat="39.460721" lon="-6.384428">
        <time>2021-08-18T14:19:48Z</time>
      </trkpt>
      <trkpt lat="39.460821" lon="-6.384268">
        <time>2021-08-18T14:19:51Z</time>
      </trkpt>
      <trkpt lat="39.461009" lon="-6.384039">
        <time>2021-08-18T14:19:54Z</time>
      </trkpt>
      <trkpt lat="39.461316" lon="-6.384029">
        <time>2021-08-18T14:19:57Z</time>
      </trkpt>
      <trkpt lat="39.462109" lon="-6.383872">
        <time>2021-08-18T14:20:03Z</time>
      </trkpt>
      <trkpt lat="39.462488" lon="-6.383622">
        <time>2021-08-18T14:20:06Z</time>
      </trkpt>
      <trkpt lat="39.464934" lon="-6.381875">
        <time>2021-08-18T14:20:33Z</time>
      </trkpt>
      <trkpt lat="39.465324" lon="-6.381613">
        <time>2021-08-18T14:21:18Z</time>
      </trkpt>
      <trkpt lat="39.465437" lon="-6.381724">
        <time>2021-08-18T14:21:21Z</time>
      </trkpt>
      <trkpt lat="39.465519" lon="-6.381849">
        <time>2021-08-18T14:21:24Z</time>
      </trkpt>
      <trkpt lat="39.465556" lon="-6.381829">
        <time>2021-08-18T14:21:33Z</time>
      </trkpt>
      <trkpt lat="39.465755" lon="-6.382301">
        <time>2021-08-18T14:21:39Z</time>
      </trkpt>
      <trkpt lat="39.466079" lon="-6.383011">
        <time>2021-08-18T14:21:45Z</time>
      </trkpt>
      <trkpt lat="39.467359" lon="-6.385909">
        <time>2021-08-18T14:22:12Z</time>
      </trkpt>
      <trkpt lat="39.46722" lon="-6.386098">
        <time>2021-08-18T14:22:15Z</time>
      </trkpt>
      <trkpt lat="39.466799" lon="-6.386597">
        <time>2021-08-18T14:22:21Z</time>
      </trkpt>
      <trkpt lat="39.466372" lon="-6.387269">
        <time>2021-08-18T14:22:30Z</time>
      </trkpt>
      <trkpt lat="39.466352" lon="-6.387501">
        <time>2021-08-18T14:22:33Z</time>
      </trkpt>
      <trkpt lat="39.466411" lon="-6.387866">
        <time>2021-08-18T14:22:36Z</time>
      </trkpt>
      <trkpt lat="39.466411" lon="-6.387866">
        <time>2021-08-18T14:22:36Z</time>
      </trkpt>
      <trkpt lat="39.467778" lon="-6.391176">
        <time>2021-08-18T14:22:54Z</time>
      </trkpt>
      <trkpt lat="39.468537" lon="-6.393117">
        <time>2021-08-18T14:23:03Z</time>
      </trkpt>
      <trkpt lat="39.468537" lon="-6.393117">
        <time>2021-08-18T14:23:03Z</time>
      </trkpt>
      <trkpt lat="39.468958" lon="-6.393724">
        <time>2021-08-18T14:23:09Z</time>
      </trkpt>
      <trkpt lat="39.469105" lon="-6.393815">
        <time>2021-08-18T14:23:12Z</time>
      </trkpt>
      <trkpt lat="39.469492" lon="-6.394141">
        <time>2021-08-18T14:23:18Z</time>
      </trkpt>
      <trkpt lat="39.469707" lon="-6.394456">
        <time>2021-08-18T14:23:21Z</time>
      </trkpt>
      <trkpt lat="39.470088" lon="-6.394695">
        <time>2021-08-18T14:23:24Z</time>
      </trkpt>
      <trkpt lat="39.471612" lon="-6.395189">
        <time>2021-08-18T14:23:33Z</time>
      </trkpt>
      <trkpt lat="39.472779" lon="-6.395337">
        <time>2021-08-18T14:23:39Z</time>
      </trkpt>
      <trkpt lat="39.47389" lon="-6.39577">
        <time>2021-08-18T14:23:45Z</time>
      </trkpt>
      <trkpt lat="39.474292" lon="-6.396345">
        <time>2021-08-18T14:23:48Z</time>
      </trkpt>
      <trkpt lat="39.474555" lon="-6.397026">
        <time>2021-08-18T14:23:51Z</time>
      </trkpt>
      <trkpt lat="39.474645" lon="-6.397767">
        <time>2021-08-18T14:23:54Z</time>
      </trkpt>
      <trkpt lat="39.474695" lon="-6.399995">
        <time>2021-08-18T14:24:03Z</time>
      </trkpt>
      <trkpt lat="39.474748" lon="-6.401071">
        <time>2021-08-18T14:24:09Z</time>
      </trkpt>
      <trkpt lat="39.474938" lon="-6.401383">
        <time>2021-08-18T14:24:12Z</time>
      </trkpt>
      <trkpt lat="39.475152" lon="-6.401714">
        <time>2021-08-18T14:24:15Z</time>
      </trkpt>
      <trkpt lat="39.475175" lon="-6.402153">
        <time>2021-08-18T14:24:18Z</time>
      </trkpt>
      <trkpt lat="39.474994" lon="-6.402603">
        <time>2021-08-18T14:24:21Z</time>
      </trkpt>
      <trkpt lat="39.474984" lon="-6.40311">
        <time>2021-08-18T14:24:24Z</time>
      </trkpt>
      <trkpt lat="39.475698" lon="-6.404921">
        <time>2021-08-18T14:24:33Z</time>
      </trkpt>
      <trkpt lat="39.476035" lon="-6.40553">
        <time>2021-08-18T14:24:36Z</time>
      </trkpt>
      <trkpt lat="39.477292" lon="-6.407157">
        <time>2021-08-18T14:24:45Z</time>
      </trkpt>
      <trkpt lat="39.480046" lon="-6.409386">
        <time>2021-08-18T14:25:00Z</time>
      </trkpt>
      <trkpt lat="39.480928" lon="-6.409994">
        <time>2021-08-18T14:25:06Z</time>
      </trkpt>
      <trkpt lat="39.481269" lon="-6.410013">
        <time>2021-08-18T14:25:09Z</time>
      </trkpt>
      <trkpt lat="39.4816" lon="-6.410045">
        <time>2021-08-18T14:25:12Z</time>
      </trkpt>
      <trkpt lat="39.481825" lon="-6.410327">
        <time>2021-08-18T14:25:15Z</time>
      </trkpt>
      <trkpt lat="39.482455" lon="-6.411062">
        <time>2021-08-18T14:25:21Z</time>
      </trkpt>
      <trkpt lat="39.484011" lon="-6.412144">
        <time>2021-08-18T14:25:30Z</time>
      </trkpt>
      <trkpt lat="39.488269" lon="-6.414135">
        <time>2021-08-18T14:25:51Z</time>
      </trkpt>
      <trkpt lat="39.492569" lon="-6.416138">
        <time>2021-08-18T14:26:18Z</time>
      </trkpt>
      <trkpt lat="39.492569" lon="-6.416138">
        <time>2021-08-18T14:26:18Z</time>
      </trkpt>
      <trkpt lat="39.493155" lon="-6.416268">
        <time>2021-08-18T14:26:24Z</time>
      </trkpt>
      <trkpt lat="39.493744" lon="-6.417057">
        <time>2021-08-18T14:26:30Z</time>
      </trkpt>
      <trkpt lat="39.496351" lon="-6.419128">
        <time>2021-08-18T14:26:45Z</time>
      </trkpt>
      <trkpt lat="39.499967" lon="-6.421455">
        <time>2021-08-18T14:27:03Z</time>
      </trkpt>
      <trkpt lat="39.500635" lon="-6.421594">
        <time>2021-08-18T14:27:06Z</time>
      </trkpt>
      <trkpt lat="39.502883" lon="-6.421714">
        <time>2021-08-18T14:27:18Z</time>
      </trkpt>
      <trkpt lat="39.503525" lon="-6.421534">
        <time>2021-08-18T14:27:24Z</time>
      </trkpt>
      <trkpt lat="39.503831" lon="-6.421819">
        <time>2021-08-18T14:27:27Z</time>
      </trkpt>
      <trkpt lat="39.504236" lon="-6.421982">
        <time>2021-08-18T14:27:30Z</time>
      </trkpt>
      <trkpt lat="39.505254" lon="-6.422057">
        <time>2021-08-18T14:27:36Z</time>
      </trkpt>
      <trkpt lat="39.510089" lon="-6.423407">
        <time>2021-08-18T14:28:00Z</time>
      </trkpt>
      <trkpt lat="39.514591" lon="-6.424475">
        <time>2021-08-18T14:28:24Z</time>
      </trkpt>
      <trkpt lat="39.514591" lon="-6.424475">
        <time>2021-08-18T14:28:24Z</time>
      </trkpt>
      <trkpt lat="39.514902" lon="-6.424238">
        <time>2021-08-18T14:28:27Z</time>
      </trkpt>
      <trkpt lat="39.515218" lon="-6.42401">
        <time>2021-08-18T14:28:30Z</time>
      </trkpt>
      <trkpt lat="39.515613" lon="-6.424015">
        <time>2021-08-18T14:28:33Z</time>
      </trkpt>
      <trkpt lat="39.515981" lon="-6.424281">
        <time>2021-08-18T14:28:36Z</time>
      </trkpt>
      <trkpt lat="39.516193" lon="-6.424727">
        <time>2021-08-18T14:28:39Z</time>
      </trkpt>
      <trkpt lat="39.516419" lon="-6.425075">
        <time>2021-08-18T14:28:42Z</time>
      </trkpt>
      <trkpt lat="39.5173" lon="-6.425457">
        <time>2021-08-18T14:28:48Z</time>
      </trkpt>
      <trkpt lat="39.518973" lon="-6.425973">
        <time>2021-08-18T14:28:57Z</time>
      </trkpt>
      <trkpt lat="39.520026" lon="-6.426241">
        <time>2021-08-18T14:29:06Z</time>
      </trkpt>
      <trkpt lat="39.520398" lon="-6.426395">
        <time>2021-08-18T14:29:09Z</time>
      </trkpt>
      <trkpt lat="39.523531" lon="-6.427875">
        <time>2021-08-18T14:29:27Z</time>
      </trkpt>
      <trkpt lat="39.527847" lon="-6.430031">
        <time>2021-08-18T14:29:48Z</time>
      </trkpt>
      <trkpt lat="39.532131" lon="-6.432134">
        <time>2021-08-18T14:30:09Z</time>
      </trkpt>
      <trkpt lat="39.536547" lon="-6.434061">
        <time>2021-08-18T14:30:36Z</time>
      </trkpt>
      <trkpt lat="39.536547" lon="-6.434061">
        <time>2021-08-18T14:30:36Z</time>
      </trkpt>
      <trkpt lat="39.540428" lon="-6.43406">
        <time>2021-08-18T14:30:57Z</time>
      </trkpt>
      <trkpt lat="39.541544" lon="-6.434465">
        <time>2021-08-18T14:31:03Z</time>
      </trkpt>
      <trkpt lat="39.5463" lon="-6.43618">
        <time>2021-08-18T14:31:27Z</time>
      </trkpt>
      <trkpt lat="39.550685" lon="-6.438937">
        <time>2021-08-18T14:31:51Z</time>
      </trkpt>
      <trkpt lat="39.555281" lon="-6.441306">
        <time>2021-08-18T14:32:18Z</time>
      </trkpt>
      <trkpt lat="39.557045" lon="-6.442432">
        <time>2021-08-18T14:32:27Z</time>
      </trkpt>
      <trkpt lat="39.559402" lon="-6.44426">
        <time>2021-08-18T14:32:39Z</time>
      </trkpt>
      <trkpt lat="39.561602" lon="-6.446246">
        <time>2021-08-18T14:32:51Z</time>
      </trkpt>
      <trkpt lat="39.562797" lon="-6.44842">
        <time>2021-08-18T14:33:00Z</time>
      </trkpt>
      <trkpt lat="39.563297" lon="-6.448982">
        <time>2021-08-18T14:33:03Z</time>
      </trkpt>
      <trkpt lat="39.566075" lon="-6.451075">
        <time>2021-08-18T14:33:18Z</time>
      </trkpt>
      <trkpt lat="39.566726" lon="-6.451402">
        <time>2021-08-18T14:33:21Z</time>
      </trkpt>
      <trkpt lat="39.571181" lon="-6.453427">
        <time>2021-08-18T14:33:42Z</time>
      </trkpt>
      <trkpt lat="39.575657" lon="-6.455492">
        <time>2021-08-18T14:34:03Z</time>
      </trkpt>
      <trkpt lat="39.579869" lon="-6.458045">
        <time>2021-08-18T14:34:24Z</time>
      </trkpt>
      <trkpt lat="39.583455" lon="-6.460326">
        <time>2021-08-18T14:34:42Z</time>
      </trkpt>
      <trkpt lat="39.583939" lon="-6.46089">
        <time>2021-08-18T14:34:45Z</time>
      </trkpt>
      <trkpt lat="39.587437" lon="-6.465682">
        <time>2021-08-18T14:35:06Z</time>
      </trkpt>
      <trkpt lat="39.590843" lon="-6.469519">
        <time>2021-08-18T14:35:24Z</time>
      </trkpt>
      <trkpt lat="39.592704" lon="-6.471323">
        <time>2021-08-18T14:35:33Z</time>
      </trkpt>
      <trkpt lat="39.594701" lon="-6.472818">
        <time>2021-08-18T14:35:42Z</time>
      </trkpt>
      <trkpt lat="39.596084" lon="-6.473693">
        <time>2021-08-18T14:35:48Z</time>
      </trkpt>
      <trkpt lat="39.59907" lon="-6.474664">
        <time>2021-08-18T14:36:00Z</time>
      </trkpt>
      <trkpt lat="39.603538" lon="-6.476825">
        <time>2021-08-18T14:36:18Z</time>
      </trkpt>
      <trkpt lat="39.608027" lon="-6.478643">
        <time>2021-08-18T14:36:36Z</time>
      </trkpt>
      <trkpt lat="39.611739" lon="-6.479641">
        <time>2021-08-18T14:36:51Z</time>
      </trkpt>
      <trkpt lat="39.612502" lon="-6.479567">
        <time>2021-08-18T14:36:54Z</time>
      </trkpt>
      <trkpt lat="39.617193" lon="-6.479657">
        <time>2021-08-18T14:37:12Z</time>
      </trkpt>
      <trkpt lat="39.6218" lon="-6.480227">
        <time>2021-08-18T14:37:30Z</time>
      </trkpt>
      <trkpt lat="39.626331" lon="-6.480736">
        <time>2021-08-18T14:37:48Z</time>
      </trkpt>
      <trkpt lat="39.631456" lon="-6.480692">
        <time>2021-08-18T14:38:09Z</time>
      </trkpt>
      <trkpt lat="39.636078" lon="-6.481015">
        <time>2021-08-18T14:38:27Z</time>
      </trkpt>
      <trkpt lat="39.637183" lon="-6.481249">
        <time>2021-08-18T14:38:33Z</time>
      </trkpt>
      <trkpt lat="39.640578" lon="-6.482132">
        <time>2021-08-18T14:38:54Z</time>
      </trkpt>
      <trkpt lat="39.643845" lon="-6.482712">
        <time>2021-08-18T14:39:12Z</time>
      </trkpt>
      <trkpt lat="39.645433" lon="-6.482374">
        <time>2021-08-18T14:39:21Z</time>
      </trkpt>
      <trkpt lat="39.648957" lon="-6.482001">
        <time>2021-08-18T14:39:39Z</time>
      </trkpt>
      <trkpt lat="39.650123" lon="-6.482261">
        <time>2021-08-18T14:39:45Z</time>
      </trkpt>
      <trkpt lat="39.655332" lon="-6.483308">
        <time>2021-08-18T14:40:06Z</time>
      </trkpt>
      <trkpt lat="39.659896" lon="-6.483447">
        <time>2021-08-18T14:40:21Z</time>
      </trkpt>
      <trkpt lat="39.662835" lon="-6.483518">
        <time>2021-08-18T14:40:33Z</time>
      </trkpt>
      <trkpt lat="39.66416" lon="-6.482972">
        <time>2021-08-18T14:40:39Z</time>
      </trkpt>
      <trkpt lat="39.664701" lon="-6.482353">
        <time>2021-08-18T14:40:42Z</time>
      </trkpt>
      <trkpt lat="39.664701" lon="-6.482353">
        <time>2021-08-18T14:40:42Z</time>
      </trkpt>
      <trkpt lat="39.665438" lon="-6.480714">
        <time>2021-08-18T14:40:48Z</time>
      </trkpt>
      <trkpt lat="39.66683" lon="-6.477101">
        <time>2021-08-18T14:41:00Z</time>
      </trkpt>
      <trkpt lat="39.66736" lon="-6.476352">
        <time>2021-08-18T14:41:03Z</time>
      </trkpt>
      <trkpt lat="39.670039" lon="-6.47285">
        <time>2021-08-18T14:41:18Z</time>
      </trkpt>
      <trkpt lat="39.670404" lon="-6.472065">
        <time>2021-08-18T14:41:21Z</time>
      </trkpt>
      <trkpt lat="39.671089" lon="-6.470819">
        <time>2021-08-18T14:41:27Z</time>
      </trkpt>
      <trkpt lat="39.671623" lon="-6.470547">
        <time>2021-08-18T14:41:30Z</time>
      </trkpt>
      <trkpt lat="39.672168" lon="-6.470659">
        <time>2021-08-18T14:41:33Z</time>
      </trkpt>
      <trkpt lat="39.673964" lon="-6.471874">
        <time>2021-08-18T14:41:42Z</time>
      </trkpt>
      <trkpt lat="39.674492" lon="-6.47245">
        <time>2021-08-18T14:41:45Z</time>
      </trkpt>
      <trkpt lat="39.675231" lon="-6.473807">
        <time>2021-08-18T14:41:51Z</time>
      </trkpt>
      <trkpt lat="39.675739" lon="-6.47414">
        <time>2021-08-18T14:41:54Z</time>
      </trkpt>
      <trkpt lat="39.676347" lon="-6.47411">
        <time>2021-08-18T14:41:57Z</time>
      </trkpt>
      <trkpt lat="39.677557" lon="-6.473898">
        <time>2021-08-18T14:42:03Z</time>
      </trkpt>
      <trkpt lat="39.678147" lon="-6.474241">
        <time>2021-08-18T14:42:06Z</time>
      </trkpt>
      <trkpt lat="39.678147" lon="-6.474241">
        <time>2021-08-18T14:42:06Z</time>
      </trkpt>
      <trkpt lat="39.679332" lon="-6.474897">
        <time>2021-08-18T14:42:12Z</time>
      </trkpt>
      <trkpt lat="39.68127" lon="-6.474502">
        <time>2021-08-18T14:42:21Z</time>
      </trkpt>
      <trkpt lat="39.682438" lon="-6.473848">
        <time>2021-08-18T14:42:27Z</time>
      </trkpt>
      <trkpt lat="39.682438" lon="-6.473848">
        <time>2021-08-18T14:42:27Z</time>
      </trkpt>
      <trkpt lat="39.68362" lon="-6.473499">
        <time>2021-08-18T14:42:33Z</time>
      </trkpt>
      <trkpt lat="39.683981" lon="-6.472842">
        <time>2021-08-18T14:42:36Z</time>
      </trkpt>
      <trkpt lat="39.684539" lon="-6.471411">
        <time>2021-08-18T14:42:42Z</time>
      </trkpt>
      <trkpt lat="39.685085" lon="-6.471116">
        <time>2021-08-18T14:42:45Z</time>
      </trkpt>
      <trkpt lat="39.685699" lon="-6.471245">
        <time>2021-08-18T14:42:48Z</time>
      </trkpt>
      <trkpt lat="39.686277" lon="-6.471571">
        <time>2021-08-18T14:42:51Z</time>
      </trkpt>
      <trkpt lat="39.686872" lon="-6.471586">
        <time>2021-08-18T14:42:54Z</time>
      </trkpt>
      <trkpt lat="39.687425" lon="-6.47119">
        <time>2021-08-18T14:42:57Z</time>
      </trkpt>
      <trkpt lat="39.687986" lon="-6.470755">
        <time>2021-08-18T14:43:00Z</time>
      </trkpt>
      <trkpt lat="39.6892" lon="-6.470315">
        <time>2021-08-18T14:43:06Z</time>
      </trkpt>
      <trkpt lat="39.689613" lon="-6.469706">
        <time>2021-08-18T14:43:09Z</time>
      </trkpt>
      <trkpt lat="39.690232" lon="-6.468112">
        <time>2021-08-18T14:43:15Z</time>
      </trkpt>
      <trkpt lat="39.692109" lon="-6.463933">
        <time>2021-08-18T14:43:33Z</time>
      </trkpt>
      <trkpt lat="39.692652" lon="-6.463839">
        <time>2021-08-18T14:43:36Z</time>
      </trkpt>
      <trkpt lat="39.693284" lon="-6.464059">
        <time>2021-08-18T14:43:39Z</time>
      </trkpt>
      <trkpt lat="39.693284" lon="-6.464059">
        <time>2021-08-18T14:43:39Z</time>
      </trkpt>
      <trkpt lat="39.695215" lon="-6.46478">
        <time>2021-08-18T14:43:48Z</time>
      </trkpt>
      <trkpt lat="39.695744" lon="-6.464411">
        <time>2021-08-18T14:43:51Z</time>
      </trkpt>
      <trkpt lat="39.696795" lon="-6.463457">
        <time>2021-08-18T14:43:57Z</time>
      </trkpt>
      <trkpt lat="39.697464" lon="-6.463303">
        <time>2021-08-18T14:44:00Z</time>
      </trkpt>
      <trkpt lat="39.698661" lon="-6.462801">
        <time>2021-08-18T14:44:06Z</time>
      </trkpt>
      <trkpt lat="39.699926" lon="-6.460592">
        <time>2021-08-18T14:44:15Z</time>
      </trkpt>
      <trkpt lat="39.700502" lon="-6.458809">
        <time>2021-08-18T14:44:21Z</time>
      </trkpt>
      <trkpt lat="39.7011" lon="-6.45735">
        <time>2021-08-18T14:44:27Z</time>
      </trkpt>
      <trkpt lat="39.701664" lon="-6.457039">
        <time>2021-08-18T14:44:30Z</time>
      </trkpt>
      <trkpt lat="39.704748" lon="-6.45668">
        <time>2021-08-18T14:44:42Z</time>
      </trkpt>
      <trkpt lat="39.706417" lon="-6.456563">
        <time>2021-08-18T14:44:48Z</time>
      </trkpt>
      <trkpt lat="39.708551" lon="-6.456565">
        <time>2021-08-18T14:44:57Z</time>
      </trkpt>
      <trkpt lat="39.709178" lon="-6.456122">
        <time>2021-08-18T14:45:00Z</time>
      </trkpt>
      <trkpt lat="39.711662" lon="-6.454138">
        <time>2021-08-18T14:45:12Z</time>
      </trkpt>
      <trkpt lat="39.713196" lon="-6.452614">
        <time>2021-08-18T14:45:21Z</time>
      </trkpt>
      <trkpt lat="39.713196" lon="-6.452614">
        <time>2021-08-18T14:45:21Z</time>
      </trkpt>
      <trkpt lat="39.714373" lon="-6.452062">
        <time>2021-08-18T14:45:27Z</time>
      </trkpt>
      <trkpt lat="39.714748" lon="-6.451378">
        <time>2021-08-18T14:45:30Z</time>
      </trkpt>
      <trkpt lat="39.715105" lon="-6.45071">
        <time>2021-08-18T14:45:33Z</time>
      </trkpt>
      <trkpt lat="39.715604" lon="-6.450344">
        <time>2021-08-18T14:45:36Z</time>
      </trkpt>
      <trkpt lat="39.717212" lon="-6.449615">
        <time>2021-08-18T14:45:45Z</time>
      </trkpt>
      <trkpt lat="39.72002" lon="-6.44852">
        <time>2021-08-18T14:46:00Z</time>
      </trkpt>
      <trkpt lat="39.720552" lon="-6.448766">
        <time>2021-08-18T14:46:03Z</time>
      </trkpt>
      <trkpt lat="39.721676" lon="-6.449026">
        <time>2021-08-18T14:46:09Z</time>
      </trkpt>
      <trkpt lat="39.721676" lon="-6.449026">
        <time>2021-08-18T14:46:09Z</time>
      </trkpt>
      <trkpt lat="39.724236" lon="-6.448001">
        <time>2021-08-18T14:46:21Z</time>
      </trkpt>
      <trkpt lat="39.724886" lon="-6.448122">
        <time>2021-08-18T14:46:24Z</time>
      </trkpt>
      <trkpt lat="39.726296" lon="-6.448511">
        <time>2021-08-18T14:46:30Z</time>
      </trkpt>
      <trkpt lat="39.728328" lon="-6.448943">
        <time>2021-08-18T14:46:39Z</time>
      </trkpt>
      <trkpt lat="39.7294" lon="-6.449202">
        <time>2021-08-18T14:46:45Z</time>
      </trkpt>
      <trkpt lat="39.729836" lon="-6.449723">
        <time>2021-08-18T14:46:48Z</time>
      </trkpt>
      <trkpt lat="39.730252" lon="-6.450251">
        <time>2021-08-18T14:46:51Z</time>
      </trkpt>
      <trkpt lat="39.730795" lon="-6.450479">
        <time>2021-08-18T14:46:54Z</time>
      </trkpt>
      <trkpt lat="39.730795" lon="-6.450479">
        <time>2021-08-18T14:46:54Z</time>
      </trkpt>
      <trkpt lat="39.731366" lon="-6.450327">
        <time>2021-08-18T14:46:57Z</time>
      </trkpt>
      <trkpt lat="39.734855" lon="-6.44782">
        <time>2021-08-18T14:47:15Z</time>
      </trkpt>
      <trkpt lat="39.734855" lon="-6.44782">
        <time>2021-08-18T14:47:15Z</time>
      </trkpt>
      <trkpt lat="39.738091" lon="-6.446465">
        <time>2021-08-18T14:47:30Z</time>
      </trkpt>
      <trkpt lat="39.739198" lon="-6.445249">
        <time>2021-08-18T14:47:36Z</time>
      </trkpt>
      <trkpt lat="39.742966" lon="-6.442001">
        <time>2021-08-18T14:47:54Z</time>
      </trkpt>
      <trkpt lat="39.747153" lon="-6.438821">
        <time>2021-08-18T14:48:12Z</time>
      </trkpt>
      <trkpt lat="39.748546" lon="-6.437854">
        <time>2021-08-18T14:48:18Z</time>
      </trkpt>
      <trkpt lat="39.751426" lon="-6.436451">
        <time>2021-08-18T14:48:30Z</time>
      </trkpt>
      <trkpt lat="39.751426" lon="-6.436451">
        <time>2021-08-18T14:48:30Z</time>
      </trkpt>
      <trkpt lat="39.754841" lon="-6.432515">
        <time>2021-08-18T14:48:48Z</time>
      </trkpt>
      <trkpt lat="39.756029" lon="-6.431408">
        <time>2021-08-18T14:48:54Z</time>
      </trkpt>
      <trkpt lat="39.756747" lon="-6.431199">
        <time>2021-08-18T14:48:57Z</time>
      </trkpt>
      <trkpt lat="39.7575" lon="-6.43125">
        <time>2021-08-18T14:49:00Z</time>
      </trkpt>
      <trkpt lat="39.759009" lon="-6.431924">
        <time>2021-08-18T14:49:06Z</time>
      </trkpt>
      <trkpt lat="39.76282" lon="-6.433196">
        <time>2021-08-18T14:49:21Z</time>
      </trkpt>
      <trkpt lat="39.763508" lon="-6.432788">
        <time>2021-08-18T14:49:24Z</time>
      </trkpt>
      <trkpt lat="39.763508" lon="-6.432788">
        <time>2021-08-18T14:49:24Z</time>
      </trkpt>
      <trkpt lat="39.76533" lon="-6.431093">
        <time>2021-08-18T14:49:33Z</time>
      </trkpt>
      <trkpt lat="39.768001" lon="-6.430086">
        <time>2021-08-18T14:49:45Z</time>
      </trkpt>
      <trkpt lat="39.768001" lon="-6.430086">
        <time>2021-08-18T14:49:45Z</time>
      </trkpt>
      <trkpt lat="39.769587" lon="-6.428543">
        <time>2021-08-18T14:49:54Z</time>
      </trkpt>
      <trkpt lat="39.769777" lon="-6.427862">
        <time>2021-08-18T14:49:57Z</time>
      </trkpt>
      <trkpt lat="39.77001" lon="-6.427158">
        <time>2021-08-18T14:50:00Z</time>
      </trkpt>
      <trkpt lat="39.770694" lon="-6.425883">
        <time>2021-08-18T14:50:06Z</time>
      </trkpt>
      <trkpt lat="39.770815" lon="-6.425123">
        <time>2021-08-18T14:50:09Z</time>
      </trkpt>
      <trkpt lat="39.772229" lon="-6.420306">
        <time>2021-08-18T14:50:27Z</time>
      </trkpt>
      <trkpt lat="39.772671" lon="-6.4196">
        <time>2021-08-18T14:50:30Z</time>
      </trkpt>
      <trkpt lat="39.774758" lon="-6.417145">
        <time>2021-08-18T14:50:42Z</time>
      </trkpt>
      <trkpt lat="39.77595" lon="-6.416236">
        <time>2021-08-18T14:50:48Z</time>
      </trkpt>
      <trkpt lat="39.776337" lon="-6.41551">
        <time>2021-08-18T14:50:51Z</time>
      </trkpt>
      <trkpt lat="39.776337" lon="-6.41551">
        <time>2021-08-18T14:50:51Z</time>
      </trkpt>
      <trkpt lat="39.777447" lon="-6.412125">
        <time>2021-08-18T14:51:03Z</time>
      </trkpt>
      <trkpt lat="39.777375" lon="-6.411309">
        <time>2021-08-18T14:51:06Z</time>
      </trkpt>
      <trkpt lat="39.777085" lon="-6.409788">
        <time>2021-08-18T14:51:12Z</time>
      </trkpt>
      <trkpt lat="39.777085" lon="-6.409788">
        <time>2021-08-18T14:51:12Z</time>
      </trkpt>
      <trkpt lat="39.777229" lon="-6.409049">
        <time>2021-08-18T14:51:15Z</time>
      </trkpt>
      <trkpt lat="39.778351" lon="-6.406811">
        <time>2021-08-18T14:51:24Z</time>
      </trkpt>
      <trkpt lat="39.780014" lon="-6.40492">
        <time>2021-08-18T14:51:33Z</time>
      </trkpt>
      <trkpt lat="39.780275" lon="-6.404238">
        <time>2021-08-18T14:51:36Z</time>
      </trkpt>
      <trkpt lat="39.780493" lon="-6.401625">
        <time>2021-08-18T14:51:45Z</time>
      </trkpt>
      <trkpt lat="39.780454" lon="-6.400035">
        <time>2021-08-18T14:51:51Z</time>
      </trkpt>
      <trkpt lat="39.780899" lon="-6.398797">
        <time>2021-08-18T14:51:57Z</time>
      </trkpt>
      <trkpt lat="39.781127" lon="-6.398258">
        <time>2021-08-18T14:52:00Z</time>
      </trkpt>
      <trkpt lat="39.783082" lon="-6.39511">
        <time>2021-08-18T14:52:21Z</time>
      </trkpt>
      <trkpt lat="39.7834" lon="-6.394888">
        <time>2021-08-18T14:52:24Z</time>
      </trkpt>
      <trkpt lat="39.784164" lon="-6.394751">
        <time>2021-08-18T14:52:30Z</time>
      </trkpt>
      <trkpt lat="39.784869" lon="-6.394676">
        <time>2021-08-18T14:52:36Z</time>
      </trkpt>
      <trkpt lat="39.786254" lon="-6.394365">
        <time>2021-08-18T14:52:48Z</time>
      </trkpt>
      <trkpt lat="39.788768" lon="-6.393079">
        <time>2021-08-18T14:53:12Z</time>
      </trkpt>
      <trkpt lat="39.788768" lon="-6.393079">
        <time>2021-08-18T14:53:12Z</time>
      </trkpt>
      <trkpt lat="39.789369" lon="-6.392111">
        <time>2021-08-18T14:53:21Z</time>
      </trkpt>
      <trkpt lat="39.789657" lon="-6.392005">
        <time>2021-08-18T14:53:24Z</time>
      </trkpt>
      <trkpt lat="39.790672" lon="-6.392034">
        <time>2021-08-18T14:53:33Z</time>
      </trkpt>
      <trkpt lat="39.790914" lon="-6.391753">
        <time>2021-08-18T14:53:36Z</time>
      </trkpt>
      <trkpt lat="39.791672" lon="-6.390892">
        <time>2021-08-18T14:53:45Z</time>
      </trkpt>
      <trkpt lat="39.79279" lon="-6.390601">
        <time>2021-08-18T14:54:00Z</time>
      </trkpt>
      <trkpt lat="39.79279" lon="-6.390601">
        <time>2021-08-18T14:54:00Z</time>
      </trkpt>
      <trkpt lat="39.792903" lon="-6.390296">
        <time>2021-08-18T14:54:03Z</time>
      </trkpt>
      <trkpt lat="39.792847" lon="-6.388505">
        <time>2021-08-18T14:54:15Z</time>
      </trkpt>
      <trkpt lat="39.793" lon="-6.388001">
        <time>2021-08-18T14:54:18Z</time>
      </trkpt>
      <trkpt lat="39.794524" lon="-6.385258">
        <time>2021-08-18T14:54:33Z</time>
      </trkpt>
      <trkpt lat="39.795476" lon="-6.383375">
        <time>2021-08-18T14:54:42Z</time>
      </trkpt>
      <trkpt lat="39.795511" lon="-6.382731">
        <time>2021-08-18T14:54:45Z</time>
      </trkpt>
      <trkpt lat="39.795438" lon="-6.380604">
        <time>2021-08-18T14:54:54Z</time>
      </trkpt>
      <trkpt lat="39.795954" lon="-6.379148">
        <time>2021-08-18T14:55:00Z</time>
      </trkpt>
      <trkpt lat="39.796874" lon="-6.375056">
        <time>2021-08-18T14:55:18Z</time>
      </trkpt>
      <trkpt lat="39.796847" lon="-6.374375">
        <time>2021-08-18T14:55:24Z</time>
      </trkpt>
      <trkpt lat="39.797086" lon="-6.374309">
        <time>2021-08-18T14:55:27Z</time>
      </trkpt>
      <trkpt lat="39.797654" lon="-6.374243">
        <time>2021-08-18T14:55:33Z</time>
      </trkpt>
      <trkpt lat="39.797654" lon="-6.374243">
        <time>2021-08-18T14:55:33Z</time>
      </trkpt>
      <trkpt lat="39.800558" lon="-6.372203">
        <time>2021-08-18T14:55:54Z</time>
      </trkpt>
      <trkpt lat="39.801201" lon="-6.370817">
        <time>2021-08-18T14:56:00Z</time>
      </trkpt>
      <trkpt lat="39.802362" lon="-6.368901">
        <time>2021-08-18T14:56:09Z</time>
      </trkpt>
      <trkpt lat="39.802969" lon="-6.368558">
        <time>2021-08-18T14:56:12Z</time>
      </trkpt>
      <trkpt lat="39.804977" lon="-6.36804">
        <time>2021-08-18T14:56:21Z</time>
      </trkpt>
      <trkpt lat="39.807442" lon="-6.367572">
        <time>2021-08-18T14:56:33Z</time>
      </trkpt>
      <trkpt lat="39.807887" lon="-6.367943">
        <time>2021-08-18T14:56:36Z</time>
      </trkpt>
      <trkpt lat="39.808571" lon="-6.369227">
        <time>2021-08-18T14:56:42Z</time>
      </trkpt>
      <trkpt lat="39.808826" lon="-6.369955">
        <time>2021-08-18T14:56:45Z</time>
      </trkpt>
      <trkpt lat="39.809086" lon="-6.370524">
        <time>2021-08-18T14:56:48Z</time>
      </trkpt>
      <trkpt lat="39.80948" lon="-6.370718">
        <time>2021-08-18T14:56:51Z</time>
      </trkpt>
      <trkpt lat="39.809939" lon="-6.370653">
        <time>2021-08-18T14:56:54Z</time>
      </trkpt>
      <trkpt lat="39.81142" lon="-6.369863">
        <time>2021-08-18T14:57:03Z</time>
      </trkpt>
      <trkpt lat="39.812309" lon="-6.368162">
        <time>2021-08-18T14:57:12Z</time>
      </trkpt>
      <trkpt lat="39.812309" lon="-6.368162">
        <time>2021-08-18T14:57:12Z</time>
      </trkpt>
      <trkpt lat="39.815161" lon="-6.366536">
        <time>2021-08-18T14:57:27Z</time>
      </trkpt>
      <trkpt lat="39.817056" lon="-6.36592">
        <time>2021-08-18T14:57:36Z</time>
      </trkpt>
      <trkpt lat="39.817615" lon="-6.36552">
        <time>2021-08-18T14:57:39Z</time>
      </trkpt>
      <trkpt lat="39.818766" lon="-6.365016">
        <time>2021-08-18T14:57:45Z</time>
      </trkpt>
      <trkpt lat="39.819647" lon="-6.365127">
        <time>2021-08-18T14:57:51Z</time>
      </trkpt>
      <trkpt lat="39.819802" lon="-6.364954">
        <time>2021-08-18T14:57:54Z</time>
      </trkpt>
      <trkpt lat="39.819975" lon="-6.364753">
        <time>2021-08-18T14:57:57Z</time>
      </trkpt>
      <trkpt lat="39.820232" lon="-6.36475">
        <time>2021-08-18T14:58:00Z</time>
      </trkpt>
      <trkpt lat="39.821485" lon="-6.364691">
        <time>2021-08-18T14:58:09Z</time>
      </trkpt>
      <trkpt lat="39.821485" lon="-6.364691">
        <time>2021-08-18T14:58:09Z</time>
      </trkpt>
      <trkpt lat="39.825869" lon="-6.363224">
        <time>2021-08-18T14:58:30Z</time>
      </trkpt>
      <trkpt lat="39.830592" lon="-6.361609">
        <time>2021-08-18T14:58:51Z</time>
      </trkpt>
      <trkpt lat="39.834995" lon="-6.360015">
        <time>2021-08-18T14:59:15Z</time>
      </trkpt>
      <trkpt lat="39.834995" lon="-6.360015">
        <time>2021-08-18T14:59:15Z</time>
      </trkpt>
      <trkpt lat="39.835165" lon="-6.359729">
        <time>2021-08-18T14:59:18Z</time>
      </trkpt>
      <trkpt lat="39.835284" lon="-6.359331">
        <time>2021-08-18T14:59:21Z</time>
      </trkpt>
      <trkpt lat="39.835256" lon="-6.358779">
        <time>2021-08-18T14:59:24Z</time>
      </trkpt>
      <trkpt lat="39.835295" lon="-6.357512">
        <time>2021-08-18T14:59:30Z</time>
      </trkpt>
      <trkpt lat="39.83582" lon="-6.356073">
        <time>2021-08-18T14:59:36Z</time>
      </trkpt>
      <trkpt lat="39.836599" lon="-6.354643">
        <time>2021-08-18T14:59:42Z</time>
      </trkpt>
      <trkpt lat="39.837217" lon="-6.353244">
        <time>2021-08-18T14:59:48Z</time>
      </trkpt>
      <trkpt lat="39.83796" lon="-6.350957">
        <time>2021-08-18T14:59:57Z</time>
      </trkpt>
      <trkpt lat="39.839292" lon="-6.349564">
        <time>2021-08-18T15:00:06Z</time>
      </trkpt>
      <trkpt lat="39.839555" lon="-6.349139">
        <time>2021-08-18T15:00:09Z</time>
      </trkpt>
      <trkpt lat="39.841576" lon="-6.343996">
        <time>2021-08-18T15:00:36Z</time>
      </trkpt>
      <trkpt lat="39.84444" lon="-6.338634">
        <time>2021-08-18T15:01:00Z</time>
      </trkpt>
      <trkpt lat="39.84444" lon="-6.338634">
        <time>2021-08-18T15:01:00Z</time>
      </trkpt>
      <trkpt lat="39.847664" lon="-6.333977">
        <time>2021-08-18T15:01:21Z</time>
      </trkpt>
      <trkpt lat="39.848188" lon="-6.333471">
        <time>2021-08-18T15:01:24Z</time>
      </trkpt>
      <trkpt lat="39.849052" lon="-6.332307">
        <time>2021-08-18T15:01:30Z</time>
      </trkpt>
      <trkpt lat="39.850618" lon="-6.329487">
        <time>2021-08-18T15:01:42Z</time>
      </trkpt>
      <trkpt lat="39.853288" lon="-6.324582">
        <time>2021-08-18T15:02:03Z</time>
      </trkpt>
      <trkpt lat="39.855075" lon="-6.320379">
        <time>2021-08-18T15:02:18Z</time>
      </trkpt>
      <trkpt lat="39.855825" lon="-6.318784">
        <time>2021-08-18T15:02:24Z</time>
      </trkpt>
      <trkpt lat="39.855825" lon="-6.318784">
        <time>2021-08-18T15:02:24Z</time>
      </trkpt>
      <trkpt lat="39.857668" lon="-6.317287">
        <time>2021-08-18T15:02:33Z</time>
      </trkpt>
      <trkpt lat="39.859043" lon="-6.315767">
        <time>2021-08-18T15:02:42Z</time>
      </trkpt>
      <trkpt lat="39.859356" lon="-6.314954">
        <time>2021-08-18T15:02:45Z</time>
      </trkpt>
      <trkpt lat="39.860874" lon="-6.311362">
        <time>2021-08-18T15:02:57Z</time>
      </trkpt>
      <trkpt lat="39.861872" lon="-6.309571">
        <time>2021-08-18T15:03:03Z</time>
      </trkpt>
      <trkpt lat="39.86486" lon="-6.304724">
        <time>2021-08-18T15:03:21Z</time>
      </trkpt>
      <trkpt lat="39.867906" lon="-6.299921">
        <time>2021-08-18T15:03:39Z</time>
      </trkpt>
      <trkpt lat="39.870894" lon="-6.295438">
        <time>2021-08-18T15:03:57Z</time>
      </trkpt>
      <trkpt lat="39.874169" lon="-6.290918">
        <time>2021-08-18T15:04:15Z</time>
      </trkpt>
      <trkpt lat="39.877511" lon="-6.286289">
        <time>2021-08-18T15:04:36Z</time>
      </trkpt>
      <trkpt lat="39.88053" lon="-6.281268">
        <time>2021-08-18T15:05:00Z</time>
      </trkpt>
      <trkpt lat="39.883614" lon="-6.277002">
        <time>2021-08-18T15:05:21Z</time>
      </trkpt>
      <trkpt lat="39.886951" lon="-6.272819">
        <time>2021-08-18T15:05:42Z</time>
      </trkpt>
      <trkpt lat="39.890199" lon="-6.26874">
        <time>2021-08-18T15:06:03Z</time>
      </trkpt>
      <trkpt lat="39.893714" lon="-6.264487">
        <time>2021-08-18T15:06:24Z</time>
      </trkpt>
      <trkpt lat="39.893714" lon="-6.264487">
        <time>2021-08-18T15:06:24Z</time>
      </trkpt>
      <trkpt lat="39.898043" lon="-6.261295">
        <time>2021-08-18T15:06:45Z</time>
      </trkpt>
      <trkpt lat="39.902361" lon="-6.257636">
        <time>2021-08-18T15:07:06Z</time>
      </trkpt>
      <trkpt lat="39.906943" lon="-6.254452">
        <time>2021-08-18T15:07:27Z</time>
      </trkpt>
      <trkpt lat="39.911147" lon="-6.251249">
        <time>2021-08-18T15:07:45Z</time>
      </trkpt>
      <trkpt lat="39.912961" lon="-6.249511">
        <time>2021-08-18T15:07:54Z</time>
      </trkpt>
      <trkpt lat="39.915209" lon="-6.246964">
        <time>2021-08-18T15:08:06Z</time>
      </trkpt>
      <trkpt lat="39.918604" lon="-6.242756">
        <time>2021-08-18T15:08:24Z</time>
      </trkpt>
      <trkpt lat="39.921798" lon="-6.239201">
        <time>2021-08-18T15:08:42Z</time>
      </trkpt>
      <trkpt lat="39.921798" lon="-6.239201">
        <time>2021-08-18T15:08:42Z</time>
      </trkpt>
      <trkpt lat="39.922044" lon="-6.238351">
        <time>2021-08-18T15:08:45Z</time>
      </trkpt>
      <trkpt lat="39.922044" lon="-6.238351">
        <time>2021-08-18T15:08:45Z</time>
      </trkpt>
      <trkpt lat="39.922072" lon="-6.236543">
        <time>2021-08-18T15:08:51Z</time>
      </trkpt>
      <trkpt lat="39.92224" lon="-6.234899">
        <time>2021-08-18T15:08:57Z</time>
      </trkpt>
      <trkpt lat="39.922561" lon="-6.234121">
        <time>2021-08-18T15:09:00Z</time>
      </trkpt>
      <trkpt lat="39.923633" lon="-6.232809">
        <time>2021-08-18T15:09:06Z</time>
      </trkpt>
      <trkpt lat="39.923633" lon="-6.232809">
        <time>2021-08-18T15:09:06Z</time>
      </trkpt>
      <trkpt lat="39.925277" lon="-6.230457">
        <time>2021-08-18T15:09:15Z</time>
      </trkpt>
      <trkpt lat="39.926662" lon="-6.227872">
        <time>2021-08-18T15:09:24Z</time>
      </trkpt>
      <trkpt lat="39.929268" lon="-6.222979">
        <time>2021-08-18T15:09:42Z</time>
      </trkpt>
      <trkpt lat="39.932048" lon="-6.217824">
        <time>2021-08-18T15:10:00Z</time>
      </trkpt>
      <trkpt lat="39.934798" lon="-6.212716">
        <time>2021-08-18T15:10:18Z</time>
      </trkpt>
      <trkpt lat="39.937551" lon="-6.207596">
        <time>2021-08-18T15:10:36Z</time>
      </trkpt>
      <trkpt lat="39.940425" lon="-6.202431">
        <time>2021-08-18T15:10:54Z</time>
      </trkpt>
      <trkpt lat="39.94352" lon="-6.197676">
        <time>2021-08-18T15:11:12Z</time>
      </trkpt>
      <trkpt lat="39.946714" lon="-6.192718">
        <time>2021-08-18T15:11:30Z</time>
      </trkpt>
      <trkpt lat="39.949854" lon="-6.187838">
        <time>2021-08-18T15:11:48Z</time>
      </trkpt>
      <trkpt lat="39.953022" lon="-6.182922">
        <time>2021-08-18T15:12:06Z</time>
      </trkpt>
      <trkpt lat="39.956034" lon="-6.178256">
        <time>2021-08-18T15:12:24Z</time>
      </trkpt>
      <trkpt lat="39.959447" lon="-6.173009">
        <time>2021-08-18T15:12:45Z</time>
      </trkpt>
      <trkpt lat="39.962747" lon="-6.168694">
        <time>2021-08-18T15:13:03Z</time>
      </trkpt>
      <trkpt lat="39.966137" lon="-6.164548">
        <time>2021-08-18T15:13:21Z</time>
      </trkpt>
      <trkpt lat="39.966137" lon="-6.164548">
        <time>2021-08-18T15:13:21Z</time>
      </trkpt>
      <trkpt lat="39.969791" lon="-6.160478">
        <time>2021-08-18T15:13:42Z</time>
      </trkpt>
      <trkpt lat="39.97377" lon="-6.156482">
        <time>2021-08-18T15:14:03Z</time>
      </trkpt>
      <trkpt lat="39.976667" lon="-6.153842">
        <time>2021-08-18T15:14:18Z</time>
      </trkpt>
      <trkpt lat="39.977701" lon="-6.153172">
        <time>2021-08-18T15:14:24Z</time>
      </trkpt>
      <trkpt lat="39.979172" lon="-6.152506">
        <time>2021-08-18T15:14:33Z</time>
      </trkpt>
      <trkpt lat="39.9799" lon="-6.152393">
        <time>2021-08-18T15:14:39Z</time>
      </trkpt>
      <trkpt lat="39.980127" lon="-6.152114">
        <time>2021-08-18T15:14:42Z</time>
      </trkpt>
      <trkpt lat="39.980411" lon="-6.151811">
        <time>2021-08-18T15:14:45Z</time>
      </trkpt>
      <trkpt lat="39.980771" lon="-6.151611">
        <time>2021-08-18T15:14:48Z</time>
      </trkpt>
      <trkpt lat="39.981167" lon="-6.151572">
        <time>2021-08-18T15:14:51Z</time>
      </trkpt>
      <trkpt lat="39.981774" lon="-6.151388">
        <time>2021-08-18T15:14:57Z</time>
      </trkpt>
      <trkpt lat="39.981972" lon="-6.150945">
        <time>2021-08-18T15:15:00Z</time>
      </trkpt>
      <trkpt lat="39.982696" lon="-6.149995">
        <time>2021-08-18T15:15:06Z</time>
      </trkpt>
      <trkpt lat="39.98549" lon="-6.147232">
        <time>2021-08-18T15:15:24Z</time>
      </trkpt>
      <trkpt lat="39.985825" lon="-6.14683">
        <time>2021-08-18T15:15:27Z</time>
      </trkpt>
      <trkpt lat="39.986057" lon="-6.146466">
        <time>2021-08-18T15:15:30Z</time>
      </trkpt>
      <trkpt lat="39.986118" lon="-6.146017">
        <time>2021-08-18T15:15:33Z</time>
      </trkpt>
      <trkpt lat="39.986201" lon="-6.145606">
        <time>2021-08-18T15:15:36Z</time>
      </trkpt>
      <trkpt lat="39.986423" lon="-6.14539">
        <time>2021-08-18T15:15:39Z</time>
      </trkpt>
      <trkpt lat="39.986731" lon="-6.145364">
        <time>2021-08-18T15:15:42Z</time>
      </trkpt>
      <trkpt lat="39.987027" lon="-6.145556">
        <time>2021-08-18T15:15:45Z</time>
      </trkpt>
      <trkpt lat="39.987309" lon="-6.145722">
        <time>2021-08-18T15:15:48Z</time>
      </trkpt>
      <trkpt lat="39.987639" lon="-6.14564">
        <time>2021-08-18T15:15:51Z</time>
      </trkpt>
      <trkpt lat="39.988675" lon="-6.144819">
        <time>2021-08-18T15:16:00Z</time>
      </trkpt>
      <trkpt lat="39.989031" lon="-6.144309">
        <time>2021-08-18T15:16:03Z</time>
      </trkpt>
      <trkpt lat="39.989355" lon="-6.143685">
        <time>2021-08-18T15:16:06Z</time>
      </trkpt>
      <trkpt lat="39.991472" lon="-6.13904">
        <time>2021-08-18T15:16:24Z</time>
      </trkpt>
      <trkpt lat="39.994163" lon="-6.133145">
        <time>2021-08-18T15:16:45Z</time>
      </trkpt>
      <trkpt lat="39.996653" lon="-6.127701">
        <time>2021-08-18T15:17:03Z</time>
      </trkpt>
      <trkpt lat="39.999356" lon="-6.122951">
        <time>2021-08-18T15:17:24Z</time>
      </trkpt>
      <trkpt lat="40.000887" lon="-6.120615">
        <time>2021-08-18T15:17:39Z</time>
      </trkpt>
      <trkpt lat="40.002569" lon="-6.118199">
        <time>2021-08-18T15:17:51Z</time>
      </trkpt>
      <trkpt lat="40.003398" lon="-6.116893">
        <time>2021-08-18T15:18:00Z</time>
      </trkpt>
      <trkpt lat="40.003729" lon="-6.116418">
        <time>2021-08-18T15:18:06Z</time>
      </trkpt>
      <trkpt lat="40.004021" lon="-6.116047">
        <time>2021-08-18T15:18:09Z</time>
      </trkpt>
      <trkpt lat="40.00594" lon="-6.113666">
        <time>2021-08-18T15:18:24Z</time>
      </trkpt>
      <trkpt lat="40.006763" lon="-6.112829">
        <time>2021-08-18T15:18:33Z</time>
      </trkpt>
      <trkpt lat="40.006938" lon="-6.112621">
        <time>2021-08-18T15:18:36Z</time>
      </trkpt>
      <trkpt lat="40.007184" lon="-6.112173">
        <time>2021-08-18T15:18:42Z</time>
      </trkpt>
      <trkpt lat="40.007394" lon="-6.112156">
        <time>2021-08-18T15:18:45Z</time>
      </trkpt>
      <trkpt lat="40.007999" lon="-6.112152">
        <time>2021-08-18T15:18:51Z</time>
      </trkpt>
      <trkpt lat="40.010041" lon="-6.111921">
        <time>2021-08-18T15:19:03Z</time>
      </trkpt>
      <trkpt lat="40.012602" lon="-6.111621">
        <time>2021-08-18T15:19:15Z</time>
      </trkpt>
      <trkpt lat="40.014589" lon="-6.110435">
        <time>2021-08-18T15:19:24Z</time>
      </trkpt>
      <trkpt lat="40.018691" lon="-6.107666">
        <time>2021-08-18T15:19:42Z</time>
      </trkpt>
      <trkpt lat="40.020139" lon="-6.107002">
        <time>2021-08-18T15:19:48Z</time>
      </trkpt>
      <trkpt lat="40.0216" lon="-6.106951">
        <time>2021-08-18T15:19:54Z</time>
      </trkpt>
      <trkpt lat="40.023463" lon="-6.107264">
        <time>2021-08-18T15:20:03Z</time>
      </trkpt>
      <trkpt lat="40.027013" lon="-6.107718">
        <time>2021-08-18T15:20:21Z</time>
      </trkpt>
      <trkpt lat="40.027492" lon="-6.107526">
        <time>2021-08-18T15:20:24Z</time>
      </trkpt>
      <trkpt lat="40.027915" lon="-6.107153">
        <time>2021-08-18T15:20:27Z</time>
      </trkpt>
      <trkpt lat="40.027915" lon="-6.107153">
        <time>2021-08-18T15:20:27Z</time>
      </trkpt>
      <trkpt lat="40.028212" lon="-6.106698">
        <time>2021-08-18T15:20:30Z</time>
      </trkpt>
      <trkpt lat="40.028504" lon="-6.10587">
        <time>2021-08-18T15:20:42Z</time>
      </trkpt>
      <trkpt lat="40.028447" lon="-6.105586">
        <time>2021-08-18T15:20:45Z</time>
      </trkpt>
      <trkpt lat="40.028449" lon="-6.105258">
        <time>2021-08-18T15:20:48Z</time>
      </trkpt>
      <trkpt lat="40.028639" lon="-6.105011">
        <time>2021-08-18T15:20:51Z</time>
      </trkpt>
      <trkpt lat="40.028891" lon="-6.104781">
        <time>2021-08-18T15:20:54Z</time>
      </trkpt>
      <trkpt lat="40.029037" lon="-6.104401">
        <time>2021-08-18T15:20:57Z</time>
      </trkpt>
      <trkpt lat="40.029905" lon="-6.102276">
        <time>2021-08-18T15:21:09Z</time>
      </trkpt>
      <trkpt lat="40.030352" lon="-6.101826">
        <time>2021-08-18T15:21:12Z</time>
      </trkpt>
      <trkpt lat="40.030352" lon="-6.101826">
        <time>2021-08-18T15:21:12Z</time>
      </trkpt>
      <trkpt lat="40.030859" lon="-6.101601">
        <time>2021-08-18T15:21:15Z</time>
      </trkpt>
      <trkpt lat="40.031978" lon="-6.101658">
        <time>2021-08-18T15:21:21Z</time>
      </trkpt>
      <trkpt lat="40.033062" lon="-6.101767">
        <time>2021-08-18T15:21:27Z</time>
      </trkpt>
      <trkpt lat="40.03518" lon="-6.101352">
        <time>2021-08-18T15:21:39Z</time>
      </trkpt>
      <trkpt lat="40.03518" lon="-6.101352">
        <time>2021-08-18T15:21:39Z</time>
      </trkpt>
      <trkpt lat="40.036375" lon="-6.101339">
        <time>2021-08-18T15:21:45Z</time>
      </trkpt>
      <trkpt lat="40.039659" lon="-6.099237">
        <time>2021-08-18T15:22:03Z</time>
      </trkpt>
      <trkpt lat="40.039659" lon="-6.099237">
        <time>2021-08-18T15:22:03Z</time>
      </trkpt>
      <trkpt lat="40.040791" lon="-6.098921">
        <time>2021-08-18T15:22:09Z</time>
      </trkpt>
      <trkpt lat="40.042252" lon="-6.098091">
        <time>2021-08-18T15:22:18Z</time>
      </trkpt>
      <trkpt lat="40.042802" lon="-6.098163">
        <time>2021-08-18T15:22:21Z</time>
      </trkpt>
      <trkpt lat="40.043299" lon="-6.098519">
        <time>2021-08-18T15:22:24Z</time>
      </trkpt>
      <trkpt lat="40.043727" lon="-6.099069">
        <time>2021-08-18T15:22:27Z</time>
      </trkpt>
      <trkpt lat="40.044675" lon="-6.100239">
        <time>2021-08-18T15:22:33Z</time>
      </trkpt>
      <trkpt lat="40.046221" lon="-6.10159">
        <time>2021-08-18T15:22:42Z</time>
      </trkpt>
      <trkpt lat="40.047115" lon="-6.102761">
        <time>2021-08-18T15:22:48Z</time>
      </trkpt>
      <trkpt lat="40.047736" lon="-6.103009">
        <time>2021-08-18T15:22:51Z</time>
      </trkpt>
      <trkpt lat="40.047736" lon="-6.103009">
        <time>2021-08-18T15:22:51Z</time>
      </trkpt>
      <trkpt lat="40.0496" lon="-6.103198">
        <time>2021-08-18T15:23:00Z</time>
      </trkpt>
      <trkpt lat="40.050094" lon="-6.103707">
        <time>2021-08-18T15:23:03Z</time>
      </trkpt>
      <trkpt lat="40.050554" lon="-6.104213">
        <time>2021-08-18T15:23:06Z</time>
      </trkpt>
      <trkpt lat="40.051136" lon="-6.104414">
        <time>2021-08-18T15:23:09Z</time>
      </trkpt>
      <trkpt lat="40.051748" lon="-6.104276">
        <time>2021-08-18T15:23:12Z</time>
      </trkpt>
      <trkpt lat="40.052304" lon="-6.104227">
        <time>2021-08-18T15:23:15Z</time>
      </trkpt>
      <trkpt lat="40.052304" lon="-6.104227">
        <time>2021-08-18T15:23:15Z</time>
      </trkpt>
      <trkpt lat="40.052858" lon="-6.104507">
        <time>2021-08-18T15:23:18Z</time>
      </trkpt>
      <trkpt lat="40.054303" lon="-6.106047">
        <time>2021-08-18T15:23:27Z</time>
      </trkpt>
      <trkpt lat="40.055343" lon="-6.108346">
        <time>2021-08-18T15:23:36Z</time>
      </trkpt>
      <trkpt lat="40.05578" lon="-6.108823">
        <time>2021-08-18T15:23:39Z</time>
      </trkpt>
      <trkpt lat="40.05632" lon="-6.108867">
        <time>2021-08-18T15:23:42Z</time>
      </trkpt>
      <trkpt lat="40.056853" lon="-6.108547">
        <time>2021-08-18T15:23:45Z</time>
      </trkpt>
      <trkpt lat="40.059138" lon="-6.107121">
        <time>2021-08-18T15:23:57Z</time>
      </trkpt>
      <trkpt lat="40.059772" lon="-6.107242">
        <time>2021-08-18T15:24:00Z</time>
      </trkpt>
      <trkpt lat="40.059772" lon="-6.107242">
        <time>2021-08-18T15:24:00Z</time>
      </trkpt>
      <trkpt lat="40.060391" lon="-6.107317">
        <time>2021-08-18T15:24:03Z</time>
      </trkpt>
      <trkpt lat="40.06096" lon="-6.107028">
        <time>2021-08-18T15:24:06Z</time>
      </trkpt>
      <trkpt lat="40.063745" lon="-6.104368">
        <time>2021-08-18T15:24:21Z</time>
      </trkpt>
      <trkpt lat="40.064858" lon="-6.103656">
        <time>2021-08-18T15:24:27Z</time>
      </trkpt>
      <trkpt lat="40.065497" lon="-6.103756">
        <time>2021-08-18T15:24:30Z</time>
      </trkpt>
      <trkpt lat="40.066806" lon="-6.103846">
        <time>2021-08-18T15:24:36Z</time>
      </trkpt>
      <trkpt lat="40.068046" lon="-6.103185">
        <time>2021-08-18T15:24:42Z</time>
      </trkpt>
      <trkpt lat="40.06863" lon="-6.102729">
        <time>2021-08-18T15:24:45Z</time>
      </trkpt>
      <trkpt lat="40.072043" lon="-6.099162">
        <time>2021-08-18T15:25:03Z</time>
      </trkpt>
      <trkpt lat="40.073138" lon="-6.0978">
        <time>2021-08-18T15:25:09Z</time>
      </trkpt>
      <trkpt lat="40.075342" lon="-6.093943">
        <time>2021-08-18T15:25:24Z</time>
      </trkpt>
      <trkpt lat="40.078467" lon="-6.088442">
        <time>2021-08-18T15:25:45Z</time>
      </trkpt>
      <trkpt lat="40.081051" lon="-6.083676">
        <time>2021-08-18T15:26:03Z</time>
      </trkpt>
      <trkpt lat="40.081294" lon="-6.082857">
        <time>2021-08-18T15:26:06Z</time>
      </trkpt>
      <trkpt lat="40.081663" lon="-6.081374">
        <time>2021-08-18T15:26:12Z</time>
      </trkpt>
      <trkpt lat="40.081691" lon="-6.080292">
        <time>2021-08-18T15:26:18Z</time>
      </trkpt>
      <trkpt lat="40.08203" lon="-6.079577">
        <time>2021-08-18T15:26:24Z</time>
      </trkpt>
      <trkpt lat="40.082282" lon="-6.079437">
        <time>2021-08-18T15:26:27Z</time>
      </trkpt>
      <trkpt lat="40.082552" lon="-6.079585">
        <time>2021-08-18T15:26:30Z</time>
      </trkpt>
      <trkpt lat="40.082689" lon="-6.07997">
        <time>2021-08-18T15:26:33Z</time>
      </trkpt>
      <trkpt lat="40.082886" lon="-6.080377">
        <time>2021-08-18T15:26:36Z</time>
      </trkpt>
      <trkpt lat="40.083558" lon="-6.08098">
        <time>2021-08-18T15:26:42Z</time>
      </trkpt>
      <trkpt lat="40.083868" lon="-6.081044">
        <time>2021-08-18T15:26:45Z</time>
      </trkpt>
      <trkpt lat="40.084182" lon="-6.080995">
        <time>2021-08-18T15:26:48Z</time>
      </trkpt>
      <trkpt lat="40.084749" lon="-6.080994">
        <time>2021-08-18T15:26:54Z</time>
      </trkpt>
      <trkpt lat="40.084855" lon="-6.080593">
        <time>2021-08-18T15:26:57Z</time>
      </trkpt>
      <trkpt lat="40.084911" lon="-6.079359">
        <time>2021-08-18T15:27:03Z</time>
      </trkpt>
      <trkpt lat="40.085192" lon="-6.078707">
        <time>2021-08-18T15:27:06Z</time>
      </trkpt>
      <trkpt lat="40.086504" lon="-6.076805">
        <time>2021-08-18T15:27:15Z</time>
      </trkpt>
      <trkpt lat="40.087931" lon="-6.075184">
        <time>2021-08-18T15:27:24Z</time>
      </trkpt>
      <trkpt lat="40.090548" lon="-6.073012">
        <time>2021-08-18T15:27:39Z</time>
      </trkpt>
      <trkpt lat="40.09359" lon="-6.071023">
        <time>2021-08-18T15:27:54Z</time>
      </trkpt>
      <trkpt lat="40.094856" lon="-6.070508">
        <time>2021-08-18T15:28:00Z</time>
      </trkpt>
      <trkpt lat="40.097197" lon="-6.069093">
        <time>2021-08-18T15:28:12Z</time>
      </trkpt>
      <trkpt lat="40.098836" lon="-6.067511">
        <time>2021-08-18T15:28:21Z</time>
      </trkpt>
      <trkpt lat="40.102886" lon="-6.064713">
        <time>2021-08-18T15:28:42Z</time>
      </trkpt>
      <trkpt lat="40.106613" lon="-6.060749">
        <time>2021-08-18T15:29:03Z</time>
      </trkpt>
      <trkpt lat="40.109104" lon="-6.059041">
        <time>2021-08-18T15:29:15Z</time>
      </trkpt>
      <trkpt lat="40.111124" lon="-6.058071">
        <time>2021-08-18T15:29:24Z</time>
      </trkpt>
      <trkpt lat="40.115464" lon="-6.056315">
        <time>2021-08-18T15:29:42Z</time>
      </trkpt>
      <trkpt lat="40.119822" lon="-6.054685">
        <time>2021-08-18T15:30:00Z</time>
      </trkpt>
      <trkpt lat="40.120528" lon="-6.054558">
        <time>2021-08-18T15:30:03Z</time>
      </trkpt>
      <trkpt lat="40.12256" lon="-6.054121">
        <time>2021-08-18T15:30:12Z</time>
      </trkpt>
      <trkpt lat="40.124354" lon="-6.052599">
        <time>2021-08-18T15:30:21Z</time>
      </trkpt>
      <trkpt lat="40.125025" lon="-6.052219">
        <time>2021-08-18T15:30:24Z</time>
      </trkpt>
      <trkpt lat="40.128607" lon="-6.050342">
        <time>2021-08-18T15:30:39Z</time>
      </trkpt>
      <trkpt lat="40.133458" lon="-6.048106">
        <time>2021-08-18T15:31:00Z</time>
      </trkpt>
      <trkpt lat="40.133458" lon="-6.048106">
        <time>2021-08-18T15:31:00Z</time>
      </trkpt>
      <trkpt lat="40.133458" lon="-6.048106">
        <time>2021-08-18T15:31:00Z</time>
      </trkpt>
      <trkpt lat="40.133458" lon="-6.048106">
        <time>2021-08-18T15:31:00Z</time>
      </trkpt>
      <trkpt lat="40.133458" lon="-6.048106">
        <time>2021-08-18T15:31:00Z</time>
      </trkpt>
      <trkpt lat="40.133458" lon="-6.048106">
        <time>2021-08-18T15:31:00Z</time>
      </trkpt>
      <trkpt lat="40.133458" lon="-6.048106">
        <time>2021-08-18T15:31:00Z</time>
      </trkpt>
      <trkpt lat="40.136787" lon="-6.047635">
        <time>2021-08-18T15:31:15Z</time>
      </trkpt>
      <trkpt lat="40.137878" lon="-6.046665">
        <time>2021-08-18T15:31:21Z</time>
      </trkpt>
      <trkpt lat="40.141869" lon="-6.043465">
        <time>2021-08-18T15:31:42Z</time>
      </trkpt>
      <trkpt lat="40.146198" lon="-6.040874">
        <time>2021-08-18T15:32:03Z</time>
      </trkpt>
      <trkpt lat="40.150579" lon="-6.037689">
        <time>2021-08-18T15:32:24Z</time>
      </trkpt>
      <trkpt lat="40.154931" lon="-6.034215">
        <time>2021-08-18T15:32:45Z</time>
      </trkpt>
      <trkpt lat="40.158792" lon="-6.031208">
        <time>2021-08-18T15:33:03Z</time>
      </trkpt>
      <trkpt lat="40.162757" lon="-6.028149">
        <time>2021-08-18T15:33:21Z</time>
      </trkpt>
      <trkpt lat="40.166906" lon="-6.024947">
        <time>2021-08-18T15:33:39Z</time>
      </trkpt>
      <trkpt lat="40.170997" lon="-6.021789">
        <time>2021-08-18T15:33:57Z</time>
      </trkpt>
      <trkpt lat="40.175149" lon="-6.018501">
        <time>2021-08-18T15:34:15Z</time>
      </trkpt>
      <trkpt lat="40.179266" lon="-6.01528">
        <time>2021-08-18T15:34:33Z</time>
      </trkpt>
      <trkpt lat="40.183033" lon="-6.011502">
        <time>2021-08-18T15:34:51Z</time>
      </trkpt>
      <trkpt lat="40.186603" lon="-6.007618">
        <time>2021-08-18T15:35:12Z</time>
      </trkpt>
      <trkpt lat="40.19041" lon="-6.003457">
        <time>2021-08-18T15:35:33Z</time>
      </trkpt>
      <trkpt lat="40.193867" lon="-5.999699">
        <time>2021-08-18T15:35:51Z</time>
      </trkpt>
      <trkpt lat="40.197543" lon="-5.995989">
        <time>2021-08-18T15:36:09Z</time>
      </trkpt>
      <trkpt lat="40.199756" lon="-5.994763">
        <time>2021-08-18T15:36:18Z</time>
      </trkpt>
      <trkpt lat="40.202091" lon="-5.993611">
        <time>2021-08-18T15:36:27Z</time>
      </trkpt>
      <trkpt lat="40.206477" lon="-5.99146">
        <time>2021-08-18T15:36:42Z</time>
      </trkpt>
      <trkpt lat="40.21114" lon="-5.989143">
        <time>2021-08-18T15:37:00Z</time>
      </trkpt>
      <trkpt lat="40.215609" lon="-5.986701">
        <time>2021-08-18T15:37:18Z</time>
      </trkpt>
      <trkpt lat="40.216308" lon="-5.986074">
        <time>2021-08-18T15:37:21Z</time>
      </trkpt>
      <trkpt lat="40.219581" lon="-5.982784">
        <time>2021-08-18T15:37:36Z</time>
      </trkpt>
      <trkpt lat="40.220953" lon="-5.981871">
        <time>2021-08-18T15:37:42Z</time>
      </trkpt>
      <trkpt lat="40.223989" lon="-5.980894">
        <time>2021-08-18T15:37:54Z</time>
      </trkpt>
      <trkpt lat="40.228174" lon="-5.978782">
        <time>2021-08-18T15:38:12Z</time>
      </trkpt>
      <trkpt lat="40.228174" lon="-5.978782">
        <time>2021-08-18T15:38:12Z</time>
      </trkpt>
      <trkpt lat="40.232212" lon="-5.976109">
        <time>2021-08-18T15:38:30Z</time>
      </trkpt>
      <trkpt lat="40.233269" lon="-5.975567">
        <time>2021-08-18T15:38:36Z</time>
      </trkpt>
      <trkpt lat="40.234156" lon="-5.975574">
        <time>2021-08-18T15:38:42Z</time>
      </trkpt>
      <trkpt lat="40.23483" lon="-5.975738">
        <time>2021-08-18T15:38:48Z</time>
      </trkpt>
      <trkpt lat="40.235119" lon="-5.975757">
        <time>2021-08-18T15:38:51Z</time>
      </trkpt>
      <trkpt lat="40.235455" lon="-5.975709">
        <time>2021-08-18T15:38:54Z</time>
      </trkpt>
      <trkpt lat="40.236282" lon="-5.975104">
        <time>2021-08-18T15:39:00Z</time>
      </trkpt>
      <trkpt lat="40.236722" lon="-5.974636">
        <time>2021-08-18T15:39:03Z</time>
      </trkpt>
      <trkpt lat="40.237538" lon="-5.973421">
        <time>2021-08-18T15:39:09Z</time>
      </trkpt>
      <trkpt lat="40.23915" lon="-5.969572">
        <time>2021-08-18T15:39:24Z</time>
      </trkpt>
      <trkpt lat="40.241444" lon="-5.963961">
        <time>2021-08-18T15:39:45Z</time>
      </trkpt>
      <trkpt lat="40.242407" lon="-5.961747">
        <time>2021-08-18T15:39:54Z</time>
      </trkpt>
      <trkpt lat="40.244331" lon="-5.959601">
        <time>2021-08-18T15:40:06Z</time>
      </trkpt>
      <trkpt lat="40.244649" lon="-5.958829">
        <time>2021-08-18T15:40:09Z</time>
      </trkpt>
      <trkpt lat="40.246336" lon="-5.954942">
        <time>2021-08-18T15:40:24Z</time>
      </trkpt>
      <trkpt lat="40.247341" lon="-5.953787">
        <time>2021-08-18T15:40:30Z</time>
      </trkpt>
      <trkpt lat="40.250347" lon="-5.949885">
        <time>2021-08-18T15:40:48Z</time>
      </trkpt>
      <trkpt lat="40.250724" lon="-5.9491">
        <time>2021-08-18T15:40:51Z</time>
      </trkpt>
      <trkpt lat="40.253236" lon="-5.943471">
        <time>2021-08-18T15:41:12Z</time>
      </trkpt>
      <trkpt lat="40.253236" lon="-5.943471">
        <time>2021-08-18T15:41:12Z</time>
      </trkpt>
      <trkpt lat="40.253825" lon="-5.941892">
        <time>2021-08-18T15:41:18Z</time>
      </trkpt>
      <trkpt lat="40.25597" lon="-5.938459">
        <time>2021-08-18T15:41:33Z</time>
      </trkpt>
      <trkpt lat="40.258941" lon="-5.933644">
        <time>2021-08-18T15:42:00Z</time>
      </trkpt>
      <trkpt lat="40.259609" lon="-5.93236">
        <time>2021-08-18T15:42:09Z</time>
      </trkpt>
      <trkpt lat="40.26064" lon="-5.927706">
        <time>2021-08-18T15:42:39Z</time>
      </trkpt>
      <trkpt lat="40.262" lon="-5.922114">
        <time>2021-08-18T15:43:12Z</time>
      </trkpt>
      <trkpt lat="40.264063" lon="-5.917006">
        <time>2021-08-18T15:43:39Z</time>
      </trkpt>
      <trkpt lat="40.264066" lon="-5.916685">
        <time>2021-08-18T15:43:42Z</time>
      </trkpt>
      <trkpt lat="40.264084" lon="-5.916341">
        <time>2021-08-18T15:43:45Z</time>
      </trkpt>
      <trkpt lat="40.263574" lon="-5.91443">
        <time>2021-08-18T15:43:57Z</time>
      </trkpt>
      <trkpt lat="40.263412" lon="-5.913905">
        <time>2021-08-18T15:44:03Z</time>
      </trkpt>
      <trkpt lat="40.263586" lon="-5.913864">
        <time>2021-08-18T15:44:06Z</time>
      </trkpt>
      <trkpt lat="40.263807" lon="-5.914045">
        <time>2021-08-18T15:44:09Z</time>
      </trkpt>
      <trkpt lat="40.264164" lon="-5.914137">
        <time>2021-08-18T15:44:12Z</time>
      </trkpt>
      <trkpt lat="40.264601" lon="-5.914107">
        <time>2021-08-18T15:44:15Z</time>
      </trkpt>
      <trkpt lat="40.265044" lon="-5.913857">
        <time>2021-08-18T15:44:18Z</time>
      </trkpt>
      <trkpt lat="40.265381" lon="-5.913392">
        <time>2021-08-18T15:44:21Z</time>
      </trkpt>
      <trkpt lat="40.265666" lon="-5.912876">
        <time>2021-08-18T15:44:24Z</time>
      </trkpt>
      <trkpt lat="40.268484" lon="-5.907621">
        <time>2021-08-18T15:44:54Z</time>
      </trkpt>
      <trkpt lat="40.270496" lon="-5.904806">
        <time>2021-08-18T15:45:09Z</time>
      </trkpt>
      <trkpt lat="40.271428" lon="-5.903901">
        <time>2021-08-18T15:45:15Z</time>
      </trkpt>
      <trkpt lat="40.271715" lon="-5.903215">
        <time>2021-08-18T15:45:18Z</time>
      </trkpt>
      <trkpt lat="40.271715" lon="-5.903215">
        <time>2021-08-18T15:45:18Z</time>
      </trkpt>
      <trkpt lat="40.274065" lon="-5.897811">
        <time>2021-08-18T15:45:42Z</time>
      </trkpt>
      <trkpt lat="40.276935" lon="-5.892623">
        <time>2021-08-18T15:46:03Z</time>
      </trkpt>
      <trkpt lat="40.278918" lon="-5.889197">
        <time>2021-08-18T15:46:18Z</time>
      </trkpt>
      <trkpt lat="40.279855" lon="-5.887993">
        <time>2021-08-18T15:46:24Z</time>
      </trkpt>
      <trkpt lat="40.283307" lon="-5.883471">
        <time>2021-08-18T15:46:45Z</time>
      </trkpt>
      <trkpt lat="40.287037" lon="-5.879588">
        <time>2021-08-18T15:47:09Z</time>
      </trkpt>
      <trkpt lat="40.288577" lon="-5.878203">
        <time>2021-08-18T15:47:18Z</time>
      </trkpt>
      <trkpt lat="40.291372" lon="-5.876005">
        <time>2021-08-18T15:47:33Z</time>
      </trkpt>
      <trkpt lat="40.294206" lon="-5.874135">
        <time>2021-08-18T15:47:48Z</time>
      </trkpt>
      <trkpt lat="40.295329" lon="-5.873937">
        <time>2021-08-18T15:47:54Z</time>
      </trkpt>
      <trkpt lat="40.295829" lon="-5.873918">
        <time>2021-08-18T15:47:57Z</time>
      </trkpt>
      <trkpt lat="40.296306" lon="-5.873798">
        <time>2021-08-18T15:48:00Z</time>
      </trkpt>
      <trkpt lat="40.297068" lon="-5.873368">
        <time>2021-08-18T15:48:06Z</time>
      </trkpt>
      <trkpt lat="40.297947" lon="-5.872406">
        <time>2021-08-18T15:48:15Z</time>
      </trkpt>
      <trkpt lat="40.299132" lon="-5.87175">
        <time>2021-08-18T15:48:24Z</time>
      </trkpt>
      <trkpt lat="40.299904" lon="-5.871028">
        <time>2021-08-18T15:48:30Z</time>
      </trkpt>
      <trkpt lat="40.300419" lon="-5.870771">
        <time>2021-08-18T15:48:33Z</time>
      </trkpt>
      <trkpt lat="40.30431" lon="-5.86916">
        <time>2021-08-18T15:48:51Z</time>
      </trkpt>
      <trkpt lat="40.306602" lon="-5.867689">
        <time>2021-08-18T15:49:03Z</time>
      </trkpt>
      <trkpt lat="40.308004" lon="-5.866">
        <time>2021-08-18T15:49:12Z</time>
      </trkpt>
      <trkpt lat="40.308416" lon="-5.865378">
        <time>2021-08-18T15:49:15Z</time>
      </trkpt>
      <trkpt lat="40.308929" lon="-5.864919">
        <time>2021-08-18T15:49:18Z</time>
      </trkpt>
      <trkpt lat="40.310463" lon="-5.863588">
        <time>2021-08-18T15:49:27Z</time>
      </trkpt>
      <trkpt lat="40.312775" lon="-5.862643">
        <time>2021-08-18T15:49:39Z</time>
      </trkpt>
      <trkpt lat="40.31318" lon="-5.862328">
        <time>2021-08-18T15:49:42Z</time>
      </trkpt>
      <trkpt lat="40.313471" lon="-5.861821">
        <time>2021-08-18T15:49:45Z</time>
      </trkpt>
      <trkpt lat="40.313826" lon="-5.861286">
        <time>2021-08-18T15:49:48Z</time>
      </trkpt>
      <trkpt lat="40.314768" lon="-5.860505">
        <time>2021-08-18T15:49:54Z</time>
      </trkpt>
      <trkpt lat="40.316925" lon="-5.859566">
        <time>2021-08-18T15:50:09Z</time>
      </trkpt>
      <trkpt lat="40.318809" lon="-5.858489">
        <time>2021-08-18T15:50:27Z</time>
      </trkpt>
      <trkpt lat="40.3198" lon="-5.857711">
        <time>2021-08-18T15:50:36Z</time>
      </trkpt>
      <trkpt lat="40.321135" lon="-5.857227">
        <time>2021-08-18T15:50:45Z</time>
      </trkpt>
      <trkpt lat="40.321135" lon="-5.857227">
        <time>2021-08-18T15:50:45Z</time>
      </trkpt>
      <trkpt lat="40.322937" lon="-5.856819">
        <time>2021-08-18T15:51:00Z</time>
      </trkpt>
      <trkpt lat="40.322856" lon="-5.856613">
        <time>2021-08-18T15:51:03Z</time>
      </trkpt>
      <trkpt lat="40.322583" lon="-5.856456">
        <time>2021-08-18T15:51:06Z</time>
      </trkpt>
      <trkpt lat="40.321283" lon="-5.856236">
        <time>2021-08-18T15:51:15Z</time>
      </trkpt>
      <trkpt lat="40.320363" lon="-5.856167">
        <time>2021-08-18T15:51:21Z</time>
      </trkpt>
      <trkpt lat="40.319835" lon="-5.856173">
        <time>2021-08-18T15:51:27Z</time>
      </trkpt>
      <trkpt lat="40.319808" lon="-5.856056">
        <time>2021-08-18T15:51:30Z</time>
      </trkpt>
      <trkpt lat="40.319895" lon="-5.855985">
        <time>2021-08-18T15:51:33Z</time>
      </trkpt>
      <trkpt lat="40.322001" lon="-5.855614">
        <time>2021-08-18T15:51:51Z</time>
      </trkpt>
      <trkpt lat="40.323678" lon="-5.855283">
        <time>2021-08-18T15:52:03Z</time>
      </trkpt>
      <trkpt lat="40.324094" lon="-5.855427">
        <time>2021-08-18T15:52:06Z</time>
      </trkpt>
      <trkpt lat="40.325224" lon="-5.856126">
        <time>2021-08-18T15:52:15Z</time>
      </trkpt>
      <trkpt lat="40.325128" lon="-5.856435">
        <time>2021-08-18T15:52:18Z</time>
      </trkpt>
      <trkpt lat="40.323839" lon="-5.858128">
        <time>2021-08-18T15:52:30Z</time>
      </trkpt>
      <trkpt lat="40.323864" lon="-5.858717">
        <time>2021-08-18T15:52:33Z</time>
      </trkpt>
      <trkpt lat="40.324012" lon="-5.85935">
        <time>2021-08-18T15:52:36Z</time>
      </trkpt>
      <trkpt lat="40.32406" lon="-5.860374">
        <time>2021-08-18T15:52:42Z</time>
      </trkpt>
      <trkpt lat="40.324157" lon="-5.860663">
        <time>2021-08-18T15:52:45Z</time>
      </trkpt>
      <trkpt lat="40.324465" lon="-5.860696">
        <time>2021-08-18T15:52:48Z</time>
      </trkpt>
      <trkpt lat="40.325233" lon="-5.8602">
        <time>2021-08-18T15:52:54Z</time>
      </trkpt>
      <trkpt lat="40.327344" lon="-5.85808">
        <time>2021-08-18T15:53:09Z</time>
      </trkpt>
      <trkpt lat="40.327934" lon="-5.85723">
        <time>2021-08-18T15:53:15Z</time>
      </trkpt>
      <trkpt lat="40.327853" lon="-5.857026">
        <time>2021-08-18T15:53:18Z</time>
      </trkpt>
      <trkpt lat="40.327591" lon="-5.857093">
        <time>2021-08-18T15:53:21Z</time>
      </trkpt>
      <trkpt lat="40.327302" lon="-5.857124">
        <time>2021-08-18T15:53:24Z</time>
      </trkpt>
      <trkpt lat="40.32713" lon="-5.856829">
        <time>2021-08-18T15:53:27Z</time>
      </trkpt>
      <trkpt lat="40.326922" lon="-5.855921">
        <time>2021-08-18T15:53:33Z</time>
      </trkpt>
      <trkpt lat="40.327133" lon="-5.85564">
        <time>2021-08-18T15:53:36Z</time>
      </trkpt>
      <trkpt lat="40.327466" lon="-5.855665">
        <time>2021-08-18T15:53:39Z</time>
      </trkpt>
      <trkpt lat="40.327852" lon="-5.855733">
        <time>2021-08-18T15:53:42Z</time>
      </trkpt>
      <trkpt lat="40.328296" lon="-5.855538">
        <time>2021-08-18T15:53:45Z</time>
      </trkpt>
      <trkpt lat="40.328794" lon="-5.855274">
        <time>2021-08-18T15:53:48Z</time>
      </trkpt>
      <trkpt lat="40.329777" lon="-5.854526">
        <time>2021-08-18T15:53:54Z</time>
      </trkpt>
      <trkpt lat="40.331985" lon="-5.852266">
        <time>2021-08-18T15:54:09Z</time>
      </trkpt>
      <trkpt lat="40.332926" lon="-5.85197">
        <time>2021-08-18T15:54:15Z</time>
      </trkpt>
      <trkpt lat="40.332926" lon="-5.85197">
        <time>2021-08-18T15:54:15Z</time>
      </trkpt>
      <trkpt lat="40.334252" lon="-5.851553">
        <time>2021-08-18T15:54:24Z</time>
      </trkpt>
      <trkpt lat="40.337092" lon="-5.849767">
        <time>2021-08-18T15:54:42Z</time>
      </trkpt>
      <trkpt lat="40.33758" lon="-5.849653">
        <time>2021-08-18T15:54:45Z</time>
      </trkpt>
      <trkpt lat="40.340522" lon="-5.848876">
        <time>2021-08-18T15:55:06Z</time>
      </trkpt>
      <trkpt lat="40.341503" lon="-5.848303">
        <time>2021-08-18T15:55:12Z</time>
      </trkpt>
      <trkpt lat="40.343343" lon="-5.847006">
        <time>2021-08-18T15:55:24Z</time>
      </trkpt>
      <trkpt lat="40.34517" lon="-5.845339">
        <time>2021-08-18T15:55:36Z</time>
      </trkpt>
      <trkpt lat="40.345571" lon="-5.845125">
        <time>2021-08-18T15:55:39Z</time>
      </trkpt>
      <trkpt lat="40.346146" lon="-5.844763">
        <time>2021-08-18T15:55:45Z</time>
      </trkpt>
      <trkpt lat="40.346522" lon="-5.844547">
        <time>2021-08-18T15:55:51Z</time>
      </trkpt>
      <trkpt lat="40.346559" lon="-5.84478">
        <time>2021-08-18T15:55:54Z</time>
      </trkpt>
      <trkpt lat="40.346386" lon="-5.844908">
        <time>2021-08-18T15:55:57Z</time>
      </trkpt>
      <trkpt lat="40.345491" lon="-5.845098">
        <time>2021-08-18T15:56:06Z</time>
      </trkpt>
      <trkpt lat="40.345409" lon="-5.844911">
        <time>2021-08-18T15:56:09Z</time>
      </trkpt>
      <trkpt lat="40.345535" lon="-5.844563">
        <time>2021-08-18T15:56:12Z</time>
      </trkpt>
      <trkpt lat="40.345858" lon="-5.844197">
        <time>2021-08-18T15:56:15Z</time>
      </trkpt>
      <trkpt lat="40.346346" lon="-5.844016">
        <time>2021-08-18T15:56:18Z</time>
      </trkpt>
      <trkpt lat="40.347284" lon="-5.843568">
        <time>2021-08-18T15:56:24Z</time>
      </trkpt>
      <trkpt lat="40.347284" lon="-5.843568">
        <time>2021-08-18T15:56:24Z</time>
      </trkpt>
      <trkpt lat="40.348086" lon="-5.842892">
        <time>2021-08-18T15:56:30Z</time>
      </trkpt>
      <trkpt lat="40.349" lon="-5.84252">
        <time>2021-08-18T15:56:36Z</time>
      </trkpt>
      <trkpt lat="40.35074" lon="-5.840928">
        <time>2021-08-18T15:56:48Z</time>
      </trkpt>
      <trkpt lat="40.351032" lon="-5.840339">
        <time>2021-08-18T15:56:51Z</time>
      </trkpt>
      <trkpt lat="40.351165" lon="-5.839766">
        <time>2021-08-18T15:56:54Z</time>
      </trkpt>
      <trkpt lat="40.351351" lon="-5.836497">
        <time>2021-08-18T15:57:09Z</time>
      </trkpt>
      <trkpt lat="40.351363" lon="-5.835533">
        <time>2021-08-18T15:57:15Z</time>
      </trkpt>
      <trkpt lat="40.351652" lon="-5.8343">
        <time>2021-08-18T15:57:21Z</time>
      </trkpt>
      <trkpt lat="40.351878" lon="-5.833742">
        <time>2021-08-18T15:57:24Z</time>
      </trkpt>
      <trkpt lat="40.352342" lon="-5.832765">
        <time>2021-08-18T15:57:30Z</time>
      </trkpt>
      <trkpt lat="40.352732" lon="-5.832125">
        <time>2021-08-18T15:57:36Z</time>
      </trkpt>
      <trkpt lat="40.353034" lon="-5.832081">
        <time>2021-08-18T15:57:39Z</time>
      </trkpt>
      <trkpt lat="40.353236" lon="-5.832341">
        <time>2021-08-18T15:57:42Z</time>
      </trkpt>
      <trkpt lat="40.353265" lon="-5.832873">
        <time>2021-08-18T15:57:45Z</time>
      </trkpt>
      <trkpt lat="40.353374" lon="-5.833318">
        <time>2021-08-18T15:57:48Z</time>
      </trkpt>
      <trkpt lat="40.353685" lon="-5.83347">
        <time>2021-08-18T15:57:51Z</time>
      </trkpt>
      <trkpt lat="40.35409" lon="-5.833378">
        <time>2021-08-18T15:57:54Z</time>
      </trkpt>
      <trkpt lat="40.354586" lon="-5.833224">
        <time>2021-08-18T15:57:57Z</time>
      </trkpt>
      <trkpt lat="40.355027" lon="-5.832915">
        <time>2021-08-18T15:58:00Z</time>
      </trkpt>
      <trkpt lat="40.356715" lon="-5.831667">
        <time>2021-08-18T15:58:12Z</time>
      </trkpt>
      <trkpt lat="40.35712" lon="-5.831374">
        <time>2021-08-18T15:58:15Z</time>
      </trkpt>
      <trkpt lat="40.35778" lon="-5.830465">
        <time>2021-08-18T15:58:21Z</time>
      </trkpt>
      <trkpt lat="40.357996" lon="-5.829908">
        <time>2021-08-18T15:58:24Z</time>
      </trkpt>
      <trkpt lat="40.358135" lon="-5.829346">
        <time>2021-08-18T15:58:27Z</time>
      </trkpt>
      <trkpt lat="40.358379" lon="-5.828929">
        <time>2021-08-18T15:58:30Z</time>
      </trkpt>
      <trkpt lat="40.358752" lon="-5.828725">
        <time>2021-08-18T15:58:33Z</time>
      </trkpt>
      <trkpt lat="40.359982" lon="-5.828043">
        <time>2021-08-18T15:58:42Z</time>
      </trkpt>
      <trkpt lat="40.36148" lon="-5.826418">
        <time>2021-08-18T15:58:54Z</time>
      </trkpt>
      <trkpt lat="40.361989" lon="-5.826313">
        <time>2021-08-18T15:58:57Z</time>
      </trkpt>
      <trkpt lat="40.361989" lon="-5.826313">
        <time>2021-08-18T15:58:57Z</time>
      </trkpt>
      <trkpt lat="40.362985" lon="-5.825956">
        <time>2021-08-18T15:59:03Z</time>
      </trkpt>
      <trkpt lat="40.365952" lon="-5.823612">
        <time>2021-08-18T15:59:21Z</time>
      </trkpt>
      <trkpt lat="40.366772" lon="-5.822642">
        <time>2021-08-18T15:59:27Z</time>
      </trkpt>
      <trkpt lat="40.367949" lon="-5.820611">
        <time>2021-08-18T15:59:39Z</time>
      </trkpt>
      <trkpt lat="40.368431" lon="-5.820639">
        <time>2021-08-18T15:59:42Z</time>
      </trkpt>
      <trkpt lat="40.369585" lon="-5.8208">
        <time>2021-08-18T15:59:48Z</time>
      </trkpt>
      <trkpt lat="40.371238" lon="-5.820675">
        <time>2021-08-18T15:59:57Z</time>
      </trkpt>
      <trkpt lat="40.37336" lon="-5.819418">
        <time>2021-08-18T16:00:09Z</time>
      </trkpt>
      <trkpt lat="40.373842" lon="-5.818922">
        <time>2021-08-18T16:00:12Z</time>
      </trkpt>
      <trkpt lat="40.374851" lon="-5.817935">
        <time>2021-08-18T16:00:18Z</time>
      </trkpt>
      <trkpt lat="40.378335" lon="-5.816026">
        <time>2021-08-18T16:00:36Z</time>
      </trkpt>
      <trkpt lat="40.37884" lon="-5.815666">
        <time>2021-08-18T16:00:39Z</time>
      </trkpt>
      <trkpt lat="40.380703" lon="-5.813656">
        <time>2021-08-18T16:00:51Z</time>
      </trkpt>
      <trkpt lat="40.381504" lon="-5.811376">
        <time>2021-08-18T16:01:00Z</time>
      </trkpt>
      <trkpt lat="40.381504" lon="-5.811376">
        <time>2021-08-18T16:01:00Z</time>
      </trkpt>
      <trkpt lat="40.382078" lon="-5.809943">
        <time>2021-08-18T16:01:06Z</time>
      </trkpt>
      <trkpt lat="40.382101" lon="-5.809177">
        <time>2021-08-18T16:01:09Z</time>
      </trkpt>
      <trkpt lat="40.381729" lon="-5.806043">
        <time>2021-08-18T16:01:21Z</time>
      </trkpt>
      <trkpt lat="40.381569" lon="-5.805298">
        <time>2021-08-18T16:01:24Z</time>
      </trkpt>
      <trkpt lat="40.381559" lon="-5.804585">
        <time>2021-08-18T16:01:27Z</time>
      </trkpt>
      <trkpt lat="40.38169" lon="-5.803996">
        <time>2021-08-18T16:01:30Z</time>
      </trkpt>
      <trkpt lat="40.38199" lon="-5.803574">
        <time>2021-08-18T16:01:33Z</time>
      </trkpt>
      <trkpt lat="40.382275" lon="-5.803103">
        <time>2021-08-18T16:01:36Z</time>
      </trkpt>
      <trkpt lat="40.382309" lon="-5.802488">
        <time>2021-08-18T16:01:39Z</time>
      </trkpt>
      <trkpt lat="40.381906" lon="-5.799548">
        <time>2021-08-18T16:01:51Z</time>
      </trkpt>
      <trkpt lat="40.381906" lon="-5.799548">
        <time>2021-08-18T16:01:51Z</time>
      </trkpt>
      <trkpt lat="40.381652" lon="-5.79826">
        <time>2021-08-18T16:01:57Z</time>
      </trkpt>
      <trkpt lat="40.381444" lon="-5.79779">
        <time>2021-08-18T16:02:00Z</time>
      </trkpt>
      <trkpt lat="40.381473" lon="-5.797254">
        <time>2021-08-18T16:02:03Z</time>
      </trkpt>
      <trkpt lat="40.381672" lon="-5.79687">
        <time>2021-08-18T16:02:06Z</time>
      </trkpt>
      <trkpt lat="40.382011" lon="-5.796696">
        <time>2021-08-18T16:02:09Z</time>
      </trkpt>
      <trkpt lat="40.38227" lon="-5.796424">
        <time>2021-08-18T16:02:12Z</time>
      </trkpt>
      <trkpt lat="40.382404" lon="-5.795939">
        <time>2021-08-18T16:02:15Z</time>
      </trkpt>
      <trkpt lat="40.383203" lon="-5.794016">
        <time>2021-08-18T16:02:24Z</time>
      </trkpt>
      <trkpt lat="40.383664" lon="-5.7925">
        <time>2021-08-18T16:02:30Z</time>
      </trkpt>
      <trkpt lat="40.383652" lon="-5.790907">
        <time>2021-08-18T16:02:36Z</time>
      </trkpt>
      <trkpt lat="40.383508" lon="-5.790158">
        <time>2021-08-18T16:02:39Z</time>
      </trkpt>
      <trkpt lat="40.383141" lon="-5.788856">
        <time>2021-08-18T16:02:45Z</time>
      </trkpt>
      <trkpt lat="40.38326" lon="-5.788213">
        <time>2021-08-18T16:02:48Z</time>
      </trkpt>
      <trkpt lat="40.38326" lon="-5.788213">
        <time>2021-08-18T16:02:48Z</time>
      </trkpt>
      <trkpt lat="40.383844" lon="-5.786998">
        <time>2021-08-18T16:02:54Z</time>
      </trkpt>
      <trkpt lat="40.384557" lon="-5.785763">
        <time>2021-08-18T16:03:00Z</time>
      </trkpt>
      <trkpt lat="40.384766" lon="-5.7842">
        <time>2021-08-18T16:03:06Z</time>
      </trkpt>
      <trkpt lat="40.384835" lon="-5.782958">
        <time>2021-08-18T16:03:12Z</time>
      </trkpt>
      <trkpt lat="40.384624" lon="-5.782643">
        <time>2021-08-18T16:03:15Z</time>
      </trkpt>
      <trkpt lat="40.384624" lon="-5.782643">
        <time>2021-08-18T16:03:15Z</time>
      </trkpt>
      <trkpt lat="40.384428" lon="-5.78224">
        <time>2021-08-18T16:03:18Z</time>
      </trkpt>
      <trkpt lat="40.384308" lon="-5.781053">
        <time>2021-08-18T16:03:24Z</time>
      </trkpt>
      <trkpt lat="40.384027" lon="-5.776857">
        <time>2021-08-18T16:03:45Z</time>
      </trkpt>
      <trkpt lat="40.383777" lon="-5.775518">
        <time>2021-08-18T16:03:51Z</time>
      </trkpt>
      <trkpt lat="40.383728" lon="-5.773446">
        <time>2021-08-18T16:04:00Z</time>
      </trkpt>
      <trkpt lat="40.383978" lon="-5.771425">
        <time>2021-08-18T16:04:09Z</time>
      </trkpt>
      <trkpt lat="40.383885" lon="-5.770842">
        <time>2021-08-18T16:04:12Z</time>
      </trkpt>
      <trkpt lat="40.383471" lon="-5.766543">
        <time>2021-08-18T16:04:33Z</time>
      </trkpt>
      <trkpt lat="40.383926" lon="-5.764952">
        <time>2021-08-18T16:04:48Z</time>
      </trkpt>
      <trkpt lat="40.38396" lon="-5.76468">
        <time>2021-08-18T16:04:51Z</time>
      </trkpt>
      <trkpt lat="40.384625" lon="-5.759488">
        <time>2021-08-18T16:05:45Z</time>
      </trkpt>
      <trkpt lat="40.384612" lon="-5.759118">
        <time>2021-08-18T16:06:21Z</time>
      </trkpt>
      <trkpt lat="40.38464" lon="-5.758833">
        <time>2021-08-18T16:06:24Z</time>
      </trkpt>
      <trkpt lat="40.384795" lon="-5.756634">
        <time>2021-08-18T16:06:39Z</time>
      </trkpt>
      <trkpt lat="40.385174" lon="-5.755948">
        <time>2021-08-18T16:06:45Z</time>
      </trkpt>
      <trkpt lat="40.386456" lon="-5.753566">
        <time>2021-08-18T16:07:06Z</time>
      </trkpt>
      <trkpt lat="40.386765" lon="-5.753231">
        <time>2021-08-18T16:07:09Z</time>
      </trkpt>
      <trkpt lat="40.388351" lon="-5.752198">
        <time>2021-08-18T16:07:24Z</time>
      </trkpt>
      <trkpt lat="40.388953" lon="-5.7515">
        <time>2021-08-18T16:07:33Z</time>
      </trkpt>
      <trkpt lat="40.389547" lon="-5.750259">
        <time>2021-08-18T16:07:42Z</time>
      </trkpt>
      <trkpt lat="40.389698" lon="-5.749779">
        <time>2021-08-18T16:07:45Z</time>
      </trkpt>
      <trkpt lat="40.390728" lon="-5.746321">
        <time>2021-08-18T16:08:15Z</time>
      </trkpt>
      <trkpt lat="40.39086" lon="-5.743926">
        <time>2021-08-18T16:08:27Z</time>
      </trkpt>
      <trkpt lat="40.391073" lon="-5.742222">
        <time>2021-08-18T16:08:36Z</time>
      </trkpt>
      <trkpt lat="40.391282" lon="-5.741601">
        <time>2021-08-18T16:08:42Z</time>
      </trkpt>
      <trkpt lat="40.391378" lon="-5.74121">
        <time>2021-08-18T16:08:48Z</time>
      </trkpt>
      <trkpt lat="40.391846" lon="-5.740983">
        <time>2021-08-18T16:08:54Z</time>
      </trkpt>
      <trkpt lat="40.392548" lon="-5.740568">
        <time>2021-08-18T16:09:00Z</time>
      </trkpt>
      <trkpt lat="40.393883" lon="-5.740097">
        <time>2021-08-18T16:09:09Z</time>
      </trkpt>
      <trkpt lat="40.39482" lon="-5.739485">
        <time>2021-08-18T16:09:15Z</time>
      </trkpt>
      <trkpt lat="40.395416" lon="-5.73871">
        <time>2021-08-18T16:09:21Z</time>
      </trkpt>
      <trkpt lat="40.395933" lon="-5.737519">
        <time>2021-08-18T16:09:33Z</time>
      </trkpt>
      <trkpt lat="40.396134" lon="-5.737219">
        <time>2021-08-18T16:09:36Z</time>
      </trkpt>
      <trkpt lat="40.396394" lon="-5.73687">
        <time>2021-08-18T16:09:39Z</time>
      </trkpt>
      <trkpt lat="40.39697" lon="-5.735781">
        <time>2021-08-18T16:09:45Z</time>
      </trkpt>
      <trkpt lat="40.398671" lon="-5.732382">
        <time>2021-08-18T16:10:00Z</time>
      </trkpt>
      <trkpt lat="40.399251" lon="-5.730122">
        <time>2021-08-18T16:10:09Z</time>
      </trkpt>
      <trkpt lat="40.3996" lon="-5.729584">
        <time>2021-08-18T16:10:12Z</time>
      </trkpt>
      <trkpt lat="40.401026" lon="-5.728592">
        <time>2021-08-18T16:10:21Z</time>
      </trkpt>
      <trkpt lat="40.402178" lon="-5.728556">
        <time>2021-08-18T16:10:27Z</time>
      </trkpt>
      <trkpt lat="40.402549" lon="-5.728187">
        <time>2021-08-18T16:10:30Z</time>
      </trkpt>
      <trkpt lat="40.403214" lon="-5.727035">
        <time>2021-08-18T16:10:36Z</time>
      </trkpt>
      <trkpt lat="40.40438" lon="-5.724529">
        <time>2021-08-18T16:10:48Z</time>
      </trkpt>
      <trkpt lat="40.405276" lon="-5.723684">
        <time>2021-08-18T16:10:54Z</time>
      </trkpt>
      <trkpt lat="40.406756" lon="-5.722881">
        <time>2021-08-18T16:11:03Z</time>
      </trkpt>
      <trkpt lat="40.409959" lon="-5.721033">
        <time>2021-08-18T16:11:30Z</time>
      </trkpt>
      <trkpt lat="40.410384" lon="-5.720463">
        <time>2021-08-18T16:11:36Z</time>
      </trkpt>
      <trkpt lat="40.410526" lon="-5.720192">
        <time>2021-08-18T16:11:39Z</time>
      </trkpt>
      <trkpt lat="40.410698" lon="-5.720169">
        <time>2021-08-18T16:11:42Z</time>
      </trkpt>
      <trkpt lat="40.41083" lon="-5.72035">
        <time>2021-08-18T16:11:45Z</time>
      </trkpt>
      <trkpt lat="40.41083" lon="-5.72035">
        <time>2021-08-18T16:11:45Z</time>
      </trkpt>
      <trkpt lat="40.411016" lon="-5.720598">
        <time>2021-08-18T16:11:48Z</time>
      </trkpt>
      <trkpt lat="40.411502" lon="-5.720676">
        <time>2021-08-18T16:11:54Z</time>
      </trkpt>
      <trkpt lat="40.411733" lon="-5.720322">
        <time>2021-08-18T16:11:57Z</time>
      </trkpt>
      <trkpt lat="40.412724" lon="-5.718826">
        <time>2021-08-18T16:12:06Z</time>
      </trkpt>
      <trkpt lat="40.414281" lon="-5.717266">
        <time>2021-08-18T16:12:15Z</time>
      </trkpt>
      <trkpt lat="40.418147" lon="-5.713476">
        <time>2021-08-18T16:12:36Z</time>
      </trkpt>
      <trkpt lat="40.420668" lon="-5.710559">
        <time>2021-08-18T16:12:51Z</time>
      </trkpt>
      <trkpt lat="40.421541" lon="-5.709213">
        <time>2021-08-18T16:12:57Z</time>
      </trkpt>
      <trkpt lat="40.422059" lon="-5.708653">
        <time>2021-08-18T16:13:00Z</time>
      </trkpt>
      <trkpt lat="40.423018" lon="-5.707858">
        <time>2021-08-18T16:13:06Z</time>
      </trkpt>
      <trkpt lat="40.423615" lon="-5.707769">
        <time>2021-08-18T16:13:09Z</time>
      </trkpt>
      <trkpt lat="40.426008" lon="-5.707918">
        <time>2021-08-18T16:13:21Z</time>
      </trkpt>
      <trkpt lat="40.426567" lon="-5.708219">
        <time>2021-08-18T16:13:24Z</time>
      </trkpt>
      <trkpt lat="40.427991" lon="-5.709652">
        <time>2021-08-18T16:13:33Z</time>
      </trkpt>
      <trkpt lat="40.428895" lon="-5.711673">
        <time>2021-08-18T16:13:45Z</time>
      </trkpt>
      <trkpt lat="40.429086" lon="-5.711744">
        <time>2021-08-18T16:13:48Z</time>
      </trkpt>
      <trkpt lat="40.429217" lon="-5.711555">
        <time>2021-08-18T16:13:51Z</time>
      </trkpt>
      <trkpt lat="40.429217" lon="-5.711555">
        <time>2021-08-18T16:13:51Z</time>
      </trkpt>
      <trkpt lat="40.42915" lon="-5.711254">
        <time>2021-08-18T16:13:54Z</time>
      </trkpt>
      <trkpt lat="40.42872" lon="-5.71043">
        <time>2021-08-18T16:14:03Z</time>
      </trkpt>
      <trkpt lat="40.428073" lon="-5.706892">
        <time>2021-08-18T16:14:27Z</time>
      </trkpt>
      <trkpt lat="40.428011" lon="-5.706181">
        <time>2021-08-18T16:14:33Z</time>
      </trkpt>
      <trkpt lat="40.427787" lon="-5.705869">
        <time>2021-08-18T16:14:36Z</time>
      </trkpt>
      <trkpt lat="40.427787" lon="-5.705869">
        <time>2021-08-18T16:14:36Z</time>
      </trkpt>
      <trkpt lat="40.427446" lon="-5.705648">
        <time>2021-08-18T16:15:03Z</time>
      </trkpt>
      <trkpt lat="40.427446" lon="-5.705648">
        <time>2021-08-18T16:15:03Z</time>
      </trkpt>
      <trkpt lat="40.427541" lon="-5.705621">
        <time>2021-08-18T16:25:04Z</time>
      </trkpt>
      <trkpt lat="40.426164" lon="-5.70528">
        <time>2021-08-18T16:25:28Z</time>
      </trkpt>
      <trkpt lat="40.425858" lon="-5.70498">
        <time>2021-08-18T16:25:31Z</time>
      </trkpt>
      <trkpt lat="40.425759" lon="-5.704514">
        <time>2021-08-18T16:25:34Z</time>
      </trkpt>
      <trkpt lat="40.425941" lon="-5.704075">
        <time>2021-08-18T16:25:37Z</time>
      </trkpt>
      <trkpt lat="40.426329" lon="-5.703751">
        <time>2021-08-18T16:25:40Z</time>
      </trkpt>
      <trkpt lat="40.427084" lon="-5.702811">
        <time>2021-08-18T16:25:46Z</time>
      </trkpt>
      <trkpt lat="40.427481" lon="-5.702334">
        <time>2021-08-18T16:25:49Z</time>
      </trkpt>
      <trkpt lat="40.427959" lon="-5.701916">
        <time>2021-08-18T16:25:52Z</time>
      </trkpt>
      <trkpt lat="40.429387" lon="-5.700182">
        <time>2021-08-18T16:26:01Z</time>
      </trkpt>
      <trkpt lat="40.430827" lon="-5.698456">
        <time>2021-08-18T16:26:10Z</time>
      </trkpt>
      <trkpt lat="40.431434" lon="-5.69804">
        <time>2021-08-18T16:26:13Z</time>
      </trkpt>
      <trkpt lat="40.431434" lon="-5.69804">
        <time>2021-08-18T16:26:16Z</time>
      </trkpt>
      <trkpt lat="40.43506" lon="-5.695307">
        <time>2021-08-18T16:26:34Z</time>
      </trkpt>
      <trkpt lat="40.435316" lon="-5.694962">
        <time>2021-08-18T16:26:37Z</time>
      </trkpt>
      <trkpt lat="40.43579" lon="-5.694436">
        <time>2021-08-18T16:26:43Z</time>
      </trkpt>
      <trkpt lat="40.435995" lon="-5.694193">
        <time>2021-08-18T16:26:46Z</time>
      </trkpt>
      <trkpt lat="40.436247" lon="-5.693616">
        <time>2021-08-18T16:26:49Z</time>
      </trkpt>
      <trkpt lat="40.437047" lon="-5.692336">
        <time>2021-08-18T16:26:55Z</time>
      </trkpt>
      <trkpt lat="40.438072" lon="-5.691689">
        <time>2021-08-18T16:27:01Z</time>
      </trkpt>
      <trkpt lat="40.438805" lon="-5.691207">
        <time>2021-08-18T16:27:07Z</time>
      </trkpt>
      <trkpt lat="40.439222" lon="-5.690834">
        <time>2021-08-18T16:27:10Z</time>
      </trkpt>
      <trkpt lat="40.439985" lon="-5.689851">
        <time>2021-08-18T16:27:16Z</time>
      </trkpt>
      <trkpt lat="40.440174" lon="-5.689384">
        <time>2021-08-18T16:27:19Z</time>
      </trkpt>
      <trkpt lat="40.440381" lon="-5.688622">
        <time>2021-08-18T16:27:25Z</time>
      </trkpt>
      <trkpt lat="40.441009" lon="-5.686898">
        <time>2021-08-18T16:27:34Z</time>
      </trkpt>
      <trkpt lat="40.441102" lon="-5.686109">
        <time>2021-08-18T16:27:37Z</time>
      </trkpt>
      <trkpt lat="40.441539" lon="-5.682957">
        <time>2021-08-18T16:27:49Z</time>
      </trkpt>
      <trkpt lat="40.442631" lon="-5.680828">
        <time>2021-08-18T16:28:07Z</time>
      </trkpt>
      <trkpt lat="40.442856" lon="-5.68044">
        <time>2021-08-18T16:28:10Z</time>
      </trkpt>
      <trkpt lat="40.443948" lon="-5.678439">
        <time>2021-08-18T16:28:28Z</time>
      </trkpt>
      <trkpt lat="40.445509" lon="-5.674981">
        <time>2021-08-18T16:28:52Z</time>
      </trkpt>
      <trkpt lat="40.448208" lon="-5.670251">
        <time>2021-08-18T16:29:16Z</time>
      </trkpt>
      <trkpt lat="40.449337" lon="-5.668412">
        <time>2021-08-18T16:29:25Z</time>
      </trkpt>
      <trkpt lat="40.451759" lon="-5.665321">
        <time>2021-08-18T16:29:40Z</time>
      </trkpt>
      <trkpt lat="40.455018" lon="-5.660261">
        <time>2021-08-18T16:30:01Z</time>
      </trkpt>
      <trkpt lat="40.458522" lon="-5.655662">
        <time>2021-08-18T16:30:22Z</time>
      </trkpt>
      <trkpt lat="40.460948" lon="-5.652196">
        <time>2021-08-18T16:30:37Z</time>
      </trkpt>
      <trkpt lat="40.461389" lon="-5.650561">
        <time>2021-08-18T16:30:43Z</time>
      </trkpt>
      <trkpt lat="40.461739" lon="-5.649808">
        <time>2021-08-18T16:30:46Z</time>
      </trkpt>
      <trkpt lat="40.464666" lon="-5.645546">
        <time>2021-08-18T16:31:04Z</time>
      </trkpt>
      <trkpt lat="40.467745" lon="-5.640056">
        <time>2021-08-18T16:31:25Z</time>
      </trkpt>
      <trkpt lat="40.469571" lon="-5.636296">
        <time>2021-08-18T16:31:40Z</time>
      </trkpt>
      <trkpt lat="40.470574" lon="-5.635179">
        <time>2021-08-18T16:31:46Z</time>
      </trkpt>
      <trkpt lat="40.470574" lon="-5.635179">
        <time>2021-08-18T16:31:46Z</time>
      </trkpt>
      <trkpt lat="40.47199" lon="-5.633399">
        <time>2021-08-18T16:31:55Z</time>
      </trkpt>
      <trkpt lat="40.473065" lon="-5.632347">
        <time>2021-08-18T16:32:01Z</time>
      </trkpt>
      <trkpt lat="40.473955" lon="-5.630927">
        <time>2021-08-18T16:32:07Z</time>
      </trkpt>
      <trkpt lat="40.47725" lon="-5.625661">
        <time>2021-08-18T16:32:28Z</time>
      </trkpt>
      <trkpt lat="40.480467" lon="-5.620492">
        <time>2021-08-18T16:32:49Z</time>
      </trkpt>
      <trkpt lat="40.482549" lon="-5.617172">
        <time>2021-08-18T16:33:10Z</time>
      </trkpt>
      <trkpt lat="40.482562" lon="-5.617419">
        <time>2021-08-18T16:33:13Z</time>
      </trkpt>
      <trkpt lat="40.482201" lon="-5.619187">
        <time>2021-08-18T16:33:22Z</time>
      </trkpt>
      <trkpt lat="40.481694" lon="-5.622938">
        <time>2021-08-18T16:33:37Z</time>
      </trkpt>
      <trkpt lat="40.481744" lon="-5.625208">
        <time>2021-08-18T16:33:46Z</time>
      </trkpt>
      <trkpt lat="40.481587" lon="-5.631114">
        <time>2021-08-18T16:34:10Z</time>
      </trkpt>
      <trkpt lat="40.481587" lon="-5.631114">
        <time>2021-08-18T16:34:10Z</time>
      </trkpt>
      <trkpt lat="40.480871" lon="-5.637296">
        <time>2021-08-18T16:34:37Z</time>
      </trkpt>
      <trkpt lat="40.480839" lon="-5.638727">
        <time>2021-08-18T16:34:43Z</time>
      </trkpt>
      <trkpt lat="40.48147" lon="-5.642552">
        <time>2021-08-18T16:35:01Z</time>
      </trkpt>
      <trkpt lat="40.481671" lon="-5.64327">
        <time>2021-08-18T16:35:04Z</time>
      </trkpt>
      <trkpt lat="40.482476" lon="-5.645456">
        <time>2021-08-18T16:35:13Z</time>
      </trkpt>
      <trkpt lat="40.483554" lon="-5.64748">
        <time>2021-08-18T16:35:22Z</time>
      </trkpt>
      <trkpt lat="40.484134" lon="-5.648913">
        <time>2021-08-18T16:35:28Z</time>
      </trkpt>
      <trkpt lat="40.484856" lon="-5.651201">
        <time>2021-08-18T16:35:37Z</time>
      </trkpt>
      <trkpt lat="40.485271" lon="-5.652522">
        <time>2021-08-18T16:35:43Z</time>
      </trkpt>
      <trkpt lat="40.486812" lon="-5.653997">
        <time>2021-08-18T16:35:52Z</time>
      </trkpt>
      <trkpt lat="40.486812" lon="-5.653997">
        <time>2021-08-18T16:35:52Z</time>
      </trkpt>
      <trkpt lat="40.489141" lon="-5.655721">
        <time>2021-08-18T16:36:04Z</time>
      </trkpt>
      <trkpt lat="40.49098" lon="-5.6563">
        <time>2021-08-18T16:36:13Z</time>
      </trkpt>
      <trkpt lat="40.492109" lon="-5.656952">
        <time>2021-08-18T16:36:19Z</time>
      </trkpt>
      <trkpt lat="40.49293" lon="-5.658239">
        <time>2021-08-18T16:36:25Z</time>
      </trkpt>
      <trkpt lat="40.493085" lon="-5.658961">
        <time>2021-08-18T16:36:28Z</time>
      </trkpt>
      <trkpt lat="40.49311" lon="-5.66064">
        <time>2021-08-18T16:36:34Z</time>
      </trkpt>
      <trkpt lat="40.493345" lon="-5.661458">
        <time>2021-08-18T16:36:37Z</time>
      </trkpt>
      <trkpt lat="40.493703" lon="-5.662067">
        <time>2021-08-18T16:36:40Z</time>
      </trkpt>
      <trkpt lat="40.495398" lon="-5.665109">
        <time>2021-08-18T16:37:01Z</time>
      </trkpt>
      <trkpt lat="40.495805" lon="-5.666961">
        <time>2021-08-18T16:37:13Z</time>
      </trkpt>
      <trkpt lat="40.496015" lon="-5.667534">
        <time>2021-08-18T16:37:16Z</time>
      </trkpt>
      <trkpt lat="40.496411" lon="-5.667983">
        <time>2021-08-18T16:37:19Z</time>
      </trkpt>
      <trkpt lat="40.497268" lon="-5.668844">
        <time>2021-08-18T16:37:25Z</time>
      </trkpt>
      <trkpt lat="40.497716" lon="-5.670286">
        <time>2021-08-18T16:37:31Z</time>
      </trkpt>
      <trkpt lat="40.497861" lon="-5.672575">
        <time>2021-08-18T16:37:40Z</time>
      </trkpt>
      <trkpt lat="40.498032" lon="-5.673577">
        <time>2021-08-18T16:37:46Z</time>
      </trkpt>
      <trkpt lat="40.498178" lon="-5.673845">
        <time>2021-08-18T16:37:49Z</time>
      </trkpt>
      <trkpt lat="40.498123" lon="-5.674165">
        <time>2021-08-18T16:37:52Z</time>
      </trkpt>
      <trkpt lat="40.498143" lon="-5.674627">
        <time>2021-08-18T16:37:55Z</time>
      </trkpt>
      <trkpt lat="40.498642" lon="-5.677168">
        <time>2021-08-18T16:38:10Z</time>
      </trkpt>
      <trkpt lat="40.498898" lon="-5.677272">
        <time>2021-08-18T16:38:13Z</time>
      </trkpt>
      <trkpt lat="40.499203" lon="-5.677056">
        <time>2021-08-18T16:38:16Z</time>
      </trkpt>
      <trkpt lat="40.499548" lon="-5.67671">
        <time>2021-08-18T16:38:19Z</time>
      </trkpt>
      <trkpt lat="40.499983" lon="-5.67643">
        <time>2021-08-18T16:38:22Z</time>
      </trkpt>
      <trkpt lat="40.500495" lon="-5.676329">
        <time>2021-08-18T16:38:25Z</time>
      </trkpt>
      <trkpt lat="40.50379" lon="-5.676678">
        <time>2021-08-18T16:38:43Z</time>
      </trkpt>
      <trkpt lat="40.504265" lon="-5.676739">
        <time>2021-08-18T16:38:46Z</time>
      </trkpt>
      <trkpt lat="40.504265" lon="-5.676739">
        <time>2021-08-18T16:38:46Z</time>
      </trkpt>
      <trkpt lat="40.50475" lon="-5.676565">
        <time>2021-08-18T16:38:49Z</time>
      </trkpt>
      <trkpt lat="40.508816" lon="-5.675254">
        <time>2021-08-18T16:39:10Z</time>
      </trkpt>
      <trkpt lat="40.509454" lon="-5.675107">
        <time>2021-08-18T16:39:13Z</time>
      </trkpt>
      <trkpt lat="40.513344" lon="-5.674791">
        <time>2021-08-18T16:39:31Z</time>
      </trkpt>
      <trkpt lat="40.514385" lon="-5.674442">
        <time>2021-08-18T16:39:37Z</time>
      </trkpt>
      <trkpt lat="40.51539" lon="-5.673996">
        <time>2021-08-18T16:39:43Z</time>
      </trkpt>
      <trkpt lat="40.517826" lon="-5.673416">
        <time>2021-08-18T16:39:55Z</time>
      </trkpt>
      <trkpt lat="40.522312" lon="-5.672487">
        <time>2021-08-18T16:40:16Z</time>
      </trkpt>
      <trkpt lat="40.522825" lon="-5.672526">
        <time>2021-08-18T16:40:19Z</time>
      </trkpt>
      <trkpt lat="40.523729" lon="-5.672698">
        <time>2021-08-18T16:40:31Z</time>
      </trkpt>
      <trkpt lat="40.524086" lon="-5.672566">
        <time>2021-08-18T16:40:37Z</time>
      </trkpt>
      <trkpt lat="40.524193" lon="-5.672906">
        <time>2021-08-18T16:40:40Z</time>
      </trkpt>
      <trkpt lat="40.524445" lon="-5.673313">
        <time>2021-08-18T16:40:43Z</time>
      </trkpt>
      <trkpt lat="40.526329" lon="-5.674967">
        <time>2021-08-18T16:40:55Z</time>
      </trkpt>
      <trkpt lat="40.526329" lon="-5.674967">
        <time>2021-08-18T16:40:55Z</time>
      </trkpt>
      <trkpt lat="40.530952" lon="-5.676597">
        <time>2021-08-18T16:41:16Z</time>
      </trkpt>
      <trkpt lat="40.532082" lon="-5.676836">
        <time>2021-08-18T16:41:22Z</time>
      </trkpt>
      <trkpt lat="40.53539" lon="-5.675991">
        <time>2021-08-18T16:41:40Z</time>
      </trkpt>
      <trkpt lat="40.539866" lon="-5.674906">
        <time>2021-08-18T16:42:07Z</time>
      </trkpt>
      <trkpt lat="40.541144" lon="-5.674962">
        <time>2021-08-18T16:42:13Z</time>
      </trkpt>
      <trkpt lat="40.544878" lon="-5.6759">
        <time>2021-08-18T16:42:31Z</time>
      </trkpt>
      <trkpt lat="40.547424" lon="-5.676545">
        <time>2021-08-18T16:42:46Z</time>
      </trkpt>
      <trkpt lat="40.548635" lon="-5.676139">
        <time>2021-08-18T16:42:58Z</time>
      </trkpt>
      <trkpt lat="40.549631" lon="-5.675767">
        <time>2021-08-18T16:43:07Z</time>
      </trkpt>
      <trkpt lat="40.554258" lon="-5.674164">
        <time>2021-08-18T16:43:46Z</time>
      </trkpt>
      <trkpt lat="40.557017" lon="-5.672994">
        <time>2021-08-18T16:44:25Z</time>
      </trkpt>
      <trkpt lat="40.558611" lon="-5.6729">
        <time>2021-08-18T16:44:40Z</time>
      </trkpt>
      <trkpt lat="40.558737" lon="-5.672866">
        <time>2021-08-18T16:44:46Z</time>
      </trkpt>
      <trkpt lat="40.558815" lon="-5.672789">
        <time>2021-08-18T16:44:49Z</time>
      </trkpt>
      <trkpt lat="40.560477" lon="-5.672205">
        <time>2021-08-18T16:45:19Z</time>
      </trkpt>
      <trkpt lat="40.560436" lon="-5.672192">
        <time>2021-08-18T16:45:22Z</time>
      </trkpt>
      <trkpt lat="40.560226" lon="-5.67226">
        <time>2021-08-18T16:45:28Z</time>
      </trkpt>
      <trkpt lat="40.560201" lon="-5.672223">
        <time>2021-08-18T16:45:35Z</time>
      </trkpt>
      <trkpt lat="40.560201" lon="-5.672223">
        <time>2021-08-18T16:45:35Z</time>
      </trkpt>
      <trkpt lat="40.560256" lon="-5.672011">
        <time>2021-08-18T17:12:48Z</time>
      </trkpt>
      <trkpt lat="40.560334" lon="-5.671884">
        <time>2021-08-18T17:12:54Z</time>
      </trkpt>
      <trkpt lat="40.560446" lon="-5.671882">
        <time>2021-08-18T17:12:57Z</time>
      </trkpt>
      <trkpt lat="40.560563" lon="-5.671973">
        <time>2021-08-18T17:13:00Z</time>
      </trkpt>
      <trkpt lat="40.561022" lon="-5.672071">
        <time>2021-08-18T17:13:09Z</time>
      </trkpt>
      <trkpt lat="40.562118" lon="-5.671734">
        <time>2021-08-18T17:13:21Z</time>
      </trkpt>
      <trkpt lat="40.563322" lon="-5.671447">
        <time>2021-08-18T17:13:33Z</time>
      </trkpt>
      <trkpt lat="40.563585" lon="-5.671286">
        <time>2021-08-18T17:13:36Z</time>
      </trkpt>
      <trkpt lat="40.564381" lon="-5.6707">
        <time>2021-08-18T17:13:45Z</time>
      </trkpt>
      <trkpt lat="40.564381" lon="-5.6707">
        <time>2021-08-18T17:13:46Z</time>
      </trkpt>
      <trkpt lat="40.565486" lon="-5.669978">
        <time>2021-08-18T17:13:57Z</time>
      </trkpt>
      <trkpt lat="40.568418" lon="-5.667885">
        <time>2021-08-18T17:14:24Z</time>
      </trkpt>
      <trkpt lat="40.570811" lon="-5.666044">
        <time>2021-08-18T17:14:42Z</time>
      </trkpt>
      <trkpt lat="40.571098" lon="-5.665775">
        <time>2021-08-18T17:14:48Z</time>
      </trkpt>
      <trkpt lat="40.571357" lon="-5.665747">
        <time>2021-08-18T17:14:51Z</time>
      </trkpt>
      <trkpt lat="40.572582" lon="-5.664874">
        <time>2021-08-18T17:15:00Z</time>
      </trkpt>
      <trkpt lat="40.576316" lon="-5.661919">
        <time>2021-08-18T17:15:24Z</time>
      </trkpt>
      <trkpt lat="40.576725" lon="-5.66158">
        <time>2021-08-18T17:15:27Z</time>
      </trkpt>
      <trkpt lat="40.58105" lon="-5.658618">
        <time>2021-08-18T17:15:51Z</time>
      </trkpt>
      <trkpt lat="40.58105" lon="-5.658618">
        <time>2021-08-18T17:15:51Z</time>
      </trkpt>
      <trkpt lat="40.582352" lon="-5.65874">
        <time>2021-08-18T17:15:57Z</time>
      </trkpt>
      <trkpt lat="40.583708" lon="-5.658597">
        <time>2021-08-18T17:16:03Z</time>
      </trkpt>
      <trkpt lat="40.584306" lon="-5.65813">
        <time>2021-08-18T17:16:06Z</time>
      </trkpt>
      <trkpt lat="40.585202" lon="-5.656765">
        <time>2021-08-18T17:16:12Z</time>
      </trkpt>
      <trkpt lat="40.58661" lon="-5.654746">
        <time>2021-08-18T17:16:21Z</time>
      </trkpt>
      <trkpt lat="40.589241" lon="-5.652873">
        <time>2021-08-18T17:16:33Z</time>
      </trkpt>
      <trkpt lat="40.593783" lon="-5.649451">
        <time>2021-08-18T17:16:54Z</time>
      </trkpt>
      <trkpt lat="40.597864" lon="-5.646371">
        <time>2021-08-18T17:17:12Z</time>
      </trkpt>
      <trkpt lat="40.601914" lon="-5.643322">
        <time>2021-08-18T17:17:30Z</time>
      </trkpt>
      <trkpt lat="40.606407" lon="-5.639974">
        <time>2021-08-18T17:17:48Z</time>
      </trkpt>
      <trkpt lat="40.610803" lon="-5.636693">
        <time>2021-08-18T17:18:06Z</time>
      </trkpt>
      <trkpt lat="40.615067" lon="-5.633521">
        <time>2021-08-18T17:18:24Z</time>
      </trkpt>
      <trkpt lat="40.619286" lon="-5.630894">
        <time>2021-08-18T17:18:42Z</time>
      </trkpt>
      <trkpt lat="40.62208" lon="-5.629339">
        <time>2021-08-18T17:18:54Z</time>
      </trkpt>
      <trkpt lat="40.623562" lon="-5.629067">
        <time>2021-08-18T17:19:00Z</time>
      </trkpt>
      <trkpt lat="40.628306" lon="-5.628825">
        <time>2021-08-18T17:19:18Z</time>
      </trkpt>
      <trkpt lat="40.630941" lon="-5.628693">
        <time>2021-08-18T17:19:30Z</time>
      </trkpt>
      <trkpt lat="40.632151" lon="-5.628428">
        <time>2021-08-18T17:19:39Z</time>
      </trkpt>
      <trkpt lat="40.632419" lon="-5.62844">
        <time>2021-08-18T17:19:42Z</time>
      </trkpt>
      <trkpt lat="40.633177" lon="-5.628576">
        <time>2021-08-18T17:19:48Z</time>
      </trkpt>
      <trkpt lat="40.633177" lon="-5.628576">
        <time>2021-08-18T17:19:48Z</time>
      </trkpt>
      <trkpt lat="40.638239" lon="-5.628902">
        <time>2021-08-18T17:20:12Z</time>
      </trkpt>
      <trkpt lat="40.643363" lon="-5.628706">
        <time>2021-08-18T17:20:33Z</time>
      </trkpt>
      <trkpt lat="40.64851" lon="-5.628307">
        <time>2021-08-18T17:20:54Z</time>
      </trkpt>
      <trkpt lat="40.652172" lon="-5.628056">
        <time>2021-08-18T17:21:09Z</time>
      </trkpt>
      <trkpt lat="40.653499" lon="-5.628572">
        <time>2021-08-18T17:21:15Z</time>
      </trkpt>
      <trkpt lat="40.653499" lon="-5.628572">
        <time>2021-08-18T17:21:15Z</time>
      </trkpt>
      <trkpt lat="40.654889" lon="-5.628686">
        <time>2021-08-18T17:21:21Z</time>
      </trkpt>
      <trkpt lat="40.655537" lon="-5.628333">
        <time>2021-08-18T17:21:24Z</time>
      </trkpt>
      <trkpt lat="40.657246" lon="-5.626702">
        <time>2021-08-18T17:21:33Z</time>
      </trkpt>
      <trkpt lat="40.657927" lon="-5.626348">
        <time>2021-08-18T17:21:36Z</time>
      </trkpt>
      <trkpt lat="40.662286" lon="-5.624233">
        <time>2021-08-18T17:21:54Z</time>
      </trkpt>
      <trkpt lat="40.666805" lon="-5.622033">
        <time>2021-08-18T17:22:12Z</time>
      </trkpt>
      <trkpt lat="40.671379" lon="-5.619789">
        <time>2021-08-18T17:22:30Z</time>
      </trkpt>
      <trkpt lat="40.673653" lon="-5.619102">
        <time>2021-08-18T17:22:39Z</time>
      </trkpt>
      <trkpt lat="40.676082" lon="-5.619741">
        <time>2021-08-18T17:22:48Z</time>
      </trkpt>
      <trkpt lat="40.679102" lon="-5.620175">
        <time>2021-08-18T17:23:00Z</time>
      </trkpt>
      <trkpt lat="40.680402" lon="-5.62001">
        <time>2021-08-18T17:23:06Z</time>
      </trkpt>
      <trkpt lat="40.680965" lon="-5.620193">
        <time>2021-08-18T17:23:09Z</time>
      </trkpt>
      <trkpt lat="40.685393" lon="-5.622145">
        <time>2021-08-18T17:23:36Z</time>
      </trkpt>
      <trkpt lat="40.689619" lon="-5.623644">
        <time>2021-08-18T17:23:57Z</time>
      </trkpt>
      <trkpt lat="40.690229" lon="-5.623507">
        <time>2021-08-18T17:24:00Z</time>
      </trkpt>
      <trkpt lat="40.690822" lon="-5.623212">
        <time>2021-08-18T17:24:03Z</time>
      </trkpt>
      <trkpt lat="40.693381" lon="-5.621987">
        <time>2021-08-18T17:24:15Z</time>
      </trkpt>
      <trkpt lat="40.694791" lon="-5.622306">
        <time>2021-08-18T17:24:21Z</time>
      </trkpt>
      <trkpt lat="40.694791" lon="-5.622306">
        <time>2021-08-18T17:24:21Z</time>
      </trkpt>
      <trkpt lat="40.697623" lon="-5.623272">
        <time>2021-08-18T17:24:33Z</time>
      </trkpt>
      <trkpt lat="40.699768" lon="-5.623085">
        <time>2021-08-18T17:24:42Z</time>
      </trkpt>
      <trkpt lat="40.704537" lon="-5.622464">
        <time>2021-08-18T17:25:03Z</time>
      </trkpt>
      <trkpt lat="40.709278" lon="-5.622431">
        <time>2021-08-18T17:25:24Z</time>
      </trkpt>
      <trkpt lat="40.710003" lon="-5.622338">
        <time>2021-08-18T17:25:27Z</time>
      </trkpt>
      <trkpt lat="40.710668" lon="-5.621943">
        <time>2021-08-18T17:25:30Z</time>
      </trkpt>
      <trkpt lat="40.713236" lon="-5.618836">
        <time>2021-08-18T17:25:45Z</time>
      </trkpt>
      <trkpt lat="40.713236" lon="-5.618836">
        <time>2021-08-18T17:25:45Z</time>
      </trkpt>
      <trkpt lat="40.71385" lon="-5.618548">
        <time>2021-08-18T17:25:48Z</time>
      </trkpt>
      <trkpt lat="40.714509" lon="-5.618493">
        <time>2021-08-18T17:25:51Z</time>
      </trkpt>
      <trkpt lat="40.717854" lon="-5.619313">
        <time>2021-08-18T17:26:06Z</time>
      </trkpt>
      <trkpt lat="40.718475" lon="-5.6196">
        <time>2021-08-18T17:26:09Z</time>
      </trkpt>
      <trkpt lat="40.719641" lon="-5.620524">
        <time>2021-08-18T17:26:15Z</time>
      </trkpt>
      <trkpt lat="40.720536" lon="-5.621922">
        <time>2021-08-18T17:26:21Z</time>
      </trkpt>
      <trkpt lat="40.721245" lon="-5.623606">
        <time>2021-08-18T17:26:27Z</time>
      </trkpt>
      <trkpt lat="40.723322" lon="-5.627689">
        <time>2021-08-18T17:26:42Z</time>
      </trkpt>
      <trkpt lat="40.723933" lon="-5.628274">
        <time>2021-08-18T17:26:45Z</time>
      </trkpt>
      <trkpt lat="40.728326" lon="-5.631715">
        <time>2021-08-18T17:27:06Z</time>
      </trkpt>
      <trkpt lat="40.728326" lon="-5.631715">
        <time>2021-08-18T17:27:06Z</time>
      </trkpt>
      <trkpt lat="40.730313" lon="-5.632332">
        <time>2021-08-18T17:27:15Z</time>
      </trkpt>
      <trkpt lat="40.731751" lon="-5.632157">
        <time>2021-08-18T17:27:21Z</time>
      </trkpt>
      <trkpt lat="40.733139" lon="-5.631446">
        <time>2021-08-18T17:27:27Z</time>
      </trkpt>
      <trkpt lat="40.733139" lon="-5.631446">
        <time>2021-08-18T17:27:27Z</time>
      </trkpt>
      <trkpt lat="40.737255" lon="-5.628052">
        <time>2021-08-18T17:27:48Z</time>
      </trkpt>
      <trkpt lat="40.737255" lon="-5.628052">
        <time>2021-08-18T17:27:48Z</time>
      </trkpt>
      <trkpt lat="40.738845" lon="-5.627676">
        <time>2021-08-18T17:27:54Z</time>
      </trkpt>
      <trkpt lat="40.742016" lon="-5.62746">
        <time>2021-08-18T17:28:06Z</time>
      </trkpt>
      <trkpt lat="40.746523" lon="-5.627122">
        <time>2021-08-18T17:28:24Z</time>
      </trkpt>
      <trkpt lat="40.751502" lon="-5.627279">
        <time>2021-08-18T17:28:54Z</time>
      </trkpt>
      <trkpt lat="40.751502" lon="-5.627279">
        <time>2021-08-18T17:28:54Z</time>
      </trkpt>
      <trkpt lat="40.752521" lon="-5.627892">
        <time>2021-08-18T17:29:00Z</time>
      </trkpt>
      <trkpt lat="40.754769" lon="-5.629054">
        <time>2021-08-18T17:29:12Z</time>
      </trkpt>
      <trkpt lat="40.756049" lon="-5.629262">
        <time>2021-08-18T17:29:18Z</time>
      </trkpt>
      <trkpt lat="40.756717" lon="-5.629257">
        <time>2021-08-18T17:29:21Z</time>
      </trkpt>
      <trkpt lat="40.760784" lon="-5.628047">
        <time>2021-08-18T17:29:39Z</time>
      </trkpt>
      <trkpt lat="40.765597" lon="-5.626263">
        <time>2021-08-18T17:30:00Z</time>
      </trkpt>
      <trkpt lat="40.769557" lon="-5.625128">
        <time>2021-08-18T17:30:18Z</time>
      </trkpt>
      <trkpt lat="40.770198" lon="-5.625178">
        <time>2021-08-18T17:30:21Z</time>
      </trkpt>
      <trkpt lat="40.770829" lon="-5.62535">
        <time>2021-08-18T17:30:24Z</time>
      </trkpt>
      <trkpt lat="40.770829" lon="-5.62535">
        <time>2021-08-18T17:30:24Z</time>
      </trkpt>
      <trkpt lat="40.770829" lon="-5.62535">
        <time>2021-08-18T17:30:24Z</time>
      </trkpt>
      <trkpt lat="40.770829" lon="-5.62535">
        <time>2021-08-18T17:30:24Z</time>
      </trkpt>
      <trkpt lat="40.770829" lon="-5.62535">
        <time>2021-08-18T17:30:24Z</time>
      </trkpt>
      <trkpt lat="40.774827" lon="-5.626737">
        <time>2021-08-18T17:30:42Z</time>
      </trkpt>
      <trkpt lat="40.77925" lon="-5.628278">
        <time>2021-08-18T17:31:00Z</time>
      </trkpt>
      <trkpt lat="40.783695" lon="-5.629818">
        <time>2021-08-18T17:31:18Z</time>
      </trkpt>
      <trkpt lat="40.788247" lon="-5.63141">
        <time>2021-08-18T17:31:36Z</time>
      </trkpt>
      <trkpt lat="40.792628" lon="-5.632939">
        <time>2021-08-18T17:31:54Z</time>
      </trkpt>
      <trkpt lat="40.795433" lon="-5.633478">
        <time>2021-08-18T17:32:06Z</time>
      </trkpt>
      <trkpt lat="40.797619" lon="-5.633336">
        <time>2021-08-18T17:32:15Z</time>
      </trkpt>
      <trkpt lat="40.802786" lon="-5.63297">
        <time>2021-08-18T17:32:36Z</time>
      </trkpt>
      <trkpt lat="40.807653" lon="-5.632448">
        <time>2021-08-18T17:32:57Z</time>
      </trkpt>
      <trkpt lat="40.808281" lon="-5.632172">
        <time>2021-08-18T17:33:00Z</time>
      </trkpt>
      <trkpt lat="40.811773" lon="-5.629341">
        <time>2021-08-18T17:33:18Z</time>
      </trkpt>
      <trkpt lat="40.812436" lon="-5.628968">
        <time>2021-08-18T17:33:21Z</time>
      </trkpt>
      <trkpt lat="40.813874" lon="-5.628643">
        <time>2021-08-18T17:33:27Z</time>
      </trkpt>
      <trkpt lat="40.815326" lon="-5.628933">
        <time>2021-08-18T17:33:33Z</time>
      </trkpt>
      <trkpt lat="40.816639" lon="-5.629819">
        <time>2021-08-18T17:33:39Z</time>
      </trkpt>
      <trkpt lat="40.816639" lon="-5.629819">
        <time>2021-08-18T17:33:39Z</time>
      </trkpt>
      <trkpt lat="40.820307" lon="-5.633742">
        <time>2021-08-18T17:33:57Z</time>
      </trkpt>
      <trkpt lat="40.824132" lon="-5.63725">
        <time>2021-08-18T17:34:15Z</time>
      </trkpt>
      <trkpt lat="40.824132" lon="-5.63725">
        <time>2021-08-18T17:34:15Z</time>
      </trkpt>
      <trkpt lat="40.827168" lon="-5.638601">
        <time>2021-08-18T17:34:27Z</time>
      </trkpt>
      <trkpt lat="40.828724" lon="-5.638621">
        <time>2021-08-18T17:34:33Z</time>
      </trkpt>
      <trkpt lat="40.8334" lon="-5.638502">
        <time>2021-08-18T17:34:51Z</time>
      </trkpt>
      <trkpt lat="40.837174" lon="-5.638921">
        <time>2021-08-18T17:35:06Z</time>
      </trkpt>
      <trkpt lat="40.837936" lon="-5.639292">
        <time>2021-08-18T17:35:09Z</time>
      </trkpt>
      <trkpt lat="40.842503" lon="-5.64119">
        <time>2021-08-18T17:35:27Z</time>
      </trkpt>
      <trkpt lat="40.846873" lon="-5.643739">
        <time>2021-08-18T17:35:45Z</time>
      </trkpt>
      <trkpt lat="40.851181" lon="-5.646781">
        <time>2021-08-18T17:36:03Z</time>
      </trkpt>
      <trkpt lat="40.855167" lon="-5.649612">
        <time>2021-08-18T17:36:21Z</time>
      </trkpt>
      <trkpt lat="40.859717" lon="-5.652298">
        <time>2021-08-18T17:36:48Z</time>
      </trkpt>
      <trkpt lat="40.863051" lon="-5.654367">
        <time>2021-08-18T17:37:06Z</time>
      </trkpt>
      <trkpt lat="40.86403" lon="-5.65549">
        <time>2021-08-18T17:37:12Z</time>
      </trkpt>
      <trkpt lat="40.865704" lon="-5.656913">
        <time>2021-08-18T17:37:21Z</time>
      </trkpt>
      <trkpt lat="40.868542" lon="-5.657946">
        <time>2021-08-18T17:37:33Z</time>
      </trkpt>
      <trkpt lat="40.873035" lon="-5.659628">
        <time>2021-08-18T17:37:51Z</time>
      </trkpt>
      <trkpt lat="40.873804" lon="-5.659724">
        <time>2021-08-18T17:37:54Z</time>
      </trkpt>
      <trkpt lat="40.876149" lon="-5.659281">
        <time>2021-08-18T17:38:03Z</time>
      </trkpt>
      <trkpt lat="40.877719" lon="-5.658991">
        <time>2021-08-18T17:38:09Z</time>
      </trkpt>
      <trkpt lat="40.878495" lon="-5.659087">
        <time>2021-08-18T17:38:12Z</time>
      </trkpt>
      <trkpt lat="40.879934" lon="-5.659867">
        <time>2021-08-18T17:38:18Z</time>
      </trkpt>
      <trkpt lat="40.881742" lon="-5.661922">
        <time>2021-08-18T17:38:27Z</time>
      </trkpt>
      <trkpt lat="40.88378" lon="-5.663665">
        <time>2021-08-18T17:38:36Z</time>
      </trkpt>
      <trkpt lat="40.885376" lon="-5.664116">
        <time>2021-08-18T17:38:42Z</time>
      </trkpt>
      <trkpt lat="40.886184" lon="-5.664163">
        <time>2021-08-18T17:38:45Z</time>
      </trkpt>
      <trkpt lat="40.890902" lon="-5.664222">
        <time>2021-08-18T17:39:03Z</time>
      </trkpt>
      <trkpt lat="40.895489" lon="-5.664313">
        <time>2021-08-18T17:39:21Z</time>
      </trkpt>
      <trkpt lat="40.900153" lon="-5.664395">
        <time>2021-08-18T17:39:39Z</time>
      </trkpt>
      <trkpt lat="40.904814" lon="-5.664477">
        <time>2021-08-18T17:39:57Z</time>
      </trkpt>
      <trkpt lat="40.909551" lon="-5.66457">
        <time>2021-08-18T17:40:15Z</time>
      </trkpt>
      <trkpt lat="40.914382" lon="-5.664976">
        <time>2021-08-18T17:40:36Z</time>
      </trkpt>
      <trkpt lat="40.915587" lon="-5.665233">
        <time>2021-08-18T17:40:45Z</time>
      </trkpt>
      <trkpt lat="40.915827" lon="-5.665288">
        <time>2021-08-18T17:40:48Z</time>
      </trkpt>
      <trkpt lat="40.918534" lon="-5.666219">
        <time>2021-08-18T17:41:06Z</time>
      </trkpt>
      <trkpt lat="40.918962" lon="-5.666644">
        <time>2021-08-18T17:41:09Z</time>
      </trkpt>
      <trkpt lat="40.919331" lon="-5.667201">
        <time>2021-08-18T17:41:12Z</time>
      </trkpt>
      <trkpt lat="40.920547" lon="-5.668725">
        <time>2021-08-18T17:41:21Z</time>
      </trkpt>
      <trkpt lat="40.921575" lon="-5.668975">
        <time>2021-08-18T17:41:27Z</time>
      </trkpt>
      <trkpt lat="40.92259" lon="-5.668642">
        <time>2021-08-18T17:41:33Z</time>
      </trkpt>
      <trkpt lat="40.923051" lon="-5.668439">
        <time>2021-08-18T17:41:36Z</time>
      </trkpt>
      <trkpt lat="40.924093" lon="-5.668201">
        <time>2021-08-18T17:41:42Z</time>
      </trkpt>
      <trkpt lat="40.927553" lon="-5.668529">
        <time>2021-08-18T17:42:00Z</time>
      </trkpt>
      <trkpt lat="40.932479" lon="-5.668899">
        <time>2021-08-18T17:42:27Z</time>
      </trkpt>
      <trkpt lat="40.933044" lon="-5.668773">
        <time>2021-08-18T17:42:30Z</time>
      </trkpt>
      <trkpt lat="40.935539" lon="-5.668021">
        <time>2021-08-18T17:42:45Z</time>
      </trkpt>
      <trkpt lat="40.93698" lon="-5.668179">
        <time>2021-08-18T17:42:54Z</time>
      </trkpt>
      <trkpt lat="40.94064" lon="-5.668671">
        <time>2021-08-18T17:43:42Z</time>
      </trkpt>
      <trkpt lat="40.94079" lon="-5.668475">
        <time>2021-08-18T17:43:45Z</time>
      </trkpt>
      <trkpt lat="40.940992" lon="-5.66829">
        <time>2021-08-18T17:43:48Z</time>
      </trkpt>
      <trkpt lat="40.941264" lon="-5.66826">
        <time>2021-08-18T17:43:51Z</time>
      </trkpt>
      <trkpt lat="40.941522" lon="-5.66841">
        <time>2021-08-18T17:43:54Z</time>
      </trkpt>
      <trkpt lat="40.941522" lon="-5.66841">
        <time>2021-08-18T17:43:54Z</time>
      </trkpt>
      <trkpt lat="40.941679" lon="-5.6687">
        <time>2021-08-18T17:43:57Z</time>
      </trkpt>
      <trkpt lat="40.941855" lon="-5.668951">
        <time>2021-08-18T17:44:00Z</time>
      </trkpt>
      <trkpt lat="40.942153" lon="-5.669008">
        <time>2021-08-18T17:44:03Z</time>
      </trkpt>
      <trkpt lat="40.945943" lon="-5.669549">
        <time>2021-08-18T17:44:33Z</time>
      </trkpt>
      <trkpt lat="40.94722" lon="-5.669832">
        <time>2021-08-18T17:44:45Z</time>
      </trkpt>
      <trkpt lat="40.947237" lon="-5.669951">
        <time>2021-08-18T17:44:48Z</time>
      </trkpt>
      <trkpt lat="40.947188" lon="-5.670036">
        <time>2021-08-18T17:44:51Z</time>
      </trkpt>
      <trkpt lat="40.947153" lon="-5.670061">
        <time>2021-08-18T17:45:57Z</time>
      </trkpt>
      <trkpt lat="40.947137" lon="-5.670108">
        <time>2021-08-18T17:46:00Z</time>
      </trkpt>
      <trkpt lat="40.947125" lon="-5.670123">
        <time>2021-08-18T17:47:12Z</time>
      </trkpt>
      <trkpt lat="40.947125" lon="-5.670123">
        <time>2021-08-18T17:47:22Z</time>
      </trkpt>
      <trkpt lat="40.947125" lon="-5.670123">
        <time>2021-08-18T17:47:22Z</time>
      </trkpt>
      <trkpt lat="40.947206" lon="-5.670096">
        <time>2021-08-18T18:06:41Z</time>
      </trkpt>
      <trkpt lat="40.947124" lon="-5.670144">
        <time>2021-08-18T18:06:47Z</time>
      </trkpt>
      <trkpt lat="40.947131" lon="-5.670186">
        <time>2021-08-18T18:06:50Z</time>
      </trkpt>
      <trkpt lat="40.947184" lon="-5.670192">
        <time>2021-08-18T18:07:20Z</time>
      </trkpt>
      <trkpt lat="40.947207" lon="-5.670042">
        <time>2021-08-18T18:07:26Z</time>
      </trkpt>
      <trkpt lat="40.947242" lon="-5.670014">
        <time>2021-08-18T18:07:53Z</time>
      </trkpt>
      <trkpt lat="40.947437" lon="-5.669996">
        <time>2021-08-18T18:07:56Z</time>
      </trkpt>
      <trkpt lat="40.951754" lon="-5.670171">
        <time>2021-08-18T18:08:32Z</time>
      </trkpt>
      <trkpt lat="40.951754" lon="-5.670171">
        <time>2021-08-18T18:08:32Z</time>
      </trkpt>
      <trkpt lat="40.953484" lon="-5.669651">
        <time>2021-08-18T18:08:50Z</time>
      </trkpt>
      <trkpt lat="40.953484" lon="-5.669651">
        <time>2021-08-18T18:08:54Z</time>
      </trkpt>
      <trkpt lat="40.953663" lon="-5.669419">
        <time>2021-08-18T18:09:05Z</time>
      </trkpt>
      <trkpt lat="40.953804" lon="-5.669143">
        <time>2021-08-18T18:09:08Z</time>
      </trkpt>
      <trkpt lat="40.954031" lon="-5.668989">
        <time>2021-08-18T18:09:11Z</time>
      </trkpt>
      <trkpt lat="40.954281" lon="-5.669048">
        <time>2021-08-18T18:09:14Z</time>
      </trkpt>
      <trkpt lat="40.954416" lon="-5.669304">
        <time>2021-08-18T18:09:17Z</time>
      </trkpt>
      <trkpt lat="40.954411" lon="-5.669586">
        <time>2021-08-18T18:09:20Z</time>
      </trkpt>
      <trkpt lat="40.954246" lon="-5.669814">
        <time>2021-08-18T18:09:23Z</time>
      </trkpt>
      <trkpt lat="40.953987" lon="-5.669846">
        <time>2021-08-18T18:09:26Z</time>
      </trkpt>
      <trkpt lat="40.953765" lon="-5.669672">
        <time>2021-08-18T18:09:29Z</time>
      </trkpt>
      <trkpt lat="40.953685" lon="-5.669388">
        <time>2021-08-18T18:09:32Z</time>
      </trkpt>
      <trkpt lat="40.953777" lon="-5.669035">
        <time>2021-08-18T18:09:35Z</time>
      </trkpt>
      <trkpt lat="40.953777" lon="-5.669035">
        <time>2021-08-18T18:09:35Z</time>
      </trkpt>
      <trkpt lat="40.95406" lon="-5.668195">
        <time>2021-08-18T18:09:41Z</time>
      </trkpt>
      <trkpt lat="40.954283" lon="-5.666919">
        <time>2021-08-18T18:09:50Z</time>
      </trkpt>
      <trkpt lat="40.954502" lon="-5.666841">
        <time>2021-08-18T18:09:53Z</time>
      </trkpt>
      <trkpt lat="40.954778" lon="-5.6668">
        <time>2021-08-18T18:09:56Z</time>
      </trkpt>
      <trkpt lat="40.957119" lon="-5.665673">
        <time>2021-08-18T18:10:26Z</time>
      </trkpt>
      <trkpt lat="40.95868" lon="-5.664875">
        <time>2021-08-18T18:11:23Z</time>
      </trkpt>
      <trkpt lat="40.95876" lon="-5.664397">
        <time>2021-08-18T18:12:32Z</time>
      </trkpt>
      <trkpt lat="40.95876" lon="-5.664397">
        <time>2021-08-18T18:13:33Z</time>
      </trkpt>
      <trkpt lat="40.95876" lon="-5.664397">
        <time>2021-08-18T18:14:57Z</time>
      </trkpt>
      <trkpt lat="40.958764" lon="-5.664317">
        <time>2021-08-18T18:15:14Z</time>
      </trkpt>
      <trkpt lat="40.958803" lon="-5.664328">
        <time>2021-08-18T18:15:17Z</time>
      </trkpt>
      <trkpt lat="40.95883" lon="-5.664363">
        <time>2021-08-18T18:15:20Z</time>
      </trkpt>
      <trkpt lat="40.958828" lon="-5.664382">
        <time>2021-08-18T18:15:23Z</time>
      </trkpt>
      <trkpt lat="40.958925" lon="-5.664671">
        <time>2021-08-18T18:15:32Z</time>
      </trkpt>
      <trkpt lat="40.959045" lon="-5.664695">
        <time>2021-08-18T18:15:35Z</time>
      </trkpt>
      <trkpt lat="40.959155" lon="-5.664658">
        <time>2021-08-18T18:15:38Z</time>
      </trkpt>
      <trkpt lat="40.959232" lon="-5.664523">
        <time>2021-08-18T18:15:41Z</time>
      </trkpt>
      <trkpt lat="40.959329" lon="-5.664382">
        <time>2021-08-18T18:15:44Z</time>
      </trkpt>
      <trkpt lat="40.959367" lon="-5.664288">
        <time>2021-08-18T18:15:47Z</time>
      </trkpt>
      <trkpt lat="40.959411" lon="-5.664218">
        <time>2021-08-18T18:16:01Z</time>
      </trkpt>
      <trkpt lat="40.959411" lon="-5.664218">
        <time>2021-08-18T18:16:01Z</time>
      </trkpt>
      <trkpt lat="40.95951" lon="-5.664025">
        <time>2021-08-18T18:18:20Z</time>
      </trkpt>
      <trkpt lat="40.959557" lon="-5.664054">
        <time>2021-08-18T18:18:23Z</time>
      </trkpt>
      <trkpt lat="40.959568" lon="-5.663882">
        <time>2021-08-18T18:18:26Z</time>
      </trkpt>
      <trkpt lat="40.959584" lon="-5.663799">
        <time>2021-08-18T18:18:29Z</time>
      </trkpt>
      <trkpt lat="40.959693" lon="-5.663839">
        <time>2021-08-18T18:18:32Z</time>
      </trkpt>
      <trkpt lat="40.959772" lon="-5.663878">
        <time>2021-08-18T18:18:35Z</time>
      </trkpt>
      <trkpt lat="40.959857" lon="-5.663823">
        <time>2021-08-18T18:18:38Z</time>
      </trkpt>
      <trkpt lat="40.960057" lon="-5.663805">
        <time>2021-08-18T18:18:44Z</time>
      </trkpt>
      <trkpt lat="40.960218" lon="-5.663904">
        <time>2021-08-18T18:18:47Z</time>
      </trkpt>
      <trkpt lat="40.960331" lon="-5.66385">
        <time>2021-08-18T18:18:50Z</time>
      </trkpt>
      <trkpt lat="40.960464" lon="-5.663702">
        <time>2021-08-18T18:18:53Z</time>
      </trkpt>
      <trkpt lat="40.961057" lon="-5.663236">
        <time>2021-08-18T18:19:02Z</time>
      </trkpt>
      <trkpt lat="40.962494" lon="-5.662517">
        <time>2021-08-18T18:19:20Z</time>
      </trkpt>
      <trkpt lat="40.962238" lon="-5.662671">
        <time>2021-08-18T18:19:21Z</time>
      </trkpt>
      <trkpt lat="40.963478" lon="-5.661846">
        <time>2021-08-18T18:19:32Z</time>
      </trkpt>
      <trkpt lat="40.965025" lon="-5.660947">
        <time>2021-08-18T18:19:56Z</time>
      </trkpt>
      <trkpt lat="40.965379" lon="-5.660752">
        <time>2021-08-18T18:20:02Z</time>
      </trkpt>
      <trkpt lat="40.96581" lon="-5.660666">
        <time>2021-08-18T18:20:08Z</time>
      </trkpt>
      <trkpt lat="40.96603" lon="-5.660655">
        <time>2021-08-18T18:20:11Z</time>
      </trkpt>
      <trkpt lat="40.966227" lon="-5.66054">
        <time>2021-08-18T18:20:14Z</time>
      </trkpt>
      <trkpt lat="40.967416" lon="-5.659701">
        <time>2021-08-18T18:20:32Z</time>
      </trkpt>
      <trkpt lat="40.967569" lon="-5.659468">
        <time>2021-08-18T18:20:35Z</time>
      </trkpt>
      <trkpt lat="40.96778" lon="-5.659168">
        <time>2021-08-18T18:20:59Z</time>
      </trkpt>
      <trkpt lat="40.967947" lon="-5.65894">
        <time>2021-08-18T18:21:02Z</time>
      </trkpt>
      <trkpt lat="40.968214" lon="-5.658584">
        <time>2021-08-18T18:21:08Z</time>
      </trkpt>
      <trkpt lat="40.968926" lon="-5.656926">
        <time>2021-08-18T18:22:05Z</time>
      </trkpt>
      <trkpt lat="40.969905" lon="-5.654424">
        <time>2021-08-18T18:22:26Z</time>
      </trkpt>
      <trkpt lat="40.970023" lon="-5.654245">
        <time>2021-08-18T18:22:32Z</time>
      </trkpt>
      <trkpt lat="40.970351" lon="-5.653496">
        <time>2021-08-18T18:23:20Z</time>
      </trkpt>
      <trkpt lat="40.970303" lon="-5.653649">
        <time>2021-08-18T18:23:23Z</time>
      </trkpt>
      <trkpt lat="40.970204" lon="-5.653835">
        <time>2021-08-18T18:23:29Z</time>
      </trkpt>
      <trkpt lat="40.970192" lon="-5.653911">
        <time>2021-08-18T18:23:32Z</time>
      </trkpt>
      <trkpt lat="40.970227" lon="-5.654009">
        <time>2021-08-18T18:23:35Z</time>
      </trkpt>
      <trkpt lat="40.97036" lon="-5.654325">
        <time>2021-08-18T18:23:44Z</time>
      </trkpt>
      <trkpt lat="40.97042" lon="-5.65454">
        <time>2021-08-18T18:23:47Z</time>
      </trkpt>
      <trkpt lat="40.970621" lon="-5.655322">
        <time>2021-08-18T18:23:56Z</time>
      </trkpt>
      <trkpt lat="40.970576" lon="-5.655823">
        <time>2021-08-18T18:23:59Z</time>
      </trkpt>
      <trkpt lat="40.970632" lon="-5.656009">
        <time>2021-08-18T18:24:02Z</time>
      </trkpt>
      <trkpt lat="40.970698" lon="-5.656049">
        <time>2021-08-18T18:24:05Z</time>
      </trkpt>
      <trkpt lat="40.970879" lon="-5.656179">
        <time>2021-08-18T18:24:08Z</time>
      </trkpt>
      <trkpt lat="40.970946" lon="-5.655237">
        <time>2021-08-18T18:24:20Z</time>
      </trkpt>
      <trkpt lat="40.970711" lon="-5.654003">
        <time>2021-08-18T18:24:35Z</time>
      </trkpt>
      <trkpt lat="40.970711" lon="-5.654003">
        <time>2021-08-18T18:24:35Z</time>
      </trkpt>
      <trkpt lat="40.970622" lon="-5.653869">
        <time>2021-08-18T18:24:38Z</time>
      </trkpt>
      <trkpt lat="40.970516" lon="-5.653604">
        <time>2021-08-18T18:24:44Z</time>
      </trkpt>
      <trkpt lat="40.970573" lon="-5.653613">
        <time>2021-08-18T18:24:47Z</time>
      </trkpt>
      <trkpt lat="40.970528" lon="-5.653646">
        <time>2021-08-18T18:24:50Z</time>
      </trkpt>
      <trkpt lat="40.970339" lon="-5.653746">
        <time>2021-08-18T18:24:53Z</time>
      </trkpt>
      <trkpt lat="40.970309" lon="-5.65379">
        <time>2021-08-18T18:25:02Z</time>
      </trkpt>
      <trkpt lat="40.970435" lon="-5.65389">
        <time>2021-08-18T18:25:05Z</time>
      </trkpt>
      <trkpt lat="40.970598" lon="-5.654017">
        <time>2021-08-18T18:25:14Z</time>
      </trkpt>
      <trkpt lat="40.970733" lon="-5.654179">
        <time>2021-08-18T18:25:23Z</time>
      </trkpt>
      <trkpt lat="40.97094" lon="-5.654341">
        <time>2021-08-18T18:25:38Z</time>
      </trkpt>
      <trkpt lat="40.971018" lon="-5.654408">
        <time>2021-08-18T18:25:44Z</time>
      </trkpt>
      <trkpt lat="40.971108" lon="-5.654492">
        <time>2021-08-18T18:25:47Z</time>
      </trkpt>
      <trkpt lat="40.971512" lon="-5.654813">
        <time>2021-08-18T18:25:56Z</time>
      </trkpt>
      <trkpt lat="40.971798" lon="-5.654408">
        <time>2021-08-18T18:27:05Z</time>
      </trkpt>
      <trkpt lat="40.971798" lon="-5.654408">
        <time>2021-08-18T18:28:00Z</time>
      </trkpt>
      <trkpt lat="40.971798" lon="-5.654408">
        <time>2021-08-18T18:28:06Z</time>
      </trkpt>
      <trkpt lat="40.971798" lon="-5.654408">
        <time>2021-08-18T18:28:06Z</time>
      </trkpt>
      <trkpt lat="40.972214" lon="-5.653931">
        <time>2021-08-18T18:30:58Z</time>
      </trkpt>
      <trkpt lat="40.972079" lon="-5.653888">
        <time>2021-08-18T18:31:01Z</time>
      </trkpt>
      <trkpt lat="40.972054" lon="-5.653858">
        <time>2021-08-18T18:31:04Z</time>
      </trkpt>
      <trkpt lat="40.971959" lon="-5.653817">
        <time>2021-08-18T18:31:07Z</time>
      </trkpt>
      <trkpt lat="40.971835" lon="-5.653711">
        <time>2021-08-18T18:31:10Z</time>
      </trkpt>
      <trkpt lat="40.971795" lon="-5.65361">
        <time>2021-08-18T18:31:13Z</time>
      </trkpt>
      <trkpt lat="40.971602" lon="-5.653303">
        <time>2021-08-18T18:31:19Z</time>
      </trkpt>
      <trkpt lat="40.971509" lon="-5.653377">
        <time>2021-08-18T18:31:22Z</time>
      </trkpt>
      <trkpt lat="40.970775" lon="-5.653707">
        <time>2021-08-18T18:31:28Z</time>
      </trkpt>
      <trkpt lat="40.97061" lon="-5.653969">
        <time>2021-08-18T18:31:31Z</time>
      </trkpt>
      <trkpt lat="40.969835" lon="-5.655006">
        <time>2021-08-18T18:32:01Z</time>
      </trkpt>
      <trkpt lat="40.969531" lon="-5.656043">
        <time>2021-08-18T18:32:10Z</time>
      </trkpt>
      <trkpt lat="40.968739" lon="-5.657539">
        <time>2021-08-18T18:32:25Z</time>
      </trkpt>
      <trkpt lat="40.968429" lon="-5.658117">
        <time>2021-08-18T18:32:34Z</time>
      </trkpt>
      <trkpt lat="40.96843" lon="-5.658344">
        <time>2021-08-18T18:32:37Z</time>
      </trkpt>
      <trkpt lat="40.968515" lon="-5.658544">
        <time>2021-08-18T18:32:40Z</time>
      </trkpt>
      <trkpt lat="40.968995" lon="-5.659435">
        <time>2021-08-18T18:32:49Z</time>
      </trkpt>
      <trkpt lat="40.969286" lon="-5.660034">
        <time>2021-08-18T18:32:55Z</time>
      </trkpt>
      <trkpt lat="40.969446" lon="-5.660732">
        <time>2021-08-18T18:33:02Z</time>
      </trkpt>
      <trkpt lat="40.96964" lon="-5.661428">
        <time>2021-08-18T18:33:07Z</time>
      </trkpt>
      <trkpt lat="40.970043" lon="-5.663169">
        <time>2021-08-18T18:33:28Z</time>
      </trkpt>
      <trkpt lat="40.970096" lon="-5.66337">
        <time>2021-08-18T18:33:34Z</time>
      </trkpt>
      <trkpt lat="40.970295" lon="-5.663882">
        <time>2021-08-18T18:34:28Z</time>
      </trkpt>
      <trkpt lat="40.970288" lon="-5.663982">
        <time>2021-08-18T18:34:31Z</time>
      </trkpt>
      <trkpt lat="40.970294" lon="-5.664084">
        <time>2021-08-18T18:35:22Z</time>
      </trkpt>
      <trkpt lat="40.970142" lon="-5.664155">
        <time>2021-08-18T18:35:25Z</time>
      </trkpt>
      <trkpt lat="40.969956" lon="-5.664164">
        <time>2021-08-18T18:35:31Z</time>
      </trkpt>
      <trkpt lat="40.969829" lon="-5.66417">
        <time>2021-08-18T18:35:34Z</time>
      </trkpt>
      <trkpt lat="40.969685" lon="-5.664265">
        <time>2021-08-18T18:35:40Z</time>
      </trkpt>
      <trkpt lat="40.969548" lon="-5.66434">
        <time>2021-08-18T18:36:10Z</time>
      </trkpt>
      <trkpt lat="40.969548" lon="-5.66434">
        <time>2021-08-18T18:36:10Z</time>
      </trkpt>
      <trkpt lat="40.969118" lon="-5.664588">
        <time>2021-08-18T19:35:18Z</time>
      </trkpt>
      <trkpt lat="40.969137" lon="-5.664612">
        <time>2021-08-18T19:36:08Z</time>
      </trkpt>
      <trkpt lat="40.969137" lon="-5.664612">
        <time>2021-08-18T19:37:03Z</time>
      </trkpt>
      <trkpt lat="40.969137" lon="-5.664612">
        <time>2021-08-18T19:37:22Z</time>
      </trkpt>
      <trkpt lat="40.969137" lon="-5.664612">
        <time>2021-08-18T19:37:22Z</time>
      </trkpt>
      <trkpt lat="40.96922" lon="-5.664726">
        <time>2021-08-18T22:28:49Z</time>
      </trkpt>
      <trkpt lat="40.969201" lon="-5.664808">
        <time>2021-08-19T08:40:23Z</time>
      </trkpt>
      <trkpt lat="40.969201" lon="-5.664808">
        <time>2021-08-19T08:40:23Z</time>
      </trkpt>
      <trkpt lat="40.969213" lon="-5.664864">
        <time>2021-08-19T08:47:35Z</time>
      </trkpt>
      <trkpt lat="40.969058" lon="-5.664778">
        <time>2021-08-19T08:47:56Z</time>
      </trkpt>
      <trkpt lat="40.968976" lon="-5.664691">
        <time>2021-08-19T08:47:59Z</time>
      </trkpt>
      <trkpt lat="40.968098" lon="-5.664259">
        <time>2021-08-19T08:48:17Z</time>
      </trkpt>
      <trkpt lat="40.967938" lon="-5.664419">
        <time>2021-08-19T08:48:23Z</time>
      </trkpt>
      <trkpt lat="40.967838" lon="-5.664444">
        <time>2021-08-19T08:48:26Z</time>
      </trkpt>
      <trkpt lat="40.96765" lon="-5.664496">
        <time>2021-08-19T08:48:32Z</time>
      </trkpt>
      <trkpt lat="40.967466" lon="-5.664777">
        <time>2021-08-19T08:48:41Z</time>
      </trkpt>
      <trkpt lat="40.967788" lon="-5.665642">
        <time>2021-08-19T08:48:53Z</time>
      </trkpt>
      <trkpt lat="40.967818" lon="-5.665906">
        <time>2021-08-19T08:49:02Z</time>
      </trkpt>
      <trkpt lat="40.967758" lon="-5.665935">
        <time>2021-08-19T08:49:05Z</time>
      </trkpt>
      <trkpt lat="40.967759" lon="-5.666084">
        <time>2021-08-19T08:49:08Z</time>
      </trkpt>
      <trkpt lat="40.967465" lon="-5.66776">
        <time>2021-08-19T08:49:57Z</time>
      </trkpt>
      <trkpt lat="40.967523" lon="-5.667787">
        <time>2021-08-19T08:50:00Z</time>
      </trkpt>
      <trkpt lat="40.967724" lon="-5.66771">
        <time>2021-08-19T08:50:09Z</time>
      </trkpt>
      <trkpt lat="40.968553" lon="-5.667105">
        <time>2021-08-19T08:50:39Z</time>
      </trkpt>
      <trkpt lat="40.968738" lon="-5.666988">
        <time>2021-08-19T08:50:42Z</time>
      </trkpt>
      <trkpt lat="40.968968" lon="-5.666773">
        <time>2021-08-19T08:50:45Z</time>
      </trkpt>
      <trkpt lat="40.969562" lon="-5.666251">
        <time>2021-08-19T08:50:54Z</time>
      </trkpt>
      <trkpt lat="40.969976" lon="-5.665549">
        <time>2021-08-19T08:51:03Z</time>
      </trkpt>
      <trkpt lat="40.970143" lon="-5.664863">
        <time>2021-08-19T08:51:15Z</time>
      </trkpt>
      <trkpt lat="40.970196" lon="-5.664137">
        <time>2021-08-19T08:51:24Z</time>
      </trkpt>
      <trkpt lat="40.970356" lon="-5.663753">
        <time>2021-08-19T08:51:30Z</time>
      </trkpt>
      <trkpt lat="40.970384" lon="-5.663768">
        <time>2021-08-19T08:51:33Z</time>
      </trkpt>
      <trkpt lat="40.970377" lon="-5.663784">
        <time>2021-08-19T08:51:36Z</time>
      </trkpt>
      <trkpt lat="40.970384" lon="-5.663768">
        <time>2021-08-19T08:51:37Z</time>
      </trkpt>
      <trkpt lat="40.970382" lon="-5.66379">
        <time>2021-08-19T08:51:39Z</time>
      </trkpt>
      <trkpt lat="40.970454" lon="-5.663799">
        <time>2021-08-19T08:51:42Z</time>
      </trkpt>
      <trkpt lat="40.970454" lon="-5.663799">
        <time>2021-08-19T08:51:42Z</time>
      </trkpt>
      <trkpt lat="40.970686" lon="-5.663664">
        <time>2021-08-19T08:51:48Z</time>
      </trkpt>
      <trkpt lat="40.971297" lon="-5.663534">
        <time>2021-08-19T08:51:54Z</time>
      </trkpt>
      <trkpt lat="40.971518" lon="-5.663439">
        <time>2021-08-19T08:52:48Z</time>
      </trkpt>
      <trkpt lat="40.971657" lon="-5.663525">
        <time>2021-08-19T08:52:51Z</time>
      </trkpt>
      <trkpt lat="40.97188" lon="-5.663531">
        <time>2021-08-19T08:52:54Z</time>
      </trkpt>
      <trkpt lat="40.972113" lon="-5.663524">
        <time>2021-08-19T08:52:57Z</time>
      </trkpt>
      <trkpt lat="40.974897" lon="-5.662896">
        <time>2021-08-19T08:53:27Z</time>
      </trkpt>
      <trkpt lat="40.974897" lon="-5.662896">
        <time>2021-08-19T08:53:27Z</time>
      </trkpt>
      <trkpt lat="40.975644" lon="-5.662666">
        <time>2021-08-19T08:53:36Z</time>
      </trkpt>
      <trkpt lat="40.976037" lon="-5.662686">
        <time>2021-08-19T08:53:42Z</time>
      </trkpt>
      <trkpt lat="40.97881" lon="-5.661651">
        <time>2021-08-19T08:54:15Z</time>
      </trkpt>
      <trkpt lat="40.979211" lon="-5.661479">
        <time>2021-08-19T08:54:21Z</time>
      </trkpt>
      <trkpt lat="40.979211" lon="-5.661479">
        <time>2021-08-19T08:54:21Z</time>
      </trkpt>
      <trkpt lat="40.979437" lon="-5.66149">
        <time>2021-08-19T08:54:24Z</time>
      </trkpt>
      <trkpt lat="40.980383" lon="-5.661167">
        <time>2021-08-19T08:55:41Z</time>
      </trkpt>
      <trkpt lat="40.980383" lon="-5.661167">
        <time>2021-08-19T08:56:09Z</time>
      </trkpt>
      <trkpt lat="40.980493" lon="-5.661118">
        <time>2021-08-19T08:56:15Z</time>
      </trkpt>
      <trkpt lat="40.982138" lon="-5.660662">
        <time>2021-08-19T08:56:30Z</time>
      </trkpt>
      <trkpt lat="40.982401" lon="-5.660602">
        <time>2021-08-19T08:56:33Z</time>
      </trkpt>
      <trkpt lat="40.983908" lon="-5.660218">
        <time>2021-08-19T08:56:45Z</time>
      </trkpt>
      <trkpt lat="40.988739" lon="-5.659025">
        <time>2021-08-19T08:57:15Z</time>
      </trkpt>
      <trkpt lat="40.993391" lon="-5.657907">
        <time>2021-08-19T08:57:48Z</time>
      </trkpt>
      <trkpt lat="40.997414" lon="-5.65694">
        <time>2021-08-19T08:58:18Z</time>
      </trkpt>
      <trkpt lat="40.997794" lon="-5.656495">
        <time>2021-08-19T08:58:24Z</time>
      </trkpt>
      <trkpt lat="40.997794" lon="-5.656495">
        <time>2021-08-19T08:58:24Z</time>
      </trkpt>
      <trkpt lat="40.99836" lon="-5.65486">
        <time>2021-08-19T08:58:36Z</time>
      </trkpt>
      <trkpt lat="40.998439" lon="-5.654499">
        <time>2021-08-19T08:58:39Z</time>
      </trkpt>
      <trkpt lat="40.99865" lon="-5.654351">
        <time>2021-08-19T08:58:42Z</time>
      </trkpt>
      <trkpt lat="40.999225" lon="-5.654123">
        <time>2021-08-19T08:58:48Z</time>
      </trkpt>
      <trkpt lat="41.001032" lon="-5.652291">
        <time>2021-08-19T08:59:06Z</time>
      </trkpt>
      <trkpt lat="41.004031" lon="-5.649608">
        <time>2021-08-19T08:59:33Z</time>
      </trkpt>
      <trkpt lat="41.004174" lon="-5.649387">
        <time>2021-08-19T08:59:36Z</time>
      </trkpt>
      <trkpt lat="41.004378" lon="-5.649331">
        <time>2021-08-19T08:59:39Z</time>
      </trkpt>
      <trkpt lat="41.004573" lon="-5.649217">
        <time>2021-08-19T08:59:42Z</time>
      </trkpt>
      <trkpt lat="41.004734" lon="-5.649127">
        <time>2021-08-19T08:59:48Z</time>
      </trkpt>
      <trkpt lat="41.004787" lon="-5.649182">
        <time>2021-08-19T08:59:51Z</time>
      </trkpt>
      <trkpt lat="41.004797" lon="-5.649282">
        <time>2021-08-19T08:59:57Z</time>
      </trkpt>
      <trkpt lat="41.0048" lon="-5.649306">
        <time>2021-08-19T09:00:52Z</time>
      </trkpt>
      <trkpt lat="41.0048" lon="-5.649306">
        <time>2021-08-19T09:00:52Z</time>
      </trkpt>
      <trkpt lat="41.004728" lon="-5.649526">
        <time>2021-08-19T09:08:36Z</time>
      </trkpt>
      <trkpt lat="41.00473" lon="-5.649545">
        <time>2021-08-19T09:09:25Z</time>
      </trkpt>
      <trkpt lat="41.004407" lon="-5.649688">
        <time>2021-08-19T09:10:39Z</time>
      </trkpt>
      <trkpt lat="41.004096" lon="-5.649573">
        <time>2021-08-19T09:10:45Z</time>
      </trkpt>
      <trkpt lat="41.004159" lon="-5.649397">
        <time>2021-08-19T09:10:48Z</time>
      </trkpt>
      <trkpt lat="41.004342" lon="-5.649359">
        <time>2021-08-19T09:10:51Z</time>
      </trkpt>
      <trkpt lat="41.004558" lon="-5.64923">
        <time>2021-08-19T09:10:54Z</time>
      </trkpt>
      <trkpt lat="41.007228" lon="-5.647013">
        <time>2021-08-19T09:11:27Z</time>
      </trkpt>
      <trkpt lat="41.007499" lon="-5.646757">
        <time>2021-08-19T09:11:33Z</time>
      </trkpt>
      <trkpt lat="41.007989" lon="-5.646151">
        <time>2021-08-19T09:11:36Z</time>
      </trkpt>
      <trkpt lat="41.009026" lon="-5.644102">
        <time>2021-08-19T09:11:57Z</time>
      </trkpt>
      <trkpt lat="41.009054" lon="-5.643835">
        <time>2021-08-19T09:12:00Z</time>
      </trkpt>
      <trkpt lat="41.009239" lon="-5.643643">
        <time>2021-08-19T09:12:03Z</time>
      </trkpt>
      <trkpt lat="41.009511" lon="-5.643488">
        <time>2021-08-19T09:12:06Z</time>
      </trkpt>
      <trkpt lat="41.00974" lon="-5.643134">
        <time>2021-08-19T09:12:09Z</time>
      </trkpt>
      <trkpt lat="41.010276" lon="-5.642249">
        <time>2021-08-19T09:12:15Z</time>
      </trkpt>
      <trkpt lat="41.013307" lon="-5.63698">
        <time>2021-08-19T09:12:45Z</time>
      </trkpt>
      <trkpt lat="41.015738" lon="-5.633057">
        <time>2021-08-19T09:13:06Z</time>
      </trkpt>
      <trkpt lat="41.016687" lon="-5.632266">
        <time>2021-08-19T09:13:12Z</time>
      </trkpt>
      <trkpt lat="41.017579" lon="-5.631317">
        <time>2021-08-19T09:13:18Z</time>
      </trkpt>
      <trkpt lat="41.019828" lon="-5.627763">
        <time>2021-08-19T09:13:36Z</time>
      </trkpt>
      <trkpt lat="41.019828" lon="-5.627763">
        <time>2021-08-19T09:13:36Z</time>
      </trkpt>
      <trkpt lat="41.023877" lon="-5.624051">
        <time>2021-08-19T09:14:00Z</time>
      </trkpt>
      <trkpt lat="41.024332" lon="-5.623561">
        <time>2021-08-19T09:14:03Z</time>
      </trkpt>
      <trkpt lat="41.026221" lon="-5.620724">
        <time>2021-08-19T09:14:18Z</time>
      </trkpt>
      <trkpt lat="41.02724" lon="-5.619698">
        <time>2021-08-19T09:14:27Z</time>
      </trkpt>
      <trkpt lat="41.030981" lon="-5.616398">
        <time>2021-08-19T09:15:09Z</time>
      </trkpt>
      <trkpt lat="41.035203" lon="-5.613523">
        <time>2021-08-19T09:15:36Z</time>
      </trkpt>
      <trkpt lat="41.039201" lon="-5.610432">
        <time>2021-08-19T09:16:00Z</time>
      </trkpt>
      <trkpt lat="41.043287" lon="-5.607252">
        <time>2021-08-19T09:16:24Z</time>
      </trkpt>
      <trkpt lat="41.046912" lon="-5.602995">
        <time>2021-08-19T09:16:48Z</time>
      </trkpt>
      <trkpt lat="41.050422" lon="-5.598493">
        <time>2021-08-19T09:17:12Z</time>
      </trkpt>
      <trkpt lat="41.053855" lon="-5.594067">
        <time>2021-08-19T09:17:36Z</time>
      </trkpt>
      <trkpt lat="41.057374" lon="-5.589486">
        <time>2021-08-19T09:18:00Z</time>
      </trkpt>
      <trkpt lat="41.060801" lon="-5.585144">
        <time>2021-08-19T09:18:24Z</time>
      </trkpt>
      <trkpt lat="41.064706" lon="-5.580757">
        <time>2021-08-19T09:18:48Z</time>
      </trkpt>
      <trkpt lat="41.068405" lon="-5.577258">
        <time>2021-08-19T09:19:09Z</time>
      </trkpt>
      <trkpt lat="41.072076" lon="-5.573788">
        <time>2021-08-19T09:19:30Z</time>
      </trkpt>
      <trkpt lat="41.075814" lon="-5.570227">
        <time>2021-08-19T09:19:54Z</time>
      </trkpt>
      <trkpt lat="41.079603" lon="-5.566635">
        <time>2021-08-19T09:20:18Z</time>
      </trkpt>
      <trkpt lat="41.083875" lon="-5.563556">
        <time>2021-08-19T09:20:42Z</time>
      </trkpt>
      <trkpt lat="41.088536" lon="-5.560847">
        <time>2021-08-19T09:21:06Z</time>
      </trkpt>
      <trkpt lat="41.093163" lon="-5.558153">
        <time>2021-08-19T09:21:30Z</time>
      </trkpt>
      <trkpt lat="41.097813" lon="-5.555446">
        <time>2021-08-19T09:21:54Z</time>
      </trkpt>
      <trkpt lat="41.102044" lon="-5.55297">
        <time>2021-08-19T09:22:15Z</time>
      </trkpt>
      <trkpt lat="41.106444" lon="-5.550405">
        <time>2021-08-19T09:22:36Z</time>
      </trkpt>
      <trkpt lat="41.110603" lon="-5.547981">
        <time>2021-08-19T09:22:57Z</time>
      </trkpt>
      <trkpt lat="41.114952" lon="-5.545443">
        <time>2021-08-19T09:23:18Z</time>
      </trkpt>
      <trkpt lat="41.114952" lon="-5.545443">
        <time>2021-08-19T09:23:18Z</time>
      </trkpt>
      <trkpt lat="41.114952" lon="-5.545443">
        <time>2021-08-19T09:23:18Z</time>
      </trkpt>
      <trkpt lat="41.119541" lon="-5.542757">
        <time>2021-08-19T09:23:39Z</time>
      </trkpt>
      <trkpt lat="41.124325" lon="-5.539956">
        <time>2021-08-19T09:24:00Z</time>
      </trkpt>
      <trkpt lat="41.129073" lon="-5.537179">
        <time>2021-08-19T09:24:21Z</time>
      </trkpt>
      <trkpt lat="41.133671" lon="-5.534497">
        <time>2021-08-19T09:24:42Z</time>
      </trkpt>
      <trkpt lat="41.138226" lon="-5.531841">
        <time>2021-08-19T09:25:03Z</time>
      </trkpt>
      <trkpt lat="41.142076" lon="-5.52962">
        <time>2021-08-19T09:25:21Z</time>
      </trkpt>
      <trkpt lat="41.142076" lon="-5.52962">
        <time>2021-08-19T09:25:21Z</time>
      </trkpt>
      <trkpt lat="41.142076" lon="-5.52962">
        <time>2021-08-19T09:25:21Z</time>
      </trkpt>
      <trkpt lat="41.142711" lon="-5.529372">
        <time>2021-08-19T09:25:24Z</time>
      </trkpt>
      <trkpt lat="41.147132" lon="-5.528205">
        <time>2021-08-19T09:25:51Z</time>
      </trkpt>
      <trkpt lat="41.147224" lon="-5.528063">
        <time>2021-08-19T09:25:54Z</time>
      </trkpt>
      <trkpt lat="41.147191" lon="-5.5279">
        <time>2021-08-19T09:25:57Z</time>
      </trkpt>
      <trkpt lat="41.146777" lon="-5.526696">
        <time>2021-08-19T09:26:15Z</time>
      </trkpt>
      <trkpt lat="41.146732" lon="-5.526342">
        <time>2021-08-19T09:26:21Z</time>
      </trkpt>
      <trkpt lat="41.146794" lon="-5.526146">
        <time>2021-08-19T09:26:24Z</time>
      </trkpt>
      <trkpt lat="41.147032" lon="-5.525846">
        <time>2021-08-19T09:26:30Z</time>
      </trkpt>
      <trkpt lat="41.147251" lon="-5.525792">
        <time>2021-08-19T09:26:36Z</time>
      </trkpt>
      <trkpt lat="41.147338" lon="-5.525769">
        <time>2021-08-19T09:26:39Z</time>
      </trkpt>
      <trkpt lat="41.147596" lon="-5.525371">
        <time>2021-08-19T09:26:48Z</time>
      </trkpt>
      <trkpt lat="41.147854" lon="-5.524746">
        <time>2021-08-19T09:27:00Z</time>
      </trkpt>
      <trkpt lat="41.148037" lon="-5.52415">
        <time>2021-08-19T09:27:12Z</time>
      </trkpt>
      <trkpt lat="41.148139" lon="-5.524079">
        <time>2021-08-19T09:27:15Z</time>
      </trkpt>
      <trkpt lat="41.148215" lon="-5.524139">
        <time>2021-08-19T09:27:18Z</time>
      </trkpt>
      <trkpt lat="41.148286" lon="-5.524236">
        <time>2021-08-19T09:27:21Z</time>
      </trkpt>
      <trkpt lat="41.148286" lon="-5.524236">
        <time>2021-08-19T09:27:21Z</time>
      </trkpt>
      <trkpt lat="41.148286" lon="-5.524236">
        <time>2021-08-19T09:27:21Z</time>
      </trkpt>
      <trkpt lat="41.148302" lon="-5.524361">
        <time>2021-08-19T09:27:24Z</time>
      </trkpt>
      <trkpt lat="41.148278" lon="-5.52454">
        <time>2021-08-19T09:27:27Z</time>
      </trkpt>
      <trkpt lat="41.148264" lon="-5.524678">
        <time>2021-08-19T09:27:30Z</time>
      </trkpt>
      <trkpt lat="41.148393" lon="-5.524758">
        <time>2021-08-19T09:27:33Z</time>
      </trkpt>
      <trkpt lat="41.14859" lon="-5.524814">
        <time>2021-08-19T09:27:36Z</time>
      </trkpt>
      <trkpt lat="41.149307" lon="-5.52501">
        <time>2021-08-19T09:27:48Z</time>
      </trkpt>
      <trkpt lat="41.149347" lon="-5.52519">
        <time>2021-08-19T09:27:51Z</time>
      </trkpt>
      <trkpt lat="41.149265" lon="-5.525451">
        <time>2021-08-19T09:27:54Z</time>
      </trkpt>
      <trkpt lat="41.1491" lon="-5.526093">
        <time>2021-08-19T09:28:00Z</time>
      </trkpt>
      <trkpt lat="41.149287" lon="-5.526891">
        <time>2021-08-19T09:28:06Z</time>
      </trkpt>
      <trkpt lat="41.149502" lon="-5.527173">
        <time>2021-08-19T09:28:09Z</time>
      </trkpt>
      <trkpt lat="41.149912" lon="-5.527516">
        <time>2021-08-19T09:28:18Z</time>
      </trkpt>
      <trkpt lat="41.151798" lon="-5.527036">
        <time>2021-08-19T09:28:33Z</time>
      </trkpt>
      <trkpt lat="41.156665" lon="-5.525804">
        <time>2021-08-19T09:28:57Z</time>
      </trkpt>
      <trkpt lat="41.161428" lon="-5.524594">
        <time>2021-08-19T09:29:18Z</time>
      </trkpt>
      <trkpt lat="41.166172" lon="-5.523385">
        <time>2021-08-19T09:29:39Z</time>
      </trkpt>
      <trkpt lat="41.167497" lon="-5.52288">
        <time>2021-08-19T09:29:45Z</time>
      </trkpt>
      <trkpt lat="41.168559" lon="-5.521792">
        <time>2021-08-19T09:29:51Z</time>
      </trkpt>
      <trkpt lat="41.169972" lon="-5.519892">
        <time>2021-08-19T09:30:00Z</time>
      </trkpt>
      <trkpt lat="41.172014" lon="-5.517442">
        <time>2021-08-19T09:30:12Z</time>
      </trkpt>
      <trkpt lat="41.174012" lon="-5.516423">
        <time>2021-08-19T09:30:21Z</time>
      </trkpt>
      <trkpt lat="41.178719" lon="-5.514314">
        <time>2021-08-19T09:30:42Z</time>
      </trkpt>
      <trkpt lat="41.178719" lon="-5.514314">
        <time>2021-08-19T09:30:42Z</time>
      </trkpt>
      <trkpt lat="41.180105" lon="-5.514561">
        <time>2021-08-19T09:30:48Z</time>
      </trkpt>
      <trkpt lat="41.181999" lon="-5.515144">
        <time>2021-08-19T09:30:57Z</time>
      </trkpt>
      <trkpt lat="41.183343" lon="-5.515125">
        <time>2021-08-19T09:31:03Z</time>
      </trkpt>
      <trkpt lat="41.186067" lon="-5.51483">
        <time>2021-08-19T09:31:15Z</time>
      </trkpt>
      <trkpt lat="41.188048" lon="-5.514108">
        <time>2021-08-19T09:31:24Z</time>
      </trkpt>
      <trkpt lat="41.191032" lon="-5.512636">
        <time>2021-08-19T09:31:39Z</time>
      </trkpt>
      <trkpt lat="41.191925" lon="-5.511304">
        <time>2021-08-19T09:31:45Z</time>
      </trkpt>
      <trkpt lat="41.192972" lon="-5.510373">
        <time>2021-08-19T09:31:51Z</time>
      </trkpt>
      <trkpt lat="41.193614" lon="-5.510215">
        <time>2021-08-19T09:31:54Z</time>
      </trkpt>
      <trkpt lat="41.196362" lon="-5.51017">
        <time>2021-08-19T09:32:06Z</time>
      </trkpt>
      <trkpt lat="41.196362" lon="-5.51017">
        <time>2021-08-19T09:32:06Z</time>
      </trkpt>
      <trkpt lat="41.201194" lon="-5.508701">
        <time>2021-08-19T09:32:27Z</time>
      </trkpt>
      <trkpt lat="41.206038" lon="-5.507246">
        <time>2021-08-19T09:32:48Z</time>
      </trkpt>
      <trkpt lat="41.210935" lon="-5.505701">
        <time>2021-08-19T09:33:09Z</time>
      </trkpt>
      <trkpt lat="41.215746" lon="-5.503614">
        <time>2021-08-19T09:33:30Z</time>
      </trkpt>
      <trkpt lat="41.217037" lon="-5.502866">
        <time>2021-08-19T09:33:36Z</time>
      </trkpt>
      <trkpt lat="41.218727" lon="-5.501252">
        <time>2021-08-19T09:33:45Z</time>
      </trkpt>
      <trkpt lat="41.219667" lon="-5.49984">
        <time>2021-08-19T09:33:51Z</time>
      </trkpt>
      <trkpt lat="41.220073" lon="-5.499049">
        <time>2021-08-19T09:33:54Z</time>
      </trkpt>
      <trkpt lat="41.221933" lon="-5.494658">
        <time>2021-08-19T09:34:09Z</time>
      </trkpt>
      <trkpt lat="41.224165" lon="-5.489318">
        <time>2021-08-19T09:34:27Z</time>
      </trkpt>
      <trkpt lat="41.225967" lon="-5.486265">
        <time>2021-08-19T09:34:39Z</time>
      </trkpt>
      <trkpt lat="41.227787" lon="-5.484308">
        <time>2021-08-19T09:34:48Z</time>
      </trkpt>
      <trkpt lat="41.228467" lon="-5.483762">
        <time>2021-08-19T09:34:51Z</time>
      </trkpt>
      <trkpt lat="41.231357" lon="-5.482207">
        <time>2021-08-19T09:35:03Z</time>
      </trkpt>
      <trkpt lat="41.232071" lon="-5.481992">
        <time>2021-08-19T09:35:06Z</time>
      </trkpt>
      <trkpt lat="41.234592" lon="-5.481703">
        <time>2021-08-19T09:35:18Z</time>
      </trkpt>
      <trkpt lat="41.236549" lon="-5.481962">
        <time>2021-08-19T09:35:27Z</time>
      </trkpt>
      <trkpt lat="41.237888" lon="-5.482418">
        <time>2021-08-19T09:35:33Z</time>
      </trkpt>
      <trkpt lat="41.239815" lon="-5.483817">
        <time>2021-08-19T09:35:42Z</time>
      </trkpt>
      <trkpt lat="41.240718" lon="-5.484994">
        <time>2021-08-19T09:35:48Z</time>
      </trkpt>
      <trkpt lat="41.241419" lon="-5.485873">
        <time>2021-08-19T09:35:57Z</time>
      </trkpt>
      <trkpt lat="41.241689" lon="-5.485852">
        <time>2021-08-19T09:36:00Z</time>
      </trkpt>
      <trkpt lat="41.244656" lon="-5.483505">
        <time>2021-08-19T09:36:21Z</time>
      </trkpt>
      <trkpt lat="41.24872" lon="-5.480099">
        <time>2021-08-19T09:36:42Z</time>
      </trkpt>
      <trkpt lat="41.249917" lon="-5.479016">
        <time>2021-08-19T09:36:48Z</time>
      </trkpt>
      <trkpt lat="41.252508" lon="-5.475563">
        <time>2021-08-19T09:37:03Z</time>
      </trkpt>
      <trkpt lat="41.253318" lon="-5.474238">
        <time>2021-08-19T09:37:09Z</time>
      </trkpt>
      <trkpt lat="41.255291" lon="-5.470689">
        <time>2021-08-19T09:37:24Z</time>
      </trkpt>
      <trkpt lat="41.258595" lon="-5.466081">
        <time>2021-08-19T09:37:45Z</time>
      </trkpt>
      <trkpt lat="41.258595" lon="-5.466081">
        <time>2021-08-19T09:37:45Z</time>
      </trkpt>
      <trkpt lat="41.263161" lon="-5.463512">
        <time>2021-08-19T09:38:06Z</time>
      </trkpt>
      <trkpt lat="41.267276" lon="-5.461115">
        <time>2021-08-19T09:38:24Z</time>
      </trkpt>
      <trkpt lat="41.271726" lon="-5.458105">
        <time>2021-08-19T09:38:45Z</time>
      </trkpt>
      <trkpt lat="41.271726" lon="-5.458105">
        <time>2021-08-19T09:38:45Z</time>
      </trkpt>
      <trkpt lat="41.275926" lon="-5.4545">
        <time>2021-08-19T09:39:06Z</time>
      </trkpt>
      <trkpt lat="41.280031" lon="-5.450696">
        <time>2021-08-19T09:39:27Z</time>
      </trkpt>
      <trkpt lat="41.283412" lon="-5.44609">
        <time>2021-08-19T09:39:48Z</time>
      </trkpt>
      <trkpt lat="41.286628" lon="-5.441713">
        <time>2021-08-19T09:40:12Z</time>
      </trkpt>
      <trkpt lat="41.287492" lon="-5.440856">
        <time>2021-08-19T09:40:21Z</time>
      </trkpt>
      <trkpt lat="41.287861" lon="-5.440925">
        <time>2021-08-19T09:40:24Z</time>
      </trkpt>
      <trkpt lat="41.288471" lon="-5.440959">
        <time>2021-08-19T09:40:30Z</time>
      </trkpt>
      <trkpt lat="41.288697" lon="-5.440713">
        <time>2021-08-19T09:40:33Z</time>
      </trkpt>
      <trkpt lat="41.28937" lon="-5.439768">
        <time>2021-08-19T09:40:42Z</time>
      </trkpt>
      <trkpt lat="41.289654" lon="-5.439725">
        <time>2021-08-19T09:40:45Z</time>
      </trkpt>
      <trkpt lat="41.290688" lon="-5.43955">
        <time>2021-08-19T09:40:57Z</time>
      </trkpt>
      <trkpt lat="41.292678" lon="-5.438987">
        <time>2021-08-19T09:41:12Z</time>
      </trkpt>
      <trkpt lat="41.29526" lon="-5.437298">
        <time>2021-08-19T09:41:27Z</time>
      </trkpt>
      <trkpt lat="41.299563" lon="-5.434492">
        <time>2021-08-19T09:41:48Z</time>
      </trkpt>
      <trkpt lat="41.30412" lon="-5.431505">
        <time>2021-08-19T09:42:09Z</time>
      </trkpt>
      <trkpt lat="41.30854" lon="-5.428722">
        <time>2021-08-19T09:42:30Z</time>
      </trkpt>
      <trkpt lat="41.312834" lon="-5.426016">
        <time>2021-08-19T09:42:51Z</time>
      </trkpt>
      <trkpt lat="41.31714" lon="-5.423316">
        <time>2021-08-19T09:43:12Z</time>
      </trkpt>
      <trkpt lat="41.321377" lon="-5.420669">
        <time>2021-08-19T09:43:33Z</time>
      </trkpt>
      <trkpt lat="41.325976" lon="-5.417785">
        <time>2021-08-19T09:43:54Z</time>
      </trkpt>
      <trkpt lat="41.330656" lon="-5.414867">
        <time>2021-08-19T09:44:15Z</time>
      </trkpt>
      <trkpt lat="41.334902" lon="-5.412534">
        <time>2021-08-19T09:44:36Z</time>
      </trkpt>
      <trkpt lat="41.339175" lon="-5.410338">
        <time>2021-08-19T09:45:03Z</time>
      </trkpt>
      <trkpt lat="41.33974" lon="-5.410151">
        <time>2021-08-19T09:45:09Z</time>
      </trkpt>
      <trkpt lat="41.339997" lon="-5.410123">
        <time>2021-08-19T09:46:31Z</time>
      </trkpt>
      <trkpt lat="41.339997" lon="-5.410123">
        <time>2021-08-19T09:46:31Z</time>
      </trkpt>
      <trkpt lat="41.340073" lon="-5.410139">
        <time>2021-08-19T10:07:42Z</time>
      </trkpt>
      <trkpt lat="41.341029" lon="-5.409783">
        <time>2021-08-19T10:09:33Z</time>
      </trkpt>
      <trkpt lat="41.341963" lon="-5.409816">
        <time>2021-08-19T10:09:45Z</time>
      </trkpt>
      <trkpt lat="41.342155" lon="-5.409895">
        <time>2021-08-19T10:09:48Z</time>
      </trkpt>
      <trkpt lat="41.3436" lon="-5.410608">
        <time>2021-08-19T10:10:09Z</time>
      </trkpt>
      <trkpt lat="41.344046" lon="-5.410952">
        <time>2021-08-19T10:10:18Z</time>
      </trkpt>
      <trkpt lat="41.344224" lon="-5.410996">
        <time>2021-08-19T10:10:22Z</time>
      </trkpt>
      <trkpt lat="41.344424" lon="-5.411047">
        <time>2021-08-19T10:10:24Z</time>
      </trkpt>
      <trkpt lat="41.344629" lon="-5.411145">
        <time>2021-08-19T10:10:27Z</time>
      </trkpt>
      <trkpt lat="41.348093" lon="-5.413296">
        <time>2021-08-19T10:10:57Z</time>
      </trkpt>
      <trkpt lat="41.348553" lon="-5.413238">
        <time>2021-08-19T10:11:00Z</time>
      </trkpt>
      <trkpt lat="41.348553" lon="-5.413238">
        <time>2021-08-19T10:11:00Z</time>
      </trkpt>
      <trkpt lat="41.353096" lon="-5.411482">
        <time>2021-08-19T10:11:27Z</time>
      </trkpt>
      <trkpt lat="41.357903" lon="-5.409632">
        <time>2021-08-19T10:11:51Z</time>
      </trkpt>
      <trkpt lat="41.362818" lon="-5.407969">
        <time>2021-08-19T10:12:15Z</time>
      </trkpt>
      <trkpt lat="41.365493" lon="-5.40739">
        <time>2021-08-19T10:12:30Z</time>
      </trkpt>
      <trkpt lat="41.367204" lon="-5.407921">
        <time>2021-08-19T10:12:39Z</time>
      </trkpt>
      <trkpt lat="41.367204" lon="-5.407921">
        <time>2021-08-19T10:12:39Z</time>
      </trkpt>
      <trkpt lat="41.36925" lon="-5.409528">
        <time>2021-08-19T10:12:51Z</time>
      </trkpt>
      <trkpt lat="41.371771" lon="-5.410781">
        <time>2021-08-19T10:13:06Z</time>
      </trkpt>
      <trkpt lat="41.376138" lon="-5.412817">
        <time>2021-08-19T10:13:33Z</time>
      </trkpt>
      <trkpt lat="41.380501" lon="-5.415414">
        <time>2021-08-19T10:14:00Z</time>
      </trkpt>
      <trkpt lat="41.383935" lon="-5.416909">
        <time>2021-08-19T10:14:18Z</time>
      </trkpt>
      <trkpt lat="41.384986" lon="-5.417927">
        <time>2021-08-19T10:14:24Z</time>
      </trkpt>
      <trkpt lat="41.389022" lon="-5.421804">
        <time>2021-08-19T10:14:48Z</time>
      </trkpt>
      <trkpt lat="41.390138" lon="-5.42258">
        <time>2021-08-19T10:14:54Z</time>
      </trkpt>
      <trkpt lat="41.391387" lon="-5.422839">
        <time>2021-08-19T10:15:00Z</time>
      </trkpt>
      <trkpt lat="41.393952" lon="-5.422688">
        <time>2021-08-19T10:15:12Z</time>
      </trkpt>
      <trkpt lat="41.398997" lon="-5.422385">
        <time>2021-08-19T10:15:36Z</time>
      </trkpt>
      <trkpt lat="41.403525" lon="-5.422535">
        <time>2021-08-19T10:15:57Z</time>
      </trkpt>
      <trkpt lat="41.408318" lon="-5.422616">
        <time>2021-08-19T10:16:18Z</time>
      </trkpt>
      <trkpt lat="41.413325" lon="-5.422689">
        <time>2021-08-19T10:16:39Z</time>
      </trkpt>
      <trkpt lat="41.415271" lon="-5.422793">
        <time>2021-08-19T10:16:48Z</time>
      </trkpt>
      <trkpt lat="41.418208" lon="-5.424341">
        <time>2021-08-19T10:17:03Z</time>
      </trkpt>
      <trkpt lat="41.419447" lon="-5.424539">
        <time>2021-08-19T10:17:09Z</time>
      </trkpt>
      <trkpt lat="41.421311" lon="-5.423867">
        <time>2021-08-19T10:17:18Z</time>
      </trkpt>
      <trkpt lat="41.422453" lon="-5.42297">
        <time>2021-08-19T10:17:24Z</time>
      </trkpt>
      <trkpt lat="41.426976" lon="-5.42052">
        <time>2021-08-19T10:17:45Z</time>
      </trkpt>
      <trkpt lat="41.431342" lon="-5.417531">
        <time>2021-08-19T10:18:06Z</time>
      </trkpt>
      <trkpt lat="41.433313" lon="-5.416564">
        <time>2021-08-19T10:18:15Z</time>
      </trkpt>
      <trkpt lat="41.435961" lon="-5.415714">
        <time>2021-08-19T10:18:27Z</time>
      </trkpt>
      <trkpt lat="41.436632" lon="-5.415676">
        <time>2021-08-19T10:18:30Z</time>
      </trkpt>
      <trkpt lat="41.440822" lon="-5.415662">
        <time>2021-08-19T10:18:48Z</time>
      </trkpt>
      <trkpt lat="41.444209" lon="-5.415446">
        <time>2021-08-19T10:19:03Z</time>
      </trkpt>
      <trkpt lat="41.445456" lon="-5.414809">
        <time>2021-08-19T10:19:09Z</time>
      </trkpt>
      <trkpt lat="41.449821" lon="-5.411986">
        <time>2021-08-19T10:19:30Z</time>
      </trkpt>
      <trkpt lat="41.451609" lon="-5.410716">
        <time>2021-08-19T10:19:39Z</time>
      </trkpt>
      <trkpt lat="41.453852" lon="-5.408516">
        <time>2021-08-19T10:19:51Z</time>
      </trkpt>
      <trkpt lat="41.457959" lon="-5.404847">
        <time>2021-08-19T10:20:12Z</time>
      </trkpt>
      <trkpt lat="41.457959" lon="-5.404847">
        <time>2021-08-19T10:20:12Z</time>
      </trkpt>
      <trkpt lat="41.462877" lon="-5.402829">
        <time>2021-08-19T10:20:33Z</time>
      </trkpt>
      <trkpt lat="41.467396" lon="-5.400359">
        <time>2021-08-19T10:20:54Z</time>
      </trkpt>
      <trkpt lat="41.469024" lon="-5.399635">
        <time>2021-08-19T10:21:12Z</time>
      </trkpt>
      <trkpt lat="41.471818" lon="-5.399862">
        <time>2021-08-19T10:21:45Z</time>
      </trkpt>
      <trkpt lat="41.476586" lon="-5.399748">
        <time>2021-08-19T10:22:33Z</time>
      </trkpt>
      <trkpt lat="41.481178" lon="-5.399761">
        <time>2021-08-19T10:22:54Z</time>
      </trkpt>
      <trkpt lat="41.484663" lon="-5.399476">
        <time>2021-08-19T10:23:09Z</time>
      </trkpt>
      <trkpt lat="41.486056" lon="-5.398991">
        <time>2021-08-19T10:23:15Z</time>
      </trkpt>
      <trkpt lat="41.48954" lon="-5.398202">
        <time>2021-08-19T10:23:30Z</time>
      </trkpt>
      <trkpt lat="41.490915" lon="-5.398244">
        <time>2021-08-19T10:23:36Z</time>
      </trkpt>
      <trkpt lat="41.494711" lon="-5.398217">
        <time>2021-08-19T10:23:57Z</time>
      </trkpt>
      <trkpt lat="41.494861" lon="-5.398195">
        <time>2021-08-19T10:24:00Z</time>
      </trkpt>
      <trkpt lat="41.495491" lon="-5.398473">
        <time>2021-08-19T10:24:06Z</time>
      </trkpt>
      <trkpt lat="41.499556" lon="-5.401034">
        <time>2021-08-19T10:24:30Z</time>
      </trkpt>
      <trkpt lat="41.503675" lon="-5.40417">
        <time>2021-08-19T10:24:54Z</time>
      </trkpt>
      <trkpt lat="41.504638" lon="-5.404916">
        <time>2021-08-19T10:25:00Z</time>
      </trkpt>
      <trkpt lat="41.507682" lon="-5.408032">
        <time>2021-08-19T10:25:21Z</time>
      </trkpt>
      <trkpt lat="41.510268" lon="-5.41037">
        <time>2021-08-19T10:25:36Z</time>
      </trkpt>
      <trkpt lat="41.512117" lon="-5.410747">
        <time>2021-08-19T10:25:45Z</time>
      </trkpt>
      <trkpt lat="41.513074" lon="-5.411287">
        <time>2021-08-19T10:25:51Z</time>
      </trkpt>
      <trkpt lat="41.515471" lon="-5.4138">
        <time>2021-08-19T10:26:30Z</time>
      </trkpt>
      <trkpt lat="41.515884" lon="-5.413814">
        <time>2021-08-19T10:26:33Z</time>
      </trkpt>
      <trkpt lat="41.515884" lon="-5.413814">
        <time>2021-08-19T10:26:33Z</time>
      </trkpt>
      <trkpt lat="41.516205" lon="-5.41364">
        <time>2021-08-19T10:26:36Z</time>
      </trkpt>
      <trkpt lat="41.51928" lon="-5.41085">
        <time>2021-08-19T10:27:03Z</time>
      </trkpt>
      <trkpt lat="41.519746" lon="-5.410165">
        <time>2021-08-19T10:27:06Z</time>
      </trkpt>
      <trkpt lat="41.52358" lon="-5.40581">
        <time>2021-08-19T10:27:27Z</time>
      </trkpt>
      <trkpt lat="41.525976" lon="-5.402644">
        <time>2021-08-19T10:27:45Z</time>
      </trkpt>
      <trkpt lat="41.526403" lon="-5.401112">
        <time>2021-08-19T10:27:57Z</time>
      </trkpt>
      <trkpt lat="41.526984" lon="-5.398562">
        <time>2021-08-19T10:28:15Z</time>
      </trkpt>
      <trkpt lat="41.527066" lon="-5.398432">
        <time>2021-08-19T10:28:18Z</time>
      </trkpt>
      <trkpt lat="41.52723" lon="-5.398525">
        <time>2021-08-19T10:28:21Z</time>
      </trkpt>
      <trkpt lat="41.527521" lon="-5.398642">
        <time>2021-08-19T10:28:24Z</time>
      </trkpt>
      <trkpt lat="41.529563" lon="-5.39911">
        <time>2021-08-19T10:28:42Z</time>
      </trkpt>
      <trkpt lat="41.534342" lon="-5.400276">
        <time>2021-08-19T10:29:15Z</time>
      </trkpt>
      <trkpt lat="41.539102" lon="-5.401379">
        <time>2021-08-19T10:29:39Z</time>
      </trkpt>
      <trkpt lat="41.540937" lon="-5.40153">
        <time>2021-08-19T10:29:51Z</time>
      </trkpt>
      <trkpt lat="41.541238" lon="-5.40155">
        <time>2021-08-19T10:29:54Z</time>
      </trkpt>
      <trkpt lat="41.543542" lon="-5.402392">
        <time>2021-08-19T10:30:09Z</time>
      </trkpt>
      <trkpt lat="41.543871" lon="-5.402393">
        <time>2021-08-19T10:30:12Z</time>
      </trkpt>
      <trkpt lat="41.544141" lon="-5.402356">
        <time>2021-08-19T10:30:15Z</time>
      </trkpt>
      <trkpt lat="41.544366" lon="-5.402582">
        <time>2021-08-19T10:30:18Z</time>
      </trkpt>
      <trkpt lat="41.544712" lon="-5.402755">
        <time>2021-08-19T10:30:21Z</time>
      </trkpt>
      <trkpt lat="41.547981" lon="-5.404372">
        <time>2021-08-19T10:30:42Z</time>
      </trkpt>
      <trkpt lat="41.548545" lon="-5.404679">
        <time>2021-08-19T10:30:45Z</time>
      </trkpt>
      <trkpt lat="41.551815" lon="-5.407542">
        <time>2021-08-19T10:31:03Z</time>
      </trkpt>
      <trkpt lat="41.554842" lon="-5.409654">
        <time>2021-08-19T10:31:18Z</time>
      </trkpt>
      <trkpt lat="41.55608" lon="-5.41033">
        <time>2021-08-19T10:31:24Z</time>
      </trkpt>
      <trkpt lat="41.55608" lon="-5.41033">
        <time>2021-08-19T10:31:24Z</time>
      </trkpt>
      <trkpt lat="41.559875" lon="-5.414113">
        <time>2021-08-19T10:31:45Z</time>
      </trkpt>
      <trkpt lat="41.559875" lon="-5.414113">
        <time>2021-08-19T10:31:45Z</time>
      </trkpt>
      <trkpt lat="41.56401" lon="-5.415828">
        <time>2021-08-19T10:32:03Z</time>
      </trkpt>
      <trkpt lat="41.564717" lon="-5.415951">
        <time>2021-08-19T10:32:06Z</time>
      </trkpt>
      <trkpt lat="41.569623" lon="-5.418181">
        <time>2021-08-19T10:32:27Z</time>
      </trkpt>
      <trkpt lat="41.571106" lon="-5.418863">
        <time>2021-08-19T10:32:33Z</time>
      </trkpt>
      <trkpt lat="41.574013" lon="-5.420477">
        <time>2021-08-19T10:32:45Z</time>
      </trkpt>
      <trkpt lat="41.577322" lon="-5.422964">
        <time>2021-08-19T10:33:00Z</time>
      </trkpt>
      <trkpt lat="41.577931" lon="-5.423582">
        <time>2021-08-19T10:33:03Z</time>
      </trkpt>
      <trkpt lat="41.581671" lon="-5.427048">
        <time>2021-08-19T10:33:21Z</time>
      </trkpt>
      <trkpt lat="41.585789" lon="-5.429708">
        <time>2021-08-19T10:33:39Z</time>
      </trkpt>
      <trkpt lat="41.589952" lon="-5.432311">
        <time>2021-08-19T10:33:57Z</time>
      </trkpt>
      <trkpt lat="41.591273" lon="-5.433102">
        <time>2021-08-19T10:34:03Z</time>
      </trkpt>
      <trkpt lat="41.593873" lon="-5.433794">
        <time>2021-08-19T10:34:18Z</time>
      </trkpt>
      <trkpt lat="41.594265" lon="-5.434048">
        <time>2021-08-19T10:34:21Z</time>
      </trkpt>
      <trkpt lat="41.595347" lon="-5.43487">
        <time>2021-08-19T10:34:30Z</time>
      </trkpt>
      <trkpt lat="41.596954" lon="-5.437097">
        <time>2021-08-19T10:34:51Z</time>
      </trkpt>
      <trkpt lat="41.597245" lon="-5.437126">
        <time>2021-08-19T10:34:54Z</time>
      </trkpt>
      <trkpt lat="41.597929" lon="-5.437095">
        <time>2021-08-19T10:35:03Z</time>
      </trkpt>
      <trkpt lat="41.597929" lon="-5.437095">
        <time>2021-08-19T10:35:03Z</time>
      </trkpt>
      <trkpt lat="41.599874" lon="-5.438895">
        <time>2021-08-19T10:35:21Z</time>
      </trkpt>
      <trkpt lat="41.601796" lon="-5.440985">
        <time>2021-08-19T10:35:36Z</time>
      </trkpt>
      <trkpt lat="41.601796" lon="-5.440985">
        <time>2021-08-19T10:35:36Z</time>
      </trkpt>
      <trkpt lat="41.605023" lon="-5.445496">
        <time>2021-08-19T10:35:57Z</time>
      </trkpt>
      <trkpt lat="41.607269" lon="-5.448076">
        <time>2021-08-19T10:36:09Z</time>
      </trkpt>
      <trkpt lat="41.609143" lon="-5.449766">
        <time>2021-08-19T10:36:18Z</time>
      </trkpt>
      <trkpt lat="41.612555" lon="-5.453803">
        <time>2021-08-19T10:36:36Z</time>
      </trkpt>
      <trkpt lat="41.616131" lon="-5.457634">
        <time>2021-08-19T10:36:54Z</time>
      </trkpt>
      <trkpt lat="41.619139" lon="-5.460714">
        <time>2021-08-19T10:37:09Z</time>
      </trkpt>
      <trkpt lat="41.619632" lon="-5.461459">
        <time>2021-08-19T10:37:12Z</time>
      </trkpt>
      <trkpt lat="41.620227" lon="-5.462046">
        <time>2021-08-19T10:37:15Z</time>
      </trkpt>
      <trkpt lat="41.62199" lon="-5.463697">
        <time>2021-08-19T10:37:24Z</time>
      </trkpt>
      <trkpt lat="41.623176" lon="-5.464724">
        <time>2021-08-19T10:37:30Z</time>
      </trkpt>
      <trkpt lat="41.62373" lon="-5.465324">
        <time>2021-08-19T10:37:33Z</time>
      </trkpt>
      <trkpt lat="41.625665" lon="-5.467856">
        <time>2021-08-19T10:37:45Z</time>
      </trkpt>
      <trkpt lat="41.627493" lon="-5.469161">
        <time>2021-08-19T10:37:54Z</time>
      </trkpt>
      <trkpt lat="41.627493" lon="-5.469161">
        <time>2021-08-19T10:37:54Z</time>
      </trkpt>
      <trkpt lat="41.631482" lon="-5.471427">
        <time>2021-08-19T10:38:18Z</time>
      </trkpt>
      <trkpt lat="41.631963" lon="-5.471861">
        <time>2021-08-19T10:38:21Z</time>
      </trkpt>
      <trkpt lat="41.632552" lon="-5.47215">
        <time>2021-08-19T10:38:24Z</time>
      </trkpt>
      <trkpt lat="41.634523" lon="-5.472759">
        <time>2021-08-19T10:38:33Z</time>
      </trkpt>
      <trkpt lat="41.635796" lon="-5.473183">
        <time>2021-08-19T10:38:39Z</time>
      </trkpt>
      <trkpt lat="41.636423" lon="-5.473513">
        <time>2021-08-19T10:38:42Z</time>
      </trkpt>
      <trkpt lat="41.6387" lon="-5.474427">
        <time>2021-08-19T10:38:51Z</time>
      </trkpt>
      <trkpt lat="41.641157" lon="-5.475096">
        <time>2021-08-19T10:39:00Z</time>
      </trkpt>
      <trkpt lat="41.645324" lon="-5.47652">
        <time>2021-08-19T10:39:18Z</time>
      </trkpt>
      <trkpt lat="41.645877" lon="-5.477063">
        <time>2021-08-19T10:39:21Z</time>
      </trkpt>
      <trkpt lat="41.645877" lon="-5.477063">
        <time>2021-08-19T10:39:21Z</time>
      </trkpt>
      <trkpt lat="41.645877" lon="-5.477063">
        <time>2021-08-19T10:39:21Z</time>
      </trkpt>
      <trkpt lat="41.650693" lon="-5.479615">
        <time>2021-08-19T10:39:42Z</time>
      </trkpt>
      <trkpt lat="41.650693" lon="-5.479615">
        <time>2021-08-19T10:39:42Z</time>
      </trkpt>
      <trkpt lat="41.652197" lon="-5.480142">
        <time>2021-08-19T10:39:48Z</time>
      </trkpt>
      <trkpt lat="41.655482" lon="-5.480859">
        <time>2021-08-19T10:40:03Z</time>
      </trkpt>
      <trkpt lat="41.655889" lon="-5.481195">
        <time>2021-08-19T10:40:06Z</time>
      </trkpt>
      <trkpt lat="41.656717" lon="-5.48198">
        <time>2021-08-19T10:40:12Z</time>
      </trkpt>
      <trkpt lat="41.65957" lon="-5.484451">
        <time>2021-08-19T10:40:27Z</time>
      </trkpt>
      <trkpt lat="41.663379" lon="-5.487627">
        <time>2021-08-19T10:40:45Z</time>
      </trkpt>
      <trkpt lat="41.667602" lon="-5.49069">
        <time>2021-08-19T10:41:03Z</time>
      </trkpt>
      <trkpt lat="41.668366" lon="-5.49113">
        <time>2021-08-19T10:41:06Z</time>
      </trkpt>
      <trkpt lat="41.672345" lon="-5.492729">
        <time>2021-08-19T10:41:21Z</time>
      </trkpt>
      <trkpt lat="41.675381" lon="-5.494294">
        <time>2021-08-19T10:41:33Z</time>
      </trkpt>
      <trkpt lat="41.67676" lon="-5.495498">
        <time>2021-08-19T10:41:39Z</time>
      </trkpt>
      <trkpt lat="41.680731" lon="-5.498424">
        <time>2021-08-19T10:41:57Z</time>
      </trkpt>
      <trkpt lat="41.680731" lon="-5.498424">
        <time>2021-08-19T10:41:57Z</time>
      </trkpt>
      <trkpt lat="41.684931" lon="-5.500879">
        <time>2021-08-19T10:42:15Z</time>
      </trkpt>
      <trkpt lat="41.689409" lon="-5.503737">
        <time>2021-08-19T10:42:33Z</time>
      </trkpt>
      <trkpt lat="41.693191" lon="-5.506627">
        <time>2021-08-19T10:42:48Z</time>
      </trkpt>
      <trkpt lat="41.693923" lon="-5.507264">
        <time>2021-08-19T10:42:51Z</time>
      </trkpt>
      <trkpt lat="41.698292" lon="-5.51111">
        <time>2021-08-19T10:43:09Z</time>
      </trkpt>
      <trkpt lat="41.702641" lon="-5.514032">
        <time>2021-08-19T10:43:27Z</time>
      </trkpt>
      <trkpt lat="41.703449" lon="-5.514396">
        <time>2021-08-19T10:43:30Z</time>
      </trkpt>
      <trkpt lat="41.707596" lon="-5.515652">
        <time>2021-08-19T10:43:45Z</time>
      </trkpt>
      <trkpt lat="41.708888" lon="-5.516218">
        <time>2021-08-19T10:43:51Z</time>
      </trkpt>
      <trkpt lat="41.709379" lon="-5.51683">
        <time>2021-08-19T10:43:54Z</time>
      </trkpt>
      <trkpt lat="41.711212" lon="-5.520365">
        <time>2021-08-19T10:44:06Z</time>
      </trkpt>
      <trkpt lat="41.713734" lon="-5.526014">
        <time>2021-08-19T10:44:24Z</time>
      </trkpt>
      <trkpt lat="41.713734" lon="-5.526014">
        <time>2021-08-19T10:44:24Z</time>
      </trkpt>
      <trkpt lat="41.714228" lon="-5.52785">
        <time>2021-08-19T10:44:30Z</time>
      </trkpt>
      <trkpt lat="41.715147" lon="-5.528976">
        <time>2021-08-19T10:44:36Z</time>
      </trkpt>
      <trkpt lat="41.717164" lon="-5.53031">
        <time>2021-08-19T10:44:45Z</time>
      </trkpt>
      <trkpt lat="41.717754" lon="-5.530956">
        <time>2021-08-19T10:44:48Z</time>
      </trkpt>
      <trkpt lat="41.720477" lon="-5.534519">
        <time>2021-08-19T10:45:03Z</time>
      </trkpt>
      <trkpt lat="41.721235" lon="-5.535777">
        <time>2021-08-19T10:45:09Z</time>
      </trkpt>
      <trkpt lat="41.721982" lon="-5.538189">
        <time>2021-08-19T10:45:24Z</time>
      </trkpt>
      <trkpt lat="41.721757" lon="-5.538378">
        <time>2021-08-19T10:45:27Z</time>
      </trkpt>
      <trkpt lat="41.720655" lon="-5.53922">
        <time>2021-08-19T10:45:36Z</time>
      </trkpt>
      <trkpt lat="41.719759" lon="-5.540214">
        <time>2021-08-19T10:45:45Z</time>
      </trkpt>
      <trkpt lat="41.718755" lon="-5.54308">
        <time>2021-08-19T10:46:03Z</time>
      </trkpt>
      <trkpt lat="41.718895" lon="-5.54344">
        <time>2021-08-19T10:46:06Z</time>
      </trkpt>
      <trkpt lat="41.719323" lon="-5.544091">
        <time>2021-08-19T10:46:12Z</time>
      </trkpt>
      <trkpt lat="41.719638" lon="-5.54436">
        <time>2021-08-19T10:46:18Z</time>
      </trkpt>
      <trkpt lat="41.720505" lon="-5.544841">
        <time>2021-08-19T10:46:27Z</time>
      </trkpt>
      <trkpt lat="41.722232" lon="-5.545377">
        <time>2021-08-19T10:46:39Z</time>
      </trkpt>
      <trkpt lat="41.723973" lon="-5.545368">
        <time>2021-08-19T10:46:54Z</time>
      </trkpt>
      <trkpt lat="41.728765" lon="-5.545548">
        <time>2021-08-19T10:47:21Z</time>
      </trkpt>
      <trkpt lat="41.733616" lon="-5.544793">
        <time>2021-08-19T10:47:42Z</time>
      </trkpt>
      <trkpt lat="41.735" lon="-5.544492">
        <time>2021-08-19T10:47:48Z</time>
      </trkpt>
      <trkpt lat="41.738208" lon="-5.542582">
        <time>2021-08-19T10:48:03Z</time>
      </trkpt>
      <trkpt lat="41.738208" lon="-5.542582">
        <time>2021-08-19T10:48:03Z</time>
      </trkpt>
      <trkpt lat="41.741691" lon="-5.537887">
        <time>2021-08-19T10:48:24Z</time>
      </trkpt>
      <trkpt lat="41.743168" lon="-5.535732">
        <time>2021-08-19T10:48:33Z</time>
      </trkpt>
      <trkpt lat="41.745098" lon="-5.532593">
        <time>2021-08-19T10:48:45Z</time>
      </trkpt>
      <trkpt lat="41.748343" lon="-5.527318">
        <time>2021-08-19T10:49:06Z</time>
      </trkpt>
      <trkpt lat="41.752366" lon="-5.522951">
        <time>2021-08-19T10:49:27Z</time>
      </trkpt>
      <trkpt lat="41.75299" lon="-5.522308">
        <time>2021-08-19T10:49:30Z</time>
      </trkpt>
      <trkpt lat="41.756203" lon="-5.519662">
        <time>2021-08-19T10:49:45Z</time>
      </trkpt>
      <trkpt lat="41.75865" lon="-5.516776">
        <time>2021-08-19T10:49:57Z</time>
      </trkpt>
      <trkpt lat="41.759877" lon="-5.515198">
        <time>2021-08-19T10:50:03Z</time>
      </trkpt>
      <trkpt lat="41.76257" lon="-5.511274">
        <time>2021-08-19T10:50:18Z</time>
      </trkpt>
      <trkpt lat="41.762813" lon="-5.510294">
        <time>2021-08-19T10:50:21Z</time>
      </trkpt>
      <trkpt lat="41.763364" lon="-5.508344">
        <time>2021-08-19T10:50:27Z</time>
      </trkpt>
      <trkpt lat="41.76488" lon="-5.506032">
        <time>2021-08-19T10:50:36Z</time>
      </trkpt>
      <trkpt lat="41.765408" lon="-5.505522">
        <time>2021-08-19T10:50:39Z</time>
      </trkpt>
      <trkpt lat="41.768979" lon="-5.501835">
        <time>2021-08-19T10:51:12Z</time>
      </trkpt>
      <trkpt lat="41.77071" lon="-5.500576">
        <time>2021-08-19T10:51:30Z</time>
      </trkpt>
      <trkpt lat="41.773358" lon="-5.499128">
        <time>2021-08-19T10:51:45Z</time>
      </trkpt>
      <trkpt lat="41.77824" lon="-5.496568">
        <time>2021-08-19T10:52:06Z</time>
      </trkpt>
      <trkpt lat="41.782806" lon="-5.494183">
        <time>2021-08-19T10:52:24Z</time>
      </trkpt>
      <trkpt lat="41.787574" lon="-5.492064">
        <time>2021-08-19T10:52:42Z</time>
      </trkpt>
      <trkpt lat="41.792695" lon="-5.490884">
        <time>2021-08-19T10:53:00Z</time>
      </trkpt>
      <trkpt lat="41.797775" lon="-5.489635">
        <time>2021-08-19T10:53:18Z</time>
      </trkpt>
      <trkpt lat="41.802598" lon="-5.48792">
        <time>2021-08-19T10:53:36Z</time>
      </trkpt>
      <trkpt lat="41.803953" lon="-5.486858">
        <time>2021-08-19T10:53:42Z</time>
      </trkpt>
      <trkpt lat="41.806184" lon="-5.483895">
        <time>2021-08-19T10:53:54Z</time>
      </trkpt>
      <trkpt lat="41.809404" lon="-5.479421">
        <time>2021-08-19T10:54:12Z</time>
      </trkpt>
      <trkpt lat="41.809404" lon="-5.479421">
        <time>2021-08-19T10:54:12Z</time>
      </trkpt>
      <trkpt lat="41.811481" lon="-5.473416">
        <time>2021-08-19T10:54:33Z</time>
      </trkpt>
      <trkpt lat="41.811481" lon="-5.473416">
        <time>2021-08-19T10:54:33Z</time>
      </trkpt>
      <trkpt lat="41.812397" lon="-5.472287">
        <time>2021-08-19T10:54:42Z</time>
      </trkpt>
      <trkpt lat="41.813086" lon="-5.471871">
        <time>2021-08-19T10:54:48Z</time>
      </trkpt>
      <trkpt lat="41.813623" lon="-5.471447">
        <time>2021-08-19T10:54:54Z</time>
      </trkpt>
      <trkpt lat="41.813833" lon="-5.471225">
        <time>2021-08-19T10:54:57Z</time>
      </trkpt>
      <trkpt lat="41.814011" lon="-5.471133">
        <time>2021-08-19T10:56:49Z</time>
      </trkpt>
      <trkpt lat="41.814011" lon="-5.471133">
        <time>2021-08-19T10:57:04Z</time>
      </trkpt>
      <trkpt lat="41.814011" lon="-5.471133">
        <time>2021-08-19T10:57:22Z</time>
      </trkpt>
      <trkpt lat="41.814104" lon="-5.471109">
        <time>2021-08-19T10:57:33Z</time>
      </trkpt>
      <trkpt lat="41.815692" lon="-5.47062">
        <time>2021-08-19T10:57:48Z</time>
      </trkpt>
      <trkpt lat="41.817044" lon="-5.470133">
        <time>2021-08-19T10:57:57Z</time>
      </trkpt>
      <trkpt lat="41.817418" lon="-5.469712">
        <time>2021-08-19T10:58:00Z</time>
      </trkpt>
      <trkpt lat="41.819023" lon="-5.466704">
        <time>2021-08-19T10:58:18Z</time>
      </trkpt>
      <trkpt lat="41.819644" lon="-5.465487">
        <time>2021-08-19T10:58:27Z</time>
      </trkpt>
      <trkpt lat="41.820015" lon="-5.464732">
        <time>2021-08-19T10:58:33Z</time>
      </trkpt>
      <trkpt lat="41.820015" lon="-5.464732">
        <time>2021-08-19T10:58:34Z</time>
      </trkpt>
      <trkpt lat="41.822217" lon="-5.462008">
        <time>2021-08-19T10:58:54Z</time>
      </trkpt>
      <trkpt lat="41.826032" lon="-5.457909">
        <time>2021-08-19T10:59:18Z</time>
      </trkpt>
      <trkpt lat="41.826618" lon="-5.457468">
        <time>2021-08-19T10:59:21Z</time>
      </trkpt>
      <trkpt lat="41.830538" lon="-5.454642">
        <time>2021-08-19T10:59:39Z</time>
      </trkpt>
      <trkpt lat="41.83477" lon="-5.451564">
        <time>2021-08-19T10:59:57Z</time>
      </trkpt>
      <trkpt lat="41.837066" lon="-5.449197">
        <time>2021-08-19T11:00:09Z</time>
      </trkpt>
      <trkpt lat="41.838323" lon="-5.446688">
        <time>2021-08-19T11:00:18Z</time>
      </trkpt>
      <trkpt lat="41.841076" lon="-5.441761">
        <time>2021-08-19T11:00:36Z</time>
      </trkpt>
      <trkpt lat="41.844168" lon="-5.437017">
        <time>2021-08-19T11:00:54Z</time>
      </trkpt>
      <trkpt lat="41.847264" lon="-5.432437">
        <time>2021-08-19T11:01:12Z</time>
      </trkpt>
      <trkpt lat="41.847264" lon="-5.432437">
        <time>2021-08-19T11:01:12Z</time>
      </trkpt>
      <trkpt lat="41.85097" lon="-5.427915">
        <time>2021-08-19T11:01:30Z</time>
      </trkpt>
      <trkpt lat="41.854762" lon="-5.424192">
        <time>2021-08-19T11:01:48Z</time>
      </trkpt>
      <trkpt lat="41.858666" lon="-5.420386">
        <time>2021-08-19T11:02:12Z</time>
      </trkpt>
      <trkpt lat="41.861212" lon="-5.416907">
        <time>2021-08-19T11:02:33Z</time>
      </trkpt>
      <trkpt lat="41.861692" lon="-5.415814">
        <time>2021-08-19T11:02:42Z</time>
      </trkpt>
      <trkpt lat="41.861752" lon="-5.415789">
        <time>2021-08-19T11:02:51Z</time>
      </trkpt>
      <trkpt lat="41.861752" lon="-5.415789">
        <time>2021-08-19T11:02:51Z</time>
      </trkpt>
      <trkpt lat="41.861922" lon="-5.415914">
        <time>2021-08-19T11:02:54Z</time>
      </trkpt>
      <trkpt lat="41.864786" lon="-5.418414">
        <time>2021-08-19T11:03:24Z</time>
      </trkpt>
      <trkpt lat="41.86508" lon="-5.418393">
        <time>2021-08-19T11:03:27Z</time>
      </trkpt>
      <trkpt lat="41.865349" lon="-5.418114">
        <time>2021-08-19T11:03:30Z</time>
      </trkpt>
      <trkpt lat="41.865607" lon="-5.417737">
        <time>2021-08-19T11:03:33Z</time>
      </trkpt>
      <trkpt lat="41.865794" lon="-5.417261">
        <time>2021-08-19T11:03:36Z</time>
      </trkpt>
      <trkpt lat="41.865978" lon="-5.416083">
        <time>2021-08-19T11:03:45Z</time>
      </trkpt>
      <trkpt lat="41.866104" lon="-5.414888">
        <time>2021-08-19T11:03:54Z</time>
      </trkpt>
      <trkpt lat="41.866658" lon="-5.413846">
        <time>2021-08-19T11:04:03Z</time>
      </trkpt>
      <trkpt lat="41.867051" lon="-5.412967">
        <time>2021-08-19T11:04:09Z</time>
      </trkpt>
      <trkpt lat="41.867324" lon="-5.412057">
        <time>2021-08-19T11:04:15Z</time>
      </trkpt>
      <trkpt lat="41.867517" lon="-5.411757">
        <time>2021-08-19T11:04:18Z</time>
      </trkpt>
      <trkpt lat="41.868832" lon="-5.41055">
        <time>2021-08-19T11:04:36Z</time>
      </trkpt>
      <trkpt lat="41.870856" lon="-5.40982">
        <time>2021-08-19T11:04:51Z</time>
      </trkpt>
      <trkpt lat="41.871331" lon="-5.40955">
        <time>2021-08-19T11:04:54Z</time>
      </trkpt>
      <trkpt lat="41.875581" lon="-5.406924">
        <time>2021-08-19T11:05:18Z</time>
      </trkpt>
      <trkpt lat="41.880073" lon="-5.404435">
        <time>2021-08-19T11:05:39Z</time>
      </trkpt>
      <trkpt lat="41.880073" lon="-5.404435">
        <time>2021-08-19T11:05:39Z</time>
      </trkpt>
      <trkpt lat="41.881458" lon="-5.404599">
        <time>2021-08-19T11:05:45Z</time>
      </trkpt>
      <trkpt lat="41.884749" lon="-5.406452">
        <time>2021-08-19T11:06:00Z</time>
      </trkpt>
      <trkpt lat="41.887323" lon="-5.407783">
        <time>2021-08-19T11:06:12Z</time>
      </trkpt>
      <trkpt lat="41.888021" lon="-5.407653">
        <time>2021-08-19T11:06:15Z</time>
      </trkpt>
      <trkpt lat="41.889417" lon="-5.407192">
        <time>2021-08-19T11:06:21Z</time>
      </trkpt>
      <trkpt lat="41.89301" lon="-5.406664">
        <time>2021-08-19T11:06:36Z</time>
      </trkpt>
      <trkpt lat="41.894506" lon="-5.406727">
        <time>2021-08-19T11:06:42Z</time>
      </trkpt>
      <trkpt lat="41.899196" lon="-5.406904">
        <time>2021-08-19T11:07:00Z</time>
      </trkpt>
      <trkpt lat="41.902224" lon="-5.407683">
        <time>2021-08-19T11:07:12Z</time>
      </trkpt>
      <trkpt lat="41.903662" lon="-5.408248">
        <time>2021-08-19T11:07:18Z</time>
      </trkpt>
      <trkpt lat="41.908196" lon="-5.409987">
        <time>2021-08-19T11:07:39Z</time>
      </trkpt>
      <trkpt lat="41.912527" lon="-5.412925">
        <time>2021-08-19T11:08:00Z</time>
      </trkpt>
      <trkpt lat="41.912527" lon="-5.412925">
        <time>2021-08-19T11:08:00Z</time>
      </trkpt>
      <trkpt lat="41.916944" lon="-5.416162">
        <time>2021-08-19T11:08:21Z</time>
      </trkpt>
      <trkpt lat="41.921032" lon="-5.418877">
        <time>2021-08-19T11:08:51Z</time>
      </trkpt>
      <trkpt lat="41.921032" lon="-5.418877">
        <time>2021-08-19T11:08:51Z</time>
      </trkpt>
      <trkpt lat="41.922147" lon="-5.418184">
        <time>2021-08-19T11:09:00Z</time>
      </trkpt>
      <trkpt lat="41.925499" lon="-5.41771">
        <time>2021-08-19T11:09:18Z</time>
      </trkpt>
      <trkpt lat="41.930234" lon="-5.417036">
        <time>2021-08-19T11:09:39Z</time>
      </trkpt>
      <trkpt lat="41.934709" lon="-5.416234">
        <time>2021-08-19T11:09:57Z</time>
      </trkpt>
      <trkpt lat="41.939196" lon="-5.415486">
        <time>2021-08-19T11:10:15Z</time>
      </trkpt>
      <trkpt lat="41.940749" lon="-5.415744">
        <time>2021-08-19T11:10:21Z</time>
      </trkpt>
      <trkpt lat="41.94356" lon="-5.416231">
        <time>2021-08-19T11:10:33Z</time>
      </trkpt>
      <trkpt lat="41.944267" lon="-5.416">
        <time>2021-08-19T11:10:36Z</time>
      </trkpt>
      <trkpt lat="41.948565" lon="-5.414295">
        <time>2021-08-19T11:10:54Z</time>
      </trkpt>
      <trkpt lat="41.950067" lon="-5.413963">
        <time>2021-08-19T11:11:00Z</time>
      </trkpt>
      <trkpt lat="41.953165" lon="-5.413815">
        <time>2021-08-19T11:11:12Z</time>
      </trkpt>
      <trkpt lat="41.957878" lon="-5.413653">
        <time>2021-08-19T11:11:30Z</time>
      </trkpt>
      <trkpt lat="41.962623" lon="-5.413485">
        <time>2021-08-19T11:11:48Z</time>
      </trkpt>
      <trkpt lat="41.967382" lon="-5.41332">
        <time>2021-08-19T11:12:06Z</time>
      </trkpt>
      <trkpt lat="41.972152" lon="-5.413151">
        <time>2021-08-19T11:12:24Z</time>
      </trkpt>
      <trkpt lat="41.976966" lon="-5.412977">
        <time>2021-08-19T11:12:42Z</time>
      </trkpt>
      <trkpt lat="41.981573" lon="-5.412818">
        <time>2021-08-19T11:13:00Z</time>
      </trkpt>
      <trkpt lat="41.986287" lon="-5.412588">
        <time>2021-08-19T11:13:21Z</time>
      </trkpt>
      <trkpt lat="41.987468" lon="-5.412474">
        <time>2021-08-19T11:13:33Z</time>
      </trkpt>
      <trkpt lat="41.987576" lon="-5.412365">
        <time>2021-08-19T11:13:39Z</time>
      </trkpt>
      <trkpt lat="41.987588" lon="-5.412059">
        <time>2021-08-19T11:13:42Z</time>
      </trkpt>
      <trkpt lat="41.987553" lon="-5.409447">
        <time>2021-08-19T11:14:09Z</time>
      </trkpt>
      <trkpt lat="41.98773" lon="-5.409434">
        <time>2021-08-19T11:14:12Z</time>
      </trkpt>
      <trkpt lat="41.988608" lon="-5.409306">
        <time>2021-08-19T11:14:21Z</time>
      </trkpt>
      <trkpt lat="41.993393" lon="-5.408576">
        <time>2021-08-19T11:14:48Z</time>
      </trkpt>
      <trkpt lat="41.998273" lon="-5.407847">
        <time>2021-08-19T11:15:09Z</time>
      </trkpt>
      <trkpt lat="42.001752" lon="-5.407893">
        <time>2021-08-19T11:15:24Z</time>
      </trkpt>
      <trkpt lat="42.003054" lon="-5.408224">
        <time>2021-08-19T11:15:30Z</time>
      </trkpt>
      <trkpt lat="42.007708" lon="-5.409986">
        <time>2021-08-19T11:15:51Z</time>
      </trkpt>
      <trkpt lat="42.012512" lon="-5.411965">
        <time>2021-08-19T11:16:09Z</time>
      </trkpt>
      <trkpt lat="42.017381" lon="-5.414021">
        <time>2021-08-19T11:16:24Z</time>
      </trkpt>
      <trkpt lat="42.022595" lon="-5.41621">
        <time>2021-08-19T11:16:39Z</time>
      </trkpt>
      <trkpt lat="42.027409" lon="-5.418255">
        <time>2021-08-19T11:16:54Z</time>
      </trkpt>
      <trkpt lat="42.027409" lon="-5.418255">
        <time>2021-08-19T11:16:54Z</time>
      </trkpt>
      <trkpt lat="42.028189" lon="-5.418776">
        <time>2021-08-19T11:16:57Z</time>
      </trkpt>
      <trkpt lat="42.032407" lon="-5.420974">
        <time>2021-08-19T11:17:12Z</time>
      </trkpt>
      <trkpt lat="42.036667" lon="-5.422892">
        <time>2021-08-19T11:17:27Z</time>
      </trkpt>
      <trkpt lat="42.041236" lon="-5.424915">
        <time>2021-08-19T11:17:42Z</time>
      </trkpt>
      <trkpt lat="42.045738" lon="-5.426941">
        <time>2021-08-19T11:17:57Z</time>
      </trkpt>
      <trkpt lat="42.050265" lon="-5.428947">
        <time>2021-08-19T11:18:12Z</time>
      </trkpt>
      <trkpt lat="42.055398" lon="-5.431236">
        <time>2021-08-19T11:18:30Z</time>
      </trkpt>
      <trkpt lat="42.059789" lon="-5.433206">
        <time>2021-08-19T11:18:45Z</time>
      </trkpt>
      <trkpt lat="42.064587" lon="-5.435355">
        <time>2021-08-19T11:19:03Z</time>
      </trkpt>
      <trkpt lat="42.069158" lon="-5.437401">
        <time>2021-08-19T11:19:21Z</time>
      </trkpt>
      <trkpt lat="42.073829" lon="-5.439496">
        <time>2021-08-19T11:19:45Z</time>
      </trkpt>
      <trkpt lat="42.07621" lon="-5.440562">
        <time>2021-08-19T11:20:03Z</time>
      </trkpt>
      <trkpt lat="42.076726" lon="-5.440793">
        <time>2021-08-19T11:20:09Z</time>
      </trkpt>
      <trkpt lat="42.077776" lon="-5.441313">
        <time>2021-08-19T11:20:18Z</time>
      </trkpt>
      <trkpt lat="42.078152" lon="-5.441322">
        <time>2021-08-19T11:20:21Z</time>
      </trkpt>
      <trkpt lat="42.078152" lon="-5.441322">
        <time>2021-08-19T11:20:21Z</time>
      </trkpt>
      <trkpt lat="42.078477" lon="-5.441166">
        <time>2021-08-19T11:20:24Z</time>
      </trkpt>
      <trkpt lat="42.078744" lon="-5.440821">
        <time>2021-08-19T11:20:27Z</time>
      </trkpt>
      <trkpt lat="42.080951" lon="-5.438028">
        <time>2021-08-19T11:20:51Z</time>
      </trkpt>
      <trkpt lat="42.081336" lon="-5.437915">
        <time>2021-08-19T11:20:54Z</time>
      </trkpt>
      <trkpt lat="42.081641" lon="-5.438064">
        <time>2021-08-19T11:20:57Z</time>
      </trkpt>
      <trkpt lat="42.08183" lon="-5.438498">
        <time>2021-08-19T11:21:00Z</time>
      </trkpt>
      <trkpt lat="42.08183" lon="-5.438498">
        <time>2021-08-19T11:21:00Z</time>
      </trkpt>
      <trkpt lat="42.082599" lon="-5.44033">
        <time>2021-08-19T11:21:09Z</time>
      </trkpt>
      <trkpt lat="42.083829" lon="-5.441925">
        <time>2021-08-19T11:21:18Z</time>
      </trkpt>
      <trkpt lat="42.084398" lon="-5.442215">
        <time>2021-08-19T11:21:21Z</time>
      </trkpt>
      <trkpt lat="42.085044" lon="-5.442324">
        <time>2021-08-19T11:21:24Z</time>
      </trkpt>
      <trkpt lat="42.090204" lon="-5.442744">
        <time>2021-08-19T11:21:45Z</time>
      </trkpt>
      <trkpt lat="42.094778" lon="-5.443134">
        <time>2021-08-19T11:22:03Z</time>
      </trkpt>
      <trkpt lat="42.099943" lon="-5.443562">
        <time>2021-08-19T11:22:24Z</time>
      </trkpt>
      <trkpt lat="42.104592" lon="-5.44396">
        <time>2021-08-19T11:22:42Z</time>
      </trkpt>
      <trkpt lat="42.109421" lon="-5.444373">
        <time>2021-08-19T11:23:00Z</time>
      </trkpt>
      <trkpt lat="42.114555" lon="-5.444796">
        <time>2021-08-19T11:23:18Z</time>
      </trkpt>
      <trkpt lat="42.119926" lon="-5.445245">
        <time>2021-08-19T11:23:36Z</time>
      </trkpt>
      <trkpt lat="42.125266" lon="-5.445683">
        <time>2021-08-19T11:23:54Z</time>
      </trkpt>
      <trkpt lat="42.130498" lon="-5.446115">
        <time>2021-08-19T11:24:12Z</time>
      </trkpt>
      <trkpt lat="42.135808" lon="-5.446552">
        <time>2021-08-19T11:24:30Z</time>
      </trkpt>
      <trkpt lat="42.141015" lon="-5.446997">
        <time>2021-08-19T11:24:48Z</time>
      </trkpt>
      <trkpt lat="42.145956" lon="-5.447411">
        <time>2021-08-19T11:25:09Z</time>
      </trkpt>
      <trkpt lat="42.150718" lon="-5.447811">
        <time>2021-08-19T11:25:27Z</time>
      </trkpt>
      <trkpt lat="42.150718" lon="-5.447811">
        <time>2021-08-19T11:25:27Z</time>
      </trkpt>
      <trkpt lat="42.151574" lon="-5.447809">
        <time>2021-08-19T11:25:30Z</time>
      </trkpt>
      <trkpt lat="42.155895" lon="-5.447118">
        <time>2021-08-19T11:25:45Z</time>
      </trkpt>
      <trkpt lat="42.161245" lon="-5.446203">
        <time>2021-08-19T11:26:03Z</time>
      </trkpt>
      <trkpt lat="42.165852" lon="-5.445417">
        <time>2021-08-19T11:26:18Z</time>
      </trkpt>
      <trkpt lat="42.17045" lon="-5.444608">
        <time>2021-08-19T11:26:33Z</time>
      </trkpt>
      <trkpt lat="42.174348" lon="-5.444382">
        <time>2021-08-19T11:26:48Z</time>
      </trkpt>
      <trkpt lat="42.174348" lon="-5.444382">
        <time>2021-08-19T11:26:48Z</time>
      </trkpt>
      <trkpt lat="42.174879" lon="-5.444738">
        <time>2021-08-19T11:26:51Z</time>
      </trkpt>
      <trkpt lat="42.174879" lon="-5.444738">
        <time>2021-08-19T11:26:51Z</time>
      </trkpt>
      <trkpt lat="42.174879" lon="-5.444738">
        <time>2021-08-19T11:26:51Z</time>
      </trkpt>
      <trkpt lat="42.175334" lon="-5.445181">
        <time>2021-08-19T11:26:54Z</time>
      </trkpt>
      <trkpt lat="42.178621" lon="-5.448108">
        <time>2021-08-19T11:27:21Z</time>
      </trkpt>
      <trkpt lat="42.178621" lon="-5.448108">
        <time>2021-08-19T11:27:21Z</time>
      </trkpt>
      <trkpt lat="42.18328" lon="-5.450806">
        <time>2021-08-19T11:27:42Z</time>
      </trkpt>
      <trkpt lat="42.187938" lon="-5.453553">
        <time>2021-08-19T11:28:00Z</time>
      </trkpt>
      <trkpt lat="42.192708" lon="-5.456402">
        <time>2021-08-19T11:28:18Z</time>
      </trkpt>
      <trkpt lat="42.197439" lon="-5.459227">
        <time>2021-08-19T11:28:36Z</time>
      </trkpt>
      <trkpt lat="42.201617" lon="-5.461715">
        <time>2021-08-19T11:28:51Z</time>
      </trkpt>
      <trkpt lat="42.205824" lon="-5.464201">
        <time>2021-08-19T11:29:06Z</time>
      </trkpt>
      <trkpt lat="42.20998" lon="-5.466679">
        <time>2021-08-19T11:29:21Z</time>
      </trkpt>
      <trkpt lat="42.20998" lon="-5.466679">
        <time>2021-08-19T11:29:21Z</time>
      </trkpt>
      <trkpt lat="42.214204" lon="-5.46921">
        <time>2021-08-19T11:29:36Z</time>
      </trkpt>
      <trkpt lat="42.218941" lon="-5.472044">
        <time>2021-08-19T11:29:54Z</time>
      </trkpt>
      <trkpt lat="42.223712" lon="-5.474909">
        <time>2021-08-19T11:30:12Z</time>
      </trkpt>
      <trkpt lat="42.228387" lon="-5.477697">
        <time>2021-08-19T11:30:30Z</time>
      </trkpt>
      <trkpt lat="42.232874" lon="-5.480375">
        <time>2021-08-19T11:30:45Z</time>
      </trkpt>
      <trkpt lat="42.237297" lon="-5.483038">
        <time>2021-08-19T11:31:00Z</time>
      </trkpt>
      <trkpt lat="42.239571" lon="-5.48461">
        <time>2021-08-19T11:31:09Z</time>
      </trkpt>
      <trkpt lat="42.239571" lon="-5.48461">
        <time>2021-08-19T11:31:09Z</time>
      </trkpt>
      <trkpt lat="42.239571" lon="-5.48461">
        <time>2021-08-19T11:31:09Z</time>
      </trkpt>
      <trkpt lat="42.239571" lon="-5.48461">
        <time>2021-08-19T11:31:09Z</time>
      </trkpt>
      <trkpt lat="42.239571" lon="-5.48461">
        <time>2021-08-19T11:31:09Z</time>
      </trkpt>
      <trkpt lat="42.239571" lon="-5.48461">
        <time>2021-08-19T11:31:09Z</time>
      </trkpt>
      <trkpt lat="42.239571" lon="-5.48461">
        <time>2021-08-19T11:31:09Z</time>
      </trkpt>
      <trkpt lat="42.240031" lon="-5.48533">
        <time>2021-08-19T11:31:12Z</time>
      </trkpt>
      <trkpt lat="42.240306" lon="-5.486235">
        <time>2021-08-19T11:31:15Z</time>
      </trkpt>
      <trkpt lat="42.24041" lon="-5.487247">
        <time>2021-08-19T11:31:18Z</time>
      </trkpt>
      <trkpt lat="42.240912" lon="-5.492376">
        <time>2021-08-19T11:31:33Z</time>
      </trkpt>
      <trkpt lat="42.241363" lon="-5.493205">
        <time>2021-08-19T11:31:36Z</time>
      </trkpt>
      <trkpt lat="42.241363" lon="-5.493205">
        <time>2021-08-19T11:31:36Z</time>
      </trkpt>
      <trkpt lat="42.241996" lon="-5.493824">
        <time>2021-08-19T11:31:39Z</time>
      </trkpt>
      <trkpt lat="42.245942" lon="-5.495631">
        <time>2021-08-19T11:31:54Z</time>
      </trkpt>
      <trkpt lat="42.250241" lon="-5.49757">
        <time>2021-08-19T11:32:09Z</time>
      </trkpt>
      <trkpt lat="42.254515" lon="-5.499483">
        <time>2021-08-19T11:32:24Z</time>
      </trkpt>
      <trkpt lat="42.258891" lon="-5.501451">
        <time>2021-08-19T11:32:39Z</time>
      </trkpt>
      <trkpt lat="42.263272" lon="-5.503407">
        <time>2021-08-19T11:32:54Z</time>
      </trkpt>
      <trkpt lat="42.267683" lon="-5.50539">
        <time>2021-08-19T11:33:09Z</time>
      </trkpt>
      <trkpt lat="42.272028" lon="-5.507352">
        <time>2021-08-19T11:33:24Z</time>
      </trkpt>
      <trkpt lat="42.277044" lon="-5.509613">
        <time>2021-08-19T11:33:42Z</time>
      </trkpt>
      <trkpt lat="42.281837" lon="-5.511776">
        <time>2021-08-19T11:34:03Z</time>
      </trkpt>
      <trkpt lat="42.286407" lon="-5.513856">
        <time>2021-08-19T11:34:30Z</time>
      </trkpt>
      <trkpt lat="42.287087" lon="-5.514139">
        <time>2021-08-19T11:34:36Z</time>
      </trkpt>
      <trkpt lat="42.287307" lon="-5.514152">
        <time>2021-08-19T11:34:39Z</time>
      </trkpt>
      <trkpt lat="42.290019" lon="-5.515374">
        <time>2021-08-19T11:35:15Z</time>
      </trkpt>
      <trkpt lat="42.290177" lon="-5.515338">
        <time>2021-08-19T11:35:18Z</time>
      </trkpt>
      <trkpt lat="42.290281" lon="-5.515377">
        <time>2021-08-19T11:35:21Z</time>
      </trkpt>
      <trkpt lat="42.290309" lon="-5.515647">
        <time>2021-08-19T11:35:24Z</time>
      </trkpt>
      <trkpt lat="42.290381" lon="-5.516016">
        <time>2021-08-19T11:35:27Z</time>
      </trkpt>
      <trkpt lat="42.29055" lon="-5.51762">
        <time>2021-08-19T11:35:39Z</time>
      </trkpt>
      <trkpt lat="42.290404" lon="-5.518473">
        <time>2021-08-19T11:35:45Z</time>
      </trkpt>
      <trkpt lat="42.289637" lon="-5.521432">
        <time>2021-08-19T11:36:09Z</time>
      </trkpt>
      <trkpt lat="42.289695" lon="-5.524384">
        <time>2021-08-19T11:36:29Z</time>
      </trkpt>
      <trkpt lat="42.289695" lon="-5.524384">
        <time>2021-08-19T11:36:29Z</time>
      </trkpt>
      <trkpt lat="42.28981" lon="-5.525526">
        <time>2021-08-19T11:36:35Z</time>
      </trkpt>
      <trkpt lat="42.290343" lon="-5.527521">
        <time>2021-08-19T11:36:44Z</time>
      </trkpt>
      <trkpt lat="42.290911" lon="-5.529386">
        <time>2021-08-19T11:36:53Z</time>
      </trkpt>
      <trkpt lat="42.293012" lon="-5.533229">
        <time>2021-08-19T11:37:14Z</time>
      </trkpt>
      <trkpt lat="42.294901" lon="-5.536672">
        <time>2021-08-19T11:37:30Z</time>
      </trkpt>
      <trkpt lat="42.295692" lon="-5.538122">
        <time>2021-08-19T11:37:35Z</time>
      </trkpt>
      <trkpt lat="42.2986" lon="-5.543403">
        <time>2021-08-19T11:37:56Z</time>
      </trkpt>
      <trkpt lat="42.301432" lon="-5.548603">
        <time>2021-08-19T11:38:20Z</time>
      </trkpt>
      <trkpt lat="42.304128" lon="-5.553498">
        <time>2021-08-19T11:38:44Z</time>
      </trkpt>
      <trkpt lat="42.307081" lon="-5.55892">
        <time>2021-08-19T11:39:05Z</time>
      </trkpt>
      <trkpt lat="42.309873" lon="-5.564004">
        <time>2021-08-19T11:39:23Z</time>
      </trkpt>
      <trkpt lat="42.312657" lon="-5.569093">
        <time>2021-08-19T11:39:41Z</time>
      </trkpt>
      <trkpt lat="42.31537" lon="-5.574025">
        <time>2021-08-19T11:39:59Z</time>
      </trkpt>
      <trkpt lat="42.316377" lon="-5.575306">
        <time>2021-08-19T11:40:05Z</time>
      </trkpt>
      <trkpt lat="42.31784" lon="-5.577055">
        <time>2021-08-19T11:40:17Z</time>
      </trkpt>
      <trkpt lat="42.318062" lon="-5.577384">
        <time>2021-08-19T11:40:20Z</time>
      </trkpt>
      <trkpt lat="42.318327" lon="-5.577474">
        <time>2021-08-19T11:40:23Z</time>
      </trkpt>
      <trkpt lat="42.319159" lon="-5.577487">
        <time>2021-08-19T11:40:29Z</time>
      </trkpt>
      <trkpt lat="42.323933" lon="-5.576446">
        <time>2021-08-19T11:40:53Z</time>
      </trkpt>
      <trkpt lat="42.328809" lon="-5.575191">
        <time>2021-08-19T11:41:14Z</time>
      </trkpt>
      <trkpt lat="42.333426" lon="-5.573893">
        <time>2021-08-19T11:41:32Z</time>
      </trkpt>
      <trkpt lat="42.338415" lon="-5.572504">
        <time>2021-08-19T11:41:50Z</time>
      </trkpt>
      <trkpt lat="42.339292" lon="-5.572219">
        <time>2021-08-19T11:41:53Z</time>
      </trkpt>
      <trkpt lat="42.342807" lon="-5.571188">
        <time>2021-08-19T11:42:05Z</time>
      </trkpt>
      <trkpt lat="42.347291" lon="-5.569929">
        <time>2021-08-19T11:42:23Z</time>
      </trkpt>
      <trkpt lat="42.351694" lon="-5.568606">
        <time>2021-08-19T11:42:38Z</time>
      </trkpt>
      <trkpt lat="42.356925" lon="-5.56722">
        <time>2021-08-19T11:42:56Z</time>
      </trkpt>
      <trkpt lat="42.361479" lon="-5.567112">
        <time>2021-08-19T11:43:14Z</time>
      </trkpt>
      <trkpt lat="42.366329" lon="-5.566977">
        <time>2021-08-19T11:43:35Z</time>
      </trkpt>
      <trkpt lat="42.371489" lon="-5.56634">
        <time>2021-08-19T11:43:53Z</time>
      </trkpt>
      <trkpt lat="42.376723" lon="-5.56567">
        <time>2021-08-19T11:44:11Z</time>
      </trkpt>
      <trkpt lat="42.381508" lon="-5.564982">
        <time>2021-08-19T11:44:26Z</time>
      </trkpt>
      <trkpt lat="42.386202" lon="-5.564318">
        <time>2021-08-19T11:44:41Z</time>
      </trkpt>
      <trkpt lat="42.387101" lon="-5.564307">
        <time>2021-08-19T11:44:44Z</time>
      </trkpt>
      <trkpt lat="42.389694" lon="-5.565096">
        <time>2021-08-19T11:44:53Z</time>
      </trkpt>
      <trkpt lat="42.391357" lon="-5.565981">
        <time>2021-08-19T11:44:59Z</time>
      </trkpt>
      <trkpt lat="42.39588" lon="-5.568376">
        <time>2021-08-19T11:45:20Z</time>
      </trkpt>
      <trkpt lat="42.400832" lon="-5.570753">
        <time>2021-08-19T11:45:41Z</time>
      </trkpt>
      <trkpt lat="42.404196" lon="-5.57157">
        <time>2021-08-19T11:45:53Z</time>
      </trkpt>
      <trkpt lat="42.405969" lon="-5.571825">
        <time>2021-08-19T11:45:59Z</time>
      </trkpt>
      <trkpt lat="42.410456" lon="-5.572442">
        <time>2021-08-19T11:46:14Z</time>
      </trkpt>
      <trkpt lat="42.415069" lon="-5.573086">
        <time>2021-08-19T11:46:29Z</time>
      </trkpt>
      <trkpt lat="42.419549" lon="-5.573688">
        <time>2021-08-19T11:46:44Z</time>
      </trkpt>
      <trkpt lat="42.424805" lon="-5.574366">
        <time>2021-08-19T11:47:02Z</time>
      </trkpt>
      <trkpt lat="42.429464" lon="-5.574999">
        <time>2021-08-19T11:47:17Z</time>
      </trkpt>
      <trkpt lat="42.434221" lon="-5.57566">
        <time>2021-08-19T11:47:32Z</time>
      </trkpt>
      <trkpt lat="42.438959" lon="-5.576297">
        <time>2021-08-19T11:47:50Z</time>
      </trkpt>
      <trkpt lat="42.443771" lon="-5.576931">
        <time>2021-08-19T11:48:08Z</time>
      </trkpt>
      <trkpt lat="42.44897" lon="-5.577503">
        <time>2021-08-19T11:48:26Z</time>
      </trkpt>
      <trkpt lat="42.45421" lon="-5.578459">
        <time>2021-08-19T11:48:44Z</time>
      </trkpt>
      <trkpt lat="42.458874" lon="-5.57944">
        <time>2021-08-19T11:48:59Z</time>
      </trkpt>
      <trkpt lat="42.46409" lon="-5.580522">
        <time>2021-08-19T11:49:17Z</time>
      </trkpt>
      <trkpt lat="42.468866" lon="-5.581558">
        <time>2021-08-19T11:49:35Z</time>
      </trkpt>
      <trkpt lat="42.473416" lon="-5.582484">
        <time>2021-08-19T11:49:50Z</time>
      </trkpt>
      <trkpt lat="42.478288" lon="-5.58351">
        <time>2021-08-19T11:50:08Z</time>
      </trkpt>
      <trkpt lat="42.483046" lon="-5.584616">
        <time>2021-08-19T11:50:32Z</time>
      </trkpt>
      <trkpt lat="42.484443" lon="-5.584747">
        <time>2021-08-19T11:50:41Z</time>
      </trkpt>
      <trkpt lat="42.486767" lon="-5.583658">
        <time>2021-08-19T11:50:59Z</time>
      </trkpt>
      <trkpt lat="42.487471" lon="-5.583273">
        <time>2021-08-19T11:51:05Z</time>
      </trkpt>
      <trkpt lat="42.487884" lon="-5.583232">
        <time>2021-08-19T11:51:08Z</time>
      </trkpt>
      <trkpt lat="42.49236" lon="-5.583336">
        <time>2021-08-19T11:51:29Z</time>
      </trkpt>
      <trkpt lat="42.495561" lon="-5.583372">
        <time>2021-08-19T11:51:44Z</time>
      </trkpt>
      <trkpt lat="42.496103" lon="-5.583306">
        <time>2021-08-19T11:51:50Z</time>
      </trkpt>
      <trkpt lat="42.496393" lon="-5.583432">
        <time>2021-08-19T11:51:53Z</time>
      </trkpt>
      <trkpt lat="42.496815" lon="-5.583446">
        <time>2021-08-19T11:51:56Z</time>
      </trkpt>
      <trkpt lat="42.50131" lon="-5.583588">
        <time>2021-08-19T11:52:17Z</time>
      </trkpt>
      <trkpt lat="42.506385" lon="-5.583761">
        <time>2021-08-19T11:52:41Z</time>
      </trkpt>
      <trkpt lat="42.511074" lon="-5.583902">
        <time>2021-08-19T11:52:59Z</time>
      </trkpt>
      <trkpt lat="42.515827" lon="-5.584007">
        <time>2021-08-19T11:53:17Z</time>
      </trkpt>
      <trkpt lat="42.520682" lon="-5.584137">
        <time>2021-08-19T11:53:35Z</time>
      </trkpt>
      <trkpt lat="42.525408" lon="-5.584229">
        <time>2021-08-19T11:53:56Z</time>
      </trkpt>
      <trkpt lat="42.530406" lon="-5.583991">
        <time>2021-08-19T11:54:20Z</time>
      </trkpt>
      <trkpt lat="42.535118" lon="-5.583757">
        <time>2021-08-19T11:54:41Z</time>
      </trkpt>
      <trkpt lat="42.538893" lon="-5.583373">
        <time>2021-08-19T11:54:59Z</time>
      </trkpt>
      <trkpt lat="42.539235" lon="-5.583328">
        <time>2021-08-19T11:55:02Z</time>
      </trkpt>
      <trkpt lat="42.539631" lon="-5.583492">
        <time>2021-08-19T11:55:05Z</time>
      </trkpt>
      <trkpt lat="42.540168" lon="-5.583479">
        <time>2021-08-19T11:55:08Z</time>
      </trkpt>
      <trkpt lat="42.544498" lon="-5.583271">
        <time>2021-08-19T11:55:26Z</time>
      </trkpt>
      <trkpt lat="42.547734" lon="-5.583026">
        <time>2021-08-19T11:55:41Z</time>
      </trkpt>
      <trkpt lat="42.548427" lon="-5.582957">
        <time>2021-08-19T11:55:47Z</time>
      </trkpt>
      <trkpt lat="42.548847" lon="-5.58303">
        <time>2021-08-19T11:55:50Z</time>
      </trkpt>
      <trkpt lat="42.549233" lon="-5.583018">
        <time>2021-08-19T11:55:53Z</time>
      </trkpt>
      <trkpt lat="42.554241" lon="-5.582761">
        <time>2021-08-19T11:56:23Z</time>
      </trkpt>
      <trkpt lat="42.558965" lon="-5.581679">
        <time>2021-08-19T11:56:50Z</time>
      </trkpt>
      <trkpt lat="42.563479" lon="-5.582063">
        <time>2021-08-19T11:57:41Z</time>
      </trkpt>
      <trkpt lat="42.563845" lon="-5.582133">
        <time>2021-08-19T11:57:47Z</time>
      </trkpt>
      <trkpt lat="42.56617" lon="-5.582316">
        <time>2021-08-19T11:58:11Z</time>
      </trkpt>
      <trkpt lat="42.566268" lon="-5.582057">
        <time>2021-08-19T11:58:14Z</time>
      </trkpt>
      <trkpt lat="42.566271" lon="-5.579527">
        <time>2021-08-19T11:58:29Z</time>
      </trkpt>
      <trkpt lat="42.56637" lon="-5.578235">
        <time>2021-08-19T11:58:41Z</time>
      </trkpt>
      <trkpt lat="42.56668" lon="-5.578133">
        <time>2021-08-19T11:58:44Z</time>
      </trkpt>
      <trkpt lat="42.568373" lon="-5.577646">
        <time>2021-08-19T11:58:56Z</time>
      </trkpt>
      <trkpt lat="42.569923" lon="-5.576754">
        <time>2021-08-19T11:59:08Z</time>
      </trkpt>
      <trkpt lat="42.572762" lon="-5.575391">
        <time>2021-08-19T11:59:23Z</time>
      </trkpt>
      <trkpt lat="42.574808" lon="-5.574986">
        <time>2021-08-19T11:59:32Z</time>
      </trkpt>
      <trkpt lat="42.579264" lon="-5.574076">
        <time>2021-08-19T11:59:53Z</time>
      </trkpt>
      <trkpt lat="42.579917" lon="-5.573785">
        <time>2021-08-19T11:59:59Z</time>
      </trkpt>
      <trkpt lat="42.579968" lon="-5.573437">
        <time>2021-08-19T12:00:02Z</time>
      </trkpt>
      <trkpt lat="42.579997" lon="-5.57262">
        <time>2021-08-19T12:00:08Z</time>
      </trkpt>
      <trkpt lat="42.580079" lon="-5.571891">
        <time>2021-08-19T12:00:14Z</time>
      </trkpt>
      <trkpt lat="42.580371" lon="-5.571294">
        <time>2021-08-19T12:00:20Z</time>
      </trkpt>
      <trkpt lat="42.58089" lon="-5.568939">
        <time>2021-08-19T12:00:32Z</time>
      </trkpt>
      <trkpt lat="42.581595" lon="-5.565403">
        <time>2021-08-19T12:00:56Z</time>
      </trkpt>
      <trkpt lat="42.581518" lon="-5.565093">
        <time>2021-08-19T12:00:59Z</time>
      </trkpt>
      <trkpt lat="42.581615" lon="-5.564849">
        <time>2021-08-19T12:01:02Z</time>
      </trkpt>
      <trkpt lat="42.581819" lon="-5.564809">
        <time>2021-08-19T12:01:05Z</time>
      </trkpt>
      <trkpt lat="42.582006" lon="-5.56498">
        <time>2021-08-19T12:01:08Z</time>
      </trkpt>
      <trkpt lat="42.582265" lon="-5.565062">
        <time>2021-08-19T12:01:11Z</time>
      </trkpt>
      <trkpt lat="42.583201" lon="-5.56512">
        <time>2021-08-19T12:01:20Z</time>
      </trkpt>
      <trkpt lat="42.586799" lon="-5.565307">
        <time>2021-08-19T12:02:02Z</time>
      </trkpt>
      <trkpt lat="42.58693" lon="-5.565329">
        <time>2021-08-19T12:02:05Z</time>
      </trkpt>
      <trkpt lat="42.587249" lon="-5.565368">
        <time>2021-08-19T12:02:14Z</time>
      </trkpt>
      <trkpt lat="42.587321" lon="-5.565365">
        <time>2021-08-19T12:02:17Z</time>
      </trkpt>
      <trkpt lat="42.587392" lon="-5.56533">
        <time>2021-08-19T12:02:20Z</time>
      </trkpt>
      <trkpt lat="42.58746" lon="-5.565347">
        <time>2021-08-19T12:02:23Z</time>
      </trkpt>
      <trkpt lat="42.587807" lon="-5.565365">
        <time>2021-08-19T12:02:41Z</time>
      </trkpt>
      <trkpt lat="42.590593" lon="-5.565513">
        <time>2021-08-19T12:03:38Z</time>
      </trkpt>
      <trkpt lat="42.590949" lon="-5.565429">
        <time>2021-08-19T12:03:50Z</time>
      </trkpt>
      <trkpt lat="42.591254" lon="-5.565399">
        <time>2021-08-19T12:03:56Z</time>
      </trkpt>
      <trkpt lat="42.591381" lon="-5.565396">
        <time>2021-08-19T12:03:59Z</time>
      </trkpt>
      <trkpt lat="42.591547" lon="-5.565435">
        <time>2021-08-19T12:04:02Z</time>
      </trkpt>
      <trkpt lat="42.591791" lon="-5.565562">
        <time>2021-08-19T12:04:26Z</time>
      </trkpt>
      <trkpt lat="42.592042" lon="-5.566351">
        <time>2021-08-19T12:04:35Z</time>
      </trkpt>
      <trkpt lat="42.592093" lon="-5.566624">
        <time>2021-08-19T12:04:38Z</time>
      </trkpt>
      <trkpt lat="42.592332" lon="-5.566989">
        <time>2021-08-19T12:04:44Z</time>
      </trkpt>
      <trkpt lat="42.592485" lon="-5.567279">
        <time>2021-08-19T12:04:50Z</time>
      </trkpt>
      <trkpt lat="42.592612" lon="-5.567619">
        <time>2021-08-19T12:04:56Z</time>
      </trkpt>
      <trkpt lat="42.593171" lon="-5.568695">
        <time>2021-08-19T12:05:14Z</time>
      </trkpt>
      <trkpt lat="42.593853" lon="-5.570366">
        <time>2021-08-19T12:06:38Z</time>
      </trkpt>
      <trkpt lat="42.594383" lon="-5.570526">
        <time>2021-08-19T12:06:44Z</time>
      </trkpt>
      <trkpt lat="42.594864" lon="-5.570636">
        <time>2021-08-19T12:06:50Z</time>
      </trkpt>
      <trkpt lat="42.595031" lon="-5.570705">
        <time>2021-08-19T12:06:53Z</time>
      </trkpt>
      <trkpt lat="42.596511" lon="-5.571249">
        <time>2021-08-19T12:07:53Z</time>
      </trkpt>
      <trkpt lat="42.596646" lon="-5.571314">
        <time>2021-08-19T12:07:56Z</time>
      </trkpt>
      <trkpt lat="42.596847" lon="-5.571509">
        <time>2021-08-19T12:08:02Z</time>
      </trkpt>
      <trkpt lat="42.597058" lon="-5.571643">
        <time>2021-08-19T12:08:11Z</time>
      </trkpt>
      <trkpt lat="42.59724" lon="-5.571778">
        <time>2021-08-19T12:08:17Z</time>
      </trkpt>
      <trkpt lat="42.597566" lon="-5.572039">
        <time>2021-08-19T12:08:26Z</time>
      </trkpt>
      <trkpt lat="42.597808" lon="-5.572053">
        <time>2021-08-19T12:08:41Z</time>
      </trkpt>
      <trkpt lat="42.598054" lon="-5.571257">
        <time>2021-08-19T12:09:26Z</time>
      </trkpt>
      <trkpt lat="42.598049" lon="-5.571156">
        <time>2021-08-19T12:09:35Z</time>
      </trkpt>
      <trkpt lat="42.598022" lon="-5.571411">
        <time>2021-08-19T12:09:47Z</time>
      </trkpt>
      <trkpt lat="42.598068" lon="-5.571474">
        <time>2021-08-19T12:10:02Z</time>
      </trkpt>
      <trkpt lat="42.598246" lon="-5.571759">
        <time>2021-08-19T12:10:08Z</time>
      </trkpt>
      <trkpt lat="42.598293" lon="-5.571893">
        <time>2021-08-19T12:10:11Z</time>
      </trkpt>
      <trkpt lat="42.598589" lon="-5.572273">
        <time>2021-08-19T12:10:23Z</time>
      </trkpt>
      <trkpt lat="42.598847" lon="-5.572588">
        <time>2021-08-19T12:10:38Z</time>
      </trkpt>
      <trkpt lat="42.598913" lon="-5.572653">
        <time>2021-08-19T12:10:41Z</time>
      </trkpt>
      <trkpt lat="42.599146" lon="-5.572812">
        <time>2021-08-19T12:10:47Z</time>
      </trkpt>
      <trkpt lat="42.599291" lon="-5.572632">
        <time>2021-08-19T12:10:53Z</time>
      </trkpt>
      <trkpt lat="42.599515" lon="-5.572375">
        <time>2021-08-19T12:10:59Z</time>
      </trkpt>
      <trkpt lat="42.599649" lon="-5.572163">
        <time>2021-08-19T12:11:05Z</time>
      </trkpt>
      <trkpt lat="42.599802" lon="-5.571896">
        <time>2021-08-19T12:11:08Z</time>
      </trkpt>
      <trkpt lat="42.599809" lon="-5.571752">
        <time>2021-08-19T12:11:11Z</time>
      </trkpt>
      <trkpt lat="42.599801" lon="-5.571624">
        <time>2021-08-19T12:13:11Z</time>
      </trkpt>
      <trkpt lat="42.599801" lon="-5.571624">
        <time>2021-08-19T12:13:29Z</time>
      </trkpt>
      <trkpt lat="42.599801" lon="-5.571624">
        <time>2021-08-19T12:13:29Z</time>
      </trkpt>
      <trkpt lat="42.599801" lon="-5.571624">
        <time>2021-08-19T12:13:29Z</time>
      </trkpt>
      <trkpt lat="42.599469" lon="-5.571574">
        <time>2021-08-19T14:33:57Z</time>
      </trkpt>
      <trkpt lat="42.598298" lon="-5.57174">
        <time>2021-08-19T14:34:15Z</time>
      </trkpt>
      <trkpt lat="42.598193" lon="-5.571863">
        <time>2021-08-19T14:34:18Z</time>
      </trkpt>
      <trkpt lat="42.598135" lon="-5.572065">
        <time>2021-08-19T14:34:21Z</time>
      </trkpt>
      <trkpt lat="42.598137" lon="-5.572244">
        <time>2021-08-19T14:34:24Z</time>
      </trkpt>
      <trkpt lat="42.598163" lon="-5.572344">
        <time>2021-08-19T14:34:27Z</time>
      </trkpt>
      <trkpt lat="42.598516" lon="-5.573356">
        <time>2021-08-19T14:35:06Z</time>
      </trkpt>
      <trkpt lat="42.598474" lon="-5.573558">
        <time>2021-08-19T14:35:09Z</time>
      </trkpt>
      <trkpt lat="42.598503" lon="-5.573799">
        <time>2021-08-19T14:35:12Z</time>
      </trkpt>
      <trkpt lat="42.598607" lon="-5.574394">
        <time>2021-08-19T14:35:21Z</time>
      </trkpt>
      <trkpt lat="42.599051" lon="-5.57478">
        <time>2021-08-19T14:35:33Z</time>
      </trkpt>
      <trkpt lat="42.599159" lon="-5.574902">
        <time>2021-08-19T14:35:36Z</time>
      </trkpt>
      <trkpt lat="42.599165" lon="-5.575174">
        <time>2021-08-19T14:35:39Z</time>
      </trkpt>
      <trkpt lat="42.5991" lon="-5.575391">
        <time>2021-08-19T14:35:42Z</time>
      </trkpt>
      <trkpt lat="42.599116" lon="-5.575654">
        <time>2021-08-19T14:35:45Z</time>
      </trkpt>
      <trkpt lat="42.599116" lon="-5.575654">
        <time>2021-08-19T14:35:45Z</time>
      </trkpt>
      <trkpt lat="42.599328" lon="-5.57622">
        <time>2021-08-19T14:35:54Z</time>
      </trkpt>
      <trkpt lat="42.599495" lon="-5.576602">
        <time>2021-08-19T14:36:33Z</time>
      </trkpt>
      <trkpt lat="42.599577" lon="-5.576595">
        <time>2021-08-19T14:36:36Z</time>
      </trkpt>
      <trkpt lat="42.599654" lon="-5.57664">
        <time>2021-08-19T14:36:39Z</time>
      </trkpt>
      <trkpt lat="42.599881" lon="-5.576561">
        <time>2021-08-19T14:36:43Z</time>
      </trkpt>
      <trkpt lat="42.600007" lon="-5.576777">
        <time>2021-08-19T14:36:46Z</time>
      </trkpt>
      <trkpt lat="42.600159" lon="-5.577111">
        <time>2021-08-19T14:36:52Z</time>
      </trkpt>
      <trkpt lat="42.600234" lon="-5.577445">
        <time>2021-08-19T14:36:55Z</time>
      </trkpt>
      <trkpt lat="42.601003" lon="-5.579796">
        <time>2021-08-19T14:37:04Z</time>
      </trkpt>
      <trkpt lat="42.601737" lon="-5.57966">
        <time>2021-08-19T14:37:13Z</time>
      </trkpt>
      <trkpt lat="42.601737" lon="-5.57966">
        <time>2021-08-19T14:37:13Z</time>
      </trkpt>
      <trkpt lat="42.601858" lon="-5.579705">
        <time>2021-08-19T14:37:19Z</time>
      </trkpt>
      <trkpt lat="42.602046" lon="-5.579713">
        <time>2021-08-19T14:37:22Z</time>
      </trkpt>
      <trkpt lat="42.602147" lon="-5.579797">
        <time>2021-08-19T14:37:25Z</time>
      </trkpt>
      <trkpt lat="42.602095" lon="-5.579971">
        <time>2021-08-19T14:37:28Z</time>
      </trkpt>
      <trkpt lat="42.601938" lon="-5.580081">
        <time>2021-08-19T14:37:31Z</time>
      </trkpt>
      <trkpt lat="42.601682" lon="-5.580315">
        <time>2021-08-19T14:37:37Z</time>
      </trkpt>
      <trkpt lat="42.601288" lon="-5.580992">
        <time>2021-08-19T14:38:34Z</time>
      </trkpt>
      <trkpt lat="42.601006" lon="-5.58156">
        <time>2021-08-19T14:38:43Z</time>
      </trkpt>
      <trkpt lat="42.60085" lon="-5.581625">
        <time>2021-08-19T14:38:46Z</time>
      </trkpt>
      <trkpt lat="42.600734" lon="-5.581604">
        <time>2021-08-19T14:38:49Z</time>
      </trkpt>
      <trkpt lat="42.600729" lon="-5.581576">
        <time>2021-08-19T14:39:43Z</time>
      </trkpt>
      <trkpt lat="42.599656" lon="-5.580545">
        <time>2021-08-19T14:40:04Z</time>
      </trkpt>
      <trkpt lat="42.599589" lon="-5.580395">
        <time>2021-08-19T14:40:07Z</time>
      </trkpt>
      <trkpt lat="42.599509" lon="-5.580228">
        <time>2021-08-19T14:40:13Z</time>
      </trkpt>
      <trkpt lat="42.599386" lon="-5.580052">
        <time>2021-08-19T14:40:16Z</time>
      </trkpt>
      <trkpt lat="42.598952" lon="-5.579674">
        <time>2021-08-19T14:40:22Z</time>
      </trkpt>
      <trkpt lat="42.598952" lon="-5.579674">
        <time>2021-08-19T14:40:22Z</time>
      </trkpt>
      <trkpt lat="42.596741" lon="-5.578202">
        <time>2021-08-19T14:40:46Z</time>
      </trkpt>
      <trkpt lat="42.596741" lon="-5.578202">
        <time>2021-08-19T14:40:46Z</time>
      </trkpt>
      <trkpt lat="42.596495" lon="-5.578282">
        <time>2021-08-19T14:40:49Z</time>
      </trkpt>
      <trkpt lat="42.596297" lon="-5.578166">
        <time>2021-08-19T14:40:52Z</time>
      </trkpt>
      <trkpt lat="42.596233" lon="-5.577964">
        <time>2021-08-19T14:40:55Z</time>
      </trkpt>
      <trkpt lat="42.596074" lon="-5.577827">
        <time>2021-08-19T14:40:58Z</time>
      </trkpt>
      <trkpt lat="42.595842" lon="-5.577749">
        <time>2021-08-19T14:41:01Z</time>
      </trkpt>
      <trkpt lat="42.595604" lon="-5.577609">
        <time>2021-08-19T14:41:04Z</time>
      </trkpt>
      <trkpt lat="42.594775" lon="-5.57714">
        <time>2021-08-19T14:41:13Z</time>
      </trkpt>
      <trkpt lat="42.590543" lon="-5.574586">
        <time>2021-08-19T14:41:55Z</time>
      </trkpt>
      <trkpt lat="42.587974" lon="-5.572926">
        <time>2021-08-19T14:42:22Z</time>
      </trkpt>
      <trkpt lat="42.587858" lon="-5.572742">
        <time>2021-08-19T14:42:25Z</time>
      </trkpt>
      <trkpt lat="42.587857" lon="-5.57245">
        <time>2021-08-19T14:42:28Z</time>
      </trkpt>
      <trkpt lat="42.58786" lon="-5.570614">
        <time>2021-08-19T14:42:52Z</time>
      </trkpt>
      <trkpt lat="42.58786" lon="-5.570614">
        <time>2021-08-19T14:42:52Z</time>
      </trkpt>
      <trkpt lat="42.587814" lon="-5.569921">
        <time>2021-08-19T14:43:04Z</time>
      </trkpt>
      <trkpt lat="42.587969" lon="-5.568884">
        <time>2021-08-19T14:43:19Z</time>
      </trkpt>
      <trkpt lat="42.58796" lon="-5.568736">
        <time>2021-08-19T14:43:22Z</time>
      </trkpt>
      <trkpt lat="42.588091" lon="-5.567777">
        <time>2021-08-19T14:43:37Z</time>
      </trkpt>
      <trkpt lat="42.58807" lon="-5.567627">
        <time>2021-08-19T14:43:40Z</time>
      </trkpt>
      <trkpt lat="42.588004" lon="-5.567377">
        <time>2021-08-19T14:43:46Z</time>
      </trkpt>
      <trkpt lat="42.587985" lon="-5.56668">
        <time>2021-08-19T14:43:58Z</time>
      </trkpt>
      <trkpt lat="42.587992" lon="-5.566306">
        <time>2021-08-19T14:44:04Z</time>
      </trkpt>
      <trkpt lat="42.587963" lon="-5.566048">
        <time>2021-08-19T14:44:10Z</time>
      </trkpt>
      <trkpt lat="42.587693" lon="-5.565829">
        <time>2021-08-19T14:44:13Z</time>
      </trkpt>
      <trkpt lat="42.587436" lon="-5.565693">
        <time>2021-08-19T14:44:16Z</time>
      </trkpt>
      <trkpt lat="42.587315" lon="-5.565516">
        <time>2021-08-19T14:44:19Z</time>
      </trkpt>
      <trkpt lat="42.587315" lon="-5.565339">
        <time>2021-08-19T14:44:22Z</time>
      </trkpt>
      <trkpt lat="42.587425" lon="-5.565078">
        <time>2021-08-19T14:44:25Z</time>
      </trkpt>
      <trkpt lat="42.587425" lon="-5.565078">
        <time>2021-08-19T14:44:25Z</time>
      </trkpt>
      <trkpt lat="42.587693" lon="-5.563289">
        <time>2021-08-19T14:44:40Z</time>
      </trkpt>
      <trkpt lat="42.58765" lon="-5.561083">
        <time>2021-08-19T14:44:58Z</time>
      </trkpt>
      <trkpt lat="42.587768" lon="-5.560351">
        <time>2021-08-19T14:45:04Z</time>
      </trkpt>
      <trkpt lat="42.587906" lon="-5.559869">
        <time>2021-08-19T14:45:07Z</time>
      </trkpt>
      <trkpt lat="42.587935" lon="-5.558642">
        <time>2021-08-19T14:45:13Z</time>
      </trkpt>
      <trkpt lat="42.588021" lon="-5.556961">
        <time>2021-08-19T14:45:43Z</time>
      </trkpt>
      <trkpt lat="42.58791" lon="-5.556758">
        <time>2021-08-19T14:45:46Z</time>
      </trkpt>
      <trkpt lat="42.587842" lon="-5.556415">
        <time>2021-08-19T14:45:49Z</time>
      </trkpt>
      <trkpt lat="42.587954" lon="-5.556101">
        <time>2021-08-19T14:45:52Z</time>
      </trkpt>
      <trkpt lat="42.588216" lon="-5.555929">
        <time>2021-08-19T14:45:55Z</time>
      </trkpt>
      <trkpt lat="42.588543" lon="-5.555664">
        <time>2021-08-19T14:45:58Z</time>
      </trkpt>
      <trkpt lat="42.589832" lon="-5.55434">
        <time>2021-08-19T14:46:07Z</time>
      </trkpt>
      <trkpt lat="42.590416" lon="-5.554011">
        <time>2021-08-19T14:46:10Z</time>
      </trkpt>
      <trkpt lat="42.594844" lon="-5.551929">
        <time>2021-08-19T14:46:31Z</time>
      </trkpt>
      <trkpt lat="42.596757" lon="-5.551232">
        <time>2021-08-19T14:46:40Z</time>
      </trkpt>
      <trkpt lat="42.599456" lon="-5.551108">
        <time>2021-08-19T14:46:52Z</time>
      </trkpt>
      <trkpt lat="42.601434" lon="-5.550977">
        <time>2021-08-19T14:47:07Z</time>
      </trkpt>
      <trkpt lat="42.601632" lon="-5.550775">
        <time>2021-08-19T14:47:10Z</time>
      </trkpt>
      <trkpt lat="42.601884" lon="-5.550779">
        <time>2021-08-19T14:47:13Z</time>
      </trkpt>
      <trkpt lat="42.602081" lon="-5.550991">
        <time>2021-08-19T14:47:16Z</time>
      </trkpt>
      <trkpt lat="42.602299" lon="-5.551138">
        <time>2021-08-19T14:47:19Z</time>
      </trkpt>
      <trkpt lat="42.604123" lon="-5.551172">
        <time>2021-08-19T14:47:31Z</time>
      </trkpt>
      <trkpt lat="42.609129" lon="-5.551797">
        <time>2021-08-19T14:47:52Z</time>
      </trkpt>
      <trkpt lat="42.609129" lon="-5.551797">
        <time>2021-08-19T14:47:52Z</time>
      </trkpt>
      <trkpt lat="42.61334" lon="-5.554976">
        <time>2021-08-19T14:48:13Z</time>
      </trkpt>
      <trkpt lat="42.61657" lon="-5.557603">
        <time>2021-08-19T14:48:31Z</time>
      </trkpt>
      <trkpt lat="42.617437" lon="-5.558694">
        <time>2021-08-19T14:48:37Z</time>
      </trkpt>
      <trkpt lat="42.617788" lon="-5.55931">
        <time>2021-08-19T14:48:40Z</time>
      </trkpt>
      <trkpt lat="42.619634" lon="-5.564089">
        <time>2021-08-19T14:49:04Z</time>
      </trkpt>
      <trkpt lat="42.619634" lon="-5.564089">
        <time>2021-08-19T14:49:04Z</time>
      </trkpt>
      <trkpt lat="42.619817" lon="-5.564183">
        <time>2021-08-19T14:49:07Z</time>
      </trkpt>
      <trkpt lat="42.620009" lon="-5.564235">
        <time>2021-08-19T14:49:10Z</time>
      </trkpt>
      <trkpt lat="42.620156" lon="-5.564474">
        <time>2021-08-19T14:49:13Z</time>
      </trkpt>
      <trkpt lat="42.620158" lon="-5.564884">
        <time>2021-08-19T14:50:22Z</time>
      </trkpt>
      <trkpt lat="42.619993" lon="-5.565048">
        <time>2021-08-19T14:50:25Z</time>
      </trkpt>
      <trkpt lat="42.619647" lon="-5.565172">
        <time>2021-08-19T14:50:31Z</time>
      </trkpt>
      <trkpt lat="42.61947" lon="-5.565287">
        <time>2021-08-19T14:50:34Z</time>
      </trkpt>
      <trkpt lat="42.619172" lon="-5.565356">
        <time>2021-08-19T14:51:37Z</time>
      </trkpt>
      <trkpt lat="42.619009" lon="-5.565084">
        <time>2021-08-19T14:51:40Z</time>
      </trkpt>
      <trkpt lat="42.618969" lon="-5.564697">
        <time>2021-08-19T14:51:43Z</time>
      </trkpt>
      <trkpt lat="42.619151" lon="-5.564433">
        <time>2021-08-19T14:51:46Z</time>
      </trkpt>
      <trkpt lat="42.619303" lon="-5.564225">
        <time>2021-08-19T14:51:49Z</time>
      </trkpt>
      <trkpt lat="42.619244" lon="-5.563853">
        <time>2021-08-19T14:51:52Z</time>
      </trkpt>
      <trkpt lat="42.618619" lon="-5.561867">
        <time>2021-08-19T14:52:01Z</time>
      </trkpt>
      <trkpt lat="42.617234" lon="-5.558607">
        <time>2021-08-19T14:52:13Z</time>
      </trkpt>
      <trkpt lat="42.615636" lon="-5.556935">
        <time>2021-08-19T14:52:22Z</time>
      </trkpt>
      <trkpt lat="42.615636" lon="-5.556935">
        <time>2021-08-19T14:52:22Z</time>
      </trkpt>
      <trkpt lat="42.611584" lon="-5.553936">
        <time>2021-08-19T14:52:52Z</time>
      </trkpt>
      <trkpt lat="42.611584" lon="-5.553936">
        <time>2021-08-19T14:52:52Z</time>
      </trkpt>
      <trkpt lat="42.611321" lon="-5.55389">
        <time>2021-08-19T14:52:55Z</time>
      </trkpt>
      <trkpt lat="42.61112" lon="-5.553658">
        <time>2021-08-19T14:52:58Z</time>
      </trkpt>
      <trkpt lat="42.611085" lon="-5.55335">
        <time>2021-08-19T14:53:01Z</time>
      </trkpt>
      <trkpt lat="42.611182" lon="-5.553109">
        <time>2021-08-19T14:53:04Z</time>
      </trkpt>
      <trkpt lat="42.611322" lon="-5.552979">
        <time>2021-08-19T14:53:07Z</time>
      </trkpt>
      <trkpt lat="42.611486" lon="-5.55292">
        <time>2021-08-19T14:53:10Z</time>
      </trkpt>
      <trkpt lat="42.611687" lon="-5.553042">
        <time>2021-08-19T14:53:13Z</time>
      </trkpt>
      <trkpt lat="42.612159" lon="-5.553313">
        <time>2021-08-19T14:53:19Z</time>
      </trkpt>
      <trkpt lat="42.614899" lon="-5.553009">
        <time>2021-08-19T14:53:40Z</time>
      </trkpt>
      <trkpt lat="42.615315" lon="-5.552879">
        <time>2021-08-19T14:53:43Z</time>
      </trkpt>
      <trkpt lat="42.61713" lon="-5.552277">
        <time>2021-08-19T14:53:58Z</time>
      </trkpt>
      <trkpt lat="42.618012" lon="-5.552042">
        <time>2021-08-19T14:54:07Z</time>
      </trkpt>
      <trkpt lat="42.618213" lon="-5.551931">
        <time>2021-08-19T14:54:10Z</time>
      </trkpt>
      <trkpt lat="42.618462" lon="-5.551863">
        <time>2021-08-19T14:54:13Z</time>
      </trkpt>
      <trkpt lat="42.619565" lon="-5.551206">
        <time>2021-08-19T14:54:22Z</time>
      </trkpt>
      <trkpt lat="42.621173" lon="-5.55037">
        <time>2021-08-19T14:54:37Z</time>
      </trkpt>
      <trkpt lat="42.621332" lon="-5.550139">
        <time>2021-08-19T14:54:40Z</time>
      </trkpt>
      <trkpt lat="42.622159" lon="-5.549701">
        <time>2021-08-19T14:54:49Z</time>
      </trkpt>
      <trkpt lat="42.623976" lon="-5.548954">
        <time>2021-08-19T14:55:01Z</time>
      </trkpt>
      <trkpt lat="42.628415" lon="-5.546635">
        <time>2021-08-19T14:55:37Z</time>
      </trkpt>
      <trkpt lat="42.628415" lon="-5.546635">
        <time>2021-08-19T14:55:37Z</time>
      </trkpt>
      <trkpt lat="42.631866" lon="-5.543604">
        <time>2021-08-19T14:56:04Z</time>
      </trkpt>
      <trkpt lat="42.632562" lon="-5.543231">
        <time>2021-08-19T14:56:10Z</time>
      </trkpt>
      <trkpt lat="42.63392" lon="-5.542343">
        <time>2021-08-19T14:56:19Z</time>
      </trkpt>
      <trkpt lat="42.636833" lon="-5.539842">
        <time>2021-08-19T14:56:37Z</time>
      </trkpt>
      <trkpt lat="42.639086" lon="-5.537137">
        <time>2021-08-19T14:56:55Z</time>
      </trkpt>
      <trkpt lat="42.639378" lon="-5.536802">
        <time>2021-08-19T14:56:58Z</time>
      </trkpt>
      <trkpt lat="42.640487" lon="-5.535542">
        <time>2021-08-19T14:57:07Z</time>
      </trkpt>
      <trkpt lat="42.643306" lon="-5.533239">
        <time>2021-08-19T14:57:25Z</time>
      </trkpt>
      <trkpt lat="42.644954" lon="-5.532353">
        <time>2021-08-19T14:57:34Z</time>
      </trkpt>
      <trkpt lat="42.649238" lon="-5.529884">
        <time>2021-08-19T14:58:01Z</time>
      </trkpt>
      <trkpt lat="42.649603" lon="-5.529821">
        <time>2021-08-19T14:58:04Z</time>
      </trkpt>
      <trkpt lat="42.651632" lon="-5.52956">
        <time>2021-08-19T14:58:22Z</time>
      </trkpt>
      <trkpt lat="42.653748" lon="-5.530107">
        <time>2021-08-19T14:58:37Z</time>
      </trkpt>
      <trkpt lat="42.655247" lon="-5.530174">
        <time>2021-08-19T14:58:46Z</time>
      </trkpt>
      <trkpt lat="42.655727" lon="-5.530028">
        <time>2021-08-19T14:58:49Z</time>
      </trkpt>
      <trkpt lat="42.656552" lon="-5.529274">
        <time>2021-08-19T14:58:55Z</time>
      </trkpt>
      <trkpt lat="42.657366" lon="-5.527667">
        <time>2021-08-19T14:59:04Z</time>
      </trkpt>
      <trkpt lat="42.657561" lon="-5.527044">
        <time>2021-08-19T14:59:07Z</time>
      </trkpt>
      <trkpt lat="42.658133" lon="-5.524691">
        <time>2021-08-19T14:59:19Z</time>
      </trkpt>
      <trkpt lat="42.658548" lon="-5.52077">
        <time>2021-08-19T14:59:37Z</time>
      </trkpt>
      <trkpt lat="42.658467" lon="-5.520105">
        <time>2021-08-19T14:59:40Z</time>
      </trkpt>
      <trkpt lat="42.658238" lon="-5.519502">
        <time>2021-08-19T14:59:43Z</time>
      </trkpt>
      <trkpt lat="42.657094" lon="-5.517925">
        <time>2021-08-19T14:59:52Z</time>
      </trkpt>
      <trkpt lat="42.655453" lon="-5.515801">
        <time>2021-08-19T15:00:04Z</time>
      </trkpt>
      <trkpt lat="42.654976" lon="-5.515392">
        <time>2021-08-19T15:00:07Z</time>
      </trkpt>
      <trkpt lat="42.653688" lon="-5.514137">
        <time>2021-08-19T15:00:16Z</time>
      </trkpt>
      <trkpt lat="42.653594" lon="-5.513449">
        <time>2021-08-19T15:00:19Z</time>
      </trkpt>
      <trkpt lat="42.653739" lon="-5.51275">
        <time>2021-08-19T15:00:22Z</time>
      </trkpt>
      <trkpt lat="42.654095" lon="-5.51218">
        <time>2021-08-19T15:00:25Z</time>
      </trkpt>
      <trkpt lat="42.654941" lon="-5.511178">
        <time>2021-08-19T15:00:31Z</time>
      </trkpt>
      <trkpt lat="42.655154" lon="-5.51055">
        <time>2021-08-19T15:00:34Z</time>
      </trkpt>
      <trkpt lat="42.655107" lon="-5.509856">
        <time>2021-08-19T15:00:37Z</time>
      </trkpt>
      <trkpt lat="42.654894" lon="-5.507522">
        <time>2021-08-19T15:00:46Z</time>
      </trkpt>
      <trkpt lat="42.654743" lon="-5.506799">
        <time>2021-08-19T15:00:49Z</time>
      </trkpt>
      <trkpt lat="42.653898" lon="-5.504888">
        <time>2021-08-19T15:00:58Z</time>
      </trkpt>
      <trkpt lat="42.653898" lon="-5.504888">
        <time>2021-08-19T15:00:58Z</time>
      </trkpt>
      <trkpt lat="42.653985" lon="-5.504174">
        <time>2021-08-19T15:01:01Z</time>
      </trkpt>
      <trkpt lat="42.654312" lon="-5.503586">
        <time>2021-08-19T15:01:04Z</time>
      </trkpt>
      <trkpt lat="42.655332" lon="-5.502788">
        <time>2021-08-19T15:01:10Z</time>
      </trkpt>
      <trkpt lat="42.657111" lon="-5.501488">
        <time>2021-08-19T15:01:22Z</time>
      </trkpt>
      <trkpt lat="42.657329" lon="-5.500907">
        <time>2021-08-19T15:01:25Z</time>
      </trkpt>
      <trkpt lat="42.657329" lon="-5.500907">
        <time>2021-08-19T15:01:25Z</time>
      </trkpt>
      <trkpt lat="42.657328" lon="-5.500234">
        <time>2021-08-19T15:01:28Z</time>
      </trkpt>
      <trkpt lat="42.656706" lon="-5.496735">
        <time>2021-08-19T15:01:43Z</time>
      </trkpt>
      <trkpt lat="42.655786" lon="-5.494825">
        <time>2021-08-19T15:01:52Z</time>
      </trkpt>
      <trkpt lat="42.655786" lon="-5.494825">
        <time>2021-08-19T15:01:52Z</time>
      </trkpt>
      <trkpt lat="42.655696" lon="-5.494188">
        <time>2021-08-19T15:01:55Z</time>
      </trkpt>
      <trkpt lat="42.655823" lon="-5.493505">
        <time>2021-08-19T15:01:58Z</time>
      </trkpt>
      <trkpt lat="42.656501" lon="-5.48997">
        <time>2021-08-19T15:02:13Z</time>
      </trkpt>
      <trkpt lat="42.656341" lon="-5.48927">
        <time>2021-08-19T15:02:16Z</time>
      </trkpt>
      <trkpt lat="42.656074" lon="-5.488579">
        <time>2021-08-19T15:02:19Z</time>
      </trkpt>
      <trkpt lat="42.655359" lon="-5.486301">
        <time>2021-08-19T15:02:28Z</time>
      </trkpt>
      <trkpt lat="42.654586" lon="-5.482556">
        <time>2021-08-19T15:02:40Z</time>
      </trkpt>
      <trkpt lat="42.653351" lon="-5.47637">
        <time>2021-08-19T15:03:01Z</time>
      </trkpt>
      <trkpt lat="42.65221" lon="-5.470362">
        <time>2021-08-19T15:03:22Z</time>
      </trkpt>
      <trkpt lat="42.652168" lon="-5.469451">
        <time>2021-08-19T15:03:25Z</time>
      </trkpt>
      <trkpt lat="42.652429" lon="-5.467632">
        <time>2021-08-19T15:03:31Z</time>
      </trkpt>
      <trkpt lat="42.65308" lon="-5.465953">
        <time>2021-08-19T15:03:37Z</time>
      </trkpt>
      <trkpt lat="42.654054" lon="-5.464677">
        <time>2021-08-19T15:03:43Z</time>
      </trkpt>
      <trkpt lat="42.654054" lon="-5.464677">
        <time>2021-08-19T15:03:43Z</time>
      </trkpt>
      <trkpt lat="42.658285" lon="-5.461607">
        <time>2021-08-19T15:04:04Z</time>
      </trkpt>
      <trkpt lat="42.662786" lon="-5.458416">
        <time>2021-08-19T15:04:25Z</time>
      </trkpt>
      <trkpt lat="42.66407" lon="-5.457536">
        <time>2021-08-19T15:04:31Z</time>
      </trkpt>
      <trkpt lat="42.664713" lon="-5.457383">
        <time>2021-08-19T15:04:34Z</time>
      </trkpt>
      <trkpt lat="42.665347" lon="-5.457572">
        <time>2021-08-19T15:04:37Z</time>
      </trkpt>
      <trkpt lat="42.667188" lon="-5.458412">
        <time>2021-08-19T15:04:46Z</time>
      </trkpt>
      <trkpt lat="42.667188" lon="-5.458412">
        <time>2021-08-19T15:04:46Z</time>
      </trkpt>
      <trkpt lat="42.667708" lon="-5.458044">
        <time>2021-08-19T15:04:49Z</time>
      </trkpt>
      <trkpt lat="42.668046" lon="-5.457345">
        <time>2021-08-19T15:04:52Z</time>
      </trkpt>
      <trkpt lat="42.669545" lon="-5.452581">
        <time>2021-08-19T15:05:10Z</time>
      </trkpt>
      <trkpt lat="42.669545" lon="-5.452581">
        <time>2021-08-19T15:05:10Z</time>
      </trkpt>
      <trkpt lat="42.670085" lon="-5.452347">
        <time>2021-08-19T15:05:13Z</time>
      </trkpt>
      <trkpt lat="42.670697" lon="-5.4525">
        <time>2021-08-19T15:05:16Z</time>
      </trkpt>
      <trkpt lat="42.672573" lon="-5.453068">
        <time>2021-08-19T15:05:25Z</time>
      </trkpt>
      <trkpt lat="42.673144" lon="-5.452833">
        <time>2021-08-19T15:05:28Z</time>
      </trkpt>
      <trkpt lat="42.673574" lon="-5.452213">
        <time>2021-08-19T15:05:31Z</time>
      </trkpt>
      <trkpt lat="42.673873" lon="-5.45144">
        <time>2021-08-19T15:05:34Z</time>
      </trkpt>
      <trkpt lat="42.674552" lon="-5.450033">
        <time>2021-08-19T15:05:40Z</time>
      </trkpt>
      <trkpt lat="42.677659" lon="-5.447773">
        <time>2021-08-19T15:05:55Z</time>
      </trkpt>
      <trkpt lat="42.678216" lon="-5.447474">
        <time>2021-08-19T15:05:58Z</time>
      </trkpt>
      <trkpt lat="42.678813" lon="-5.447535">
        <time>2021-08-19T15:06:01Z</time>
      </trkpt>
      <trkpt lat="42.682231" lon="-5.448807">
        <time>2021-08-19T15:06:16Z</time>
      </trkpt>
      <trkpt lat="42.682231" lon="-5.448807">
        <time>2021-08-19T15:06:16Z</time>
      </trkpt>
      <trkpt lat="42.682877" lon="-5.448655">
        <time>2021-08-19T15:06:19Z</time>
      </trkpt>
      <trkpt lat="42.684848" lon="-5.447698">
        <time>2021-08-19T15:06:28Z</time>
      </trkpt>
      <trkpt lat="42.685316" lon="-5.447049">
        <time>2021-08-19T15:06:31Z</time>
      </trkpt>
      <trkpt lat="42.686192" lon="-5.445531">
        <time>2021-08-19T15:06:37Z</time>
      </trkpt>
      <trkpt lat="42.688974" lon="-5.440648">
        <time>2021-08-19T15:06:58Z</time>
      </trkpt>
      <trkpt lat="42.689584" lon="-5.439456">
        <time>2021-08-19T15:07:04Z</time>
      </trkpt>
      <trkpt lat="42.6896" lon="-5.438746">
        <time>2021-08-19T15:07:07Z</time>
      </trkpt>
      <trkpt lat="42.68926" lon="-5.437367">
        <time>2021-08-19T15:07:13Z</time>
      </trkpt>
      <trkpt lat="42.688929" lon="-5.436755">
        <time>2021-08-19T15:07:16Z</time>
      </trkpt>
      <trkpt lat="42.687765" lon="-5.435038">
        <time>2021-08-19T15:07:25Z</time>
      </trkpt>
      <trkpt lat="42.687035" lon="-5.433861">
        <time>2021-08-19T15:07:31Z</time>
      </trkpt>
      <trkpt lat="42.686879" lon="-5.433085">
        <time>2021-08-19T15:07:34Z</time>
      </trkpt>
      <trkpt lat="42.686635" lon="-5.428824">
        <time>2021-08-19T15:07:46Z</time>
      </trkpt>
      <trkpt lat="42.686461" lon="-5.424188">
        <time>2021-08-19T15:08:01Z</time>
      </trkpt>
      <trkpt lat="42.686766" lon="-5.423543">
        <time>2021-08-19T15:08:04Z</time>
      </trkpt>
      <trkpt lat="42.687294" lon="-5.42316">
        <time>2021-08-19T15:08:07Z</time>
      </trkpt>
      <trkpt lat="42.687294" lon="-5.42316">
        <time>2021-08-19T15:08:07Z</time>
      </trkpt>
      <trkpt lat="42.689846" lon="-5.421832">
        <time>2021-08-19T15:08:19Z</time>
      </trkpt>
      <trkpt lat="42.691506" lon="-5.419983">
        <time>2021-08-19T15:08:28Z</time>
      </trkpt>
      <trkpt lat="42.695399" lon="-5.415629">
        <time>2021-08-19T15:08:49Z</time>
      </trkpt>
      <trkpt lat="42.698988" lon="-5.411603">
        <time>2021-08-19T15:09:07Z</time>
      </trkpt>
      <trkpt lat="42.700391" lon="-5.409676">
        <time>2021-08-19T15:09:16Z</time>
      </trkpt>
      <trkpt lat="42.700541" lon="-5.408797">
        <time>2021-08-19T15:09:19Z</time>
      </trkpt>
      <trkpt lat="42.700503" lon="-5.405783">
        <time>2021-08-19T15:09:28Z</time>
      </trkpt>
      <trkpt lat="42.700341" lon="-5.403644">
        <time>2021-08-19T15:09:34Z</time>
      </trkpt>
      <trkpt lat="42.699649" lon="-5.399312">
        <time>2021-08-19T15:09:46Z</time>
      </trkpt>
      <trkpt lat="42.699638" lon="-5.398306">
        <time>2021-08-19T15:09:49Z</time>
      </trkpt>
      <trkpt lat="42.699474" lon="-5.396501">
        <time>2021-08-19T15:09:55Z</time>
      </trkpt>
      <trkpt lat="42.699225" lon="-5.394938">
        <time>2021-08-19T15:10:01Z</time>
      </trkpt>
      <trkpt lat="42.699432" lon="-5.394148">
        <time>2021-08-19T15:10:04Z</time>
      </trkpt>
      <trkpt lat="42.699753" lon="-5.393298">
        <time>2021-08-19T15:10:07Z</time>
      </trkpt>
      <trkpt lat="42.701825" lon="-5.387589">
        <time>2021-08-19T15:10:25Z</time>
      </trkpt>
      <trkpt lat="42.703373" lon="-5.382435">
        <time>2021-08-19T15:10:43Z</time>
      </trkpt>
      <trkpt lat="42.703426" lon="-5.381561">
        <time>2021-08-19T15:10:46Z</time>
      </trkpt>
      <trkpt lat="42.703617" lon="-5.377932">
        <time>2021-08-19T15:11:04Z</time>
      </trkpt>
      <trkpt lat="42.703814" lon="-5.37673">
        <time>2021-08-19T15:11:10Z</time>
      </trkpt>
      <trkpt lat="42.703812" lon="-5.375717">
        <time>2021-08-19T15:11:16Z</time>
      </trkpt>
      <trkpt lat="42.703762" lon="-5.375587">
        <time>2021-08-19T15:11:19Z</time>
      </trkpt>
      <trkpt lat="42.703712" lon="-5.375431">
        <time>2021-08-19T15:11:22Z</time>
      </trkpt>
      <trkpt lat="42.703712" lon="-5.375431">
        <time>2021-08-19T15:11:22Z</time>
      </trkpt>
      <trkpt lat="42.703835" lon="-5.375226">
        <time>2021-08-19T15:11:25Z</time>
      </trkpt>
      <trkpt lat="42.707764" lon="-5.371912">
        <time>2021-08-19T15:11:52Z</time>
      </trkpt>
      <trkpt lat="42.710064" lon="-5.370566">
        <time>2021-08-19T15:12:04Z</time>
      </trkpt>
      <trkpt lat="42.712614" lon="-5.369771">
        <time>2021-08-19T15:12:16Z</time>
      </trkpt>
      <trkpt lat="42.7173" lon="-5.368751">
        <time>2021-08-19T15:12:37Z</time>
      </trkpt>
      <trkpt lat="42.722066" lon="-5.367683">
        <time>2021-08-19T15:12:58Z</time>
      </trkpt>
      <trkpt lat="42.723204" lon="-5.367056">
        <time>2021-08-19T15:13:04Z</time>
      </trkpt>
      <trkpt lat="42.725856" lon="-5.364314">
        <time>2021-08-19T15:13:19Z</time>
      </trkpt>
      <trkpt lat="42.729829" lon="-5.360167">
        <time>2021-08-19T15:13:40Z</time>
      </trkpt>
      <trkpt lat="42.733887" lon="-5.355956">
        <time>2021-08-19T15:14:01Z</time>
      </trkpt>
      <trkpt lat="42.737838" lon="-5.351844">
        <time>2021-08-19T15:14:19Z</time>
      </trkpt>
      <trkpt lat="42.742111" lon="-5.348081">
        <time>2021-08-19T15:14:40Z</time>
      </trkpt>
      <trkpt lat="42.746555" lon="-5.344894">
        <time>2021-08-19T15:15:01Z</time>
      </trkpt>
      <trkpt lat="42.750894" lon="-5.341759">
        <time>2021-08-19T15:15:22Z</time>
      </trkpt>
      <trkpt lat="42.752897" lon="-5.340469">
        <time>2021-08-19T15:15:31Z</time>
      </trkpt>
      <trkpt lat="42.755652" lon="-5.339483">
        <time>2021-08-19T15:15:43Z</time>
      </trkpt>
      <trkpt lat="42.758528" lon="-5.338885">
        <time>2021-08-19T15:15:55Z</time>
      </trkpt>
      <trkpt lat="42.760745" lon="-5.338758">
        <time>2021-08-19T15:16:04Z</time>
      </trkpt>
      <trkpt lat="42.765887" lon="-5.339148">
        <time>2021-08-19T15:16:25Z</time>
      </trkpt>
      <trkpt lat="42.766576" lon="-5.339361">
        <time>2021-08-19T15:16:28Z</time>
      </trkpt>
      <trkpt lat="42.77056" lon="-5.341234">
        <time>2021-08-19T15:16:49Z</time>
      </trkpt>
      <trkpt lat="42.771094" lon="-5.341408">
        <time>2021-08-19T15:16:52Z</time>
      </trkpt>
      <trkpt lat="42.771644" lon="-5.341253">
        <time>2021-08-19T15:16:55Z</time>
      </trkpt>
      <trkpt lat="42.774381" lon="-5.338797">
        <time>2021-08-19T15:17:10Z</time>
      </trkpt>
      <trkpt lat="42.77502" lon="-5.338569">
        <time>2021-08-19T15:17:13Z</time>
      </trkpt>
      <trkpt lat="42.775722" lon="-5.338538">
        <time>2021-08-19T15:17:16Z</time>
      </trkpt>
      <trkpt lat="42.779482" lon="-5.339545">
        <time>2021-08-19T15:17:31Z</time>
      </trkpt>
      <trkpt lat="42.781029" lon="-5.340142">
        <time>2021-08-19T15:17:37Z</time>
      </trkpt>
      <trkpt lat="42.783525" lon="-5.3421">
        <time>2021-08-19T15:17:49Z</time>
      </trkpt>
      <trkpt lat="42.783525" lon="-5.3421">
        <time>2021-08-19T15:17:49Z</time>
      </trkpt>
      <trkpt lat="42.784062" lon="-5.342626">
        <time>2021-08-19T15:17:52Z</time>
      </trkpt>
      <trkpt lat="42.785356" lon="-5.343211">
        <time>2021-08-19T15:17:58Z</time>
      </trkpt>
      <trkpt lat="42.788314" lon="-5.343296">
        <time>2021-08-19T15:18:10Z</time>
      </trkpt>
      <trkpt lat="42.793014" lon="-5.343414">
        <time>2021-08-19T15:18:28Z</time>
      </trkpt>
      <trkpt lat="42.797685" lon="-5.343679">
        <time>2021-08-19T15:18:46Z</time>
      </trkpt>
      <trkpt lat="42.797685" lon="-5.343679">
        <time>2021-08-19T15:18:46Z</time>
      </trkpt>
      <trkpt lat="42.798269" lon="-5.344126">
        <time>2021-08-19T15:18:49Z</time>
      </trkpt>
      <trkpt lat="42.798869" lon="-5.344576">
        <time>2021-08-19T15:18:52Z</time>
      </trkpt>
      <trkpt lat="42.800267" lon="-5.344795">
        <time>2021-08-19T15:18:58Z</time>
      </trkpt>
      <trkpt lat="42.802461" lon="-5.344375">
        <time>2021-08-19T15:19:07Z</time>
      </trkpt>
      <trkpt lat="42.807486" lon="-5.343009">
        <time>2021-08-19T15:19:28Z</time>
      </trkpt>
      <trkpt lat="42.808155" lon="-5.342681">
        <time>2021-08-19T15:19:31Z</time>
      </trkpt>
      <trkpt lat="42.811909" lon="-5.339735">
        <time>2021-08-19T15:19:49Z</time>
      </trkpt>
      <trkpt lat="42.812599" lon="-5.339436">
        <time>2021-08-19T15:19:52Z</time>
      </trkpt>
      <trkpt lat="42.816203" lon="-5.338551">
        <time>2021-08-19T15:20:07Z</time>
      </trkpt>
      <trkpt lat="42.81686" lon="-5.338107">
        <time>2021-08-19T15:20:10Z</time>
      </trkpt>
      <trkpt lat="42.820186" lon="-5.336397">
        <time>2021-08-19T15:20:25Z</time>
      </trkpt>
      <trkpt lat="42.821643" lon="-5.336002">
        <time>2021-08-19T15:20:31Z</time>
      </trkpt>
      <trkpt lat="42.826107" lon="-5.334799">
        <time>2021-08-19T15:20:49Z</time>
      </trkpt>
      <trkpt lat="42.828915" lon="-5.334444">
        <time>2021-08-19T15:21:01Z</time>
      </trkpt>
      <trkpt lat="42.830636" lon="-5.334271">
        <time>2021-08-19T15:21:10Z</time>
      </trkpt>
      <trkpt lat="42.830636" lon="-5.334271">
        <time>2021-08-19T15:21:10Z</time>
      </trkpt>
      <trkpt lat="42.831669" lon="-5.333722">
        <time>2021-08-19T15:21:16Z</time>
      </trkpt>
      <trkpt lat="42.832212" lon="-5.333779">
        <time>2021-08-19T15:21:19Z</time>
      </trkpt>
      <trkpt lat="42.835342" lon="-5.333978">
        <time>2021-08-19T15:21:37Z</time>
      </trkpt>
      <trkpt lat="42.835342" lon="-5.333978">
        <time>2021-08-19T15:21:37Z</time>
      </trkpt>
      <trkpt lat="42.837465" lon="-5.333368">
        <time>2021-08-19T15:21:49Z</time>
      </trkpt>
      <trkpt lat="42.83977" lon="-5.331405">
        <time>2021-08-19T15:22:01Z</time>
      </trkpt>
      <trkpt lat="42.842363" lon="-5.329653">
        <time>2021-08-19T15:22:13Z</time>
      </trkpt>
      <trkpt lat="42.844524" lon="-5.328793">
        <time>2021-08-19T15:22:22Z</time>
      </trkpt>
      <trkpt lat="42.849412" lon="-5.326874">
        <time>2021-08-19T15:22:43Z</time>
      </trkpt>
      <trkpt lat="42.853873" lon="-5.32564">
        <time>2021-08-19T15:23:10Z</time>
      </trkpt>
      <trkpt lat="42.853873" lon="-5.32564">
        <time>2021-08-19T15:23:10Z</time>
      </trkpt>
      <trkpt lat="42.85391" lon="-5.325856">
        <time>2021-08-19T15:23:13Z</time>
      </trkpt>
      <trkpt lat="42.853799" lon="-5.327331">
        <time>2021-08-19T15:23:22Z</time>
      </trkpt>
      <trkpt lat="42.853642" lon="-5.328147">
        <time>2021-08-19T15:23:28Z</time>
      </trkpt>
      <trkpt lat="42.853804" lon="-5.328241">
        <time>2021-08-19T15:23:31Z</time>
      </trkpt>
      <trkpt lat="42.853971" lon="-5.328072">
        <time>2021-08-19T15:23:34Z</time>
      </trkpt>
      <trkpt lat="42.854062" lon="-5.327687">
        <time>2021-08-19T15:23:37Z</time>
      </trkpt>
      <trkpt lat="42.854073" lon="-5.324702">
        <time>2021-08-19T15:23:52Z</time>
      </trkpt>
      <trkpt lat="42.854373" lon="-5.322465">
        <time>2021-08-19T15:24:01Z</time>
      </trkpt>
      <trkpt lat="42.85493" lon="-5.321035">
        <time>2021-08-19T15:24:07Z</time>
      </trkpt>
      <trkpt lat="42.85538" lon="-5.320043">
        <time>2021-08-19T15:24:13Z</time>
      </trkpt>
      <trkpt lat="42.855574" lon="-5.319764">
        <time>2021-08-19T15:24:16Z</time>
      </trkpt>
      <trkpt lat="42.856232" lon="-5.319295">
        <time>2021-08-19T15:24:22Z</time>
      </trkpt>
      <trkpt lat="42.859281" lon="-5.316912">
        <time>2021-08-19T15:24:43Z</time>
      </trkpt>
      <trkpt lat="42.860102" lon="-5.315763">
        <time>2021-08-19T15:24:49Z</time>
      </trkpt>
      <trkpt lat="42.862127" lon="-5.312489">
        <time>2021-08-19T15:25:04Z</time>
      </trkpt>
      <trkpt lat="42.862424" lon="-5.310798">
        <time>2021-08-19T15:25:10Z</time>
      </trkpt>
      <trkpt lat="42.862394" lon="-5.309943">
        <time>2021-08-19T15:25:13Z</time>
      </trkpt>
      <trkpt lat="42.862251" lon="-5.309117">
        <time>2021-08-19T15:25:16Z</time>
      </trkpt>
      <trkpt lat="42.861672" lon="-5.30762">
        <time>2021-08-19T15:25:22Z</time>
      </trkpt>
      <trkpt lat="42.86051" lon="-5.304514">
        <time>2021-08-19T15:25:34Z</time>
      </trkpt>
      <trkpt lat="42.860302" lon="-5.303653">
        <time>2021-08-19T15:25:37Z</time>
      </trkpt>
      <trkpt lat="42.859533" lon="-5.301317">
        <time>2021-08-19T15:25:46Z</time>
      </trkpt>
      <trkpt lat="42.857977" lon="-5.298385">
        <time>2021-08-19T15:25:58Z</time>
      </trkpt>
      <trkpt lat="42.855305" lon="-5.293129">
        <time>2021-08-19T15:26:19Z</time>
      </trkpt>
      <trkpt lat="42.852981" lon="-5.287483">
        <time>2021-08-19T15:26:40Z</time>
      </trkpt>
      <trkpt lat="42.852421" lon="-5.28574">
        <time>2021-08-19T15:26:46Z</time>
      </trkpt>
      <trkpt lat="42.851359" lon="-5.280992">
        <time>2021-08-19T15:27:01Z</time>
      </trkpt>
      <trkpt lat="42.849929" lon="-5.275911">
        <time>2021-08-19T15:27:25Z</time>
      </trkpt>
      <trkpt lat="42.849461" lon="-5.275022">
        <time>2021-08-19T15:27:31Z</time>
      </trkpt>
      <trkpt lat="42.847819" lon="-5.272591">
        <time>2021-08-19T15:27:52Z</time>
      </trkpt>
      <trkpt lat="42.847767" lon="-5.272545">
        <time>2021-08-19T15:29:19Z</time>
      </trkpt>
      <trkpt lat="42.847767" lon="-5.272545">
        <time>2021-08-19T15:29:55Z</time>
      </trkpt>
      <trkpt lat="42.847767" lon="-5.272545">
        <time>2021-08-19T15:31:14Z</time>
      </trkpt>
      <trkpt lat="42.847767" lon="-5.272545">
        <time>2021-08-19T15:31:14Z</time>
      </trkpt>
      <trkpt lat="42.847767" lon="-5.272545">
        <time>2021-08-19T15:31:14Z</time>
      </trkpt>
      <trkpt lat="42.847767" lon="-5.272545">
        <time>2021-08-19T15:31:14Z</time>
      </trkpt>
      <trkpt lat="42.847767" lon="-5.272545">
        <time>2021-08-19T15:31:14Z</time>
      </trkpt>
      <trkpt lat="42.847767" lon="-5.272545">
        <time>2021-08-19T15:31:14Z</time>
      </trkpt>
      <trkpt lat="42.847778" lon="-5.272537">
        <time>2021-08-19T15:31:34Z</time>
      </trkpt>
      <trkpt lat="42.847795" lon="-5.272452">
        <time>2021-08-19T15:32:16Z</time>
      </trkpt>
      <trkpt lat="42.846597" lon="-5.269943">
        <time>2021-08-19T15:32:34Z</time>
      </trkpt>
      <trkpt lat="42.846597" lon="-5.269943">
        <time>2021-08-19T15:32:34Z</time>
      </trkpt>
      <trkpt lat="42.845311" lon="-5.263578">
        <time>2021-08-19T15:32:58Z</time>
      </trkpt>
      <trkpt lat="42.84501" lon="-5.262787">
        <time>2021-08-19T15:33:01Z</time>
      </trkpt>
      <trkpt lat="42.843757" lon="-5.259625">
        <time>2021-08-19T15:33:16Z</time>
      </trkpt>
      <trkpt lat="42.843757" lon="-5.259625">
        <time>2021-08-19T15:33:16Z</time>
      </trkpt>
      <trkpt lat="42.843172" lon="-5.258141">
        <time>2021-08-19T15:33:19Z</time>
      </trkpt>
      <trkpt lat="42.841684" lon="-5.254921">
        <time>2021-08-19T15:33:34Z</time>
      </trkpt>
      <trkpt lat="42.840479" lon="-5.253121">
        <time>2021-08-19T15:33:46Z</time>
      </trkpt>
      <trkpt lat="42.840012" lon="-5.252112">
        <time>2021-08-19T15:33:52Z</time>
      </trkpt>
      <trkpt lat="42.839594" lon="-5.250473">
        <time>2021-08-19T15:34:01Z</time>
      </trkpt>
      <trkpt lat="42.839393" lon="-5.247284">
        <time>2021-08-19T15:34:16Z</time>
      </trkpt>
      <trkpt lat="42.839122" lon="-5.240626">
        <time>2021-08-19T15:34:40Z</time>
      </trkpt>
      <trkpt lat="42.838858" lon="-5.234293">
        <time>2021-08-19T15:35:01Z</time>
      </trkpt>
      <trkpt lat="42.838633" lon="-5.228124">
        <time>2021-08-19T15:35:22Z</time>
      </trkpt>
      <trkpt lat="42.838366" lon="-5.221257">
        <time>2021-08-19T15:35:46Z</time>
      </trkpt>
      <trkpt lat="42.837786" lon="-5.214901">
        <time>2021-08-19T15:36:07Z</time>
      </trkpt>
      <trkpt lat="42.837786" lon="-5.214901">
        <time>2021-08-19T15:36:07Z</time>
      </trkpt>
      <trkpt lat="42.837594" lon="-5.214045">
        <time>2021-08-19T15:36:10Z</time>
      </trkpt>
      <trkpt lat="42.836209" lon="-5.208478">
        <time>2021-08-19T15:36:28Z</time>
      </trkpt>
      <trkpt lat="42.835238" lon="-5.20501">
        <time>2021-08-19T15:36:40Z</time>
      </trkpt>
      <trkpt lat="42.834445" lon="-5.203904">
        <time>2021-08-19T15:36:46Z</time>
      </trkpt>
      <trkpt lat="42.833743" lon="-5.202746">
        <time>2021-08-19T15:36:52Z</time>
      </trkpt>
      <trkpt lat="42.833743" lon="-5.202746">
        <time>2021-08-19T15:36:52Z</time>
      </trkpt>
      <trkpt lat="42.833627" lon="-5.202003">
        <time>2021-08-19T15:36:55Z</time>
      </trkpt>
      <trkpt lat="42.833717" lon="-5.201245">
        <time>2021-08-19T15:36:58Z</time>
      </trkpt>
      <trkpt lat="42.834952" lon="-5.197351">
        <time>2021-08-19T15:37:13Z</time>
      </trkpt>
      <trkpt lat="42.834948" lon="-5.196461">
        <time>2021-08-19T15:37:16Z</time>
      </trkpt>
      <trkpt lat="42.834753" lon="-5.192879">
        <time>2021-08-19T15:37:28Z</time>
      </trkpt>
      <trkpt lat="42.834534" lon="-5.192087">
        <time>2021-08-19T15:37:31Z</time>
      </trkpt>
      <trkpt lat="42.833825" lon="-5.190616">
        <time>2021-08-19T15:37:37Z</time>
      </trkpt>
      <trkpt lat="42.83335" lon="-5.189926">
        <time>2021-08-19T15:37:40Z</time>
      </trkpt>
      <trkpt lat="42.831112" lon="-5.187053">
        <time>2021-08-19T15:37:55Z</time>
      </trkpt>
      <trkpt lat="42.830603" lon="-5.185762">
        <time>2021-08-19T15:38:01Z</time>
      </trkpt>
      <trkpt lat="42.830289" lon="-5.185257">
        <time>2021-08-19T15:38:04Z</time>
      </trkpt>
      <trkpt lat="42.829667" lon="-5.184248">
        <time>2021-08-19T15:38:10Z</time>
      </trkpt>
      <trkpt lat="42.828444" lon="-5.180127">
        <time>2021-08-19T15:38:28Z</time>
      </trkpt>
      <trkpt lat="42.828444" lon="-5.180127">
        <time>2021-08-19T15:38:28Z</time>
      </trkpt>
      <trkpt lat="42.828459" lon="-5.178531">
        <time>2021-08-19T15:38:34Z</time>
      </trkpt>
      <trkpt lat="42.829265" lon="-5.173809">
        <time>2021-08-19T15:38:52Z</time>
      </trkpt>
      <trkpt lat="42.829265" lon="-5.173809">
        <time>2021-08-19T15:38:52Z</time>
      </trkpt>
      <trkpt lat="42.830008" lon="-5.172576">
        <time>2021-08-19T15:38:58Z</time>
      </trkpt>
      <trkpt lat="42.832387" lon="-5.169804">
        <time>2021-08-19T15:39:13Z</time>
      </trkpt>
      <trkpt lat="42.832735" lon="-5.169045">
        <time>2021-08-19T15:39:16Z</time>
      </trkpt>
      <trkpt lat="42.832991" lon="-5.16823">
        <time>2021-08-19T15:39:19Z</time>
      </trkpt>
      <trkpt lat="42.833732" lon="-5.162874">
        <time>2021-08-19T15:39:37Z</time>
      </trkpt>
      <trkpt lat="42.833975" lon="-5.162062">
        <time>2021-08-19T15:39:40Z</time>
      </trkpt>
      <trkpt lat="42.835008" lon="-5.159977">
        <time>2021-08-19T15:39:49Z</time>
      </trkpt>
      <trkpt lat="42.836691" lon="-5.157467">
        <time>2021-08-19T15:40:01Z</time>
      </trkpt>
      <trkpt lat="42.836942" lon="-5.156812">
        <time>2021-08-19T15:40:04Z</time>
      </trkpt>
      <trkpt lat="42.837126" lon="-5.155304">
        <time>2021-08-19T15:40:10Z</time>
      </trkpt>
      <trkpt lat="42.836841" lon="-5.153741">
        <time>2021-08-19T15:40:16Z</time>
      </trkpt>
      <trkpt lat="42.835724" lon="-5.151806">
        <time>2021-08-19T15:40:25Z</time>
      </trkpt>
      <trkpt lat="42.835724" lon="-5.151806">
        <time>2021-08-19T15:40:25Z</time>
      </trkpt>
      <trkpt lat="42.833162" lon="-5.146729">
        <time>2021-08-19T15:40:46Z</time>
      </trkpt>
      <trkpt lat="42.832892" lon="-5.145988">
        <time>2021-08-19T15:40:49Z</time>
      </trkpt>
      <trkpt lat="42.832775" lon="-5.145216">
        <time>2021-08-19T15:40:52Z</time>
      </trkpt>
      <trkpt lat="42.83246" lon="-5.14019">
        <time>2021-08-19T15:41:10Z</time>
      </trkpt>
      <trkpt lat="42.832627" lon="-5.13843">
        <time>2021-08-19T15:41:16Z</time>
      </trkpt>
      <trkpt lat="42.832734" lon="-5.135037">
        <time>2021-08-19T15:41:28Z</time>
      </trkpt>
      <trkpt lat="42.832556" lon="-5.133418">
        <time>2021-08-19T15:41:34Z</time>
      </trkpt>
      <trkpt lat="42.832382" lon="-5.129608">
        <time>2021-08-19T15:41:49Z</time>
      </trkpt>
      <trkpt lat="42.83282" lon="-5.127643">
        <time>2021-08-19T15:41:58Z</time>
      </trkpt>
      <trkpt lat="42.832842" lon="-5.127306">
        <time>2021-08-19T15:42:01Z</time>
      </trkpt>
      <trkpt lat="42.832847" lon="-5.127262">
        <time>2021-08-19T15:43:06Z</time>
      </trkpt>
      <trkpt lat="42.832847" lon="-5.127262">
        <time>2021-08-19T15:44:04Z</time>
      </trkpt>
      <trkpt lat="42.832847" lon="-5.127262">
        <time>2021-08-19T15:44:35Z</time>
      </trkpt>
      <trkpt lat="42.832856" lon="-5.12725">
        <time>2021-08-19T15:44:40Z</time>
      </trkpt>
      <trkpt lat="42.832868" lon="-5.127096">
        <time>2021-08-19T15:44:43Z</time>
      </trkpt>
      <trkpt lat="42.832922" lon="-5.126894">
        <time>2021-08-19T15:44:49Z</time>
      </trkpt>
      <trkpt lat="42.837252" lon="-5.124886">
        <time>2021-08-19T15:45:16Z</time>
      </trkpt>
      <trkpt lat="42.838429" lon="-5.124166">
        <time>2021-08-19T15:45:22Z</time>
      </trkpt>
      <trkpt lat="42.840272" lon="-5.122002">
        <time>2021-08-19T15:45:34Z</time>
      </trkpt>
      <trkpt lat="42.840847" lon="-5.121944">
        <time>2021-08-19T15:45:37Z</time>
      </trkpt>
      <trkpt lat="42.840847" lon="-5.121944">
        <time>2021-08-19T15:45:40Z</time>
      </trkpt>
      <trkpt lat="42.841403" lon="-5.122181">
        <time>2021-08-19T15:45:40Z</time>
      </trkpt>
      <trkpt lat="42.841403" lon="-5.122181">
        <time>2021-08-19T15:45:40Z</time>
      </trkpt>
      <trkpt lat="42.845477" lon="-5.12538">
        <time>2021-08-19T15:46:04Z</time>
      </trkpt>
      <trkpt lat="42.849468" lon="-5.12852">
        <time>2021-08-19T15:46:28Z</time>
      </trkpt>
      <trkpt lat="42.850827" lon="-5.129931">
        <time>2021-08-19T15:46:37Z</time>
      </trkpt>
      <trkpt lat="42.852935" lon="-5.133021">
        <time>2021-08-19T15:46:52Z</time>
      </trkpt>
      <trkpt lat="42.85525" lon="-5.135991">
        <time>2021-08-19T15:47:07Z</time>
      </trkpt>
      <trkpt lat="42.855866" lon="-5.136202">
        <time>2021-08-19T15:47:10Z</time>
      </trkpt>
      <trkpt lat="42.856499" lon="-5.136137">
        <time>2021-08-19T15:47:13Z</time>
      </trkpt>
      <trkpt lat="42.857091" lon="-5.135809">
        <time>2021-08-19T15:47:16Z</time>
      </trkpt>
      <trkpt lat="42.857091" lon="-5.135809">
        <time>2021-08-19T15:47:16Z</time>
      </trkpt>
      <trkpt lat="42.860528" lon="-5.13378">
        <time>2021-08-19T15:47:34Z</time>
      </trkpt>
      <trkpt lat="42.861734" lon="-5.133992">
        <time>2021-08-19T15:47:40Z</time>
      </trkpt>
      <trkpt lat="42.861734" lon="-5.133992">
        <time>2021-08-19T15:47:40Z</time>
      </trkpt>
      <trkpt lat="42.862282" lon="-5.13437">
        <time>2021-08-19T15:47:43Z</time>
      </trkpt>
      <trkpt lat="42.862672" lon="-5.134919">
        <time>2021-08-19T15:47:46Z</time>
      </trkpt>
      <trkpt lat="42.86287" lon="-5.135524">
        <time>2021-08-19T15:47:49Z</time>
      </trkpt>
      <trkpt lat="42.86291" lon="-5.136788">
        <time>2021-08-19T15:47:55Z</time>
      </trkpt>
      <trkpt lat="42.862732" lon="-5.139808">
        <time>2021-08-19T15:48:10Z</time>
      </trkpt>
      <trkpt lat="42.86249" lon="-5.141597">
        <time>2021-08-19T15:48:19Z</time>
      </trkpt>
      <trkpt lat="42.861845" lon="-5.143479">
        <time>2021-08-19T15:48:28Z</time>
      </trkpt>
      <trkpt lat="42.861831" lon="-5.144215">
        <time>2021-08-19T15:48:31Z</time>
      </trkpt>
      <trkpt lat="42.862007" lon="-5.144951">
        <time>2021-08-19T15:48:34Z</time>
      </trkpt>
      <trkpt lat="42.862309" lon="-5.145621">
        <time>2021-08-19T15:48:37Z</time>
      </trkpt>
      <trkpt lat="42.864955" lon="-5.151052">
        <time>2021-08-19T15:49:01Z</time>
      </trkpt>
      <trkpt lat="42.866506" lon="-5.154926">
        <time>2021-08-19T15:49:16Z</time>
      </trkpt>
      <trkpt lat="42.867015" lon="-5.156458">
        <time>2021-08-19T15:49:22Z</time>
      </trkpt>
      <trkpt lat="42.867015" lon="-5.156458">
        <time>2021-08-19T15:49:22Z</time>
      </trkpt>
      <trkpt lat="42.869929" lon="-5.160405">
        <time>2021-08-19T15:49:43Z</time>
      </trkpt>
      <trkpt lat="42.870349" lon="-5.160749">
        <time>2021-08-19T15:49:46Z</time>
      </trkpt>
      <trkpt lat="42.871203" lon="-5.161195">
        <time>2021-08-19T15:49:52Z</time>
      </trkpt>
      <trkpt lat="42.871679" lon="-5.161152">
        <time>2021-08-19T15:49:55Z</time>
      </trkpt>
      <trkpt lat="42.872135" lon="-5.16089">
        <time>2021-08-19T15:49:58Z</time>
      </trkpt>
      <trkpt lat="42.873519" lon="-5.159922">
        <time>2021-08-19T15:50:07Z</time>
      </trkpt>
      <trkpt lat="42.874618" lon="-5.159753">
        <time>2021-08-19T15:50:13Z</time>
      </trkpt>
      <trkpt lat="42.879221" lon="-5.159064">
        <time>2021-08-19T15:50:37Z</time>
      </trkpt>
      <trkpt lat="42.879801" lon="-5.158881">
        <time>2021-08-19T15:50:40Z</time>
      </trkpt>
      <trkpt lat="42.880331" lon="-5.158456">
        <time>2021-08-19T15:50:43Z</time>
      </trkpt>
      <trkpt lat="42.882319" lon="-5.15649">
        <time>2021-08-19T15:50:55Z</time>
      </trkpt>
      <trkpt lat="42.882783" lon="-5.156104">
        <time>2021-08-19T15:50:58Z</time>
      </trkpt>
      <trkpt lat="42.883066" lon="-5.155517">
        <time>2021-08-19T15:51:01Z</time>
      </trkpt>
      <trkpt lat="42.883066" lon="-5.155517">
        <time>2021-08-19T15:51:01Z</time>
      </trkpt>
      <trkpt lat="42.883533" lon="-5.154152">
        <time>2021-08-19T15:51:07Z</time>
      </trkpt>
      <trkpt lat="42.884005" lon="-5.153748">
        <time>2021-08-19T15:51:10Z</time>
      </trkpt>
      <trkpt lat="42.884562" lon="-5.153679">
        <time>2021-08-19T15:51:13Z</time>
      </trkpt>
      <trkpt lat="42.885586" lon="-5.154163">
        <time>2021-08-19T15:51:19Z</time>
      </trkpt>
      <trkpt lat="42.885875" lon="-5.154823">
        <time>2021-08-19T15:51:22Z</time>
      </trkpt>
      <trkpt lat="42.885908" lon="-5.155633">
        <time>2021-08-19T15:51:25Z</time>
      </trkpt>
      <trkpt lat="42.885747" lon="-5.156468">
        <time>2021-08-19T15:51:28Z</time>
      </trkpt>
      <trkpt lat="42.88549" lon="-5.157318">
        <time>2021-08-19T15:51:31Z</time>
      </trkpt>
      <trkpt lat="42.884979" lon="-5.160029">
        <time>2021-08-19T15:51:40Z</time>
      </trkpt>
      <trkpt lat="42.885283" lon="-5.161865">
        <time>2021-08-19T15:51:46Z</time>
      </trkpt>
      <trkpt lat="42.885684" lon="-5.162564">
        <time>2021-08-19T15:51:49Z</time>
      </trkpt>
      <trkpt lat="42.885684" lon="-5.162564">
        <time>2021-08-19T15:51:49Z</time>
      </trkpt>
      <trkpt lat="42.887358" lon="-5.163871">
        <time>2021-08-19T15:51:58Z</time>
      </trkpt>
      <trkpt lat="42.888609" lon="-5.163949">
        <time>2021-08-19T15:52:04Z</time>
      </trkpt>
      <trkpt lat="42.889812" lon="-5.16329">
        <time>2021-08-19T15:52:10Z</time>
      </trkpt>
      <trkpt lat="42.889812" lon="-5.16329">
        <time>2021-08-19T15:52:10Z</time>
      </trkpt>
      <trkpt lat="42.890819" lon="-5.162387">
        <time>2021-08-19T15:52:16Z</time>
      </trkpt>
      <trkpt lat="42.890992" lon="-5.161637">
        <time>2021-08-19T15:52:19Z</time>
      </trkpt>
      <trkpt lat="42.890689" lon="-5.157325">
        <time>2021-08-19T15:52:34Z</time>
      </trkpt>
      <trkpt lat="42.890708" lon="-5.156564">
        <time>2021-08-19T15:52:37Z</time>
      </trkpt>
      <trkpt lat="42.890969" lon="-5.155915">
        <time>2021-08-19T15:52:40Z</time>
      </trkpt>
      <trkpt lat="42.891442" lon="-5.155478">
        <time>2021-08-19T15:52:43Z</time>
      </trkpt>
      <trkpt lat="42.892048" lon="-5.155306">
        <time>2021-08-19T15:52:46Z</time>
      </trkpt>
      <trkpt lat="42.893285" lon="-5.154878">
        <time>2021-08-19T15:52:52Z</time>
      </trkpt>
      <trkpt lat="42.893783" lon="-5.154372">
        <time>2021-08-19T15:52:55Z</time>
      </trkpt>
      <trkpt lat="42.894258" lon="-5.153783">
        <time>2021-08-19T15:52:58Z</time>
      </trkpt>
      <trkpt lat="42.897833" lon="-5.149543">
        <time>2021-08-19T15:53:19Z</time>
      </trkpt>
      <trkpt lat="42.901477" lon="-5.145289">
        <time>2021-08-19T15:53:43Z</time>
      </trkpt>
      <trkpt lat="42.905258" lon="-5.141764">
        <time>2021-08-19T15:54:13Z</time>
      </trkpt>
      <trkpt lat="42.908885" lon="-5.1377">
        <time>2021-08-19T15:54:40Z</time>
      </trkpt>
      <trkpt lat="42.912363" lon="-5.133807">
        <time>2021-08-19T15:55:01Z</time>
      </trkpt>
      <trkpt lat="42.912856" lon="-5.13341">
        <time>2021-08-19T15:55:04Z</time>
      </trkpt>
      <trkpt lat="42.914452" lon="-5.132402">
        <time>2021-08-19T15:55:13Z</time>
      </trkpt>
      <trkpt lat="42.91487" lon="-5.131741">
        <time>2021-08-19T15:55:16Z</time>
      </trkpt>
      <trkpt lat="42.915772" lon="-5.129278">
        <time>2021-08-19T15:55:25Z</time>
      </trkpt>
      <trkpt lat="42.917807" lon="-5.123511">
        <time>2021-08-19T15:55:46Z</time>
      </trkpt>
      <trkpt lat="42.918547" lon="-5.121948">
        <time>2021-08-19T15:55:52Z</time>
      </trkpt>
      <trkpt lat="42.919606" lon="-5.120665">
        <time>2021-08-19T15:55:58Z</time>
      </trkpt>
      <trkpt lat="42.920827" lon="-5.119833">
        <time>2021-08-19T15:56:04Z</time>
      </trkpt>
      <trkpt lat="42.921469" lon="-5.119515">
        <time>2021-08-19T15:56:07Z</time>
      </trkpt>
      <trkpt lat="42.923892" lon="-5.117938">
        <time>2021-08-19T15:56:19Z</time>
      </trkpt>
      <trkpt lat="42.925191" lon="-5.115862">
        <time>2021-08-19T15:56:28Z</time>
      </trkpt>
      <trkpt lat="42.926377" lon="-5.114028">
        <time>2021-08-19T15:56:37Z</time>
      </trkpt>
      <trkpt lat="42.926895" lon="-5.113877">
        <time>2021-08-19T15:56:40Z</time>
      </trkpt>
      <trkpt lat="42.927384" lon="-5.113994">
        <time>2021-08-19T15:56:43Z</time>
      </trkpt>
      <trkpt lat="42.929052" lon="-5.114902">
        <time>2021-08-19T15:56:52Z</time>
      </trkpt>
      <trkpt lat="42.92961" lon="-5.114854">
        <time>2021-08-19T15:56:55Z</time>
      </trkpt>
      <trkpt lat="42.930076" lon="-5.114443">
        <time>2021-08-19T15:56:58Z</time>
      </trkpt>
      <trkpt lat="42.931431" lon="-5.111958">
        <time>2021-08-19T15:57:10Z</time>
      </trkpt>
      <trkpt lat="42.931762" lon="-5.110456">
        <time>2021-08-19T15:57:16Z</time>
      </trkpt>
      <trkpt lat="42.932182" lon="-5.108902">
        <time>2021-08-19T15:57:22Z</time>
      </trkpt>
      <trkpt lat="42.932588" lon="-5.108327">
        <time>2021-08-19T15:57:25Z</time>
      </trkpt>
      <trkpt lat="42.93444" lon="-5.106634">
        <time>2021-08-19T15:57:37Z</time>
      </trkpt>
      <trkpt lat="42.934628" lon="-5.106053">
        <time>2021-08-19T15:57:40Z</time>
      </trkpt>
      <trkpt lat="42.934865" lon="-5.105708">
        <time>2021-08-19T15:57:43Z</time>
      </trkpt>
      <trkpt lat="42.935404" lon="-5.105031">
        <time>2021-08-19T15:57:52Z</time>
      </trkpt>
      <trkpt lat="42.935504" lon="-5.104722">
        <time>2021-08-19T15:57:55Z</time>
      </trkpt>
      <trkpt lat="42.935618" lon="-5.104105">
        <time>2021-08-19T15:58:01Z</time>
      </trkpt>
      <trkpt lat="42.93535" lon="-5.10316">
        <time>2021-08-19T15:58:10Z</time>
      </trkpt>
      <trkpt lat="42.934459" lon="-5.100706">
        <time>2021-08-19T15:58:25Z</time>
      </trkpt>
      <trkpt lat="42.932319" lon="-5.095045">
        <time>2021-08-19T15:58:52Z</time>
      </trkpt>
      <trkpt lat="42.932" lon="-5.09449">
        <time>2021-08-19T15:58:55Z</time>
      </trkpt>
      <trkpt lat="42.930789" lon="-5.092052">
        <time>2021-08-19T15:59:10Z</time>
      </trkpt>
      <trkpt lat="42.930249" lon="-5.089405">
        <time>2021-08-19T15:59:22Z</time>
      </trkpt>
      <trkpt lat="42.930249" lon="-5.089405">
        <time>2021-08-19T15:59:22Z</time>
      </trkpt>
      <trkpt lat="42.930377" lon="-5.088777">
        <time>2021-08-19T15:59:25Z</time>
      </trkpt>
      <trkpt lat="42.930698" lon="-5.088317">
        <time>2021-08-19T15:59:28Z</time>
      </trkpt>
      <trkpt lat="42.931104" lon="-5.088113">
        <time>2021-08-19T15:59:31Z</time>
      </trkpt>
      <trkpt lat="42.931521" lon="-5.088176">
        <time>2021-08-19T15:59:34Z</time>
      </trkpt>
      <trkpt lat="42.931897" lon="-5.088501">
        <time>2021-08-19T15:59:37Z</time>
      </trkpt>
      <trkpt lat="42.932127" lon="-5.089029">
        <time>2021-08-19T15:59:40Z</time>
      </trkpt>
      <trkpt lat="42.932167" lon="-5.089668">
        <time>2021-08-19T15:59:43Z</time>
      </trkpt>
      <trkpt lat="42.931968" lon="-5.090264">
        <time>2021-08-19T15:59:46Z</time>
      </trkpt>
      <trkpt lat="42.931476" lon="-5.091325">
        <time>2021-08-19T15:59:52Z</time>
      </trkpt>
      <trkpt lat="42.931476" lon="-5.091325">
        <time>2021-08-19T15:59:52Z</time>
      </trkpt>
      <trkpt lat="42.931584" lon="-5.091904">
        <time>2021-08-19T15:59:55Z</time>
      </trkpt>
      <trkpt lat="42.931913" lon="-5.092316">
        <time>2021-08-19T15:59:58Z</time>
      </trkpt>
      <trkpt lat="42.932336" lon="-5.092426">
        <time>2021-08-19T16:00:01Z</time>
      </trkpt>
      <trkpt lat="42.932746" lon="-5.092221">
        <time>2021-08-19T16:00:04Z</time>
      </trkpt>
      <trkpt lat="42.933078" lon="-5.091765">
        <time>2021-08-19T16:00:07Z</time>
      </trkpt>
      <trkpt lat="42.933334" lon="-5.090458">
        <time>2021-08-19T16:00:13Z</time>
      </trkpt>
      <trkpt lat="42.933318" lon="-5.08839">
        <time>2021-08-19T16:00:22Z</time>
      </trkpt>
      <trkpt lat="42.933318" lon="-5.08839">
        <time>2021-08-19T16:00:22Z</time>
      </trkpt>
      <trkpt lat="42.933365" lon="-5.08773">
        <time>2021-08-19T16:00:25Z</time>
      </trkpt>
      <trkpt lat="42.933354" lon="-5.0872">
        <time>2021-08-19T16:00:28Z</time>
      </trkpt>
      <trkpt lat="42.933786" lon="-5.085261">
        <time>2021-08-19T16:00:40Z</time>
      </trkpt>
      <trkpt lat="42.933727" lon="-5.084759">
        <time>2021-08-19T16:00:43Z</time>
      </trkpt>
      <trkpt lat="42.933563" lon="-5.0843">
        <time>2021-08-19T16:00:46Z</time>
      </trkpt>
      <trkpt lat="42.933314" lon="-5.083908">
        <time>2021-08-19T16:00:49Z</time>
      </trkpt>
      <trkpt lat="42.934375" lon="-5.079032">
        <time>2021-08-19T16:01:21Z</time>
      </trkpt>
      <trkpt lat="42.934375" lon="-5.079032">
        <time>2021-08-19T16:01:21Z</time>
      </trkpt>
      <trkpt lat="42.935115" lon="-5.077227">
        <time>2021-08-19T16:01:30Z</time>
      </trkpt>
      <trkpt lat="42.93588" lon="-5.076397">
        <time>2021-08-19T16:01:36Z</time>
      </trkpt>
      <trkpt lat="42.936461" lon="-5.074311">
        <time>2021-08-19T16:01:45Z</time>
      </trkpt>
      <trkpt lat="42.936465" lon="-5.073596">
        <time>2021-08-19T16:01:48Z</time>
      </trkpt>
      <trkpt lat="42.936723" lon="-5.072959">
        <time>2021-08-19T16:01:51Z</time>
      </trkpt>
      <trkpt lat="42.93726" lon="-5.071572">
        <time>2021-08-19T16:01:57Z</time>
      </trkpt>
      <trkpt lat="42.937147" lon="-5.070782">
        <time>2021-08-19T16:02:00Z</time>
      </trkpt>
      <trkpt lat="42.93656" lon="-5.068511">
        <time>2021-08-19T16:02:09Z</time>
      </trkpt>
      <trkpt lat="42.936533" lon="-5.067831">
        <time>2021-08-19T16:02:12Z</time>
      </trkpt>
      <trkpt lat="42.936365" lon="-5.067179">
        <time>2021-08-19T16:02:15Z</time>
      </trkpt>
      <trkpt lat="42.936305" lon="-5.066536">
        <time>2021-08-19T16:02:18Z</time>
      </trkpt>
      <trkpt lat="42.936534" lon="-5.065998">
        <time>2021-08-19T16:02:21Z</time>
      </trkpt>
      <trkpt lat="42.937206" lon="-5.065055">
        <time>2021-08-19T16:02:27Z</time>
      </trkpt>
      <trkpt lat="42.937192" lon="-5.064339">
        <time>2021-08-19T16:02:30Z</time>
      </trkpt>
      <trkpt lat="42.937298" lon="-5.06232">
        <time>2021-08-19T16:02:39Z</time>
      </trkpt>
      <trkpt lat="42.937738" lon="-5.062031">
        <time>2021-08-19T16:02:42Z</time>
      </trkpt>
      <trkpt lat="42.937738" lon="-5.062031">
        <time>2021-08-19T16:02:42Z</time>
      </trkpt>
      <trkpt lat="42.938221" lon="-5.061828">
        <time>2021-08-19T16:02:45Z</time>
      </trkpt>
      <trkpt lat="42.938494" lon="-5.061336">
        <time>2021-08-19T16:02:48Z</time>
      </trkpt>
      <trkpt lat="42.938536" lon="-5.060631">
        <time>2021-08-19T16:02:51Z</time>
      </trkpt>
      <trkpt lat="42.938592" lon="-5.059179">
        <time>2021-08-19T16:02:57Z</time>
      </trkpt>
      <trkpt lat="42.938592" lon="-5.059179">
        <time>2021-08-19T16:02:57Z</time>
      </trkpt>
      <trkpt lat="42.938914" lon="-5.058733">
        <time>2021-08-19T16:03:00Z</time>
      </trkpt>
      <trkpt lat="42.939847" lon="-5.057969">
        <time>2021-08-19T16:03:06Z</time>
      </trkpt>
      <trkpt lat="42.940201" lon="-5.057304">
        <time>2021-08-19T16:03:09Z</time>
      </trkpt>
      <trkpt lat="42.940201" lon="-5.057304">
        <time>2021-08-19T16:03:09Z</time>
      </trkpt>
      <trkpt lat="42.94038" lon="-5.05649">
        <time>2021-08-19T16:03:12Z</time>
      </trkpt>
      <trkpt lat="42.940849" lon="-5.055075">
        <time>2021-08-19T16:03:18Z</time>
      </trkpt>
      <trkpt lat="42.941433" lon="-5.053647">
        <time>2021-08-19T16:03:24Z</time>
      </trkpt>
      <trkpt lat="42.941436" lon="-5.05278">
        <time>2021-08-19T16:03:27Z</time>
      </trkpt>
      <trkpt lat="42.941165" lon="-5.051034">
        <time>2021-08-19T16:03:33Z</time>
      </trkpt>
      <trkpt lat="42.940887" lon="-5.050278">
        <time>2021-08-19T16:03:36Z</time>
      </trkpt>
      <trkpt lat="42.94047" lon="-5.049705">
        <time>2021-08-19T16:03:39Z</time>
      </trkpt>
      <trkpt lat="42.939835" lon="-5.048631">
        <time>2021-08-19T16:03:45Z</time>
      </trkpt>
      <trkpt lat="42.938994" lon="-5.04563">
        <time>2021-08-19T16:03:57Z</time>
      </trkpt>
      <trkpt lat="42.938994" lon="-5.04563">
        <time>2021-08-19T16:03:57Z</time>
      </trkpt>
      <trkpt lat="42.938589" lon="-5.045165">
        <time>2021-08-19T16:04:00Z</time>
      </trkpt>
      <trkpt lat="42.937763" lon="-5.044595">
        <time>2021-08-19T16:04:06Z</time>
      </trkpt>
      <trkpt lat="42.937652" lon="-5.043975">
        <time>2021-08-19T16:04:09Z</time>
      </trkpt>
      <trkpt lat="42.937847" lon="-5.043403">
        <time>2021-08-19T16:04:12Z</time>
      </trkpt>
      <trkpt lat="42.938267" lon="-5.043118">
        <time>2021-08-19T16:04:15Z</time>
      </trkpt>
      <trkpt lat="42.93927" lon="-5.042692">
        <time>2021-08-19T16:04:21Z</time>
      </trkpt>
      <trkpt lat="42.939604" lon="-5.04209">
        <time>2021-08-19T16:04:24Z</time>
      </trkpt>
      <trkpt lat="42.939714" lon="-5.041285">
        <time>2021-08-19T16:04:27Z</time>
      </trkpt>
      <trkpt lat="42.939714" lon="-5.041285">
        <time>2021-08-19T16:04:27Z</time>
      </trkpt>
      <trkpt lat="42.939627" lon="-5.039624">
        <time>2021-08-19T16:04:33Z</time>
      </trkpt>
      <trkpt lat="42.939642" lon="-5.038911">
        <time>2021-08-19T16:04:36Z</time>
      </trkpt>
      <trkpt lat="42.939936" lon="-5.038375">
        <time>2021-08-19T16:04:39Z</time>
      </trkpt>
      <trkpt lat="42.940298" lon="-5.037828">
        <time>2021-08-19T16:04:42Z</time>
      </trkpt>
      <trkpt lat="42.941008" lon="-5.036678">
        <time>2021-08-19T16:04:48Z</time>
      </trkpt>
      <trkpt lat="42.941486" lon="-5.036086">
        <time>2021-08-19T16:04:51Z</time>
      </trkpt>
      <trkpt lat="42.941832" lon="-5.035281">
        <time>2021-08-19T16:04:54Z</time>
      </trkpt>
      <trkpt lat="42.942786" lon="-5.032822">
        <time>2021-08-19T16:05:03Z</time>
      </trkpt>
      <trkpt lat="42.943913" lon="-5.031767">
        <time>2021-08-19T16:05:09Z</time>
      </trkpt>
      <trkpt lat="42.94453" lon="-5.031513">
        <time>2021-08-19T16:05:12Z</time>
      </trkpt>
      <trkpt lat="42.94453" lon="-5.031513">
        <time>2021-08-19T16:05:12Z</time>
      </trkpt>
      <trkpt lat="42.946301" lon="-5.031397">
        <time>2021-08-19T16:05:21Z</time>
      </trkpt>
      <trkpt lat="42.946685" lon="-5.030895">
        <time>2021-08-19T16:05:24Z</time>
      </trkpt>
      <trkpt lat="42.946784" lon="-5.030124">
        <time>2021-08-19T16:05:27Z</time>
      </trkpt>
      <trkpt lat="42.946845" lon="-5.029358">
        <time>2021-08-19T16:05:30Z</time>
      </trkpt>
      <trkpt lat="42.947353" lon="-5.027745">
        <time>2021-08-19T16:05:36Z</time>
      </trkpt>
      <trkpt lat="42.948913" lon="-5.022381">
        <time>2021-08-19T16:05:54Z</time>
      </trkpt>
      <trkpt lat="42.948965" lon="-5.02158">
        <time>2021-08-19T16:05:57Z</time>
      </trkpt>
      <trkpt lat="42.948965" lon="-5.02158">
        <time>2021-08-19T16:05:57Z</time>
      </trkpt>
      <trkpt lat="42.949266" lon="-5.020951">
        <time>2021-08-19T16:06:00Z</time>
      </trkpt>
      <trkpt lat="42.950676" lon="-5.019386">
        <time>2021-08-19T16:06:09Z</time>
      </trkpt>
      <trkpt lat="42.951197" lon="-5.019363">
        <time>2021-08-19T16:06:12Z</time>
      </trkpt>
      <trkpt lat="42.952175" lon="-5.01956">
        <time>2021-08-19T16:06:18Z</time>
      </trkpt>
      <trkpt lat="42.952518" lon="-5.019006">
        <time>2021-08-19T16:06:21Z</time>
      </trkpt>
      <trkpt lat="42.952665" lon="-5.01826">
        <time>2021-08-19T16:06:24Z</time>
      </trkpt>
      <trkpt lat="42.952928" lon="-5.017667">
        <time>2021-08-19T16:06:27Z</time>
      </trkpt>
      <trkpt lat="42.953679" lon="-5.0167">
        <time>2021-08-19T16:06:33Z</time>
      </trkpt>
      <trkpt lat="42.953943" lon="-5.016089">
        <time>2021-08-19T16:06:36Z</time>
      </trkpt>
      <trkpt lat="42.954744" lon="-5.015098">
        <time>2021-08-19T16:06:42Z</time>
      </trkpt>
      <trkpt lat="42.955417" lon="-5.012613">
        <time>2021-08-19T16:06:51Z</time>
      </trkpt>
      <trkpt lat="42.955697" lon="-5.011926">
        <time>2021-08-19T16:06:54Z</time>
      </trkpt>
      <trkpt lat="42.956164" lon="-5.011533">
        <time>2021-08-19T16:06:57Z</time>
      </trkpt>
      <trkpt lat="42.957813" lon="-5.010906">
        <time>2021-08-19T16:07:06Z</time>
      </trkpt>
      <trkpt lat="42.9583" lon="-5.011276">
        <time>2021-08-19T16:07:09Z</time>
      </trkpt>
      <trkpt lat="42.959393" lon="-5.01191">
        <time>2021-08-19T16:07:15Z</time>
      </trkpt>
      <trkpt lat="42.959393" lon="-5.01191">
        <time>2021-08-19T16:07:15Z</time>
      </trkpt>
      <trkpt lat="42.959933" lon="-5.012171">
        <time>2021-08-19T16:07:18Z</time>
      </trkpt>
      <trkpt lat="42.960349" lon="-5.012717">
        <time>2021-08-19T16:07:21Z</time>
      </trkpt>
      <trkpt lat="42.960555" lon="-5.013477">
        <time>2021-08-19T16:07:24Z</time>
      </trkpt>
      <trkpt lat="42.960815" lon="-5.017849">
        <time>2021-08-19T16:07:39Z</time>
      </trkpt>
      <trkpt lat="42.961" lon="-5.018596">
        <time>2021-08-19T16:07:42Z</time>
      </trkpt>
      <trkpt lat="42.961394" lon="-5.019148">
        <time>2021-08-19T16:07:45Z</time>
      </trkpt>
      <trkpt lat="42.961883" lon="-5.019427">
        <time>2021-08-19T16:07:48Z</time>
      </trkpt>
      <trkpt lat="42.964831" lon="-5.019785">
        <time>2021-08-19T16:08:04Z</time>
      </trkpt>
      <trkpt lat="42.965384" lon="-5.019558">
        <time>2021-08-19T16:08:07Z</time>
      </trkpt>
      <trkpt lat="42.966142" lon="-5.018614">
        <time>2021-08-19T16:08:13Z</time>
      </trkpt>
      <trkpt lat="42.966578" lon="-5.018492">
        <time>2021-08-19T16:08:16Z</time>
      </trkpt>
      <trkpt lat="42.967004" lon="-5.018706">
        <time>2021-08-19T16:08:19Z</time>
      </trkpt>
      <trkpt lat="42.967472" lon="-5.018944">
        <time>2021-08-19T16:08:22Z</time>
      </trkpt>
      <trkpt lat="42.967978" lon="-5.018937">
        <time>2021-08-19T16:08:25Z</time>
      </trkpt>
      <trkpt lat="42.96893" lon="-5.01841">
        <time>2021-08-19T16:08:31Z</time>
      </trkpt>
      <trkpt lat="42.96893" lon="-5.01841">
        <time>2021-08-19T16:08:31Z</time>
      </trkpt>
      <trkpt lat="42.973074" lon="-5.01466">
        <time>2021-08-19T16:08:58Z</time>
      </trkpt>
      <trkpt lat="42.975569" lon="-5.012098">
        <time>2021-08-19T16:09:16Z</time>
      </trkpt>
      <trkpt lat="42.975676" lon="-5.011518">
        <time>2021-08-19T16:09:19Z</time>
      </trkpt>
      <trkpt lat="42.975688" lon="-5.009657">
        <time>2021-08-19T16:09:28Z</time>
      </trkpt>
      <trkpt lat="42.975758" lon="-5.009109">
        <time>2021-08-19T16:09:31Z</time>
      </trkpt>
      <trkpt lat="42.976204" lon="-5.007726">
        <time>2021-08-19T16:09:40Z</time>
      </trkpt>
      <trkpt lat="42.976432" lon="-5.007175">
        <time>2021-08-19T16:09:46Z</time>
      </trkpt>
      <trkpt lat="42.976452" lon="-5.006992">
        <time>2021-08-19T16:10:31Z</time>
      </trkpt>
      <trkpt lat="42.976493" lon="-5.006964">
        <time>2021-08-19T16:10:37Z</time>
      </trkpt>
      <trkpt lat="42.976493" lon="-5.006964">
        <time>2021-08-19T16:10:37Z</time>
      </trkpt>
      <trkpt lat="42.976637" lon="-5.006929">
        <time>2021-08-19T16:13:53Z</time>
      </trkpt>
      <trkpt lat="42.976604" lon="-5.006848">
        <time>2021-08-19T16:14:05Z</time>
      </trkpt>
      <trkpt lat="42.976604" lon="-5.006848">
        <time>2021-08-19T16:14:08Z</time>
      </trkpt>
      <trkpt lat="42.976604" lon="-5.006848">
        <time>2021-08-19T16:14:08Z</time>
      </trkpt>
      <trkpt lat="42.976728" lon="-5.006773">
        <time>2021-08-19T16:20:14Z</time>
      </trkpt>
      <trkpt lat="42.976791" lon="-5.006802">
        <time>2021-08-19T16:20:47Z</time>
      </trkpt>
      <trkpt lat="42.976913" lon="-5.006676">
        <time>2021-08-19T16:20:50Z</time>
      </trkpt>
      <trkpt lat="42.977633" lon="-5.005617">
        <time>2021-08-19T16:21:02Z</time>
      </trkpt>
      <trkpt lat="42.977814" lon="-5.004761">
        <time>2021-08-19T16:21:08Z</time>
      </trkpt>
      <trkpt lat="42.977621" lon="-5.002548">
        <time>2021-08-19T16:21:20Z</time>
      </trkpt>
      <trkpt lat="42.977348" lon="-5.002017">
        <time>2021-08-19T16:21:23Z</time>
      </trkpt>
      <trkpt lat="42.976956" lon="-5.001527">
        <time>2021-08-19T16:21:26Z</time>
      </trkpt>
      <trkpt lat="42.975392" lon="-4.999528">
        <time>2021-08-19T16:21:38Z</time>
      </trkpt>
      <trkpt lat="42.975392" lon="-4.999528">
        <time>2021-08-19T16:21:38Z</time>
      </trkpt>
      <trkpt lat="42.974867" lon="-4.999484">
        <time>2021-08-19T16:21:41Z</time>
      </trkpt>
      <trkpt lat="42.974311" lon="-4.999465">
        <time>2021-08-19T16:21:44Z</time>
      </trkpt>
      <trkpt lat="42.973771" lon="-4.999188">
        <time>2021-08-19T16:21:47Z</time>
      </trkpt>
      <trkpt lat="42.973333" lon="-4.998658">
        <time>2021-08-19T16:21:50Z</time>
      </trkpt>
      <trkpt lat="42.973053" lon="-4.997935">
        <time>2021-08-19T16:21:53Z</time>
      </trkpt>
      <trkpt lat="42.973053" lon="-4.997935">
        <time>2021-08-19T16:21:53Z</time>
      </trkpt>
      <trkpt lat="42.972321" lon="-4.995944">
        <time>2021-08-19T16:22:02Z</time>
      </trkpt>
      <trkpt lat="42.971808" lon="-4.995704">
        <time>2021-08-19T16:22:05Z</time>
      </trkpt>
      <trkpt lat="42.971363" lon="-4.995419">
        <time>2021-08-19T16:22:08Z</time>
      </trkpt>
      <trkpt lat="42.97105" lon="-4.994855">
        <time>2021-08-19T16:22:11Z</time>
      </trkpt>
      <trkpt lat="42.970524" lon="-4.993424">
        <time>2021-08-19T16:22:17Z</time>
      </trkpt>
      <trkpt lat="42.970362" lon="-4.992614">
        <time>2021-08-19T16:22:20Z</time>
      </trkpt>
      <trkpt lat="42.969465" lon="-4.987225">
        <time>2021-08-19T16:22:41Z</time>
      </trkpt>
      <trkpt lat="42.969806" lon="-4.986801">
        <time>2021-08-19T16:22:44Z</time>
      </trkpt>
      <trkpt lat="42.969806" lon="-4.986801">
        <time>2021-08-19T16:22:44Z</time>
      </trkpt>
      <trkpt lat="42.970674" lon="-4.986195">
        <time>2021-08-19T16:22:50Z</time>
      </trkpt>
      <trkpt lat="42.970885" lon="-4.985608">
        <time>2021-08-19T16:22:53Z</time>
      </trkpt>
      <trkpt lat="42.970857" lon="-4.984947">
        <time>2021-08-19T16:22:56Z</time>
      </trkpt>
      <trkpt lat="42.970608" lon="-4.984392">
        <time>2021-08-19T16:22:59Z</time>
      </trkpt>
      <trkpt lat="42.970196" lon="-4.984063">
        <time>2021-08-19T16:23:02Z</time>
      </trkpt>
      <trkpt lat="42.969288" lon="-4.983848">
        <time>2021-08-19T16:23:08Z</time>
      </trkpt>
      <trkpt lat="42.968958" lon="-4.983436">
        <time>2021-08-19T16:23:11Z</time>
      </trkpt>
      <trkpt lat="42.968802" lon="-4.982796">
        <time>2021-08-19T16:23:14Z</time>
      </trkpt>
      <trkpt lat="42.968802" lon="-4.982796">
        <time>2021-08-19T16:23:14Z</time>
      </trkpt>
      <trkpt lat="42.968583" lon="-4.981425">
        <time>2021-08-19T16:23:20Z</time>
      </trkpt>
      <trkpt lat="42.968744" lon="-4.980823">
        <time>2021-08-19T16:23:23Z</time>
      </trkpt>
      <trkpt lat="42.968936" lon="-4.980188">
        <time>2021-08-19T16:23:26Z</time>
      </trkpt>
      <trkpt lat="42.968811" lon="-4.97951">
        <time>2021-08-19T16:23:29Z</time>
      </trkpt>
      <trkpt lat="42.968633" lon="-4.97882">
        <time>2021-08-19T16:23:32Z</time>
      </trkpt>
      <trkpt lat="42.968477" lon="-4.976762">
        <time>2021-08-19T16:23:41Z</time>
      </trkpt>
      <trkpt lat="42.968477" lon="-4.976762">
        <time>2021-08-19T16:23:41Z</time>
      </trkpt>
      <trkpt lat="42.968777" lon="-4.976269">
        <time>2021-08-19T16:23:44Z</time>
      </trkpt>
      <trkpt lat="42.969466" lon="-4.975059">
        <time>2021-08-19T16:23:50Z</time>
      </trkpt>
      <trkpt lat="42.970527" lon="-4.972627">
        <time>2021-08-19T16:24:02Z</time>
      </trkpt>
      <trkpt lat="42.970906" lon="-4.971468">
        <time>2021-08-19T16:24:08Z</time>
      </trkpt>
      <trkpt lat="42.970906" lon="-4.971468">
        <time>2021-08-19T16:24:08Z</time>
      </trkpt>
      <trkpt lat="42.970959" lon="-4.97084">
        <time>2021-08-19T16:24:11Z</time>
      </trkpt>
      <trkpt lat="42.971233" lon="-4.969595">
        <time>2021-08-19T16:24:17Z</time>
      </trkpt>
      <trkpt lat="42.971344" lon="-4.969008">
        <time>2021-08-19T16:24:20Z</time>
      </trkpt>
      <trkpt lat="42.971643" lon="-4.968621">
        <time>2021-08-19T16:24:23Z</time>
      </trkpt>
      <trkpt lat="42.972292" lon="-4.967706">
        <time>2021-08-19T16:24:29Z</time>
      </trkpt>
      <trkpt lat="42.972605" lon="-4.967214">
        <time>2021-08-19T16:24:32Z</time>
      </trkpt>
      <trkpt lat="42.972987" lon="-4.966714">
        <time>2021-08-19T16:24:35Z</time>
      </trkpt>
      <trkpt lat="42.973142" lon="-4.966026">
        <time>2021-08-19T16:24:38Z</time>
      </trkpt>
      <trkpt lat="42.973142" lon="-4.966026">
        <time>2021-08-19T16:24:38Z</time>
      </trkpt>
      <trkpt lat="42.973379" lon="-4.965396">
        <time>2021-08-19T16:24:41Z</time>
      </trkpt>
      <trkpt lat="42.973898" lon="-4.964062">
        <time>2021-08-19T16:24:47Z</time>
      </trkpt>
      <trkpt lat="42.973979" lon="-4.962577">
        <time>2021-08-19T16:24:53Z</time>
      </trkpt>
      <trkpt lat="42.97383" lon="-4.961374">
        <time>2021-08-19T16:24:59Z</time>
      </trkpt>
      <trkpt lat="42.974013" lon="-4.960779">
        <time>2021-08-19T16:25:02Z</time>
      </trkpt>
      <trkpt lat="42.97426" lon="-4.960053">
        <time>2021-08-19T16:25:05Z</time>
      </trkpt>
      <trkpt lat="42.974417" lon="-4.959242">
        <time>2021-08-19T16:25:08Z</time>
      </trkpt>
      <trkpt lat="42.974842" lon="-4.955793">
        <time>2021-08-19T16:25:20Z</time>
      </trkpt>
      <trkpt lat="42.974781" lon="-4.953737">
        <time>2021-08-19T16:25:26Z</time>
      </trkpt>
      <trkpt lat="42.974466" lon="-4.950037">
        <time>2021-08-19T16:25:38Z</time>
      </trkpt>
      <trkpt lat="42.973856" lon="-4.947433">
        <time>2021-08-19T16:25:47Z</time>
      </trkpt>
      <trkpt lat="42.972203" lon="-4.941409">
        <time>2021-08-19T16:26:08Z</time>
      </trkpt>
      <trkpt lat="42.972203" lon="-4.941409">
        <time>2021-08-19T16:26:08Z</time>
      </trkpt>
      <trkpt lat="42.971692" lon="-4.939925">
        <time>2021-08-19T16:26:14Z</time>
      </trkpt>
      <trkpt lat="42.97204" lon="-4.935208">
        <time>2021-08-19T16:26:29Z</time>
      </trkpt>
      <trkpt lat="42.97204" lon="-4.935208">
        <time>2021-08-19T16:26:29Z</time>
      </trkpt>
      <trkpt lat="42.973123" lon="-4.928923">
        <time>2021-08-19T16:26:53Z</time>
      </trkpt>
      <trkpt lat="42.974308" lon="-4.922883">
        <time>2021-08-19T16:27:29Z</time>
      </trkpt>
      <trkpt lat="42.974308" lon="-4.922883">
        <time>2021-08-19T16:27:29Z</time>
      </trkpt>
      <trkpt lat="42.976461" lon="-4.916845">
        <time>2021-08-19T16:27:56Z</time>
      </trkpt>
      <trkpt lat="42.977682" lon="-4.914117">
        <time>2021-08-19T16:28:08Z</time>
      </trkpt>
      <trkpt lat="42.978409" lon="-4.913206">
        <time>2021-08-19T16:28:14Z</time>
      </trkpt>
      <trkpt lat="42.978409" lon="-4.913206">
        <time>2021-08-19T16:28:14Z</time>
      </trkpt>
      <trkpt lat="42.978409" lon="-4.913206">
        <time>2021-08-19T16:28:14Z</time>
      </trkpt>
      <trkpt lat="42.978409" lon="-4.913206">
        <time>2021-08-19T16:28:14Z</time>
      </trkpt>
      <trkpt lat="42.978409" lon="-4.913206">
        <time>2021-08-19T16:28:14Z</time>
      </trkpt>
      <trkpt lat="42.979658" lon="-4.912203">
        <time>2021-08-19T16:28:23Z</time>
      </trkpt>
      <trkpt lat="42.980199" lon="-4.911947">
        <time>2021-08-19T16:28:26Z</time>
      </trkpt>
      <trkpt lat="42.982226" lon="-4.910623">
        <time>2021-08-19T16:28:38Z</time>
      </trkpt>
      <trkpt lat="42.983552" lon="-4.90884">
        <time>2021-08-19T16:28:47Z</time>
      </trkpt>
      <trkpt lat="42.987061" lon="-4.904167">
        <time>2021-08-19T16:29:11Z</time>
      </trkpt>
      <trkpt lat="42.990541" lon="-4.899624">
        <time>2021-08-19T16:29:47Z</time>
      </trkpt>
      <trkpt lat="42.990541" lon="-4.899624">
        <time>2021-08-19T16:29:47Z</time>
      </trkpt>
      <trkpt lat="42.992834" lon="-4.897807">
        <time>2021-08-19T16:30:05Z</time>
      </trkpt>
      <trkpt lat="42.993097" lon="-4.897262">
        <time>2021-08-19T16:30:08Z</time>
      </trkpt>
      <trkpt lat="42.993432" lon="-4.895206">
        <time>2021-08-19T16:30:17Z</time>
      </trkpt>
      <trkpt lat="42.993432" lon="-4.895206">
        <time>2021-08-19T16:30:17Z</time>
      </trkpt>
      <trkpt lat="42.993386" lon="-4.894501">
        <time>2021-08-19T16:30:20Z</time>
      </trkpt>
      <trkpt lat="42.99357" lon="-4.89394">
        <time>2021-08-19T16:30:23Z</time>
      </trkpt>
      <trkpt lat="42.994269" lon="-4.892493">
        <time>2021-08-19T16:30:32Z</time>
      </trkpt>
      <trkpt lat="42.994625" lon="-4.890876">
        <time>2021-08-19T16:30:41Z</time>
      </trkpt>
      <trkpt lat="42.995181" lon="-4.88979">
        <time>2021-08-19T16:30:47Z</time>
      </trkpt>
      <trkpt lat="42.995503" lon="-4.889492">
        <time>2021-08-19T16:30:50Z</time>
      </trkpt>
      <trkpt lat="42.999967" lon="-4.888913">
        <time>2021-08-19T16:31:14Z</time>
      </trkpt>
      <trkpt lat="43.002289" lon="-4.888781">
        <time>2021-08-19T16:31:26Z</time>
      </trkpt>
      <trkpt lat="43.004394" lon="-4.889805">
        <time>2021-08-19T16:31:38Z</time>
      </trkpt>
      <trkpt lat="43.005366" lon="-4.890058">
        <time>2021-08-19T16:31:44Z</time>
      </trkpt>
      <trkpt lat="43.006779" lon="-4.889204">
        <time>2021-08-19T16:31:53Z</time>
      </trkpt>
      <trkpt lat="43.008322" lon="-4.88744">
        <time>2021-08-19T16:32:05Z</time>
      </trkpt>
      <trkpt lat="43.008322" lon="-4.88744">
        <time>2021-08-19T16:32:05Z</time>
      </trkpt>
      <trkpt lat="43.009797" lon="-4.884637">
        <time>2021-08-19T16:32:20Z</time>
      </trkpt>
      <trkpt lat="43.010163" lon="-4.884179">
        <time>2021-08-19T16:32:23Z</time>
      </trkpt>
      <trkpt lat="43.010917" lon="-4.883504">
        <time>2021-08-19T16:32:29Z</time>
      </trkpt>
      <trkpt lat="43.011359" lon="-4.883193">
        <time>2021-08-19T16:32:32Z</time>
      </trkpt>
      <trkpt lat="43.01171" lon="-4.882633">
        <time>2021-08-19T16:32:35Z</time>
      </trkpt>
      <trkpt lat="43.012752" lon="-4.880981">
        <time>2021-08-19T16:32:44Z</time>
      </trkpt>
      <trkpt lat="43.013159" lon="-4.880747">
        <time>2021-08-19T16:32:47Z</time>
      </trkpt>
      <trkpt lat="43.013848" lon="-4.88004">
        <time>2021-08-19T16:32:53Z</time>
      </trkpt>
      <trkpt lat="43.014449" lon="-4.87801">
        <time>2021-08-19T16:33:02Z</time>
      </trkpt>
      <trkpt lat="43.014867" lon="-4.876947">
        <time>2021-08-19T16:33:08Z</time>
      </trkpt>
      <trkpt lat="43.015457" lon="-4.876268">
        <time>2021-08-19T16:33:14Z</time>
      </trkpt>
      <trkpt lat="43.016134" lon="-4.873405">
        <time>2021-08-19T16:33:29Z</time>
      </trkpt>
      <trkpt lat="43.016941" lon="-4.872868">
        <time>2021-08-19T16:33:35Z</time>
      </trkpt>
      <trkpt lat="43.020215" lon="-4.870153">
        <time>2021-08-19T16:33:56Z</time>
      </trkpt>
      <trkpt lat="43.020852" lon="-4.868766">
        <time>2021-08-19T16:34:02Z</time>
      </trkpt>
      <trkpt lat="43.020852" lon="-4.868766">
        <time>2021-08-19T16:34:02Z</time>
      </trkpt>
      <trkpt lat="43.022009" lon="-4.866088">
        <time>2021-08-19T16:34:14Z</time>
      </trkpt>
      <trkpt lat="43.022593" lon="-4.865225">
        <time>2021-08-19T16:34:20Z</time>
      </trkpt>
      <trkpt lat="43.022766" lon="-4.864657">
        <time>2021-08-19T16:34:23Z</time>
      </trkpt>
      <trkpt lat="43.022971" lon="-4.863736">
        <time>2021-08-19T16:34:29Z</time>
      </trkpt>
      <trkpt lat="43.023352" lon="-4.86363">
        <time>2021-08-19T16:34:32Z</time>
      </trkpt>
      <trkpt lat="43.023352" lon="-4.86363">
        <time>2021-08-19T16:34:32Z</time>
      </trkpt>
      <trkpt lat="43.02422" lon="-4.863666">
        <time>2021-08-19T16:34:38Z</time>
      </trkpt>
      <trkpt lat="43.024627" lon="-4.863411">
        <time>2021-08-19T16:34:41Z</time>
      </trkpt>
      <trkpt lat="43.024866" lon="-4.862911">
        <time>2021-08-19T16:34:44Z</time>
      </trkpt>
      <trkpt lat="43.024962" lon="-4.862267">
        <time>2021-08-19T16:34:47Z</time>
      </trkpt>
      <trkpt lat="43.025256" lon="-4.860462">
        <time>2021-08-19T16:34:56Z</time>
      </trkpt>
      <trkpt lat="43.025557" lon="-4.860337">
        <time>2021-08-19T16:34:59Z</time>
      </trkpt>
      <trkpt lat="43.026352" lon="-4.860574">
        <time>2021-08-19T16:35:05Z</time>
      </trkpt>
      <trkpt lat="43.026352" lon="-4.860574">
        <time>2021-08-19T16:35:05Z</time>
      </trkpt>
      <trkpt lat="43.026728" lon="-4.860338">
        <time>2021-08-19T16:35:08Z</time>
      </trkpt>
      <trkpt lat="43.02705" lon="-4.859977">
        <time>2021-08-19T16:35:11Z</time>
      </trkpt>
      <trkpt lat="43.0281" lon="-4.858034">
        <time>2021-08-19T16:35:23Z</time>
      </trkpt>
      <trkpt lat="43.028343" lon="-4.858119">
        <time>2021-08-19T16:35:26Z</time>
      </trkpt>
      <trkpt lat="43.028807" lon="-4.859026">
        <time>2021-08-19T16:35:32Z</time>
      </trkpt>
      <trkpt lat="43.029109" lon="-4.85934">
        <time>2021-08-19T16:35:35Z</time>
      </trkpt>
      <trkpt lat="43.029555" lon="-4.859366">
        <time>2021-08-19T16:35:38Z</time>
      </trkpt>
      <trkpt lat="43.029555" lon="-4.859366">
        <time>2021-08-19T16:35:38Z</time>
      </trkpt>
      <trkpt lat="43.030025" lon="-4.859258">
        <time>2021-08-19T16:35:41Z</time>
      </trkpt>
      <trkpt lat="43.030409" lon="-4.858892">
        <time>2021-08-19T16:35:44Z</time>
      </trkpt>
      <trkpt lat="43.031218" lon="-4.857238">
        <time>2021-08-19T16:35:53Z</time>
      </trkpt>
      <trkpt lat="43.031532" lon="-4.855353">
        <time>2021-08-19T16:36:02Z</time>
      </trkpt>
      <trkpt lat="43.031832" lon="-4.855175">
        <time>2021-08-19T16:36:05Z</time>
      </trkpt>
      <trkpt lat="43.032197" lon="-4.855381">
        <time>2021-08-19T16:36:08Z</time>
      </trkpt>
      <trkpt lat="43.032197" lon="-4.855381">
        <time>2021-08-19T16:36:08Z</time>
      </trkpt>
      <trkpt lat="43.033495" lon="-4.856508">
        <time>2021-08-19T16:36:17Z</time>
      </trkpt>
      <trkpt lat="43.033997" lon="-4.856604">
        <time>2021-08-19T16:36:20Z</time>
      </trkpt>
      <trkpt lat="43.03446" lon="-4.856384">
        <time>2021-08-19T16:36:23Z</time>
      </trkpt>
      <trkpt lat="43.034802" lon="-4.855922">
        <time>2021-08-19T16:36:26Z</time>
      </trkpt>
      <trkpt lat="43.035294" lon="-4.855175">
        <time>2021-08-19T16:36:32Z</time>
      </trkpt>
      <trkpt lat="43.035498" lon="-4.855341">
        <time>2021-08-19T16:36:35Z</time>
      </trkpt>
      <trkpt lat="43.035514" lon="-4.855818">
        <time>2021-08-19T16:36:38Z</time>
      </trkpt>
      <trkpt lat="43.035453" lon="-4.856459">
        <time>2021-08-19T16:36:41Z</time>
      </trkpt>
      <trkpt lat="43.03544" lon="-4.857779">
        <time>2021-08-19T16:36:47Z</time>
      </trkpt>
      <trkpt lat="43.035625" lon="-4.858227">
        <time>2021-08-19T16:36:50Z</time>
      </trkpt>
      <trkpt lat="43.036006" lon="-4.858419">
        <time>2021-08-19T16:36:53Z</time>
      </trkpt>
      <trkpt lat="43.03686" lon="-4.858185">
        <time>2021-08-19T16:36:59Z</time>
      </trkpt>
      <trkpt lat="43.037106" lon="-4.857687">
        <time>2021-08-19T16:37:02Z</time>
      </trkpt>
      <trkpt lat="43.037975" lon="-4.855886">
        <time>2021-08-19T16:37:11Z</time>
      </trkpt>
      <trkpt lat="43.03818" lon="-4.855287">
        <time>2021-08-19T16:37:14Z</time>
      </trkpt>
      <trkpt lat="43.038394" lon="-4.853312">
        <time>2021-08-19T16:37:23Z</time>
      </trkpt>
      <trkpt lat="43.038254" lon="-4.852296">
        <time>2021-08-19T16:37:29Z</time>
      </trkpt>
      <trkpt lat="43.038461" lon="-4.852111">
        <time>2021-08-19T16:37:32Z</time>
      </trkpt>
      <trkpt lat="43.038762" lon="-4.851964">
        <time>2021-08-19T16:37:35Z</time>
      </trkpt>
      <trkpt lat="43.03887" lon="-4.851647">
        <time>2021-08-19T16:37:38Z</time>
      </trkpt>
      <trkpt lat="43.03908" lon="-4.850148">
        <time>2021-08-19T16:37:47Z</time>
      </trkpt>
      <trkpt lat="43.03908" lon="-4.850148">
        <time>2021-08-19T16:37:47Z</time>
      </trkpt>
      <trkpt lat="43.039305" lon="-4.850039">
        <time>2021-08-19T16:37:50Z</time>
      </trkpt>
      <trkpt lat="43.039749" lon="-4.849961">
        <time>2021-08-19T16:37:59Z</time>
      </trkpt>
      <trkpt lat="43.039901" lon="-4.848988">
        <time>2021-08-19T16:38:08Z</time>
      </trkpt>
      <trkpt lat="43.040086" lon="-4.848714">
        <time>2021-08-19T16:38:11Z</time>
      </trkpt>
      <trkpt lat="43.041128" lon="-4.847769">
        <time>2021-08-19T16:38:23Z</time>
      </trkpt>
      <trkpt lat="43.041743" lon="-4.847812">
        <time>2021-08-19T16:38:29Z</time>
      </trkpt>
      <trkpt lat="43.041947" lon="-4.847484">
        <time>2021-08-19T16:38:32Z</time>
      </trkpt>
      <trkpt lat="43.042149" lon="-4.846415">
        <time>2021-08-19T16:38:38Z</time>
      </trkpt>
      <trkpt lat="43.042149" lon="-4.846415">
        <time>2021-08-19T16:38:38Z</time>
      </trkpt>
      <trkpt lat="43.042275" lon="-4.845893">
        <time>2021-08-19T16:38:41Z</time>
      </trkpt>
      <trkpt lat="43.042296" lon="-4.844845">
        <time>2021-08-19T16:38:47Z</time>
      </trkpt>
      <trkpt lat="43.042497" lon="-4.844548">
        <time>2021-08-19T16:38:50Z</time>
      </trkpt>
      <trkpt lat="43.043235" lon="-4.844133">
        <time>2021-08-19T16:38:56Z</time>
      </trkpt>
      <trkpt lat="43.043494" lon="-4.843635">
        <time>2021-08-19T16:38:59Z</time>
      </trkpt>
      <trkpt lat="43.043831" lon="-4.842646">
        <time>2021-08-19T16:39:05Z</time>
      </trkpt>
      <trkpt lat="43.043848" lon="-4.841633">
        <time>2021-08-19T16:39:11Z</time>
      </trkpt>
      <trkpt lat="43.043923" lon="-4.841044">
        <time>2021-08-19T16:39:14Z</time>
      </trkpt>
      <trkpt lat="43.043923" lon="-4.841044">
        <time>2021-08-19T16:39:14Z</time>
      </trkpt>
      <trkpt lat="43.044004" lon="-4.840469">
        <time>2021-08-19T16:39:17Z</time>
      </trkpt>
      <trkpt lat="43.044823" lon="-4.838904">
        <time>2021-08-19T16:39:26Z</time>
      </trkpt>
      <trkpt lat="43.04529" lon="-4.837706">
        <time>2021-08-19T16:39:32Z</time>
      </trkpt>
      <trkpt lat="43.045959" lon="-4.836854">
        <time>2021-08-19T16:39:38Z</time>
      </trkpt>
      <trkpt lat="43.046759" lon="-4.836026">
        <time>2021-08-19T16:39:44Z</time>
      </trkpt>
      <trkpt lat="43.046759" lon="-4.836026">
        <time>2021-08-19T16:39:44Z</time>
      </trkpt>
      <trkpt lat="43.047645" lon="-4.834223">
        <time>2021-08-19T16:39:53Z</time>
      </trkpt>
      <trkpt lat="43.048253" lon="-4.833372">
        <time>2021-08-19T16:39:59Z</time>
      </trkpt>
      <trkpt lat="43.048482" lon="-4.832054">
        <time>2021-08-19T16:40:05Z</time>
      </trkpt>
      <trkpt lat="43.048589" lon="-4.830506">
        <time>2021-08-19T16:40:11Z</time>
      </trkpt>
      <trkpt lat="43.048785" lon="-4.829773">
        <time>2021-08-19T16:40:14Z</time>
      </trkpt>
      <trkpt lat="43.049499" lon="-4.827893">
        <time>2021-08-19T16:40:23Z</time>
      </trkpt>
      <trkpt lat="43.051696" lon="-4.825732">
        <time>2021-08-19T16:40:38Z</time>
      </trkpt>
      <trkpt lat="43.051998" lon="-4.825368">
        <time>2021-08-19T16:40:41Z</time>
      </trkpt>
      <trkpt lat="43.052107" lon="-4.824886">
        <time>2021-08-19T16:40:44Z</time>
      </trkpt>
      <trkpt lat="43.05239" lon="-4.822483">
        <time>2021-08-19T16:40:56Z</time>
      </trkpt>
      <trkpt lat="43.052622" lon="-4.822269">
        <time>2021-08-19T16:40:59Z</time>
      </trkpt>
      <trkpt lat="43.052817" lon="-4.822105">
        <time>2021-08-19T16:41:02Z</time>
      </trkpt>
      <trkpt lat="43.052834" lon="-4.821754">
        <time>2021-08-19T16:41:05Z</time>
      </trkpt>
      <trkpt lat="43.052913" lon="-4.821299">
        <time>2021-08-19T16:41:08Z</time>
      </trkpt>
      <trkpt lat="43.053298" lon="-4.82053">
        <time>2021-08-19T16:41:14Z</time>
      </trkpt>
      <trkpt lat="43.05359" lon="-4.820429">
        <time>2021-08-19T16:41:17Z</time>
      </trkpt>
      <trkpt lat="43.05359" lon="-4.820429">
        <time>2021-08-19T16:41:17Z</time>
      </trkpt>
      <trkpt lat="43.053816" lon="-4.820349">
        <time>2021-08-19T16:41:20Z</time>
      </trkpt>
      <trkpt lat="43.05397" lon="-4.820021">
        <time>2021-08-19T16:41:23Z</time>
      </trkpt>
      <trkpt lat="43.054095" lon="-4.819163">
        <time>2021-08-19T16:41:29Z</time>
      </trkpt>
      <trkpt lat="43.054074" lon="-4.818506">
        <time>2021-08-19T16:41:35Z</time>
      </trkpt>
      <trkpt lat="43.05421" lon="-4.817708">
        <time>2021-08-19T16:41:41Z</time>
      </trkpt>
      <trkpt lat="43.054275" lon="-4.816777">
        <time>2021-08-19T16:41:47Z</time>
      </trkpt>
      <trkpt lat="43.054393" lon="-4.816473">
        <time>2021-08-19T16:41:50Z</time>
      </trkpt>
      <trkpt lat="43.054746" lon="-4.815841">
        <time>2021-08-19T16:41:56Z</time>
      </trkpt>
      <trkpt lat="43.054809" lon="-4.815441">
        <time>2021-08-19T16:41:59Z</time>
      </trkpt>
      <trkpt lat="43.054731" lon="-4.81507">
        <time>2021-08-19T16:42:02Z</time>
      </trkpt>
      <trkpt lat="43.054648" lon="-4.814675">
        <time>2021-08-19T16:42:05Z</time>
      </trkpt>
      <trkpt lat="43.054218" lon="-4.813329">
        <time>2021-08-19T16:42:14Z</time>
      </trkpt>
      <trkpt lat="43.053878" lon="-4.811271">
        <time>2021-08-19T16:42:26Z</time>
      </trkpt>
      <trkpt lat="43.054006" lon="-4.80849">
        <time>2021-08-19T16:42:41Z</time>
      </trkpt>
      <trkpt lat="43.054006" lon="-4.80849">
        <time>2021-08-19T16:42:41Z</time>
      </trkpt>
      <trkpt lat="43.053244" lon="-4.806395">
        <time>2021-08-19T16:42:53Z</time>
      </trkpt>
      <trkpt lat="43.053025" lon="-4.805185">
        <time>2021-08-19T16:42:59Z</time>
      </trkpt>
      <trkpt lat="43.052915" lon="-4.804016">
        <time>2021-08-19T16:43:05Z</time>
      </trkpt>
      <trkpt lat="43.053167" lon="-4.803121">
        <time>2021-08-19T16:43:11Z</time>
      </trkpt>
      <trkpt lat="43.053472" lon="-4.802876">
        <time>2021-08-19T16:43:14Z</time>
      </trkpt>
      <trkpt lat="43.053472" lon="-4.802876">
        <time>2021-08-19T16:43:14Z</time>
      </trkpt>
      <trkpt lat="43.053753" lon="-4.802536">
        <time>2021-08-19T16:43:17Z</time>
      </trkpt>
      <trkpt lat="43.053874" lon="-4.80212">
        <time>2021-08-19T16:43:20Z</time>
      </trkpt>
      <trkpt lat="43.05402" lon="-4.800257">
        <time>2021-08-19T16:43:32Z</time>
      </trkpt>
      <trkpt lat="43.053916" lon="-4.799882">
        <time>2021-08-19T16:43:35Z</time>
      </trkpt>
      <trkpt lat="43.053796" lon="-4.799042">
        <time>2021-08-19T16:43:41Z</time>
      </trkpt>
      <trkpt lat="43.053613" lon="-4.798118">
        <time>2021-08-19T16:43:47Z</time>
      </trkpt>
      <trkpt lat="43.05342" lon="-4.797645">
        <time>2021-08-19T16:43:50Z</time>
      </trkpt>
      <trkpt lat="43.0531" lon="-4.79728">
        <time>2021-08-19T16:43:53Z</time>
      </trkpt>
      <trkpt lat="43.052742" lon="-4.796645">
        <time>2021-08-19T16:43:59Z</time>
      </trkpt>
      <trkpt lat="43.052938" lon="-4.7964">
        <time>2021-08-19T16:44:02Z</time>
      </trkpt>
      <trkpt lat="43.053297" lon="-4.79627">
        <time>2021-08-19T16:44:05Z</time>
      </trkpt>
      <trkpt lat="43.05371" lon="-4.796077">
        <time>2021-08-19T16:44:08Z</time>
      </trkpt>
      <trkpt lat="43.054467" lon="-4.795233">
        <time>2021-08-19T16:44:14Z</time>
      </trkpt>
      <trkpt lat="43.056444" lon="-4.793365">
        <time>2021-08-19T16:44:26Z</time>
      </trkpt>
      <trkpt lat="43.057363" lon="-4.792774">
        <time>2021-08-19T16:44:32Z</time>
      </trkpt>
      <trkpt lat="43.057893" lon="-4.792879">
        <time>2021-08-19T16:44:35Z</time>
      </trkpt>
      <trkpt lat="43.058301" lon="-4.792993">
        <time>2021-08-19T16:44:38Z</time>
      </trkpt>
      <trkpt lat="43.058669" lon="-4.792724">
        <time>2021-08-19T16:44:41Z</time>
      </trkpt>
      <trkpt lat="43.059406" lon="-4.79171">
        <time>2021-08-19T16:44:47Z</time>
      </trkpt>
      <trkpt lat="43.060055" lon="-4.790592">
        <time>2021-08-19T16:44:53Z</time>
      </trkpt>
      <trkpt lat="43.060349" lon="-4.790144">
        <time>2021-08-19T16:44:56Z</time>
      </trkpt>
      <trkpt lat="43.06075" lon="-4.789929">
        <time>2021-08-19T16:44:59Z</time>
      </trkpt>
      <trkpt lat="43.061113" lon="-4.789727">
        <time>2021-08-19T16:45:02Z</time>
      </trkpt>
      <trkpt lat="43.061292" lon="-4.789202">
        <time>2021-08-19T16:45:05Z</time>
      </trkpt>
      <trkpt lat="43.061622" lon="-4.788044">
        <time>2021-08-19T16:45:11Z</time>
      </trkpt>
      <trkpt lat="43.062622" lon="-4.786686">
        <time>2021-08-19T16:45:20Z</time>
      </trkpt>
      <trkpt lat="43.063069" lon="-4.786308">
        <time>2021-08-19T16:45:23Z</time>
      </trkpt>
      <trkpt lat="43.06428" lon="-4.784873">
        <time>2021-08-19T16:45:32Z</time>
      </trkpt>
      <trkpt lat="43.065133" lon="-4.783123">
        <time>2021-08-19T16:45:41Z</time>
      </trkpt>
      <trkpt lat="43.065516" lon="-4.782971">
        <time>2021-08-19T16:45:44Z</time>
      </trkpt>
      <trkpt lat="43.065909" lon="-4.782771">
        <time>2021-08-19T16:45:47Z</time>
      </trkpt>
      <trkpt lat="43.066594" lon="-4.782181">
        <time>2021-08-19T16:45:53Z</time>
      </trkpt>
      <trkpt lat="43.066594" lon="-4.782181">
        <time>2021-08-19T16:45:53Z</time>
      </trkpt>
      <trkpt lat="43.067589" lon="-4.781903">
        <time>2021-08-19T16:46:02Z</time>
      </trkpt>
      <trkpt lat="43.067544" lon="-4.781472">
        <time>2021-08-19T16:46:05Z</time>
      </trkpt>
      <trkpt lat="43.067606" lon="-4.781056">
        <time>2021-08-19T16:46:08Z</time>
      </trkpt>
      <trkpt lat="43.067892" lon="-4.780765">
        <time>2021-08-19T16:46:11Z</time>
      </trkpt>
      <trkpt lat="43.068263" lon="-4.780725">
        <time>2021-08-19T16:46:14Z</time>
      </trkpt>
      <trkpt lat="43.068618" lon="-4.780745">
        <time>2021-08-19T16:46:17Z</time>
      </trkpt>
      <trkpt lat="43.068845" lon="-4.780444">
        <time>2021-08-19T16:46:20Z</time>
      </trkpt>
      <trkpt lat="43.068812" lon="-4.779981">
        <time>2021-08-19T16:46:23Z</time>
      </trkpt>
      <trkpt lat="43.068646" lon="-4.779558">
        <time>2021-08-19T16:46:26Z</time>
      </trkpt>
      <trkpt lat="43.068316" lon="-4.779461">
        <time>2021-08-19T16:46:29Z</time>
      </trkpt>
      <trkpt lat="43.067607" lon="-4.779534">
        <time>2021-08-19T16:46:35Z</time>
      </trkpt>
      <trkpt lat="43.067607" lon="-4.779534">
        <time>2021-08-19T16:46:35Z</time>
      </trkpt>
      <trkpt lat="43.067303" lon="-4.779364">
        <time>2021-08-19T16:46:38Z</time>
      </trkpt>
      <trkpt lat="43.067178" lon="-4.778973">
        <time>2021-08-19T16:46:41Z</time>
      </trkpt>
      <trkpt lat="43.067158" lon="-4.77804">
        <time>2021-08-19T16:46:47Z</time>
      </trkpt>
      <trkpt lat="43.066946" lon="-4.777886">
        <time>2021-08-19T16:46:50Z</time>
      </trkpt>
      <trkpt lat="43.066723" lon="-4.778132">
        <time>2021-08-19T16:46:53Z</time>
      </trkpt>
      <trkpt lat="43.066498" lon="-4.778378">
        <time>2021-08-19T16:46:56Z</time>
      </trkpt>
      <trkpt lat="43.066283" lon="-4.778263">
        <time>2021-08-19T16:46:59Z</time>
      </trkpt>
      <trkpt lat="43.0662" lon="-4.777838">
        <time>2021-08-19T16:47:02Z</time>
      </trkpt>
      <trkpt lat="43.066043" lon="-4.777359">
        <time>2021-08-19T16:47:05Z</time>
      </trkpt>
      <trkpt lat="43.065717" lon="-4.777126">
        <time>2021-08-19T16:47:08Z</time>
      </trkpt>
      <trkpt lat="43.065527" lon="-4.776729">
        <time>2021-08-19T16:47:11Z</time>
      </trkpt>
      <trkpt lat="43.065416" lon="-4.77552">
        <time>2021-08-19T16:47:17Z</time>
      </trkpt>
      <trkpt lat="43.065504" lon="-4.774917">
        <time>2021-08-19T16:47:20Z</time>
      </trkpt>
      <trkpt lat="43.066316" lon="-4.773287">
        <time>2021-08-19T16:47:29Z</time>
      </trkpt>
      <trkpt lat="43.066645" lon="-4.772921">
        <time>2021-08-19T16:47:32Z</time>
      </trkpt>
      <trkpt lat="43.066763" lon="-4.772399">
        <time>2021-08-19T16:47:35Z</time>
      </trkpt>
      <trkpt lat="43.066817" lon="-4.769571">
        <time>2021-08-19T16:47:47Z</time>
      </trkpt>
      <trkpt lat="43.066941" lon="-4.765963">
        <time>2021-08-19T16:48:11Z</time>
      </trkpt>
      <trkpt lat="43.067212" lon="-4.765059">
        <time>2021-08-19T16:48:35Z</time>
      </trkpt>
      <trkpt lat="43.067549" lon="-4.764143">
        <time>2021-08-19T16:48:41Z</time>
      </trkpt>
      <trkpt lat="43.067706" lon="-4.763512">
        <time>2021-08-19T16:48:44Z</time>
      </trkpt>
      <trkpt lat="43.068284" lon="-4.761599">
        <time>2021-08-19T16:48:53Z</time>
      </trkpt>
      <trkpt lat="43.0684" lon="-4.760321">
        <time>2021-08-19T16:48:59Z</time>
      </trkpt>
      <trkpt lat="43.068695" lon="-4.759825">
        <time>2021-08-19T16:49:02Z</time>
      </trkpt>
      <trkpt lat="43.069129" lon="-4.759551">
        <time>2021-08-19T16:49:05Z</time>
      </trkpt>
      <trkpt lat="43.069492" lon="-4.759124">
        <time>2021-08-19T16:49:08Z</time>
      </trkpt>
      <trkpt lat="43.069649" lon="-4.758525">
        <time>2021-08-19T16:49:11Z</time>
      </trkpt>
      <trkpt lat="43.06954" lon="-4.757927">
        <time>2021-08-19T16:49:14Z</time>
      </trkpt>
      <trkpt lat="43.06954" lon="-4.757927">
        <time>2021-08-19T16:49:14Z</time>
      </trkpt>
      <trkpt lat="43.069328" lon="-4.757376">
        <time>2021-08-19T16:49:17Z</time>
      </trkpt>
      <trkpt lat="43.069212" lon="-4.756031">
        <time>2021-08-19T16:49:23Z</time>
      </trkpt>
      <trkpt lat="43.069363" lon="-4.7555">
        <time>2021-08-19T16:49:26Z</time>
      </trkpt>
      <trkpt lat="43.069697" lon="-4.75486">
        <time>2021-08-19T16:49:32Z</time>
      </trkpt>
      <trkpt lat="43.070012" lon="-4.753068">
        <time>2021-08-19T16:49:41Z</time>
      </trkpt>
      <trkpt lat="43.070652" lon="-4.751963">
        <time>2021-08-19T16:49:47Z</time>
      </trkpt>
      <trkpt lat="43.070926" lon="-4.751336">
        <time>2021-08-19T16:49:50Z</time>
      </trkpt>
      <trkpt lat="43.071801" lon="-4.749143">
        <time>2021-08-19T16:50:02Z</time>
      </trkpt>
      <trkpt lat="43.072027" lon="-4.74892">
        <time>2021-08-19T16:50:05Z</time>
      </trkpt>
      <trkpt lat="43.071969" lon="-4.748498">
        <time>2021-08-19T16:50:08Z</time>
      </trkpt>
      <trkpt lat="43.071643" lon="-4.746464">
        <time>2021-08-19T16:50:17Z</time>
      </trkpt>
      <trkpt lat="43.071592" lon="-4.745626">
        <time>2021-08-19T16:50:20Z</time>
      </trkpt>
      <trkpt lat="43.071415" lon="-4.743218">
        <time>2021-08-19T16:50:29Z</time>
      </trkpt>
      <trkpt lat="43.071613" lon="-4.74254">
        <time>2021-08-19T16:50:32Z</time>
      </trkpt>
      <trkpt lat="43.072247" lon="-4.741587">
        <time>2021-08-19T16:50:38Z</time>
      </trkpt>
      <trkpt lat="43.072605" lon="-4.741204">
        <time>2021-08-19T16:50:41Z</time>
      </trkpt>
      <trkpt lat="43.072846" lon="-4.740592">
        <time>2021-08-19T16:50:44Z</time>
      </trkpt>
      <trkpt lat="43.072846" lon="-4.740592">
        <time>2021-08-19T16:50:44Z</time>
      </trkpt>
      <trkpt lat="43.073369" lon="-4.739752">
        <time>2021-08-19T16:50:50Z</time>
      </trkpt>
      <trkpt lat="43.074258" lon="-4.739617">
        <time>2021-08-19T16:50:56Z</time>
      </trkpt>
      <trkpt lat="43.074708" lon="-4.739224">
        <time>2021-08-19T16:50:59Z</time>
      </trkpt>
      <trkpt lat="43.075437" lon="-4.738105">
        <time>2021-08-19T16:51:05Z</time>
      </trkpt>
      <trkpt lat="43.075478" lon="-4.737396">
        <time>2021-08-19T16:51:08Z</time>
      </trkpt>
      <trkpt lat="43.075679" lon="-4.736048">
        <time>2021-08-19T16:51:14Z</time>
      </trkpt>
      <trkpt lat="43.075679" lon="-4.736048">
        <time>2021-08-19T16:51:14Z</time>
      </trkpt>
      <trkpt lat="43.076577" lon="-4.733628">
        <time>2021-08-19T16:51:26Z</time>
      </trkpt>
      <trkpt lat="43.076748" lon="-4.733323">
        <time>2021-08-19T16:51:29Z</time>
      </trkpt>
      <trkpt lat="43.076664" lon="-4.733119">
        <time>2021-08-19T16:51:32Z</time>
      </trkpt>
      <trkpt lat="43.076496" lon="-4.73331">
        <time>2021-08-19T16:51:35Z</time>
      </trkpt>
      <trkpt lat="43.076242" lon="-4.733671">
        <time>2021-08-19T16:51:38Z</time>
      </trkpt>
      <trkpt lat="43.075673" lon="-4.734555">
        <time>2021-08-19T16:51:44Z</time>
      </trkpt>
      <trkpt lat="43.075069" lon="-4.735583">
        <time>2021-08-19T16:51:50Z</time>
      </trkpt>
      <trkpt lat="43.074742" lon="-4.736048">
        <time>2021-08-19T16:51:53Z</time>
      </trkpt>
      <trkpt lat="43.074446" lon="-4.736449">
        <time>2021-08-19T16:51:56Z</time>
      </trkpt>
      <trkpt lat="43.074007" lon="-4.737247">
        <time>2021-08-19T16:52:02Z</time>
      </trkpt>
      <trkpt lat="43.073636" lon="-4.737263">
        <time>2021-08-19T16:52:05Z</time>
      </trkpt>
      <trkpt lat="43.073294" lon="-4.737038">
        <time>2021-08-19T16:52:08Z</time>
      </trkpt>
      <trkpt lat="43.073077" lon="-4.736588">
        <time>2021-08-19T16:52:11Z</time>
      </trkpt>
      <trkpt lat="43.073078" lon="-4.736025">
        <time>2021-08-19T16:52:14Z</time>
      </trkpt>
      <trkpt lat="43.073317" lon="-4.735597">
        <time>2021-08-19T16:52:17Z</time>
      </trkpt>
      <trkpt lat="43.074149" lon="-4.735012">
        <time>2021-08-19T16:52:23Z</time>
      </trkpt>
      <trkpt lat="43.07469" lon="-4.734258">
        <time>2021-08-19T16:52:29Z</time>
      </trkpt>
      <trkpt lat="43.075071" lon="-4.733101">
        <time>2021-08-19T16:52:35Z</time>
      </trkpt>
      <trkpt lat="43.075252" lon="-4.732452">
        <time>2021-08-19T16:52:38Z</time>
      </trkpt>
      <trkpt lat="43.075655" lon="-4.731273">
        <time>2021-08-19T16:52:44Z</time>
      </trkpt>
      <trkpt lat="43.075968" lon="-4.731046">
        <time>2021-08-19T16:52:47Z</time>
      </trkpt>
      <trkpt lat="43.076812" lon="-4.730992">
        <time>2021-08-19T16:52:56Z</time>
      </trkpt>
      <trkpt lat="43.076812" lon="-4.730992">
        <time>2021-08-19T16:52:56Z</time>
      </trkpt>
      <trkpt lat="43.076812" lon="-4.730992">
        <time>2021-08-19T16:52:56Z</time>
      </trkpt>
      <trkpt lat="43.076812" lon="-4.730992">
        <time>2021-08-19T16:52:56Z</time>
      </trkpt>
      <trkpt lat="43.076715" lon="-4.730811">
        <time>2021-08-19T16:52:59Z</time>
      </trkpt>
      <trkpt lat="43.076427" lon="-4.730833">
        <time>2021-08-19T16:53:02Z</time>
      </trkpt>
      <trkpt lat="43.076427" lon="-4.730833">
        <time>2021-08-19T16:53:02Z</time>
      </trkpt>
      <trkpt lat="43.076072" lon="-4.730703">
        <time>2021-08-19T16:53:05Z</time>
      </trkpt>
      <trkpt lat="43.075717" lon="-4.730654">
        <time>2021-08-19T16:53:08Z</time>
      </trkpt>
      <trkpt lat="43.075411" lon="-4.730935">
        <time>2021-08-19T16:53:11Z</time>
      </trkpt>
      <trkpt lat="43.075178" lon="-4.73142">
        <time>2021-08-19T16:53:14Z</time>
      </trkpt>
      <trkpt lat="43.074926" lon="-4.731816">
        <time>2021-08-19T16:53:17Z</time>
      </trkpt>
      <trkpt lat="43.074602" lon="-4.73183">
        <time>2021-08-19T16:53:20Z</time>
      </trkpt>
      <trkpt lat="43.074227" lon="-4.731889">
        <time>2021-08-19T16:53:23Z</time>
      </trkpt>
      <trkpt lat="43.073903" lon="-4.73223">
        <time>2021-08-19T16:53:26Z</time>
      </trkpt>
      <trkpt lat="43.073588" lon="-4.732613">
        <time>2021-08-19T16:53:29Z</time>
      </trkpt>
      <trkpt lat="43.073287" lon="-4.732831">
        <time>2021-08-19T16:53:32Z</time>
      </trkpt>
      <trkpt lat="43.073066" lon="-4.732689">
        <time>2021-08-19T16:53:35Z</time>
      </trkpt>
      <trkpt lat="43.073148" lon="-4.732318">
        <time>2021-08-19T16:53:38Z</time>
      </trkpt>
      <trkpt lat="43.073475" lon="-4.732055">
        <time>2021-08-19T16:53:41Z</time>
      </trkpt>
      <trkpt lat="43.073475" lon="-4.732055">
        <time>2021-08-19T16:53:41Z</time>
      </trkpt>
      <trkpt lat="43.07384" lon="-4.73165">
        <time>2021-08-19T16:53:44Z</time>
      </trkpt>
      <trkpt lat="43.074452" lon="-4.731024">
        <time>2021-08-19T16:53:50Z</time>
      </trkpt>
      <trkpt lat="43.074603" lon="-4.730675">
        <time>2021-08-19T16:53:53Z</time>
      </trkpt>
      <trkpt lat="43.074676" lon="-4.730175">
        <time>2021-08-19T16:53:56Z</time>
      </trkpt>
      <trkpt lat="43.074787" lon="-4.72977">
        <time>2021-08-19T16:53:59Z</time>
      </trkpt>
      <trkpt lat="43.075078" lon="-4.729691">
        <time>2021-08-19T16:54:02Z</time>
      </trkpt>
      <trkpt lat="43.075448" lon="-4.729557">
        <time>2021-08-19T16:54:05Z</time>
      </trkpt>
      <trkpt lat="43.076217" lon="-4.729021">
        <time>2021-08-19T16:54:11Z</time>
      </trkpt>
      <trkpt lat="43.076748" lon="-4.728893">
        <time>2021-08-19T16:54:17Z</time>
      </trkpt>
      <trkpt lat="43.076851" lon="-4.728485">
        <time>2021-08-19T16:54:20Z</time>
      </trkpt>
      <trkpt lat="43.076851" lon="-4.728485">
        <time>2021-08-19T16:54:20Z</time>
      </trkpt>
      <trkpt lat="43.077076" lon="-4.728137">
        <time>2021-08-19T16:54:23Z</time>
      </trkpt>
      <trkpt lat="43.077367" lon="-4.728069">
        <time>2021-08-19T16:54:26Z</time>
      </trkpt>
      <trkpt lat="43.077589" lon="-4.727832">
        <time>2021-08-19T16:54:29Z</time>
      </trkpt>
      <trkpt lat="43.078036" lon="-4.726953">
        <time>2021-08-19T16:54:35Z</time>
      </trkpt>
      <trkpt lat="43.078891" lon="-4.725701">
        <time>2021-08-19T16:54:44Z</time>
      </trkpt>
      <trkpt lat="43.079671" lon="-4.725428">
        <time>2021-08-19T16:54:50Z</time>
      </trkpt>
      <trkpt lat="43.079931" lon="-4.725191">
        <time>2021-08-19T16:54:53Z</time>
      </trkpt>
      <trkpt lat="43.080241" lon="-4.724881">
        <time>2021-08-19T16:54:56Z</time>
      </trkpt>
      <trkpt lat="43.080241" lon="-4.724881">
        <time>2021-08-19T16:54:56Z</time>
      </trkpt>
      <trkpt lat="43.080491" lon="-4.724477">
        <time>2021-08-19T16:54:59Z</time>
      </trkpt>
      <trkpt lat="43.081568" lon="-4.72215">
        <time>2021-08-19T16:55:14Z</time>
      </trkpt>
      <trkpt lat="43.081823" lon="-4.722419">
        <time>2021-08-19T16:55:17Z</time>
      </trkpt>
      <trkpt lat="43.08228" lon="-4.723129">
        <time>2021-08-19T16:55:23Z</time>
      </trkpt>
      <trkpt lat="43.082572" lon="-4.723595">
        <time>2021-08-19T16:55:26Z</time>
      </trkpt>
      <trkpt lat="43.082964" lon="-4.723974">
        <time>2021-08-19T16:55:29Z</time>
      </trkpt>
      <trkpt lat="43.083366" lon="-4.724322">
        <time>2021-08-19T16:55:32Z</time>
      </trkpt>
      <trkpt lat="43.084079" lon="-4.724768">
        <time>2021-08-19T16:55:38Z</time>
      </trkpt>
      <trkpt lat="43.084894" lon="-4.724844">
        <time>2021-08-19T16:55:44Z</time>
      </trkpt>
      <trkpt lat="43.085661" lon="-4.725534">
        <time>2021-08-19T16:55:50Z</time>
      </trkpt>
      <trkpt lat="43.0861" lon="-4.725647">
        <time>2021-08-19T16:55:53Z</time>
      </trkpt>
      <trkpt lat="43.086356" lon="-4.725502">
        <time>2021-08-19T16:55:56Z</time>
      </trkpt>
      <trkpt lat="43.086529" lon="-4.725049">
        <time>2021-08-19T16:55:59Z</time>
      </trkpt>
      <trkpt lat="43.086529" lon="-4.725049">
        <time>2021-08-19T16:55:59Z</time>
      </trkpt>
      <trkpt lat="43.086529" lon="-4.725049">
        <time>2021-08-19T16:55:59Z</time>
      </trkpt>
      <trkpt lat="43.086529" lon="-4.725049">
        <time>2021-08-19T16:55:59Z</time>
      </trkpt>
      <trkpt lat="43.08681" lon="-4.724636">
        <time>2021-08-19T16:56:02Z</time>
      </trkpt>
      <trkpt lat="43.08712" lon="-4.724396">
        <time>2021-08-19T16:56:05Z</time>
      </trkpt>
      <trkpt lat="43.08717" lon="-4.72389">
        <time>2021-08-19T16:56:08Z</time>
      </trkpt>
      <trkpt lat="43.08717" lon="-4.72389">
        <time>2021-08-19T16:56:08Z</time>
      </trkpt>
      <trkpt lat="43.087232" lon="-4.72253">
        <time>2021-08-19T16:56:14Z</time>
      </trkpt>
      <trkpt lat="43.087831" lon="-4.720622">
        <time>2021-08-19T16:56:23Z</time>
      </trkpt>
      <trkpt lat="43.08801" lon="-4.720054">
        <time>2021-08-19T16:56:26Z</time>
      </trkpt>
      <trkpt lat="43.08801" lon="-4.720054">
        <time>2021-08-19T16:56:26Z</time>
      </trkpt>
      <trkpt lat="43.08801" lon="-4.720054">
        <time>2021-08-19T16:56:26Z</time>
      </trkpt>
      <trkpt lat="43.08801" lon="-4.720054">
        <time>2021-08-19T16:56:26Z</time>
      </trkpt>
      <trkpt lat="43.08801" lon="-4.720054">
        <time>2021-08-19T16:56:26Z</time>
      </trkpt>
      <trkpt lat="43.088053" lon="-4.719011">
        <time>2021-08-19T16:56:32Z</time>
      </trkpt>
      <trkpt lat="43.08787" lon="-4.718895">
        <time>2021-08-19T16:56:35Z</time>
      </trkpt>
      <trkpt lat="43.087788" lon="-4.719214">
        <time>2021-08-19T16:56:38Z</time>
      </trkpt>
      <trkpt lat="43.087815" lon="-4.719712">
        <time>2021-08-19T16:56:41Z</time>
      </trkpt>
      <trkpt lat="43.087694" lon="-4.720205">
        <time>2021-08-19T16:56:44Z</time>
      </trkpt>
      <trkpt lat="43.085844" lon="-4.722744">
        <time>2021-08-19T16:57:02Z</time>
      </trkpt>
      <trkpt lat="43.085133" lon="-4.722513">
        <time>2021-08-19T16:57:08Z</time>
      </trkpt>
      <trkpt lat="43.084825" lon="-4.722638">
        <time>2021-08-19T16:57:11Z</time>
      </trkpt>
      <trkpt lat="43.084469" lon="-4.722752">
        <time>2021-08-19T16:57:14Z</time>
      </trkpt>
      <trkpt lat="43.084162" lon="-4.722805">
        <time>2021-08-19T16:57:17Z</time>
      </trkpt>
      <trkpt lat="43.084015" lon="-4.722634">
        <time>2021-08-19T16:57:20Z</time>
      </trkpt>
      <trkpt lat="43.084115" lon="-4.722335">
        <time>2021-08-19T16:57:23Z</time>
      </trkpt>
      <trkpt lat="43.084412" lon="-4.722264">
        <time>2021-08-19T16:57:26Z</time>
      </trkpt>
      <trkpt lat="43.085677" lon="-4.721927">
        <time>2021-08-19T16:57:35Z</time>
      </trkpt>
      <trkpt lat="43.08602" lon="-4.721515">
        <time>2021-08-19T16:57:38Z</time>
      </trkpt>
      <trkpt lat="43.086842" lon="-4.719207">
        <time>2021-08-19T16:57:50Z</time>
      </trkpt>
      <trkpt lat="43.086742" lon="-4.718591">
        <time>2021-08-19T16:57:53Z</time>
      </trkpt>
      <trkpt lat="43.086742" lon="-4.718591">
        <time>2021-08-19T16:57:53Z</time>
      </trkpt>
      <trkpt lat="43.086772" lon="-4.717335">
        <time>2021-08-19T16:57:59Z</time>
      </trkpt>
      <trkpt lat="43.086932" lon="-4.716074">
        <time>2021-08-19T16:58:05Z</time>
      </trkpt>
      <trkpt lat="43.086977" lon="-4.715595">
        <time>2021-08-19T16:58:08Z</time>
      </trkpt>
      <trkpt lat="43.087221" lon="-4.715295">
        <time>2021-08-19T16:58:11Z</time>
      </trkpt>
      <trkpt lat="43.087564" lon="-4.715012">
        <time>2021-08-19T16:58:14Z</time>
      </trkpt>
      <trkpt lat="43.088005" lon="-4.714065">
        <time>2021-08-19T16:58:20Z</time>
      </trkpt>
      <trkpt lat="43.088191" lon="-4.713719">
        <time>2021-08-19T16:58:23Z</time>
      </trkpt>
      <trkpt lat="43.088553" lon="-4.713578">
        <time>2021-08-19T16:58:26Z</time>
      </trkpt>
      <trkpt lat="43.088939" lon="-4.713269">
        <time>2021-08-19T16:58:29Z</time>
      </trkpt>
      <trkpt lat="43.088939" lon="-4.713269">
        <time>2021-08-19T16:58:29Z</time>
      </trkpt>
      <trkpt lat="43.089865" lon="-4.712346">
        <time>2021-08-19T16:58:38Z</time>
      </trkpt>
      <trkpt lat="43.090477" lon="-4.712865">
        <time>2021-08-19T16:58:44Z</time>
      </trkpt>
      <trkpt lat="43.090738" lon="-4.71312">
        <time>2021-08-19T16:58:47Z</time>
      </trkpt>
      <trkpt lat="43.09101" lon="-4.713042">
        <time>2021-08-19T16:58:50Z</time>
      </trkpt>
      <trkpt lat="43.092133" lon="-4.712109">
        <time>2021-08-19T16:58:59Z</time>
      </trkpt>
      <trkpt lat="43.09276" lon="-4.712031">
        <time>2021-08-19T16:59:05Z</time>
      </trkpt>
      <trkpt lat="43.093021" lon="-4.712287">
        <time>2021-08-19T16:59:08Z</time>
      </trkpt>
      <trkpt lat="43.093608" lon="-4.712766">
        <time>2021-08-19T16:59:14Z</time>
      </trkpt>
      <trkpt lat="43.093856" lon="-4.712705">
        <time>2021-08-19T16:59:17Z</time>
      </trkpt>
      <trkpt lat="43.094129" lon="-4.712876">
        <time>2021-08-19T16:59:20Z</time>
      </trkpt>
      <trkpt lat="43.094675" lon="-4.713305">
        <time>2021-08-19T16:59:26Z</time>
      </trkpt>
      <trkpt lat="43.094884" lon="-4.71305">
        <time>2021-08-19T16:59:29Z</time>
      </trkpt>
      <trkpt lat="43.094901" lon="-4.712536">
        <time>2021-08-19T16:59:32Z</time>
      </trkpt>
      <trkpt lat="43.094919" lon="-4.709686">
        <time>2021-08-19T16:59:44Z</time>
      </trkpt>
      <trkpt lat="43.094845" lon="-4.707163">
        <time>2021-08-19T16:59:56Z</time>
      </trkpt>
      <trkpt lat="43.09509" lon="-4.706714">
        <time>2021-08-19T16:59:59Z</time>
      </trkpt>
      <trkpt lat="43.095173" lon="-4.706112">
        <time>2021-08-19T17:00:02Z</time>
      </trkpt>
      <trkpt lat="43.09527" lon="-4.70505">
        <time>2021-08-19T17:00:08Z</time>
      </trkpt>
      <trkpt lat="43.095599" lon="-4.704796">
        <time>2021-08-19T17:00:11Z</time>
      </trkpt>
      <trkpt lat="43.095989" lon="-4.704788">
        <time>2021-08-19T17:00:14Z</time>
      </trkpt>
      <trkpt lat="43.096315" lon="-4.705033">
        <time>2021-08-19T17:00:17Z</time>
      </trkpt>
      <trkpt lat="43.09705" lon="-4.705137">
        <time>2021-08-19T17:00:23Z</time>
      </trkpt>
      <trkpt lat="43.09723" lon="-4.704872">
        <time>2021-08-19T17:00:26Z</time>
      </trkpt>
      <trkpt lat="43.09731" lon="-4.704482">
        <time>2021-08-19T17:00:29Z</time>
      </trkpt>
      <trkpt lat="43.097619" lon="-4.704259">
        <time>2021-08-19T17:00:32Z</time>
      </trkpt>
      <trkpt lat="43.098024" lon="-4.703973">
        <time>2021-08-19T17:00:35Z</time>
      </trkpt>
      <trkpt lat="43.098653" lon="-4.70326">
        <time>2021-08-19T17:00:41Z</time>
      </trkpt>
      <trkpt lat="43.098604" lon="-4.702888">
        <time>2021-08-19T17:00:44Z</time>
      </trkpt>
      <trkpt lat="43.097959" lon="-4.702183">
        <time>2021-08-19T17:00:50Z</time>
      </trkpt>
      <trkpt lat="43.09751" lon="-4.701904">
        <time>2021-08-19T17:00:53Z</time>
      </trkpt>
      <trkpt lat="43.096924" lon="-4.701142">
        <time>2021-08-19T17:00:59Z</time>
      </trkpt>
      <trkpt lat="43.09675" lon="-4.700798">
        <time>2021-08-19T17:01:02Z</time>
      </trkpt>
      <trkpt lat="43.096413" lon="-4.700781">
        <time>2021-08-19T17:01:05Z</time>
      </trkpt>
      <trkpt lat="43.095431" lon="-4.700654">
        <time>2021-08-19T17:01:11Z</time>
      </trkpt>
      <trkpt lat="43.093476" lon="-4.699701">
        <time>2021-08-19T17:01:23Z</time>
      </trkpt>
      <trkpt lat="43.093476" lon="-4.699701">
        <time>2021-08-19T17:01:23Z</time>
      </trkpt>
      <trkpt lat="43.09337" lon="-4.699269">
        <time>2021-08-19T17:01:26Z</time>
      </trkpt>
      <trkpt lat="43.093511" lon="-4.698758">
        <time>2021-08-19T17:01:29Z</time>
      </trkpt>
      <trkpt lat="43.093952" lon="-4.697283">
        <time>2021-08-19T17:01:38Z</time>
      </trkpt>
      <trkpt lat="43.095284" lon="-4.695901">
        <time>2021-08-19T17:01:50Z</time>
      </trkpt>
      <trkpt lat="43.095254" lon="-4.695398">
        <time>2021-08-19T17:01:53Z</time>
      </trkpt>
      <trkpt lat="43.094997" lon="-4.694937">
        <time>2021-08-19T17:01:56Z</time>
      </trkpt>
      <trkpt lat="43.094647" lon="-4.694606">
        <time>2021-08-19T17:01:59Z</time>
      </trkpt>
      <trkpt lat="43.094371" lon="-4.694317">
        <time>2021-08-19T17:02:02Z</time>
      </trkpt>
      <trkpt lat="43.094306" lon="-4.693905">
        <time>2021-08-19T17:02:05Z</time>
      </trkpt>
      <trkpt lat="43.094454" lon="-4.69353">
        <time>2021-08-19T17:02:08Z</time>
      </trkpt>
      <trkpt lat="43.095165" lon="-4.692624">
        <time>2021-08-19T17:02:17Z</time>
      </trkpt>
      <trkpt lat="43.095118" lon="-4.692264">
        <time>2021-08-19T17:02:20Z</time>
      </trkpt>
      <trkpt lat="43.094788" lon="-4.691291">
        <time>2021-08-19T17:02:26Z</time>
      </trkpt>
      <trkpt lat="43.094648" lon="-4.690164">
        <time>2021-08-19T17:02:32Z</time>
      </trkpt>
      <trkpt lat="43.09483" lon="-4.689703">
        <time>2021-08-19T17:02:35Z</time>
      </trkpt>
      <trkpt lat="43.094921" lon="-4.689103">
        <time>2021-08-19T17:02:38Z</time>
      </trkpt>
      <trkpt lat="43.094921" lon="-4.689103">
        <time>2021-08-19T17:02:38Z</time>
      </trkpt>
      <trkpt lat="43.094866" lon="-4.684605">
        <time>2021-08-19T17:02:59Z</time>
      </trkpt>
      <trkpt lat="43.095161" lon="-4.684411">
        <time>2021-08-19T17:03:02Z</time>
      </trkpt>
      <trkpt lat="43.095484" lon="-4.68455">
        <time>2021-08-19T17:03:05Z</time>
      </trkpt>
      <trkpt lat="43.095829" lon="-4.684821">
        <time>2021-08-19T17:03:08Z</time>
      </trkpt>
      <trkpt lat="43.096264" lon="-4.684846">
        <time>2021-08-19T17:03:11Z</time>
      </trkpt>
      <trkpt lat="43.096264" lon="-4.684846">
        <time>2021-08-19T17:03:11Z</time>
      </trkpt>
      <trkpt lat="43.096685" lon="-4.684931">
        <time>2021-08-19T17:03:14Z</time>
      </trkpt>
      <trkpt lat="43.097023" lon="-4.684972">
        <time>2021-08-19T17:03:17Z</time>
      </trkpt>
      <trkpt lat="43.097662" lon="-4.684591">
        <time>2021-08-19T17:03:23Z</time>
      </trkpt>
      <trkpt lat="43.097661" lon="-4.68421">
        <time>2021-08-19T17:03:26Z</time>
      </trkpt>
      <trkpt lat="43.097641" lon="-4.683458">
        <time>2021-08-19T17:03:32Z</time>
      </trkpt>
      <trkpt lat="43.097944" lon="-4.683416">
        <time>2021-08-19T17:03:35Z</time>
      </trkpt>
      <trkpt lat="43.098594" lon="-4.683558">
        <time>2021-08-19T17:03:41Z</time>
      </trkpt>
      <trkpt lat="43.098826" lon="-4.683781">
        <time>2021-08-19T17:03:44Z</time>
      </trkpt>
      <trkpt lat="43.099027" lon="-4.683686">
        <time>2021-08-19T17:03:47Z</time>
      </trkpt>
      <trkpt lat="43.099121" lon="-4.683407">
        <time>2021-08-19T17:03:50Z</time>
      </trkpt>
      <trkpt lat="43.099047" lon="-4.683047">
        <time>2021-08-19T17:03:53Z</time>
      </trkpt>
      <trkpt lat="43.098801" lon="-4.682623">
        <time>2021-08-19T17:03:56Z</time>
      </trkpt>
      <trkpt lat="43.098801" lon="-4.682623">
        <time>2021-08-19T17:03:56Z</time>
      </trkpt>
      <trkpt lat="43.098488" lon="-4.682231">
        <time>2021-08-19T17:03:59Z</time>
      </trkpt>
      <trkpt lat="43.097756" lon="-4.680975">
        <time>2021-08-19T17:04:08Z</time>
      </trkpt>
      <trkpt lat="43.09701" lon="-4.681134">
        <time>2021-08-19T17:04:14Z</time>
      </trkpt>
      <trkpt lat="43.096332" lon="-4.681483">
        <time>2021-08-19T17:04:20Z</time>
      </trkpt>
      <trkpt lat="43.096028" lon="-4.681139">
        <time>2021-08-19T17:04:23Z</time>
      </trkpt>
      <trkpt lat="43.095086" lon="-4.679706">
        <time>2021-08-19T17:04:32Z</time>
      </trkpt>
      <trkpt lat="43.095086" lon="-4.679706">
        <time>2021-08-19T17:04:32Z</time>
      </trkpt>
      <trkpt lat="43.094735" lon="-4.678638">
        <time>2021-08-19T17:04:38Z</time>
      </trkpt>
      <trkpt lat="43.09462" lon="-4.677792">
        <time>2021-08-19T17:04:44Z</time>
      </trkpt>
      <trkpt lat="43.094178" lon="-4.677111">
        <time>2021-08-19T17:04:50Z</time>
      </trkpt>
      <trkpt lat="43.09397" lon="-4.676552">
        <time>2021-08-19T17:04:53Z</time>
      </trkpt>
      <trkpt lat="43.093208" lon="-4.674993">
        <time>2021-08-19T17:05:02Z</time>
      </trkpt>
      <trkpt lat="43.093273" lon="-4.674481">
        <time>2021-08-19T17:05:05Z</time>
      </trkpt>
      <trkpt lat="43.093405" lon="-4.673937">
        <time>2021-08-19T17:05:08Z</time>
      </trkpt>
      <trkpt lat="43.09354" lon="-4.672946">
        <time>2021-08-19T17:05:14Z</time>
      </trkpt>
      <trkpt lat="43.093287" lon="-4.67176">
        <time>2021-08-19T17:05:20Z</time>
      </trkpt>
      <trkpt lat="43.092739" lon="-4.670782">
        <time>2021-08-19T17:05:26Z</time>
      </trkpt>
      <trkpt lat="43.092572" lon="-4.669699">
        <time>2021-08-19T17:05:32Z</time>
      </trkpt>
      <trkpt lat="43.092758" lon="-4.669284">
        <time>2021-08-19T17:05:35Z</time>
      </trkpt>
      <trkpt lat="43.092942" lon="-4.668819">
        <time>2021-08-19T17:05:38Z</time>
      </trkpt>
      <trkpt lat="43.092995" lon="-4.668338">
        <time>2021-08-19T17:05:41Z</time>
      </trkpt>
      <trkpt lat="43.092824" lon="-4.668038">
        <time>2021-08-19T17:05:44Z</time>
      </trkpt>
      <trkpt lat="43.092824" lon="-4.668038">
        <time>2021-08-19T17:05:44Z</time>
      </trkpt>
      <trkpt lat="43.092569" lon="-4.668153">
        <time>2021-08-19T17:05:47Z</time>
      </trkpt>
      <trkpt lat="43.092115" lon="-4.668962">
        <time>2021-08-19T17:05:53Z</time>
      </trkpt>
      <trkpt lat="43.091531" lon="-4.673351">
        <time>2021-08-19T17:06:15Z</time>
      </trkpt>
      <trkpt lat="43.091531" lon="-4.673351">
        <time>2021-08-19T17:06:15Z</time>
      </trkpt>
      <trkpt lat="43.091389" lon="-4.67356">
        <time>2021-08-19T17:06:18Z</time>
      </trkpt>
      <trkpt lat="43.091266" lon="-4.673469">
        <time>2021-08-19T17:06:21Z</time>
      </trkpt>
      <trkpt lat="43.091218" lon="-4.673046">
        <time>2021-08-19T17:06:24Z</time>
      </trkpt>
      <trkpt lat="43.091167" lon="-4.671308">
        <time>2021-08-19T17:06:33Z</time>
      </trkpt>
      <trkpt lat="43.091167" lon="-4.671308">
        <time>2021-08-19T17:06:33Z</time>
      </trkpt>
      <trkpt lat="43.09098" lon="-4.670245">
        <time>2021-08-19T17:06:39Z</time>
      </trkpt>
      <trkpt lat="43.091115" lon="-4.669826">
        <time>2021-08-19T17:06:42Z</time>
      </trkpt>
      <trkpt lat="43.091267" lon="-4.669391">
        <time>2021-08-19T17:06:45Z</time>
      </trkpt>
      <trkpt lat="43.091259" lon="-4.668857">
        <time>2021-08-19T17:06:48Z</time>
      </trkpt>
      <trkpt lat="43.09125" lon="-4.667776">
        <time>2021-08-19T17:06:54Z</time>
      </trkpt>
      <trkpt lat="43.091441" lon="-4.667248">
        <time>2021-08-19T17:06:57Z</time>
      </trkpt>
      <trkpt lat="43.092134" lon="-4.665756">
        <time>2021-08-19T17:07:06Z</time>
      </trkpt>
      <trkpt lat="43.092528" lon="-4.665406">
        <time>2021-08-19T17:07:09Z</time>
      </trkpt>
      <trkpt lat="43.092891" lon="-4.665046">
        <time>2021-08-19T17:07:12Z</time>
      </trkpt>
      <trkpt lat="43.093082" lon="-4.664496">
        <time>2021-08-19T17:07:15Z</time>
      </trkpt>
      <trkpt lat="43.093082" lon="-4.664496">
        <time>2021-08-19T17:07:16Z</time>
      </trkpt>
      <trkpt lat="43.093386" lon="-4.662595">
        <time>2021-08-19T17:07:24Z</time>
      </trkpt>
      <trkpt lat="43.093692" lon="-4.662191">
        <time>2021-08-19T17:07:27Z</time>
      </trkpt>
      <trkpt lat="43.094419" lon="-4.661449">
        <time>2021-08-19T17:07:33Z</time>
      </trkpt>
      <trkpt lat="43.095036" lon="-4.660589">
        <time>2021-08-19T17:07:39Z</time>
      </trkpt>
      <trkpt lat="43.095036" lon="-4.660589">
        <time>2021-08-19T17:07:39Z</time>
      </trkpt>
      <trkpt lat="43.095061" lon="-4.66009">
        <time>2021-08-19T17:07:42Z</time>
      </trkpt>
      <trkpt lat="43.095109" lon="-4.659617">
        <time>2021-08-19T17:07:45Z</time>
      </trkpt>
      <trkpt lat="43.095351" lon="-4.659346">
        <time>2021-08-19T17:07:48Z</time>
      </trkpt>
      <trkpt lat="43.096478" lon="-4.658767">
        <time>2021-08-19T17:07:57Z</time>
      </trkpt>
      <trkpt lat="43.09672" lon="-4.658409">
        <time>2021-08-19T17:08:00Z</time>
      </trkpt>
      <trkpt lat="43.096794" lon="-4.657953">
        <time>2021-08-19T17:08:03Z</time>
      </trkpt>
      <trkpt lat="43.096869" lon="-4.657137">
        <time>2021-08-19T17:08:09Z</time>
      </trkpt>
      <trkpt lat="43.097057" lon="-4.656874">
        <time>2021-08-19T17:08:12Z</time>
      </trkpt>
      <trkpt lat="43.097198" lon="-4.656581">
        <time>2021-08-19T17:08:15Z</time>
      </trkpt>
      <trkpt lat="43.097117" lon="-4.656218">
        <time>2021-08-19T17:08:18Z</time>
      </trkpt>
      <trkpt lat="43.096933" lon="-4.655834">
        <time>2021-08-19T17:08:21Z</time>
      </trkpt>
      <trkpt lat="43.096479" lon="-4.654462">
        <time>2021-08-19T17:08:30Z</time>
      </trkpt>
      <trkpt lat="43.096469" lon="-4.653956">
        <time>2021-08-19T17:08:33Z</time>
      </trkpt>
      <trkpt lat="43.096797" lon="-4.651543">
        <time>2021-08-19T17:08:48Z</time>
      </trkpt>
      <trkpt lat="43.096974" lon="-4.651246">
        <time>2021-08-19T17:08:51Z</time>
      </trkpt>
      <trkpt lat="43.097195" lon="-4.650855">
        <time>2021-08-19T17:10:18Z</time>
      </trkpt>
      <trkpt lat="43.097195" lon="-4.650855">
        <time>2021-08-19T17:11:01Z</time>
      </trkpt>
      <trkpt lat="43.097195" lon="-4.650855">
        <time>2021-08-19T17:11:25Z</time>
      </trkpt>
      <trkpt lat="43.097327" lon="-4.6505">
        <time>2021-08-19T17:12:00Z</time>
      </trkpt>
      <trkpt lat="43.097419" lon="-4.650101">
        <time>2021-08-19T17:12:03Z</time>
      </trkpt>
      <trkpt lat="43.097692" lon="-4.649258">
        <time>2021-08-19T17:12:09Z</time>
      </trkpt>
      <trkpt lat="43.098497" lon="-4.647776">
        <time>2021-08-19T17:12:21Z</time>
      </trkpt>
      <trkpt lat="43.099692" lon="-4.646996">
        <time>2021-08-19T17:12:33Z</time>
      </trkpt>
      <trkpt lat="43.100293" lon="-4.646722">
        <time>2021-08-19T17:12:42Z</time>
      </trkpt>
      <trkpt lat="43.100448" lon="-4.646548">
        <time>2021-08-19T17:12:45Z</time>
      </trkpt>
      <trkpt lat="43.100916" lon="-4.646092">
        <time>2021-08-19T17:12:51Z</time>
      </trkpt>
      <trkpt lat="43.101234" lon="-4.645917">
        <time>2021-08-19T17:12:54Z</time>
      </trkpt>
      <trkpt lat="43.101234" lon="-4.645917">
        <time>2021-08-19T17:12:57Z</time>
      </trkpt>
      <trkpt lat="43.102305" lon="-4.645287">
        <time>2021-08-19T17:13:03Z</time>
      </trkpt>
      <trkpt lat="43.102841" lon="-4.644661">
        <time>2021-08-19T17:13:09Z</time>
      </trkpt>
      <trkpt lat="43.103122" lon="-4.643805">
        <time>2021-08-19T17:13:15Z</time>
      </trkpt>
      <trkpt lat="43.10332" lon="-4.643429">
        <time>2021-08-19T17:13:18Z</time>
      </trkpt>
      <trkpt lat="43.103592" lon="-4.64271">
        <time>2021-08-19T17:13:24Z</time>
      </trkpt>
      <trkpt lat="43.104273" lon="-4.642076">
        <time>2021-08-19T17:13:30Z</time>
      </trkpt>
      <trkpt lat="43.104273" lon="-4.642076">
        <time>2021-08-19T17:13:30Z</time>
      </trkpt>
      <trkpt lat="43.105322" lon="-4.64111">
        <time>2021-08-19T17:13:39Z</time>
      </trkpt>
      <trkpt lat="43.105714" lon="-4.641019">
        <time>2021-08-19T17:13:42Z</time>
      </trkpt>
      <trkpt lat="43.107809" lon="-4.641777">
        <time>2021-08-19T17:13:57Z</time>
      </trkpt>
      <trkpt lat="43.108707" lon="-4.64207">
        <time>2021-08-19T17:14:03Z</time>
      </trkpt>
      <trkpt lat="43.108707" lon="-4.64207">
        <time>2021-08-19T17:14:03Z</time>
      </trkpt>
      <trkpt lat="43.109767" lon="-4.641996">
        <time>2021-08-19T17:14:12Z</time>
      </trkpt>
      <trkpt lat="43.109783" lon="-4.641566">
        <time>2021-08-19T17:14:15Z</time>
      </trkpt>
      <trkpt lat="43.10993" lon="-4.641254">
        <time>2021-08-19T17:14:18Z</time>
      </trkpt>
      <trkpt lat="43.110582" lon="-4.640843">
        <time>2021-08-19T17:14:24Z</time>
      </trkpt>
      <trkpt lat="43.110821" lon="-4.640705">
        <time>2021-08-19T17:14:27Z</time>
      </trkpt>
      <trkpt lat="43.111338" lon="-4.639448">
        <time>2021-08-19T17:14:36Z</time>
      </trkpt>
      <trkpt lat="43.111612" lon="-4.639229">
        <time>2021-08-19T17:14:39Z</time>
      </trkpt>
      <trkpt lat="43.111961" lon="-4.639176">
        <time>2021-08-19T17:14:42Z</time>
      </trkpt>
      <trkpt lat="43.112388" lon="-4.639241">
        <time>2021-08-19T17:14:45Z</time>
      </trkpt>
      <trkpt lat="43.112862" lon="-4.639316">
        <time>2021-08-19T17:14:48Z</time>
      </trkpt>
      <trkpt lat="43.113694" lon="-4.638952">
        <time>2021-08-19T17:14:54Z</time>
      </trkpt>
      <trkpt lat="43.113902" lon="-4.638444">
        <time>2021-08-19T17:14:57Z</time>
      </trkpt>
      <trkpt lat="43.113969" lon="-4.637878">
        <time>2021-08-19T17:15:00Z</time>
      </trkpt>
      <trkpt lat="43.113929" lon="-4.637119">
        <time>2021-08-19T17:15:06Z</time>
      </trkpt>
      <trkpt lat="43.113727" lon="-4.637034">
        <time>2021-08-19T17:15:09Z</time>
      </trkpt>
      <trkpt lat="43.113523" lon="-4.636975">
        <time>2021-08-19T17:15:12Z</time>
      </trkpt>
      <trkpt lat="43.113446" lon="-4.636631">
        <time>2021-08-19T17:15:15Z</time>
      </trkpt>
      <trkpt lat="43.113573" lon="-4.635751">
        <time>2021-08-19T17:15:21Z</time>
      </trkpt>
      <trkpt lat="43.113884" lon="-4.635525">
        <time>2021-08-19T17:15:24Z</time>
      </trkpt>
      <trkpt lat="43.114271" lon="-4.635381">
        <time>2021-08-19T17:15:27Z</time>
      </trkpt>
      <trkpt lat="43.114969" lon="-4.634844">
        <time>2021-08-19T17:15:33Z</time>
      </trkpt>
      <trkpt lat="43.115232" lon="-4.634688">
        <time>2021-08-19T17:15:36Z</time>
      </trkpt>
      <trkpt lat="43.115919" lon="-4.634395">
        <time>2021-08-19T17:15:42Z</time>
      </trkpt>
      <trkpt lat="43.116074" lon="-4.633972">
        <time>2021-08-19T17:15:45Z</time>
      </trkpt>
      <trkpt lat="43.116242" lon="-4.633477">
        <time>2021-08-19T17:15:48Z</time>
      </trkpt>
      <trkpt lat="43.117043" lon="-4.632129">
        <time>2021-08-19T17:15:57Z</time>
      </trkpt>
      <trkpt lat="43.117569" lon="-4.631215">
        <time>2021-08-19T17:16:03Z</time>
      </trkpt>
      <trkpt lat="43.118531" lon="-4.629842">
        <time>2021-08-19T17:16:12Z</time>
      </trkpt>
      <trkpt lat="43.120086" lon="-4.628692">
        <time>2021-08-19T17:16:24Z</time>
      </trkpt>
      <trkpt lat="43.120866" lon="-4.628919">
        <time>2021-08-19T17:16:30Z</time>
      </trkpt>
      <trkpt lat="43.121491" lon="-4.629273">
        <time>2021-08-19T17:16:36Z</time>
      </trkpt>
      <trkpt lat="43.121491" lon="-4.629273">
        <time>2021-08-19T17:16:36Z</time>
      </trkpt>
      <trkpt lat="43.12345" lon="-4.629012">
        <time>2021-08-19T17:16:51Z</time>
      </trkpt>
      <trkpt lat="43.124255" lon="-4.628733">
        <time>2021-08-19T17:16:57Z</time>
      </trkpt>
      <trkpt lat="43.125075" lon="-4.628578">
        <time>2021-08-19T17:17:03Z</time>
      </trkpt>
      <trkpt lat="43.125451" lon="-4.628556">
        <time>2021-08-19T17:17:06Z</time>
      </trkpt>
      <trkpt lat="43.125788" lon="-4.628831">
        <time>2021-08-19T17:17:09Z</time>
      </trkpt>
      <trkpt lat="43.126192" lon="-4.628889">
        <time>2021-08-19T17:17:12Z</time>
      </trkpt>
      <trkpt lat="43.126192" lon="-4.628889">
        <time>2021-08-19T17:17:12Z</time>
      </trkpt>
      <trkpt lat="43.127406" lon="-4.629187">
        <time>2021-08-19T17:17:21Z</time>
      </trkpt>
      <trkpt lat="43.128269" lon="-4.629238">
        <time>2021-08-19T17:17:27Z</time>
      </trkpt>
      <trkpt lat="43.12866" lon="-4.629428">
        <time>2021-08-19T17:17:30Z</time>
      </trkpt>
      <trkpt lat="43.130257" lon="-4.630778">
        <time>2021-08-19T17:17:42Z</time>
      </trkpt>
      <trkpt lat="43.130535" lon="-4.630965">
        <time>2021-08-19T17:17:45Z</time>
      </trkpt>
      <trkpt lat="43.130535" lon="-4.630965">
        <time>2021-08-19T17:17:45Z</time>
      </trkpt>
      <trkpt lat="43.131735" lon="-4.631036">
        <time>2021-08-19T17:17:54Z</time>
      </trkpt>
      <trkpt lat="43.132085" lon="-4.630902">
        <time>2021-08-19T17:17:57Z</time>
      </trkpt>
      <trkpt lat="43.133449" lon="-4.630288">
        <time>2021-08-19T17:18:09Z</time>
      </trkpt>
      <trkpt lat="43.135085" lon="-4.630535">
        <time>2021-08-19T17:18:21Z</time>
      </trkpt>
      <trkpt lat="43.135085" lon="-4.630535">
        <time>2021-08-19T17:18:21Z</time>
      </trkpt>
      <trkpt lat="43.137587" lon="-4.629151">
        <time>2021-08-19T17:18:39Z</time>
      </trkpt>
      <trkpt lat="43.139251" lon="-4.628204">
        <time>2021-08-19T17:18:51Z</time>
      </trkpt>
      <trkpt lat="43.139251" lon="-4.628204">
        <time>2021-08-19T17:18:51Z</time>
      </trkpt>
      <trkpt lat="43.142185" lon="-4.627598">
        <time>2021-08-19T17:19:09Z</time>
      </trkpt>
      <trkpt lat="43.14357" lon="-4.627802">
        <time>2021-08-19T17:19:18Z</time>
      </trkpt>
      <trkpt lat="43.144058" lon="-4.627659">
        <time>2021-08-19T17:19:21Z</time>
      </trkpt>
      <trkpt lat="43.145325" lon="-4.627477">
        <time>2021-08-19T17:19:30Z</time>
      </trkpt>
      <trkpt lat="43.146166" lon="-4.627191">
        <time>2021-08-19T17:19:36Z</time>
      </trkpt>
      <trkpt lat="43.147474" lon="-4.626822">
        <time>2021-08-19T17:19:45Z</time>
      </trkpt>
      <trkpt lat="43.148719" lon="-4.626115">
        <time>2021-08-19T17:19:54Z</time>
      </trkpt>
      <trkpt lat="43.14977" lon="-4.625395">
        <time>2021-08-19T17:20:03Z</time>
      </trkpt>
      <trkpt lat="43.152518" lon="-4.622729">
        <time>2021-08-19T17:20:33Z</time>
      </trkpt>
      <trkpt lat="43.152518" lon="-4.622729">
        <time>2021-08-19T17:20:33Z</time>
      </trkpt>
      <trkpt lat="43.152704" lon="-4.62243">
        <time>2021-08-19T17:20:42Z</time>
      </trkpt>
      <trkpt lat="43.152878" lon="-4.622105">
        <time>2021-08-19T17:20:48Z</time>
      </trkpt>
      <trkpt lat="43.153073" lon="-4.621886">
        <time>2021-08-19T17:20:51Z</time>
      </trkpt>
      <trkpt lat="43.153928" lon="-4.620989">
        <time>2021-08-19T17:21:03Z</time>
      </trkpt>
      <trkpt lat="43.154392" lon="-4.620714">
        <time>2021-08-19T17:21:09Z</time>
      </trkpt>
      <trkpt lat="43.154632" lon="-4.620516">
        <time>2021-08-19T17:21:12Z</time>
      </trkpt>
      <trkpt lat="43.154829" lon="-4.620422">
        <time>2021-08-19T17:21:15Z</time>
      </trkpt>
      <trkpt lat="43.15493" lon="-4.620486">
        <time>2021-08-19T17:21:18Z</time>
      </trkpt>
      <trkpt lat="43.154921" lon="-4.620566">
        <time>2021-08-19T17:21:24Z</time>
      </trkpt>
      <trkpt lat="43.154827" lon="-4.620649">
        <time>2021-08-19T17:21:30Z</time>
      </trkpt>
      <trkpt lat="43.154754" lon="-4.62078">
        <time>2021-08-19T17:21:33Z</time>
      </trkpt>
      <trkpt lat="43.154518" lon="-4.621234">
        <time>2021-08-19T17:21:42Z</time>
      </trkpt>
      <trkpt lat="43.154436" lon="-4.62137">
        <time>2021-08-19T17:21:45Z</time>
      </trkpt>
      <trkpt lat="43.153965" lon="-4.621895">
        <time>2021-08-19T17:22:03Z</time>
      </trkpt>
      <trkpt lat="43.153917" lon="-4.621984">
        <time>2021-08-19T17:22:06Z</time>
      </trkpt>
      <trkpt lat="43.15375" lon="-4.622209">
        <time>2021-08-19T17:22:15Z</time>
      </trkpt>
      <trkpt lat="43.15375" lon="-4.622209">
        <time>2021-08-19T17:22:15Z</time>
      </trkpt>
      <trkpt lat="43.153648" lon="-4.62242">
        <time>2021-08-19T17:22:33Z</time>
      </trkpt>
      <trkpt lat="43.153684" lon="-4.622737">
        <time>2021-08-19T17:22:39Z</time>
      </trkpt>
      <trkpt lat="43.153687" lon="-4.623089">
        <time>2021-08-19T17:22:48Z</time>
      </trkpt>
      <trkpt lat="43.153555" lon="-4.623452">
        <time>2021-08-19T17:22:57Z</time>
      </trkpt>
      <trkpt lat="43.153912" lon="-4.624102">
        <time>2021-08-19T17:23:36Z</time>
      </trkpt>
      <trkpt lat="43.153956" lon="-4.624231">
        <time>2021-08-19T17:23:39Z</time>
      </trkpt>
      <trkpt lat="43.154005" lon="-4.624521">
        <time>2021-08-19T17:23:42Z</time>
      </trkpt>
      <trkpt lat="43.154003" lon="-4.624777">
        <time>2021-08-19T17:23:45Z</time>
      </trkpt>
      <trkpt lat="43.153858" lon="-4.626926">
        <time>2021-08-19T17:24:06Z</time>
      </trkpt>
      <trkpt lat="43.153831" lon="-4.62821">
        <time>2021-08-19T17:24:15Z</time>
      </trkpt>
      <trkpt lat="43.153773" lon="-4.631379">
        <time>2021-08-19T17:24:30Z</time>
      </trkpt>
      <trkpt lat="43.154367" lon="-4.633092">
        <time>2021-08-19T17:24:39Z</time>
      </trkpt>
      <trkpt lat="43.154763" lon="-4.634226">
        <time>2021-08-19T17:24:45Z</time>
      </trkpt>
      <trkpt lat="43.154763" lon="-4.634226">
        <time>2021-08-19T17:24:45Z</time>
      </trkpt>
      <trkpt lat="43.15497" lon="-4.635872">
        <time>2021-08-19T17:24:54Z</time>
      </trkpt>
      <trkpt lat="43.155959" lon="-4.63816">
        <time>2021-08-19T17:25:09Z</time>
      </trkpt>
      <trkpt lat="43.156698" lon="-4.639738">
        <time>2021-08-19T17:25:18Z</time>
      </trkpt>
      <trkpt lat="43.156698" lon="-4.639738">
        <time>2021-08-19T17:25:18Z</time>
      </trkpt>
      <trkpt lat="43.157398" lon="-4.641818">
        <time>2021-08-19T17:25:30Z</time>
      </trkpt>
      <trkpt lat="43.157966" lon="-4.64264">
        <time>2021-08-19T17:25:36Z</time>
      </trkpt>
      <trkpt lat="43.158061" lon="-4.643208">
        <time>2021-08-19T17:25:39Z</time>
      </trkpt>
      <trkpt lat="43.158417" lon="-4.645057">
        <time>2021-08-19T17:25:48Z</time>
      </trkpt>
      <trkpt lat="43.158529" lon="-4.645625">
        <time>2021-08-19T17:25:51Z</time>
      </trkpt>
      <trkpt lat="43.158529" lon="-4.645625">
        <time>2021-08-19T17:25:51Z</time>
      </trkpt>
      <trkpt lat="43.158463" lon="-4.646709">
        <time>2021-08-19T17:25:57Z</time>
      </trkpt>
      <trkpt lat="43.158249" lon="-4.647151">
        <time>2021-08-19T17:26:00Z</time>
      </trkpt>
      <trkpt lat="43.158061" lon="-4.647575">
        <time>2021-08-19T17:26:03Z</time>
      </trkpt>
      <trkpt lat="43.157683" lon="-4.648385">
        <time>2021-08-19T17:26:09Z</time>
      </trkpt>
      <trkpt lat="43.157075" lon="-4.64901">
        <time>2021-08-19T17:26:15Z</time>
      </trkpt>
      <trkpt lat="43.156749" lon="-4.649815">
        <time>2021-08-19T17:26:21Z</time>
      </trkpt>
      <trkpt lat="43.156379" lon="-4.650958">
        <time>2021-08-19T17:26:27Z</time>
      </trkpt>
      <trkpt lat="43.156164" lon="-4.652213">
        <time>2021-08-19T17:26:33Z</time>
      </trkpt>
      <trkpt lat="43.156891" lon="-4.654748">
        <time>2021-08-19T17:26:45Z</time>
      </trkpt>
      <trkpt lat="43.157281" lon="-4.655944">
        <time>2021-08-19T17:26:51Z</time>
      </trkpt>
      <trkpt lat="43.157455" lon="-4.657309">
        <time>2021-08-19T17:26:57Z</time>
      </trkpt>
      <trkpt lat="43.157828" lon="-4.661156">
        <time>2021-08-19T17:27:12Z</time>
      </trkpt>
      <trkpt lat="43.157316" lon="-4.6634">
        <time>2021-08-19T17:27:21Z</time>
      </trkpt>
      <trkpt lat="43.157091" lon="-4.664188">
        <time>2021-08-19T17:27:24Z</time>
      </trkpt>
      <trkpt lat="43.156368" lon="-4.66704">
        <time>2021-08-19T17:27:36Z</time>
      </trkpt>
      <trkpt lat="43.156077" lon="-4.667459">
        <time>2021-08-19T17:27:39Z</time>
      </trkpt>
      <trkpt lat="43.155373" lon="-4.66827">
        <time>2021-08-19T17:27:45Z</time>
      </trkpt>
      <trkpt lat="43.155195" lon="-4.668802">
        <time>2021-08-19T17:27:48Z</time>
      </trkpt>
      <trkpt lat="43.155195" lon="-4.668802">
        <time>2021-08-19T17:27:48Z</time>
      </trkpt>
      <trkpt lat="43.153301" lon="-4.673721">
        <time>2021-08-19T17:28:15Z</time>
      </trkpt>
      <trkpt lat="43.153031" lon="-4.67413">
        <time>2021-08-19T17:28:18Z</time>
      </trkpt>
      <trkpt lat="43.152848" lon="-4.674633">
        <time>2021-08-19T17:28:21Z</time>
      </trkpt>
      <trkpt lat="43.152438" lon="-4.675594">
        <time>2021-08-19T17:28:27Z</time>
      </trkpt>
      <trkpt lat="43.15229" lon="-4.67597">
        <time>2021-08-19T17:28:30Z</time>
      </trkpt>
      <trkpt lat="43.152302" lon="-4.676413">
        <time>2021-08-19T17:28:33Z</time>
      </trkpt>
      <trkpt lat="43.152467" lon="-4.676866">
        <time>2021-08-19T17:28:36Z</time>
      </trkpt>
      <trkpt lat="43.153084" lon="-4.678583">
        <time>2021-08-19T17:28:45Z</time>
      </trkpt>
      <trkpt lat="43.1534" lon="-4.680358">
        <time>2021-08-19T17:28:54Z</time>
      </trkpt>
      <trkpt lat="43.154119" lon="-4.682692">
        <time>2021-08-19T17:29:06Z</time>
      </trkpt>
      <trkpt lat="43.154957" lon="-4.685164">
        <time>2021-08-19T17:29:21Z</time>
      </trkpt>
      <trkpt lat="43.15523" lon="-4.685466">
        <time>2021-08-19T17:29:24Z</time>
      </trkpt>
      <trkpt lat="43.155542" lon="-4.685701">
        <time>2021-08-19T17:29:27Z</time>
      </trkpt>
      <trkpt lat="43.155542" lon="-4.685701">
        <time>2021-08-19T17:29:27Z</time>
      </trkpt>
      <trkpt lat="43.155542" lon="-4.685701">
        <time>2021-08-19T17:29:27Z</time>
      </trkpt>
      <trkpt lat="43.155542" lon="-4.685701">
        <time>2021-08-19T17:29:27Z</time>
      </trkpt>
      <trkpt lat="43.155542" lon="-4.685701">
        <time>2021-08-19T17:29:27Z</time>
      </trkpt>
      <trkpt lat="43.155706" lon="-4.686028">
        <time>2021-08-19T17:29:30Z</time>
      </trkpt>
      <trkpt lat="43.155742" lon="-4.686304">
        <time>2021-08-19T17:29:33Z</time>
      </trkpt>
      <trkpt lat="43.155628" lon="-4.687375">
        <time>2021-08-19T17:29:45Z</time>
      </trkpt>
      <trkpt lat="43.155495" lon="-4.687847">
        <time>2021-08-19T17:29:51Z</time>
      </trkpt>
      <trkpt lat="43.155351" lon="-4.688288">
        <time>2021-08-19T17:29:57Z</time>
      </trkpt>
      <trkpt lat="43.155103" lon="-4.688981">
        <time>2021-08-19T17:30:06Z</time>
      </trkpt>
      <trkpt lat="43.154976" lon="-4.689185">
        <time>2021-08-19T17:30:09Z</time>
      </trkpt>
      <trkpt lat="43.154518" lon="-4.689491">
        <time>2021-08-19T17:30:21Z</time>
      </trkpt>
      <trkpt lat="43.153259" lon="-4.690068">
        <time>2021-08-19T17:30:33Z</time>
      </trkpt>
      <trkpt lat="43.152427" lon="-4.690616">
        <time>2021-08-19T17:30:42Z</time>
      </trkpt>
      <trkpt lat="43.151416" lon="-4.692485">
        <time>2021-08-19T17:31:03Z</time>
      </trkpt>
      <trkpt lat="43.150936" lon="-4.694762">
        <time>2021-08-19T17:31:18Z</time>
      </trkpt>
      <trkpt lat="43.1507" lon="-4.695063">
        <time>2021-08-19T17:31:21Z</time>
      </trkpt>
      <trkpt lat="43.150434" lon="-4.69527">
        <time>2021-08-19T17:31:24Z</time>
      </trkpt>
      <trkpt lat="43.147544" lon="-4.697775">
        <time>2021-08-19T17:31:51Z</time>
      </trkpt>
      <trkpt lat="43.147382" lon="-4.698383">
        <time>2021-08-19T17:31:54Z</time>
      </trkpt>
      <trkpt lat="43.147377" lon="-4.699056">
        <time>2021-08-19T17:31:57Z</time>
      </trkpt>
      <trkpt lat="43.147377" lon="-4.699056">
        <time>2021-08-19T17:31:57Z</time>
      </trkpt>
      <trkpt lat="43.147623" lon="-4.700318">
        <time>2021-08-19T17:32:03Z</time>
      </trkpt>
      <trkpt lat="43.14779" lon="-4.700788">
        <time>2021-08-19T17:32:06Z</time>
      </trkpt>
      <trkpt lat="43.148343" lon="-4.70208">
        <time>2021-08-19T17:32:15Z</time>
      </trkpt>
      <trkpt lat="43.148176" lon="-4.702536">
        <time>2021-08-19T17:32:18Z</time>
      </trkpt>
      <trkpt lat="43.147157" lon="-4.703565">
        <time>2021-08-19T17:32:27Z</time>
      </trkpt>
      <trkpt lat="43.146763" lon="-4.703605">
        <time>2021-08-19T17:32:30Z</time>
      </trkpt>
      <trkpt lat="43.146763" lon="-4.703605">
        <time>2021-08-19T17:32:30Z</time>
      </trkpt>
      <trkpt lat="43.143783" lon="-4.703761">
        <time>2021-08-19T17:32:54Z</time>
      </trkpt>
      <trkpt lat="43.14343" lon="-4.704008">
        <time>2021-08-19T17:32:57Z</time>
      </trkpt>
      <trkpt lat="43.143195" lon="-4.70439">
        <time>2021-08-19T17:33:00Z</time>
      </trkpt>
      <trkpt lat="43.143038" lon="-4.704879">
        <time>2021-08-19T17:33:03Z</time>
      </trkpt>
      <trkpt lat="43.142967" lon="-4.70544">
        <time>2021-08-19T17:33:06Z</time>
      </trkpt>
      <trkpt lat="43.142912" lon="-4.706552">
        <time>2021-08-19T17:33:12Z</time>
      </trkpt>
      <trkpt lat="43.142834" lon="-4.707574">
        <time>2021-08-19T17:33:18Z</time>
      </trkpt>
      <trkpt lat="43.142866" lon="-4.708613">
        <time>2021-08-19T17:33:24Z</time>
      </trkpt>
      <trkpt lat="43.142861" lon="-4.709101">
        <time>2021-08-19T17:33:27Z</time>
      </trkpt>
      <trkpt lat="43.1425" lon="-4.709937">
        <time>2021-08-19T17:33:33Z</time>
      </trkpt>
      <trkpt lat="43.141479" lon="-4.711032">
        <time>2021-08-19T17:33:45Z</time>
      </trkpt>
      <trkpt lat="43.141479" lon="-4.711032">
        <time>2021-08-19T17:33:45Z</time>
      </trkpt>
      <trkpt lat="43.138834" lon="-4.711985">
        <time>2021-08-19T17:34:09Z</time>
      </trkpt>
      <trkpt lat="43.138569" lon="-4.711895">
        <time>2021-08-19T17:34:12Z</time>
      </trkpt>
      <trkpt lat="43.137962" lon="-4.71169">
        <time>2021-08-19T17:34:18Z</time>
      </trkpt>
      <trkpt lat="43.1373" lon="-4.711912">
        <time>2021-08-19T17:34:24Z</time>
      </trkpt>
      <trkpt lat="43.136937" lon="-4.712102">
        <time>2021-08-19T17:34:27Z</time>
      </trkpt>
      <trkpt lat="43.13668" lon="-4.7124">
        <time>2021-08-19T17:34:30Z</time>
      </trkpt>
      <trkpt lat="43.134967" lon="-4.715402">
        <time>2021-08-19T17:34:48Z</time>
      </trkpt>
      <trkpt lat="43.134689" lon="-4.71579">
        <time>2021-08-19T17:34:51Z</time>
      </trkpt>
      <trkpt lat="43.133927" lon="-4.716333">
        <time>2021-08-19T17:34:57Z</time>
      </trkpt>
      <trkpt lat="43.133508" lon="-4.716472">
        <time>2021-08-19T17:35:00Z</time>
      </trkpt>
      <trkpt lat="43.132765" lon="-4.717067">
        <time>2021-08-19T17:35:06Z</time>
      </trkpt>
      <trkpt lat="43.132555" lon="-4.71756">
        <time>2021-08-19T17:35:09Z</time>
      </trkpt>
      <trkpt lat="43.132471" lon="-4.718528">
        <time>2021-08-19T17:35:15Z</time>
      </trkpt>
      <trkpt lat="43.13264" lon="-4.719014">
        <time>2021-08-19T17:35:18Z</time>
      </trkpt>
      <trkpt lat="43.132756" lon="-4.720094">
        <time>2021-08-19T17:35:24Z</time>
      </trkpt>
      <trkpt lat="43.132719" lon="-4.721532">
        <time>2021-08-19T17:35:33Z</time>
      </trkpt>
      <trkpt lat="43.13285" lon="-4.722054">
        <time>2021-08-19T17:35:36Z</time>
      </trkpt>
      <trkpt lat="43.132724" lon="-4.722573">
        <time>2021-08-19T17:35:39Z</time>
      </trkpt>
      <trkpt lat="43.132547" lon="-4.722999">
        <time>2021-08-19T17:35:42Z</time>
      </trkpt>
      <trkpt lat="43.132224" lon="-4.723317">
        <time>2021-08-19T17:35:45Z</time>
      </trkpt>
      <trkpt lat="43.129535" lon="-4.725903">
        <time>2021-08-19T17:36:06Z</time>
      </trkpt>
      <trkpt lat="43.129192" lon="-4.726326">
        <time>2021-08-19T17:36:09Z</time>
      </trkpt>
      <trkpt lat="43.128539" lon="-4.726971">
        <time>2021-08-19T17:36:15Z</time>
      </trkpt>
      <trkpt lat="43.128113" lon="-4.727123">
        <time>2021-08-19T17:36:18Z</time>
      </trkpt>
      <trkpt lat="43.126484" lon="-4.727157">
        <time>2021-08-19T17:36:30Z</time>
      </trkpt>
      <trkpt lat="43.126197" lon="-4.727532">
        <time>2021-08-19T17:36:33Z</time>
      </trkpt>
      <trkpt lat="43.126073" lon="-4.728078">
        <time>2021-08-19T17:36:36Z</time>
      </trkpt>
      <trkpt lat="43.125711" lon="-4.729137">
        <time>2021-08-19T17:36:42Z</time>
      </trkpt>
      <trkpt lat="43.125448" lon="-4.729638">
        <time>2021-08-19T17:36:45Z</time>
      </trkpt>
      <trkpt lat="43.124773" lon="-4.730362">
        <time>2021-08-19T17:36:51Z</time>
      </trkpt>
      <trkpt lat="43.123455" lon="-4.731008">
        <time>2021-08-19T17:37:00Z</time>
      </trkpt>
      <trkpt lat="43.122028" lon="-4.73099">
        <time>2021-08-19T17:37:09Z</time>
      </trkpt>
      <trkpt lat="43.121623" lon="-4.730819">
        <time>2021-08-19T17:37:12Z</time>
      </trkpt>
      <trkpt lat="43.121321" lon="-4.730595">
        <time>2021-08-19T17:37:15Z</time>
      </trkpt>
      <trkpt lat="43.119633" lon="-4.729333">
        <time>2021-08-19T17:37:27Z</time>
      </trkpt>
      <trkpt lat="43.118192" lon="-4.729029">
        <time>2021-08-19T17:37:36Z</time>
      </trkpt>
      <trkpt lat="43.117397" lon="-4.729202">
        <time>2021-08-19T17:37:42Z</time>
      </trkpt>
      <trkpt lat="43.115884" lon="-4.729313">
        <time>2021-08-19T17:37:57Z</time>
      </trkpt>
      <trkpt lat="43.113293" lon="-4.728441">
        <time>2021-08-19T17:38:27Z</time>
      </trkpt>
      <trkpt lat="43.112951" lon="-4.728267">
        <time>2021-08-19T17:38:30Z</time>
      </trkpt>
      <trkpt lat="43.112309" lon="-4.728116">
        <time>2021-08-19T17:38:36Z</time>
      </trkpt>
      <trkpt lat="43.111628" lon="-4.728302">
        <time>2021-08-19T17:38:42Z</time>
      </trkpt>
      <trkpt lat="43.110926" lon="-4.728791">
        <time>2021-08-19T17:38:48Z</time>
      </trkpt>
      <trkpt lat="43.110064" lon="-4.729845">
        <time>2021-08-19T17:38:57Z</time>
      </trkpt>
      <trkpt lat="43.1099" lon="-4.730318">
        <time>2021-08-19T17:39:00Z</time>
      </trkpt>
      <trkpt lat="43.109755" lon="-4.731529">
        <time>2021-08-19T17:39:06Z</time>
      </trkpt>
      <trkpt lat="43.109577" lon="-4.734261">
        <time>2021-08-19T17:39:18Z</time>
      </trkpt>
      <trkpt lat="43.109814" lon="-4.736017">
        <time>2021-08-19T17:39:27Z</time>
      </trkpt>
      <trkpt lat="43.110035" lon="-4.736383">
        <time>2021-08-19T17:39:30Z</time>
      </trkpt>
      <trkpt lat="43.110382" lon="-4.737129">
        <time>2021-08-19T17:39:36Z</time>
      </trkpt>
      <trkpt lat="43.110436" lon="-4.737697">
        <time>2021-08-19T17:39:39Z</time>
      </trkpt>
      <trkpt lat="43.110441" lon="-4.738872">
        <time>2021-08-19T17:39:45Z</time>
      </trkpt>
      <trkpt lat="43.110179" lon="-4.739933">
        <time>2021-08-19T17:39:51Z</time>
      </trkpt>
      <trkpt lat="43.110067" lon="-4.741588">
        <time>2021-08-19T17:40:00Z</time>
      </trkpt>
      <trkpt lat="43.110443" lon="-4.74256">
        <time>2021-08-19T17:40:06Z</time>
      </trkpt>
      <trkpt lat="43.110837" lon="-4.743635">
        <time>2021-08-19T17:40:12Z</time>
      </trkpt>
      <trkpt lat="43.110988" lon="-4.744294">
        <time>2021-08-19T17:40:15Z</time>
      </trkpt>
      <trkpt lat="43.111513" lon="-4.745842">
        <time>2021-08-19T17:40:24Z</time>
      </trkpt>
      <trkpt lat="43.112031" lon="-4.747296">
        <time>2021-08-19T17:40:33Z</time>
      </trkpt>
      <trkpt lat="43.111964" lon="-4.747744">
        <time>2021-08-19T17:40:36Z</time>
      </trkpt>
      <trkpt lat="43.111804" lon="-4.748168">
        <time>2021-08-19T17:40:39Z</time>
      </trkpt>
      <trkpt lat="43.111105" lon="-4.74917">
        <time>2021-08-19T17:40:48Z</time>
      </trkpt>
      <trkpt lat="43.111105" lon="-4.74917">
        <time>2021-08-19T17:40:48Z</time>
      </trkpt>
      <trkpt lat="43.11101" lon="-4.749668">
        <time>2021-08-19T17:40:51Z</time>
      </trkpt>
      <trkpt lat="43.111106" lon="-4.750179">
        <time>2021-08-19T17:40:54Z</time>
      </trkpt>
      <trkpt lat="43.111772" lon="-4.753637">
        <time>2021-08-19T17:41:09Z</time>
      </trkpt>
      <trkpt lat="43.111673" lon="-4.754302">
        <time>2021-08-19T17:41:12Z</time>
      </trkpt>
      <trkpt lat="43.111148" lon="-4.75545">
        <time>2021-08-19T17:41:18Z</time>
      </trkpt>
      <trkpt lat="43.11103" lon="-4.756043">
        <time>2021-08-19T17:41:21Z</time>
      </trkpt>
      <trkpt lat="43.111221" lon="-4.756603">
        <time>2021-08-19T17:41:24Z</time>
      </trkpt>
      <trkpt lat="43.111287" lon="-4.757842">
        <time>2021-08-19T17:41:30Z</time>
      </trkpt>
      <trkpt lat="43.111413" lon="-4.758392">
        <time>2021-08-19T17:41:33Z</time>
      </trkpt>
      <trkpt lat="43.111861" lon="-4.758676">
        <time>2021-08-19T17:41:36Z</time>
      </trkpt>
      <trkpt lat="43.112247" lon="-4.759021">
        <time>2021-08-19T17:41:39Z</time>
      </trkpt>
      <trkpt lat="43.112324" lon="-4.759583">
        <time>2021-08-19T17:41:42Z</time>
      </trkpt>
      <trkpt lat="43.112338" lon="-4.760922">
        <time>2021-08-19T17:41:48Z</time>
      </trkpt>
      <trkpt lat="43.112338" lon="-4.760922">
        <time>2021-08-19T17:41:48Z</time>
      </trkpt>
      <trkpt lat="43.112507" lon="-4.762274">
        <time>2021-08-19T17:41:54Z</time>
      </trkpt>
      <trkpt lat="43.112744" lon="-4.763489">
        <time>2021-08-19T17:42:00Z</time>
      </trkpt>
      <trkpt lat="43.113386" lon="-4.764715">
        <time>2021-08-19T17:42:06Z</time>
      </trkpt>
      <trkpt lat="43.114119" lon="-4.766381">
        <time>2021-08-19T17:42:15Z</time>
      </trkpt>
      <trkpt lat="43.114135" lon="-4.766937">
        <time>2021-08-19T17:42:18Z</time>
      </trkpt>
      <trkpt lat="43.114135" lon="-4.766937">
        <time>2021-08-19T17:42:18Z</time>
      </trkpt>
      <trkpt lat="43.114125" lon="-4.769041">
        <time>2021-08-19T17:42:30Z</time>
      </trkpt>
      <trkpt lat="43.114117" lon="-4.770245">
        <time>2021-08-19T17:42:36Z</time>
      </trkpt>
      <trkpt lat="43.114235" lon="-4.771225">
        <time>2021-08-19T17:42:42Z</time>
      </trkpt>
      <trkpt lat="43.114706" lon="-4.772154">
        <time>2021-08-19T17:42:48Z</time>
      </trkpt>
      <trkpt lat="43.115538" lon="-4.773039">
        <time>2021-08-19T17:42:54Z</time>
      </trkpt>
      <trkpt lat="43.115538" lon="-4.773039">
        <time>2021-08-19T17:42:54Z</time>
      </trkpt>
      <trkpt lat="43.116802" lon="-4.774589">
        <time>2021-08-19T17:43:03Z</time>
      </trkpt>
      <trkpt lat="43.117387" lon="-4.775736">
        <time>2021-08-19T17:43:09Z</time>
      </trkpt>
      <trkpt lat="43.117906" lon="-4.776002">
        <time>2021-08-19T17:43:12Z</time>
      </trkpt>
      <trkpt lat="43.118319" lon="-4.776512">
        <time>2021-08-19T17:43:15Z</time>
      </trkpt>
      <trkpt lat="43.118731" lon="-4.776932">
        <time>2021-08-19T17:43:18Z</time>
      </trkpt>
      <trkpt lat="43.119243" lon="-4.777144">
        <time>2021-08-19T17:43:21Z</time>
      </trkpt>
      <trkpt lat="43.119678" lon="-4.777585">
        <time>2021-08-19T17:43:24Z</time>
      </trkpt>
      <trkpt lat="43.120887" lon="-4.77906">
        <time>2021-08-19T17:43:33Z</time>
      </trkpt>
      <trkpt lat="43.121659" lon="-4.780179">
        <time>2021-08-19T17:43:39Z</time>
      </trkpt>
      <trkpt lat="43.122689" lon="-4.780908">
        <time>2021-08-19T17:43:45Z</time>
      </trkpt>
      <trkpt lat="43.123238" lon="-4.781136">
        <time>2021-08-19T17:43:48Z</time>
      </trkpt>
      <trkpt lat="43.12373" lon="-4.781613">
        <time>2021-08-19T17:43:51Z</time>
      </trkpt>
      <trkpt lat="43.126498" lon="-4.7839">
        <time>2021-08-19T17:44:09Z</time>
      </trkpt>
      <trkpt lat="43.127083" lon="-4.784917">
        <time>2021-08-19T17:44:18Z</time>
      </trkpt>
      <trkpt lat="43.127679" lon="-4.785994">
        <time>2021-08-19T17:44:27Z</time>
      </trkpt>
      <trkpt lat="43.128116" lon="-4.786382">
        <time>2021-08-19T17:44:33Z</time>
      </trkpt>
      <trkpt lat="43.128193" lon="-4.786623">
        <time>2021-08-19T17:44:36Z</time>
      </trkpt>
      <trkpt lat="43.128832" lon="-4.789931">
        <time>2021-08-19T17:44:54Z</time>
      </trkpt>
      <trkpt lat="43.128785" lon="-4.790843">
        <time>2021-08-19T17:44:57Z</time>
      </trkpt>
      <trkpt lat="43.128599" lon="-4.792585">
        <time>2021-08-19T17:45:03Z</time>
      </trkpt>
      <trkpt lat="43.128563" lon="-4.793253">
        <time>2021-08-19T17:45:06Z</time>
      </trkpt>
      <trkpt lat="43.128764" lon="-4.793869">
        <time>2021-08-19T17:45:09Z</time>
      </trkpt>
      <trkpt lat="43.130014" lon="-4.796424">
        <time>2021-08-19T17:45:21Z</time>
      </trkpt>
      <trkpt lat="43.130014" lon="-4.796424">
        <time>2021-08-19T17:45:21Z</time>
      </trkpt>
      <trkpt lat="43.13072" lon="-4.801198">
        <time>2021-08-19T17:45:39Z</time>
      </trkpt>
      <trkpt lat="43.13045" lon="-4.802678">
        <time>2021-08-19T17:45:45Z</time>
      </trkpt>
      <trkpt lat="43.130364" lon="-4.804289">
        <time>2021-08-19T17:45:51Z</time>
      </trkpt>
      <trkpt lat="43.130487" lon="-4.805606">
        <time>2021-08-19T17:45:57Z</time>
      </trkpt>
      <trkpt lat="43.131031" lon="-4.807133">
        <time>2021-08-19T17:46:06Z</time>
      </trkpt>
      <trkpt lat="43.131601" lon="-4.808015">
        <time>2021-08-19T17:46:12Z</time>
      </trkpt>
      <trkpt lat="43.131942" lon="-4.808331">
        <time>2021-08-19T17:46:15Z</time>
      </trkpt>
      <trkpt lat="43.13504" lon="-4.810982">
        <time>2021-08-19T17:46:42Z</time>
      </trkpt>
      <trkpt lat="43.135375" lon="-4.810923">
        <time>2021-08-19T17:46:45Z</time>
      </trkpt>
      <trkpt lat="43.135894" lon="-4.81064">
        <time>2021-08-19T17:46:54Z</time>
      </trkpt>
      <trkpt lat="43.136085" lon="-4.810621">
        <time>2021-08-19T17:46:57Z</time>
      </trkpt>
      <trkpt lat="43.137787" lon="-4.810886">
        <time>2021-08-19T17:47:06Z</time>
      </trkpt>
      <trkpt lat="43.138212" lon="-4.810583">
        <time>2021-08-19T17:47:09Z</time>
      </trkpt>
      <trkpt lat="43.139066" lon="-4.809746">
        <time>2021-08-19T17:47:15Z</time>
      </trkpt>
      <trkpt lat="43.140148" lon="-4.809567">
        <time>2021-08-19T17:47:21Z</time>
      </trkpt>
      <trkpt lat="43.140148" lon="-4.809567">
        <time>2021-08-19T17:47:21Z</time>
      </trkpt>
      <trkpt lat="43.141751" lon="-4.810072">
        <time>2021-08-19T17:47:30Z</time>
      </trkpt>
      <trkpt lat="43.142805" lon="-4.810174">
        <time>2021-08-19T17:47:36Z</time>
      </trkpt>
      <trkpt lat="43.144114" lon="-4.811032">
        <time>2021-08-19T17:47:48Z</time>
      </trkpt>
      <trkpt lat="43.144303" lon="-4.811719">
        <time>2021-08-19T17:47:57Z</time>
      </trkpt>
      <trkpt lat="43.144303" lon="-4.811719">
        <time>2021-08-19T17:47:57Z</time>
      </trkpt>
      <trkpt lat="43.144265" lon="-4.812217">
        <time>2021-08-19T17:48:03Z</time>
      </trkpt>
      <trkpt lat="43.144195" lon="-4.812634">
        <time>2021-08-19T17:48:09Z</time>
      </trkpt>
      <trkpt lat="43.144153" lon="-4.812655">
        <time>2021-08-19T17:48:12Z</time>
      </trkpt>
      <trkpt lat="43.144132" lon="-4.812625">
        <time>2021-08-19T17:48:15Z</time>
      </trkpt>
      <trkpt lat="43.143787" lon="-4.812166">
        <time>2021-08-19T17:48:51Z</time>
      </trkpt>
      <trkpt lat="43.143773" lon="-4.812138">
        <time>2021-08-19T17:49:25Z</time>
      </trkpt>
      <trkpt lat="43.143773" lon="-4.812138">
        <time>2021-08-19T17:49:25Z</time>
      </trkpt>
      <trkpt lat="43.143676" lon="-4.811842">
        <time>2021-08-19T18:42:50Z</time>
      </trkpt>
      <trkpt lat="43.143695" lon="-4.811755">
        <time>2021-08-19T18:44:22Z</time>
      </trkpt>
      <trkpt lat="43.143718" lon="-4.811861">
        <time>2021-08-19T18:44:25Z</time>
      </trkpt>
      <trkpt lat="43.143677" lon="-4.81192">
        <time>2021-08-19T18:44:28Z</time>
      </trkpt>
      <trkpt lat="43.143635" lon="-4.811979">
        <time>2021-08-19T18:44:31Z</time>
      </trkpt>
      <trkpt lat="43.143618" lon="-4.811974">
        <time>2021-08-19T18:44:34Z</time>
      </trkpt>
      <trkpt lat="43.143627" lon="-4.811952">
        <time>2021-08-19T18:44:37Z</time>
      </trkpt>
      <trkpt lat="43.143652" lon="-4.811934">
        <time>2021-08-19T18:44:40Z</time>
      </trkpt>
      <trkpt lat="43.143699" lon="-4.811965">
        <time>2021-08-19T18:44:43Z</time>
      </trkpt>
      <trkpt lat="43.143752" lon="-4.811983">
        <time>2021-08-19T18:44:49Z</time>
      </trkpt>
      <trkpt lat="43.143729" lon="-4.812138">
        <time>2021-08-19T18:44:52Z</time>
      </trkpt>
      <trkpt lat="43.143748" lon="-4.812307">
        <time>2021-08-19T18:45:01Z</time>
      </trkpt>
      <trkpt lat="43.143822" lon="-4.812387">
        <time>2021-08-19T18:45:04Z</time>
      </trkpt>
      <trkpt lat="43.144205" lon="-4.812848">
        <time>2021-08-19T18:45:13Z</time>
      </trkpt>
      <trkpt lat="43.144261" lon="-4.812945">
        <time>2021-08-19T18:45:16Z</time>
      </trkpt>
      <trkpt lat="43.144218" lon="-4.813098">
        <time>2021-08-19T18:45:19Z</time>
      </trkpt>
      <trkpt lat="43.144135" lon="-4.813296">
        <time>2021-08-19T18:45:22Z</time>
      </trkpt>
      <trkpt lat="43.143967" lon="-4.813348">
        <time>2021-08-19T18:45:25Z</time>
      </trkpt>
      <trkpt lat="43.143778" lon="-4.813277">
        <time>2021-08-19T18:45:28Z</time>
      </trkpt>
      <trkpt lat="43.143759" lon="-4.813068">
        <time>2021-08-19T18:45:31Z</time>
      </trkpt>
      <trkpt lat="43.143717" lon="-4.812857">
        <time>2021-08-19T18:45:34Z</time>
      </trkpt>
      <trkpt lat="43.143601" lon="-4.812708">
        <time>2021-08-19T18:45:37Z</time>
      </trkpt>
      <trkpt lat="43.14326" lon="-4.81254">
        <time>2021-08-19T18:45:43Z</time>
      </trkpt>
      <trkpt lat="43.143055" lon="-4.812513">
        <time>2021-08-19T18:45:49Z</time>
      </trkpt>
      <trkpt lat="43.143044" lon="-4.812515">
        <time>2021-08-19T18:45:58Z</time>
      </trkpt>
      <trkpt lat="43.143052" lon="-4.812515">
        <time>2021-08-19T18:46:01Z</time>
      </trkpt>
      <trkpt lat="43.14305" lon="-4.81255">
        <time>2021-08-19T18:46:04Z</time>
      </trkpt>
      <trkpt lat="43.143288" lon="-4.812684">
        <time>2021-08-19T18:46:13Z</time>
      </trkpt>
      <trkpt lat="43.143412" lon="-4.812713">
        <time>2021-08-19T18:46:16Z</time>
      </trkpt>
      <trkpt lat="43.143542" lon="-4.812813">
        <time>2021-08-19T18:46:19Z</time>
      </trkpt>
      <trkpt lat="43.14365" lon="-4.812991">
        <time>2021-08-19T18:46:22Z</time>
      </trkpt>
      <trkpt lat="43.143877" lon="-4.813307">
        <time>2021-08-19T18:46:28Z</time>
      </trkpt>
      <trkpt lat="43.144011" lon="-4.813337">
        <time>2021-08-19T18:46:31Z</time>
      </trkpt>
      <trkpt lat="43.144188" lon="-4.813236">
        <time>2021-08-19T18:46:37Z</time>
      </trkpt>
      <trkpt lat="43.144237" lon="-4.813108">
        <time>2021-08-19T18:46:40Z</time>
      </trkpt>
      <trkpt lat="43.14433" lon="-4.812724">
        <time>2021-08-19T18:46:49Z</time>
      </trkpt>
      <trkpt lat="43.144339" lon="-4.812542">
        <time>2021-08-19T18:46:52Z</time>
      </trkpt>
      <trkpt lat="43.144357" lon="-4.812354">
        <time>2021-08-19T18:46:58Z</time>
      </trkpt>
      <trkpt lat="43.144321" lon="-4.811474">
        <time>2021-08-19T18:47:07Z</time>
      </trkpt>
      <trkpt lat="43.144149" lon="-4.810952">
        <time>2021-08-19T18:47:13Z</time>
      </trkpt>
      <trkpt lat="43.143983" lon="-4.810775">
        <time>2021-08-19T18:47:16Z</time>
      </trkpt>
      <trkpt lat="43.142518" lon="-4.810068">
        <time>2021-08-19T18:47:34Z</time>
      </trkpt>
      <trkpt lat="43.141154" lon="-4.809975">
        <time>2021-08-19T18:47:46Z</time>
      </trkpt>
      <trkpt lat="43.140773" lon="-4.809778">
        <time>2021-08-19T18:47:49Z</time>
      </trkpt>
      <trkpt lat="43.139941" lon="-4.809465">
        <time>2021-08-19T18:47:55Z</time>
      </trkpt>
      <trkpt lat="43.139109" lon="-4.809703">
        <time>2021-08-19T18:48:01Z</time>
      </trkpt>
      <trkpt lat="43.138722" lon="-4.810039">
        <time>2021-08-19T18:48:04Z</time>
      </trkpt>
      <trkpt lat="43.138033" lon="-4.810767">
        <time>2021-08-19T18:48:10Z</time>
      </trkpt>
      <trkpt lat="43.137625" lon="-4.810834">
        <time>2021-08-19T18:48:13Z</time>
      </trkpt>
      <trkpt lat="43.136209" lon="-4.810512">
        <time>2021-08-19T18:48:22Z</time>
      </trkpt>
      <trkpt lat="43.135795" lon="-4.810645">
        <time>2021-08-19T18:48:25Z</time>
      </trkpt>
      <trkpt lat="43.134984" lon="-4.810952">
        <time>2021-08-19T18:48:31Z</time>
      </trkpt>
      <trkpt lat="43.134623" lon="-4.810627">
        <time>2021-08-19T18:48:34Z</time>
      </trkpt>
      <trkpt lat="43.131931" lon="-4.80827">
        <time>2021-08-19T18:48:52Z</time>
      </trkpt>
      <trkpt lat="43.131185" lon="-4.807329">
        <time>2021-08-19T18:48:58Z</time>
      </trkpt>
      <trkpt lat="43.130524" lon="-4.805458">
        <time>2021-08-19T18:49:07Z</time>
      </trkpt>
      <trkpt lat="43.130444" lon="-4.804063">
        <time>2021-08-19T18:49:13Z</time>
      </trkpt>
      <trkpt lat="43.130523" lon="-4.802647">
        <time>2021-08-19T18:49:19Z</time>
      </trkpt>
      <trkpt lat="43.130765" lon="-4.801385">
        <time>2021-08-19T18:49:25Z</time>
      </trkpt>
      <trkpt lat="43.130852" lon="-4.800771">
        <time>2021-08-19T18:49:28Z</time>
      </trkpt>
      <trkpt lat="43.130787" lon="-4.800097">
        <time>2021-08-19T18:49:31Z</time>
      </trkpt>
      <trkpt lat="43.130181" lon="-4.796524">
        <time>2021-08-19T18:49:46Z</time>
      </trkpt>
      <trkpt lat="43.130016" lon="-4.795914">
        <time>2021-08-19T18:49:49Z</time>
      </trkpt>
      <trkpt lat="43.128777" lon="-4.793317">
        <time>2021-08-19T18:50:04Z</time>
      </trkpt>
      <trkpt lat="43.128974" lon="-4.790706">
        <time>2021-08-19T18:50:16Z</time>
      </trkpt>
      <trkpt lat="43.128846" lon="-4.788711">
        <time>2021-08-19T18:50:25Z</time>
      </trkpt>
      <trkpt lat="43.128214" lon="-4.786366">
        <time>2021-08-19T18:50:40Z</time>
      </trkpt>
      <trkpt lat="43.127928" lon="-4.786147">
        <time>2021-08-19T18:50:43Z</time>
      </trkpt>
      <trkpt lat="43.127716" lon="-4.785902">
        <time>2021-08-19T18:50:46Z</time>
      </trkpt>
      <trkpt lat="43.127347" lon="-4.785125">
        <time>2021-08-19T18:50:52Z</time>
      </trkpt>
      <trkpt lat="43.126308" lon="-4.783543">
        <time>2021-08-19T18:51:04Z</time>
      </trkpt>
      <trkpt lat="43.123574" lon="-4.781451">
        <time>2021-08-19T18:51:25Z</time>
      </trkpt>
      <trkpt lat="43.123136" lon="-4.781204">
        <time>2021-08-19T18:51:28Z</time>
      </trkpt>
      <trkpt lat="43.121888" lon="-4.780444">
        <time>2021-08-19T18:51:37Z</time>
      </trkpt>
      <trkpt lat="43.121197" lon="-4.77963">
        <time>2021-08-19T18:51:43Z</time>
      </trkpt>
      <trkpt lat="43.120699" lon="-4.778669">
        <time>2021-08-19T18:51:49Z</time>
      </trkpt>
      <trkpt lat="43.120343" lon="-4.778388">
        <time>2021-08-19T18:51:52Z</time>
      </trkpt>
      <trkpt lat="43.12002" lon="-4.778022">
        <time>2021-08-19T18:51:55Z</time>
      </trkpt>
      <trkpt lat="43.119698" lon="-4.77754">
        <time>2021-08-19T18:51:58Z</time>
      </trkpt>
      <trkpt lat="43.119241" lon="-4.777233">
        <time>2021-08-19T18:52:01Z</time>
      </trkpt>
      <trkpt lat="43.118534" lon="-4.77678">
        <time>2021-08-19T18:52:07Z</time>
      </trkpt>
      <trkpt lat="43.117846" lon="-4.776114">
        <time>2021-08-19T18:52:13Z</time>
      </trkpt>
      <trkpt lat="43.117211" lon="-4.775447">
        <time>2021-08-19T18:52:19Z</time>
      </trkpt>
      <trkpt lat="43.11685" lon="-4.774298">
        <time>2021-08-19T18:52:25Z</time>
      </trkpt>
      <trkpt lat="43.116481" lon="-4.773932">
        <time>2021-08-19T18:52:28Z</time>
      </trkpt>
      <trkpt lat="43.116108" lon="-4.773622">
        <time>2021-08-19T18:52:31Z</time>
      </trkpt>
      <trkpt lat="43.115464" lon="-4.772857">
        <time>2021-08-19T18:52:37Z</time>
      </trkpt>
      <trkpt lat="43.114706" lon="-4.771416">
        <time>2021-08-19T18:52:46Z</time>
      </trkpt>
      <trkpt lat="43.114575" lon="-4.770871">
        <time>2021-08-19T18:52:49Z</time>
      </trkpt>
      <trkpt lat="43.114538" lon="-4.767965">
        <time>2021-08-19T18:53:04Z</time>
      </trkpt>
      <trkpt lat="43.114378" lon="-4.766123">
        <time>2021-08-19T18:53:13Z</time>
      </trkpt>
      <trkpt lat="43.114124" lon="-4.765611">
        <time>2021-08-19T18:53:16Z</time>
      </trkpt>
      <trkpt lat="43.112865" lon="-4.762816">
        <time>2021-08-19T18:53:31Z</time>
      </trkpt>
      <trkpt lat="43.112838" lon="-4.762118">
        <time>2021-08-19T18:53:34Z</time>
      </trkpt>
      <trkpt lat="43.112634" lon="-4.760843">
        <time>2021-08-19T18:53:40Z</time>
      </trkpt>
      <trkpt lat="43.11255" lon="-4.760201">
        <time>2021-08-19T18:53:43Z</time>
      </trkpt>
      <trkpt lat="43.112334" lon="-4.759087">
        <time>2021-08-19T18:53:49Z</time>
      </trkpt>
      <trkpt lat="43.11194" lon="-4.758846">
        <time>2021-08-19T18:53:52Z</time>
      </trkpt>
      <trkpt lat="43.111615" lon="-4.758528">
        <time>2021-08-19T18:53:55Z</time>
      </trkpt>
      <trkpt lat="43.111508" lon="-4.758024">
        <time>2021-08-19T18:53:58Z</time>
      </trkpt>
      <trkpt lat="43.111596" lon="-4.757548">
        <time>2021-08-19T18:54:01Z</time>
      </trkpt>
      <trkpt lat="43.111593" lon="-4.757031">
        <time>2021-08-19T18:54:04Z</time>
      </trkpt>
      <trkpt lat="43.111416" lon="-4.756579">
        <time>2021-08-19T18:54:07Z</time>
      </trkpt>
      <trkpt lat="43.111416" lon="-4.756579">
        <time>2021-08-19T18:54:07Z</time>
      </trkpt>
      <trkpt lat="43.111331" lon="-4.756122">
        <time>2021-08-19T18:54:10Z</time>
      </trkpt>
      <trkpt lat="43.111382" lon="-4.755674">
        <time>2021-08-19T18:54:13Z</time>
      </trkpt>
      <trkpt lat="43.111565" lon="-4.755285">
        <time>2021-08-19T18:54:16Z</time>
      </trkpt>
      <trkpt lat="43.112034" lon="-4.75436">
        <time>2021-08-19T18:54:22Z</time>
      </trkpt>
      <trkpt lat="43.112051" lon="-4.753717">
        <time>2021-08-19T18:54:25Z</time>
      </trkpt>
      <trkpt lat="43.111547" lon="-4.750938">
        <time>2021-08-19T18:54:37Z</time>
      </trkpt>
      <trkpt lat="43.111314" lon="-4.750332">
        <time>2021-08-19T18:54:40Z</time>
      </trkpt>
      <trkpt lat="43.11119" lon="-4.749732">
        <time>2021-08-19T18:54:43Z</time>
      </trkpt>
      <trkpt lat="43.111276" lon="-4.74915">
        <time>2021-08-19T18:54:46Z</time>
      </trkpt>
      <trkpt lat="43.111559" lon="-4.748695">
        <time>2021-08-19T18:54:49Z</time>
      </trkpt>
      <trkpt lat="43.11213" lon="-4.747753">
        <time>2021-08-19T18:54:55Z</time>
      </trkpt>
      <trkpt lat="43.112096" lon="-4.747151">
        <time>2021-08-19T18:54:58Z</time>
      </trkpt>
      <trkpt lat="43.1117" lon="-4.746059">
        <time>2021-08-19T18:55:04Z</time>
      </trkpt>
      <trkpt lat="43.111266" lon="-4.744893">
        <time>2021-08-19T18:55:10Z</time>
      </trkpt>
      <trkpt lat="43.111266" lon="-4.744893">
        <time>2021-08-19T18:55:10Z</time>
      </trkpt>
      <trkpt lat="43.110261" lon="-4.741286">
        <time>2021-08-19T18:55:28Z</time>
      </trkpt>
      <trkpt lat="43.110372" lon="-4.740059">
        <time>2021-08-19T18:55:34Z</time>
      </trkpt>
      <trkpt lat="43.110693" lon="-4.73888">
        <time>2021-08-19T18:55:40Z</time>
      </trkpt>
      <trkpt lat="43.11069" lon="-4.73819">
        <time>2021-08-19T18:55:43Z</time>
      </trkpt>
      <trkpt lat="43.110287" lon="-4.736495">
        <time>2021-08-19T18:55:52Z</time>
      </trkpt>
      <trkpt lat="43.109753" lon="-4.73555">
        <time>2021-08-19T18:55:58Z</time>
      </trkpt>
      <trkpt lat="43.109746" lon="-4.734851">
        <time>2021-08-19T18:56:01Z</time>
      </trkpt>
      <trkpt lat="43.109767" lon="-4.732527">
        <time>2021-08-19T18:56:10Z</time>
      </trkpt>
      <trkpt lat="43.109974" lon="-4.730229">
        <time>2021-08-19T18:56:22Z</time>
      </trkpt>
      <trkpt lat="43.110155" lon="-4.729842">
        <time>2021-08-19T18:56:25Z</time>
      </trkpt>
      <trkpt lat="43.110408" lon="-4.729662">
        <time>2021-08-19T18:56:28Z</time>
      </trkpt>
      <trkpt lat="43.112494" lon="-4.728622">
        <time>2021-08-19T18:56:52Z</time>
      </trkpt>
      <trkpt lat="43.112494" lon="-4.728622">
        <time>2021-08-19T18:56:52Z</time>
      </trkpt>
      <trkpt lat="43.115758" lon="-4.729483">
        <time>2021-08-19T18:57:22Z</time>
      </trkpt>
      <trkpt lat="43.116931" lon="-4.729471">
        <time>2021-08-19T18:57:31Z</time>
      </trkpt>
      <trkpt lat="43.116931" lon="-4.729471">
        <time>2021-08-19T18:57:31Z</time>
      </trkpt>
      <trkpt lat="43.119097" lon="-4.729385">
        <time>2021-08-19T18:57:43Z</time>
      </trkpt>
      <trkpt lat="43.120139" lon="-4.729958">
        <time>2021-08-19T18:57:49Z</time>
      </trkpt>
      <trkpt lat="43.121657" lon="-4.730972">
        <time>2021-08-19T18:57:58Z</time>
      </trkpt>
      <trkpt lat="43.12223" lon="-4.731159">
        <time>2021-08-19T18:58:01Z</time>
      </trkpt>
      <trkpt lat="43.123455" lon="-4.731176">
        <time>2021-08-19T18:58:07Z</time>
      </trkpt>
      <trkpt lat="43.124668" lon="-4.73062">
        <time>2021-08-19T18:58:13Z</time>
      </trkpt>
      <trkpt lat="43.125648" lon="-4.729658">
        <time>2021-08-19T18:58:19Z</time>
      </trkpt>
      <trkpt lat="43.12596" lon="-4.729009">
        <time>2021-08-19T18:58:22Z</time>
      </trkpt>
      <trkpt lat="43.12596" lon="-4.729009">
        <time>2021-08-19T18:58:22Z</time>
      </trkpt>
      <trkpt lat="43.126663" lon="-4.72737">
        <time>2021-08-19T18:58:31Z</time>
      </trkpt>
      <trkpt lat="43.127115" lon="-4.727309">
        <time>2021-08-19T18:58:34Z</time>
      </trkpt>
      <trkpt lat="43.128647" lon="-4.727221">
        <time>2021-08-19T18:58:43Z</time>
      </trkpt>
      <trkpt lat="43.129075" lon="-4.726812">
        <time>2021-08-19T18:58:46Z</time>
      </trkpt>
      <trkpt lat="43.129939" lon="-4.725872">
        <time>2021-08-19T18:58:52Z</time>
      </trkpt>
      <trkpt lat="43.132898" lon="-4.72288">
        <time>2021-08-19T18:59:13Z</time>
      </trkpt>
      <trkpt lat="43.132914" lon="-4.722259">
        <time>2021-08-19T18:59:16Z</time>
      </trkpt>
      <trkpt lat="43.132812" lon="-4.72163">
        <time>2021-08-19T18:59:19Z</time>
      </trkpt>
      <trkpt lat="43.132837" lon="-4.720949">
        <time>2021-08-19T18:59:22Z</time>
      </trkpt>
      <trkpt lat="43.132927" lon="-4.719502">
        <time>2021-08-19T18:59:28Z</time>
      </trkpt>
      <trkpt lat="43.13258" lon="-4.718229">
        <time>2021-08-19T18:59:34Z</time>
      </trkpt>
      <trkpt lat="43.132628" lon="-4.717563">
        <time>2021-08-19T18:59:37Z</time>
      </trkpt>
      <trkpt lat="43.132877" lon="-4.716974">
        <time>2021-08-19T18:59:40Z</time>
      </trkpt>
      <trkpt lat="43.133303" lon="-4.716559">
        <time>2021-08-19T18:59:43Z</time>
      </trkpt>
      <trkpt lat="43.133862" lon="-4.716299">
        <time>2021-08-19T18:59:46Z</time>
      </trkpt>
      <trkpt lat="43.134852" lon="-4.715904">
        <time>2021-08-19T18:59:52Z</time>
      </trkpt>
      <trkpt lat="43.135137" lon="-4.715382">
        <time>2021-08-19T18:59:55Z</time>
      </trkpt>
      <trkpt lat="43.137166" lon="-4.711999">
        <time>2021-08-19T19:00:13Z</time>
      </trkpt>
      <trkpt lat="43.137166" lon="-4.711999">
        <time>2021-08-19T19:00:13Z</time>
      </trkpt>
      <trkpt lat="43.138076" lon="-4.711716">
        <time>2021-08-19T19:00:19Z</time>
      </trkpt>
      <trkpt lat="43.138458" lon="-4.711869">
        <time>2021-08-19T19:00:22Z</time>
      </trkpt>
      <trkpt lat="43.138854" lon="-4.712029">
        <time>2021-08-19T19:00:25Z</time>
      </trkpt>
      <trkpt lat="43.139306" lon="-4.711942">
        <time>2021-08-19T19:00:28Z</time>
      </trkpt>
      <trkpt lat="43.14175" lon="-4.711059">
        <time>2021-08-19T19:00:43Z</time>
      </trkpt>
      <trkpt lat="43.142119" lon="-4.710683">
        <time>2021-08-19T19:00:46Z</time>
      </trkpt>
      <trkpt lat="43.143016" lon="-4.709103">
        <time>2021-08-19T19:00:55Z</time>
      </trkpt>
      <trkpt lat="43.14303" lon="-4.707669">
        <time>2021-08-19T19:01:01Z</time>
      </trkpt>
      <trkpt lat="43.143129" lon="-4.705412">
        <time>2021-08-19T19:01:10Z</time>
      </trkpt>
      <trkpt lat="43.143253" lon="-4.704721">
        <time>2021-08-19T19:01:13Z</time>
      </trkpt>
      <trkpt lat="43.143498" lon="-4.704192">
        <time>2021-08-19T19:01:16Z</time>
      </trkpt>
      <trkpt lat="43.143838" lon="-4.70387">
        <time>2021-08-19T19:01:19Z</time>
      </trkpt>
      <trkpt lat="43.144284" lon="-4.703847">
        <time>2021-08-19T19:01:22Z</time>
      </trkpt>
      <trkpt lat="43.147423" lon="-4.703713">
        <time>2021-08-19T19:01:40Z</time>
      </trkpt>
      <trkpt lat="43.147423" lon="-4.703713">
        <time>2021-08-19T19:01:40Z</time>
      </trkpt>
      <trkpt lat="43.147879" lon="-4.703364">
        <time>2021-08-19T19:01:43Z</time>
      </trkpt>
      <trkpt lat="43.148529" lon="-4.702469">
        <time>2021-08-19T19:01:49Z</time>
      </trkpt>
      <trkpt lat="43.14858" lon="-4.701904">
        <time>2021-08-19T19:01:52Z</time>
      </trkpt>
      <trkpt lat="43.148275" lon="-4.70139">
        <time>2021-08-19T19:01:55Z</time>
      </trkpt>
      <trkpt lat="43.147812" lon="-4.70014">
        <time>2021-08-19T19:02:01Z</time>
      </trkpt>
      <trkpt lat="43.147653" lon="-4.698442">
        <time>2021-08-19T19:02:10Z</time>
      </trkpt>
      <trkpt lat="43.147653" lon="-4.698442">
        <time>2021-08-19T19:02:10Z</time>
      </trkpt>
      <trkpt lat="43.147821" lon="-4.697886">
        <time>2021-08-19T19:02:13Z</time>
      </trkpt>
      <trkpt lat="43.148133" lon="-4.697429">
        <time>2021-08-19T19:02:16Z</time>
      </trkpt>
      <trkpt lat="43.150202" lon="-4.695781">
        <time>2021-08-19T19:02:40Z</time>
      </trkpt>
      <trkpt lat="43.151147" lon="-4.69507">
        <time>2021-08-19T19:02:49Z</time>
      </trkpt>
      <trkpt lat="43.1513" lon="-4.694583">
        <time>2021-08-19T19:02:52Z</time>
      </trkpt>
      <trkpt lat="43.1513" lon="-4.694583">
        <time>2021-08-19T19:02:52Z</time>
      </trkpt>
      <trkpt lat="43.151668" lon="-4.692302">
        <time>2021-08-19T19:03:10Z</time>
      </trkpt>
      <trkpt lat="43.152544" lon="-4.690638">
        <time>2021-08-19T19:03:25Z</time>
      </trkpt>
      <trkpt lat="43.152878" lon="-4.690423">
        <time>2021-08-19T19:03:28Z</time>
      </trkpt>
      <trkpt lat="43.154007" lon="-4.689953">
        <time>2021-08-19T19:03:37Z</time>
      </trkpt>
      <trkpt lat="43.155134" lon="-4.689372">
        <time>2021-08-19T19:03:46Z</time>
      </trkpt>
      <trkpt lat="43.15536" lon="-4.688903">
        <time>2021-08-19T19:03:49Z</time>
      </trkpt>
      <trkpt lat="43.155791" lon="-4.686745">
        <time>2021-08-19T19:04:01Z</time>
      </trkpt>
      <trkpt lat="43.155654" lon="-4.685503">
        <time>2021-08-19T19:04:13Z</time>
      </trkpt>
      <trkpt lat="43.155402" lon="-4.685147">
        <time>2021-08-19T19:04:16Z</time>
      </trkpt>
      <trkpt lat="43.155235" lon="-4.684678">
        <time>2021-08-19T19:04:19Z</time>
      </trkpt>
      <trkpt lat="43.154618" lon="-4.682877">
        <time>2021-08-19T19:04:31Z</time>
      </trkpt>
      <trkpt lat="43.15428" lon="-4.681942">
        <time>2021-08-19T19:04:40Z</time>
      </trkpt>
      <trkpt lat="43.154325" lon="-4.681883">
        <time>2021-08-19T19:04:43Z</time>
      </trkpt>
      <trkpt lat="43.15478" lon="-4.681581">
        <time>2021-08-19T19:04:58Z</time>
      </trkpt>
      <trkpt lat="43.154783" lon="-4.681545">
        <time>2021-08-19T19:06:18Z</time>
      </trkpt>
      <trkpt lat="43.154783" lon="-4.681545">
        <time>2021-08-19T19:06:59Z</time>
      </trkpt>
      <trkpt lat="43.154783" lon="-4.681545">
        <time>2021-08-19T19:07:44Z</time>
      </trkpt>
      <trkpt lat="43.154784" lon="-4.681514">
        <time>2021-08-19T19:08:07Z</time>
      </trkpt>
      <trkpt lat="43.154075" lon="-4.681931">
        <time>2021-08-19T19:08:28Z</time>
      </trkpt>
      <trkpt lat="43.154422" lon="-4.683044">
        <time>2021-08-19T19:08:37Z</time>
      </trkpt>
      <trkpt lat="43.154558" lon="-4.683641">
        <time>2021-08-19T19:08:43Z</time>
      </trkpt>
      <trkpt lat="43.154517" lon="-4.683682">
        <time>2021-08-19T19:08:49Z</time>
      </trkpt>
      <trkpt lat="43.154511" lon="-4.683508">
        <time>2021-08-19T19:08:52Z</time>
      </trkpt>
      <trkpt lat="43.154471" lon="-4.68315">
        <time>2021-08-19T19:08:55Z</time>
      </trkpt>
      <trkpt lat="43.154336" lon="-4.682877">
        <time>2021-08-19T19:08:58Z</time>
      </trkpt>
      <trkpt lat="43.154095" lon="-4.682416">
        <time>2021-08-19T19:09:04Z</time>
      </trkpt>
      <trkpt lat="43.153967" lon="-4.682209">
        <time>2021-08-19T19:09:22Z</time>
      </trkpt>
      <trkpt lat="43.153928" lon="-4.682173">
        <time>2021-08-19T19:11:24Z</time>
      </trkpt>
      <trkpt lat="43.153928" lon="-4.682173">
        <time>2021-08-19T19:14:35Z</time>
      </trkpt>
      <trkpt lat="43.15382" lon="-4.682157">
        <time>2021-08-19T19:14:52Z</time>
      </trkpt>
      <trkpt lat="43.154309" lon="-4.683302">
        <time>2021-08-19T19:15:37Z</time>
      </trkpt>
      <trkpt lat="43.154431" lon="-4.683602">
        <time>2021-08-19T19:15:43Z</time>
      </trkpt>
      <trkpt lat="43.154509" lon="-4.68368">
        <time>2021-08-19T19:15:46Z</time>
      </trkpt>
      <trkpt lat="43.154499" lon="-4.683457">
        <time>2021-08-19T19:15:49Z</time>
      </trkpt>
      <trkpt lat="43.15441" lon="-4.68309">
        <time>2021-08-19T19:15:52Z</time>
      </trkpt>
      <trkpt lat="43.154122" lon="-4.682145">
        <time>2021-08-19T19:15:58Z</time>
      </trkpt>
      <trkpt lat="43.15397" lon="-4.68156">
        <time>2021-08-19T19:16:01Z</time>
      </trkpt>
      <trkpt lat="43.153648" lon="-4.68046">
        <time>2021-08-19T19:16:07Z</time>
      </trkpt>
      <trkpt lat="43.153024" lon="-4.677743">
        <time>2021-08-19T19:16:22Z</time>
      </trkpt>
      <trkpt lat="43.152748" lon="-4.677212">
        <time>2021-08-19T19:16:25Z</time>
      </trkpt>
      <trkpt lat="43.152485" lon="-4.67673">
        <time>2021-08-19T19:16:28Z</time>
      </trkpt>
      <trkpt lat="43.152393" lon="-4.676199">
        <time>2021-08-19T19:16:31Z</time>
      </trkpt>
      <trkpt lat="43.152493" lon="-4.67568">
        <time>2021-08-19T19:16:34Z</time>
      </trkpt>
      <trkpt lat="43.152944" lon="-4.67463">
        <time>2021-08-19T19:16:40Z</time>
      </trkpt>
      <trkpt lat="43.153184" lon="-4.674131">
        <time>2021-08-19T19:16:43Z</time>
      </trkpt>
      <trkpt lat="43.153514" lon="-4.673722">
        <time>2021-08-19T19:16:47Z</time>
      </trkpt>
      <trkpt lat="43.154431" lon="-4.671763">
        <time>2021-08-19T19:16:55Z</time>
      </trkpt>
      <trkpt lat="43.155357" lon="-4.668713">
        <time>2021-08-19T19:17:07Z</time>
      </trkpt>
      <trkpt lat="43.155357" lon="-4.668713">
        <time>2021-08-19T19:17:07Z</time>
      </trkpt>
      <trkpt lat="43.15556" lon="-4.668162">
        <time>2021-08-19T19:17:10Z</time>
      </trkpt>
      <trkpt lat="43.155897" lon="-4.667822">
        <time>2021-08-19T19:17:13Z</time>
      </trkpt>
      <trkpt lat="43.156254" lon="-4.667474">
        <time>2021-08-19T19:17:16Z</time>
      </trkpt>
      <trkpt lat="43.156489" lon="-4.666892">
        <time>2021-08-19T19:17:19Z</time>
      </trkpt>
      <trkpt lat="43.157362" lon="-4.663367">
        <time>2021-08-19T19:17:34Z</time>
      </trkpt>
      <trkpt lat="43.157868" lon="-4.660524">
        <time>2021-08-19T19:17:46Z</time>
      </trkpt>
      <trkpt lat="43.157512" lon="-4.656811">
        <time>2021-08-19T19:18:01Z</time>
      </trkpt>
      <trkpt lat="43.15729" lon="-4.655519">
        <time>2021-08-19T19:18:07Z</time>
      </trkpt>
      <trkpt lat="43.15621" lon="-4.651708">
        <time>2021-08-19T19:18:25Z</time>
      </trkpt>
      <trkpt lat="43.156565" lon="-4.65042">
        <time>2021-08-19T19:18:31Z</time>
      </trkpt>
      <trkpt lat="43.156971" lon="-4.649234">
        <time>2021-08-19T19:18:37Z</time>
      </trkpt>
      <trkpt lat="43.157264" lon="-4.648862">
        <time>2021-08-19T19:18:40Z</time>
      </trkpt>
      <trkpt lat="43.157919" lon="-4.648169">
        <time>2021-08-19T19:18:46Z</time>
      </trkpt>
      <trkpt lat="43.158535" lon="-4.646522">
        <time>2021-08-19T19:18:55Z</time>
      </trkpt>
      <trkpt lat="43.158445" lon="-4.645127">
        <time>2021-08-19T19:19:01Z</time>
      </trkpt>
      <trkpt lat="43.158445" lon="-4.645127">
        <time>2021-08-19T19:19:01Z</time>
      </trkpt>
      <trkpt lat="43.158111" lon="-4.643267">
        <time>2021-08-19T19:19:10Z</time>
      </trkpt>
      <trkpt lat="43.158035" lon="-4.642765">
        <time>2021-08-19T19:19:13Z</time>
      </trkpt>
      <trkpt lat="43.157833" lon="-4.642358">
        <time>2021-08-19T19:19:16Z</time>
      </trkpt>
      <trkpt lat="43.157046" lon="-4.64098">
        <time>2021-08-19T19:19:25Z</time>
      </trkpt>
      <trkpt lat="43.156488" lon="-4.639072">
        <time>2021-08-19T19:19:34Z</time>
      </trkpt>
      <trkpt lat="43.156488" lon="-4.639072">
        <time>2021-08-19T19:19:34Z</time>
      </trkpt>
      <trkpt lat="43.154922" lon="-4.635411">
        <time>2021-08-19T19:19:55Z</time>
      </trkpt>
      <trkpt lat="43.154634" lon="-4.633638">
        <time>2021-08-19T19:20:04Z</time>
      </trkpt>
      <trkpt lat="43.15442" lon="-4.633184">
        <time>2021-08-19T19:20:07Z</time>
      </trkpt>
      <trkpt lat="43.153827" lon="-4.631273">
        <time>2021-08-19T19:20:19Z</time>
      </trkpt>
      <trkpt lat="43.154015" lon="-4.627446">
        <time>2021-08-19T19:20:46Z</time>
      </trkpt>
      <trkpt lat="43.154049" lon="-4.62712">
        <time>2021-08-19T19:20:49Z</time>
      </trkpt>
      <trkpt lat="43.15428" lon="-4.625541">
        <time>2021-08-19T19:21:10Z</time>
      </trkpt>
      <trkpt lat="43.154609" lon="-4.625515">
        <time>2021-08-19T19:21:19Z</time>
      </trkpt>
      <trkpt lat="43.154683" lon="-4.625462">
        <time>2021-08-19T19:21:22Z</time>
      </trkpt>
      <trkpt lat="43.154717" lon="-4.625412">
        <time>2021-08-19T19:21:25Z</time>
      </trkpt>
      <trkpt lat="43.154724" lon="-4.62526">
        <time>2021-08-19T19:21:28Z</time>
      </trkpt>
      <trkpt lat="43.154705" lon="-4.625063">
        <time>2021-08-19T19:21:34Z</time>
      </trkpt>
      <trkpt lat="43.154728" lon="-4.624923">
        <time>2021-08-19T19:22:01Z</time>
      </trkpt>
      <trkpt lat="43.154742" lon="-4.624799">
        <time>2021-08-19T19:22:04Z</time>
      </trkpt>
      <trkpt lat="43.154746" lon="-4.624714">
        <time>2021-08-19T19:22:07Z</time>
      </trkpt>
      <trkpt lat="43.154739" lon="-4.624655">
        <time>2021-08-19T19:22:10Z</time>
      </trkpt>
      <trkpt lat="43.154725" lon="-4.624429">
        <time>2021-08-19T19:22:46Z</time>
      </trkpt>
      <trkpt lat="43.15473" lon="-4.62438">
        <time>2021-08-19T19:23:25Z</time>
      </trkpt>
      <trkpt lat="43.154753" lon="-4.624503">
        <time>2021-08-19T19:23:28Z</time>
      </trkpt>
      <trkpt lat="43.154884" lon="-4.624744">
        <time>2021-08-19T19:23:34Z</time>
      </trkpt>
      <trkpt lat="43.154922" lon="-4.624766">
        <time>2021-08-19T19:23:43Z</time>
      </trkpt>
      <trkpt lat="43.154941" lon="-4.624661">
        <time>2021-08-19T19:23:46Z</time>
      </trkpt>
      <trkpt lat="43.154986" lon="-4.624484">
        <time>2021-08-19T19:23:52Z</time>
      </trkpt>
      <trkpt lat="43.154996" lon="-4.624408">
        <time>2021-08-19T19:23:55Z</time>
      </trkpt>
      <trkpt lat="43.154997" lon="-4.624377">
        <time>2021-08-19T19:24:28Z</time>
      </trkpt>
      <trkpt lat="43.15505" lon="-4.624227">
        <time>2021-08-19T19:24:31Z</time>
      </trkpt>
      <trkpt lat="43.15506" lon="-4.624076">
        <time>2021-08-19T19:24:34Z</time>
      </trkpt>
      <trkpt lat="43.154973" lon="-4.623988">
        <time>2021-08-19T19:24:37Z</time>
      </trkpt>
      <trkpt lat="43.15487" lon="-4.62396">
        <time>2021-08-19T19:24:40Z</time>
      </trkpt>
      <trkpt lat="43.154773" lon="-4.624017">
        <time>2021-08-19T19:24:43Z</time>
      </trkpt>
      <trkpt lat="43.154719" lon="-4.624218">
        <time>2021-08-19T19:24:52Z</time>
      </trkpt>
      <trkpt lat="43.154717" lon="-4.624326">
        <time>2021-08-19T19:25:07Z</time>
      </trkpt>
      <trkpt lat="43.154717" lon="-4.624326">
        <time>2021-08-19T19:25:32Z</time>
      </trkpt>
      <trkpt lat="43.154717" lon="-4.624326">
        <time>2021-08-19T19:25:32Z</time>
      </trkpt>
      <trkpt lat="43.154717" lon="-4.624409">
        <time>2021-08-19T19:39:17Z</time>
      </trkpt>
      <trkpt lat="43.154724" lon="-4.624515">
        <time>2021-08-19T19:39:20Z</time>
      </trkpt>
      <trkpt lat="43.154779" lon="-4.62464">
        <time>2021-08-19T19:39:23Z</time>
      </trkpt>
      <trkpt lat="43.154867" lon="-4.624765">
        <time>2021-08-19T19:39:26Z</time>
      </trkpt>
      <trkpt lat="43.154938" lon="-4.624935">
        <time>2021-08-19T19:39:29Z</time>
      </trkpt>
      <trkpt lat="43.154958" lon="-4.625093">
        <time>2021-08-19T19:39:32Z</time>
      </trkpt>
      <trkpt lat="43.154927" lon="-4.625161">
        <time>2021-08-19T19:39:35Z</time>
      </trkpt>
      <trkpt lat="43.154823" lon="-4.625204">
        <time>2021-08-19T19:39:38Z</time>
      </trkpt>
      <trkpt lat="43.154737" lon="-4.625183">
        <time>2021-08-19T19:39:41Z</time>
      </trkpt>
      <trkpt lat="43.154723" lon="-4.625198">
        <time>2021-08-19T19:39:48Z</time>
      </trkpt>
      <trkpt lat="43.154723" lon="-4.625198">
        <time>2021-08-19T19:39:48Z</time>
      </trkpt>
      <trkpt lat="43.1548" lon="-4.625234">
        <time>2021-08-19T20:23:03Z</time>
      </trkpt>
      <trkpt lat="43.154599" lon="-4.625406">
        <time>2021-08-19T20:24:27Z</time>
      </trkpt>
      <trkpt lat="43.154437" lon="-4.6254">
        <time>2021-08-19T20:24:30Z</time>
      </trkpt>
      <trkpt lat="43.154362" lon="-4.625431">
        <time>2021-08-19T20:24:48Z</time>
      </trkpt>
      <trkpt lat="43.15432" lon="-4.625218">
        <time>2021-08-19T20:24:54Z</time>
      </trkpt>
      <trkpt lat="43.154261" lon="-4.624702">
        <time>2021-08-19T20:25:03Z</time>
      </trkpt>
      <trkpt lat="43.154109" lon="-4.624349">
        <time>2021-08-19T20:25:21Z</time>
      </trkpt>
      <trkpt lat="43.15402" lon="-4.624186">
        <time>2021-08-19T20:25:27Z</time>
      </trkpt>
      <trkpt lat="43.153612" lon="-4.623437">
        <time>2021-08-19T20:25:51Z</time>
      </trkpt>
      <trkpt lat="43.15363" lon="-4.623318">
        <time>2021-08-19T20:25:54Z</time>
      </trkpt>
      <trkpt lat="43.15366" lon="-4.62323">
        <time>2021-08-19T20:25:57Z</time>
      </trkpt>
      <trkpt lat="43.153813" lon="-4.622881">
        <time>2021-08-19T20:26:06Z</time>
      </trkpt>
      <trkpt lat="43.153843" lon="-4.622796">
        <time>2021-08-19T20:26:09Z</time>
      </trkpt>
      <trkpt lat="43.153852" lon="-4.622723">
        <time>2021-08-19T20:26:12Z</time>
      </trkpt>
      <trkpt lat="43.15389" lon="-4.622624">
        <time>2021-08-19T20:26:18Z</time>
      </trkpt>
      <trkpt lat="43.154048" lon="-4.622202">
        <time>2021-08-19T20:26:30Z</time>
      </trkpt>
      <trkpt lat="43.154113" lon="-4.622161">
        <time>2021-08-19T20:26:33Z</time>
      </trkpt>
      <trkpt lat="43.154283" lon="-4.621992">
        <time>2021-08-19T20:26:39Z</time>
      </trkpt>
      <trkpt lat="43.154353" lon="-4.621808">
        <time>2021-08-19T20:26:42Z</time>
      </trkpt>
      <trkpt lat="43.154541" lon="-4.6215">
        <time>2021-08-19T20:26:48Z</time>
      </trkpt>
      <trkpt lat="43.155058" lon="-4.620856">
        <time>2021-08-19T20:27:00Z</time>
      </trkpt>
      <trkpt lat="43.15575" lon="-4.619787">
        <time>2021-08-19T20:27:18Z</time>
      </trkpt>
      <trkpt lat="43.156265" lon="-4.618918">
        <time>2021-08-19T20:27:30Z</time>
      </trkpt>
      <trkpt lat="43.156516" lon="-4.618304">
        <time>2021-08-19T20:27:37Z</time>
      </trkpt>
      <trkpt lat="43.157674" lon="-4.61574">
        <time>2021-08-19T20:27:54Z</time>
      </trkpt>
      <trkpt lat="43.15839" lon="-4.614349">
        <time>2021-08-19T20:28:03Z</time>
      </trkpt>
      <trkpt lat="43.159025" lon="-4.613746">
        <time>2021-08-19T20:28:09Z</time>
      </trkpt>
      <trkpt lat="43.160422" lon="-4.612843">
        <time>2021-08-19T20:28:21Z</time>
      </trkpt>
      <trkpt lat="43.160621" lon="-4.612448">
        <time>2021-08-19T20:28:24Z</time>
      </trkpt>
      <trkpt lat="43.160902" lon="-4.611448">
        <time>2021-08-19T20:28:36Z</time>
      </trkpt>
      <trkpt lat="43.160956" lon="-4.611294">
        <time>2021-08-19T20:28:39Z</time>
      </trkpt>
      <trkpt lat="43.161095" lon="-4.611263">
        <time>2021-08-19T20:28:42Z</time>
      </trkpt>
      <trkpt lat="43.162067" lon="-4.611312">
        <time>2021-08-19T20:28:54Z</time>
      </trkpt>
      <trkpt lat="43.162506" lon="-4.610945">
        <time>2021-08-19T20:29:00Z</time>
      </trkpt>
      <trkpt lat="43.164723" lon="-4.608516">
        <time>2021-08-19T20:29:24Z</time>
      </trkpt>
      <trkpt lat="43.168335" lon="-4.604822">
        <time>2021-08-19T20:30:06Z</time>
      </trkpt>
      <trkpt lat="43.171766" lon="-4.601979">
        <time>2021-08-19T20:30:30Z</time>
      </trkpt>
      <trkpt lat="43.172533" lon="-4.601562">
        <time>2021-08-19T20:30:36Z</time>
      </trkpt>
      <trkpt lat="43.175258" lon="-4.600325">
        <time>2021-08-19T20:31:00Z</time>
      </trkpt>
      <trkpt lat="43.176943" lon="-4.600258">
        <time>2021-08-19T20:31:18Z</time>
      </trkpt>
      <trkpt lat="43.177266" lon="-4.600314">
        <time>2021-08-19T20:31:21Z</time>
      </trkpt>
      <trkpt lat="43.181761" lon="-4.601273">
        <time>2021-08-19T20:31:54Z</time>
      </trkpt>
      <trkpt lat="43.184186" lon="-4.601878">
        <time>2021-08-19T20:32:09Z</time>
      </trkpt>
      <trkpt lat="43.185561" lon="-4.602898">
        <time>2021-08-19T20:32:18Z</time>
      </trkpt>
      <trkpt lat="43.185919" lon="-4.603431">
        <time>2021-08-19T20:32:21Z</time>
      </trkpt>
      <trkpt lat="43.186654" lon="-4.604454">
        <time>2021-08-19T20:32:27Z</time>
      </trkpt>
      <trkpt lat="43.188013" lon="-4.605461">
        <time>2021-08-19T20:32:36Z</time>
      </trkpt>
      <trkpt lat="43.188527" lon="-4.605407">
        <time>2021-08-19T20:32:39Z</time>
      </trkpt>
      <trkpt lat="43.190015" lon="-4.604422">
        <time>2021-08-19T20:32:48Z</time>
      </trkpt>
      <trkpt lat="43.192181" lon="-4.603413">
        <time>2021-08-19T20:33:00Z</time>
      </trkpt>
      <trkpt lat="43.194331" lon="-4.603247">
        <time>2021-08-19T20:33:12Z</time>
      </trkpt>
      <trkpt lat="43.194331" lon="-4.603247">
        <time>2021-08-19T20:33:12Z</time>
      </trkpt>
      <trkpt lat="43.194759" lon="-4.602776">
        <time>2021-08-19T20:33:15Z</time>
      </trkpt>
      <trkpt lat="43.196183" lon="-4.600484">
        <time>2021-08-19T20:33:27Z</time>
      </trkpt>
      <trkpt lat="43.196262" lon="-4.599797">
        <time>2021-08-19T20:33:30Z</time>
      </trkpt>
      <trkpt lat="43.195969" lon="-4.597498">
        <time>2021-08-19T20:33:39Z</time>
      </trkpt>
      <trkpt lat="43.195853" lon="-4.59515">
        <time>2021-08-19T20:33:48Z</time>
      </trkpt>
      <trkpt lat="43.196145" lon="-4.594502">
        <time>2021-08-19T20:33:51Z</time>
      </trkpt>
      <trkpt lat="43.197846" lon="-4.592315">
        <time>2021-08-19T20:34:03Z</time>
      </trkpt>
      <trkpt lat="43.197846" lon="-4.592315">
        <time>2021-08-19T20:34:03Z</time>
      </trkpt>
      <trkpt lat="43.199468" lon="-4.58955">
        <time>2021-08-19T20:34:21Z</time>
      </trkpt>
      <trkpt lat="43.199862" lon="-4.589485">
        <time>2021-08-19T20:34:24Z</time>
      </trkpt>
      <trkpt lat="43.200681" lon="-4.58977">
        <time>2021-08-19T20:34:30Z</time>
      </trkpt>
      <trkpt lat="43.201298" lon="-4.590517">
        <time>2021-08-19T20:34:36Z</time>
      </trkpt>
      <trkpt lat="43.201723" lon="-4.590762">
        <time>2021-08-19T20:34:39Z</time>
      </trkpt>
      <trkpt lat="43.203012" lon="-4.592192">
        <time>2021-08-19T20:34:51Z</time>
      </trkpt>
      <trkpt lat="43.203175" lon="-4.592645">
        <time>2021-08-19T20:34:54Z</time>
      </trkpt>
      <trkpt lat="43.203431" lon="-4.593444">
        <time>2021-08-19T20:35:00Z</time>
      </trkpt>
      <trkpt lat="43.203766" lon="-4.593871">
        <time>2021-08-19T20:35:03Z</time>
      </trkpt>
      <trkpt lat="43.204242" lon="-4.593997">
        <time>2021-08-19T20:35:06Z</time>
      </trkpt>
      <trkpt lat="43.204696" lon="-4.594154">
        <time>2021-08-19T20:35:09Z</time>
      </trkpt>
      <trkpt lat="43.204696" lon="-4.594154">
        <time>2021-08-19T20:35:09Z</time>
      </trkpt>
      <trkpt lat="43.207772" lon="-4.594675">
        <time>2021-08-19T20:35:30Z</time>
      </trkpt>
      <trkpt lat="43.208918" lon="-4.594795">
        <time>2021-08-19T20:35:39Z</time>
      </trkpt>
      <trkpt lat="43.209341" lon="-4.594717">
        <time>2021-08-19T20:35:42Z</time>
      </trkpt>
      <trkpt lat="43.212009" lon="-4.594959">
        <time>2021-08-19T20:36:03Z</time>
      </trkpt>
      <trkpt lat="43.212193" lon="-4.594843">
        <time>2021-08-19T20:36:06Z</time>
      </trkpt>
      <trkpt lat="43.212378" lon="-4.594854">
        <time>2021-08-19T20:36:09Z</time>
      </trkpt>
      <trkpt lat="43.212647" lon="-4.594832">
        <time>2021-08-19T20:36:12Z</time>
      </trkpt>
      <trkpt lat="43.212834" lon="-4.594476">
        <time>2021-08-19T20:36:15Z</time>
      </trkpt>
      <trkpt lat="43.212947" lon="-4.593964">
        <time>2021-08-19T20:36:18Z</time>
      </trkpt>
      <trkpt lat="43.213024" lon="-4.593358">
        <time>2021-08-19T20:36:21Z</time>
      </trkpt>
      <trkpt lat="43.213139" lon="-4.592835">
        <time>2021-08-19T20:36:24Z</time>
      </trkpt>
      <trkpt lat="43.213377" lon="-4.592448">
        <time>2021-08-19T20:36:27Z</time>
      </trkpt>
      <trkpt lat="43.213725" lon="-4.592289">
        <time>2021-08-19T20:36:30Z</time>
      </trkpt>
      <trkpt lat="43.214357" lon="-4.5924">
        <time>2021-08-19T20:36:36Z</time>
      </trkpt>
      <trkpt lat="43.214634" lon="-4.592678">
        <time>2021-08-19T20:36:39Z</time>
      </trkpt>
      <trkpt lat="43.215304" lon="-4.592933">
        <time>2021-08-19T20:36:45Z</time>
      </trkpt>
      <trkpt lat="43.216522" lon="-4.59274">
        <time>2021-08-19T20:36:54Z</time>
      </trkpt>
      <trkpt lat="43.216884" lon="-4.592518">
        <time>2021-08-19T20:36:57Z</time>
      </trkpt>
      <trkpt lat="43.217427" lon="-4.591884">
        <time>2021-08-19T20:37:03Z</time>
      </trkpt>
      <trkpt lat="43.218313" lon="-4.590726">
        <time>2021-08-19T20:37:15Z</time>
      </trkpt>
      <trkpt lat="43.219333" lon="-4.589586">
        <time>2021-08-19T20:37:27Z</time>
      </trkpt>
      <trkpt lat="43.219717" lon="-4.588738">
        <time>2021-08-19T20:37:33Z</time>
      </trkpt>
      <trkpt lat="43.220056" lon="-4.588125">
        <time>2021-08-19T20:37:39Z</time>
      </trkpt>
      <trkpt lat="43.220056" lon="-4.588125">
        <time>2021-08-19T20:37:39Z</time>
      </trkpt>
      <trkpt lat="43.22029" lon="-4.58799">
        <time>2021-08-19T20:37:42Z</time>
      </trkpt>
      <trkpt lat="43.220566" lon="-4.587928">
        <time>2021-08-19T20:37:45Z</time>
      </trkpt>
      <trkpt lat="43.220859" lon="-4.588042">
        <time>2021-08-19T20:37:48Z</time>
      </trkpt>
      <trkpt lat="43.221574" lon="-4.588052">
        <time>2021-08-19T20:37:57Z</time>
      </trkpt>
      <trkpt lat="43.221705" lon="-4.587725">
        <time>2021-08-19T20:38:00Z</time>
      </trkpt>
      <trkpt lat="43.221989" lon="-4.58727">
        <time>2021-08-19T20:38:06Z</time>
      </trkpt>
      <trkpt lat="43.222906" lon="-4.586357">
        <time>2021-08-19T20:38:18Z</time>
      </trkpt>
      <trkpt lat="43.223479" lon="-4.58637">
        <time>2021-08-19T20:38:24Z</time>
      </trkpt>
      <trkpt lat="43.224053" lon="-4.586309">
        <time>2021-08-19T20:38:30Z</time>
      </trkpt>
      <trkpt lat="43.224053" lon="-4.586309">
        <time>2021-08-19T20:38:30Z</time>
      </trkpt>
      <trkpt lat="43.224291" lon="-4.586137">
        <time>2021-08-19T20:38:33Z</time>
      </trkpt>
      <trkpt lat="43.224684" lon="-4.585525">
        <time>2021-08-19T20:38:39Z</time>
      </trkpt>
      <trkpt lat="43.225381" lon="-4.584718">
        <time>2021-08-19T20:38:48Z</time>
      </trkpt>
      <trkpt lat="43.226541" lon="-4.583977">
        <time>2021-08-19T20:39:00Z</time>
      </trkpt>
      <trkpt lat="43.226911" lon="-4.583893">
        <time>2021-08-19T20:39:06Z</time>
      </trkpt>
      <trkpt lat="43.227372" lon="-4.583856">
        <time>2021-08-19T20:39:12Z</time>
      </trkpt>
      <trkpt lat="43.227557" lon="-4.583526">
        <time>2021-08-19T20:39:15Z</time>
      </trkpt>
      <trkpt lat="43.227873" lon="-4.58309">
        <time>2021-08-19T20:39:21Z</time>
      </trkpt>
      <trkpt lat="43.227873" lon="-4.58309">
        <time>2021-08-19T20:39:21Z</time>
      </trkpt>
      <trkpt lat="43.228069" lon="-4.582788">
        <time>2021-08-19T20:39:24Z</time>
      </trkpt>
      <trkpt lat="43.228244" lon="-4.582598">
        <time>2021-08-19T20:39:27Z</time>
      </trkpt>
      <trkpt lat="43.229032" lon="-4.582138">
        <time>2021-08-19T20:39:36Z</time>
      </trkpt>
      <trkpt lat="43.229808" lon="-4.582105">
        <time>2021-08-19T20:39:45Z</time>
      </trkpt>
      <trkpt lat="43.230368" lon="-4.582359">
        <time>2021-08-19T20:39:51Z</time>
      </trkpt>
      <trkpt lat="43.230776" lon="-4.5824">
        <time>2021-08-19T20:39:54Z</time>
      </trkpt>
      <trkpt lat="43.23114" lon="-4.582275">
        <time>2021-08-19T20:39:57Z</time>
      </trkpt>
      <trkpt lat="43.231392" lon="-4.582059">
        <time>2021-08-19T20:40:00Z</time>
      </trkpt>
      <trkpt lat="43.231812" lon="-4.58132">
        <time>2021-08-19T20:40:06Z</time>
      </trkpt>
      <trkpt lat="43.231812" lon="-4.58132">
        <time>2021-08-19T20:40:06Z</time>
      </trkpt>
      <trkpt lat="43.232109" lon="-4.580482">
        <time>2021-08-19T20:40:12Z</time>
      </trkpt>
      <trkpt lat="43.232589" lon="-4.579579">
        <time>2021-08-19T20:40:21Z</time>
      </trkpt>
      <trkpt lat="43.233081" lon="-4.57919">
        <time>2021-08-19T20:40:27Z</time>
      </trkpt>
      <trkpt lat="43.234118" lon="-4.578811">
        <time>2021-08-19T20:40:39Z</time>
      </trkpt>
      <trkpt lat="43.234753" lon="-4.57843">
        <time>2021-08-19T20:40:48Z</time>
      </trkpt>
      <trkpt lat="43.234957" lon="-4.578505">
        <time>2021-08-19T20:40:51Z</time>
      </trkpt>
      <trkpt lat="43.235307" lon="-4.578534">
        <time>2021-08-19T20:40:57Z</time>
      </trkpt>
      <trkpt lat="43.235581" lon="-4.578595">
        <time>2021-08-19T20:41:03Z</time>
      </trkpt>
      <trkpt lat="43.235581" lon="-4.578595">
        <time>2021-08-19T20:41:03Z</time>
      </trkpt>
      <trkpt lat="43.235628" lon="-4.578694">
        <time>2021-08-19T20:41:06Z</time>
      </trkpt>
      <trkpt lat="43.236008" lon="-4.579258">
        <time>2021-08-19T20:41:15Z</time>
      </trkpt>
      <trkpt lat="43.238317" lon="-4.581198">
        <time>2021-08-19T20:41:42Z</time>
      </trkpt>
      <trkpt lat="43.239093" lon="-4.581604">
        <time>2021-08-19T20:41:51Z</time>
      </trkpt>
      <trkpt lat="43.239221" lon="-4.58193">
        <time>2021-08-19T20:41:54Z</time>
      </trkpt>
      <trkpt lat="43.240012" lon="-4.582978">
        <time>2021-08-19T20:42:09Z</time>
      </trkpt>
      <trkpt lat="43.240288" lon="-4.583458">
        <time>2021-08-19T20:42:15Z</time>
      </trkpt>
      <trkpt lat="43.240434" lon="-4.583449">
        <time>2021-08-19T20:42:18Z</time>
      </trkpt>
      <trkpt lat="43.240769" lon="-4.583465">
        <time>2021-08-19T20:42:24Z</time>
      </trkpt>
      <trkpt lat="43.241324" lon="-4.583465">
        <time>2021-08-19T20:42:30Z</time>
      </trkpt>
      <trkpt lat="43.24175" lon="-4.583732">
        <time>2021-08-19T20:42:36Z</time>
      </trkpt>
      <trkpt lat="43.241838" lon="-4.583965">
        <time>2021-08-19T20:42:39Z</time>
      </trkpt>
      <trkpt lat="43.241848" lon="-4.584276">
        <time>2021-08-19T20:42:42Z</time>
      </trkpt>
      <trkpt lat="43.241998" lon="-4.58496">
        <time>2021-08-19T20:42:48Z</time>
      </trkpt>
      <trkpt lat="43.242236" lon="-4.58507">
        <time>2021-08-19T20:42:51Z</time>
      </trkpt>
      <trkpt lat="43.2425" lon="-4.585047">
        <time>2021-08-19T20:42:54Z</time>
      </trkpt>
      <trkpt lat="43.2425" lon="-4.585047">
        <time>2021-08-19T20:42:54Z</time>
      </trkpt>
      <trkpt lat="43.242674" lon="-4.585235">
        <time>2021-08-19T20:42:57Z</time>
      </trkpt>
      <trkpt lat="43.243531" lon="-4.585616">
        <time>2021-08-19T20:43:06Z</time>
      </trkpt>
      <trkpt lat="43.243953" lon="-4.586096">
        <time>2021-08-19T20:43:12Z</time>
      </trkpt>
      <trkpt lat="43.244831" lon="-4.586621">
        <time>2021-08-19T20:43:21Z</time>
      </trkpt>
      <trkpt lat="43.24552" lon="-4.586931">
        <time>2021-08-19T20:43:27Z</time>
      </trkpt>
      <trkpt lat="43.245861" lon="-4.587172">
        <time>2021-08-19T20:43:30Z</time>
      </trkpt>
      <trkpt lat="43.246265" lon="-4.587907">
        <time>2021-08-19T20:43:36Z</time>
      </trkpt>
      <trkpt lat="43.246202" lon="-4.588321">
        <time>2021-08-19T20:43:42Z</time>
      </trkpt>
      <trkpt lat="43.246202" lon="-4.588321">
        <time>2021-08-19T20:43:42Z</time>
      </trkpt>
      <trkpt lat="43.24614" lon="-4.588482">
        <time>2021-08-19T20:43:45Z</time>
      </trkpt>
      <trkpt lat="43.246189" lon="-4.588661">
        <time>2021-08-19T20:43:54Z</time>
      </trkpt>
      <trkpt lat="43.246421" lon="-4.589192">
        <time>2021-08-19T20:43:57Z</time>
      </trkpt>
      <trkpt lat="43.246701" lon="-4.590159">
        <time>2021-08-19T20:44:03Z</time>
      </trkpt>
      <trkpt lat="43.246718" lon="-4.590646">
        <time>2021-08-19T20:44:09Z</time>
      </trkpt>
      <trkpt lat="43.246763" lon="-4.590864">
        <time>2021-08-19T20:44:12Z</time>
      </trkpt>
      <trkpt lat="43.247125" lon="-4.591452">
        <time>2021-08-19T20:44:18Z</time>
      </trkpt>
      <trkpt lat="43.247837" lon="-4.592442">
        <time>2021-08-19T20:44:27Z</time>
      </trkpt>
      <trkpt lat="43.247835" lon="-4.592828">
        <time>2021-08-19T20:44:30Z</time>
      </trkpt>
      <trkpt lat="43.247884" lon="-4.59385">
        <time>2021-08-19T20:44:39Z</time>
      </trkpt>
      <trkpt lat="43.247951" lon="-4.594149">
        <time>2021-08-19T20:44:42Z</time>
      </trkpt>
      <trkpt lat="43.248168" lon="-4.594909">
        <time>2021-08-19T20:44:48Z</time>
      </trkpt>
      <trkpt lat="43.24897" lon="-4.597817">
        <time>2021-08-19T20:45:09Z</time>
      </trkpt>
      <trkpt lat="43.248985" lon="-4.598162">
        <time>2021-08-19T20:45:12Z</time>
      </trkpt>
      <trkpt lat="43.249062" lon="-4.598861">
        <time>2021-08-19T20:45:18Z</time>
      </trkpt>
      <trkpt lat="43.249388" lon="-4.59956">
        <time>2021-08-19T20:45:24Z</time>
      </trkpt>
      <trkpt lat="43.249486" lon="-4.599847">
        <time>2021-08-19T20:45:27Z</time>
      </trkpt>
      <trkpt lat="43.249486" lon="-4.599847">
        <time>2021-08-19T20:45:27Z</time>
      </trkpt>
      <trkpt lat="43.249524" lon="-4.600248">
        <time>2021-08-19T20:45:30Z</time>
      </trkpt>
      <trkpt lat="43.249744" lon="-4.601415">
        <time>2021-08-19T20:45:39Z</time>
      </trkpt>
      <trkpt lat="43.250887" lon="-4.603102">
        <time>2021-08-19T20:45:54Z</time>
      </trkpt>
      <trkpt lat="43.250971" lon="-4.603493">
        <time>2021-08-19T20:45:57Z</time>
      </trkpt>
      <trkpt lat="43.25095" lon="-4.603846">
        <time>2021-08-19T20:46:00Z</time>
      </trkpt>
      <trkpt lat="43.250779" lon="-4.604302">
        <time>2021-08-19T20:46:06Z</time>
      </trkpt>
      <trkpt lat="43.25058" lon="-4.60528">
        <time>2021-08-19T20:46:15Z</time>
      </trkpt>
      <trkpt lat="43.25058" lon="-4.60528">
        <time>2021-08-19T20:46:15Z</time>
      </trkpt>
      <trkpt lat="43.250584" lon="-4.606389">
        <time>2021-08-19T20:46:27Z</time>
      </trkpt>
      <trkpt lat="43.250626" lon="-4.607008">
        <time>2021-08-19T20:46:36Z</time>
      </trkpt>
      <trkpt lat="43.250766" lon="-4.607518">
        <time>2021-08-19T20:46:40Z</time>
      </trkpt>
      <trkpt lat="43.251046" lon="-4.608639">
        <time>2021-08-19T20:46:53Z</time>
      </trkpt>
      <trkpt lat="43.251126" lon="-4.609322">
        <time>2021-08-19T20:46:59Z</time>
      </trkpt>
      <trkpt lat="43.250998" lon="-4.610109">
        <time>2021-08-19T20:47:05Z</time>
      </trkpt>
      <trkpt lat="43.250989" lon="-4.611324">
        <time>2021-08-19T20:47:14Z</time>
      </trkpt>
      <trkpt lat="43.250989" lon="-4.611324">
        <time>2021-08-19T20:47:14Z</time>
      </trkpt>
      <trkpt lat="43.251152" lon="-4.611711">
        <time>2021-08-19T20:47:17Z</time>
      </trkpt>
      <trkpt lat="43.251772" lon="-4.612356">
        <time>2021-08-19T20:47:23Z</time>
      </trkpt>
      <trkpt lat="43.252968" lon="-4.612942">
        <time>2021-08-19T20:47:32Z</time>
      </trkpt>
      <trkpt lat="43.253803" lon="-4.613209">
        <time>2021-08-19T20:47:41Z</time>
      </trkpt>
      <trkpt lat="43.254165" lon="-4.613649">
        <time>2021-08-19T20:47:47Z</time>
      </trkpt>
      <trkpt lat="43.254423" lon="-4.614641">
        <time>2021-08-19T20:47:56Z</time>
      </trkpt>
      <trkpt lat="43.254423" lon="-4.614641">
        <time>2021-08-19T20:47:56Z</time>
      </trkpt>
      <trkpt lat="43.254702" lon="-4.615156">
        <time>2021-08-19T20:48:02Z</time>
      </trkpt>
      <trkpt lat="43.25509" lon="-4.615569">
        <time>2021-08-19T20:48:08Z</time>
      </trkpt>
      <trkpt lat="43.255564" lon="-4.615714">
        <time>2021-08-19T20:48:14Z</time>
      </trkpt>
      <trkpt lat="43.256724" lon="-4.616125">
        <time>2021-08-19T20:48:26Z</time>
      </trkpt>
      <trkpt lat="43.258418" lon="-4.617624">
        <time>2021-08-19T20:48:44Z</time>
      </trkpt>
      <trkpt lat="43.258418" lon="-4.617624">
        <time>2021-08-19T20:48:44Z</time>
      </trkpt>
      <trkpt lat="43.258843" lon="-4.618022">
        <time>2021-08-19T20:48:50Z</time>
      </trkpt>
      <trkpt lat="43.259538" lon="-4.618894">
        <time>2021-08-19T20:49:02Z</time>
      </trkpt>
      <trkpt lat="43.259721" lon="-4.619093">
        <time>2021-08-19T20:49:05Z</time>
      </trkpt>
      <trkpt lat="43.259966" lon="-4.619339">
        <time>2021-08-19T20:49:11Z</time>
      </trkpt>
      <trkpt lat="43.260301" lon="-4.619489">
        <time>2021-08-19T20:49:17Z</time>
      </trkpt>
      <trkpt lat="43.260732" lon="-4.61976">
        <time>2021-08-19T20:49:23Z</time>
      </trkpt>
      <trkpt lat="43.261158" lon="-4.620335">
        <time>2021-08-19T20:49:29Z</time>
      </trkpt>
      <trkpt lat="43.262005" lon="-4.621294">
        <time>2021-08-19T20:49:38Z</time>
      </trkpt>
      <trkpt lat="43.263473" lon="-4.622938">
        <time>2021-08-19T20:49:53Z</time>
      </trkpt>
      <trkpt lat="43.264311" lon="-4.624314">
        <time>2021-08-19T20:50:02Z</time>
      </trkpt>
      <trkpt lat="43.264864" lon="-4.626234">
        <time>2021-08-19T20:50:11Z</time>
      </trkpt>
      <trkpt lat="43.264965" lon="-4.626889">
        <time>2021-08-19T20:50:14Z</time>
      </trkpt>
      <trkpt lat="43.265386" lon="-4.628756">
        <time>2021-08-19T20:50:23Z</time>
      </trkpt>
      <trkpt lat="43.266651" lon="-4.63173">
        <time>2021-08-19T20:50:41Z</time>
      </trkpt>
      <trkpt lat="43.266958" lon="-4.631846">
        <time>2021-08-19T20:50:44Z</time>
      </trkpt>
      <trkpt lat="43.266958" lon="-4.631846">
        <time>2021-08-19T20:50:44Z</time>
      </trkpt>
      <trkpt lat="43.267523" lon="-4.631918">
        <time>2021-08-19T20:50:50Z</time>
      </trkpt>
      <trkpt lat="43.267707" lon="-4.632163">
        <time>2021-08-19T20:50:53Z</time>
      </trkpt>
      <trkpt lat="43.267857" lon="-4.632571">
        <time>2021-08-19T20:50:56Z</time>
      </trkpt>
      <trkpt lat="43.267897" lon="-4.63366">
        <time>2021-08-19T20:51:02Z</time>
      </trkpt>
      <trkpt lat="43.268064" lon="-4.634246">
        <time>2021-08-19T20:51:05Z</time>
      </trkpt>
      <trkpt lat="43.268315" lon="-4.634729">
        <time>2021-08-19T20:51:08Z</time>
      </trkpt>
      <trkpt lat="43.268686" lon="-4.634938">
        <time>2021-08-19T20:51:11Z</time>
      </trkpt>
      <trkpt lat="43.269904" lon="-4.635685">
        <time>2021-08-19T20:51:20Z</time>
      </trkpt>
      <trkpt lat="43.271238" lon="-4.636275">
        <time>2021-08-19T20:51:29Z</time>
      </trkpt>
      <trkpt lat="43.273063" lon="-4.63655">
        <time>2021-08-19T20:51:41Z</time>
      </trkpt>
      <trkpt lat="43.274349" lon="-4.636848">
        <time>2021-08-19T20:51:50Z</time>
      </trkpt>
      <trkpt lat="43.274349" lon="-4.636848">
        <time>2021-08-19T20:51:50Z</time>
      </trkpt>
      <trkpt lat="43.27555" lon="-4.636599">
        <time>2021-08-19T20:51:59Z</time>
      </trkpt>
      <trkpt lat="43.277299" lon="-4.634959">
        <time>2021-08-19T20:52:11Z</time>
      </trkpt>
      <trkpt lat="43.277887" lon="-4.633284">
        <time>2021-08-19T20:52:20Z</time>
      </trkpt>
      <trkpt lat="43.277887" lon="-4.633284">
        <time>2021-08-19T20:52:20Z</time>
      </trkpt>
      <trkpt lat="43.277901" lon="-4.632176">
        <time>2021-08-19T20:52:26Z</time>
      </trkpt>
      <trkpt lat="43.277969" lon="-4.631713">
        <time>2021-08-19T20:52:29Z</time>
      </trkpt>
      <trkpt lat="43.277969" lon="-4.631713">
        <time>2021-08-19T20:52:29Z</time>
      </trkpt>
      <trkpt lat="43.278131" lon="-4.631288">
        <time>2021-08-19T20:52:32Z</time>
      </trkpt>
      <trkpt lat="43.278403" lon="-4.631097">
        <time>2021-08-19T20:52:35Z</time>
      </trkpt>
      <trkpt lat="43.278403" lon="-4.631097">
        <time>2021-08-19T20:52:35Z</time>
      </trkpt>
      <trkpt lat="43.280004" lon="-4.630504">
        <time>2021-08-19T20:52:47Z</time>
      </trkpt>
      <trkpt lat="43.280236" lon="-4.629952">
        <time>2021-08-19T20:52:50Z</time>
      </trkpt>
      <trkpt lat="43.280717" lon="-4.62872">
        <time>2021-08-19T20:52:56Z</time>
      </trkpt>
      <trkpt lat="43.281506" lon="-4.627368">
        <time>2021-08-19T20:53:05Z</time>
      </trkpt>
      <trkpt lat="43.281793" lon="-4.627168">
        <time>2021-08-19T20:53:08Z</time>
      </trkpt>
      <trkpt lat="43.282307" lon="-4.62692">
        <time>2021-08-19T20:53:14Z</time>
      </trkpt>
      <trkpt lat="43.284076" lon="-4.626666">
        <time>2021-08-19T20:53:29Z</time>
      </trkpt>
      <trkpt lat="43.284743" lon="-4.626497">
        <time>2021-08-19T20:53:35Z</time>
      </trkpt>
      <trkpt lat="43.285149" lon="-4.626359">
        <time>2021-08-19T20:53:38Z</time>
      </trkpt>
      <trkpt lat="43.285984" lon="-4.625764">
        <time>2021-08-19T20:53:44Z</time>
      </trkpt>
      <trkpt lat="43.288232" lon="-4.624209">
        <time>2021-08-19T20:54:02Z</time>
      </trkpt>
      <trkpt lat="43.288402" lon="-4.623859">
        <time>2021-08-19T20:54:05Z</time>
      </trkpt>
      <trkpt lat="43.288543" lon="-4.623378">
        <time>2021-08-19T20:54:08Z</time>
      </trkpt>
      <trkpt lat="43.288668" lon="-4.622856">
        <time>2021-08-19T20:54:11Z</time>
      </trkpt>
      <trkpt lat="43.288642" lon="-4.621802">
        <time>2021-08-19T20:54:17Z</time>
      </trkpt>
      <trkpt lat="43.288441" lon="-4.620385">
        <time>2021-08-19T20:54:26Z</time>
      </trkpt>
      <trkpt lat="43.288702" lon="-4.619708">
        <time>2021-08-19T20:54:32Z</time>
      </trkpt>
      <trkpt lat="43.288995" lon="-4.619505">
        <time>2021-08-19T20:54:35Z</time>
      </trkpt>
      <trkpt lat="43.289668" lon="-4.61917">
        <time>2021-08-19T20:54:41Z</time>
      </trkpt>
      <trkpt lat="43.290279" lon="-4.619185">
        <time>2021-08-19T20:54:47Z</time>
      </trkpt>
      <trkpt lat="43.29054" lon="-4.619039">
        <time>2021-08-19T20:54:50Z</time>
      </trkpt>
      <trkpt lat="43.290733" lon="-4.618824">
        <time>2021-08-19T20:54:53Z</time>
      </trkpt>
      <trkpt lat="43.290842" lon="-4.618438">
        <time>2021-08-19T20:54:56Z</time>
      </trkpt>
      <trkpt lat="43.291609" lon="-4.615472">
        <time>2021-08-19T20:55:08Z</time>
      </trkpt>
      <trkpt lat="43.291956" lon="-4.61519">
        <time>2021-08-19T20:55:11Z</time>
      </trkpt>
      <trkpt lat="43.292747" lon="-4.614436">
        <time>2021-08-19T20:55:17Z</time>
      </trkpt>
      <trkpt lat="43.292747" lon="-4.614436">
        <time>2021-08-19T20:55:17Z</time>
      </trkpt>
      <trkpt lat="43.292975" lon="-4.613688">
        <time>2021-08-19T20:55:20Z</time>
      </trkpt>
      <trkpt lat="43.2935" lon="-4.612633">
        <time>2021-08-19T20:55:26Z</time>
      </trkpt>
      <trkpt lat="43.294223" lon="-4.611799">
        <time>2021-08-19T20:55:32Z</time>
      </trkpt>
      <trkpt lat="43.294386" lon="-4.611048">
        <time>2021-08-19T20:55:35Z</time>
      </trkpt>
      <trkpt lat="43.294959" lon="-4.609072">
        <time>2021-08-19T20:55:44Z</time>
      </trkpt>
      <trkpt lat="43.294959" lon="-4.609072">
        <time>2021-08-19T20:55:44Z</time>
      </trkpt>
      <trkpt lat="43.295979" lon="-4.607671">
        <time>2021-08-19T20:55:53Z</time>
      </trkpt>
      <trkpt lat="43.296728" lon="-4.607384">
        <time>2021-08-19T20:55:59Z</time>
      </trkpt>
      <trkpt lat="43.297735" lon="-4.607573">
        <time>2021-08-19T20:56:08Z</time>
      </trkpt>
      <trkpt lat="43.297976" lon="-4.607592">
        <time>2021-08-19T20:56:11Z</time>
      </trkpt>
      <trkpt lat="43.298951" lon="-4.607445">
        <time>2021-08-19T20:56:20Z</time>
      </trkpt>
      <trkpt lat="43.298951" lon="-4.607445">
        <time>2021-08-19T20:56:20Z</time>
      </trkpt>
      <trkpt lat="43.301017" lon="-4.606835">
        <time>2021-08-19T20:56:32Z</time>
      </trkpt>
      <trkpt lat="43.302419" lon="-4.606654">
        <time>2021-08-19T20:56:41Z</time>
      </trkpt>
      <trkpt lat="43.302795" lon="-4.606373">
        <time>2021-08-19T20:56:44Z</time>
      </trkpt>
      <trkpt lat="43.303646" lon="-4.605737">
        <time>2021-08-19T20:56:50Z</time>
      </trkpt>
      <trkpt lat="43.304084" lon="-4.60556">
        <time>2021-08-19T20:56:53Z</time>
      </trkpt>
      <trkpt lat="43.304574" lon="-4.60557">
        <time>2021-08-19T20:56:56Z</time>
      </trkpt>
      <trkpt lat="43.305592" lon="-4.60585">
        <time>2021-08-19T20:57:02Z</time>
      </trkpt>
      <trkpt lat="43.30597" lon="-4.6062">
        <time>2021-08-19T20:57:05Z</time>
      </trkpt>
      <trkpt lat="43.307902" lon="-4.607823">
        <time>2021-08-19T20:57:20Z</time>
      </trkpt>
      <trkpt lat="43.307902" lon="-4.607823">
        <time>2021-08-19T20:57:20Z</time>
      </trkpt>
      <trkpt lat="43.308901" lon="-4.607928">
        <time>2021-08-19T20:57:26Z</time>
      </trkpt>
      <trkpt lat="43.309756" lon="-4.608376">
        <time>2021-08-19T20:57:32Z</time>
      </trkpt>
      <trkpt lat="43.31001" lon="-4.608951">
        <time>2021-08-19T20:57:35Z</time>
      </trkpt>
      <trkpt lat="43.310405" lon="-4.609355">
        <time>2021-08-19T20:57:41Z</time>
      </trkpt>
      <trkpt lat="43.310941" lon="-4.609023">
        <time>2021-08-19T20:57:47Z</time>
      </trkpt>
      <trkpt lat="43.311334" lon="-4.608974">
        <time>2021-08-19T20:57:50Z</time>
      </trkpt>
      <trkpt lat="43.311803" lon="-4.609118">
        <time>2021-08-19T20:57:53Z</time>
      </trkpt>
      <trkpt lat="43.312228" lon="-4.609272">
        <time>2021-08-19T20:57:56Z</time>
      </trkpt>
      <trkpt lat="43.313554" lon="-4.60922">
        <time>2021-08-19T20:58:05Z</time>
      </trkpt>
      <trkpt lat="43.314298" lon="-4.608764">
        <time>2021-08-19T20:58:11Z</time>
      </trkpt>
      <trkpt lat="43.314527" lon="-4.608178">
        <time>2021-08-19T20:58:14Z</time>
      </trkpt>
      <trkpt lat="43.315138" lon="-4.607274">
        <time>2021-08-19T20:58:20Z</time>
      </trkpt>
      <trkpt lat="43.31596" lon="-4.606988">
        <time>2021-08-19T20:58:26Z</time>
      </trkpt>
      <trkpt lat="43.316385" lon="-4.607154">
        <time>2021-08-19T20:58:29Z</time>
      </trkpt>
      <trkpt lat="43.317722" lon="-4.607455">
        <time>2021-08-19T20:58:38Z</time>
      </trkpt>
      <trkpt lat="43.318575" lon="-4.607345">
        <time>2021-08-19T20:58:44Z</time>
      </trkpt>
      <trkpt lat="43.319247" lon="-4.606651">
        <time>2021-08-19T20:58:50Z</time>
      </trkpt>
      <trkpt lat="43.319565" lon="-4.606219">
        <time>2021-08-19T20:58:53Z</time>
      </trkpt>
      <trkpt lat="43.320537" lon="-4.605136">
        <time>2021-08-19T20:59:02Z</time>
      </trkpt>
      <trkpt lat="43.320537" lon="-4.605136">
        <time>2021-08-19T20:59:02Z</time>
      </trkpt>
      <trkpt lat="43.320637" lon="-4.604539">
        <time>2021-08-19T20:59:05Z</time>
      </trkpt>
      <trkpt lat="43.320476" lon="-4.60136">
        <time>2021-08-19T20:59:17Z</time>
      </trkpt>
      <trkpt lat="43.320238" lon="-4.598853">
        <time>2021-08-19T20:59:26Z</time>
      </trkpt>
      <trkpt lat="43.320124" lon="-4.592565">
        <time>2021-08-19T20:59:50Z</time>
      </trkpt>
      <trkpt lat="43.320124" lon="-4.592565">
        <time>2021-08-19T20:59:50Z</time>
      </trkpt>
      <trkpt lat="43.322041" lon="-4.5867">
        <time>2021-08-19T21:00:32Z</time>
      </trkpt>
      <trkpt lat="43.32208" lon="-4.586626">
        <time>2021-08-19T21:00:35Z</time>
      </trkpt>
      <trkpt lat="43.322962" lon="-4.584958">
        <time>2021-08-19T21:01:17Z</time>
      </trkpt>
      <trkpt lat="43.324205" lon="-4.583876">
        <time>2021-08-19T21:01:35Z</time>
      </trkpt>
      <trkpt lat="43.3247" lon="-4.583895">
        <time>2021-08-19T21:01:41Z</time>
      </trkpt>
      <trkpt lat="43.325208" lon="-4.584042">
        <time>2021-08-19T21:01:47Z</time>
      </trkpt>
      <trkpt lat="43.325751" lon="-4.584181">
        <time>2021-08-19T21:01:53Z</time>
      </trkpt>
      <trkpt lat="43.325952" lon="-4.584449">
        <time>2021-08-19T21:01:56Z</time>
      </trkpt>
      <trkpt lat="43.326159" lon="-4.584547">
        <time>2021-08-19T21:01:59Z</time>
      </trkpt>
      <trkpt lat="43.326363" lon="-4.58438">
        <time>2021-08-19T21:02:02Z</time>
      </trkpt>
      <trkpt lat="43.32786" lon="-4.581678">
        <time>2021-08-19T21:02:20Z</time>
      </trkpt>
      <trkpt lat="43.327998" lon="-4.581039">
        <time>2021-08-19T21:02:23Z</time>
      </trkpt>
      <trkpt lat="43.3281" lon="-4.579708">
        <time>2021-08-19T21:02:29Z</time>
      </trkpt>
      <trkpt lat="43.328155" lon="-4.574272">
        <time>2021-08-19T21:02:50Z</time>
      </trkpt>
      <trkpt lat="43.327908" lon="-4.573485">
        <time>2021-08-19T21:02:53Z</time>
      </trkpt>
      <trkpt lat="43.327544" lon="-4.572793">
        <time>2021-08-19T21:02:56Z</time>
      </trkpt>
      <trkpt lat="43.326499" lon="-4.570822">
        <time>2021-08-19T21:03:05Z</time>
      </trkpt>
      <trkpt lat="43.326513" lon="-4.570022">
        <time>2021-08-19T21:03:08Z</time>
      </trkpt>
      <trkpt lat="43.326701" lon="-4.568342">
        <time>2021-08-19T21:03:14Z</time>
      </trkpt>
      <trkpt lat="43.326549" lon="-4.567512">
        <time>2021-08-19T21:03:17Z</time>
      </trkpt>
      <trkpt lat="43.326549" lon="-4.567512">
        <time>2021-08-19T21:03:17Z</time>
      </trkpt>
      <trkpt lat="43.326238" lon="-4.565931">
        <time>2021-08-19T21:03:23Z</time>
      </trkpt>
      <trkpt lat="43.32627" lon="-4.565159">
        <time>2021-08-19T21:03:26Z</time>
      </trkpt>
      <trkpt lat="43.326456" lon="-4.564446">
        <time>2021-08-19T21:03:29Z</time>
      </trkpt>
      <trkpt lat="43.326929" lon="-4.562466">
        <time>2021-08-19T21:03:38Z</time>
      </trkpt>
      <trkpt lat="43.326728" lon="-4.561127">
        <time>2021-08-19T21:03:44Z</time>
      </trkpt>
      <trkpt lat="43.326474" lon="-4.558715">
        <time>2021-08-19T21:03:56Z</time>
      </trkpt>
      <trkpt lat="43.326669" lon="-4.557732">
        <time>2021-08-19T21:04:02Z</time>
      </trkpt>
      <trkpt lat="43.327907" lon="-4.555032">
        <time>2021-08-19T21:04:17Z</time>
      </trkpt>
      <trkpt lat="43.328481" lon="-4.554053">
        <time>2021-08-19T21:04:23Z</time>
      </trkpt>
      <trkpt lat="43.328784" lon="-4.553766">
        <time>2021-08-19T21:04:26Z</time>
      </trkpt>
      <trkpt lat="43.329108" lon="-4.553641">
        <time>2021-08-19T21:04:29Z</time>
      </trkpt>
      <trkpt lat="43.330874" lon="-4.55354">
        <time>2021-08-19T21:04:44Z</time>
      </trkpt>
      <trkpt lat="43.331506" lon="-4.553021">
        <time>2021-08-19T21:04:50Z</time>
      </trkpt>
      <trkpt lat="43.331743" lon="-4.552442">
        <time>2021-08-19T21:04:53Z</time>
      </trkpt>
      <trkpt lat="43.331743" lon="-4.552442">
        <time>2021-08-19T21:04:53Z</time>
      </trkpt>
      <trkpt lat="43.331854" lon="-4.551697">
        <time>2021-08-19T21:04:56Z</time>
      </trkpt>
      <trkpt lat="43.33211" lon="-4.546104">
        <time>2021-08-19T21:05:17Z</time>
      </trkpt>
      <trkpt lat="43.332411" lon="-4.544505">
        <time>2021-08-19T21:05:23Z</time>
      </trkpt>
      <trkpt lat="43.333334" lon="-4.541915">
        <time>2021-08-19T21:05:35Z</time>
      </trkpt>
      <trkpt lat="43.334072" lon="-4.540611">
        <time>2021-08-19T21:05:44Z</time>
      </trkpt>
      <trkpt lat="43.334719" lon="-4.539054">
        <time>2021-08-19T21:05:56Z</time>
      </trkpt>
      <trkpt lat="43.334782" lon="-4.538455">
        <time>2021-08-19T21:05:59Z</time>
      </trkpt>
      <trkpt lat="43.334676" lon="-4.536517">
        <time>2021-08-19T21:06:08Z</time>
      </trkpt>
      <trkpt lat="43.334874" lon="-4.536015">
        <time>2021-08-19T21:06:11Z</time>
      </trkpt>
      <trkpt lat="43.335194" lon="-4.535763">
        <time>2021-08-19T21:06:14Z</time>
      </trkpt>
      <trkpt lat="43.335591" lon="-4.535756">
        <time>2021-08-19T21:06:17Z</time>
      </trkpt>
      <trkpt lat="43.336011" lon="-4.53589">
        <time>2021-08-19T21:06:20Z</time>
      </trkpt>
      <trkpt lat="43.337815" lon="-4.537002">
        <time>2021-08-19T21:06:32Z</time>
      </trkpt>
      <trkpt lat="43.339004" lon="-4.538889">
        <time>2021-08-19T21:06:44Z</time>
      </trkpt>
      <trkpt lat="43.33976" lon="-4.53929">
        <time>2021-08-19T21:06:50Z</time>
      </trkpt>
      <trkpt lat="43.340084" lon="-4.539451">
        <time>2021-08-19T21:06:53Z</time>
      </trkpt>
      <trkpt lat="43.341174" lon="-4.539453">
        <time>2021-08-19T21:07:02Z</time>
      </trkpt>
      <trkpt lat="43.341979" lon="-4.538716">
        <time>2021-08-19T21:07:08Z</time>
      </trkpt>
      <trkpt lat="43.343309" lon="-4.536312">
        <time>2021-08-19T21:07:20Z</time>
      </trkpt>
      <trkpt lat="43.343549" lon="-4.535705">
        <time>2021-08-19T21:07:23Z</time>
      </trkpt>
      <trkpt lat="43.344088" lon="-4.5346">
        <time>2021-08-19T21:07:29Z</time>
      </trkpt>
      <trkpt lat="43.34489" lon="-4.534046">
        <time>2021-08-19T21:07:35Z</time>
      </trkpt>
      <trkpt lat="43.345924" lon="-4.534066">
        <time>2021-08-19T21:07:41Z</time>
      </trkpt>
      <trkpt lat="43.347356" lon="-4.534262">
        <time>2021-08-19T21:07:50Z</time>
      </trkpt>
      <trkpt lat="43.349944" lon="-4.534187">
        <time>2021-08-19T21:08:05Z</time>
      </trkpt>
      <trkpt lat="43.351885" lon="-4.533163">
        <time>2021-08-19T21:08:17Z</time>
      </trkpt>
      <trkpt lat="43.355327" lon="-4.532065">
        <time>2021-08-19T21:08:35Z</time>
      </trkpt>
      <trkpt lat="43.356626" lon="-4.532101">
        <time>2021-08-19T21:08:41Z</time>
      </trkpt>
      <trkpt lat="43.3572" lon="-4.531999">
        <time>2021-08-19T21:08:44Z</time>
      </trkpt>
      <trkpt lat="43.357709" lon="-4.53156">
        <time>2021-08-19T21:08:47Z</time>
      </trkpt>
      <trkpt lat="43.358752" lon="-4.530835">
        <time>2021-08-19T21:08:53Z</time>
      </trkpt>
      <trkpt lat="43.359331" lon="-4.530806">
        <time>2021-08-19T21:08:56Z</time>
      </trkpt>
      <trkpt lat="43.360964" lon="-4.531062">
        <time>2021-08-19T21:09:05Z</time>
      </trkpt>
      <trkpt lat="43.361429" lon="-4.530921">
        <time>2021-08-19T21:09:08Z</time>
      </trkpt>
      <trkpt lat="43.361805" lon="-4.5305">
        <time>2021-08-19T21:09:11Z</time>
      </trkpt>
      <trkpt lat="43.362047" lon="-4.529913">
        <time>2021-08-19T21:09:14Z</time>
      </trkpt>
      <trkpt lat="43.362682" lon="-4.525171">
        <time>2021-08-19T21:09:32Z</time>
      </trkpt>
      <trkpt lat="43.363056" lon="-4.523703">
        <time>2021-08-19T21:09:38Z</time>
      </trkpt>
      <trkpt lat="43.363732" lon="-4.52258">
        <time>2021-08-19T21:09:44Z</time>
      </trkpt>
      <trkpt lat="43.365499" lon="-4.520461">
        <time>2021-08-19T21:09:59Z</time>
      </trkpt>
      <trkpt lat="43.36583" lon="-4.520143">
        <time>2021-08-19T21:10:02Z</time>
      </trkpt>
      <trkpt lat="43.366164" lon="-4.520011">
        <time>2021-08-19T21:10:05Z</time>
      </trkpt>
      <trkpt lat="43.366456" lon="-4.520027">
        <time>2021-08-19T21:10:08Z</time>
      </trkpt>
      <trkpt lat="43.366965" lon="-4.520516">
        <time>2021-08-19T21:10:14Z</time>
      </trkpt>
      <trkpt lat="43.367693" lon="-4.521993">
        <time>2021-08-19T21:10:23Z</time>
      </trkpt>
      <trkpt lat="43.368146" lon="-4.522221">
        <time>2021-08-19T21:10:26Z</time>
      </trkpt>
      <trkpt lat="43.36915" lon="-4.522067">
        <time>2021-08-19T21:10:32Z</time>
      </trkpt>
      <trkpt lat="43.369572" lon="-4.521884">
        <time>2021-08-19T21:10:35Z</time>
      </trkpt>
      <trkpt lat="43.370453" lon="-4.521294">
        <time>2021-08-19T21:10:44Z</time>
      </trkpt>
      <trkpt lat="43.373442" lon="-4.51873">
        <time>2021-08-19T21:11:32Z</time>
      </trkpt>
      <trkpt lat="43.373837" lon="-4.51841">
        <time>2021-08-19T21:13:29Z</time>
      </trkpt>
      <trkpt lat="43.373737" lon="-4.518312">
        <time>2021-08-19T21:13:32Z</time>
      </trkpt>
      <trkpt lat="43.373056" lon="-4.517541">
        <time>2021-08-19T21:13:53Z</time>
      </trkpt>
      <trkpt lat="43.373043" lon="-4.517243">
        <time>2021-08-19T21:14:02Z</time>
      </trkpt>
      <trkpt lat="43.373053" lon="-4.517239">
        <time>2021-08-19T21:14:05Z</time>
      </trkpt>
      <trkpt lat="43.373131" lon="-4.517054">
        <time>2021-08-19T21:14:08Z</time>
      </trkpt>
      <trkpt lat="43.373303" lon="-4.516782">
        <time>2021-08-19T21:14:17Z</time>
      </trkpt>
      <trkpt lat="43.3734" lon="-4.516867">
        <time>2021-08-19T21:14:20Z</time>
      </trkpt>
      <trkpt lat="43.373974" lon="-4.517099">
        <time>2021-08-19T21:14:44Z</time>
      </trkpt>
      <trkpt lat="43.374056" lon="-4.517162">
        <time>2021-08-19T21:14:47Z</time>
      </trkpt>
      <trkpt lat="43.37415" lon="-4.517182">
        <time>2021-08-19T21:14:50Z</time>
      </trkpt>
      <trkpt lat="43.37422" lon="-4.517156">
        <time>2021-08-19T21:14:53Z</time>
      </trkpt>
      <trkpt lat="43.374299" lon="-4.517048">
        <time>2021-08-19T21:15:02Z</time>
      </trkpt>
      <trkpt lat="43.374447" lon="-4.51645">
        <time>2021-08-19T21:15:14Z</time>
      </trkpt>
      <trkpt lat="43.374611" lon="-4.515377">
        <time>2021-08-19T21:15:32Z</time>
      </trkpt>
      <trkpt lat="43.374624" lon="-4.515168">
        <time>2021-08-19T21:15:35Z</time>
      </trkpt>
      <trkpt lat="43.374645" lon="-4.514774">
        <time>2021-08-19T21:15:41Z</time>
      </trkpt>
      <trkpt lat="43.374607" lon="-4.514646">
        <time>2021-08-19T21:15:44Z</time>
      </trkpt>
      <trkpt lat="43.374531" lon="-4.514608">
        <time>2021-08-19T21:15:47Z</time>
      </trkpt>
      <trkpt lat="43.374471" lon="-4.514598">
        <time>2021-08-19T21:17:09Z</time>
      </trkpt>
      <trkpt lat="43.374471" lon="-4.514598">
        <time>2021-08-19T21:17:09Z</time>
      </trkpt>
      <trkpt lat="43.374298" lon="-4.514686">
        <time>2021-08-20T10:22:00Z</time>
      </trkpt>
      <trkpt lat="43.374298" lon="-4.514686">
        <time>2021-08-20T10:22:53Z</time>
      </trkpt>
      <trkpt lat="43.374455" lon="-4.514566">
        <time>2021-08-20T10:27:58Z</time>
      </trkpt>
      <trkpt lat="43.374614" lon="-4.51443">
        <time>2021-08-20T10:28:04Z</time>
      </trkpt>
      <trkpt lat="43.374754" lon="-4.5136">
        <time>2021-08-20T10:28:13Z</time>
      </trkpt>
      <trkpt lat="43.375163" lon="-4.508533">
        <time>2021-08-20T10:28:52Z</time>
      </trkpt>
      <trkpt lat="43.37512" lon="-4.509044">
        <time>2021-08-20T10:28:53Z</time>
      </trkpt>
      <trkpt lat="43.375231" lon="-4.506167">
        <time>2021-08-20T10:29:07Z</time>
      </trkpt>
      <trkpt lat="43.375194" lon="-4.505244">
        <time>2021-08-20T10:29:13Z</time>
      </trkpt>
      <trkpt lat="43.375365" lon="-4.504574">
        <time>2021-08-20T10:29:19Z</time>
      </trkpt>
      <trkpt lat="43.375495" lon="-4.504112">
        <time>2021-08-20T10:29:28Z</time>
      </trkpt>
      <trkpt lat="43.375512" lon="-4.502803">
        <time>2021-08-20T10:29:37Z</time>
      </trkpt>
      <trkpt lat="43.375472" lon="-4.502324">
        <time>2021-08-20T10:29:40Z</time>
      </trkpt>
      <trkpt lat="43.375182" lon="-4.498059">
        <time>2021-08-20T10:30:04Z</time>
      </trkpt>
      <trkpt lat="43.375188" lon="-4.495728">
        <time>2021-08-20T10:30:16Z</time>
      </trkpt>
      <trkpt lat="43.375118" lon="-4.495107">
        <time>2021-08-20T10:30:19Z</time>
      </trkpt>
      <trkpt lat="43.374688" lon="-4.492756">
        <time>2021-08-20T10:30:31Z</time>
      </trkpt>
      <trkpt lat="43.374717" lon="-4.492199">
        <time>2021-08-20T10:30:34Z</time>
      </trkpt>
      <trkpt lat="43.375235" lon="-4.489989">
        <time>2021-08-20T10:30:46Z</time>
      </trkpt>
      <trkpt lat="43.375239" lon="-4.489543">
        <time>2021-08-20T10:30:49Z</time>
      </trkpt>
      <trkpt lat="43.375197" lon="-4.489133">
        <time>2021-08-20T10:30:52Z</time>
      </trkpt>
      <trkpt lat="43.37502" lon="-4.487408">
        <time>2021-08-20T10:31:04Z</time>
      </trkpt>
      <trkpt lat="43.375883" lon="-4.483437">
        <time>2021-08-20T10:31:31Z</time>
      </trkpt>
      <trkpt lat="43.376185" lon="-4.481816">
        <time>2021-08-20T10:31:40Z</time>
      </trkpt>
      <trkpt lat="43.376051" lon="-4.481278">
        <time>2021-08-20T10:31:43Z</time>
      </trkpt>
      <trkpt lat="43.375757" lon="-4.480895">
        <time>2021-08-20T10:31:46Z</time>
      </trkpt>
      <trkpt lat="43.373181" lon="-4.479394">
        <time>2021-08-20T10:32:04Z</time>
      </trkpt>
      <trkpt lat="43.373181" lon="-4.479394">
        <time>2021-08-20T10:32:04Z</time>
      </trkpt>
      <trkpt lat="43.372037" lon="-4.477248">
        <time>2021-08-20T10:32:16Z</time>
      </trkpt>
      <trkpt lat="43.37165" lon="-4.476091">
        <time>2021-08-20T10:32:22Z</time>
      </trkpt>
      <trkpt lat="43.37141" lon="-4.473378">
        <time>2021-08-20T10:32:34Z</time>
      </trkpt>
      <trkpt lat="43.371419" lon="-4.472683">
        <time>2021-08-20T10:32:37Z</time>
      </trkpt>
      <trkpt lat="43.371559" lon="-4.472014">
        <time>2021-08-20T10:32:40Z</time>
      </trkpt>
      <trkpt lat="43.372641" lon="-4.467434">
        <time>2021-08-20T10:33:01Z</time>
      </trkpt>
      <trkpt lat="43.372908" lon="-4.464727">
        <time>2021-08-20T10:33:16Z</time>
      </trkpt>
      <trkpt lat="43.372901" lon="-4.464428">
        <time>2021-08-20T10:33:19Z</time>
      </trkpt>
      <trkpt lat="43.372831" lon="-4.464157">
        <time>2021-08-20T10:33:22Z</time>
      </trkpt>
      <trkpt lat="43.372761" lon="-4.463894">
        <time>2021-08-20T10:33:25Z</time>
      </trkpt>
      <trkpt lat="43.372849" lon="-4.463662">
        <time>2021-08-20T10:33:28Z</time>
      </trkpt>
      <trkpt lat="43.37305" lon="-4.463546">
        <time>2021-08-20T10:33:31Z</time>
      </trkpt>
      <trkpt lat="43.373246" lon="-4.463338">
        <time>2021-08-20T10:33:34Z</time>
      </trkpt>
      <trkpt lat="43.373825" lon="-4.461711">
        <time>2021-08-20T10:33:52Z</time>
      </trkpt>
      <trkpt lat="43.374122" lon="-4.460825">
        <time>2021-08-20T10:33:58Z</time>
      </trkpt>
      <trkpt lat="43.375916" lon="-4.456148">
        <time>2021-08-20T10:34:31Z</time>
      </trkpt>
      <trkpt lat="43.376028" lon="-4.455946">
        <time>2021-08-20T10:34:34Z</time>
      </trkpt>
      <trkpt lat="43.378103" lon="-4.452123">
        <time>2021-08-20T10:35:07Z</time>
      </trkpt>
      <trkpt lat="43.378497" lon="-4.450875">
        <time>2021-08-20T10:35:13Z</time>
      </trkpt>
      <trkpt lat="43.379465" lon="-4.44657">
        <time>2021-08-20T10:35:31Z</time>
      </trkpt>
      <trkpt lat="43.379572" lon="-4.444263">
        <time>2021-08-20T10:35:40Z</time>
      </trkpt>
      <trkpt lat="43.379572" lon="-4.444263">
        <time>2021-08-20T10:35:40Z</time>
      </trkpt>
      <trkpt lat="43.379849" lon="-4.442098">
        <time>2021-08-20T10:35:49Z</time>
      </trkpt>
      <trkpt lat="43.379758" lon="-4.439898">
        <time>2021-08-20T10:35:58Z</time>
      </trkpt>
      <trkpt lat="43.379942" lon="-4.439206">
        <time>2021-08-20T10:36:01Z</time>
      </trkpt>
      <trkpt lat="43.380411" lon="-4.437918">
        <time>2021-08-20T10:36:07Z</time>
      </trkpt>
      <trkpt lat="43.380812" lon="-4.436697">
        <time>2021-08-20T10:36:13Z</time>
      </trkpt>
      <trkpt lat="43.381758" lon="-4.435113">
        <time>2021-08-20T10:36:22Z</time>
      </trkpt>
      <trkpt lat="43.382101" lon="-4.43227">
        <time>2021-08-20T10:36:34Z</time>
      </trkpt>
      <trkpt lat="43.382295" lon="-4.43158">
        <time>2021-08-20T10:36:37Z</time>
      </trkpt>
      <trkpt lat="43.384214" lon="-4.427488">
        <time>2021-08-20T10:36:58Z</time>
      </trkpt>
      <trkpt lat="43.384367" lon="-4.426812">
        <time>2021-08-20T10:37:01Z</time>
      </trkpt>
      <trkpt lat="43.384441" lon="-4.426111">
        <time>2021-08-20T10:37:04Z</time>
      </trkpt>
      <trkpt lat="43.384346" lon="-4.424686">
        <time>2021-08-20T10:37:10Z</time>
      </trkpt>
      <trkpt lat="43.383874" lon="-4.420293">
        <time>2021-08-20T10:37:28Z</time>
      </trkpt>
      <trkpt lat="43.383894" lon="-4.417783">
        <time>2021-08-20T10:37:40Z</time>
      </trkpt>
      <trkpt lat="43.384092" lon="-4.417216">
        <time>2021-08-20T10:37:43Z</time>
      </trkpt>
      <trkpt lat="43.385369" lon="-4.414079">
        <time>2021-08-20T10:37:58Z</time>
      </trkpt>
      <trkpt lat="43.385656" lon="-4.413587">
        <time>2021-08-20T10:38:01Z</time>
      </trkpt>
      <trkpt lat="43.386084" lon="-4.413376">
        <time>2021-08-20T10:38:04Z</time>
      </trkpt>
      <trkpt lat="43.387004" lon="-4.413048">
        <time>2021-08-20T10:38:10Z</time>
      </trkpt>
      <trkpt lat="43.387368" lon="-4.412556">
        <time>2021-08-20T10:38:13Z</time>
      </trkpt>
      <trkpt lat="43.38759" lon="-4.411913">
        <time>2021-08-20T10:38:16Z</time>
      </trkpt>
      <trkpt lat="43.388209" lon="-4.409393">
        <time>2021-08-20T10:38:28Z</time>
      </trkpt>
      <trkpt lat="43.388209" lon="-4.409393">
        <time>2021-08-20T10:38:28Z</time>
      </trkpt>
      <trkpt lat="43.388411" lon="-4.40881">
        <time>2021-08-20T10:38:31Z</time>
      </trkpt>
      <trkpt lat="43.388398" lon="-4.40818">
        <time>2021-08-20T10:38:34Z</time>
      </trkpt>
      <trkpt lat="43.388256" lon="-4.405104">
        <time>2021-08-20T10:38:49Z</time>
      </trkpt>
      <trkpt lat="43.388426" lon="-4.403935">
        <time>2021-08-20T10:38:55Z</time>
      </trkpt>
      <trkpt lat="43.388354" lon="-4.403345">
        <time>2021-08-20T10:38:58Z</time>
      </trkpt>
      <trkpt lat="43.388168" lon="-4.402782">
        <time>2021-08-20T10:39:01Z</time>
      </trkpt>
      <trkpt lat="43.387921" lon="-4.402283">
        <time>2021-08-20T10:39:04Z</time>
      </trkpt>
      <trkpt lat="43.387483" lon="-4.401292">
        <time>2021-08-20T10:39:10Z</time>
      </trkpt>
      <trkpt lat="43.387341" lon="-4.400184">
        <time>2021-08-20T10:39:16Z</time>
      </trkpt>
      <trkpt lat="43.387313" lon="-4.399229">
        <time>2021-08-20T10:39:22Z</time>
      </trkpt>
      <trkpt lat="43.387159" lon="-4.398893">
        <time>2021-08-20T10:39:25Z</time>
      </trkpt>
      <trkpt lat="43.386979" lon="-4.398714">
        <time>2021-08-20T10:39:28Z</time>
      </trkpt>
      <trkpt lat="43.385866" lon="-4.39809">
        <time>2021-08-20T10:39:46Z</time>
      </trkpt>
      <trkpt lat="43.385681" lon="-4.398084">
        <time>2021-08-20T10:39:49Z</time>
      </trkpt>
      <trkpt lat="43.385526" lon="-4.398222">
        <time>2021-08-20T10:39:52Z</time>
      </trkpt>
      <trkpt lat="43.384926" lon="-4.39899">
        <time>2021-08-20T10:40:10Z</time>
      </trkpt>
      <trkpt lat="43.384518" lon="-4.399376">
        <time>2021-08-20T10:40:25Z</time>
      </trkpt>
      <trkpt lat="43.3844" lon="-4.39936">
        <time>2021-08-20T10:40:28Z</time>
      </trkpt>
      <trkpt lat="43.384329" lon="-4.399275">
        <time>2021-08-20T10:40:31Z</time>
      </trkpt>
      <trkpt lat="43.384197" lon="-4.399212">
        <time>2021-08-20T10:40:37Z</time>
      </trkpt>
      <trkpt lat="43.384009" lon="-4.399539">
        <time>2021-08-20T10:40:46Z</time>
      </trkpt>
      <trkpt lat="43.383999" lon="-4.399613">
        <time>2021-08-20T10:40:52Z</time>
      </trkpt>
      <trkpt lat="43.384053" lon="-4.39964">
        <time>2021-08-20T10:42:04Z</time>
      </trkpt>
      <trkpt lat="43.384053" lon="-4.39964">
        <time>2021-08-20T10:43:02Z</time>
      </trkpt>
      <trkpt lat="43.384053" lon="-4.39964">
        <time>2021-08-20T10:44:13Z</time>
      </trkpt>
      <trkpt lat="43.384053" lon="-4.39964">
        <time>2021-08-20T10:45:18Z</time>
      </trkpt>
      <trkpt lat="43.384053" lon="-4.39964">
        <time>2021-08-20T10:45:29Z</time>
      </trkpt>
      <trkpt lat="43.384044" lon="-4.399728">
        <time>2021-08-20T10:45:40Z</time>
      </trkpt>
      <trkpt lat="43.384049" lon="-4.399794">
        <time>2021-08-20T10:45:46Z</time>
      </trkpt>
      <trkpt lat="43.384108" lon="-4.399759">
        <time>2021-08-20T10:45:49Z</time>
      </trkpt>
      <trkpt lat="43.384204" lon="-4.399749">
        <time>2021-08-20T10:45:52Z</time>
      </trkpt>
      <trkpt lat="43.38434" lon="-4.399626">
        <time>2021-08-20T10:45:55Z</time>
      </trkpt>
      <trkpt lat="43.384344" lon="-4.39954">
        <time>2021-08-20T10:45:58Z</time>
      </trkpt>
      <trkpt lat="43.384074" lon="-4.399239">
        <time>2021-08-20T10:46:07Z</time>
      </trkpt>
      <trkpt lat="43.382824" lon="-4.398171">
        <time>2021-08-20T10:46:46Z</time>
      </trkpt>
      <trkpt lat="43.382897" lon="-4.398235">
        <time>2021-08-20T10:46:47Z</time>
      </trkpt>
      <trkpt lat="43.38162" lon="-4.397246">
        <time>2021-08-20T10:47:10Z</time>
      </trkpt>
      <trkpt lat="43.381514" lon="-4.397244">
        <time>2021-08-20T10:47:13Z</time>
      </trkpt>
      <trkpt lat="43.381372" lon="-4.397337">
        <time>2021-08-20T10:47:16Z</time>
      </trkpt>
      <trkpt lat="43.3813" lon="-4.397517">
        <time>2021-08-20T10:47:19Z</time>
      </trkpt>
      <trkpt lat="43.38138" lon="-4.397673">
        <time>2021-08-20T10:47:22Z</time>
      </trkpt>
      <trkpt lat="43.381659" lon="-4.398122">
        <time>2021-08-20T10:47:28Z</time>
      </trkpt>
      <trkpt lat="43.381705" lon="-4.39846">
        <time>2021-08-20T10:47:31Z</time>
      </trkpt>
      <trkpt lat="43.381921" lon="-4.399342">
        <time>2021-08-20T10:47:40Z</time>
      </trkpt>
      <trkpt lat="43.382053" lon="-4.399825">
        <time>2021-08-20T10:47:46Z</time>
      </trkpt>
      <trkpt lat="43.382079" lon="-4.40026">
        <time>2021-08-20T10:47:52Z</time>
      </trkpt>
      <trkpt lat="43.382247" lon="-4.400581">
        <time>2021-08-20T10:47:58Z</time>
      </trkpt>
      <trkpt lat="43.382363" lon="-4.400597">
        <time>2021-08-20T10:48:01Z</time>
      </trkpt>
      <trkpt lat="43.382595" lon="-4.400665">
        <time>2021-08-20T10:48:07Z</time>
      </trkpt>
      <trkpt lat="43.382758" lon="-4.400762">
        <time>2021-08-20T10:48:13Z</time>
      </trkpt>
      <trkpt lat="43.382975" lon="-4.400765">
        <time>2021-08-20T10:48:31Z</time>
      </trkpt>
      <trkpt lat="43.383086" lon="-4.400866">
        <time>2021-08-20T10:48:34Z</time>
      </trkpt>
      <trkpt lat="43.383335" lon="-4.401153">
        <time>2021-08-20T10:48:46Z</time>
      </trkpt>
      <trkpt lat="43.383346" lon="-4.401181">
        <time>2021-08-20T10:48:49Z</time>
      </trkpt>
      <trkpt lat="43.38344" lon="-4.401296">
        <time>2021-08-20T10:48:55Z</time>
      </trkpt>
      <trkpt lat="43.383909" lon="-4.401728">
        <time>2021-08-20T10:49:04Z</time>
      </trkpt>
      <trkpt lat="43.384014" lon="-4.401859">
        <time>2021-08-20T10:49:07Z</time>
      </trkpt>
      <trkpt lat="43.384074" lon="-4.40188">
        <time>2021-08-20T10:49:10Z</time>
      </trkpt>
      <trkpt lat="43.384098" lon="-4.401904">
        <time>2021-08-20T10:49:55Z</time>
      </trkpt>
      <trkpt lat="43.384098" lon="-4.401904">
        <time>2021-08-20T10:49:55Z</time>
      </trkpt>
      <trkpt lat="43.384236" lon="-4.40198">
        <time>2021-08-20T11:05:13Z</time>
      </trkpt>
      <trkpt lat="43.384298" lon="-4.401951">
        <time>2021-08-20T11:07:05Z</time>
      </trkpt>
      <trkpt lat="43.384163" lon="-4.401943">
        <time>2021-08-20T11:07:58Z</time>
      </trkpt>
      <trkpt lat="43.383945" lon="-4.40182">
        <time>2021-08-20T11:08:04Z</time>
      </trkpt>
      <trkpt lat="43.383912" lon="-4.401697">
        <time>2021-08-20T11:08:07Z</time>
      </trkpt>
      <trkpt lat="43.383915" lon="-4.401533">
        <time>2021-08-20T11:08:10Z</time>
      </trkpt>
      <trkpt lat="43.383865" lon="-4.401387">
        <time>2021-08-20T11:08:13Z</time>
      </trkpt>
      <trkpt lat="43.383746" lon="-4.401294">
        <time>2021-08-20T11:08:16Z</time>
      </trkpt>
      <trkpt lat="43.383669" lon="-4.401204">
        <time>2021-08-20T11:08:19Z</time>
      </trkpt>
      <trkpt lat="43.383414" lon="-4.401062">
        <time>2021-08-20T11:08:25Z</time>
      </trkpt>
      <trkpt lat="43.383155" lon="-4.401">
        <time>2021-08-20T11:08:34Z</time>
      </trkpt>
      <trkpt lat="43.383154" lon="-4.400854">
        <time>2021-08-20T11:08:37Z</time>
      </trkpt>
      <trkpt lat="43.383104" lon="-4.40079">
        <time>2021-08-20T11:08:40Z</time>
      </trkpt>
      <trkpt lat="43.383039" lon="-4.400761">
        <time>2021-08-20T11:08:43Z</time>
      </trkpt>
      <trkpt lat="43.382861" lon="-4.400811">
        <time>2021-08-20T11:08:49Z</time>
      </trkpt>
      <trkpt lat="43.382744" lon="-4.400812">
        <time>2021-08-20T11:08:52Z</time>
      </trkpt>
      <trkpt lat="43.382576" lon="-4.400747">
        <time>2021-08-20T11:08:55Z</time>
      </trkpt>
      <trkpt lat="43.382565" lon="-4.400516">
        <time>2021-08-20T11:08:58Z</time>
      </trkpt>
      <trkpt lat="43.382403" lon="-4.399724">
        <time>2021-08-20T11:09:04Z</time>
      </trkpt>
      <trkpt lat="43.382117" lon="-4.399104">
        <time>2021-08-20T11:09:10Z</time>
      </trkpt>
      <trkpt lat="43.381717" lon="-4.398016">
        <time>2021-08-20T11:09:22Z</time>
      </trkpt>
      <trkpt lat="43.381717" lon="-4.398016">
        <time>2021-08-20T11:09:22Z</time>
      </trkpt>
      <trkpt lat="43.381483" lon="-4.397654">
        <time>2021-08-20T11:09:28Z</time>
      </trkpt>
      <trkpt lat="43.38151" lon="-4.397486">
        <time>2021-08-20T11:09:31Z</time>
      </trkpt>
      <trkpt lat="43.38151" lon="-4.397486">
        <time>2021-08-20T11:09:35Z</time>
      </trkpt>
      <trkpt lat="43.381512" lon="-4.397293">
        <time>2021-08-20T11:09:37Z</time>
      </trkpt>
      <trkpt lat="43.38153" lon="-4.397185">
        <time>2021-08-20T11:09:40Z</time>
      </trkpt>
      <trkpt lat="43.381544" lon="-4.39693">
        <time>2021-08-20T11:09:46Z</time>
      </trkpt>
      <trkpt lat="43.382044" lon="-4.39169">
        <time>2021-08-20T11:11:16Z</time>
      </trkpt>
      <trkpt lat="43.382287" lon="-4.390586">
        <time>2021-08-20T11:11:25Z</time>
      </trkpt>
      <trkpt lat="43.383482" lon="-4.386534">
        <time>2021-08-20T11:12:04Z</time>
      </trkpt>
      <trkpt lat="43.383445" lon="-4.385953">
        <time>2021-08-20T11:12:07Z</time>
      </trkpt>
      <trkpt lat="43.383294" lon="-4.385426">
        <time>2021-08-20T11:12:10Z</time>
      </trkpt>
      <trkpt lat="43.383204" lon="-4.384881">
        <time>2021-08-20T11:12:13Z</time>
      </trkpt>
      <trkpt lat="43.383261" lon="-4.384309">
        <time>2021-08-20T11:12:16Z</time>
      </trkpt>
      <trkpt lat="43.383333" lon="-4.383142">
        <time>2021-08-20T11:12:22Z</time>
      </trkpt>
      <trkpt lat="43.383044" lon="-4.382718">
        <time>2021-08-20T11:12:25Z</time>
      </trkpt>
      <trkpt lat="43.382251" lon="-4.382093">
        <time>2021-08-20T11:12:31Z</time>
      </trkpt>
      <trkpt lat="43.381629" lon="-4.381171">
        <time>2021-08-20T11:12:37Z</time>
      </trkpt>
      <trkpt lat="43.381629" lon="-4.381171">
        <time>2021-08-20T11:12:37Z</time>
      </trkpt>
      <trkpt lat="43.380854" lon="-4.380696">
        <time>2021-08-20T11:12:43Z</time>
      </trkpt>
      <trkpt lat="43.380854" lon="-4.380696">
        <time>2021-08-20T11:12:43Z</time>
      </trkpt>
      <trkpt lat="43.380854" lon="-4.380696">
        <time>2021-08-20T11:12:43Z</time>
      </trkpt>
      <trkpt lat="43.380854" lon="-4.380696">
        <time>2021-08-20T11:12:43Z</time>
      </trkpt>
      <trkpt lat="43.380854" lon="-4.380696">
        <time>2021-08-20T11:12:43Z</time>
      </trkpt>
      <trkpt lat="43.380623" lon="-4.380212">
        <time>2021-08-20T11:12:46Z</time>
      </trkpt>
      <trkpt lat="43.379893" lon="-4.37802">
        <time>2021-08-20T11:12:58Z</time>
      </trkpt>
      <trkpt lat="43.379588" lon="-4.377631">
        <time>2021-08-20T11:13:01Z</time>
      </trkpt>
      <trkpt lat="43.379215" lon="-4.377426">
        <time>2021-08-20T11:13:04Z</time>
      </trkpt>
      <trkpt lat="43.378838" lon="-4.377239">
        <time>2021-08-20T11:13:07Z</time>
      </trkpt>
      <trkpt lat="43.378553" lon="-4.376856">
        <time>2021-08-20T11:13:10Z</time>
      </trkpt>
      <trkpt lat="43.378431" lon="-4.376323">
        <time>2021-08-20T11:13:13Z</time>
      </trkpt>
      <trkpt lat="43.378365" lon="-4.37574">
        <time>2021-08-20T11:13:16Z</time>
      </trkpt>
      <trkpt lat="43.378102" lon="-4.374558">
        <time>2021-08-20T11:13:22Z</time>
      </trkpt>
      <trkpt lat="43.377491" lon="-4.373639">
        <time>2021-08-20T11:13:28Z</time>
      </trkpt>
      <trkpt lat="43.376681" lon="-4.373201">
        <time>2021-08-20T11:13:34Z</time>
      </trkpt>
      <trkpt lat="43.374856" lon="-4.373229">
        <time>2021-08-20T11:13:46Z</time>
      </trkpt>
      <trkpt lat="43.37442" lon="-4.37303">
        <time>2021-08-20T11:13:49Z</time>
      </trkpt>
      <trkpt lat="43.374119" lon="-4.372618">
        <time>2021-08-20T11:13:52Z</time>
      </trkpt>
      <trkpt lat="43.374018" lon="-4.372084">
        <time>2021-08-20T11:13:55Z</time>
      </trkpt>
      <trkpt lat="43.3741" lon="-4.37153">
        <time>2021-08-20T11:13:58Z</time>
      </trkpt>
      <trkpt lat="43.374192" lon="-4.370437">
        <time>2021-08-20T11:14:04Z</time>
      </trkpt>
      <trkpt lat="43.373946" lon="-4.36925">
        <time>2021-08-20T11:14:13Z</time>
      </trkpt>
      <trkpt lat="43.373888" lon="-4.368848">
        <time>2021-08-20T11:14:22Z</time>
      </trkpt>
      <trkpt lat="43.374237" lon="-4.36761">
        <time>2021-08-20T11:14:34Z</time>
      </trkpt>
      <trkpt lat="43.374237" lon="-4.36761">
        <time>2021-08-20T11:14:34Z</time>
      </trkpt>
      <trkpt lat="43.374578" lon="-4.366434">
        <time>2021-08-20T11:14:43Z</time>
      </trkpt>
      <trkpt lat="43.377087" lon="-4.362786">
        <time>2021-08-20T11:15:16Z</time>
      </trkpt>
      <trkpt lat="43.377275" lon="-4.36232">
        <time>2021-08-20T11:15:19Z</time>
      </trkpt>
      <trkpt lat="43.377943" lon="-4.360584">
        <time>2021-08-20T11:15:31Z</time>
      </trkpt>
      <trkpt lat="43.378235" lon="-4.360426">
        <time>2021-08-20T11:15:34Z</time>
      </trkpt>
      <trkpt lat="43.378566" lon="-4.360425">
        <time>2021-08-20T11:15:37Z</time>
      </trkpt>
      <trkpt lat="43.379659" lon="-4.360417">
        <time>2021-08-20T11:15:46Z</time>
      </trkpt>
      <trkpt lat="43.379963" lon="-4.360194">
        <time>2021-08-20T11:15:49Z</time>
      </trkpt>
      <trkpt lat="43.380156" lon="-4.359824">
        <time>2021-08-20T11:15:52Z</time>
      </trkpt>
      <trkpt lat="43.38031" lon="-4.359384">
        <time>2021-08-20T11:15:55Z</time>
      </trkpt>
      <trkpt lat="43.381394" lon="-4.356534">
        <time>2021-08-20T11:16:13Z</time>
      </trkpt>
      <trkpt lat="43.38202" lon="-4.353977">
        <time>2021-08-20T11:16:28Z</time>
      </trkpt>
      <trkpt lat="43.382182" lon="-4.353542">
        <time>2021-08-20T11:16:31Z</time>
      </trkpt>
      <trkpt lat="43.382182" lon="-4.353542">
        <time>2021-08-20T11:16:31Z</time>
      </trkpt>
      <trkpt lat="43.382175" lon="-4.353091">
        <time>2021-08-20T11:16:34Z</time>
      </trkpt>
      <trkpt lat="43.382059" lon="-4.352738">
        <time>2021-08-20T11:16:37Z</time>
      </trkpt>
      <trkpt lat="43.381807" lon="-4.352022">
        <time>2021-08-20T11:16:43Z</time>
      </trkpt>
      <trkpt lat="43.381822" lon="-4.351588">
        <time>2021-08-20T11:16:46Z</time>
      </trkpt>
      <trkpt lat="43.381722" lon="-4.350666">
        <time>2021-08-20T11:16:52Z</time>
      </trkpt>
      <trkpt lat="43.38117" lon="-4.348745">
        <time>2021-08-20T11:17:04Z</time>
      </trkpt>
      <trkpt lat="43.381293" lon="-4.347615">
        <time>2021-08-20T11:17:10Z</time>
      </trkpt>
      <trkpt lat="43.381293" lon="-4.347615">
        <time>2021-08-20T11:17:10Z</time>
      </trkpt>
      <trkpt lat="43.382157" lon="-4.345566">
        <time>2021-08-20T11:17:22Z</time>
      </trkpt>
      <trkpt lat="43.382523" lon="-4.345344">
        <time>2021-08-20T11:17:25Z</time>
      </trkpt>
      <trkpt lat="43.383703" lon="-4.344888">
        <time>2021-08-20T11:17:34Z</time>
      </trkpt>
      <trkpt lat="43.383862" lon="-4.344358">
        <time>2021-08-20T11:17:37Z</time>
      </trkpt>
      <trkpt lat="43.383882" lon="-4.343122">
        <time>2021-08-20T11:17:43Z</time>
      </trkpt>
      <trkpt lat="43.383813" lon="-4.341882">
        <time>2021-08-20T11:17:49Z</time>
      </trkpt>
      <trkpt lat="43.383824" lon="-4.339585">
        <time>2021-08-20T11:18:01Z</time>
      </trkpt>
      <trkpt lat="43.384056" lon="-4.339145">
        <time>2021-08-20T11:18:04Z</time>
      </trkpt>
      <trkpt lat="43.384404" lon="-4.338228">
        <time>2021-08-20T11:18:10Z</time>
      </trkpt>
      <trkpt lat="43.384397" lon="-4.337718">
        <time>2021-08-20T11:18:13Z</time>
      </trkpt>
      <trkpt lat="43.384151" lon="-4.336736">
        <time>2021-08-20T11:18:19Z</time>
      </trkpt>
      <trkpt lat="43.383738" lon="-4.33482">
        <time>2021-08-20T11:18:31Z</time>
      </trkpt>
      <trkpt lat="43.38389" lon="-4.333796">
        <time>2021-08-20T11:18:37Z</time>
      </trkpt>
      <trkpt lat="43.384337" lon="-4.332925">
        <time>2021-08-20T11:18:43Z</time>
      </trkpt>
      <trkpt lat="43.384693" lon="-4.332017">
        <time>2021-08-20T11:18:49Z</time>
      </trkpt>
      <trkpt lat="43.384733" lon="-4.331497">
        <time>2021-08-20T11:18:52Z</time>
      </trkpt>
      <trkpt lat="43.38471" lon="-4.330989">
        <time>2021-08-20T11:18:55Z</time>
      </trkpt>
      <trkpt lat="43.384683" lon="-4.330329">
        <time>2021-08-20T11:19:01Z</time>
      </trkpt>
      <trkpt lat="43.384781" lon="-4.330261">
        <time>2021-08-20T11:19:04Z</time>
      </trkpt>
      <trkpt lat="43.385386" lon="-4.330131">
        <time>2021-08-20T11:19:13Z</time>
      </trkpt>
      <trkpt lat="43.385842" lon="-4.330192">
        <time>2021-08-20T11:19:19Z</time>
      </trkpt>
      <trkpt lat="43.386572" lon="-4.330304">
        <time>2021-08-20T11:19:28Z</time>
      </trkpt>
      <trkpt lat="43.386819" lon="-4.330246">
        <time>2021-08-20T11:19:31Z</time>
      </trkpt>
      <trkpt lat="43.387022" lon="-4.33005">
        <time>2021-08-20T11:19:34Z</time>
      </trkpt>
      <trkpt lat="43.387175" lon="-4.329816">
        <time>2021-08-20T11:19:37Z</time>
      </trkpt>
      <trkpt lat="43.387329" lon="-4.329275">
        <time>2021-08-20T11:19:43Z</time>
      </trkpt>
      <trkpt lat="43.387603" lon="-4.328403">
        <time>2021-08-20T11:19:55Z</time>
      </trkpt>
      <trkpt lat="43.387708" lon="-4.328256">
        <time>2021-08-20T11:19:58Z</time>
      </trkpt>
      <trkpt lat="43.387933" lon="-4.328085">
        <time>2021-08-20T11:20:04Z</time>
      </trkpt>
      <trkpt lat="43.387933" lon="-4.328085">
        <time>2021-08-20T11:20:04Z</time>
      </trkpt>
      <trkpt lat="43.388164" lon="-4.328072">
        <time>2021-08-20T11:20:10Z</time>
      </trkpt>
      <trkpt lat="43.388254" lon="-4.328106">
        <time>2021-08-20T11:20:13Z</time>
      </trkpt>
      <trkpt lat="43.388326" lon="-4.328165">
        <time>2021-08-20T11:20:16Z</time>
      </trkpt>
      <trkpt lat="43.388541" lon="-4.328483">
        <time>2021-08-20T11:20:25Z</time>
      </trkpt>
      <trkpt lat="43.38886" lon="-4.329391">
        <time>2021-08-20T11:21:13Z</time>
      </trkpt>
      <trkpt lat="43.388764" lon="-4.328995">
        <time>2021-08-20T11:21:19Z</time>
      </trkpt>
      <trkpt lat="43.388443" lon="-4.32829">
        <time>2021-08-20T11:21:28Z</time>
      </trkpt>
      <trkpt lat="43.388297" lon="-4.328117">
        <time>2021-08-20T11:21:31Z</time>
      </trkpt>
      <trkpt lat="43.388086" lon="-4.328057">
        <time>2021-08-20T11:21:34Z</time>
      </trkpt>
      <trkpt lat="43.387875" lon="-4.328132">
        <time>2021-08-20T11:21:37Z</time>
      </trkpt>
      <trkpt lat="43.38769" lon="-4.328344">
        <time>2021-08-20T11:21:40Z</time>
      </trkpt>
      <trkpt lat="43.387444" lon="-4.328992">
        <time>2021-08-20T11:21:46Z</time>
      </trkpt>
      <trkpt lat="43.387159" lon="-4.329897">
        <time>2021-08-20T11:21:55Z</time>
      </trkpt>
      <trkpt lat="43.386879" lon="-4.330219">
        <time>2021-08-20T11:22:01Z</time>
      </trkpt>
      <trkpt lat="43.386689" lon="-4.330263">
        <time>2021-08-20T11:22:04Z</time>
      </trkpt>
      <trkpt lat="43.386689" lon="-4.330263">
        <time>2021-08-20T11:22:04Z</time>
      </trkpt>
      <trkpt lat="43.386263" lon="-4.330187">
        <time>2021-08-20T11:22:10Z</time>
      </trkpt>
      <trkpt lat="43.385425" lon="-4.329974">
        <time>2021-08-20T11:22:19Z</time>
      </trkpt>
      <trkpt lat="43.384884" lon="-4.330136">
        <time>2021-08-20T11:22:28Z</time>
      </trkpt>
      <trkpt lat="43.384749" lon="-4.330193">
        <time>2021-08-20T11:22:49Z</time>
      </trkpt>
      <trkpt lat="43.384639" lon="-4.330113">
        <time>2021-08-20T11:22:52Z</time>
      </trkpt>
      <trkpt lat="43.38411" lon="-4.328854">
        <time>2021-08-20T11:23:04Z</time>
      </trkpt>
      <trkpt lat="43.384107" lon="-4.328449">
        <time>2021-08-20T11:23:07Z</time>
      </trkpt>
      <trkpt lat="43.384241" lon="-4.32663">
        <time>2021-08-20T11:23:19Z</time>
      </trkpt>
      <trkpt lat="43.384633" lon="-4.321913">
        <time>2021-08-20T11:23:49Z</time>
      </trkpt>
      <trkpt lat="43.384506" lon="-4.321539">
        <time>2021-08-20T11:23:52Z</time>
      </trkpt>
      <trkpt lat="43.38423" lon="-4.321315">
        <time>2021-08-20T11:23:55Z</time>
      </trkpt>
      <trkpt lat="43.383595" lon="-4.321152">
        <time>2021-08-20T11:24:01Z</time>
      </trkpt>
      <trkpt lat="43.383595" lon="-4.321152">
        <time>2021-08-20T11:24:01Z</time>
      </trkpt>
      <trkpt lat="43.383274" lon="-4.32123">
        <time>2021-08-20T11:24:04Z</time>
      </trkpt>
      <trkpt lat="43.382632" lon="-4.32156">
        <time>2021-08-20T11:24:10Z</time>
      </trkpt>
      <trkpt lat="43.382302" lon="-4.321454">
        <time>2021-08-20T11:24:13Z</time>
      </trkpt>
      <trkpt lat="43.382061" lon="-4.32109">
        <time>2021-08-20T11:24:16Z</time>
      </trkpt>
      <trkpt lat="43.381993" lon="-4.320587">
        <time>2021-08-20T11:24:19Z</time>
      </trkpt>
      <trkpt lat="43.381981" lon="-4.319054">
        <time>2021-08-20T11:24:28Z</time>
      </trkpt>
      <trkpt lat="43.381788" lon="-4.318687">
        <time>2021-08-20T11:24:31Z</time>
      </trkpt>
      <trkpt lat="43.381238" lon="-4.318145">
        <time>2021-08-20T11:24:37Z</time>
      </trkpt>
      <trkpt lat="43.380902" lon="-4.318054">
        <time>2021-08-20T11:24:40Z</time>
      </trkpt>
      <trkpt lat="43.37998" lon="-4.317488">
        <time>2021-08-20T11:24:49Z</time>
      </trkpt>
      <trkpt lat="43.379344" lon="-4.31677">
        <time>2021-08-20T11:24:58Z</time>
      </trkpt>
      <trkpt lat="43.379021" lon="-4.316047">
        <time>2021-08-20T11:25:04Z</time>
      </trkpt>
      <trkpt lat="43.378974" lon="-4.315628">
        <time>2021-08-20T11:25:07Z</time>
      </trkpt>
      <trkpt lat="43.379058" lon="-4.314303">
        <time>2021-08-20T11:25:16Z</time>
      </trkpt>
      <trkpt lat="43.379376" lon="-4.313215">
        <time>2021-08-20T11:25:25Z</time>
      </trkpt>
      <trkpt lat="43.379512" lon="-4.312851">
        <time>2021-08-20T11:25:28Z</time>
      </trkpt>
      <trkpt lat="43.381606" lon="-4.307748">
        <time>2021-08-20T11:26:13Z</time>
      </trkpt>
      <trkpt lat="43.382887" lon="-4.304025">
        <time>2021-08-20T11:26:52Z</time>
      </trkpt>
      <trkpt lat="43.383204" lon="-4.302876">
        <time>2021-08-20T11:27:01Z</time>
      </trkpt>
      <trkpt lat="43.383461" lon="-4.301962">
        <time>2021-08-20T11:27:07Z</time>
      </trkpt>
      <trkpt lat="43.384056" lon="-4.299124">
        <time>2021-08-20T11:27:28Z</time>
      </trkpt>
      <trkpt lat="43.384513" lon="-4.297063">
        <time>2021-08-20T11:27:52Z</time>
      </trkpt>
      <trkpt lat="43.384651" lon="-4.297025">
        <time>2021-08-20T11:27:55Z</time>
      </trkpt>
      <trkpt lat="43.384798" lon="-4.296978">
        <time>2021-08-20T11:27:58Z</time>
      </trkpt>
      <trkpt lat="43.384944" lon="-4.296848">
        <time>2021-08-20T11:28:01Z</time>
      </trkpt>
      <trkpt lat="43.385296" lon="-4.296462">
        <time>2021-08-20T11:28:07Z</time>
      </trkpt>
      <trkpt lat="43.385869" lon="-4.295753">
        <time>2021-08-20T11:28:16Z</time>
      </trkpt>
      <trkpt lat="43.386542" lon="-4.294918">
        <time>2021-08-20T11:28:28Z</time>
      </trkpt>
      <trkpt lat="43.387474" lon="-4.294247">
        <time>2021-08-20T11:28:40Z</time>
      </trkpt>
      <trkpt lat="43.387912" lon="-4.294182">
        <time>2021-08-20T11:28:46Z</time>
      </trkpt>
      <trkpt lat="43.388364" lon="-4.294283">
        <time>2021-08-20T11:28:52Z</time>
      </trkpt>
      <trkpt lat="43.389369" lon="-4.294625">
        <time>2021-08-20T11:29:04Z</time>
      </trkpt>
      <trkpt lat="43.389798" lon="-4.294651">
        <time>2021-08-20T11:29:10Z</time>
      </trkpt>
      <trkpt lat="43.390191" lon="-4.294461">
        <time>2021-08-20T11:29:16Z</time>
      </trkpt>
      <trkpt lat="43.390347" lon="-4.294293">
        <time>2021-08-20T11:29:19Z</time>
      </trkpt>
      <trkpt lat="43.390568" lon="-4.293894">
        <time>2021-08-20T11:29:25Z</time>
      </trkpt>
      <trkpt lat="43.390609" lon="-4.293654">
        <time>2021-08-20T11:29:28Z</time>
      </trkpt>
      <trkpt lat="43.390581" lon="-4.293162">
        <time>2021-08-20T11:29:34Z</time>
      </trkpt>
      <trkpt lat="43.390681" lon="-4.292989">
        <time>2021-08-20T11:29:37Z</time>
      </trkpt>
      <trkpt lat="43.390833" lon="-4.292984">
        <time>2021-08-20T11:29:40Z</time>
      </trkpt>
      <trkpt lat="43.390949" lon="-4.293126">
        <time>2021-08-20T11:29:43Z</time>
      </trkpt>
      <trkpt lat="43.390951" lon="-4.293316">
        <time>2021-08-20T11:29:46Z</time>
      </trkpt>
      <trkpt lat="43.390911" lon="-4.293432">
        <time>2021-08-20T11:29:49Z</time>
      </trkpt>
      <trkpt lat="43.390892" lon="-4.293461">
        <time>2021-08-20T11:30:57Z</time>
      </trkpt>
      <trkpt lat="43.390892" lon="-4.293461">
        <time>2021-08-20T11:31:07Z</time>
      </trkpt>
      <trkpt lat="43.390887" lon="-4.293457">
        <time>2021-08-20T11:31:13Z</time>
      </trkpt>
      <trkpt lat="43.390887" lon="-4.293457">
        <time>2021-08-20T11:31:13Z</time>
      </trkpt>
      <trkpt lat="43.390887" lon="-4.293457">
        <time>2021-08-20T11:31:13Z</time>
      </trkpt>
      <trkpt lat="43.390887" lon="-4.293457">
        <time>2021-08-20T11:31:13Z</time>
      </trkpt>
      <trkpt lat="43.390887" lon="-4.293457">
        <time>2021-08-20T11:31:13Z</time>
      </trkpt>
      <trkpt lat="43.390887" lon="-4.293457">
        <time>2021-08-20T11:31:13Z</time>
      </trkpt>
      <trkpt lat="43.390768" lon="-4.293616">
        <time>2021-08-20T11:31:16Z</time>
      </trkpt>
      <trkpt lat="43.390379" lon="-4.294303">
        <time>2021-08-20T11:31:25Z</time>
      </trkpt>
      <trkpt lat="43.390033" lon="-4.294538">
        <time>2021-08-20T11:31:31Z</time>
      </trkpt>
      <trkpt lat="43.389661" lon="-4.294589">
        <time>2021-08-20T11:31:37Z</time>
      </trkpt>
      <trkpt lat="43.389219" lon="-4.294471">
        <time>2021-08-20T11:31:43Z</time>
      </trkpt>
      <trkpt lat="43.388571" lon="-4.294202">
        <time>2021-08-20T11:31:52Z</time>
      </trkpt>
      <trkpt lat="43.387774" lon="-4.294019">
        <time>2021-08-20T11:32:01Z</time>
      </trkpt>
      <trkpt lat="43.387284" lon="-4.294269">
        <time>2021-08-20T11:32:07Z</time>
      </trkpt>
      <trkpt lat="43.386198" lon="-4.295188">
        <time>2021-08-20T11:32:22Z</time>
      </trkpt>
      <trkpt lat="43.386008" lon="-4.295492">
        <time>2021-08-20T11:32:28Z</time>
      </trkpt>
      <trkpt lat="43.386009" lon="-4.295577">
        <time>2021-08-20T11:32:43Z</time>
      </trkpt>
      <trkpt lat="43.386071" lon="-4.295608">
        <time>2021-08-20T11:32:46Z</time>
      </trkpt>
      <trkpt lat="43.386072" lon="-4.295639">
        <time>2021-08-20T11:33:57Z</time>
      </trkpt>
      <trkpt lat="43.386072" lon="-4.295639">
        <time>2021-08-20T11:34:44Z</time>
      </trkpt>
      <trkpt lat="43.386072" lon="-4.295639">
        <time>2021-08-20T11:34:50Z</time>
      </trkpt>
      <trkpt lat="43.386069" lon="-4.29565">
        <time>2021-08-20T11:34:55Z</time>
      </trkpt>
      <trkpt lat="43.386025" lon="-4.296071">
        <time>2021-08-20T11:36:55Z</time>
      </trkpt>
      <trkpt lat="43.386122" lon="-4.296271">
        <time>2021-08-20T11:36:58Z</time>
      </trkpt>
      <trkpt lat="43.38621" lon="-4.296219">
        <time>2021-08-20T11:37:01Z</time>
      </trkpt>
      <trkpt lat="43.386378" lon="-4.296071">
        <time>2021-08-20T11:37:07Z</time>
      </trkpt>
      <trkpt lat="43.386471" lon="-4.296233">
        <time>2021-08-20T11:37:10Z</time>
      </trkpt>
      <trkpt lat="43.386469" lon="-4.296447">
        <time>2021-08-20T11:37:13Z</time>
      </trkpt>
      <trkpt lat="43.386309" lon="-4.296953">
        <time>2021-08-20T11:37:19Z</time>
      </trkpt>
      <trkpt lat="43.386244" lon="-4.297391">
        <time>2021-08-20T11:37:25Z</time>
      </trkpt>
      <trkpt lat="43.386389" lon="-4.297476">
        <time>2021-08-20T11:37:28Z</time>
      </trkpt>
      <trkpt lat="43.386549" lon="-4.297397">
        <time>2021-08-20T11:37:31Z</time>
      </trkpt>
      <trkpt lat="43.386699" lon="-4.297185">
        <time>2021-08-20T11:37:34Z</time>
      </trkpt>
      <trkpt lat="43.38696" lon="-4.296731">
        <time>2021-08-20T11:37:40Z</time>
      </trkpt>
      <trkpt lat="43.387107" lon="-4.296778">
        <time>2021-08-20T11:37:43Z</time>
      </trkpt>
      <trkpt lat="43.387204" lon="-4.296969">
        <time>2021-08-20T11:37:46Z</time>
      </trkpt>
      <trkpt lat="43.387362" lon="-4.29734">
        <time>2021-08-20T11:37:52Z</time>
      </trkpt>
      <trkpt lat="43.387362" lon="-4.29734">
        <time>2021-08-20T11:37:53Z</time>
      </trkpt>
      <trkpt lat="43.387362" lon="-4.29734">
        <time>2021-08-20T11:37:53Z</time>
      </trkpt>
      <trkpt lat="43.387301" lon="-4.297521">
        <time>2021-08-20T11:37:55Z</time>
      </trkpt>
      <trkpt lat="43.387248" lon="-4.297729">
        <time>2021-08-20T11:38:01Z</time>
      </trkpt>
      <trkpt lat="43.387267" lon="-4.297764">
        <time>2021-08-20T11:38:58Z</time>
      </trkpt>
      <trkpt lat="43.387267" lon="-4.297764">
        <time>2021-08-20T11:38:58Z</time>
      </trkpt>
      <trkpt lat="43.387344" lon="-4.297803">
        <time>2021-08-20T11:54:10Z</time>
      </trkpt>
      <trkpt lat="43.387333" lon="-4.297805">
        <time>2021-08-20T11:55:32Z</time>
      </trkpt>
      <trkpt lat="43.387322" lon="-4.297938">
        <time>2021-08-20T11:55:49Z</time>
      </trkpt>
      <trkpt lat="43.387286" lon="-4.297964">
        <time>2021-08-20T11:55:52Z</time>
      </trkpt>
      <trkpt lat="43.38725" lon="-4.297911">
        <time>2021-08-20T11:55:55Z</time>
      </trkpt>
      <trkpt lat="43.387276" lon="-4.297766">
        <time>2021-08-20T11:55:58Z</time>
      </trkpt>
      <trkpt lat="43.3874" lon="-4.297137">
        <time>2021-08-20T11:56:07Z</time>
      </trkpt>
      <trkpt lat="43.3873" lon="-4.296951">
        <time>2021-08-20T11:56:10Z</time>
      </trkpt>
      <trkpt lat="43.387125" lon="-4.296699">
        <time>2021-08-20T11:56:16Z</time>
      </trkpt>
      <trkpt lat="43.386965" lon="-4.296765">
        <time>2021-08-20T11:56:19Z</time>
      </trkpt>
      <trkpt lat="43.386715" lon="-4.297191">
        <time>2021-08-20T11:56:25Z</time>
      </trkpt>
      <trkpt lat="43.386582" lon="-4.297373">
        <time>2021-08-20T11:56:28Z</time>
      </trkpt>
      <trkpt lat="43.386409" lon="-4.297432">
        <time>2021-08-20T11:56:31Z</time>
      </trkpt>
      <trkpt lat="43.386311" lon="-4.297323">
        <time>2021-08-20T11:56:34Z</time>
      </trkpt>
      <trkpt lat="43.386329" lon="-4.297202">
        <time>2021-08-20T11:56:37Z</time>
      </trkpt>
      <trkpt lat="43.386489" lon="-4.296753">
        <time>2021-08-20T11:56:44Z</time>
      </trkpt>
      <trkpt lat="43.386514" lon="-4.296273">
        <time>2021-08-20T11:56:49Z</time>
      </trkpt>
      <trkpt lat="43.386385" lon="-4.296125">
        <time>2021-08-20T11:56:52Z</time>
      </trkpt>
      <trkpt lat="43.386275" lon="-4.296209">
        <time>2021-08-20T11:56:55Z</time>
      </trkpt>
      <trkpt lat="43.386186" lon="-4.296293">
        <time>2021-08-20T11:56:58Z</time>
      </trkpt>
      <trkpt lat="43.386161" lon="-4.296208">
        <time>2021-08-20T11:57:01Z</time>
      </trkpt>
      <trkpt lat="43.386174" lon="-4.295854">
        <time>2021-08-20T11:57:10Z</time>
      </trkpt>
      <trkpt lat="43.386106" lon="-4.295615">
        <time>2021-08-20T11:57:16Z</time>
      </trkpt>
      <trkpt lat="43.385979" lon="-4.295629">
        <time>2021-08-20T11:57:22Z</time>
      </trkpt>
      <trkpt lat="43.385357" lon="-4.296253">
        <time>2021-08-20T11:57:34Z</time>
      </trkpt>
      <trkpt lat="43.384827" lon="-4.296873">
        <time>2021-08-20T11:57:43Z</time>
      </trkpt>
      <trkpt lat="43.384596" lon="-4.297174">
        <time>2021-08-20T11:57:49Z</time>
      </trkpt>
      <trkpt lat="43.384494" lon="-4.297027">
        <time>2021-08-20T11:57:52Z</time>
      </trkpt>
      <trkpt lat="43.384543" lon="-4.296799">
        <time>2021-08-20T11:57:55Z</time>
      </trkpt>
      <trkpt lat="43.385142" lon="-4.293939">
        <time>2021-08-20T11:58:37Z</time>
      </trkpt>
      <trkpt lat="43.385483" lon="-4.29279">
        <time>2021-08-20T11:58:55Z</time>
      </trkpt>
      <trkpt lat="43.385579" lon="-4.29253">
        <time>2021-08-20T12:00:10Z</time>
      </trkpt>
      <trkpt lat="43.385579" lon="-4.29253">
        <time>2021-08-20T12:00:10Z</time>
      </trkpt>
      <trkpt lat="43.385573" lon="-4.292424">
        <time>2021-08-20T12:00:13Z</time>
      </trkpt>
      <trkpt lat="43.385461" lon="-4.292207">
        <time>2021-08-20T12:00:16Z</time>
      </trkpt>
      <trkpt lat="43.385016" lon="-4.291688">
        <time>2021-08-20T12:00:28Z</time>
      </trkpt>
      <trkpt lat="43.384422" lon="-4.29131">
        <time>2021-08-20T12:00:37Z</time>
      </trkpt>
      <trkpt lat="43.384089" lon="-4.291224">
        <time>2021-08-20T12:00:43Z</time>
      </trkpt>
      <trkpt lat="43.384023" lon="-4.291181">
        <time>2021-08-20T12:02:40Z</time>
      </trkpt>
      <trkpt lat="43.384023" lon="-4.291181">
        <time>2021-08-20T12:02:40Z</time>
      </trkpt>
      <trkpt lat="43.383672" lon="-4.291285">
        <time>2021-08-20T12:34:16Z</time>
      </trkpt>
      <trkpt lat="43.383668" lon="-4.291301">
        <time>2021-08-20T12:34:37Z</time>
      </trkpt>
      <trkpt lat="43.383681" lon="-4.291315">
        <time>2021-08-20T12:35:07Z</time>
      </trkpt>
      <trkpt lat="43.3837" lon="-4.291234">
        <time>2021-08-20T12:35:13Z</time>
      </trkpt>
      <trkpt lat="43.383638" lon="-4.291067">
        <time>2021-08-20T12:35:16Z</time>
      </trkpt>
      <trkpt lat="43.383483" lon="-4.290524">
        <time>2021-08-20T12:35:22Z</time>
      </trkpt>
      <trkpt lat="43.383054" lon="-4.290095">
        <time>2021-08-20T12:35:28Z</time>
      </trkpt>
      <trkpt lat="43.381996" lon="-4.289583">
        <time>2021-08-20T12:35:40Z</time>
      </trkpt>
      <trkpt lat="43.381129" lon="-4.289417">
        <time>2021-08-20T12:35:49Z</time>
      </trkpt>
      <trkpt lat="43.379824" lon="-4.289808">
        <time>2021-08-20T12:36:01Z</time>
      </trkpt>
      <trkpt lat="43.379513" lon="-4.289829">
        <time>2021-08-20T12:36:04Z</time>
      </trkpt>
      <trkpt lat="43.37899" lon="-4.289656">
        <time>2021-08-20T12:36:10Z</time>
      </trkpt>
      <trkpt lat="43.37899" lon="-4.289656">
        <time>2021-08-20T12:36:13Z</time>
      </trkpt>
      <trkpt lat="43.378476" lon="-4.289019">
        <time>2021-08-20T12:36:16Z</time>
      </trkpt>
      <trkpt lat="43.378312" lon="-4.288567">
        <time>2021-08-20T12:36:19Z</time>
      </trkpt>
      <trkpt lat="43.377811" lon="-4.286028">
        <time>2021-08-20T12:36:34Z</time>
      </trkpt>
      <trkpt lat="43.377303" lon="-4.285354">
        <time>2021-08-20T12:36:40Z</time>
      </trkpt>
      <trkpt lat="43.377303" lon="-4.285354">
        <time>2021-08-20T12:36:40Z</time>
      </trkpt>
      <trkpt lat="43.373666" lon="-4.283203">
        <time>2021-08-20T12:37:10Z</time>
      </trkpt>
      <trkpt lat="43.372919" lon="-4.282443">
        <time>2021-08-20T12:37:16Z</time>
      </trkpt>
      <trkpt lat="43.372474" lon="-4.282191">
        <time>2021-08-20T12:37:19Z</time>
      </trkpt>
      <trkpt lat="43.371156" lon="-4.281342">
        <time>2021-08-20T12:37:28Z</time>
      </trkpt>
      <trkpt lat="43.369177" lon="-4.278155">
        <time>2021-08-20T12:37:46Z</time>
      </trkpt>
      <trkpt lat="43.368761" lon="-4.277737">
        <time>2021-08-20T12:37:49Z</time>
      </trkpt>
      <trkpt lat="43.367812" lon="-4.277203">
        <time>2021-08-20T12:37:55Z</time>
      </trkpt>
      <trkpt lat="43.365791" lon="-4.276292">
        <time>2021-08-20T12:38:07Z</time>
      </trkpt>
      <trkpt lat="43.365416" lon="-4.275819">
        <time>2021-08-20T12:38:10Z</time>
      </trkpt>
      <trkpt lat="43.365112" lon="-4.275265">
        <time>2021-08-20T12:38:13Z</time>
      </trkpt>
      <trkpt lat="43.363843" lon="-4.272321">
        <time>2021-08-20T12:38:28Z</time>
      </trkpt>
      <trkpt lat="43.363529" lon="-4.270353">
        <time>2021-08-20T12:38:37Z</time>
      </trkpt>
      <trkpt lat="43.363008" lon="-4.269278">
        <time>2021-08-20T12:38:43Z</time>
      </trkpt>
      <trkpt lat="43.362414" lon="-4.268298">
        <time>2021-08-20T12:38:49Z</time>
      </trkpt>
      <trkpt lat="43.36112" lon="-4.267189">
        <time>2021-08-20T12:38:58Z</time>
      </trkpt>
      <trkpt lat="43.359096" lon="-4.266087">
        <time>2021-08-20T12:39:10Z</time>
      </trkpt>
      <trkpt lat="43.357534" lon="-4.265473">
        <time>2021-08-20T12:39:19Z</time>
      </trkpt>
      <trkpt lat="43.355813" lon="-4.265744">
        <time>2021-08-20T12:39:28Z</time>
      </trkpt>
      <trkpt lat="43.354261" lon="-4.266359">
        <time>2021-08-20T12:39:37Z</time>
      </trkpt>
      <trkpt lat="43.354261" lon="-4.266359">
        <time>2021-08-20T12:39:37Z</time>
      </trkpt>
      <trkpt lat="43.353732" lon="-4.266207">
        <time>2021-08-20T12:39:40Z</time>
      </trkpt>
      <trkpt lat="43.351126" lon="-4.26429">
        <time>2021-08-20T12:39:58Z</time>
      </trkpt>
      <trkpt lat="43.350105" lon="-4.264261">
        <time>2021-08-20T12:40:04Z</time>
      </trkpt>
      <trkpt lat="43.350105" lon="-4.264261">
        <time>2021-08-20T12:40:04Z</time>
      </trkpt>
      <trkpt lat="43.349141" lon="-4.264912">
        <time>2021-08-20T12:40:10Z</time>
      </trkpt>
      <trkpt lat="43.346614" lon="-4.268713">
        <time>2021-08-20T12:40:31Z</time>
      </trkpt>
      <trkpt lat="43.345894" lon="-4.269672">
        <time>2021-08-20T12:40:40Z</time>
      </trkpt>
      <trkpt lat="43.344811" lon="-4.270306">
        <time>2021-08-20T12:40:52Z</time>
      </trkpt>
      <trkpt lat="43.343312" lon="-4.270354">
        <time>2021-08-20T12:41:04Z</time>
      </trkpt>
      <trkpt lat="43.342925" lon="-4.270561">
        <time>2021-08-20T12:41:07Z</time>
      </trkpt>
      <trkpt lat="43.342599" lon="-4.270967">
        <time>2021-08-20T12:41:10Z</time>
      </trkpt>
      <trkpt lat="43.342599" lon="-4.270967">
        <time>2021-08-20T12:41:10Z</time>
      </trkpt>
      <trkpt lat="43.341712" lon="-4.272419">
        <time>2021-08-20T12:41:19Z</time>
      </trkpt>
      <trkpt lat="43.341258" lon="-4.272655">
        <time>2021-08-20T12:41:22Z</time>
      </trkpt>
      <trkpt lat="43.340758" lon="-4.272597">
        <time>2021-08-20T12:41:25Z</time>
      </trkpt>
      <trkpt lat="43.340307" lon="-4.272312">
        <time>2021-08-20T12:41:28Z</time>
      </trkpt>
      <trkpt lat="43.339054" lon="-4.271087">
        <time>2021-08-20T12:41:37Z</time>
      </trkpt>
      <trkpt lat="43.338515" lon="-4.271058">
        <time>2021-08-20T12:41:40Z</time>
      </trkpt>
      <trkpt lat="43.3375" lon="-4.270769">
        <time>2021-08-20T12:41:46Z</time>
      </trkpt>
      <trkpt lat="43.33622" lon="-4.269726">
        <time>2021-08-20T12:41:55Z</time>
      </trkpt>
      <trkpt lat="43.335714" lon="-4.268888">
        <time>2021-08-20T12:42:01Z</time>
      </trkpt>
      <trkpt lat="43.33509" lon="-4.267736">
        <time>2021-08-20T12:42:10Z</time>
      </trkpt>
      <trkpt lat="43.334771" lon="-4.267457">
        <time>2021-08-20T12:42:13Z</time>
      </trkpt>
      <trkpt lat="43.334439" lon="-4.267238">
        <time>2021-08-20T12:42:16Z</time>
      </trkpt>
      <trkpt lat="43.333835" lon="-4.266572">
        <time>2021-08-20T12:42:22Z</time>
      </trkpt>
      <trkpt lat="43.33366" lon="-4.266038">
        <time>2021-08-20T12:42:25Z</time>
      </trkpt>
      <trkpt lat="43.333333" lon="-4.264889">
        <time>2021-08-20T12:42:31Z</time>
      </trkpt>
      <trkpt lat="43.333005" lon="-4.264423">
        <time>2021-08-20T12:42:34Z</time>
      </trkpt>
      <trkpt lat="43.332592" lon="-4.26412">
        <time>2021-08-20T12:42:37Z</time>
      </trkpt>
      <trkpt lat="43.332141" lon="-4.264017">
        <time>2021-08-20T12:42:40Z</time>
      </trkpt>
      <trkpt lat="43.331149" lon="-4.264115">
        <time>2021-08-20T12:42:46Z</time>
      </trkpt>
      <trkpt lat="43.330185" lon="-4.26392">
        <time>2021-08-20T12:42:52Z</time>
      </trkpt>
      <trkpt lat="43.328349" lon="-4.262602">
        <time>2021-08-20T12:43:04Z</time>
      </trkpt>
      <trkpt lat="43.327237" lon="-4.260575">
        <time>2021-08-20T12:43:16Z</time>
      </trkpt>
      <trkpt lat="43.327237" lon="-4.260575">
        <time>2021-08-20T12:43:16Z</time>
      </trkpt>
      <trkpt lat="43.32641" lon="-4.26025">
        <time>2021-08-20T12:43:22Z</time>
      </trkpt>
      <trkpt lat="43.325083" lon="-4.260357">
        <time>2021-08-20T12:43:31Z</time>
      </trkpt>
      <trkpt lat="43.324214" lon="-4.259935">
        <time>2021-08-20T12:43:37Z</time>
      </trkpt>
      <trkpt lat="43.323465" lon="-4.259282">
        <time>2021-08-20T12:43:43Z</time>
      </trkpt>
      <trkpt lat="43.322853" lon="-4.258464">
        <time>2021-08-20T12:43:49Z</time>
      </trkpt>
      <trkpt lat="43.322137" lon="-4.257838">
        <time>2021-08-20T12:43:55Z</time>
      </trkpt>
      <trkpt lat="43.320885" lon="-4.257542">
        <time>2021-08-20T12:44:37Z</time>
      </trkpt>
      <trkpt lat="43.32072" lon="-4.257567">
        <time>2021-08-20T12:44:43Z</time>
      </trkpt>
      <trkpt lat="43.320725" lon="-4.257593">
        <time>2021-08-20T12:44:52Z</time>
      </trkpt>
      <trkpt lat="43.32083" lon="-4.257684">
        <time>2021-08-20T12:45:40Z</time>
      </trkpt>
      <trkpt lat="43.320809" lon="-4.257676">
        <time>2021-08-20T12:45:43Z</time>
      </trkpt>
      <trkpt lat="43.320741" lon="-4.257657">
        <time>2021-08-20T12:45:46Z</time>
      </trkpt>
      <trkpt lat="43.320751" lon="-4.257599">
        <time>2021-08-20T12:46:19Z</time>
      </trkpt>
      <trkpt lat="43.320764" lon="-4.257658">
        <time>2021-08-20T12:47:25Z</time>
      </trkpt>
      <trkpt lat="43.320764" lon="-4.257658">
        <time>2021-08-20T12:47:43Z</time>
      </trkpt>
      <trkpt lat="43.3208" lon="-4.257698">
        <time>2021-08-20T12:47:49Z</time>
      </trkpt>
      <trkpt lat="43.321107" lon="-4.257751">
        <time>2021-08-20T12:48:04Z</time>
      </trkpt>
      <trkpt lat="43.322189" lon="-4.25795">
        <time>2021-08-20T12:48:10Z</time>
      </trkpt>
      <trkpt lat="43.322665" lon="-4.258407">
        <time>2021-08-20T12:48:13Z</time>
      </trkpt>
      <trkpt lat="43.323137" lon="-4.259041">
        <time>2021-08-20T12:48:16Z</time>
      </trkpt>
      <trkpt lat="43.324512" lon="-4.260245">
        <time>2021-08-20T12:48:25Z</time>
      </trkpt>
      <trkpt lat="43.324888" lon="-4.260394">
        <time>2021-08-20T12:48:28Z</time>
      </trkpt>
      <trkpt lat="43.325577" lon="-4.260375">
        <time>2021-08-20T12:48:34Z</time>
      </trkpt>
      <trkpt lat="43.32695" lon="-4.260423">
        <time>2021-08-20T12:48:43Z</time>
      </trkpt>
      <trkpt lat="43.327371" lon="-4.260784">
        <time>2021-08-20T12:48:46Z</time>
      </trkpt>
      <trkpt lat="43.327371" lon="-4.260784">
        <time>2021-08-20T12:48:46Z</time>
      </trkpt>
      <trkpt lat="43.327692" lon="-4.261292">
        <time>2021-08-20T12:48:49Z</time>
      </trkpt>
      <trkpt lat="43.328648" lon="-4.263007">
        <time>2021-08-20T12:48:58Z</time>
      </trkpt>
      <trkpt lat="43.330384" lon="-4.264082">
        <time>2021-08-20T12:49:13Z</time>
      </trkpt>
      <trkpt lat="43.331059" lon="-4.264133">
        <time>2021-08-20T12:49:19Z</time>
      </trkpt>
      <trkpt lat="43.331059" lon="-4.264133">
        <time>2021-08-20T12:49:19Z</time>
      </trkpt>
      <trkpt lat="43.332342" lon="-4.264037">
        <time>2021-08-20T12:49:28Z</time>
      </trkpt>
      <trkpt lat="43.33271" lon="-4.264223">
        <time>2021-08-20T12:49:31Z</time>
      </trkpt>
      <trkpt lat="43.33309" lon="-4.264577">
        <time>2021-08-20T12:49:34Z</time>
      </trkpt>
      <trkpt lat="43.333385" lon="-4.265113">
        <time>2021-08-20T12:49:37Z</time>
      </trkpt>
      <trkpt lat="43.333926" lon="-4.266774">
        <time>2021-08-20T12:49:46Z</time>
      </trkpt>
      <trkpt lat="43.334281" lon="-4.267133">
        <time>2021-08-20T12:49:49Z</time>
      </trkpt>
      <trkpt lat="43.334628" lon="-4.267375">
        <time>2021-08-20T12:49:52Z</time>
      </trkpt>
      <trkpt lat="43.335158" lon="-4.267886">
        <time>2021-08-20T12:49:58Z</time>
      </trkpt>
      <trkpt lat="43.336248" lon="-4.269881">
        <time>2021-08-20T12:50:13Z</time>
      </trkpt>
      <trkpt lat="43.337817" lon="-4.271012">
        <time>2021-08-20T12:50:25Z</time>
      </trkpt>
      <trkpt lat="43.33828" lon="-4.271145">
        <time>2021-08-20T12:50:28Z</time>
      </trkpt>
      <trkpt lat="43.338779" lon="-4.27118">
        <time>2021-08-20T12:50:31Z</time>
      </trkpt>
      <trkpt lat="43.339272" lon="-4.271394">
        <time>2021-08-20T12:50:34Z</time>
      </trkpt>
      <trkpt lat="43.339711" lon="-4.271832">
        <time>2021-08-20T12:50:37Z</time>
      </trkpt>
      <trkpt lat="43.340554" lon="-4.272758">
        <time>2021-08-20T12:50:43Z</time>
      </trkpt>
      <trkpt lat="43.341071" lon="-4.272842">
        <time>2021-08-20T12:50:46Z</time>
      </trkpt>
      <trkpt lat="43.341577" lon="-4.27265">
        <time>2021-08-20T12:50:49Z</time>
      </trkpt>
      <trkpt lat="43.341972" lon="-4.272188">
        <time>2021-08-20T12:50:52Z</time>
      </trkpt>
      <trkpt lat="43.342264" lon="-4.271616">
        <time>2021-08-20T12:50:55Z</time>
      </trkpt>
      <trkpt lat="43.342853" lon="-4.270723">
        <time>2021-08-20T12:51:01Z</time>
      </trkpt>
      <trkpt lat="43.343205" lon="-4.270517">
        <time>2021-08-20T12:51:04Z</time>
      </trkpt>
      <trkpt lat="43.343564" lon="-4.270449">
        <time>2021-08-20T12:51:07Z</time>
      </trkpt>
      <trkpt lat="43.345165" lon="-4.27032">
        <time>2021-08-20T12:51:22Z</time>
      </trkpt>
      <trkpt lat="43.346176" lon="-4.269419">
        <time>2021-08-20T12:51:34Z</time>
      </trkpt>
      <trkpt lat="43.346462" lon="-4.26899">
        <time>2021-08-20T12:51:37Z</time>
      </trkpt>
      <trkpt lat="43.349804" lon="-4.264497">
        <time>2021-08-20T12:52:04Z</time>
      </trkpt>
      <trkpt lat="43.349804" lon="-4.264497">
        <time>2021-08-20T12:52:04Z</time>
      </trkpt>
      <trkpt lat="43.350362" lon="-4.26432">
        <time>2021-08-20T12:52:07Z</time>
      </trkpt>
      <trkpt lat="43.350954" lon="-4.264346">
        <time>2021-08-20T12:52:10Z</time>
      </trkpt>
      <trkpt lat="43.35205" lon="-4.264964">
        <time>2021-08-20T12:52:16Z</time>
      </trkpt>
      <trkpt lat="43.354018" lon="-4.266399">
        <time>2021-08-20T12:52:28Z</time>
      </trkpt>
      <trkpt lat="43.354018" lon="-4.266399">
        <time>2021-08-20T12:52:28Z</time>
      </trkpt>
      <trkpt lat="43.354549" lon="-4.266419">
        <time>2021-08-20T12:52:31Z</time>
      </trkpt>
      <trkpt lat="43.355603" lon="-4.265946">
        <time>2021-08-20T12:52:37Z</time>
      </trkpt>
      <trkpt lat="43.35669" lon="-4.265578">
        <time>2021-08-20T12:52:43Z</time>
      </trkpt>
      <trkpt lat="43.357886" lon="-4.265665">
        <time>2021-08-20T12:52:49Z</time>
      </trkpt>
      <trkpt lat="43.358444" lon="-4.265851">
        <time>2021-08-20T12:52:52Z</time>
      </trkpt>
      <trkpt lat="43.361839" lon="-4.267748">
        <time>2021-08-20T12:53:13Z</time>
      </trkpt>
      <trkpt lat="43.362775" lon="-4.268455">
        <time>2021-08-20T12:53:22Z</time>
      </trkpt>
      <trkpt lat="43.362775" lon="-4.268455">
        <time>2021-08-20T12:53:22Z</time>
      </trkpt>
      <trkpt lat="43.363348" lon="-4.26921">
        <time>2021-08-20T12:53:31Z</time>
      </trkpt>
      <trkpt lat="43.363535" lon="-4.269055">
        <time>2021-08-20T12:53:34Z</time>
      </trkpt>
      <trkpt lat="43.363628" lon="-4.268725">
        <time>2021-08-20T12:53:37Z</time>
      </trkpt>
      <trkpt lat="43.363948" lon="-4.268159">
        <time>2021-08-20T12:53:43Z</time>
      </trkpt>
      <trkpt lat="43.364497" lon="-4.267905">
        <time>2021-08-20T12:53:49Z</time>
      </trkpt>
      <trkpt lat="43.365021" lon="-4.267425">
        <time>2021-08-20T12:53:55Z</time>
      </trkpt>
      <trkpt lat="43.365385" lon="-4.26734">
        <time>2021-08-20T12:53:58Z</time>
      </trkpt>
      <trkpt lat="43.366006" lon="-4.267322">
        <time>2021-08-20T12:54:04Z</time>
      </trkpt>
      <trkpt lat="43.366616" lon="-4.26742">
        <time>2021-08-20T12:54:10Z</time>
      </trkpt>
      <trkpt lat="43.366616" lon="-4.26742">
        <time>2021-08-20T12:54:10Z</time>
      </trkpt>
      <trkpt lat="43.366943" lon="-4.267521">
        <time>2021-08-20T12:54:13Z</time>
      </trkpt>
      <trkpt lat="43.368028" lon="-4.267821">
        <time>2021-08-20T12:54:22Z</time>
      </trkpt>
      <trkpt lat="43.368244" lon="-4.267404">
        <time>2021-08-20T12:54:25Z</time>
      </trkpt>
      <trkpt lat="43.368794" lon="-4.265898">
        <time>2021-08-20T12:54:34Z</time>
      </trkpt>
      <trkpt lat="43.369041" lon="-4.265426">
        <time>2021-08-20T12:54:37Z</time>
      </trkpt>
      <trkpt lat="43.369118" lon="-4.264832">
        <time>2021-08-20T12:54:40Z</time>
      </trkpt>
      <trkpt lat="43.368958" lon="-4.263656">
        <time>2021-08-20T12:54:46Z</time>
      </trkpt>
      <trkpt lat="43.369016" lon="-4.263158">
        <time>2021-08-20T12:54:49Z</time>
      </trkpt>
      <trkpt lat="43.369263" lon="-4.262826">
        <time>2021-08-20T12:54:52Z</time>
      </trkpt>
      <trkpt lat="43.36945" lon="-4.262394">
        <time>2021-08-20T12:54:55Z</time>
      </trkpt>
      <trkpt lat="43.369387" lon="-4.261882">
        <time>2021-08-20T12:54:58Z</time>
      </trkpt>
      <trkpt lat="43.369171" lon="-4.260854">
        <time>2021-08-20T12:55:04Z</time>
      </trkpt>
      <trkpt lat="43.36935" lon="-4.260437">
        <time>2021-08-20T12:55:07Z</time>
      </trkpt>
      <trkpt lat="43.369997" lon="-4.259924">
        <time>2021-08-20T12:55:13Z</time>
      </trkpt>
      <trkpt lat="43.371327" lon="-4.259274">
        <time>2021-08-20T12:55:22Z</time>
      </trkpt>
      <trkpt lat="43.371327" lon="-4.259274">
        <time>2021-08-20T12:55:22Z</time>
      </trkpt>
      <trkpt lat="43.371643" lon="-4.258861">
        <time>2021-08-20T12:55:25Z</time>
      </trkpt>
      <trkpt lat="43.372202" lon="-4.258105">
        <time>2021-08-20T12:55:31Z</time>
      </trkpt>
      <trkpt lat="43.373276" lon="-4.257623">
        <time>2021-08-20T12:55:40Z</time>
      </trkpt>
      <trkpt lat="43.373624" lon="-4.257638">
        <time>2021-08-20T12:55:43Z</time>
      </trkpt>
      <trkpt lat="43.373979" lon="-4.257659">
        <time>2021-08-20T12:55:46Z</time>
      </trkpt>
      <trkpt lat="43.374341" lon="-4.257472">
        <time>2021-08-20T12:55:49Z</time>
      </trkpt>
      <trkpt lat="43.374977" lon="-4.256871">
        <time>2021-08-20T12:55:55Z</time>
      </trkpt>
      <trkpt lat="43.375241" lon="-4.256489">
        <time>2021-08-20T12:55:58Z</time>
      </trkpt>
      <trkpt lat="43.375524" lon="-4.256226">
        <time>2021-08-20T12:56:01Z</time>
      </trkpt>
      <trkpt lat="43.379185" lon="-4.253926">
        <time>2021-08-20T12:56:28Z</time>
      </trkpt>
      <trkpt lat="43.379395" lon="-4.253438">
        <time>2021-08-20T12:56:31Z</time>
      </trkpt>
      <trkpt lat="43.379507" lon="-4.253005">
        <time>2021-08-20T12:56:34Z</time>
      </trkpt>
      <trkpt lat="43.379644" lon="-4.252642">
        <time>2021-08-20T12:56:37Z</time>
      </trkpt>
      <trkpt lat="43.379809" lon="-4.252464">
        <time>2021-08-20T12:56:40Z</time>
      </trkpt>
      <trkpt lat="43.37996" lon="-4.252433">
        <time>2021-08-20T12:56:43Z</time>
      </trkpt>
      <trkpt lat="43.381468" lon="-4.252003">
        <time>2021-08-20T12:57:13Z</time>
      </trkpt>
      <trkpt lat="43.382485" lon="-4.252015">
        <time>2021-08-20T12:57:25Z</time>
      </trkpt>
      <trkpt lat="43.382633" lon="-4.251778">
        <time>2021-08-20T12:57:28Z</time>
      </trkpt>
      <trkpt lat="43.382634" lon="-4.251432">
        <time>2021-08-20T12:57:31Z</time>
      </trkpt>
      <trkpt lat="43.382674" lon="-4.25109">
        <time>2021-08-20T12:57:34Z</time>
      </trkpt>
      <trkpt lat="43.382832" lon="-4.250838">
        <time>2021-08-20T12:57:37Z</time>
      </trkpt>
      <trkpt lat="43.382832" lon="-4.250838">
        <time>2021-08-20T12:57:37Z</time>
      </trkpt>
      <trkpt lat="43.383157" lon="-4.250119">
        <time>2021-08-20T12:57:43Z</time>
      </trkpt>
      <trkpt lat="43.38302" lon="-4.249791">
        <time>2021-08-20T12:57:46Z</time>
      </trkpt>
      <trkpt lat="43.382628" lon="-4.249369">
        <time>2021-08-20T12:57:52Z</time>
      </trkpt>
      <trkpt lat="43.382537" lon="-4.249031">
        <time>2021-08-20T12:57:55Z</time>
      </trkpt>
      <trkpt lat="43.382603" lon="-4.248637">
        <time>2021-08-20T12:57:58Z</time>
      </trkpt>
      <trkpt lat="43.38293" lon="-4.247408">
        <time>2021-08-20T12:58:07Z</time>
      </trkpt>
      <trkpt lat="43.384403" lon="-4.245792">
        <time>2021-08-20T12:58:22Z</time>
      </trkpt>
      <trkpt lat="43.384986" lon="-4.245259">
        <time>2021-08-20T12:58:28Z</time>
      </trkpt>
      <trkpt lat="43.385502" lon="-4.24462">
        <time>2021-08-20T12:58:34Z</time>
      </trkpt>
      <trkpt lat="43.386106" lon="-4.24362">
        <time>2021-08-20T12:58:43Z</time>
      </trkpt>
      <trkpt lat="43.386461" lon="-4.243628">
        <time>2021-08-20T12:58:46Z</time>
      </trkpt>
      <trkpt lat="43.387517" lon="-4.244015">
        <time>2021-08-20T12:58:55Z</time>
      </trkpt>
      <trkpt lat="43.388104" lon="-4.244349">
        <time>2021-08-20T12:59:01Z</time>
      </trkpt>
      <trkpt lat="43.388104" lon="-4.244349">
        <time>2021-08-20T12:59:01Z</time>
      </trkpt>
      <trkpt lat="43.388361" lon="-4.244112">
        <time>2021-08-20T12:59:04Z</time>
      </trkpt>
      <trkpt lat="43.388732" lon="-4.243622">
        <time>2021-08-20T12:59:10Z</time>
      </trkpt>
      <trkpt lat="43.388794" lon="-4.243519">
        <time>2021-08-20T12:59:13Z</time>
      </trkpt>
      <trkpt lat="43.388769" lon="-4.243315">
        <time>2021-08-20T12:59:16Z</time>
      </trkpt>
      <trkpt lat="43.388443" lon="-4.242203">
        <time>2021-08-20T12:59:25Z</time>
      </trkpt>
      <trkpt lat="43.387317" lon="-4.238924">
        <time>2021-08-20T12:59:43Z</time>
      </trkpt>
      <trkpt lat="43.386507" lon="-4.235788">
        <time>2021-08-20T12:59:58Z</time>
      </trkpt>
      <trkpt lat="43.386619" lon="-4.234566">
        <time>2021-08-20T13:00:04Z</time>
      </trkpt>
      <trkpt lat="43.387008" lon="-4.233521">
        <time>2021-08-20T13:00:10Z</time>
      </trkpt>
      <trkpt lat="43.387262" lon="-4.233075">
        <time>2021-08-20T13:00:13Z</time>
      </trkpt>
      <trkpt lat="43.387589" lon="-4.231989">
        <time>2021-08-20T13:00:19Z</time>
      </trkpt>
      <trkpt lat="43.387588" lon="-4.231338">
        <time>2021-08-20T13:00:22Z</time>
      </trkpt>
      <trkpt lat="43.387239" lon="-4.230134">
        <time>2021-08-20T13:00:28Z</time>
      </trkpt>
      <trkpt lat="43.385941" lon="-4.227351">
        <time>2021-08-20T13:00:43Z</time>
      </trkpt>
      <trkpt lat="43.385941" lon="-4.227351">
        <time>2021-08-20T13:00:43Z</time>
      </trkpt>
      <trkpt lat="43.385107" lon="-4.225758">
        <time>2021-08-20T13:00:52Z</time>
      </trkpt>
      <trkpt lat="43.384949" lon="-4.224546">
        <time>2021-08-20T13:00:58Z</time>
      </trkpt>
      <trkpt lat="43.385225" lon="-4.224016">
        <time>2021-08-20T13:01:01Z</time>
      </trkpt>
      <trkpt lat="43.385686" lon="-4.223736">
        <time>2021-08-20T13:01:04Z</time>
      </trkpt>
      <trkpt lat="43.387018" lon="-4.222767">
        <time>2021-08-20T13:01:13Z</time>
      </trkpt>
      <trkpt lat="43.387018" lon="-4.222767">
        <time>2021-08-20T13:01:13Z</time>
      </trkpt>
      <trkpt lat="43.387342" lon="-4.22145">
        <time>2021-08-20T13:01:19Z</time>
      </trkpt>
      <trkpt lat="43.387182" lon="-4.220933">
        <time>2021-08-20T13:01:22Z</time>
      </trkpt>
      <trkpt lat="43.386821" lon="-4.2205259999999996">
        <time>2021-08-20T13:01:25Z</time>
      </trkpt>
      <trkpt lat="43.385925" lon="-4.21918">
        <time>2021-08-20T13:01:34Z</time>
      </trkpt>
      <trkpt lat="43.386046" lon="-4.218593">
        <time>2021-08-20T13:01:37Z</time>
      </trkpt>
      <trkpt lat="43.386389" lon="-4.218203">
        <time>2021-08-20T13:01:40Z</time>
      </trkpt>
      <trkpt lat="43.386783" lon="-4.217867">
        <time>2021-08-20T13:01:43Z</time>
      </trkpt>
      <trkpt lat="43.38702" lon="-4.217454">
        <time>2021-08-20T13:01:46Z</time>
      </trkpt>
      <trkpt lat="43.387066" lon="-4.216988">
        <time>2021-08-20T13:01:49Z</time>
      </trkpt>
      <trkpt lat="43.387212" lon="-4.215894">
        <time>2021-08-20T13:01:58Z</time>
      </trkpt>
      <trkpt lat="43.387702" lon="-4.213968">
        <time>2021-08-20T13:02:10Z</time>
      </trkpt>
      <trkpt lat="43.387532" lon="-4.212898">
        <time>2021-08-20T13:02:16Z</time>
      </trkpt>
      <trkpt lat="43.387254" lon="-4.211814">
        <time>2021-08-20T13:02:22Z</time>
      </trkpt>
      <trkpt lat="43.386804" lon="-4.209202">
        <time>2021-08-20T13:02:37Z</time>
      </trkpt>
      <trkpt lat="43.387074" lon="-4.20546">
        <time>2021-08-20T13:02:55Z</time>
      </trkpt>
      <trkpt lat="43.387074" lon="-4.20546">
        <time>2021-08-20T13:02:55Z</time>
      </trkpt>
      <trkpt lat="43.389375" lon="-4.199809">
        <time>2021-08-20T13:03:22Z</time>
      </trkpt>
      <trkpt lat="43.390232" lon="-4.197073">
        <time>2021-08-20T13:03:34Z</time>
      </trkpt>
      <trkpt lat="43.392059" lon="-4.19454">
        <time>2021-08-20T13:03:49Z</time>
      </trkpt>
      <trkpt lat="43.39274" lon="-4.193637">
        <time>2021-08-20T13:03:55Z</time>
      </trkpt>
      <trkpt lat="43.393193" lon="-4.193389">
        <time>2021-08-20T13:03:58Z</time>
      </trkpt>
      <trkpt lat="43.394725" lon="-4.193024">
        <time>2021-08-20T13:04:07Z</time>
      </trkpt>
      <trkpt lat="43.39514" lon="-4.192661">
        <time>2021-08-20T13:04:10Z</time>
      </trkpt>
      <trkpt lat="43.395458" lon="-4.192142">
        <time>2021-08-20T13:04:13Z</time>
      </trkpt>
      <trkpt lat="43.395621" lon="-4.191513">
        <time>2021-08-20T13:04:16Z</time>
      </trkpt>
      <trkpt lat="43.395725" lon="-4.190848">
        <time>2021-08-20T13:04:19Z</time>
      </trkpt>
      <trkpt lat="43.39681" lon="-4.184743">
        <time>2021-08-20T13:04:46Z</time>
      </trkpt>
      <trkpt lat="43.39681" lon="-4.184743">
        <time>2021-08-20T13:04:46Z</time>
      </trkpt>
      <trkpt lat="43.397756" lon="-4.182242">
        <time>2021-08-20T13:04:58Z</time>
      </trkpt>
      <trkpt lat="43.397726" lon="-4.180897">
        <time>2021-08-20T13:05:04Z</time>
      </trkpt>
      <trkpt lat="43.397313" lon="-4.179692">
        <time>2021-08-20T13:05:10Z</time>
      </trkpt>
      <trkpt lat="43.396836" lon="-4.178656">
        <time>2021-08-20T13:05:16Z</time>
      </trkpt>
      <trkpt lat="43.39659" lon="-4.177477">
        <time>2021-08-20T13:05:22Z</time>
      </trkpt>
      <trkpt lat="43.396688" lon="-4.176137">
        <time>2021-08-20T13:05:28Z</time>
      </trkpt>
      <trkpt lat="43.397617" lon="-4.172764">
        <time>2021-08-20T13:05:43Z</time>
      </trkpt>
      <trkpt lat="43.397617" lon="-4.172764">
        <time>2021-08-20T13:05:43Z</time>
      </trkpt>
      <trkpt lat="43.398138" lon="-4.166784">
        <time>2021-08-20T13:06:07Z</time>
      </trkpt>
      <trkpt lat="43.398047" lon="-4.166079">
        <time>2021-08-20T13:06:10Z</time>
      </trkpt>
      <trkpt lat="43.397899" lon="-4.165426">
        <time>2021-08-20T13:06:13Z</time>
      </trkpt>
      <trkpt lat="43.395959" lon="-4.159929">
        <time>2021-08-20T13:06:37Z</time>
      </trkpt>
      <trkpt lat="43.395959" lon="-4.159929">
        <time>2021-08-20T13:06:37Z</time>
      </trkpt>
      <trkpt lat="43.395839" lon="-4.157738">
        <time>2021-08-20T13:06:46Z</time>
      </trkpt>
      <trkpt lat="43.396346" lon="-4.153661">
        <time>2021-08-20T13:07:04Z</time>
      </trkpt>
      <trkpt lat="43.396493" lon="-4.15076">
        <time>2021-08-20T13:07:22Z</time>
      </trkpt>
      <trkpt lat="43.396128" lon="-4.14701">
        <time>2021-08-20T13:07:43Z</time>
      </trkpt>
      <trkpt lat="43.396172" lon="-4.146448">
        <time>2021-08-20T13:07:46Z</time>
      </trkpt>
      <trkpt lat="43.396314" lon="-4.144113">
        <time>2021-08-20T13:07:58Z</time>
      </trkpt>
      <trkpt lat="43.395756" lon="-4.140526">
        <time>2021-08-20T13:08:13Z</time>
      </trkpt>
      <trkpt lat="43.395276" lon="-4.138757">
        <time>2021-08-20T13:08:22Z</time>
      </trkpt>
      <trkpt lat="43.393905" lon="-4.134392">
        <time>2021-08-20T13:08:49Z</time>
      </trkpt>
      <trkpt lat="43.393042" lon="-4.131012">
        <time>2021-08-20T13:09:07Z</time>
      </trkpt>
      <trkpt lat="43.393047" lon="-4.128297">
        <time>2021-08-20T13:09:19Z</time>
      </trkpt>
      <trkpt lat="43.393047" lon="-4.128297">
        <time>2021-08-20T13:09:19Z</time>
      </trkpt>
      <trkpt lat="43.392445" lon="-4.126341">
        <time>2021-08-20T13:09:28Z</time>
      </trkpt>
      <trkpt lat="43.392163" lon="-4.124953">
        <time>2021-08-20T13:09:34Z</time>
      </trkpt>
      <trkpt lat="43.392346" lon="-4.124281">
        <time>2021-08-20T13:09:37Z</time>
      </trkpt>
      <trkpt lat="43.392794" lon="-4.122922">
        <time>2021-08-20T13:09:43Z</time>
      </trkpt>
      <trkpt lat="43.392891" lon="-4.122194">
        <time>2021-08-20T13:09:46Z</time>
      </trkpt>
      <trkpt lat="43.393082" lon="-4.121557">
        <time>2021-08-20T13:09:49Z</time>
      </trkpt>
      <trkpt lat="43.393628" lon="-4.119643">
        <time>2021-08-20T13:09:58Z</time>
      </trkpt>
      <trkpt lat="43.393425" lon="-4.118521">
        <time>2021-08-20T13:10:04Z</time>
      </trkpt>
      <trkpt lat="43.39335" lon="-4.118099">
        <time>2021-08-20T13:10:07Z</time>
      </trkpt>
      <trkpt lat="43.393275" lon="-4.117763">
        <time>2021-08-20T13:10:10Z</time>
      </trkpt>
      <trkpt lat="43.393191" lon="-4.117422">
        <time>2021-08-20T13:10:13Z</time>
      </trkpt>
      <trkpt lat="43.393291" lon="-4.116631">
        <time>2021-08-20T13:10:19Z</time>
      </trkpt>
      <trkpt lat="43.393402" lon="-4.116202">
        <time>2021-08-20T13:10:22Z</time>
      </trkpt>
      <trkpt lat="43.393402" lon="-4.116202">
        <time>2021-08-20T13:10:22Z</time>
      </trkpt>
      <trkpt lat="43.39337" lon="-4.115697">
        <time>2021-08-20T13:10:25Z</time>
      </trkpt>
      <trkpt lat="43.392738" lon="-4.113593">
        <time>2021-08-20T13:10:37Z</time>
      </trkpt>
      <trkpt lat="43.392455" lon="-4.113156">
        <time>2021-08-20T13:10:40Z</time>
      </trkpt>
      <trkpt lat="43.390516" lon="-4.111343">
        <time>2021-08-20T13:10:58Z</time>
      </trkpt>
      <trkpt lat="43.390333" lon="-4.110994">
        <time>2021-08-20T13:11:01Z</time>
      </trkpt>
      <trkpt lat="43.389764" lon="-4.110116">
        <time>2021-08-20T13:11:10Z</time>
      </trkpt>
      <trkpt lat="43.389314" lon="-4.109544">
        <time>2021-08-20T13:11:16Z</time>
      </trkpt>
      <trkpt lat="43.38922" lon="-4.109084">
        <time>2021-08-20T13:11:22Z</time>
      </trkpt>
      <trkpt lat="43.389112" lon="-4.108705">
        <time>2021-08-20T13:11:28Z</time>
      </trkpt>
      <trkpt lat="43.389049" lon="-4.108622">
        <time>2021-08-20T13:12:54Z</time>
      </trkpt>
      <trkpt lat="43.389022" lon="-4.108628">
        <time>2021-08-20T13:13:32Z</time>
      </trkpt>
      <trkpt lat="43.389022" lon="-4.108628">
        <time>2021-08-20T13:15:24Z</time>
      </trkpt>
      <trkpt lat="43.388989" lon="-4.108638">
        <time>2021-08-20T13:15:34Z</time>
      </trkpt>
      <trkpt lat="43.388929" lon="-4.108651">
        <time>2021-08-20T13:15:37Z</time>
      </trkpt>
      <trkpt lat="43.388916" lon="-4.108693">
        <time>2021-08-20T13:15:43Z</time>
      </trkpt>
      <trkpt lat="43.388923" lon="-4.108761">
        <time>2021-08-20T13:15:46Z</time>
      </trkpt>
      <trkpt lat="43.388922" lon="-4.109022">
        <time>2021-08-20T13:15:58Z</time>
      </trkpt>
      <trkpt lat="43.388851" lon="-4.109062">
        <time>2021-08-20T13:16:01Z</time>
      </trkpt>
      <trkpt lat="43.388645" lon="-4.109318">
        <time>2021-08-20T13:16:10Z</time>
      </trkpt>
      <trkpt lat="43.388088" lon="-4.109843">
        <time>2021-08-20T13:16:22Z</time>
      </trkpt>
      <trkpt lat="43.387977" lon="-4.109993">
        <time>2021-08-20T13:16:28Z</time>
      </trkpt>
      <trkpt lat="43.38796" lon="-4.109978">
        <time>2021-08-20T13:16:31Z</time>
      </trkpt>
      <trkpt lat="43.387996" lon="-4.109962">
        <time>2021-08-20T13:16:34Z</time>
      </trkpt>
      <trkpt lat="43.388174" lon="-4.10987">
        <time>2021-08-20T13:16:49Z</time>
      </trkpt>
      <trkpt lat="43.388624" lon="-4.109489">
        <time>2021-08-20T13:16:58Z</time>
      </trkpt>
      <trkpt lat="43.388815" lon="-4.10933">
        <time>2021-08-20T13:17:07Z</time>
      </trkpt>
      <trkpt lat="43.388867" lon="-4.109274">
        <time>2021-08-20T13:17:10Z</time>
      </trkpt>
      <trkpt lat="43.388953" lon="-4.109173">
        <time>2021-08-20T13:17:16Z</time>
      </trkpt>
      <trkpt lat="43.388915" lon="-4.109071">
        <time>2021-08-20T13:17:58Z</time>
      </trkpt>
      <trkpt lat="43.388915" lon="-4.109071">
        <time>2021-08-20T13:17:58Z</time>
      </trkpt>
      <trkpt lat="43.388356" lon="-4.10695">
        <time>2021-08-20T14:17:16Z</time>
      </trkpt>
      <trkpt lat="43.387715" lon="-4.104764">
        <time>2021-08-20T14:17:34Z</time>
      </trkpt>
      <trkpt lat="43.387738" lon="-4.104008">
        <time>2021-08-20T14:17:40Z</time>
      </trkpt>
      <trkpt lat="43.387932" lon="-4.102882">
        <time>2021-08-20T14:17:49Z</time>
      </trkpt>
      <trkpt lat="43.387898" lon="-4.102501">
        <time>2021-08-20T14:17:52Z</time>
      </trkpt>
      <trkpt lat="43.387825" lon="-4.102119">
        <time>2021-08-20T14:17:55Z</time>
      </trkpt>
      <trkpt lat="43.387825" lon="-4.102119">
        <time>2021-08-20T14:17:59Z</time>
      </trkpt>
      <trkpt lat="43.385897" lon="-4.09735">
        <time>2021-08-20T14:20:13Z</time>
      </trkpt>
      <trkpt lat="43.385451" lon="-4.096065">
        <time>2021-08-20T14:20:22Z</time>
      </trkpt>
      <trkpt lat="43.38525" lon="-4.095854">
        <time>2021-08-20T14:20:25Z</time>
      </trkpt>
      <trkpt lat="43.385186" lon="-4.095471">
        <time>2021-08-20T14:20:28Z</time>
      </trkpt>
      <trkpt lat="43.385037" lon="-4.095033">
        <time>2021-08-20T14:20:31Z</time>
      </trkpt>
      <trkpt lat="43.384299" lon="-4.093393">
        <time>2021-08-20T14:20:40Z</time>
      </trkpt>
      <trkpt lat="43.383822" lon="-4.091944">
        <time>2021-08-20T14:20:46Z</time>
      </trkpt>
      <trkpt lat="43.381903" lon="-4.086059">
        <time>2021-08-20T14:21:10Z</time>
      </trkpt>
      <trkpt lat="43.38137" lon="-4.083766">
        <time>2021-08-20T14:21:19Z</time>
      </trkpt>
      <trkpt lat="43.381045" lon="-4.080719">
        <time>2021-08-20T14:21:31Z</time>
      </trkpt>
      <trkpt lat="43.380832" lon="-4.079982">
        <time>2021-08-20T14:21:34Z</time>
      </trkpt>
      <trkpt lat="43.379895" lon="-4.076228">
        <time>2021-08-20T14:21:52Z</time>
      </trkpt>
      <trkpt lat="43.379833" lon="-4.074306">
        <time>2021-08-20T14:22:04Z</time>
      </trkpt>
      <trkpt lat="43.379697" lon="-4.073825">
        <time>2021-08-20T14:22:07Z</time>
      </trkpt>
      <trkpt lat="43.379511" lon="-4.072814">
        <time>2021-08-20T14:22:13Z</time>
      </trkpt>
      <trkpt lat="43.379729" lon="-4.069049">
        <time>2021-08-20T14:22:34Z</time>
      </trkpt>
      <trkpt lat="43.379457" lon="-4.067469">
        <time>2021-08-20T14:22:43Z</time>
      </trkpt>
      <trkpt lat="43.379425" lon="-4.066952">
        <time>2021-08-20T14:22:46Z</time>
      </trkpt>
      <trkpt lat="43.379498" lon="-4.065437">
        <time>2021-08-20T14:22:55Z</time>
      </trkpt>
      <trkpt lat="43.379345" lon="-4.064923">
        <time>2021-08-20T14:22:58Z</time>
      </trkpt>
      <trkpt lat="43.378909" lon="-4.06339">
        <time>2021-08-20T14:23:07Z</time>
      </trkpt>
      <trkpt lat="43.37891" lon="-4.062203">
        <time>2021-08-20T14:23:13Z</time>
      </trkpt>
      <trkpt lat="43.378563" lon="-4.061117">
        <time>2021-08-20T14:23:19Z</time>
      </trkpt>
      <trkpt lat="43.378369" lon="-4.06057">
        <time>2021-08-20T14:23:22Z</time>
      </trkpt>
      <trkpt lat="43.377474" lon="-4.058128">
        <time>2021-08-20T14:23:37Z</time>
      </trkpt>
      <trkpt lat="43.376822" lon="-4.05745">
        <time>2021-08-20T14:23:43Z</time>
      </trkpt>
      <trkpt lat="43.375883" lon="-4.056329">
        <time>2021-08-20T14:23:52Z</time>
      </trkpt>
      <trkpt lat="43.375883" lon="-4.056329">
        <time>2021-08-20T14:23:52Z</time>
      </trkpt>
      <trkpt lat="43.375496" lon="-4.055327">
        <time>2021-08-20T14:23:58Z</time>
      </trkpt>
      <trkpt lat="43.375482" lon="-4.05477">
        <time>2021-08-20T14:24:01Z</time>
      </trkpt>
      <trkpt lat="43.375613" lon="-4.054243">
        <time>2021-08-20T14:24:04Z</time>
      </trkpt>
      <trkpt lat="43.376282" lon="-4.052792">
        <time>2021-08-20T14:24:13Z</time>
      </trkpt>
      <trkpt lat="43.376477" lon="-4.051076">
        <time>2021-08-20T14:24:22Z</time>
      </trkpt>
      <trkpt lat="43.376707" lon="-4.05065">
        <time>2021-08-20T14:24:25Z</time>
      </trkpt>
      <trkpt lat="43.377745" lon="-4.048617">
        <time>2021-08-20T14:24:43Z</time>
      </trkpt>
      <trkpt lat="43.377755" lon="-4.048342">
        <time>2021-08-20T14:24:46Z</time>
      </trkpt>
      <trkpt lat="43.377758" lon="-4.048062">
        <time>2021-08-20T14:24:49Z</time>
      </trkpt>
      <trkpt lat="43.377644" lon="-4.047738">
        <time>2021-08-20T14:24:52Z</time>
      </trkpt>
      <trkpt lat="43.376474" lon="-4.045473">
        <time>2021-08-20T14:25:10Z</time>
      </trkpt>
      <trkpt lat="43.375194" lon="-4.043485">
        <time>2021-08-20T14:25:25Z</time>
      </trkpt>
      <trkpt lat="43.373716" lon="-4.042962">
        <time>2021-08-20T14:25:37Z</time>
      </trkpt>
      <trkpt lat="43.373566" lon="-4.042607">
        <time>2021-08-20T14:25:40Z</time>
      </trkpt>
      <trkpt lat="43.373289" lon="-4.041668">
        <time>2021-08-20T14:25:49Z</time>
      </trkpt>
      <trkpt lat="43.373097" lon="-4.041457">
        <time>2021-08-20T14:25:52Z</time>
      </trkpt>
      <trkpt lat="43.373036" lon="-4.041213">
        <time>2021-08-20T14:25:55Z</time>
      </trkpt>
      <trkpt lat="43.373184" lon="-4.041045">
        <time>2021-08-20T14:25:58Z</time>
      </trkpt>
      <trkpt lat="43.376883" lon="-4.039464">
        <time>2021-08-20T14:26:28Z</time>
      </trkpt>
      <trkpt lat="43.380354" lon="-4.037791">
        <time>2021-08-20T14:26:55Z</time>
      </trkpt>
      <trkpt lat="43.381064" lon="-4.036898">
        <time>2021-08-20T14:27:04Z</time>
      </trkpt>
      <trkpt lat="43.381314" lon="-4.036489">
        <time>2021-08-20T14:27:07Z</time>
      </trkpt>
      <trkpt lat="43.384245" lon="-4.032991">
        <time>2021-08-20T14:27:34Z</time>
      </trkpt>
      <trkpt lat="43.38462" lon="-4.032861">
        <time>2021-08-20T14:27:37Z</time>
      </trkpt>
      <trkpt lat="43.38462" lon="-4.032861">
        <time>2021-08-20T14:27:37Z</time>
      </trkpt>
      <trkpt lat="43.386273" lon="-4.032651">
        <time>2021-08-20T14:27:49Z</time>
      </trkpt>
      <trkpt lat="43.386632" lon="-4.032278">
        <time>2021-08-20T14:27:52Z</time>
      </trkpt>
      <trkpt lat="43.386892" lon="-4.031816">
        <time>2021-08-20T14:27:55Z</time>
      </trkpt>
      <trkpt lat="43.387862" lon="-4.029382">
        <time>2021-08-20T14:28:10Z</time>
      </trkpt>
      <trkpt lat="43.388169" lon="-4.029074">
        <time>2021-08-20T14:28:13Z</time>
      </trkpt>
      <trkpt lat="43.389639" lon="-4.02773">
        <time>2021-08-20T14:28:25Z</time>
      </trkpt>
      <trkpt lat="43.390702" lon="-4.025786">
        <time>2021-08-20T14:28:37Z</time>
      </trkpt>
      <trkpt lat="43.39092" lon="-4.024659">
        <time>2021-08-20T14:28:43Z</time>
      </trkpt>
      <trkpt lat="43.391217" lon="-4.022608">
        <time>2021-08-20T14:28:55Z</time>
      </trkpt>
      <trkpt lat="43.391206" lon="-4.022179">
        <time>2021-08-20T14:28:58Z</time>
      </trkpt>
      <trkpt lat="43.391191" lon="-4.021878">
        <time>2021-08-20T14:29:01Z</time>
      </trkpt>
      <trkpt lat="43.391316" lon="-4.021769">
        <time>2021-08-20T14:29:04Z</time>
      </trkpt>
      <trkpt lat="43.391489" lon="-4.021894">
        <time>2021-08-20T14:29:07Z</time>
      </trkpt>
      <trkpt lat="43.391823" lon="-4.022031">
        <time>2021-08-20T14:29:13Z</time>
      </trkpt>
      <trkpt lat="43.391855" lon="-4.021979">
        <time>2021-08-20T14:29:16Z</time>
      </trkpt>
      <trkpt lat="43.391949" lon="-4.02157">
        <time>2021-08-20T14:29:28Z</time>
      </trkpt>
      <trkpt lat="43.391871" lon="-4.021434">
        <time>2021-08-20T14:29:31Z</time>
      </trkpt>
      <trkpt lat="43.391751" lon="-4.021329">
        <time>2021-08-20T14:29:37Z</time>
      </trkpt>
      <trkpt lat="43.391788" lon="-4.021358">
        <time>2021-08-20T14:29:40Z</time>
      </trkpt>
      <trkpt lat="43.392059" lon="-4.021601">
        <time>2021-08-20T14:29:49Z</time>
      </trkpt>
      <trkpt lat="43.392142" lon="-4.021667">
        <time>2021-08-20T14:29:55Z</time>
      </trkpt>
      <trkpt lat="43.392147" lon="-4.021665">
        <time>2021-08-20T14:30:15Z</time>
      </trkpt>
      <trkpt lat="43.392147" lon="-4.021665">
        <time>2021-08-20T14:30:15Z</time>
      </trkpt>
      <trkpt lat="43.392255" lon="-4.021574">
        <time>2021-08-20T14:50:16Z</time>
      </trkpt>
      <trkpt lat="43.392245" lon="-4.021598">
        <time>2021-08-20T14:51:47Z</time>
      </trkpt>
      <trkpt lat="43.392069" lon="-4.021527">
        <time>2021-08-20T14:52:16Z</time>
      </trkpt>
      <trkpt lat="43.392004" lon="-4.021617">
        <time>2021-08-20T14:52:19Z</time>
      </trkpt>
      <trkpt lat="43.391889" lon="-4.021655">
        <time>2021-08-20T14:52:22Z</time>
      </trkpt>
      <trkpt lat="43.39185" lon="-4.021716">
        <time>2021-08-20T14:52:40Z</time>
      </trkpt>
      <trkpt lat="43.391914" lon="-4.021888">
        <time>2021-08-20T14:52:43Z</time>
      </trkpt>
      <trkpt lat="43.392901" lon="-4.022544">
        <time>2021-08-20T14:52:55Z</time>
      </trkpt>
      <trkpt lat="43.393784" lon="-4.022912">
        <time>2021-08-20T14:53:04Z</time>
      </trkpt>
      <trkpt lat="43.394037" lon="-4.02267">
        <time>2021-08-20T14:53:07Z</time>
      </trkpt>
      <trkpt lat="43.394182" lon="-4.022218">
        <time>2021-08-20T14:53:10Z</time>
      </trkpt>
      <trkpt lat="43.394661" lon="-4.020421">
        <time>2021-08-20T14:53:19Z</time>
      </trkpt>
      <trkpt lat="43.395539" lon="-4.0183">
        <time>2021-08-20T14:53:31Z</time>
      </trkpt>
      <trkpt lat="43.395947" lon="-4.017648">
        <time>2021-08-20T14:53:37Z</time>
      </trkpt>
      <trkpt lat="43.396237" lon="-4.017499">
        <time>2021-08-20T14:53:41Z</time>
      </trkpt>
      <trkpt lat="43.39761" lon="-4.016305">
        <time>2021-08-20T14:53:52Z</time>
      </trkpt>
      <trkpt lat="43.397864" lon="-4.015823">
        <time>2021-08-20T14:53:55Z</time>
      </trkpt>
      <trkpt lat="43.398854" lon="-4.014091">
        <time>2021-08-20T14:54:07Z</time>
      </trkpt>
      <trkpt lat="43.399387" lon="-4.013537">
        <time>2021-08-20T14:54:13Z</time>
      </trkpt>
      <trkpt lat="43.399547" lon="-4.013346">
        <time>2021-08-20T14:54:16Z</time>
      </trkpt>
      <trkpt lat="43.399703" lon="-4.013448">
        <time>2021-08-20T14:54:19Z</time>
      </trkpt>
      <trkpt lat="43.400106" lon="-4.014028">
        <time>2021-08-20T14:54:25Z</time>
      </trkpt>
      <trkpt lat="43.400429" lon="-4.014237">
        <time>2021-08-20T14:54:28Z</time>
      </trkpt>
      <trkpt lat="43.400794" lon="-4.014319">
        <time>2021-08-20T14:54:31Z</time>
      </trkpt>
      <trkpt lat="43.401591" lon="-4.01417">
        <time>2021-08-20T14:54:37Z</time>
      </trkpt>
      <trkpt lat="43.406062" lon="-4.01318">
        <time>2021-08-20T14:55:10Z</time>
      </trkpt>
      <trkpt lat="43.410758" lon="-4.012152">
        <time>2021-08-20T14:55:46Z</time>
      </trkpt>
      <trkpt lat="43.4153" lon="-4.011252">
        <time>2021-08-20T14:56:22Z</time>
      </trkpt>
      <trkpt lat="43.415651" lon="-4.011252">
        <time>2021-08-20T14:56:25Z</time>
      </trkpt>
      <trkpt lat="43.415911" lon="-4.011429">
        <time>2021-08-20T14:56:28Z</time>
      </trkpt>
      <trkpt lat="43.416045" lon="-4.011787">
        <time>2021-08-20T14:56:31Z</time>
      </trkpt>
      <trkpt lat="43.416447" lon="-4.012926">
        <time>2021-08-20T14:56:40Z</time>
      </trkpt>
      <trkpt lat="43.416724" lon="-4.013057">
        <time>2021-08-20T14:56:43Z</time>
      </trkpt>
      <trkpt lat="43.418185" lon="-4.013221">
        <time>2021-08-20T14:56:55Z</time>
      </trkpt>
      <trkpt lat="43.419418" lon="-4.013038">
        <time>2021-08-20T14:57:04Z</time>
      </trkpt>
      <trkpt lat="43.421941" lon="-4.013082">
        <time>2021-08-20T14:57:22Z</time>
      </trkpt>
      <trkpt lat="43.423828" lon="-4.013123">
        <time>2021-08-20T14:57:34Z</time>
      </trkpt>
      <trkpt lat="43.424244" lon="-4.012897">
        <time>2021-08-20T14:57:37Z</time>
      </trkpt>
      <trkpt lat="43.424615" lon="-4.012612">
        <time>2021-08-20T14:57:40Z</time>
      </trkpt>
      <trkpt lat="43.425936" lon="-4.011346">
        <time>2021-08-20T14:57:52Z</time>
      </trkpt>
      <trkpt lat="43.426318" lon="-4.011249">
        <time>2021-08-20T14:57:55Z</time>
      </trkpt>
      <trkpt lat="43.428831" lon="-4.011424">
        <time>2021-08-20T14:58:13Z</time>
      </trkpt>
      <trkpt lat="43.429764" lon="-4.011234">
        <time>2021-08-20T14:58:19Z</time>
      </trkpt>
      <trkpt lat="43.431108" lon="-4.010363">
        <time>2021-08-20T14:58:28Z</time>
      </trkpt>
      <trkpt lat="43.431573" lon="-4.009728">
        <time>2021-08-20T14:58:34Z</time>
      </trkpt>
      <trkpt lat="43.431799" lon="-4.009155">
        <time>2021-08-20T14:58:40Z</time>
      </trkpt>
      <trkpt lat="43.431917" lon="-4.008764">
        <time>2021-08-20T14:58:43Z</time>
      </trkpt>
      <trkpt lat="43.432025" lon="-4.007803">
        <time>2021-08-20T14:58:49Z</time>
      </trkpt>
      <trkpt lat="43.432417" lon="-4.004539">
        <time>2021-08-20T14:59:07Z</time>
      </trkpt>
      <trkpt lat="43.432534" lon="-4.003488">
        <time>2021-08-20T14:59:13Z</time>
      </trkpt>
      <trkpt lat="43.432372" lon="-4.001845">
        <time>2021-08-20T14:59:22Z</time>
      </trkpt>
      <trkpt lat="43.43219" lon="-4.001335">
        <time>2021-08-20T14:59:25Z</time>
      </trkpt>
      <trkpt lat="43.43219" lon="-4.001335">
        <time>2021-08-20T14:59:25Z</time>
      </trkpt>
      <trkpt lat="43.431517" lon="-4.00056">
        <time>2021-08-20T14:59:31Z</time>
      </trkpt>
      <trkpt lat="43.430656" lon="-4.000301">
        <time>2021-08-20T14:59:37Z</time>
      </trkpt>
      <trkpt lat="43.429946" lon="-4.000271">
        <time>2021-08-20T14:59:43Z</time>
      </trkpt>
      <trkpt lat="43.429821" lon="-4.000441">
        <time>2021-08-20T14:59:46Z</time>
      </trkpt>
      <trkpt lat="43.429642" lon="-4.001024">
        <time>2021-08-20T14:59:55Z</time>
      </trkpt>
      <trkpt lat="43.429618" lon="-4.000892">
        <time>2021-08-20T15:00:25Z</time>
      </trkpt>
      <trkpt lat="43.429618" lon="-4.000892">
        <time>2021-08-20T15:00:25Z</time>
      </trkpt>
      <trkpt lat="43.42969" lon="-4.000652">
        <time>2021-08-20T15:00:28Z</time>
      </trkpt>
      <trkpt lat="43.429781" lon="-4.000273">
        <time>2021-08-20T15:00:34Z</time>
      </trkpt>
      <trkpt lat="43.429623" lon="-4.000158">
        <time>2021-08-20T15:00:37Z</time>
      </trkpt>
      <trkpt lat="43.4291" lon="-3.999765">
        <time>2021-08-20T15:00:43Z</time>
      </trkpt>
      <trkpt lat="43.428833" lon="-3.999486">
        <time>2021-08-20T15:00:46Z</time>
      </trkpt>
      <trkpt lat="43.428365" lon="-3.998791">
        <time>2021-08-20T15:00:52Z</time>
      </trkpt>
      <trkpt lat="43.426666" lon="-3.993689">
        <time>2021-08-20T15:01:28Z</time>
      </trkpt>
      <trkpt lat="43.426666" lon="-3.993689">
        <time>2021-08-20T15:01:28Z</time>
      </trkpt>
      <trkpt lat="43.426215" lon="-3.987446">
        <time>2021-08-20T15:02:10Z</time>
      </trkpt>
      <trkpt lat="43.426238" lon="-3.986994">
        <time>2021-08-20T15:02:13Z</time>
      </trkpt>
      <trkpt lat="43.426625" lon="-3.984032">
        <time>2021-08-20T15:02:52Z</time>
      </trkpt>
      <trkpt lat="43.426573" lon="-3.984272">
        <time>2021-08-20T15:02:55Z</time>
      </trkpt>
      <trkpt lat="43.42657" lon="-3.98478">
        <time>2021-08-20T15:03:01Z</time>
      </trkpt>
      <trkpt lat="43.426639" lon="-3.984829">
        <time>2021-08-20T15:03:04Z</time>
      </trkpt>
      <trkpt lat="43.426691" lon="-3.984802">
        <time>2021-08-20T15:03:07Z</time>
      </trkpt>
      <trkpt lat="43.426711" lon="-3.98464">
        <time>2021-08-20T15:03:10Z</time>
      </trkpt>
      <trkpt lat="43.426736" lon="-3.984422">
        <time>2021-08-20T15:04:28Z</time>
      </trkpt>
      <trkpt lat="43.426736" lon="-3.984422">
        <time>2021-08-20T15:04:28Z</time>
      </trkpt>
      <trkpt lat="43.42686" lon="-3.984334">
        <time>2021-08-20T16:14:19Z</time>
      </trkpt>
      <trkpt lat="43.42681" lon="-3.984287">
        <time>2021-08-20T16:14:28Z</time>
      </trkpt>
      <trkpt lat="43.426736" lon="-3.984452">
        <time>2021-08-20T16:14:49Z</time>
      </trkpt>
      <trkpt lat="43.42663" lon="-3.984687">
        <time>2021-08-20T16:14:55Z</time>
      </trkpt>
      <trkpt lat="43.426574" lon="-3.984676">
        <time>2021-08-20T16:14:58Z</time>
      </trkpt>
      <trkpt lat="43.426579" lon="-3.984543">
        <time>2021-08-20T16:15:01Z</time>
      </trkpt>
      <trkpt lat="43.426905" lon="-3.981447">
        <time>2021-08-20T16:15:22Z</time>
      </trkpt>
      <trkpt lat="43.42656" lon="-3.978868">
        <time>2021-08-20T16:15:37Z</time>
      </trkpt>
      <trkpt lat="43.426669" lon="-3.978409">
        <time>2021-08-20T16:15:40Z</time>
      </trkpt>
      <trkpt lat="43.426669" lon="-3.978409">
        <time>2021-08-20T16:15:40Z</time>
      </trkpt>
      <trkpt lat="43.427084" lon="-3.977631">
        <time>2021-08-20T16:15:46Z</time>
      </trkpt>
      <trkpt lat="43.427084" lon="-3.977631">
        <time>2021-08-20T16:15:49Z</time>
      </trkpt>
      <trkpt lat="43.427419" lon="-3.976886">
        <time>2021-08-20T16:15:52Z</time>
      </trkpt>
      <trkpt lat="43.427503" lon="-3.975625">
        <time>2021-08-20T16:16:29Z</time>
      </trkpt>
      <trkpt lat="43.427434" lon="-3.974265">
        <time>2021-08-20T16:16:38Z</time>
      </trkpt>
      <trkpt lat="43.427594" lon="-3.969962">
        <time>2021-08-20T16:17:02Z</time>
      </trkpt>
      <trkpt lat="43.427498" lon="-3.968587">
        <time>2021-08-20T16:17:11Z</time>
      </trkpt>
      <trkpt lat="43.427405" lon="-3.968048">
        <time>2021-08-20T16:17:17Z</time>
      </trkpt>
      <trkpt lat="43.427372" lon="-3.967631">
        <time>2021-08-20T16:17:20Z</time>
      </trkpt>
      <trkpt lat="43.427292" lon="-3.967156">
        <time>2021-08-20T16:17:23Z</time>
      </trkpt>
      <trkpt lat="43.426739" lon="-3.965079">
        <time>2021-08-20T16:17:35Z</time>
      </trkpt>
      <trkpt lat="43.426025" lon="-3.963814">
        <time>2021-08-20T16:17:44Z</time>
      </trkpt>
      <trkpt lat="43.426025" lon="-3.963814">
        <time>2021-08-20T16:17:44Z</time>
      </trkpt>
      <trkpt lat="43.424995" lon="-3.962808">
        <time>2021-08-20T16:17:53Z</time>
      </trkpt>
      <trkpt lat="43.422456" lon="-3.961614">
        <time>2021-08-20T16:18:11Z</time>
      </trkpt>
      <trkpt lat="43.421609" lon="-3.961467">
        <time>2021-08-20T16:18:17Z</time>
      </trkpt>
      <trkpt lat="43.421211" lon="-3.961283">
        <time>2021-08-20T16:18:20Z</time>
      </trkpt>
      <trkpt lat="43.420852" lon="-3.960942">
        <time>2021-08-20T16:18:23Z</time>
      </trkpt>
      <trkpt lat="43.419754" lon="-3.959568">
        <time>2021-08-20T16:18:35Z</time>
      </trkpt>
      <trkpt lat="43.418833" lon="-3.959318">
        <time>2021-08-20T16:18:44Z</time>
      </trkpt>
      <trkpt lat="43.41745" lon="-3.959187">
        <time>2021-08-20T16:18:53Z</time>
      </trkpt>
      <trkpt lat="43.415381" lon="-3.959186">
        <time>2021-08-20T16:19:08Z</time>
      </trkpt>
      <trkpt lat="43.415228" lon="-3.959407">
        <time>2021-08-20T16:19:11Z</time>
      </trkpt>
      <trkpt lat="43.415033" lon="-3.959449">
        <time>2021-08-20T16:19:14Z</time>
      </trkpt>
      <trkpt lat="43.414841" lon="-3.959231">
        <time>2021-08-20T16:19:17Z</time>
      </trkpt>
      <trkpt lat="43.414579" lon="-3.959058">
        <time>2021-08-20T16:19:20Z</time>
      </trkpt>
      <trkpt lat="43.413888" lon="-3.958886">
        <time>2021-08-20T16:19:26Z</time>
      </trkpt>
      <trkpt lat="43.413063" lon="-3.958973">
        <time>2021-08-20T16:19:32Z</time>
      </trkpt>
      <trkpt lat="43.411853" lon="-3.95902">
        <time>2021-08-20T16:19:41Z</time>
      </trkpt>
      <trkpt lat="43.411573" lon="-3.958664">
        <time>2021-08-20T16:19:44Z</time>
      </trkpt>
      <trkpt lat="43.410352" lon="-3.956172">
        <time>2021-08-20T16:19:59Z</time>
      </trkpt>
      <trkpt lat="43.410348" lon="-3.955515">
        <time>2021-08-20T16:20:02Z</time>
      </trkpt>
      <trkpt lat="43.410452" lon="-3.954867">
        <time>2021-08-20T16:20:05Z</time>
      </trkpt>
      <trkpt lat="43.410573" lon="-3.953679">
        <time>2021-08-20T16:20:11Z</time>
      </trkpt>
      <trkpt lat="43.410294" lon="-3.951971">
        <time>2021-08-20T16:20:20Z</time>
      </trkpt>
      <trkpt lat="43.409983" lon="-3.951598">
        <time>2021-08-20T16:20:23Z</time>
      </trkpt>
      <trkpt lat="43.408714" lon="-3.950763">
        <time>2021-08-20T16:20:32Z</time>
      </trkpt>
      <trkpt lat="43.407784" lon="-3.950406">
        <time>2021-08-20T16:20:38Z</time>
      </trkpt>
      <trkpt lat="43.406883" lon="-3.950246">
        <time>2021-08-20T16:20:44Z</time>
      </trkpt>
      <trkpt lat="43.406453" lon="-3.950354">
        <time>2021-08-20T16:20:47Z</time>
      </trkpt>
      <trkpt lat="43.40612" lon="-3.95071">
        <time>2021-08-20T16:20:50Z</time>
      </trkpt>
      <trkpt lat="43.405151" lon="-3.951633">
        <time>2021-08-20T16:20:59Z</time>
      </trkpt>
      <trkpt lat="43.403573" lon="-3.951399">
        <time>2021-08-20T16:21:11Z</time>
      </trkpt>
      <trkpt lat="43.40295" lon="-3.951257">
        <time>2021-08-20T16:21:20Z</time>
      </trkpt>
      <trkpt lat="43.403016" lon="-3.951032">
        <time>2021-08-20T16:21:23Z</time>
      </trkpt>
      <trkpt lat="43.403392" lon="-3.950557">
        <time>2021-08-20T16:21:29Z</time>
      </trkpt>
      <trkpt lat="43.406228" lon="-3.947952">
        <time>2021-08-20T16:21:59Z</time>
      </trkpt>
      <trkpt lat="43.409551" lon="-3.945064">
        <time>2021-08-20T16:22:26Z</time>
      </trkpt>
      <trkpt lat="43.409885" lon="-3.944015">
        <time>2021-08-20T16:22:32Z</time>
      </trkpt>
      <trkpt lat="43.409885" lon="-3.944015">
        <time>2021-08-20T16:22:32Z</time>
      </trkpt>
      <trkpt lat="43.409815" lon="-3.943501">
        <time>2021-08-20T16:22:35Z</time>
      </trkpt>
      <trkpt lat="43.409716" lon="-3.942419">
        <time>2021-08-20T16:22:41Z</time>
      </trkpt>
      <trkpt lat="43.409832" lon="-3.941439">
        <time>2021-08-20T16:22:47Z</time>
      </trkpt>
      <trkpt lat="43.410086" lon="-3.940642">
        <time>2021-08-20T16:22:56Z</time>
      </trkpt>
      <trkpt lat="43.410559" lon="-3.940123">
        <time>2021-08-20T16:23:02Z</time>
      </trkpt>
      <trkpt lat="43.411701" lon="-3.938594">
        <time>2021-08-20T16:23:17Z</time>
      </trkpt>
      <trkpt lat="43.41562" lon="-3.935015">
        <time>2021-08-20T16:23:53Z</time>
      </trkpt>
      <trkpt lat="43.417735" lon="-3.933151">
        <time>2021-08-20T16:24:11Z</time>
      </trkpt>
      <trkpt lat="43.418773" lon="-3.932229">
        <time>2021-08-20T16:24:20Z</time>
      </trkpt>
      <trkpt lat="43.41893" lon="-3.93169">
        <time>2021-08-20T16:24:23Z</time>
      </trkpt>
      <trkpt lat="43.418963" lon="-3.931107">
        <time>2021-08-20T16:24:26Z</time>
      </trkpt>
      <trkpt lat="43.419093" lon="-3.929953">
        <time>2021-08-20T16:24:32Z</time>
      </trkpt>
      <trkpt lat="43.419351" lon="-3.929447">
        <time>2021-08-20T16:24:35Z</time>
      </trkpt>
      <trkpt lat="43.420853" lon="-3.927715">
        <time>2021-08-20T16:24:47Z</time>
      </trkpt>
      <trkpt lat="43.422135" lon="-3.926805">
        <time>2021-08-20T16:24:56Z</time>
      </trkpt>
      <trkpt lat="43.422135" lon="-3.926805">
        <time>2021-08-20T16:24:56Z</time>
      </trkpt>
      <trkpt lat="43.422382" lon="-3.926232">
        <time>2021-08-20T16:24:59Z</time>
      </trkpt>
      <trkpt lat="43.422475" lon="-3.925578">
        <time>2021-08-20T16:25:02Z</time>
      </trkpt>
      <trkpt lat="43.422633" lon="-3.923555">
        <time>2021-08-20T16:25:11Z</time>
      </trkpt>
      <trkpt lat="43.423119" lon="-3.922432">
        <time>2021-08-20T16:25:17Z</time>
      </trkpt>
      <trkpt lat="43.424135" lon="-3.921345">
        <time>2021-08-20T16:25:29Z</time>
      </trkpt>
      <trkpt lat="43.424135" lon="-3.921345">
        <time>2021-08-20T16:25:29Z</time>
      </trkpt>
      <trkpt lat="43.424639" lon="-3.920986">
        <time>2021-08-20T16:25:35Z</time>
      </trkpt>
      <trkpt lat="43.428206" lon="-3.918224">
        <time>2021-08-20T16:26:02Z</time>
      </trkpt>
      <trkpt lat="43.428206" lon="-3.918224">
        <time>2021-08-20T16:26:02Z</time>
      </trkpt>
      <trkpt lat="43.431105" lon="-3.916798">
        <time>2021-08-20T16:26:29Z</time>
      </trkpt>
      <trkpt lat="43.431178" lon="-3.917058">
        <time>2021-08-20T16:26:32Z</time>
      </trkpt>
      <trkpt lat="43.431334" lon="-3.917391">
        <time>2021-08-20T16:26:35Z</time>
      </trkpt>
      <trkpt lat="43.431533" lon="-3.91765">
        <time>2021-08-20T16:26:38Z</time>
      </trkpt>
      <trkpt lat="43.431708" lon="-3.917956">
        <time>2021-08-20T16:26:41Z</time>
      </trkpt>
      <trkpt lat="43.431943" lon="-3.91828">
        <time>2021-08-20T16:26:44Z</time>
      </trkpt>
      <trkpt lat="43.432192" lon="-3.918488">
        <time>2021-08-20T16:26:47Z</time>
      </trkpt>
      <trkpt lat="43.432192" lon="-3.918488">
        <time>2021-08-20T16:26:47Z</time>
      </trkpt>
      <trkpt lat="43.432325" lon="-3.918503">
        <time>2021-08-20T16:26:50Z</time>
      </trkpt>
      <trkpt lat="43.432482" lon="-3.918525">
        <time>2021-08-20T16:26:53Z</time>
      </trkpt>
      <trkpt lat="43.432713" lon="-3.918602">
        <time>2021-08-20T16:26:56Z</time>
      </trkpt>
      <trkpt lat="43.432985" lon="-3.918504">
        <time>2021-08-20T16:26:59Z</time>
      </trkpt>
      <trkpt lat="43.433411" lon="-3.918149">
        <time>2021-08-20T16:27:05Z</time>
      </trkpt>
      <trkpt lat="43.433699" lon="-3.917756">
        <time>2021-08-20T16:27:11Z</time>
      </trkpt>
      <trkpt lat="43.43393" lon="-3.917837">
        <time>2021-08-20T16:27:14Z</time>
      </trkpt>
      <trkpt lat="43.434478" lon="-3.918058">
        <time>2021-08-20T16:27:20Z</time>
      </trkpt>
      <trkpt lat="43.434974" lon="-3.918372">
        <time>2021-08-20T16:27:26Z</time>
      </trkpt>
      <trkpt lat="43.436531" lon="-3.919514">
        <time>2021-08-20T16:27:41Z</time>
      </trkpt>
      <trkpt lat="43.439477" lon="-3.921356">
        <time>2021-08-20T16:28:05Z</time>
      </trkpt>
      <trkpt lat="43.439676" lon="-3.92183">
        <time>2021-08-20T16:28:08Z</time>
      </trkpt>
      <trkpt lat="43.440066" lon="-3.923108">
        <time>2021-08-20T16:28:17Z</time>
      </trkpt>
      <trkpt lat="43.440066" lon="-3.923108">
        <time>2021-08-20T16:28:17Z</time>
      </trkpt>
      <trkpt lat="43.440685" lon="-3.92458">
        <time>2021-08-20T16:28:29Z</time>
      </trkpt>
      <trkpt lat="43.4408" lon="-3.925633">
        <time>2021-08-20T16:28:35Z</time>
      </trkpt>
      <trkpt lat="43.440938" lon="-3.92805">
        <time>2021-08-20T16:28:47Z</time>
      </trkpt>
      <trkpt lat="43.441481" lon="-3.928859">
        <time>2021-08-20T16:28:53Z</time>
      </trkpt>
      <trkpt lat="43.441481" lon="-3.928859">
        <time>2021-08-20T16:28:53Z</time>
      </trkpt>
      <trkpt lat="43.442499" lon="-3.929835">
        <time>2021-08-20T16:29:05Z</time>
      </trkpt>
      <trkpt lat="43.443675" lon="-3.929677">
        <time>2021-08-20T16:29:17Z</time>
      </trkpt>
      <trkpt lat="43.444243" lon="-3.929042">
        <time>2021-08-20T16:29:26Z</time>
      </trkpt>
      <trkpt lat="43.444495" lon="-3.928353">
        <time>2021-08-20T16:29:32Z</time>
      </trkpt>
      <trkpt lat="43.444694" lon="-3.928038">
        <time>2021-08-20T16:29:35Z</time>
      </trkpt>
      <trkpt lat="43.445049" lon="-3.92728">
        <time>2021-08-20T16:29:41Z</time>
      </trkpt>
      <trkpt lat="43.445776" lon="-3.925686">
        <time>2021-08-20T16:29:56Z</time>
      </trkpt>
      <trkpt lat="43.445932" lon="-3.925492">
        <time>2021-08-20T16:30:35Z</time>
      </trkpt>
      <trkpt lat="43.447195" lon="-3.924595">
        <time>2021-08-20T16:30:59Z</time>
      </trkpt>
      <trkpt lat="43.447551" lon="-3.92439">
        <time>2021-08-20T16:31:05Z</time>
      </trkpt>
      <trkpt lat="43.447753" lon="-3.924366">
        <time>2021-08-20T16:31:08Z</time>
      </trkpt>
      <trkpt lat="43.447993" lon="-3.924439">
        <time>2021-08-20T16:31:14Z</time>
      </trkpt>
      <trkpt lat="43.448141" lon="-3.924586">
        <time>2021-08-20T16:31:23Z</time>
      </trkpt>
      <trkpt lat="43.448442" lon="-3.925215">
        <time>2021-08-20T16:31:32Z</time>
      </trkpt>
      <trkpt lat="43.448806" lon="-3.926073">
        <time>2021-08-20T16:31:41Z</time>
      </trkpt>
      <trkpt lat="43.449492" lon="-3.927627">
        <time>2021-08-20T16:31:53Z</time>
      </trkpt>
      <trkpt lat="43.44978" lon="-3.927987">
        <time>2021-08-20T16:31:56Z</time>
      </trkpt>
      <trkpt lat="43.450162" lon="-3.928196">
        <time>2021-08-20T16:31:59Z</time>
      </trkpt>
      <trkpt lat="43.450591" lon="-3.928268">
        <time>2021-08-20T16:32:02Z</time>
      </trkpt>
      <trkpt lat="43.451429" lon="-3.928297">
        <time>2021-08-20T16:32:08Z</time>
      </trkpt>
      <trkpt lat="43.451844" lon="-3.928431">
        <time>2021-08-20T16:32:11Z</time>
      </trkpt>
      <trkpt lat="43.452663" lon="-3.928514">
        <time>2021-08-20T16:32:17Z</time>
      </trkpt>
      <trkpt lat="43.456044" lon="-3.927346">
        <time>2021-08-20T16:32:41Z</time>
      </trkpt>
      <trkpt lat="43.456411" lon="-3.927537">
        <time>2021-08-20T16:32:44Z</time>
      </trkpt>
      <trkpt lat="43.456411" lon="-3.927537">
        <time>2021-08-20T16:32:44Z</time>
      </trkpt>
      <trkpt lat="43.456718" lon="-3.927961">
        <time>2021-08-20T16:32:47Z</time>
      </trkpt>
      <trkpt lat="43.457725" lon="-3.929394">
        <time>2021-08-20T16:32:59Z</time>
      </trkpt>
      <trkpt lat="43.458031" lon="-3.929458">
        <time>2021-08-20T16:33:02Z</time>
      </trkpt>
      <trkpt lat="43.458648" lon="-3.929495">
        <time>2021-08-20T16:33:11Z</time>
      </trkpt>
      <trkpt lat="43.45897" lon="-3.929483">
        <time>2021-08-20T16:33:23Z</time>
      </trkpt>
      <trkpt lat="43.459292" lon="-3.929195">
        <time>2021-08-20T16:33:29Z</time>
      </trkpt>
      <trkpt lat="43.459718" lon="-3.928985">
        <time>2021-08-20T16:33:44Z</time>
      </trkpt>
      <trkpt lat="43.460169" lon="-3.92848">
        <time>2021-08-20T16:33:56Z</time>
      </trkpt>
      <trkpt lat="43.460306" lon="-3.928245">
        <time>2021-08-20T16:34:05Z</time>
      </trkpt>
      <trkpt lat="43.460363" lon="-3.92803">
        <time>2021-08-20T16:34:11Z</time>
      </trkpt>
      <trkpt lat="43.461011" lon="-3.925432">
        <time>2021-08-20T16:34:29Z</time>
      </trkpt>
      <trkpt lat="43.461396" lon="-3.922369">
        <time>2021-08-20T16:34:44Z</time>
      </trkpt>
      <trkpt lat="43.462156" lon="-3.916264">
        <time>2021-08-20T16:35:11Z</time>
      </trkpt>
      <trkpt lat="43.462385" lon="-3.912949">
        <time>2021-08-20T16:35:26Z</time>
      </trkpt>
      <trkpt lat="43.462367" lon="-3.912064">
        <time>2021-08-20T16:35:32Z</time>
      </trkpt>
      <trkpt lat="43.462478" lon="-3.91153">
        <time>2021-08-20T16:35:35Z</time>
      </trkpt>
      <trkpt lat="43.462587" lon="-3.909518">
        <time>2021-08-20T16:35:44Z</time>
      </trkpt>
      <trkpt lat="43.462827" lon="-3.906854">
        <time>2021-08-20T16:35:59Z</time>
      </trkpt>
      <trkpt lat="43.462872" lon="-3.906485">
        <time>2021-08-20T16:36:02Z</time>
      </trkpt>
      <trkpt lat="43.462702" lon="-3.905563">
        <time>2021-08-20T16:36:08Z</time>
      </trkpt>
      <trkpt lat="43.462408" lon="-3.903562">
        <time>2021-08-20T16:36:20Z</time>
      </trkpt>
      <trkpt lat="43.462526" lon="-3.903095">
        <time>2021-08-20T16:36:23Z</time>
      </trkpt>
      <trkpt lat="43.462615" lon="-3.902533">
        <time>2021-08-20T16:36:26Z</time>
      </trkpt>
      <trkpt lat="43.462855" lon="-3.899941">
        <time>2021-08-20T16:36:41Z</time>
      </trkpt>
      <trkpt lat="43.463292" lon="-3.899058">
        <time>2021-08-20T16:36:47Z</time>
      </trkpt>
      <trkpt lat="43.464546" lon="-3.897502">
        <time>2021-08-20T16:36:59Z</time>
      </trkpt>
      <trkpt lat="43.466359" lon="-3.895386">
        <time>2021-08-20T16:37:20Z</time>
      </trkpt>
      <trkpt lat="43.4673" lon="-3.892353">
        <time>2021-08-20T16:37:44Z</time>
      </trkpt>
      <trkpt lat="43.468057" lon="-3.889203">
        <time>2021-08-20T16:38:05Z</time>
      </trkpt>
      <trkpt lat="43.468206" lon="-3.887683">
        <time>2021-08-20T16:38:14Z</time>
      </trkpt>
      <trkpt lat="43.468014" lon="-3.886897">
        <time>2021-08-20T16:38:20Z</time>
      </trkpt>
      <trkpt lat="43.467794" lon="-3.886204">
        <time>2021-08-20T16:38:26Z</time>
      </trkpt>
      <trkpt lat="43.467794" lon="-3.886204">
        <time>2021-08-20T16:38:26Z</time>
      </trkpt>
      <trkpt lat="43.46766" lon="-3.885716">
        <time>2021-08-20T16:38:29Z</time>
      </trkpt>
      <trkpt lat="43.46636" lon="-3.880993">
        <time>2021-08-20T16:38:59Z</time>
      </trkpt>
      <trkpt lat="43.466253" lon="-3.880035">
        <time>2021-08-20T16:39:05Z</time>
      </trkpt>
      <trkpt lat="43.465572" lon="-3.875161">
        <time>2021-08-20T16:39:41Z</time>
      </trkpt>
      <trkpt lat="43.46554" lon="-3.874909">
        <time>2021-08-20T16:39:44Z</time>
      </trkpt>
      <trkpt lat="43.465603" lon="-3.874564">
        <time>2021-08-20T16:39:53Z</time>
      </trkpt>
      <trkpt lat="43.465564" lon="-3.873924">
        <time>2021-08-20T16:39:59Z</time>
      </trkpt>
      <trkpt lat="43.465375" lon="-3.871897">
        <time>2021-08-20T16:40:14Z</time>
      </trkpt>
      <trkpt lat="43.465998" lon="-3.868436">
        <time>2021-08-20T16:40:41Z</time>
      </trkpt>
      <trkpt lat="43.465813" lon="-3.867793">
        <time>2021-08-20T16:40:50Z</time>
      </trkpt>
      <trkpt lat="43.465813" lon="-3.867793">
        <time>2021-08-20T16:40:50Z</time>
      </trkpt>
      <trkpt lat="43.465531" lon="-3.867555">
        <time>2021-08-20T16:40:56Z</time>
      </trkpt>
      <trkpt lat="43.465348" lon="-3.867502">
        <time>2021-08-20T16:40:59Z</time>
      </trkpt>
      <trkpt lat="43.465159" lon="-3.867399">
        <time>2021-08-20T16:41:02Z</time>
      </trkpt>
      <trkpt lat="43.465128" lon="-3.867168">
        <time>2021-08-20T16:41:05Z</time>
      </trkpt>
      <trkpt lat="43.465288" lon="-3.866937">
        <time>2021-08-20T16:41:08Z</time>
      </trkpt>
      <trkpt lat="43.465414" lon="-3.866593">
        <time>2021-08-20T16:41:11Z</time>
      </trkpt>
      <trkpt lat="43.466358" lon="-3.861984">
        <time>2021-08-20T16:41:38Z</time>
      </trkpt>
      <trkpt lat="43.466677" lon="-3.859806">
        <time>2021-08-20T16:42:02Z</time>
      </trkpt>
      <trkpt lat="43.465903" lon="-3.855738">
        <time>2021-08-20T16:42:26Z</time>
      </trkpt>
      <trkpt lat="43.465903" lon="-3.855738">
        <time>2021-08-20T16:42:26Z</time>
      </trkpt>
      <trkpt lat="43.465639" lon="-3.854428">
        <time>2021-08-20T16:42:35Z</time>
      </trkpt>
      <trkpt lat="43.465458" lon="-3.849399">
        <time>2021-08-20T16:43:29Z</time>
      </trkpt>
      <trkpt lat="43.46542" lon="-3.843372">
        <time>2021-08-20T16:44:02Z</time>
      </trkpt>
      <trkpt lat="43.465231" lon="-3.842904">
        <time>2021-08-20T16:44:05Z</time>
      </trkpt>
      <trkpt lat="43.464674" lon="-3.841781">
        <time>2021-08-20T16:44:14Z</time>
      </trkpt>
      <trkpt lat="43.463352" lon="-3.839914">
        <time>2021-08-20T16:44:29Z</time>
      </trkpt>
      <trkpt lat="43.462968" lon="-3.838747">
        <time>2021-08-20T16:44:41Z</time>
      </trkpt>
      <trkpt lat="43.46263" lon="-3.837579">
        <time>2021-08-20T16:44:50Z</time>
      </trkpt>
      <trkpt lat="43.46263" lon="-3.837579">
        <time>2021-08-20T16:44:50Z</time>
      </trkpt>
      <trkpt lat="43.461935" lon="-3.835401">
        <time>2021-08-20T16:45:14Z</time>
      </trkpt>
      <trkpt lat="43.461861" lon="-3.835312">
        <time>2021-08-20T16:45:17Z</time>
      </trkpt>
      <trkpt lat="43.461794" lon="-3.83525">
        <time>2021-08-20T16:45:20Z</time>
      </trkpt>
      <trkpt lat="43.461647" lon="-3.83533">
        <time>2021-08-20T16:45:23Z</time>
      </trkpt>
      <trkpt lat="43.460496" lon="-3.837183">
        <time>2021-08-20T16:45:41Z</time>
      </trkpt>
      <trkpt lat="43.460137" lon="-3.838235">
        <time>2021-08-20T16:45:50Z</time>
      </trkpt>
      <trkpt lat="43.459953" lon="-3.839121">
        <time>2021-08-20T16:45:56Z</time>
      </trkpt>
      <trkpt lat="43.459905" lon="-3.839862">
        <time>2021-08-20T16:46:02Z</time>
      </trkpt>
      <trkpt lat="43.459766" lon="-3.840216">
        <time>2021-08-20T16:46:08Z</time>
      </trkpt>
      <trkpt lat="43.459656" lon="-3.840095">
        <time>2021-08-20T16:46:11Z</time>
      </trkpt>
      <trkpt lat="43.459712" lon="-3.839839">
        <time>2021-08-20T16:46:14Z</time>
      </trkpt>
      <trkpt lat="43.460121" lon="-3.837785">
        <time>2021-08-20T16:46:32Z</time>
      </trkpt>
      <trkpt lat="43.460276" lon="-3.837295">
        <time>2021-08-20T16:46:38Z</time>
      </trkpt>
      <trkpt lat="43.460834" lon="-3.836242">
        <time>2021-08-20T16:46:53Z</time>
      </trkpt>
      <trkpt lat="43.460834" lon="-3.836242">
        <time>2021-08-20T16:46:53Z</time>
      </trkpt>
      <trkpt lat="43.460841" lon="-3.836032">
        <time>2021-08-20T16:46:56Z</time>
      </trkpt>
      <trkpt lat="43.4608" lon="-3.835927">
        <time>2021-08-20T16:46:59Z</time>
      </trkpt>
      <trkpt lat="43.460732" lon="-3.835866">
        <time>2021-08-20T16:47:02Z</time>
      </trkpt>
      <trkpt lat="43.460531" lon="-3.835871">
        <time>2021-08-20T16:47:08Z</time>
      </trkpt>
      <trkpt lat="43.459685" lon="-3.835761">
        <time>2021-08-20T16:47:14Z</time>
      </trkpt>
      <trkpt lat="43.456438" lon="-3.832833">
        <time>2021-08-20T16:47:40Z</time>
      </trkpt>
      <trkpt lat="43.456438" lon="-3.832833">
        <time>2021-08-20T16:47:40Z</time>
      </trkpt>
      <trkpt lat="43.455454" lon="-3.83145">
        <time>2021-08-20T16:47:49Z</time>
      </trkpt>
      <trkpt lat="43.454757" lon="-3.83053">
        <time>2021-08-20T16:47:58Z</time>
      </trkpt>
      <trkpt lat="43.454284" lon="-3.82942">
        <time>2021-08-20T16:48:49Z</time>
      </trkpt>
      <trkpt lat="43.454219" lon="-3.829338">
        <time>2021-08-20T16:48:52Z</time>
      </trkpt>
      <trkpt lat="43.454091" lon="-3.829275">
        <time>2021-08-20T16:48:55Z</time>
      </trkpt>
      <trkpt lat="43.45373" lon="-3.829041">
        <time>2021-08-20T16:49:01Z</time>
      </trkpt>
      <trkpt lat="43.453671" lon="-3.828764">
        <time>2021-08-20T16:49:04Z</time>
      </trkpt>
      <trkpt lat="43.453595" lon="-3.828482">
        <time>2021-08-20T16:49:07Z</time>
      </trkpt>
      <trkpt lat="43.45338" lon="-3.828311">
        <time>2021-08-20T16:49:10Z</time>
      </trkpt>
      <trkpt lat="43.45338" lon="-3.828311">
        <time>2021-08-20T16:49:10Z</time>
      </trkpt>
      <trkpt lat="43.451782" lon="-3.827651">
        <time>2021-08-20T16:49:25Z</time>
      </trkpt>
      <trkpt lat="43.451536" lon="-3.827516">
        <time>2021-08-20T16:49:28Z</time>
      </trkpt>
      <trkpt lat="43.451493" lon="-3.827213">
        <time>2021-08-20T16:49:31Z</time>
      </trkpt>
      <trkpt lat="43.451628" lon="-3.826882">
        <time>2021-08-20T16:49:34Z</time>
      </trkpt>
      <trkpt lat="43.452579" lon="-3.823908">
        <time>2021-08-20T16:49:58Z</time>
      </trkpt>
      <trkpt lat="43.452579" lon="-3.823908">
        <time>2021-08-20T16:49:58Z</time>
      </trkpt>
      <trkpt lat="43.454101" lon="-3.817954">
        <time>2021-08-20T16:50:52Z</time>
      </trkpt>
      <trkpt lat="43.454715" lon="-3.815496">
        <time>2021-08-20T16:51:16Z</time>
      </trkpt>
      <trkpt lat="43.455084" lon="-3.814527">
        <time>2021-08-20T16:51:25Z</time>
      </trkpt>
      <trkpt lat="43.455931" lon="-3.811828">
        <time>2021-08-20T16:51:49Z</time>
      </trkpt>
      <trkpt lat="43.455931" lon="-3.811828">
        <time>2021-08-20T16:51:49Z</time>
      </trkpt>
      <trkpt lat="43.455978" lon="-3.811444">
        <time>2021-08-20T16:51:52Z</time>
      </trkpt>
      <trkpt lat="43.456163" lon="-3.811172">
        <time>2021-08-20T16:51:55Z</time>
      </trkpt>
      <trkpt lat="43.457639" lon="-3.809636">
        <time>2021-08-20T16:52:13Z</time>
      </trkpt>
      <trkpt lat="43.458273" lon="-3.808616">
        <time>2021-08-20T16:52:22Z</time>
      </trkpt>
      <trkpt lat="43.458476" lon="-3.808285">
        <time>2021-08-20T16:52:25Z</time>
      </trkpt>
      <trkpt lat="43.459161" lon="-3.807303">
        <time>2021-08-20T16:52:43Z</time>
      </trkpt>
      <trkpt lat="43.459161" lon="-3.807303">
        <time>2021-08-20T16:52:43Z</time>
      </trkpt>
      <trkpt lat="43.459709" lon="-3.806506">
        <time>2021-08-20T16:52:55Z</time>
      </trkpt>
      <trkpt lat="43.459968" lon="-3.805626">
        <time>2021-08-20T16:53:01Z</time>
      </trkpt>
      <trkpt lat="43.461512" lon="-3.802519">
        <time>2021-08-20T16:53:26Z</time>
      </trkpt>
      <trkpt lat="43.461703" lon="-3.802046">
        <time>2021-08-20T16:53:32Z</time>
      </trkpt>
      <trkpt lat="43.461703" lon="-3.802046">
        <time>2021-08-20T16:53:32Z</time>
      </trkpt>
      <trkpt lat="43.462401" lon="-3.797339">
        <time>2021-08-20T16:54:44Z</time>
      </trkpt>
      <trkpt lat="43.462973" lon="-3.796219">
        <time>2021-08-20T16:54:56Z</time>
      </trkpt>
      <trkpt lat="43.463053" lon="-3.795863">
        <time>2021-08-20T16:54:59Z</time>
      </trkpt>
      <trkpt lat="43.462899" lon="-3.791963">
        <time>2021-08-20T16:55:29Z</time>
      </trkpt>
      <trkpt lat="43.463445" lon="-3.790286">
        <time>2021-08-20T16:55:50Z</time>
      </trkpt>
      <trkpt lat="43.463473" lon="-3.790005">
        <time>2021-08-20T16:55:56Z</time>
      </trkpt>
      <trkpt lat="43.463469" lon="-3.789709">
        <time>2021-08-20T16:56:05Z</time>
      </trkpt>
      <trkpt lat="43.463469" lon="-3.789651">
        <time>2021-08-20T16:56:08Z</time>
      </trkpt>
      <trkpt lat="43.463458" lon="-3.789513">
        <time>2021-08-20T16:56:14Z</time>
      </trkpt>
      <trkpt lat="43.463545" lon="-3.78906">
        <time>2021-08-20T16:56:35Z</time>
      </trkpt>
      <trkpt lat="43.463705" lon="-3.7883">
        <time>2021-08-20T16:56:44Z</time>
      </trkpt>
      <trkpt lat="43.46381" lon="-3.786209">
        <time>2021-08-20T16:57:02Z</time>
      </trkpt>
      <trkpt lat="43.464355" lon="-3.783968">
        <time>2021-08-20T16:57:23Z</time>
      </trkpt>
      <trkpt lat="43.46509" lon="-3.7816">
        <time>2021-08-20T16:57:41Z</time>
      </trkpt>
      <trkpt lat="43.465593" lon="-3.780943">
        <time>2021-08-20T16:57:53Z</time>
      </trkpt>
      <trkpt lat="43.466139" lon="-3.780052">
        <time>2021-08-20T16:58:11Z</time>
      </trkpt>
      <trkpt lat="43.466817" lon="-3.778591">
        <time>2021-08-20T16:58:23Z</time>
      </trkpt>
      <trkpt lat="43.467979" lon="-3.776316">
        <time>2021-08-20T16:58:41Z</time>
      </trkpt>
      <trkpt lat="43.468319" lon="-3.775812">
        <time>2021-08-20T16:58:50Z</time>
      </trkpt>
      <trkpt lat="43.468793" lon="-3.773917">
        <time>2021-08-20T16:59:50Z</time>
      </trkpt>
      <trkpt lat="43.468847" lon="-3.773869">
        <time>2021-08-20T16:59:53Z</time>
      </trkpt>
      <trkpt lat="43.468854" lon="-3.773826">
        <time>2021-08-20T17:01:35Z</time>
      </trkpt>
      <trkpt lat="43.468854" lon="-3.773826">
        <time>2021-08-20T17:01:56Z</time>
      </trkpt>
      <trkpt lat="43.468854" lon="-3.773826">
        <time>2021-08-20T17:04:19Z</time>
      </trkpt>
      <trkpt lat="43.468854" lon="-3.773826">
        <time>2021-08-20T17:04:19Z</time>
      </trkpt>
      <trkpt lat="43.46872" lon="-3.773788">
        <time>2021-08-20T18:02:43Z</time>
      </trkpt>
      <trkpt lat="43.468554" lon="-3.774211">
        <time>2021-08-20T18:02:49Z</time>
      </trkpt>
      <trkpt lat="43.468371" lon="-3.774882">
        <time>2021-08-20T18:03:04Z</time>
      </trkpt>
      <trkpt lat="43.468342" lon="-3.774962">
        <time>2021-08-20T18:03:07Z</time>
      </trkpt>
      <trkpt lat="43.468286" lon="-3.775127">
        <time>2021-08-20T18:03:13Z</time>
      </trkpt>
      <trkpt lat="43.46825" lon="-3.7755">
        <time>2021-08-20T18:03:16Z</time>
      </trkpt>
      <trkpt lat="43.468411" lon="-3.776081">
        <time>2021-08-20T18:03:22Z</time>
      </trkpt>
      <trkpt lat="43.46901" lon="-3.776837">
        <time>2021-08-20T18:03:31Z</time>
      </trkpt>
      <trkpt lat="43.470316" lon="-3.777481">
        <time>2021-08-20T18:04:10Z</time>
      </trkpt>
      <trkpt lat="43.470825" lon="-3.777966">
        <time>2021-08-20T18:04:16Z</time>
      </trkpt>
      <trkpt lat="43.470985" lon="-3.778388">
        <time>2021-08-20T18:04:19Z</time>
      </trkpt>
      <trkpt lat="43.471067" lon="-3.778917">
        <time>2021-08-20T18:04:25Z</time>
      </trkpt>
      <trkpt lat="43.471073" lon="-3.779156">
        <time>2021-08-20T18:04:28Z</time>
      </trkpt>
      <trkpt lat="43.47147" lon="-3.780591">
        <time>2021-08-20T18:04:40Z</time>
      </trkpt>
      <trkpt lat="43.471522" lon="-3.781046">
        <time>2021-08-20T18:04:46Z</time>
      </trkpt>
      <trkpt lat="43.471568" lon="-3.781316">
        <time>2021-08-20T18:04:49Z</time>
      </trkpt>
      <trkpt lat="43.471813" lon="-3.781768">
        <time>2021-08-20T18:04:55Z</time>
      </trkpt>
      <trkpt lat="43.472119" lon="-3.782118">
        <time>2021-08-20T18:05:04Z</time>
      </trkpt>
      <trkpt lat="43.472575" lon="-3.78267">
        <time>2021-08-20T18:05:10Z</time>
      </trkpt>
      <trkpt lat="43.474039" lon="-3.784962">
        <time>2021-08-20T18:05:49Z</time>
      </trkpt>
      <trkpt lat="43.474776" lon="-3.785667">
        <time>2021-08-20T18:06:01Z</time>
      </trkpt>
      <trkpt lat="43.475066" lon="-3.78629">
        <time>2021-08-20T18:06:10Z</time>
      </trkpt>
      <trkpt lat="43.475223" lon="-3.786892">
        <time>2021-08-20T18:06:22Z</time>
      </trkpt>
      <trkpt lat="43.475292" lon="-3.787332">
        <time>2021-08-20T18:06:28Z</time>
      </trkpt>
      <trkpt lat="43.475317" lon="-3.787667">
        <time>2021-08-20T18:06:34Z</time>
      </trkpt>
      <trkpt lat="43.475471" lon="-3.788222">
        <time>2021-08-20T18:06:43Z</time>
      </trkpt>
      <trkpt lat="43.475872" lon="-3.788464">
        <time>2021-08-20T18:06:46Z</time>
      </trkpt>
      <trkpt lat="43.479218" lon="-3.789111">
        <time>2021-08-20T18:07:58Z</time>
      </trkpt>
      <trkpt lat="43.479482" lon="-3.789018">
        <time>2021-08-20T18:08:04Z</time>
      </trkpt>
      <trkpt lat="43.479613" lon="-3.788927">
        <time>2021-08-20T18:08:07Z</time>
      </trkpt>
      <trkpt lat="43.480322" lon="-3.788391">
        <time>2021-08-20T18:08:19Z</time>
      </trkpt>
      <trkpt lat="43.480886" lon="-3.78755">
        <time>2021-08-20T18:08:31Z</time>
      </trkpt>
      <trkpt lat="43.481249" lon="-3.787088">
        <time>2021-08-20T18:08:40Z</time>
      </trkpt>
      <trkpt lat="43.481394" lon="-3.787015">
        <time>2021-08-20T18:08:43Z</time>
      </trkpt>
      <trkpt lat="43.481819" lon="-3.787017">
        <time>2021-08-20T18:08:55Z</time>
      </trkpt>
      <trkpt lat="43.481792" lon="-3.787036">
        <time>2021-08-20T18:08:58Z</time>
      </trkpt>
      <trkpt lat="43.48174" lon="-3.787054">
        <time>2021-08-20T18:09:01Z</time>
      </trkpt>
      <trkpt lat="43.481653" lon="-3.787045">
        <time>2021-08-20T18:09:04Z</time>
      </trkpt>
      <trkpt lat="43.481569" lon="-3.786992">
        <time>2021-08-20T18:09:07Z</time>
      </trkpt>
      <trkpt lat="43.481467" lon="-3.786944">
        <time>2021-08-20T18:09:10Z</time>
      </trkpt>
      <trkpt lat="43.48117" lon="-3.787">
        <time>2021-08-20T18:09:16Z</time>
      </trkpt>
      <trkpt lat="43.481047" lon="-3.787174">
        <time>2021-08-20T18:09:19Z</time>
      </trkpt>
      <trkpt lat="43.480433" lon="-3.788143">
        <time>2021-08-20T18:09:34Z</time>
      </trkpt>
      <trkpt lat="43.480169" lon="-3.788435">
        <time>2021-08-20T18:09:40Z</time>
      </trkpt>
      <trkpt lat="43.479954" lon="-3.788598">
        <time>2021-08-20T18:09:46Z</time>
      </trkpt>
      <trkpt lat="43.479863" lon="-3.78874">
        <time>2021-08-20T18:09:49Z</time>
      </trkpt>
      <trkpt lat="43.479819" lon="-3.788868">
        <time>2021-08-20T18:09:52Z</time>
      </trkpt>
      <trkpt lat="43.47969" lon="-3.789119">
        <time>2021-08-20T18:10:19Z</time>
      </trkpt>
      <trkpt lat="43.479454" lon="-3.789068">
        <time>2021-08-20T18:10:25Z</time>
      </trkpt>
      <trkpt lat="43.479321" lon="-3.789046">
        <time>2021-08-20T18:12:01Z</time>
      </trkpt>
      <trkpt lat="43.479321" lon="-3.789046">
        <time>2021-08-20T18:12:01Z</time>
      </trkpt>
      <trkpt lat="43.479277" lon="-3.789088">
        <time>2021-08-20T18:54:34Z</time>
      </trkpt>
      <trkpt lat="43.479287" lon="-3.789101">
        <time>2021-08-20T18:54:53Z</time>
      </trkpt>
      <trkpt lat="43.479287" lon="-3.789101">
        <time>2021-08-20T18:56:45Z</time>
      </trkpt>
      <trkpt lat="43.479287" lon="-3.789101">
        <time>2021-08-20T18:56:54Z</time>
      </trkpt>
      <trkpt lat="43.479719" lon="-3.788992">
        <time>2021-08-20T18:58:16Z</time>
      </trkpt>
      <trkpt lat="43.479713" lon="-3.789116">
        <time>2021-08-20T18:58:19Z</time>
      </trkpt>
      <trkpt lat="43.479601" lon="-3.789126">
        <time>2021-08-20T18:58:22Z</time>
      </trkpt>
      <trkpt lat="43.478721" lon="-3.78906">
        <time>2021-08-20T18:58:37Z</time>
      </trkpt>
      <trkpt lat="43.478045" lon="-3.788903">
        <time>2021-08-20T18:58:58Z</time>
      </trkpt>
      <trkpt lat="43.477734" lon="-3.788822">
        <time>2021-08-20T18:59:07Z</time>
      </trkpt>
      <trkpt lat="43.477273" lon="-3.788684">
        <time>2021-08-20T18:59:13Z</time>
      </trkpt>
      <trkpt lat="43.477092" lon="-3.788651">
        <time>2021-08-20T18:59:16Z</time>
      </trkpt>
      <trkpt lat="43.476928" lon="-3.788626">
        <time>2021-08-20T18:59:19Z</time>
      </trkpt>
      <trkpt lat="43.476478" lon="-3.788575">
        <time>2021-08-20T18:59:28Z</time>
      </trkpt>
      <trkpt lat="43.475973" lon="-3.788676">
        <time>2021-08-20T18:59:37Z</time>
      </trkpt>
      <trkpt lat="43.475874" lon="-3.788559">
        <time>2021-08-20T18:59:40Z</time>
      </trkpt>
      <trkpt lat="43.475788" lon="-3.788312">
        <time>2021-08-20T18:59:43Z</time>
      </trkpt>
      <trkpt lat="43.475719" lon="-3.788015">
        <time>2021-08-20T18:59:46Z</time>
      </trkpt>
      <trkpt lat="43.475591" lon="-3.787644">
        <time>2021-08-20T18:59:52Z</time>
      </trkpt>
      <trkpt lat="43.475493" lon="-3.787755">
        <time>2021-08-20T18:59:55Z</time>
      </trkpt>
      <trkpt lat="43.474945" lon="-3.789068">
        <time>2021-08-20T19:00:22Z</time>
      </trkpt>
      <trkpt lat="43.474835" lon="-3.789026">
        <time>2021-08-20T19:00:25Z</time>
      </trkpt>
      <trkpt lat="43.473604" lon="-3.788399">
        <time>2021-08-20T19:01:13Z</time>
      </trkpt>
      <trkpt lat="43.473328" lon="-3.788505">
        <time>2021-08-20T19:01:19Z</time>
      </trkpt>
      <trkpt lat="43.472862" lon="-3.790367">
        <time>2021-08-20T19:01:34Z</time>
      </trkpt>
      <trkpt lat="43.472689" lon="-3.791081">
        <time>2021-08-20T19:01:40Z</time>
      </trkpt>
      <trkpt lat="43.472454" lon="-3.792033">
        <time>2021-08-20T19:01:49Z</time>
      </trkpt>
      <trkpt lat="43.472364" lon="-3.792673">
        <time>2021-08-20T19:01:58Z</time>
      </trkpt>
      <trkpt lat="43.472421" lon="-3.793166">
        <time>2021-08-20T19:02:04Z</time>
      </trkpt>
      <trkpt lat="43.472276" lon="-3.793308">
        <time>2021-08-20T19:02:07Z</time>
      </trkpt>
      <trkpt lat="43.471765" lon="-3.793328">
        <time>2021-08-20T19:02:13Z</time>
      </trkpt>
      <trkpt lat="43.465537" lon="-3.796677">
        <time>2021-08-20T19:03:18Z</time>
      </trkpt>
      <trkpt lat="43.465431" lon="-3.796766">
        <time>2021-08-20T19:03:21Z</time>
      </trkpt>
      <trkpt lat="43.465369" lon="-3.797032">
        <time>2021-08-20T19:03:27Z</time>
      </trkpt>
      <trkpt lat="43.465286" lon="-3.798179">
        <time>2021-08-20T19:03:51Z</time>
      </trkpt>
      <trkpt lat="43.465255" lon="-3.79824">
        <time>2021-08-20T19:03:54Z</time>
      </trkpt>
      <trkpt lat="43.46474" lon="-3.798956">
        <time>2021-08-20T19:04:18Z</time>
      </trkpt>
      <trkpt lat="43.464726" lon="-3.799072">
        <time>2021-08-20T19:04:21Z</time>
      </trkpt>
      <trkpt lat="43.464662" lon="-3.799274">
        <time>2021-08-20T19:04:27Z</time>
      </trkpt>
      <trkpt lat="43.464579" lon="-3.799414">
        <time>2021-08-20T19:04:33Z</time>
      </trkpt>
      <trkpt lat="43.464065" lon="-3.799635">
        <time>2021-08-20T19:04:51Z</time>
      </trkpt>
      <trkpt lat="43.463792" lon="-3.799638">
        <time>2021-08-20T19:04:57Z</time>
      </trkpt>
      <trkpt lat="43.46333" lon="-3.799584">
        <time>2021-08-20T19:05:27Z</time>
      </trkpt>
      <trkpt lat="43.462777" lon="-3.799491">
        <time>2021-08-20T19:06:24Z</time>
      </trkpt>
      <trkpt lat="43.462494" lon="-3.799304">
        <time>2021-08-20T19:06:33Z</time>
      </trkpt>
      <trkpt lat="43.462381" lon="-3.799276">
        <time>2021-08-20T19:06:36Z</time>
      </trkpt>
      <trkpt lat="43.462325" lon="-3.797672">
        <time>2021-08-20T19:07:03Z</time>
      </trkpt>
      <trkpt lat="43.462286" lon="-3.798113">
        <time>2021-08-20T19:07:21Z</time>
      </trkpt>
      <trkpt lat="43.462085" lon="-3.799347">
        <time>2021-08-20T19:07:39Z</time>
      </trkpt>
      <trkpt lat="43.46181" lon="-3.802151">
        <time>2021-08-20T19:08:15Z</time>
      </trkpt>
      <trkpt lat="43.461771" lon="-3.802268">
        <time>2021-08-20T19:08:18Z</time>
      </trkpt>
      <trkpt lat="43.461722" lon="-3.802305">
        <time>2021-08-20T19:08:21Z</time>
      </trkpt>
      <trkpt lat="43.461595" lon="-3.802358">
        <time>2021-08-20T19:08:24Z</time>
      </trkpt>
      <trkpt lat="43.461595" lon="-3.802358">
        <time>2021-08-20T19:08:24Z</time>
      </trkpt>
      <trkpt lat="43.461415" lon="-3.802612">
        <time>2021-08-20T19:08:27Z</time>
      </trkpt>
      <trkpt lat="43.458896" lon="-3.807751">
        <time>2021-08-20T19:09:08Z</time>
      </trkpt>
      <trkpt lat="43.458709" lon="-3.808112">
        <time>2021-08-20T19:09:11Z</time>
      </trkpt>
      <trkpt lat="43.458489" lon="-3.808725">
        <time>2021-08-20T19:09:17Z</time>
      </trkpt>
      <trkpt lat="43.458438" lon="-3.808999">
        <time>2021-08-20T19:09:20Z</time>
      </trkpt>
      <trkpt lat="43.458296" lon="-3.809475">
        <time>2021-08-20T19:09:26Z</time>
      </trkpt>
      <trkpt lat="43.458165" lon="-3.809832">
        <time>2021-08-20T19:09:32Z</time>
      </trkpt>
      <trkpt lat="43.458181" lon="-3.810135">
        <time>2021-08-20T19:09:35Z</time>
      </trkpt>
      <trkpt lat="43.458021" lon="-3.811009">
        <time>2021-08-20T19:09:41Z</time>
      </trkpt>
      <trkpt lat="43.45805" lon="-3.811666">
        <time>2021-08-20T19:09:47Z</time>
      </trkpt>
      <trkpt lat="43.458038" lon="-3.812028">
        <time>2021-08-20T19:09:50Z</time>
      </trkpt>
      <trkpt lat="43.457958" lon="-3.812747">
        <time>2021-08-20T19:09:56Z</time>
      </trkpt>
      <trkpt lat="43.457836" lon="-3.813355">
        <time>2021-08-20T19:10:02Z</time>
      </trkpt>
      <trkpt lat="43.457699" lon="-3.813743">
        <time>2021-08-20T19:10:05Z</time>
      </trkpt>
      <trkpt lat="43.455439" lon="-3.818162">
        <time>2021-08-20T19:10:38Z</time>
      </trkpt>
      <trkpt lat="43.455121" lon="-3.818866">
        <time>2021-08-20T19:10:44Z</time>
      </trkpt>
      <trkpt lat="43.45507" lon="-3.819212">
        <time>2021-08-20T19:10:47Z</time>
      </trkpt>
      <trkpt lat="43.454897" lon="-3.820039">
        <time>2021-08-20T19:10:56Z</time>
      </trkpt>
      <trkpt lat="43.45469" lon="-3.82048">
        <time>2021-08-20T19:11:02Z</time>
      </trkpt>
      <trkpt lat="43.453323" lon="-3.824534">
        <time>2021-08-20T19:11:35Z</time>
      </trkpt>
      <trkpt lat="43.453074" lon="-3.824788">
        <time>2021-08-20T19:11:38Z</time>
      </trkpt>
      <trkpt lat="43.452407" lon="-3.825179">
        <time>2021-08-20T19:11:44Z</time>
      </trkpt>
      <trkpt lat="43.452159" lon="-3.825626">
        <time>2021-08-20T19:11:47Z</time>
      </trkpt>
      <trkpt lat="43.451035" lon="-3.828965">
        <time>2021-08-20T19:12:06Z</time>
      </trkpt>
      <trkpt lat="43.450725" lon="-3.829426">
        <time>2021-08-20T19:12:09Z</time>
      </trkpt>
      <trkpt lat="43.450322" lon="-3.829785">
        <time>2021-08-20T19:12:12Z</time>
      </trkpt>
      <trkpt lat="43.446631" lon="-3.832634">
        <time>2021-08-20T19:12:39Z</time>
      </trkpt>
      <trkpt lat="43.442494" lon="-3.835735">
        <time>2021-08-20T19:13:06Z</time>
      </trkpt>
      <trkpt lat="43.441362" lon="-3.836946">
        <time>2021-08-20T19:13:15Z</time>
      </trkpt>
      <trkpt lat="43.440038" lon="-3.839748">
        <time>2021-08-20T19:13:51Z</time>
      </trkpt>
      <trkpt lat="43.440006" lon="-3.840857">
        <time>2021-08-20T19:13:57Z</time>
      </trkpt>
      <trkpt lat="43.440027" lon="-3.841726">
        <time>2021-08-20T19:14:03Z</time>
      </trkpt>
      <trkpt lat="43.440007" lon="-3.842223">
        <time>2021-08-20T19:14:09Z</time>
      </trkpt>
      <trkpt lat="43.439932" lon="-3.844557">
        <time>2021-08-20T19:14:30Z</time>
      </trkpt>
      <trkpt lat="43.439873" lon="-3.84529">
        <time>2021-08-20T19:14:36Z</time>
      </trkpt>
      <trkpt lat="43.439951" lon="-3.845831">
        <time>2021-08-20T19:14:39Z</time>
      </trkpt>
      <trkpt lat="43.440205" lon="-3.846648">
        <time>2021-08-20T19:14:45Z</time>
      </trkpt>
      <trkpt lat="43.440361" lon="-3.846845">
        <time>2021-08-20T19:14:48Z</time>
      </trkpt>
      <trkpt lat="43.440412" lon="-3.8471">
        <time>2021-08-20T19:14:51Z</time>
      </trkpt>
      <trkpt lat="43.440665" lon="-3.847995">
        <time>2021-08-20T19:14:57Z</time>
      </trkpt>
      <trkpt lat="43.442484" lon="-3.852462">
        <time>2021-08-20T19:15:24Z</time>
      </trkpt>
      <trkpt lat="43.442912" lon="-3.853234">
        <time>2021-08-20T19:15:30Z</time>
      </trkpt>
      <trkpt lat="43.44322" lon="-3.853661">
        <time>2021-08-20T19:15:36Z</time>
      </trkpt>
      <trkpt lat="43.443182" lon="-3.853943">
        <time>2021-08-20T19:15:39Z</time>
      </trkpt>
      <trkpt lat="43.443138" lon="-3.854486">
        <time>2021-08-20T19:15:48Z</time>
      </trkpt>
      <trkpt lat="43.443628" lon="-3.85663">
        <time>2021-08-20T19:16:15Z</time>
      </trkpt>
      <trkpt lat="43.443725" lon="-3.856774">
        <time>2021-08-20T19:16:18Z</time>
      </trkpt>
      <trkpt lat="43.443653" lon="-3.856918">
        <time>2021-08-20T19:16:21Z</time>
      </trkpt>
      <trkpt lat="43.442923" lon="-3.857547">
        <time>2021-08-20T19:16:30Z</time>
      </trkpt>
      <trkpt lat="43.439066" lon="-3.861046">
        <time>2021-08-20T19:17:00Z</time>
      </trkpt>
      <trkpt lat="43.438069" lon="-3.86147">
        <time>2021-08-20T19:17:06Z</time>
      </trkpt>
      <trkpt lat="43.43661" lon="-3.861177">
        <time>2021-08-20T19:17:15Z</time>
      </trkpt>
      <trkpt lat="43.435885" lon="-3.860448">
        <time>2021-08-20T19:17:21Z</time>
      </trkpt>
      <trkpt lat="43.435108" lon="-3.858853">
        <time>2021-08-20T19:17:30Z</time>
      </trkpt>
      <trkpt lat="43.434253" lon="-3.857258">
        <time>2021-08-20T19:17:39Z</time>
      </trkpt>
      <trkpt lat="43.433414" lon="-3.856665">
        <time>2021-08-20T19:17:45Z</time>
      </trkpt>
      <trkpt lat="43.43247" lon="-3.85659">
        <time>2021-08-20T19:17:51Z</time>
      </trkpt>
      <trkpt lat="43.431285" lon="-3.856751">
        <time>2021-08-20T19:18:00Z</time>
      </trkpt>
      <trkpt lat="43.428596" lon="-3.856701">
        <time>2021-08-20T19:18:33Z</time>
      </trkpt>
      <trkpt lat="43.428423" lon="-3.856618">
        <time>2021-08-20T19:18:36Z</time>
      </trkpt>
      <trkpt lat="43.427359" lon="-3.856534">
        <time>2021-08-20T19:18:45Z</time>
      </trkpt>
      <trkpt lat="43.426579" lon="-3.85656">
        <time>2021-08-20T19:18:51Z</time>
      </trkpt>
      <trkpt lat="43.425588" lon="-3.856455">
        <time>2021-08-20T19:19:03Z</time>
      </trkpt>
      <trkpt lat="43.425434" lon="-3.855731">
        <time>2021-08-20T19:19:09Z</time>
      </trkpt>
      <trkpt lat="43.424185" lon="-3.853592">
        <time>2021-08-20T19:19:24Z</time>
      </trkpt>
      <trkpt lat="43.423162" lon="-3.85265">
        <time>2021-08-20T19:19:33Z</time>
      </trkpt>
      <trkpt lat="43.422557" lon="-3.851996">
        <time>2021-08-20T19:19:39Z</time>
      </trkpt>
      <trkpt lat="43.422431" lon="-3.85172">
        <time>2021-08-20T19:19:42Z</time>
      </trkpt>
      <trkpt lat="43.422355" lon="-3.851337">
        <time>2021-08-20T19:19:45Z</time>
      </trkpt>
      <trkpt lat="43.422159" lon="-3.849721">
        <time>2021-08-20T19:19:57Z</time>
      </trkpt>
      <trkpt lat="43.421784" lon="-3.848982">
        <time>2021-08-20T19:20:03Z</time>
      </trkpt>
      <trkpt lat="43.42089" lon="-3.847518">
        <time>2021-08-20T19:20:15Z</time>
      </trkpt>
      <trkpt lat="43.420337" lon="-3.846622">
        <time>2021-08-20T19:20:24Z</time>
      </trkpt>
      <trkpt lat="43.420105" lon="-3.846458">
        <time>2021-08-20T19:20:30Z</time>
      </trkpt>
      <trkpt lat="43.41797" lon="-3.845533">
        <time>2021-08-20T19:21:54Z</time>
      </trkpt>
      <trkpt lat="43.41783" lon="-3.845469">
        <time>2021-08-20T19:22:06Z</time>
      </trkpt>
      <trkpt lat="43.416533" lon="-3.844996">
        <time>2021-08-20T19:22:18Z</time>
      </trkpt>
      <trkpt lat="43.412321" lon="-3.843498">
        <time>2021-08-20T19:23:00Z</time>
      </trkpt>
      <trkpt lat="43.412124" lon="-3.843496">
        <time>2021-08-20T19:23:03Z</time>
      </trkpt>
      <trkpt lat="43.412124" lon="-3.843496">
        <time>2021-08-20T19:23:03Z</time>
      </trkpt>
      <trkpt lat="43.411989" lon="-3.843333">
        <time>2021-08-20T19:23:06Z</time>
      </trkpt>
      <trkpt lat="43.411815" lon="-3.843109">
        <time>2021-08-20T19:23:09Z</time>
      </trkpt>
      <trkpt lat="43.409962" lon="-3.842154">
        <time>2021-08-20T19:23:27Z</time>
      </trkpt>
      <trkpt lat="43.407985" lon="-3.842354">
        <time>2021-08-20T19:23:42Z</time>
      </trkpt>
      <trkpt lat="43.407661" lon="-3.842188">
        <time>2021-08-20T19:23:45Z</time>
      </trkpt>
      <trkpt lat="43.407661" lon="-3.842188">
        <time>2021-08-20T19:23:45Z</time>
      </trkpt>
      <trkpt lat="43.407387" lon="-3.841912">
        <time>2021-08-20T19:23:48Z</time>
      </trkpt>
      <trkpt lat="43.406131" lon="-3.839825">
        <time>2021-08-20T19:24:06Z</time>
      </trkpt>
      <trkpt lat="43.406001" lon="-3.839376">
        <time>2021-08-20T19:24:09Z</time>
      </trkpt>
      <trkpt lat="43.405649" lon="-3.838052">
        <time>2021-08-20T19:24:18Z</time>
      </trkpt>
      <trkpt lat="43.405291" lon="-3.83756">
        <time>2021-08-20T19:24:24Z</time>
      </trkpt>
      <trkpt lat="43.40514" lon="-3.837342">
        <time>2021-08-20T19:24:27Z</time>
      </trkpt>
      <trkpt lat="43.405138" lon="-3.837024">
        <time>2021-08-20T19:24:30Z</time>
      </trkpt>
      <trkpt lat="43.405106" lon="-3.836625">
        <time>2021-08-20T19:24:33Z</time>
      </trkpt>
      <trkpt lat="43.404262" lon="-3.831983">
        <time>2021-08-20T19:25:00Z</time>
      </trkpt>
      <trkpt lat="43.404001" lon="-3.831584">
        <time>2021-08-20T19:25:03Z</time>
      </trkpt>
      <trkpt lat="43.403725" lon="-3.831243">
        <time>2021-08-20T19:25:06Z</time>
      </trkpt>
      <trkpt lat="43.403233" lon="-3.830037">
        <time>2021-08-20T19:25:15Z</time>
      </trkpt>
      <trkpt lat="43.403104" lon="-3.829587">
        <time>2021-08-20T19:25:18Z</time>
      </trkpt>
      <trkpt lat="43.401131" lon="-3.826253">
        <time>2021-08-20T19:25:51Z</time>
      </trkpt>
      <trkpt lat="43.400647" lon="-3.824731">
        <time>2021-08-20T19:26:06Z</time>
      </trkpt>
      <trkpt lat="43.399821" lon="-3.823142">
        <time>2021-08-20T19:26:24Z</time>
      </trkpt>
      <trkpt lat="43.398312" lon="-3.821265">
        <time>2021-08-20T19:26:51Z</time>
      </trkpt>
      <trkpt lat="43.39813" lon="-3.820972">
        <time>2021-08-20T19:26:54Z</time>
      </trkpt>
      <trkpt lat="43.395497" lon="-3.816354">
        <time>2021-08-20T19:28:00Z</time>
      </trkpt>
      <trkpt lat="43.395184" lon="-3.815978">
        <time>2021-08-20T19:28:06Z</time>
      </trkpt>
      <trkpt lat="43.394713" lon="-3.815707">
        <time>2021-08-20T19:28:15Z</time>
      </trkpt>
      <trkpt lat="43.394053" lon="-3.815467">
        <time>2021-08-20T19:28:24Z</time>
      </trkpt>
      <trkpt lat="43.391283" lon="-3.814559">
        <time>2021-08-20T19:28:51Z</time>
      </trkpt>
      <trkpt lat="43.391084" lon="-3.814538">
        <time>2021-08-20T19:28:54Z</time>
      </trkpt>
      <trkpt lat="43.391084" lon="-3.814538">
        <time>2021-08-20T19:28:54Z</time>
      </trkpt>
      <trkpt lat="43.390975" lon="-3.814348">
        <time>2021-08-20T19:28:57Z</time>
      </trkpt>
      <trkpt lat="43.391061" lon="-3.814142">
        <time>2021-08-20T19:29:00Z</time>
      </trkpt>
      <trkpt lat="43.391376" lon="-3.813567">
        <time>2021-08-20T19:29:06Z</time>
      </trkpt>
      <trkpt lat="43.391373" lon="-3.810394">
        <time>2021-08-20T19:29:24Z</time>
      </trkpt>
      <trkpt lat="43.391543" lon="-3.809902">
        <time>2021-08-20T19:29:27Z</time>
      </trkpt>
      <trkpt lat="43.392117" lon="-3.808393">
        <time>2021-08-20T19:29:36Z</time>
      </trkpt>
      <trkpt lat="43.393612" lon="-3.802181">
        <time>2021-08-20T19:30:12Z</time>
      </trkpt>
      <trkpt lat="43.394907" lon="-3.796055">
        <time>2021-08-20T19:30:45Z</time>
      </trkpt>
      <trkpt lat="43.396225" lon="-3.78984">
        <time>2021-08-20T19:31:18Z</time>
      </trkpt>
      <trkpt lat="43.396225" lon="-3.78984">
        <time>2021-08-20T19:31:18Z</time>
      </trkpt>
      <trkpt lat="43.396225" lon="-3.78984">
        <time>2021-08-20T19:31:18Z</time>
      </trkpt>
      <trkpt lat="43.396225" lon="-3.78984">
        <time>2021-08-20T19:31:18Z</time>
      </trkpt>
      <trkpt lat="43.396225" lon="-3.78984">
        <time>2021-08-20T19:31:18Z</time>
      </trkpt>
      <trkpt lat="43.396225" lon="-3.78984">
        <time>2021-08-20T19:31:18Z</time>
      </trkpt>
      <trkpt lat="43.397472" lon="-3.783815">
        <time>2021-08-20T19:31:54Z</time>
      </trkpt>
      <trkpt lat="43.39865" lon="-3.777559">
        <time>2021-08-20T19:32:27Z</time>
      </trkpt>
      <trkpt lat="43.39865" lon="-3.777559">
        <time>2021-08-20T19:32:27Z</time>
      </trkpt>
      <trkpt lat="43.398634" lon="-3.77616">
        <time>2021-08-20T19:32:33Z</time>
      </trkpt>
      <trkpt lat="43.39827" lon="-3.774173">
        <time>2021-08-20T19:32:42Z</time>
      </trkpt>
      <trkpt lat="43.397385" lon="-3.77168">
        <time>2021-08-20T19:32:54Z</time>
      </trkpt>
      <trkpt lat="43.396568" lon="-3.768584">
        <time>2021-08-20T19:33:09Z</time>
      </trkpt>
      <trkpt lat="43.396327" lon="-3.765541">
        <time>2021-08-20T19:33:27Z</time>
      </trkpt>
      <trkpt lat="43.395977" lon="-3.764001">
        <time>2021-08-20T19:33:42Z</time>
      </trkpt>
      <trkpt lat="43.395539" lon="-3.763602">
        <time>2021-08-20T19:33:48Z</time>
      </trkpt>
      <trkpt lat="43.395288" lon="-3.763566">
        <time>2021-08-20T19:33:51Z</time>
      </trkpt>
      <trkpt lat="43.395063" lon="-3.763618">
        <time>2021-08-20T19:33:54Z</time>
      </trkpt>
      <trkpt lat="43.394237" lon="-3.763961">
        <time>2021-08-20T19:34:06Z</time>
      </trkpt>
      <trkpt lat="43.393241" lon="-3.763887">
        <time>2021-08-20T19:34:15Z</time>
      </trkpt>
      <trkpt lat="43.392856" lon="-3.763731">
        <time>2021-08-20T19:34:18Z</time>
      </trkpt>
      <trkpt lat="43.389538" lon="-3.760215">
        <time>2021-08-20T19:34:45Z</time>
      </trkpt>
      <trkpt lat="43.389307" lon="-3.75962">
        <time>2021-08-20T19:34:48Z</time>
      </trkpt>
      <trkpt lat="43.389307" lon="-3.75962">
        <time>2021-08-20T19:34:48Z</time>
      </trkpt>
      <trkpt lat="43.389294" lon="-3.75898">
        <time>2021-08-20T19:34:51Z</time>
      </trkpt>
      <trkpt lat="43.389523" lon="-3.755724">
        <time>2021-08-20T19:35:06Z</time>
      </trkpt>
      <trkpt lat="43.389243" lon="-3.754055">
        <time>2021-08-20T19:35:15Z</time>
      </trkpt>
      <trkpt lat="43.38892" lon="-3.753753">
        <time>2021-08-20T19:35:18Z</time>
      </trkpt>
      <trkpt lat="43.38892" lon="-3.753753">
        <time>2021-08-20T19:35:18Z</time>
      </trkpt>
      <trkpt lat="43.388331" lon="-3.753268">
        <time>2021-08-20T19:35:24Z</time>
      </trkpt>
      <trkpt lat="43.388182" lon="-3.752876">
        <time>2021-08-20T19:35:27Z</time>
      </trkpt>
      <trkpt lat="43.388416" lon="-3.748969">
        <time>2021-08-20T19:35:48Z</time>
      </trkpt>
      <trkpt lat="43.388585" lon="-3.747997">
        <time>2021-08-20T19:35:57Z</time>
      </trkpt>
      <trkpt lat="43.388585" lon="-3.747997">
        <time>2021-08-20T19:35:57Z</time>
      </trkpt>
      <trkpt lat="43.387878" lon="-3.747302">
        <time>2021-08-20T19:36:06Z</time>
      </trkpt>
      <trkpt lat="43.385946" lon="-3.743259">
        <time>2021-08-20T19:36:33Z</time>
      </trkpt>
      <trkpt lat="43.385751" lon="-3.743055">
        <time>2021-08-20T19:36:36Z</time>
      </trkpt>
      <trkpt lat="43.385751" lon="-3.743055">
        <time>2021-08-20T19:36:36Z</time>
      </trkpt>
      <trkpt lat="43.3856" lon="-3.742357">
        <time>2021-08-20T19:36:42Z</time>
      </trkpt>
      <trkpt lat="43.383937" lon="-3.738394">
        <time>2021-08-20T19:37:36Z</time>
      </trkpt>
      <trkpt lat="43.383864" lon="-3.738128">
        <time>2021-08-20T19:37:45Z</time>
      </trkpt>
      <trkpt lat="43.383749" lon="-3.737919">
        <time>2021-08-20T19:37:51Z</time>
      </trkpt>
      <trkpt lat="43.383892" lon="-3.737519">
        <time>2021-08-20T19:37:57Z</time>
      </trkpt>
      <trkpt lat="43.384295" lon="-3.736861">
        <time>2021-08-20T19:38:06Z</time>
      </trkpt>
      <trkpt lat="43.38518" lon="-3.7341">
        <time>2021-08-20T19:38:42Z</time>
      </trkpt>
      <trkpt lat="43.385704" lon="-3.73242">
        <time>2021-08-20T19:39:03Z</time>
      </trkpt>
      <trkpt lat="43.385699" lon="-3.731834">
        <time>2021-08-20T19:39:15Z</time>
      </trkpt>
      <trkpt lat="43.385713" lon="-3.731719">
        <time>2021-08-20T19:39:21Z</time>
      </trkpt>
      <trkpt lat="43.38576" lon="-3.731694">
        <time>2021-08-20T19:40:03Z</time>
      </trkpt>
      <trkpt lat="43.385794" lon="-3.731544">
        <time>2021-08-20T19:40:27Z</time>
      </trkpt>
      <trkpt lat="43.385939" lon="-3.73142">
        <time>2021-08-20T19:40:33Z</time>
      </trkpt>
      <trkpt lat="43.386955" lon="-3.731337">
        <time>2021-08-20T19:40:45Z</time>
      </trkpt>
      <trkpt lat="43.387925" lon="-3.730962">
        <time>2021-08-20T19:40:54Z</time>
      </trkpt>
      <trkpt lat="43.388958" lon="-3.731117">
        <time>2021-08-20T19:41:03Z</time>
      </trkpt>
      <trkpt lat="43.390126" lon="-3.730797">
        <time>2021-08-20T19:41:12Z</time>
      </trkpt>
      <trkpt lat="43.393176" lon="-3.730318">
        <time>2021-08-20T19:41:33Z</time>
      </trkpt>
      <trkpt lat="43.394579" lon="-3.730755">
        <time>2021-08-20T19:41:42Z</time>
      </trkpt>
      <trkpt lat="43.39631" lon="-3.731384">
        <time>2021-08-20T19:41:54Z</time>
      </trkpt>
      <trkpt lat="43.397515" lon="-3.733078">
        <time>2021-08-20T19:42:09Z</time>
      </trkpt>
      <trkpt lat="43.39766" lon="-3.733041">
        <time>2021-08-20T19:42:12Z</time>
      </trkpt>
      <trkpt lat="43.397782" lon="-3.73278">
        <time>2021-08-20T19:42:15Z</time>
      </trkpt>
      <trkpt lat="43.39818" lon="-3.732026">
        <time>2021-08-20T19:42:21Z</time>
      </trkpt>
      <trkpt lat="43.399344" lon="-3.72977">
        <time>2021-08-20T19:42:36Z</time>
      </trkpt>
      <trkpt lat="43.401635" lon="-3.727278">
        <time>2021-08-20T19:42:54Z</time>
      </trkpt>
      <trkpt lat="43.40382" lon="-3.724502">
        <time>2021-08-20T19:43:12Z</time>
      </trkpt>
      <trkpt lat="43.404629" lon="-3.722121">
        <time>2021-08-20T19:43:24Z</time>
      </trkpt>
      <trkpt lat="43.404629" lon="-3.722121">
        <time>2021-08-20T19:43:24Z</time>
      </trkpt>
      <trkpt lat="43.404702" lon="-3.720994">
        <time>2021-08-20T19:43:30Z</time>
      </trkpt>
      <trkpt lat="43.40437" lon="-3.718866">
        <time>2021-08-20T19:43:42Z</time>
      </trkpt>
      <trkpt lat="43.404469" lon="-3.718254">
        <time>2021-08-20T19:43:45Z</time>
      </trkpt>
      <trkpt lat="43.40498" lon="-3.71717">
        <time>2021-08-20T19:43:51Z</time>
      </trkpt>
      <trkpt lat="43.405557" lon="-3.716176">
        <time>2021-08-20T19:43:57Z</time>
      </trkpt>
      <trkpt lat="43.406123" lon="-3.714867">
        <time>2021-08-20T19:44:06Z</time>
      </trkpt>
      <trkpt lat="43.406193" lon="-3.71378">
        <time>2021-08-20T19:44:15Z</time>
      </trkpt>
      <trkpt lat="43.406138" lon="-3.713633">
        <time>2021-08-20T19:44:30Z</time>
      </trkpt>
      <trkpt lat="43.406228" lon="-3.713382">
        <time>2021-08-20T19:44:33Z</time>
      </trkpt>
      <trkpt lat="43.406583" lon="-3.712299">
        <time>2021-08-20T19:44:42Z</time>
      </trkpt>
      <trkpt lat="43.407195" lon="-3.710417">
        <time>2021-08-20T19:44:51Z</time>
      </trkpt>
      <trkpt lat="43.407195" lon="-3.710417">
        <time>2021-08-20T19:44:51Z</time>
      </trkpt>
      <trkpt lat="43.407793" lon="-3.709469">
        <time>2021-08-20T19:44:57Z</time>
      </trkpt>
      <trkpt lat="43.408946" lon="-3.708424">
        <time>2021-08-20T19:45:06Z</time>
      </trkpt>
      <trkpt lat="43.411099" lon="-3.706993">
        <time>2021-08-20T19:45:21Z</time>
      </trkpt>
      <trkpt lat="43.412387" lon="-3.70661">
        <time>2021-08-20T19:45:30Z</time>
      </trkpt>
      <trkpt lat="43.413309" lon="-3.706951">
        <time>2021-08-20T19:45:36Z</time>
      </trkpt>
      <trkpt lat="43.414081" lon="-3.707798">
        <time>2021-08-20T19:45:42Z</time>
      </trkpt>
      <trkpt lat="43.41503" lon="-3.709563">
        <time>2021-08-20T19:45:51Z</time>
      </trkpt>
      <trkpt lat="43.415427" lon="-3.710049">
        <time>2021-08-20T19:45:54Z</time>
      </trkpt>
      <trkpt lat="43.41592" lon="-3.710324">
        <time>2021-08-20T19:45:57Z</time>
      </trkpt>
      <trkpt lat="43.416442" lon="-3.710336">
        <time>2021-08-20T19:46:00Z</time>
      </trkpt>
      <trkpt lat="43.416946" lon="-3.710085">
        <time>2021-08-20T19:46:03Z</time>
      </trkpt>
      <trkpt lat="43.419252" lon="-3.708053">
        <time>2021-08-20T19:46:18Z</time>
      </trkpt>
      <trkpt lat="43.419773" lon="-3.707781">
        <time>2021-08-20T19:46:21Z</time>
      </trkpt>
      <trkpt lat="43.421364" lon="-3.707979">
        <time>2021-08-20T19:46:30Z</time>
      </trkpt>
      <trkpt lat="43.423676" lon="-3.709372">
        <time>2021-08-20T19:46:51Z</time>
      </trkpt>
      <trkpt lat="43.423977" lon="-3.709425">
        <time>2021-08-20T19:46:54Z</time>
      </trkpt>
      <trkpt lat="43.42499" lon="-3.70941">
        <time>2021-08-20T19:47:21Z</time>
      </trkpt>
      <trkpt lat="43.425293" lon="-3.709604">
        <time>2021-08-20T19:47:24Z</time>
      </trkpt>
      <trkpt lat="43.426165" lon="-3.71097">
        <time>2021-08-20T19:47:33Z</time>
      </trkpt>
      <trkpt lat="43.427079" lon="-3.713373">
        <time>2021-08-20T19:47:45Z</time>
      </trkpt>
      <trkpt lat="43.427079" lon="-3.713373">
        <time>2021-08-20T19:47:45Z</time>
      </trkpt>
      <trkpt lat="43.427449" lon="-3.715297">
        <time>2021-08-20T19:47:54Z</time>
      </trkpt>
      <trkpt lat="43.427777" lon="-3.715804">
        <time>2021-08-20T19:47:57Z</time>
      </trkpt>
      <trkpt lat="43.428217" lon="-3.716151">
        <time>2021-08-20T19:48:00Z</time>
      </trkpt>
      <trkpt lat="43.428696" lon="-3.716303">
        <time>2021-08-20T19:48:03Z</time>
      </trkpt>
      <trkpt lat="43.430659" lon="-3.715816">
        <time>2021-08-20T19:48:15Z</time>
      </trkpt>
      <trkpt lat="43.430659" lon="-3.715816">
        <time>2021-08-20T19:48:15Z</time>
      </trkpt>
      <trkpt lat="43.43164" lon="-3.716074">
        <time>2021-08-20T19:48:21Z</time>
      </trkpt>
      <trkpt lat="43.433265" lon="-3.716145">
        <time>2021-08-20T19:48:30Z</time>
      </trkpt>
      <trkpt lat="43.435177" lon="-3.715552">
        <time>2021-08-20T19:48:42Z</time>
      </trkpt>
      <trkpt lat="43.437618" lon="-3.714781">
        <time>2021-08-20T19:49:00Z</time>
      </trkpt>
      <trkpt lat="43.439137" lon="-3.712575">
        <time>2021-08-20T19:49:21Z</time>
      </trkpt>
      <trkpt lat="43.441175" lon="-3.709579">
        <time>2021-08-20T19:49:48Z</time>
      </trkpt>
      <trkpt lat="43.442029" lon="-3.707822">
        <time>2021-08-20T19:50:00Z</time>
      </trkpt>
      <trkpt lat="43.442469" lon="-3.706805">
        <time>2021-08-20T19:50:09Z</time>
      </trkpt>
      <trkpt lat="43.442682" lon="-3.706475">
        <time>2021-08-20T19:50:12Z</time>
      </trkpt>
      <trkpt lat="43.444597" lon="-3.702583">
        <time>2021-08-20T19:50:36Z</time>
      </trkpt>
      <trkpt lat="43.447056" lon="-3.697137">
        <time>2021-08-20T19:51:12Z</time>
      </trkpt>
      <trkpt lat="43.44929" lon="-3.691707">
        <time>2021-08-20T19:51:42Z</time>
      </trkpt>
      <trkpt lat="43.44999" lon="-3.689864">
        <time>2021-08-20T19:51:51Z</time>
      </trkpt>
      <trkpt lat="43.450294" lon="-3.687825">
        <time>2021-08-20T19:52:00Z</time>
      </trkpt>
      <trkpt lat="43.450407" lon="-3.685762">
        <time>2021-08-20T19:52:09Z</time>
      </trkpt>
      <trkpt lat="43.451272" lon="-3.680664">
        <time>2021-08-20T19:52:33Z</time>
      </trkpt>
      <trkpt lat="43.45194" lon="-3.679692">
        <time>2021-08-20T19:52:39Z</time>
      </trkpt>
      <trkpt lat="43.452651" lon="-3.678851">
        <time>2021-08-20T19:52:45Z</time>
      </trkpt>
      <trkpt lat="43.455061" lon="-3.676671">
        <time>2021-08-20T19:53:03Z</time>
      </trkpt>
      <trkpt lat="43.455884" lon="-3.676213">
        <time>2021-08-20T19:53:09Z</time>
      </trkpt>
      <trkpt lat="43.460492" lon="-3.674269">
        <time>2021-08-20T19:53:42Z</time>
      </trkpt>
      <trkpt lat="43.46413" lon="-3.67314">
        <time>2021-08-20T19:54:09Z</time>
      </trkpt>
      <trkpt lat="43.464615" lon="-3.672563">
        <time>2021-08-20T19:54:18Z</time>
      </trkpt>
      <trkpt lat="43.464778" lon="-3.672188">
        <time>2021-08-20T19:54:21Z</time>
      </trkpt>
      <trkpt lat="43.465024" lon="-3.671809">
        <time>2021-08-20T19:54:24Z</time>
      </trkpt>
      <trkpt lat="43.465881" lon="-3.671152">
        <time>2021-08-20T19:54:33Z</time>
      </trkpt>
      <trkpt lat="43.466995" lon="-3.666888">
        <time>2021-08-20T19:54:54Z</time>
      </trkpt>
      <trkpt lat="43.468502" lon="-3.660859">
        <time>2021-08-20T19:55:21Z</time>
      </trkpt>
      <trkpt lat="43.470671" lon="-3.654934">
        <time>2021-08-20T19:55:48Z</time>
      </trkpt>
      <trkpt lat="43.470997" lon="-3.654218">
        <time>2021-08-20T19:55:51Z</time>
      </trkpt>
      <trkpt lat="43.472414" lon="-3.651666">
        <time>2021-08-20T19:56:03Z</time>
      </trkpt>
      <trkpt lat="43.47254" lon="-3.650132">
        <time>2021-08-20T19:56:09Z</time>
      </trkpt>
      <trkpt lat="43.472837" lon="-3.649371">
        <time>2021-08-20T19:56:12Z</time>
      </trkpt>
      <trkpt lat="43.472837" lon="-3.649371">
        <time>2021-08-20T19:56:12Z</time>
      </trkpt>
      <trkpt lat="43.473242" lon="-3.647864">
        <time>2021-08-20T19:56:18Z</time>
      </trkpt>
      <trkpt lat="43.473015" lon="-3.647149">
        <time>2021-08-20T19:56:21Z</time>
      </trkpt>
      <trkpt lat="43.472524" lon="-3.646715">
        <time>2021-08-20T19:56:24Z</time>
      </trkpt>
      <trkpt lat="43.471298" lon="-3.646675">
        <time>2021-08-20T19:56:30Z</time>
      </trkpt>
      <trkpt lat="43.470751" lon="-3.646335">
        <time>2021-08-20T19:56:33Z</time>
      </trkpt>
      <trkpt lat="43.470411" lon="-3.645669">
        <time>2021-08-20T19:56:36Z</time>
      </trkpt>
      <trkpt lat="43.470342" lon="-3.644827">
        <time>2021-08-20T19:56:39Z</time>
      </trkpt>
      <trkpt lat="43.469931" lon="-3.638881">
        <time>2021-08-20T19:56:57Z</time>
      </trkpt>
      <trkpt lat="43.470059" lon="-3.637954">
        <time>2021-08-20T19:57:00Z</time>
      </trkpt>
      <trkpt lat="43.47214" lon="-3.633495">
        <time>2021-08-20T19:57:15Z</time>
      </trkpt>
      <trkpt lat="43.47245" lon="-3.632541">
        <time>2021-08-20T19:57:18Z</time>
      </trkpt>
      <trkpt lat="43.472514" lon="-3.631558">
        <time>2021-08-20T19:57:21Z</time>
      </trkpt>
      <trkpt lat="43.472581" lon="-3.628934">
        <time>2021-08-20T19:57:30Z</time>
      </trkpt>
      <trkpt lat="43.472853" lon="-3.62741">
        <time>2021-08-20T19:57:36Z</time>
      </trkpt>
      <trkpt lat="43.472727" lon="-3.626608">
        <time>2021-08-20T19:57:39Z</time>
      </trkpt>
      <trkpt lat="43.472755" lon="-3.6258">
        <time>2021-08-20T19:57:42Z</time>
      </trkpt>
      <trkpt lat="43.47309" lon="-3.624116">
        <time>2021-08-20T19:57:48Z</time>
      </trkpt>
      <trkpt lat="43.472897" lon="-3.621355">
        <time>2021-08-20T19:57:57Z</time>
      </trkpt>
      <trkpt lat="43.472634" lon="-3.620514">
        <time>2021-08-20T19:58:00Z</time>
      </trkpt>
      <trkpt lat="43.472401" lon="-3.617806">
        <time>2021-08-20T19:58:09Z</time>
      </trkpt>
      <trkpt lat="43.47274" lon="-3.616912">
        <time>2021-08-20T19:58:12Z</time>
      </trkpt>
      <trkpt lat="43.473446" lon="-3.615331">
        <time>2021-08-20T19:58:18Z</time>
      </trkpt>
      <trkpt lat="43.473452" lon="-3.614487">
        <time>2021-08-20T19:58:21Z</time>
      </trkpt>
      <trkpt lat="43.473452" lon="-3.614487">
        <time>2021-08-20T19:58:21Z</time>
      </trkpt>
      <trkpt lat="43.473155" lon="-3.612817">
        <time>2021-08-20T19:58:27Z</time>
      </trkpt>
      <trkpt lat="43.473287" lon="-3.611939">
        <time>2021-08-20T19:58:30Z</time>
      </trkpt>
      <trkpt lat="43.474176" lon="-3.608558">
        <time>2021-08-20T19:58:42Z</time>
      </trkpt>
      <trkpt lat="43.474755" lon="-3.602232">
        <time>2021-08-20T19:59:06Z</time>
      </trkpt>
      <trkpt lat="43.474223" lon="-3.597794">
        <time>2021-08-20T19:59:24Z</time>
      </trkpt>
      <trkpt lat="43.473835" lon="-3.595746">
        <time>2021-08-20T19:59:33Z</time>
      </trkpt>
      <trkpt lat="43.472089" lon="-3.589584">
        <time>2021-08-20T20:00:00Z</time>
      </trkpt>
      <trkpt lat="43.471586" lon="-3.586996">
        <time>2021-08-20T20:00:12Z</time>
      </trkpt>
      <trkpt lat="43.471393" lon="-3.583441">
        <time>2021-08-20T20:00:30Z</time>
      </trkpt>
      <trkpt lat="43.47113" lon="-3.57855">
        <time>2021-08-20T20:00:57Z</time>
      </trkpt>
      <trkpt lat="43.470892" lon="-3.577086">
        <time>2021-08-20T20:01:06Z</time>
      </trkpt>
      <trkpt lat="43.469896" lon="-3.571022">
        <time>2021-08-20T20:01:39Z</time>
      </trkpt>
      <trkpt lat="43.46984" lon="-3.569722">
        <time>2021-08-20T20:01:48Z</time>
      </trkpt>
      <trkpt lat="43.469839" lon="-3.566089">
        <time>2021-08-20T20:02:12Z</time>
      </trkpt>
      <trkpt lat="43.469742" lon="-3.564777">
        <time>2021-08-20T20:02:21Z</time>
      </trkpt>
      <trkpt lat="43.469505" lon="-3.558057">
        <time>2021-08-20T20:03:03Z</time>
      </trkpt>
      <trkpt lat="43.468859" lon="-3.551924">
        <time>2021-08-20T20:03:30Z</time>
      </trkpt>
      <trkpt lat="43.467687" lon="-3.545263">
        <time>2021-08-20T20:03:54Z</time>
      </trkpt>
      <trkpt lat="43.467338" lon="-3.543945">
        <time>2021-08-20T20:04:00Z</time>
      </trkpt>
      <trkpt lat="43.466095" lon="-3.538902">
        <time>2021-08-20T20:04:24Z</time>
      </trkpt>
      <trkpt lat="43.465036" lon="-3.53495">
        <time>2021-08-20T20:04:54Z</time>
      </trkpt>
      <trkpt lat="43.464911" lon="-3.534827">
        <time>2021-08-20T20:04:57Z</time>
      </trkpt>
      <trkpt lat="43.464829" lon="-3.534823">
        <time>2021-08-20T20:05:00Z</time>
      </trkpt>
      <trkpt lat="43.463961" lon="-3.536239">
        <time>2021-08-20T20:05:12Z</time>
      </trkpt>
      <trkpt lat="43.460891" lon="-3.540306">
        <time>2021-08-20T20:05:48Z</time>
      </trkpt>
      <trkpt lat="43.460687" lon="-3.540116">
        <time>2021-08-20T20:05:51Z</time>
      </trkpt>
      <trkpt lat="43.460687" lon="-3.540116">
        <time>2021-08-20T20:05:51Z</time>
      </trkpt>
      <trkpt lat="43.458884" lon="-3.53765">
        <time>2021-08-20T20:06:09Z</time>
      </trkpt>
      <trkpt lat="43.458433" lon="-3.536923">
        <time>2021-08-20T20:06:18Z</time>
      </trkpt>
      <trkpt lat="43.457658" lon="-3.536166">
        <time>2021-08-20T20:06:30Z</time>
      </trkpt>
      <trkpt lat="43.457428" lon="-3.535759">
        <time>2021-08-20T20:06:33Z</time>
      </trkpt>
      <trkpt lat="43.456278" lon="-3.533882">
        <time>2021-08-20T20:06:48Z</time>
      </trkpt>
      <trkpt lat="43.455657" lon="-3.533095">
        <time>2021-08-20T20:07:00Z</time>
      </trkpt>
      <trkpt lat="43.455595" lon="-3.533019">
        <time>2021-08-20T20:07:33Z</time>
      </trkpt>
      <trkpt lat="43.455685" lon="-3.533108">
        <time>2021-08-20T20:07:48Z</time>
      </trkpt>
      <trkpt lat="43.456223" lon="-3.53385">
        <time>2021-08-20T20:08:09Z</time>
      </trkpt>
      <trkpt lat="43.455866" lon="-3.533262">
        <time>2021-08-20T20:08:48Z</time>
      </trkpt>
      <trkpt lat="43.455466" lon="-3.532445">
        <time>2021-08-20T20:08:54Z</time>
      </trkpt>
      <trkpt lat="43.454781" lon="-3.530259">
        <time>2021-08-20T20:10:42Z</time>
      </trkpt>
      <trkpt lat="43.454781" lon="-3.530259">
        <time>2021-08-20T20:10:56Z</time>
      </trkpt>
      <trkpt lat="43.454647" lon="-3.529381">
        <time>2021-08-20T20:11:12Z</time>
      </trkpt>
      <trkpt lat="43.454395" lon="-3.528793">
        <time>2021-08-20T20:11:18Z</time>
      </trkpt>
      <trkpt lat="43.454158" lon="-3.528683">
        <time>2021-08-20T20:11:21Z</time>
      </trkpt>
      <trkpt lat="43.453661" lon="-3.528633">
        <time>2021-08-20T20:11:27Z</time>
      </trkpt>
      <trkpt lat="43.453025" lon="-3.528065">
        <time>2021-08-20T20:11:36Z</time>
      </trkpt>
      <trkpt lat="43.453" lon="-3.527749">
        <time>2021-08-20T20:11:39Z</time>
      </trkpt>
      <trkpt lat="43.453" lon="-3.527749">
        <time>2021-08-20T20:11:39Z</time>
      </trkpt>
      <trkpt lat="43.452853" lon="-3.526722">
        <time>2021-08-20T20:11:48Z</time>
      </trkpt>
      <trkpt lat="43.452837" lon="-3.526441">
        <time>2021-08-20T20:11:51Z</time>
      </trkpt>
      <trkpt lat="43.452941" lon="-3.52588">
        <time>2021-08-20T20:11:57Z</time>
      </trkpt>
      <trkpt lat="43.452796" lon="-3.525599">
        <time>2021-08-20T20:12:00Z</time>
      </trkpt>
      <trkpt lat="43.452572" lon="-3.525506">
        <time>2021-08-20T20:12:03Z</time>
      </trkpt>
      <trkpt lat="43.452314" lon="-3.52554">
        <time>2021-08-20T20:12:06Z</time>
      </trkpt>
      <trkpt lat="43.451785" lon="-3.525778">
        <time>2021-08-20T20:12:12Z</time>
      </trkpt>
      <trkpt lat="43.451175" lon="-3.526381">
        <time>2021-08-20T20:12:21Z</time>
      </trkpt>
      <trkpt lat="43.450038" lon="-3.527137">
        <time>2021-08-20T20:12:33Z</time>
      </trkpt>
      <trkpt lat="43.448061" lon="-3.528542">
        <time>2021-08-20T20:12:57Z</time>
      </trkpt>
      <trkpt lat="43.445856" lon="-3.526686">
        <time>2021-08-20T20:13:18Z</time>
      </trkpt>
      <trkpt lat="43.442173" lon="-3.523069">
        <time>2021-08-20T20:13:51Z</time>
      </trkpt>
      <trkpt lat="43.441254" lon="-3.522337">
        <time>2021-08-20T20:14:00Z</time>
      </trkpt>
      <trkpt lat="43.439331" lon="-3.518238">
        <time>2021-08-20T20:14:27Z</time>
      </trkpt>
      <trkpt lat="43.439043" lon="-3.517813">
        <time>2021-08-20T20:14:30Z</time>
      </trkpt>
      <trkpt lat="43.43813" lon="-3.516455">
        <time>2021-08-20T20:14:45Z</time>
      </trkpt>
      <trkpt lat="43.438123" lon="-3.516664">
        <time>2021-08-20T20:14:48Z</time>
      </trkpt>
      <trkpt lat="43.438321" lon="-3.517799">
        <time>2021-08-20T20:15:00Z</time>
      </trkpt>
      <trkpt lat="43.438302" lon="-3.517789">
        <time>2021-08-20T20:15:12Z</time>
      </trkpt>
      <trkpt lat="43.43825" lon="-3.517553">
        <time>2021-08-20T20:15:15Z</time>
      </trkpt>
      <trkpt lat="43.438098" lon="-3.516475">
        <time>2021-08-20T20:15:24Z</time>
      </trkpt>
      <trkpt lat="43.438086" lon="-3.516212">
        <time>2021-08-20T20:15:30Z</time>
      </trkpt>
      <trkpt lat="43.437972" lon="-3.516141">
        <time>2021-08-20T20:15:33Z</time>
      </trkpt>
      <trkpt lat="43.437776" lon="-3.516213">
        <time>2021-08-20T20:15:36Z</time>
      </trkpt>
      <trkpt lat="43.437509" lon="-3.516194">
        <time>2021-08-20T20:15:39Z</time>
      </trkpt>
      <trkpt lat="43.437183" lon="-3.516071">
        <time>2021-08-20T20:15:42Z</time>
      </trkpt>
      <trkpt lat="43.435885" lon="-3.515645">
        <time>2021-08-20T20:15:54Z</time>
      </trkpt>
      <trkpt lat="43.435766" lon="-3.515761">
        <time>2021-08-20T20:15:57Z</time>
      </trkpt>
      <trkpt lat="43.435481" lon="-3.516484">
        <time>2021-08-20T20:16:06Z</time>
      </trkpt>
      <trkpt lat="43.435294" lon="-3.516649">
        <time>2021-08-20T20:16:09Z</time>
      </trkpt>
      <trkpt lat="43.434901" lon="-3.516878">
        <time>2021-08-20T20:16:15Z</time>
      </trkpt>
      <trkpt lat="43.434383" lon="-3.516951">
        <time>2021-08-20T20:16:21Z</time>
      </trkpt>
      <trkpt lat="43.433763" lon="-3.516583">
        <time>2021-08-20T20:16:30Z</time>
      </trkpt>
      <trkpt lat="43.433184" lon="-3.516337">
        <time>2021-08-20T20:16:39Z</time>
      </trkpt>
      <trkpt lat="43.432872" lon="-3.516178">
        <time>2021-08-20T20:16:45Z</time>
      </trkpt>
      <trkpt lat="43.432324" lon="-3.516191">
        <time>2021-08-20T20:16:51Z</time>
      </trkpt>
      <trkpt lat="43.43041" lon="-3.516946">
        <time>2021-08-20T20:17:06Z</time>
      </trkpt>
      <trkpt lat="43.430118" lon="-3.517358">
        <time>2021-08-20T20:17:09Z</time>
      </trkpt>
      <trkpt lat="43.429729" lon="-3.518473">
        <time>2021-08-20T20:17:15Z</time>
      </trkpt>
      <trkpt lat="43.429563" lon="-3.519089">
        <time>2021-08-20T20:17:18Z</time>
      </trkpt>
      <trkpt lat="43.428834" lon="-3.521293">
        <time>2021-08-20T20:17:30Z</time>
      </trkpt>
      <trkpt lat="43.428497" lon="-3.521625">
        <time>2021-08-20T20:17:33Z</time>
      </trkpt>
      <trkpt lat="43.427786" lon="-3.521923">
        <time>2021-08-20T20:17:39Z</time>
      </trkpt>
      <trkpt lat="43.426053" lon="-3.522303">
        <time>2021-08-20T20:17:54Z</time>
      </trkpt>
      <trkpt lat="43.423992" lon="-3.522415">
        <time>2021-08-20T20:18:30Z</time>
      </trkpt>
      <trkpt lat="43.423841" lon="-3.522362">
        <time>2021-08-20T20:18:33Z</time>
      </trkpt>
      <trkpt lat="43.42379" lon="-3.522029">
        <time>2021-08-20T20:18:36Z</time>
      </trkpt>
      <trkpt lat="43.423214" lon="-3.51921">
        <time>2021-08-20T20:18:57Z</time>
      </trkpt>
      <trkpt lat="43.421898" lon="-3.512825">
        <time>2021-08-20T20:19:33Z</time>
      </trkpt>
      <trkpt lat="43.420179" lon="-3.506367">
        <time>2021-08-20T20:20:03Z</time>
      </trkpt>
      <trkpt lat="43.419328" lon="-3.499749">
        <time>2021-08-20T20:20:30Z</time>
      </trkpt>
      <trkpt lat="43.418684" lon="-3.496174">
        <time>2021-08-20T20:20:45Z</time>
      </trkpt>
      <trkpt lat="43.41804" lon="-3.494177">
        <time>2021-08-20T20:20:54Z</time>
      </trkpt>
      <trkpt lat="43.418007" lon="-3.493481">
        <time>2021-08-20T20:20:57Z</time>
      </trkpt>
      <trkpt lat="43.41727" lon="-3.491382">
        <time>2021-08-20T20:21:18Z</time>
      </trkpt>
      <trkpt lat="43.416216" lon="-3.490735">
        <time>2021-08-20T20:21:30Z</time>
      </trkpt>
      <trkpt lat="43.415008" lon="-3.490102">
        <time>2021-08-20T20:21:42Z</time>
      </trkpt>
      <trkpt lat="43.414622" lon="-3.489963">
        <time>2021-08-20T20:21:45Z</time>
      </trkpt>
      <trkpt lat="43.414255" lon="-3.489716">
        <time>2021-08-20T20:21:48Z</time>
      </trkpt>
      <trkpt lat="43.410793" lon="-3.486471">
        <time>2021-08-20T20:22:33Z</time>
      </trkpt>
      <trkpt lat="43.406997" lon="-3.482936">
        <time>2021-08-20T20:23:24Z</time>
      </trkpt>
      <trkpt lat="43.406108" lon="-3.48192">
        <time>2021-08-20T20:23:33Z</time>
      </trkpt>
      <trkpt lat="43.403611" lon="-3.479609">
        <time>2021-08-20T20:23:57Z</time>
      </trkpt>
      <trkpt lat="43.40325" lon="-3.479592">
        <time>2021-08-20T20:24:00Z</time>
      </trkpt>
      <trkpt lat="43.402291" lon="-3.479769">
        <time>2021-08-20T20:24:09Z</time>
      </trkpt>
      <trkpt lat="43.402291" lon="-3.479769">
        <time>2021-08-20T20:24:09Z</time>
      </trkpt>
      <trkpt lat="43.401623" lon="-3.480311">
        <time>2021-08-20T20:24:18Z</time>
      </trkpt>
      <trkpt lat="43.401399" lon="-3.480531">
        <time>2021-08-20T20:24:21Z</time>
      </trkpt>
      <trkpt lat="43.401161" lon="-3.480515">
        <time>2021-08-20T20:24:24Z</time>
      </trkpt>
      <trkpt lat="43.400993" lon="-3.480237">
        <time>2021-08-20T20:24:27Z</time>
      </trkpt>
      <trkpt lat="43.400558" lon="-3.479433">
        <time>2021-08-20T20:24:33Z</time>
      </trkpt>
      <trkpt lat="43.399638" lon="-3.478259">
        <time>2021-08-20T20:24:42Z</time>
      </trkpt>
      <trkpt lat="43.397126" lon="-3.475213">
        <time>2021-08-20T20:25:06Z</time>
      </trkpt>
      <trkpt lat="43.396368" lon="-3.474975">
        <time>2021-08-20T20:25:12Z</time>
      </trkpt>
      <trkpt lat="43.396022" lon="-3.47492">
        <time>2021-08-20T20:25:15Z</time>
      </trkpt>
      <trkpt lat="43.395148" lon="-3.474612">
        <time>2021-08-20T20:25:24Z</time>
      </trkpt>
      <trkpt lat="43.394726" lon="-3.474219">
        <time>2021-08-20T20:25:30Z</time>
      </trkpt>
      <trkpt lat="43.394471" lon="-3.473796">
        <time>2021-08-20T20:25:36Z</time>
      </trkpt>
      <trkpt lat="43.394284" lon="-3.473475">
        <time>2021-08-20T20:25:42Z</time>
      </trkpt>
      <trkpt lat="43.394202" lon="-3.473288">
        <time>2021-08-20T20:25:45Z</time>
      </trkpt>
      <trkpt lat="43.39356" lon="-3.470135">
        <time>2021-08-20T20:26:09Z</time>
      </trkpt>
      <trkpt lat="43.392922" lon="-3.46669">
        <time>2021-08-20T20:26:33Z</time>
      </trkpt>
      <trkpt lat="43.392993" lon="-3.466401">
        <time>2021-08-20T20:26:36Z</time>
      </trkpt>
      <trkpt lat="43.393531" lon="-3.463989">
        <time>2021-08-20T20:27:06Z</time>
      </trkpt>
      <trkpt lat="43.394753" lon="-3.457648">
        <time>2021-08-20T20:27:51Z</time>
      </trkpt>
      <trkpt lat="43.394819" lon="-3.457179">
        <time>2021-08-20T20:27:54Z</time>
      </trkpt>
      <trkpt lat="43.394789" lon="-3.456736">
        <time>2021-08-20T20:27:57Z</time>
      </trkpt>
      <trkpt lat="43.394573" lon="-3.455951">
        <time>2021-08-20T20:28:30Z</time>
      </trkpt>
      <trkpt lat="43.394427" lon="-3.455031">
        <time>2021-08-20T20:28:36Z</time>
      </trkpt>
      <trkpt lat="43.395197" lon="-3.451577">
        <time>2021-08-20T20:29:06Z</time>
      </trkpt>
      <trkpt lat="43.395197" lon="-3.451577">
        <time>2021-08-20T20:29:06Z</time>
      </trkpt>
      <trkpt lat="43.395383" lon="-3.449527">
        <time>2021-08-20T20:29:36Z</time>
      </trkpt>
      <trkpt lat="43.395463" lon="-3.449451">
        <time>2021-08-20T20:29:39Z</time>
      </trkpt>
      <trkpt lat="43.395572" lon="-3.449326">
        <time>2021-08-20T20:29:42Z</time>
      </trkpt>
      <trkpt lat="43.395716" lon="-3.44889">
        <time>2021-08-20T20:29:51Z</time>
      </trkpt>
      <trkpt lat="43.395958" lon="-3.448174">
        <time>2021-08-20T20:30:18Z</time>
      </trkpt>
      <trkpt lat="43.397169" lon="-3.4456">
        <time>2021-08-20T20:30:39Z</time>
      </trkpt>
      <trkpt lat="43.398549" lon="-3.442589">
        <time>2021-08-20T20:31:06Z</time>
      </trkpt>
      <trkpt lat="43.398942" lon="-3.44169">
        <time>2021-08-20T20:31:18Z</time>
      </trkpt>
      <trkpt lat="43.398992" lon="-3.441549">
        <time>2021-08-20T20:31:21Z</time>
      </trkpt>
      <trkpt lat="43.399641" lon="-3.440374">
        <time>2021-08-20T20:31:51Z</time>
      </trkpt>
      <trkpt lat="43.399951" lon="-3.439736">
        <time>2021-08-20T20:32:36Z</time>
      </trkpt>
      <trkpt lat="43.400202" lon="-3.439344">
        <time>2021-08-20T20:32:48Z</time>
      </trkpt>
      <trkpt lat="43.400497" lon="-3.438736">
        <time>2021-08-20T20:32:57Z</time>
      </trkpt>
      <trkpt lat="43.400681" lon="-3.438342">
        <time>2021-08-20T20:33:03Z</time>
      </trkpt>
      <trkpt lat="43.400824" lon="-3.438052">
        <time>2021-08-20T20:33:09Z</time>
      </trkpt>
      <trkpt lat="43.400824" lon="-3.437766">
        <time>2021-08-20T20:33:12Z</time>
      </trkpt>
      <trkpt lat="43.400835" lon="-3.437438">
        <time>2021-08-20T20:33:15Z</time>
      </trkpt>
      <trkpt lat="43.400983" lon="-3.437201">
        <time>2021-08-20T20:33:18Z</time>
      </trkpt>
      <trkpt lat="43.401192" lon="-3.436983">
        <time>2021-08-20T20:33:21Z</time>
      </trkpt>
      <trkpt lat="43.40134" lon="-3.436539">
        <time>2021-08-20T20:33:24Z</time>
      </trkpt>
      <trkpt lat="43.401785" lon="-3.435428">
        <time>2021-08-20T20:33:33Z</time>
      </trkpt>
      <trkpt lat="43.402011" lon="-3.435463">
        <time>2021-08-20T20:33:36Z</time>
      </trkpt>
      <trkpt lat="43.402011" lon="-3.435463">
        <time>2021-08-20T20:33:36Z</time>
      </trkpt>
      <trkpt lat="43.402191" lon="-3.435313">
        <time>2021-08-20T20:33:39Z</time>
      </trkpt>
      <trkpt lat="43.402266" lon="-3.434929">
        <time>2021-08-20T20:33:42Z</time>
      </trkpt>
      <trkpt lat="43.402981" lon="-3.429244">
        <time>2021-08-20T20:34:15Z</time>
      </trkpt>
      <trkpt lat="43.403643" lon="-3.422881">
        <time>2021-08-20T20:35:06Z</time>
      </trkpt>
      <trkpt lat="43.403905" lon="-3.421648">
        <time>2021-08-20T20:35:15Z</time>
      </trkpt>
      <trkpt lat="43.404951" lon="-3.418479">
        <time>2021-08-20T20:35:42Z</time>
      </trkpt>
      <trkpt lat="43.405754" lon="-3.417298">
        <time>2021-08-20T20:36:00Z</time>
      </trkpt>
      <trkpt lat="43.405909" lon="-3.417097">
        <time>2021-08-20T20:36:03Z</time>
      </trkpt>
      <trkpt lat="43.407889" lon="-3.415409">
        <time>2021-08-20T20:36:42Z</time>
      </trkpt>
      <trkpt lat="43.408088" lon="-3.415263">
        <time>2021-08-20T20:36:51Z</time>
      </trkpt>
      <trkpt lat="43.409624" lon="-3.413886">
        <time>2021-08-20T20:37:30Z</time>
      </trkpt>
      <trkpt lat="43.410505" lon="-3.413166">
        <time>2021-08-20T20:37:48Z</time>
      </trkpt>
      <trkpt lat="43.410688" lon="-3.413104">
        <time>2021-08-20T20:37:54Z</time>
      </trkpt>
      <trkpt lat="43.410845" lon="-3.413064">
        <time>2021-08-20T20:38:03Z</time>
      </trkpt>
      <trkpt lat="43.411232" lon="-3.412703">
        <time>2021-08-20T20:38:45Z</time>
      </trkpt>
      <trkpt lat="43.41138" lon="-3.412332">
        <time>2021-08-20T20:38:54Z</time>
      </trkpt>
      <trkpt lat="43.41142" lon="-3.412118">
        <time>2021-08-20T20:39:00Z</time>
      </trkpt>
      <trkpt lat="43.411616" lon="-3.411619">
        <time>2021-08-20T20:39:06Z</time>
      </trkpt>
      <trkpt lat="43.411755" lon="-3.410906">
        <time>2021-08-20T20:39:21Z</time>
      </trkpt>
      <trkpt lat="43.411956" lon="-3.41001">
        <time>2021-08-20T20:39:36Z</time>
      </trkpt>
      <trkpt lat="43.412142" lon="-3.409027">
        <time>2021-08-20T20:39:45Z</time>
      </trkpt>
      <trkpt lat="43.412271" lon="-3.407995">
        <time>2021-08-20T20:39:54Z</time>
      </trkpt>
      <trkpt lat="43.412166" lon="-3.407785">
        <time>2021-08-20T20:39:57Z</time>
      </trkpt>
      <trkpt lat="43.411937" lon="-3.407845">
        <time>2021-08-20T20:40:00Z</time>
      </trkpt>
      <trkpt lat="43.411736" lon="-3.408156">
        <time>2021-08-20T20:40:03Z</time>
      </trkpt>
      <trkpt lat="43.411482" lon="-3.408408">
        <time>2021-08-20T20:40:06Z</time>
      </trkpt>
      <trkpt lat="43.410879" lon="-3.408313">
        <time>2021-08-20T20:40:12Z</time>
      </trkpt>
      <trkpt lat="43.410393" lon="-3.407792">
        <time>2021-08-20T20:40:21Z</time>
      </trkpt>
      <trkpt lat="43.410281" lon="-3.407901">
        <time>2021-08-20T20:40:24Z</time>
      </trkpt>
      <trkpt lat="43.41027" lon="-3.408121">
        <time>2021-08-20T20:40:27Z</time>
      </trkpt>
      <trkpt lat="43.410376" lon="-3.409151">
        <time>2021-08-20T20:40:36Z</time>
      </trkpt>
      <trkpt lat="43.410024" lon="-3.40977">
        <time>2021-08-20T20:40:42Z</time>
      </trkpt>
      <trkpt lat="43.409788" lon="-3.410017">
        <time>2021-08-20T20:40:45Z</time>
      </trkpt>
      <trkpt lat="43.409372" lon="-3.410592">
        <time>2021-08-20T20:40:51Z</time>
      </trkpt>
      <trkpt lat="43.408991" lon="-3.411384">
        <time>2021-08-20T20:40:57Z</time>
      </trkpt>
      <trkpt lat="43.406129" lon="-3.412229">
        <time>2021-08-20T20:41:21Z</time>
      </trkpt>
      <trkpt lat="43.405857" lon="-3.412203">
        <time>2021-08-20T20:41:24Z</time>
      </trkpt>
      <trkpt lat="43.404402" lon="-3.412171">
        <time>2021-08-20T20:41:45Z</time>
      </trkpt>
      <trkpt lat="43.403961" lon="-3.411891">
        <time>2021-08-20T20:41:57Z</time>
      </trkpt>
      <trkpt lat="43.403937" lon="-3.411836">
        <time>2021-08-20T20:42:33Z</time>
      </trkpt>
      <trkpt lat="43.403937" lon="-3.411836">
        <time>2021-08-20T20:42:33Z</time>
      </trkpt>
      <trkpt lat="43.403691" lon="-3.411739">
        <time>2021-08-20T21:32:29Z</time>
      </trkpt>
      <trkpt lat="43.403736" lon="-3.41173">
        <time>2021-08-20T21:33:02Z</time>
      </trkpt>
      <trkpt lat="43.404243" lon="-3.412185">
        <time>2021-08-20T21:34:02Z</time>
      </trkpt>
      <trkpt lat="43.404415" lon="-3.412191">
        <time>2021-08-20T21:34:05Z</time>
      </trkpt>
      <trkpt lat="43.405193" lon="-3.411936">
        <time>2021-08-20T21:34:17Z</time>
      </trkpt>
      <trkpt lat="43.405426" lon="-3.411945">
        <time>2021-08-20T21:34:20Z</time>
      </trkpt>
      <trkpt lat="43.406105" lon="-3.412275">
        <time>2021-08-20T21:34:26Z</time>
      </trkpt>
      <trkpt lat="43.408025" lon="-3.411826">
        <time>2021-08-20T21:34:44Z</time>
      </trkpt>
      <trkpt lat="43.408825" lon="-3.411654">
        <time>2021-08-20T21:34:53Z</time>
      </trkpt>
      <trkpt lat="43.408825" lon="-3.411654">
        <time>2021-08-20T21:34:56Z</time>
      </trkpt>
      <trkpt lat="43.409104" lon="-3.411473">
        <time>2021-08-20T21:34:56Z</time>
      </trkpt>
      <trkpt lat="43.409299" lon="-3.411147">
        <time>2021-08-20T21:34:59Z</time>
      </trkpt>
      <trkpt lat="43.409495" lon="-3.410373">
        <time>2021-08-20T21:35:05Z</time>
      </trkpt>
      <trkpt lat="43.409703" lon="-3.410134">
        <time>2021-08-20T21:35:08Z</time>
      </trkpt>
      <trkpt lat="43.410137" lon="-3.409684">
        <time>2021-08-20T21:35:14Z</time>
      </trkpt>
      <trkpt lat="43.410405" lon="-3.409128">
        <time>2021-08-20T21:35:20Z</time>
      </trkpt>
      <trkpt lat="43.410381" lon="-3.408813">
        <time>2021-08-20T21:35:23Z</time>
      </trkpt>
      <trkpt lat="43.410172" lon="-3.407859">
        <time>2021-08-20T21:35:32Z</time>
      </trkpt>
      <trkpt lat="43.410292" lon="-3.40774">
        <time>2021-08-20T21:35:35Z</time>
      </trkpt>
      <trkpt lat="43.410458" lon="-3.407838">
        <time>2021-08-20T21:35:38Z</time>
      </trkpt>
      <trkpt lat="43.410458" lon="-3.407838">
        <time>2021-08-20T21:35:38Z</time>
      </trkpt>
      <trkpt lat="43.411173" lon="-3.408376">
        <time>2021-08-20T21:35:47Z</time>
      </trkpt>
      <trkpt lat="43.411454" lon="-3.408298">
        <time>2021-08-20T21:35:50Z</time>
      </trkpt>
      <trkpt lat="43.411659" lon="-3.408069">
        <time>2021-08-20T21:35:53Z</time>
      </trkpt>
      <trkpt lat="43.411934" lon="-3.407607">
        <time>2021-08-20T21:35:59Z</time>
      </trkpt>
      <trkpt lat="43.412086" lon="-3.407585">
        <time>2021-08-20T21:36:02Z</time>
      </trkpt>
      <trkpt lat="43.412214" lon="-3.40771">
        <time>2021-08-20T21:36:05Z</time>
      </trkpt>
      <trkpt lat="43.412295" lon="-3.408009">
        <time>2021-08-20T21:36:08Z</time>
      </trkpt>
      <trkpt lat="43.411986" lon="-3.410063">
        <time>2021-08-20T21:36:32Z</time>
      </trkpt>
      <trkpt lat="43.412098" lon="-3.410096">
        <time>2021-08-20T21:36:44Z</time>
      </trkpt>
      <trkpt lat="43.411997" lon="-3.410149">
        <time>2021-08-20T21:36:47Z</time>
      </trkpt>
      <trkpt lat="43.411901" lon="-3.410169">
        <time>2021-08-20T21:36:50Z</time>
      </trkpt>
      <trkpt lat="43.411866" lon="-3.41031">
        <time>2021-08-20T21:36:53Z</time>
      </trkpt>
      <trkpt lat="43.411859" lon="-3.41041">
        <time>2021-08-20T21:36:56Z</time>
      </trkpt>
      <trkpt lat="43.412013" lon="-3.410365">
        <time>2021-08-20T21:37:02Z</time>
      </trkpt>
      <trkpt lat="43.412284" lon="-3.410436">
        <time>2021-08-20T21:37:05Z</time>
      </trkpt>
      <trkpt lat="43.412692" lon="-3.410554">
        <time>2021-08-20T21:37:14Z</time>
      </trkpt>
      <trkpt lat="43.412676" lon="-3.410657">
        <time>2021-08-20T21:37:17Z</time>
      </trkpt>
      <trkpt lat="43.412625" lon="-3.410882">
        <time>2021-08-20T21:37:23Z</time>
      </trkpt>
      <trkpt lat="43.412604" lon="-3.410914">
        <time>2021-08-20T21:37:26Z</time>
      </trkpt>
      <trkpt lat="43.412527" lon="-3.410986">
        <time>2021-08-20T21:37:29Z</time>
      </trkpt>
      <trkpt lat="43.412143" lon="-3.41116">
        <time>2021-08-20T21:37:41Z</time>
      </trkpt>
      <trkpt lat="43.412053" lon="-3.411343">
        <time>2021-08-20T21:37:44Z</time>
      </trkpt>
      <trkpt lat="43.411904" lon="-3.411634">
        <time>2021-08-20T21:37:59Z</time>
      </trkpt>
      <trkpt lat="43.411763" lon="-3.41166">
        <time>2021-08-20T21:38:20Z</time>
      </trkpt>
      <trkpt lat="43.411886" lon="-3.411187">
        <time>2021-08-20T21:38:26Z</time>
      </trkpt>
      <trkpt lat="43.412004" lon="-3.410892">
        <time>2021-08-20T21:38:44Z</time>
      </trkpt>
      <trkpt lat="43.412063" lon="-3.410998">
        <time>2021-08-20T21:38:47Z</time>
      </trkpt>
      <trkpt lat="43.412268" lon="-3.411116">
        <time>2021-08-20T21:38:53Z</time>
      </trkpt>
      <trkpt lat="43.412383" lon="-3.411085">
        <time>2021-08-20T21:38:56Z</time>
      </trkpt>
      <trkpt lat="43.412501" lon="-3.41111">
        <time>2021-08-20T21:38:59Z</time>
      </trkpt>
      <trkpt lat="43.41254" lon="-3.411168">
        <time>2021-08-20T21:39:02Z</time>
      </trkpt>
      <trkpt lat="43.412487" lon="-3.411304">
        <time>2021-08-20T21:39:05Z</time>
      </trkpt>
      <trkpt lat="43.412411" lon="-3.411534">
        <time>2021-08-20T21:39:11Z</time>
      </trkpt>
      <trkpt lat="43.412433" lon="-3.411674">
        <time>2021-08-20T21:39:14Z</time>
      </trkpt>
      <trkpt lat="43.412588" lon="-3.411984">
        <time>2021-08-20T21:39:32Z</time>
      </trkpt>
      <trkpt lat="43.412688" lon="-3.411895">
        <time>2021-08-20T21:39:35Z</time>
      </trkpt>
      <trkpt lat="43.412758" lon="-3.411898">
        <time>2021-08-20T21:39:38Z</time>
      </trkpt>
      <trkpt lat="43.412961" lon="-3.412147">
        <time>2021-08-20T21:39:41Z</time>
      </trkpt>
      <trkpt lat="43.413011" lon="-3.412198">
        <time>2021-08-20T21:39:44Z</time>
      </trkpt>
      <trkpt lat="43.412999" lon="-3.412173">
        <time>2021-08-20T21:39:59Z</time>
      </trkpt>
      <trkpt lat="43.412931" lon="-3.412172">
        <time>2021-08-20T21:40:02Z</time>
      </trkpt>
      <trkpt lat="43.41267" lon="-3.411992">
        <time>2021-08-20T21:40:17Z</time>
      </trkpt>
      <trkpt lat="43.412693" lon="-3.411873">
        <time>2021-08-20T21:40:20Z</time>
      </trkpt>
      <trkpt lat="43.412693" lon="-3.411873">
        <time>2021-08-20T21:40:20Z</time>
      </trkpt>
      <trkpt lat="43.412645" lon="-3.411836">
        <time>2021-08-20T21:40:26Z</time>
      </trkpt>
      <trkpt lat="43.412538" lon="-3.411864">
        <time>2021-08-20T21:40:29Z</time>
      </trkpt>
      <trkpt lat="43.411934" lon="-3.411871">
        <time>2021-08-20T21:40:44Z</time>
      </trkpt>
      <trkpt lat="43.411848" lon="-3.411916">
        <time>2021-08-20T21:40:47Z</time>
      </trkpt>
      <trkpt lat="43.411881" lon="-3.411636">
        <time>2021-08-20T21:40:56Z</time>
      </trkpt>
      <trkpt lat="43.41199" lon="-3.41129">
        <time>2021-08-20T21:41:02Z</time>
      </trkpt>
      <trkpt lat="43.412049" lon="-3.411318">
        <time>2021-08-20T21:41:05Z</time>
      </trkpt>
      <trkpt lat="43.412263" lon="-3.411418">
        <time>2021-08-20T21:41:14Z</time>
      </trkpt>
      <trkpt lat="43.412414" lon="-3.411412">
        <time>2021-08-20T21:41:20Z</time>
      </trkpt>
      <trkpt lat="43.412487" lon="-3.411385">
        <time>2021-08-20T21:41:26Z</time>
      </trkpt>
      <trkpt lat="43.412555" lon="-3.411299">
        <time>2021-08-20T21:41:29Z</time>
      </trkpt>
      <trkpt lat="43.412584" lon="-3.41117">
        <time>2021-08-20T21:41:32Z</time>
      </trkpt>
      <trkpt lat="43.412777" lon="-3.41079">
        <time>2021-08-20T21:41:38Z</time>
      </trkpt>
      <trkpt lat="43.412626" lon="-3.410775">
        <time>2021-08-20T21:41:41Z</time>
      </trkpt>
      <trkpt lat="43.411882" lon="-3.410688">
        <time>2021-08-20T21:42:35Z</time>
      </trkpt>
      <trkpt lat="43.411697" lon="-3.411024">
        <time>2021-08-20T21:42:41Z</time>
      </trkpt>
      <trkpt lat="43.411581" lon="-3.411429">
        <time>2021-08-20T21:42:47Z</time>
      </trkpt>
      <trkpt lat="43.411515" lon="-3.411601">
        <time>2021-08-20T21:42:50Z</time>
      </trkpt>
      <trkpt lat="43.411386" lon="-3.411916">
        <time>2021-08-20T21:43:37Z</time>
      </trkpt>
      <trkpt lat="43.411386" lon="-3.411916">
        <time>2021-08-20T21:43:37Z</time>
      </trkpt>
      <trkpt lat="43.411489" lon="-3.412121">
        <time>2021-08-20T21:52:39Z</time>
      </trkpt>
      <trkpt lat="43.411455" lon="-3.412061">
        <time>2021-08-20T21:54:15Z</time>
      </trkpt>
      <trkpt lat="43.411412" lon="-3.412153">
        <time>2021-08-20T21:54:51Z</time>
      </trkpt>
      <trkpt lat="43.410993" lon="-3.412612">
        <time>2021-08-20T21:55:06Z</time>
      </trkpt>
      <trkpt lat="43.410824" lon="-3.412777">
        <time>2021-08-20T21:55:12Z</time>
      </trkpt>
      <trkpt lat="43.410565" lon="-3.412785">
        <time>2021-08-20T21:55:21Z</time>
      </trkpt>
      <trkpt lat="43.410568" lon="-3.412692">
        <time>2021-08-20T21:55:24Z</time>
      </trkpt>
      <trkpt lat="43.410631" lon="-3.412684">
        <time>2021-08-20T21:55:27Z</time>
      </trkpt>
      <trkpt lat="43.410713" lon="-3.412673">
        <time>2021-08-20T21:55:36Z</time>
      </trkpt>
      <trkpt lat="43.411032" lon="-3.41256">
        <time>2021-08-20T21:55:45Z</time>
      </trkpt>
      <trkpt lat="43.411236" lon="-3.412348">
        <time>2021-08-20T21:55:54Z</time>
      </trkpt>
      <trkpt lat="43.411305" lon="-3.412291">
        <time>2021-08-20T21:56:30Z</time>
      </trkpt>
      <trkpt lat="43.411367" lon="-3.412104">
        <time>2021-08-20T21:56:33Z</time>
      </trkpt>
      <trkpt lat="43.411817" lon="-3.410865">
        <time>2021-08-20T21:56:48Z</time>
      </trkpt>
      <trkpt lat="43.412131" lon="-3.408919">
        <time>2021-08-20T21:57:06Z</time>
      </trkpt>
      <trkpt lat="43.41226" lon="-3.407749">
        <time>2021-08-20T21:57:15Z</time>
      </trkpt>
      <trkpt lat="43.41211" lon="-3.407643">
        <time>2021-08-20T21:57:18Z</time>
      </trkpt>
      <trkpt lat="43.41185" lon="-3.407798">
        <time>2021-08-20T21:57:21Z</time>
      </trkpt>
      <trkpt lat="43.411491" lon="-3.40833">
        <time>2021-08-20T21:57:27Z</time>
      </trkpt>
      <trkpt lat="43.411222" lon="-3.408422">
        <time>2021-08-20T21:57:30Z</time>
      </trkpt>
      <trkpt lat="43.411222" lon="-3.408422">
        <time>2021-08-20T21:57:30Z</time>
      </trkpt>
      <trkpt lat="43.410934" lon="-3.408372">
        <time>2021-08-20T21:57:33Z</time>
      </trkpt>
      <trkpt lat="43.4107" lon="-3.408146">
        <time>2021-08-20T21:57:36Z</time>
      </trkpt>
      <trkpt lat="43.410291" lon="-3.407763">
        <time>2021-08-20T21:57:42Z</time>
      </trkpt>
      <trkpt lat="43.410177" lon="-3.407909">
        <time>2021-08-20T21:57:45Z</time>
      </trkpt>
      <trkpt lat="43.410233" lon="-3.408168">
        <time>2021-08-20T21:57:48Z</time>
      </trkpt>
      <trkpt lat="43.410366" lon="-3.409233">
        <time>2021-08-20T21:57:57Z</time>
      </trkpt>
      <trkpt lat="43.4102" lon="-3.40956">
        <time>2021-08-20T21:58:00Z</time>
      </trkpt>
      <trkpt lat="43.4102" lon="-3.40956">
        <time>2021-08-20T21:58:00Z</time>
      </trkpt>
      <trkpt lat="43.409721" lon="-3.410111">
        <time>2021-08-20T21:58:06Z</time>
      </trkpt>
      <trkpt lat="43.409494" lon="-3.410364">
        <time>2021-08-20T21:58:09Z</time>
      </trkpt>
      <trkpt lat="43.409391" lon="-3.410751">
        <time>2021-08-20T21:58:12Z</time>
      </trkpt>
      <trkpt lat="43.409049" lon="-3.41151">
        <time>2021-08-20T21:58:18Z</time>
      </trkpt>
      <trkpt lat="43.408729" lon="-3.411693">
        <time>2021-08-20T21:58:21Z</time>
      </trkpt>
      <trkpt lat="43.406285" lon="-3.412267">
        <time>2021-08-20T21:58:42Z</time>
      </trkpt>
      <trkpt lat="43.405944" lon="-3.41228">
        <time>2021-08-20T21:58:45Z</time>
      </trkpt>
      <trkpt lat="43.404742" lon="-3.412176">
        <time>2021-08-20T21:58:57Z</time>
      </trkpt>
      <trkpt lat="43.404292" lon="-3.412177">
        <time>2021-08-20T21:59:03Z</time>
      </trkpt>
      <trkpt lat="43.403951" lon="-3.411979">
        <time>2021-08-20T21:59:12Z</time>
      </trkpt>
      <trkpt lat="43.403895" lon="-3.41193">
        <time>2021-08-20T21:59:15Z</time>
      </trkpt>
      <trkpt lat="43.403844" lon="-3.411769">
        <time>2021-08-20T21:59:48Z</time>
      </trkpt>
      <trkpt lat="43.403851" lon="-3.411754">
        <time>2021-08-20T22:00:20Z</time>
      </trkpt>
      <trkpt lat="43.403857" lon="-3.41167">
        <time>2021-08-21T10:16:13Z</time>
      </trkpt>
      <trkpt lat="43.403857" lon="-3.41167">
        <time>2021-08-21T10:17:06Z</time>
      </trkpt>
      <trkpt lat="43.404231" lon="-3.412151">
        <time>2021-08-21T10:22:36Z</time>
      </trkpt>
      <trkpt lat="43.404542" lon="-3.412188">
        <time>2021-08-21T10:22:42Z</time>
      </trkpt>
      <trkpt lat="43.404987" lon="-3.412037">
        <time>2021-08-21T10:22:48Z</time>
      </trkpt>
      <trkpt lat="43.405046" lon="-3.411802">
        <time>2021-08-21T10:22:51Z</time>
      </trkpt>
      <trkpt lat="43.40501" lon="-3.411531">
        <time>2021-08-21T10:22:54Z</time>
      </trkpt>
      <trkpt lat="43.403593" lon="-3.407558">
        <time>2021-08-21T10:23:24Z</time>
      </trkpt>
      <trkpt lat="43.402578" lon="-3.404885">
        <time>2021-08-21T10:23:40Z</time>
      </trkpt>
      <trkpt lat="43.401136" lon="-3.402034">
        <time>2021-08-21T10:23:57Z</time>
      </trkpt>
      <trkpt lat="43.39925" lon="-3.398057">
        <time>2021-08-21T10:24:21Z</time>
      </trkpt>
      <trkpt lat="43.399059" lon="-3.396198">
        <time>2021-08-21T10:24:30Z</time>
      </trkpt>
      <trkpt lat="43.399059" lon="-3.396198">
        <time>2021-08-21T10:24:30Z</time>
      </trkpt>
      <trkpt lat="43.398734" lon="-3.395716">
        <time>2021-08-21T10:24:33Z</time>
      </trkpt>
      <trkpt lat="43.398311" lon="-3.39546">
        <time>2021-08-21T10:24:36Z</time>
      </trkpt>
      <trkpt lat="43.397069" lon="-3.394884">
        <time>2021-08-21T10:24:45Z</time>
      </trkpt>
      <trkpt lat="43.396824" lon="-3.394328">
        <time>2021-08-21T10:24:48Z</time>
      </trkpt>
      <trkpt lat="43.396778" lon="-3.393652">
        <time>2021-08-21T10:24:51Z</time>
      </trkpt>
      <trkpt lat="43.397131" lon="-3.392297">
        <time>2021-08-21T10:24:57Z</time>
      </trkpt>
      <trkpt lat="43.397363" lon="-3.391655">
        <time>2021-08-21T10:25:00Z</time>
      </trkpt>
      <trkpt lat="43.397935" lon="-3.390558">
        <time>2021-08-21T10:25:06Z</time>
      </trkpt>
      <trkpt lat="43.398182" lon="-3.389975">
        <time>2021-08-21T10:25:09Z</time>
      </trkpt>
      <trkpt lat="43.398266" lon="-3.389336">
        <time>2021-08-21T10:25:12Z</time>
      </trkpt>
      <trkpt lat="43.398262" lon="-3.387393">
        <time>2021-08-21T10:25:21Z</time>
      </trkpt>
      <trkpt lat="43.398763" lon="-3.385466">
        <time>2021-08-21T10:25:30Z</time>
      </trkpt>
      <trkpt lat="43.399" lon="-3.383425">
        <time>2021-08-21T10:25:39Z</time>
      </trkpt>
      <trkpt lat="43.399012" lon="-3.381486">
        <time>2021-08-21T10:25:48Z</time>
      </trkpt>
      <trkpt lat="43.399268" lon="-3.380927">
        <time>2021-08-21T10:25:51Z</time>
      </trkpt>
      <trkpt lat="43.399679" lon="-3.380549">
        <time>2021-08-21T10:25:54Z</time>
      </trkpt>
      <trkpt lat="43.400501" lon="-3.379857">
        <time>2021-08-21T10:26:00Z</time>
      </trkpt>
      <trkpt lat="43.400501" lon="-3.379857">
        <time>2021-08-21T10:26:00Z</time>
      </trkpt>
      <trkpt lat="43.402961" lon="-3.374623">
        <time>2021-08-21T10:26:27Z</time>
      </trkpt>
      <trkpt lat="43.402961" lon="-3.374623">
        <time>2021-08-21T10:26:27Z</time>
      </trkpt>
      <trkpt lat="43.403022" lon="-3.374053">
        <time>2021-08-21T10:26:30Z</time>
      </trkpt>
      <trkpt lat="43.4029" lon="-3.373455">
        <time>2021-08-21T10:26:33Z</time>
      </trkpt>
      <trkpt lat="43.40205" lon="-3.371818">
        <time>2021-08-21T10:26:45Z</time>
      </trkpt>
      <trkpt lat="43.400737" lon="-3.369341">
        <time>2021-08-21T10:27:06Z</time>
      </trkpt>
      <trkpt lat="43.397977" lon="-3.364159">
        <time>2021-08-21T10:27:51Z</time>
      </trkpt>
      <trkpt lat="43.396293" lon="-3.361262">
        <time>2021-08-21T10:28:15Z</time>
      </trkpt>
      <trkpt lat="43.394632" lon="-3.359928">
        <time>2021-08-21T10:28:30Z</time>
      </trkpt>
      <trkpt lat="43.393975" lon="-3.3592">
        <time>2021-08-21T10:28:36Z</time>
      </trkpt>
      <trkpt lat="43.393764" lon="-3.358735">
        <time>2021-08-21T10:28:39Z</time>
      </trkpt>
      <trkpt lat="43.393734" lon="-3.358209">
        <time>2021-08-21T10:28:42Z</time>
      </trkpt>
      <trkpt lat="43.393884" lon="-3.357763">
        <time>2021-08-21T10:28:45Z</time>
      </trkpt>
      <trkpt lat="43.394186" lon="-3.357546">
        <time>2021-08-21T10:28:48Z</time>
      </trkpt>
      <trkpt lat="43.394557" lon="-3.357531">
        <time>2021-08-21T10:28:51Z</time>
      </trkpt>
      <trkpt lat="43.394888" lon="-3.357758">
        <time>2021-08-21T10:28:54Z</time>
      </trkpt>
      <trkpt lat="43.395877" lon="-3.358733">
        <time>2021-08-21T10:29:03Z</time>
      </trkpt>
      <trkpt lat="43.396289" lon="-3.358729">
        <time>2021-08-21T10:29:06Z</time>
      </trkpt>
      <trkpt lat="43.396289" lon="-3.358729">
        <time>2021-08-21T10:29:06Z</time>
      </trkpt>
      <trkpt lat="43.396616" lon="-3.358475">
        <time>2021-08-21T10:29:09Z</time>
      </trkpt>
      <trkpt lat="43.396817" lon="-3.358012">
        <time>2021-08-21T10:29:12Z</time>
      </trkpt>
      <trkpt lat="43.396806" lon="-3.357481">
        <time>2021-08-21T10:29:15Z</time>
      </trkpt>
      <trkpt lat="43.396601" lon="-3.357008">
        <time>2021-08-21T10:29:18Z</time>
      </trkpt>
      <trkpt lat="43.395943" lon="-3.356315">
        <time>2021-08-21T10:29:24Z</time>
      </trkpt>
      <trkpt lat="43.394764" lon="-3.355597">
        <time>2021-08-21T10:29:33Z</time>
      </trkpt>
      <trkpt lat="43.393924" lon="-3.355264">
        <time>2021-08-21T10:29:39Z</time>
      </trkpt>
      <trkpt lat="43.393071" lon="-3.354848">
        <time>2021-08-21T10:29:45Z</time>
      </trkpt>
      <trkpt lat="43.392345" lon="-3.354147">
        <time>2021-08-21T10:29:51Z</time>
      </trkpt>
      <trkpt lat="43.391172" lon="-3.352404">
        <time>2021-08-21T10:30:03Z</time>
      </trkpt>
      <trkpt lat="43.390997" lon="-3.350677">
        <time>2021-08-21T10:30:12Z</time>
      </trkpt>
      <trkpt lat="43.390997" lon="-3.350677">
        <time>2021-08-21T10:30:12Z</time>
      </trkpt>
      <trkpt lat="43.391036" lon="-3.350109">
        <time>2021-08-21T10:30:15Z</time>
      </trkpt>
      <trkpt lat="43.391232" lon="-3.349649">
        <time>2021-08-21T10:30:18Z</time>
      </trkpt>
      <trkpt lat="43.392573" lon="-3.347858">
        <time>2021-08-21T10:30:30Z</time>
      </trkpt>
      <trkpt lat="43.393695" lon="-3.345241">
        <time>2021-08-21T10:30:45Z</time>
      </trkpt>
      <trkpt lat="43.393695" lon="-3.345241">
        <time>2021-08-21T10:30:45Z</time>
      </trkpt>
      <trkpt lat="43.393652" lon="-3.344675">
        <time>2021-08-21T10:30:48Z</time>
      </trkpt>
      <trkpt lat="43.393391" lon="-3.344184">
        <time>2021-08-21T10:30:51Z</time>
      </trkpt>
      <trkpt lat="43.392639" lon="-3.343379">
        <time>2021-08-21T10:30:57Z</time>
      </trkpt>
      <trkpt lat="43.391486" lon="-3.342318">
        <time>2021-08-21T10:31:06Z</time>
      </trkpt>
      <trkpt lat="43.391067" lon="-3.341147">
        <time>2021-08-21T10:31:12Z</time>
      </trkpt>
      <trkpt lat="43.390955" lon="-3.340474">
        <time>2021-08-21T10:31:15Z</time>
      </trkpt>
      <trkpt lat="43.390955" lon="-3.340474">
        <time>2021-08-21T10:31:15Z</time>
      </trkpt>
      <trkpt lat="43.391051" lon="-3.33979">
        <time>2021-08-21T10:31:18Z</time>
      </trkpt>
      <trkpt lat="43.391508" lon="-3.33788">
        <time>2021-08-21T10:31:27Z</time>
      </trkpt>
      <trkpt lat="43.391348" lon="-3.337318">
        <time>2021-08-21T10:31:30Z</time>
      </trkpt>
      <trkpt lat="43.390707" lon="-3.335556">
        <time>2021-08-21T10:31:39Z</time>
      </trkpt>
      <trkpt lat="43.390592" lon="-3.334111">
        <time>2021-08-21T10:31:45Z</time>
      </trkpt>
      <trkpt lat="43.390418" lon="-3.333482">
        <time>2021-08-21T10:31:48Z</time>
      </trkpt>
      <trkpt lat="43.389817" lon="-3.33243">
        <time>2021-08-21T10:31:54Z</time>
      </trkpt>
      <trkpt lat="43.389277" lon="-3.331344">
        <time>2021-08-21T10:32:00Z</time>
      </trkpt>
      <trkpt lat="43.388371" lon="-3.3297">
        <time>2021-08-21T10:32:12Z</time>
      </trkpt>
      <trkpt lat="43.387775" lon="-3.329525">
        <time>2021-08-21T10:32:18Z</time>
      </trkpt>
      <trkpt lat="43.387775" lon="-3.329525">
        <time>2021-08-21T10:32:18Z</time>
      </trkpt>
      <trkpt lat="43.387524" lon="-3.329237">
        <time>2021-08-21T10:32:21Z</time>
      </trkpt>
      <trkpt lat="43.387149" lon="-3.329155">
        <time>2021-08-21T10:32:24Z</time>
      </trkpt>
      <trkpt lat="43.386199" lon="-3.328875">
        <time>2021-08-21T10:32:33Z</time>
      </trkpt>
      <trkpt lat="43.386222" lon="-3.328501">
        <time>2021-08-21T10:32:36Z</time>
      </trkpt>
      <trkpt lat="43.386363" lon="-3.327701">
        <time>2021-08-21T10:32:42Z</time>
      </trkpt>
      <trkpt lat="43.386132" lon="-3.327584">
        <time>2021-08-21T10:32:45Z</time>
      </trkpt>
      <trkpt lat="43.38556" lon="-3.32745">
        <time>2021-08-21T10:32:51Z</time>
      </trkpt>
      <trkpt lat="43.385488" lon="-3.32709">
        <time>2021-08-21T10:32:54Z</time>
      </trkpt>
      <trkpt lat="43.385426" lon="-3.326104">
        <time>2021-08-21T10:33:00Z</time>
      </trkpt>
      <trkpt lat="43.385256" lon="-3.325627">
        <time>2021-08-21T10:33:03Z</time>
      </trkpt>
      <trkpt lat="43.385256" lon="-3.325627">
        <time>2021-08-21T10:33:03Z</time>
      </trkpt>
      <trkpt lat="43.384677" lon="-3.324509">
        <time>2021-08-21T10:33:12Z</time>
      </trkpt>
      <trkpt lat="43.384607" lon="-3.323526">
        <time>2021-08-21T10:33:18Z</time>
      </trkpt>
      <trkpt lat="43.384386" lon="-3.323064">
        <time>2021-08-21T10:33:21Z</time>
      </trkpt>
      <trkpt lat="43.384047" lon="-3.322852">
        <time>2021-08-21T10:33:24Z</time>
      </trkpt>
      <trkpt lat="43.382791" lon="-3.322585">
        <time>2021-08-21T10:33:33Z</time>
      </trkpt>
      <trkpt lat="43.381931" lon="-3.322785">
        <time>2021-08-21T10:33:39Z</time>
      </trkpt>
      <trkpt lat="43.379858" lon="-3.322969">
        <time>2021-08-21T10:33:54Z</time>
      </trkpt>
      <trkpt lat="43.379546" lon="-3.322748">
        <time>2021-08-21T10:33:57Z</time>
      </trkpt>
      <trkpt lat="43.379315" lon="-3.322341">
        <time>2021-08-21T10:34:00Z</time>
      </trkpt>
      <trkpt lat="43.379219" lon="-3.321897">
        <time>2021-08-21T10:34:03Z</time>
      </trkpt>
      <trkpt lat="43.37924" lon="-3.320976">
        <time>2021-08-21T10:34:12Z</time>
      </trkpt>
      <trkpt lat="43.379445" lon="-3.320836">
        <time>2021-08-21T10:34:15Z</time>
      </trkpt>
      <trkpt lat="43.38006" lon="-3.32054">
        <time>2021-08-21T10:34:21Z</time>
      </trkpt>
      <trkpt lat="43.383235" lon="-3.318959">
        <time>2021-08-21T10:34:45Z</time>
      </trkpt>
      <trkpt lat="43.38444" lon="-3.318142">
        <time>2021-08-21T10:34:54Z</time>
      </trkpt>
      <trkpt lat="43.384868" lon="-3.318122">
        <time>2021-08-21T10:34:57Z</time>
      </trkpt>
      <trkpt lat="43.386326" lon="-3.318424">
        <time>2021-08-21T10:35:06Z</time>
      </trkpt>
      <trkpt lat="43.387844" lon="-3.318727">
        <time>2021-08-21T10:35:15Z</time>
      </trkpt>
      <trkpt lat="43.388337" lon="-3.318588">
        <time>2021-08-21T10:35:18Z</time>
      </trkpt>
      <trkpt lat="43.388747" lon="-3.318249">
        <time>2021-08-21T10:35:21Z</time>
      </trkpt>
      <trkpt lat="43.389067" lon="-3.317822">
        <time>2021-08-21T10:35:24Z</time>
      </trkpt>
      <trkpt lat="43.389067" lon="-3.317822">
        <time>2021-08-21T10:35:24Z</time>
      </trkpt>
      <trkpt lat="43.389239" lon="-3.317325">
        <time>2021-08-21T10:35:27Z</time>
      </trkpt>
      <trkpt lat="43.389723" lon="-3.316473">
        <time>2021-08-21T10:35:33Z</time>
      </trkpt>
      <trkpt lat="43.390137" lon="-3.316285">
        <time>2021-08-21T10:35:36Z</time>
      </trkpt>
      <trkpt lat="43.390549" lon="-3.315975">
        <time>2021-08-21T10:35:39Z</time>
      </trkpt>
      <trkpt lat="43.391719" lon="-3.31475">
        <time>2021-08-21T10:35:48Z</time>
      </trkpt>
      <trkpt lat="43.392201" lon="-3.314684">
        <time>2021-08-21T10:35:51Z</time>
      </trkpt>
      <trkpt lat="43.392707" lon="-3.31473">
        <time>2021-08-21T10:35:54Z</time>
      </trkpt>
      <trkpt lat="43.395509" lon="-3.314828">
        <time>2021-08-21T10:36:12Z</time>
      </trkpt>
      <trkpt lat="43.397312" lon="-3.315581">
        <time>2021-08-21T10:36:24Z</time>
      </trkpt>
      <trkpt lat="43.399481" lon="-3.316548">
        <time>2021-08-21T10:36:39Z</time>
      </trkpt>
      <trkpt lat="43.400786" lon="-3.316362">
        <time>2021-08-21T10:36:48Z</time>
      </trkpt>
      <trkpt lat="43.401934" lon="-3.315579">
        <time>2021-08-21T10:36:57Z</time>
      </trkpt>
      <trkpt lat="43.401934" lon="-3.315579">
        <time>2021-08-21T10:36:57Z</time>
      </trkpt>
      <trkpt lat="43.402182" lon="-3.315072">
        <time>2021-08-21T10:37:00Z</time>
      </trkpt>
      <trkpt lat="43.403402" lon="-3.311914">
        <time>2021-08-21T10:37:21Z</time>
      </trkpt>
      <trkpt lat="43.403393" lon="-3.311326">
        <time>2021-08-21T10:37:27Z</time>
      </trkpt>
      <trkpt lat="43.403083" lon="-3.309736">
        <time>2021-08-21T10:37:39Z</time>
      </trkpt>
      <trkpt lat="43.403006" lon="-3.308659">
        <time>2021-08-21T10:37:45Z</time>
      </trkpt>
      <trkpt lat="43.403155" lon="-3.304018">
        <time>2021-08-21T10:38:06Z</time>
      </trkpt>
      <trkpt lat="43.403311" lon="-3.303396">
        <time>2021-08-21T10:38:09Z</time>
      </trkpt>
      <trkpt lat="43.403553" lon="-3.302806">
        <time>2021-08-21T10:38:15Z</time>
      </trkpt>
      <trkpt lat="43.403693" lon="-3.302594">
        <time>2021-08-21T10:38:30Z</time>
      </trkpt>
      <trkpt lat="43.40365" lon="-3.302618">
        <time>2021-08-21T10:38:33Z</time>
      </trkpt>
      <trkpt lat="43.403602" lon="-3.302608">
        <time>2021-08-21T10:39:53Z</time>
      </trkpt>
      <trkpt lat="43.403602" lon="-3.302608">
        <time>2021-08-21T10:40:01Z</time>
      </trkpt>
      <trkpt lat="43.403557" lon="-3.302666">
        <time>2021-08-21T10:40:15Z</time>
      </trkpt>
      <trkpt lat="43.403552" lon="-3.302704">
        <time>2021-08-21T10:40:18Z</time>
      </trkpt>
      <trkpt lat="43.403591" lon="-3.302565">
        <time>2021-08-21T10:40:21Z</time>
      </trkpt>
      <trkpt lat="43.404243" lon="-3.299818">
        <time>2021-08-21T10:40:45Z</time>
      </trkpt>
      <trkpt lat="43.404193" lon="-3.298845">
        <time>2021-08-21T10:40:57Z</time>
      </trkpt>
      <trkpt lat="43.40393" lon="-3.297308">
        <time>2021-08-21T10:41:09Z</time>
      </trkpt>
      <trkpt lat="43.402869" lon="-3.291279">
        <time>2021-08-21T10:41:42Z</time>
      </trkpt>
      <trkpt lat="43.401591" lon="-3.28511">
        <time>2021-08-21T10:42:12Z</time>
      </trkpt>
      <trkpt lat="43.400587" lon="-3.281404">
        <time>2021-08-21T10:42:30Z</time>
      </trkpt>
      <trkpt lat="43.399502" lon="-3.279291">
        <time>2021-08-21T10:42:42Z</time>
      </trkpt>
      <trkpt lat="43.398713" lon="-3.277607">
        <time>2021-08-21T10:42:51Z</time>
      </trkpt>
      <trkpt lat="43.398378" lon="-3.27563">
        <time>2021-08-21T10:43:00Z</time>
      </trkpt>
      <trkpt lat="43.398338" lon="-3.272961">
        <time>2021-08-21T10:43:12Z</time>
      </trkpt>
      <trkpt lat="43.39843" lon="-3.272304">
        <time>2021-08-21T10:43:15Z</time>
      </trkpt>
      <trkpt lat="43.398988" lon="-3.270432">
        <time>2021-08-21T10:43:24Z</time>
      </trkpt>
      <trkpt lat="43.400388" lon="-3.267504">
        <time>2021-08-21T10:43:39Z</time>
      </trkpt>
      <trkpt lat="43.400768" lon="-3.266218">
        <time>2021-08-21T10:43:45Z</time>
      </trkpt>
      <trkpt lat="43.400794" lon="-3.264869">
        <time>2021-08-21T10:43:51Z</time>
      </trkpt>
      <trkpt lat="43.40055" lon="-3.261259">
        <time>2021-08-21T10:44:06Z</time>
      </trkpt>
      <trkpt lat="43.400132" lon="-3.254991">
        <time>2021-08-21T10:44:33Z</time>
      </trkpt>
      <trkpt lat="43.399876" lon="-3.253615">
        <time>2021-08-21T10:44:39Z</time>
      </trkpt>
      <trkpt lat="43.39842" lon="-3.249075">
        <time>2021-08-21T10:45:00Z</time>
      </trkpt>
      <trkpt lat="43.39828" lon="-3.248358">
        <time>2021-08-21T10:45:03Z</time>
      </trkpt>
      <trkpt lat="43.397686" lon="-3.24261">
        <time>2021-08-21T10:45:27Z</time>
      </trkpt>
      <trkpt lat="43.397404" lon="-3.241141">
        <time>2021-08-21T10:45:33Z</time>
      </trkpt>
      <trkpt lat="43.395847" lon="-3.236654">
        <time>2021-08-21T10:45:54Z</time>
      </trkpt>
      <trkpt lat="43.395847" lon="-3.236654">
        <time>2021-08-21T10:45:54Z</time>
      </trkpt>
      <trkpt lat="43.393817" lon="-3.232886">
        <time>2021-08-21T10:46:15Z</time>
      </trkpt>
      <trkpt lat="43.392808" lon="-3.23176">
        <time>2021-08-21T10:46:24Z</time>
      </trkpt>
      <trkpt lat="43.392808" lon="-3.23176">
        <time>2021-08-21T10:46:24Z</time>
      </trkpt>
      <trkpt lat="43.392039" lon="-3.231546">
        <time>2021-08-21T10:46:30Z</time>
      </trkpt>
      <trkpt lat="43.391774" lon="-3.231568">
        <time>2021-08-21T10:46:33Z</time>
      </trkpt>
      <trkpt lat="43.391585" lon="-3.231704">
        <time>2021-08-21T10:46:36Z</time>
      </trkpt>
      <trkpt lat="43.391435" lon="-3.231878">
        <time>2021-08-21T10:46:39Z</time>
      </trkpt>
      <trkpt lat="43.391263" lon="-3.231795">
        <time>2021-08-21T10:46:42Z</time>
      </trkpt>
      <trkpt lat="43.390764" lon="-3.23137">
        <time>2021-08-21T10:46:48Z</time>
      </trkpt>
      <trkpt lat="43.388789" lon="-3.229758">
        <time>2021-08-21T10:47:18Z</time>
      </trkpt>
      <trkpt lat="43.388789" lon="-3.229758">
        <time>2021-08-21T10:47:18Z</time>
      </trkpt>
      <trkpt lat="43.38541" lon="-3.225686">
        <time>2021-08-21T10:48:39Z</time>
      </trkpt>
      <trkpt lat="43.384218" lon="-3.224192">
        <time>2021-08-21T10:49:03Z</time>
      </trkpt>
      <trkpt lat="43.384143" lon="-3.223881">
        <time>2021-08-21T10:49:06Z</time>
      </trkpt>
      <trkpt lat="43.383939" lon="-3.221961">
        <time>2021-08-21T10:49:27Z</time>
      </trkpt>
      <trkpt lat="43.383928" lon="-3.22181">
        <time>2021-08-21T10:49:36Z</time>
      </trkpt>
      <trkpt lat="43.38388" lon="-3.221273">
        <time>2021-08-21T10:49:48Z</time>
      </trkpt>
      <trkpt lat="43.38376" lon="-3.221017">
        <time>2021-08-21T10:50:13Z</time>
      </trkpt>
      <trkpt lat="43.38376" lon="-3.221017">
        <time>2021-08-21T10:50:13Z</time>
      </trkpt>
      <trkpt lat="43.383522" lon="-3.220924">
        <time>2021-08-21T10:53:06Z</time>
      </trkpt>
      <trkpt lat="43.383522" lon="-3.220924">
        <time>2021-08-21T10:53:07Z</time>
      </trkpt>
      <trkpt lat="43.383576" lon="-3.2211">
        <time>2021-08-21T10:54:02Z</time>
      </trkpt>
      <trkpt lat="43.38353" lon="-3.221062">
        <time>2021-08-21T10:54:05Z</time>
      </trkpt>
      <trkpt lat="43.383174" lon="-3.220853">
        <time>2021-08-21T10:54:14Z</time>
      </trkpt>
      <trkpt lat="43.382858" lon="-3.22084">
        <time>2021-08-21T10:54:23Z</time>
      </trkpt>
      <trkpt lat="43.382801" lon="-3.22088">
        <time>2021-08-21T10:54:41Z</time>
      </trkpt>
      <trkpt lat="43.382749" lon="-3.220902">
        <time>2021-08-21T10:54:44Z</time>
      </trkpt>
      <trkpt lat="43.382638" lon="-3.220798">
        <time>2021-08-21T10:54:53Z</time>
      </trkpt>
      <trkpt lat="43.382635" lon="-3.220666">
        <time>2021-08-21T10:54:59Z</time>
      </trkpt>
      <trkpt lat="43.382468" lon="-3.220562">
        <time>2021-08-21T10:55:05Z</time>
      </trkpt>
      <trkpt lat="43.3819" lon="-3.220179">
        <time>2021-08-21T10:55:20Z</time>
      </trkpt>
      <trkpt lat="43.381449" lon="-3.219868">
        <time>2021-08-21T10:55:32Z</time>
      </trkpt>
      <trkpt lat="43.381337" lon="-3.21979">
        <time>2021-08-21T10:55:35Z</time>
      </trkpt>
      <trkpt lat="43.381164" lon="-3.219599">
        <time>2021-08-21T10:55:38Z</time>
      </trkpt>
      <trkpt lat="43.38109" lon="-3.219292">
        <time>2021-08-21T10:55:41Z</time>
      </trkpt>
      <trkpt lat="43.381089" lon="-3.218968">
        <time>2021-08-21T10:55:44Z</time>
      </trkpt>
      <trkpt lat="43.381134" lon="-3.21879">
        <time>2021-08-21T10:55:47Z</time>
      </trkpt>
      <trkpt lat="43.381066" lon="-3.218277">
        <time>2021-08-21T10:55:56Z</time>
      </trkpt>
      <trkpt lat="43.380986" lon="-3.217984">
        <time>2021-08-21T10:55:59Z</time>
      </trkpt>
      <trkpt lat="43.380797" lon="-3.217738">
        <time>2021-08-21T10:56:02Z</time>
      </trkpt>
      <trkpt lat="43.380581" lon="-3.217537">
        <time>2021-08-21T10:56:05Z</time>
      </trkpt>
      <trkpt lat="43.380581" lon="-3.217537">
        <time>2021-08-21T10:56:05Z</time>
      </trkpt>
      <trkpt lat="43.379989" lon="-3.217167">
        <time>2021-08-21T10:56:11Z</time>
      </trkpt>
      <trkpt lat="43.379989" lon="-3.217167">
        <time>2021-08-21T10:56:12Z</time>
      </trkpt>
      <trkpt lat="43.3762" lon="-3.215676">
        <time>2021-08-21T10:56:47Z</time>
      </trkpt>
      <trkpt lat="43.372384" lon="-3.214376">
        <time>2021-08-21T10:57:32Z</time>
      </trkpt>
      <trkpt lat="43.371818" lon="-3.214453">
        <time>2021-08-21T10:57:38Z</time>
      </trkpt>
      <trkpt lat="43.370663" lon="-3.214656">
        <time>2021-08-21T10:57:56Z</time>
      </trkpt>
      <trkpt lat="43.370188" lon="-3.21477">
        <time>2021-08-21T10:58:05Z</time>
      </trkpt>
      <trkpt lat="43.369271" lon="-3.214894">
        <time>2021-08-21T10:58:23Z</time>
      </trkpt>
      <trkpt lat="43.369233" lon="-3.21473">
        <time>2021-08-21T10:58:26Z</time>
      </trkpt>
      <trkpt lat="43.369247" lon="-3.213889">
        <time>2021-08-21T10:58:35Z</time>
      </trkpt>
      <trkpt lat="43.369131" lon="-3.212294">
        <time>2021-08-21T10:58:53Z</time>
      </trkpt>
      <trkpt lat="43.369191" lon="-3.211881">
        <time>2021-08-21T10:58:59Z</time>
      </trkpt>
      <trkpt lat="43.369621" lon="-3.2092">
        <time>2021-08-21T10:59:23Z</time>
      </trkpt>
      <trkpt lat="43.369375" lon="-3.20722">
        <time>2021-08-21T10:59:38Z</time>
      </trkpt>
      <trkpt lat="43.368974" lon="-3.205918">
        <time>2021-08-21T10:59:47Z</time>
      </trkpt>
      <trkpt lat="43.368991" lon="-3.205506">
        <time>2021-08-21T10:59:50Z</time>
      </trkpt>
      <trkpt lat="43.369159" lon="-3.205098">
        <time>2021-08-21T10:59:53Z</time>
      </trkpt>
      <trkpt lat="43.369827" lon="-3.20334">
        <time>2021-08-21T11:00:05Z</time>
      </trkpt>
      <trkpt lat="43.369724" lon="-3.202888">
        <time>2021-08-21T11:00:08Z</time>
      </trkpt>
      <trkpt lat="43.369508" lon="-3.202526">
        <time>2021-08-21T11:00:11Z</time>
      </trkpt>
      <trkpt lat="43.367776" lon="-3.20111">
        <time>2021-08-21T11:00:26Z</time>
      </trkpt>
      <trkpt lat="43.366072" lon="-3.199779">
        <time>2021-08-21T11:00:41Z</time>
      </trkpt>
      <trkpt lat="43.363284" lon="-3.198801">
        <time>2021-08-21T11:01:02Z</time>
      </trkpt>
      <trkpt lat="43.363284" lon="-3.198801">
        <time>2021-08-21T11:01:02Z</time>
      </trkpt>
      <trkpt lat="43.362918" lon="-3.198876">
        <time>2021-08-21T11:01:05Z</time>
      </trkpt>
      <trkpt lat="43.362" lon="-3.199211">
        <time>2021-08-21T11:01:14Z</time>
      </trkpt>
      <trkpt lat="43.361762" lon="-3.199612">
        <time>2021-08-21T11:01:17Z</time>
      </trkpt>
      <trkpt lat="43.361506" lon="-3.200625">
        <time>2021-08-21T11:01:23Z</time>
      </trkpt>
      <trkpt lat="43.361202" lon="-3.201699">
        <time>2021-08-21T11:01:32Z</time>
      </trkpt>
      <trkpt lat="43.360823" lon="-3.202337">
        <time>2021-08-21T11:01:38Z</time>
      </trkpt>
      <trkpt lat="43.360552" lon="-3.202442">
        <time>2021-08-21T11:01:41Z</time>
      </trkpt>
      <trkpt lat="43.36026" lon="-3.202455">
        <time>2021-08-21T11:01:44Z</time>
      </trkpt>
      <trkpt lat="43.359353" lon="-3.202392">
        <time>2021-08-21T11:01:56Z</time>
      </trkpt>
      <trkpt lat="43.359198" lon="-3.202136">
        <time>2021-08-21T11:01:59Z</time>
      </trkpt>
      <trkpt lat="43.35894" lon="-3.201465">
        <time>2021-08-21T11:02:05Z</time>
      </trkpt>
      <trkpt lat="43.358971" lon="-3.200765">
        <time>2021-08-21T11:02:11Z</time>
      </trkpt>
      <trkpt lat="43.359199" lon="-3.200576">
        <time>2021-08-21T11:02:14Z</time>
      </trkpt>
      <trkpt lat="43.360659" lon="-3.199572">
        <time>2021-08-21T11:02:29Z</time>
      </trkpt>
      <trkpt lat="43.360804" lon="-3.199191">
        <time>2021-08-21T11:02:32Z</time>
      </trkpt>
      <trkpt lat="43.360815" lon="-3.198824">
        <time>2021-08-21T11:02:35Z</time>
      </trkpt>
      <trkpt lat="43.360815" lon="-3.198824">
        <time>2021-08-21T11:02:35Z</time>
      </trkpt>
      <trkpt lat="43.360639" lon="-3.197433">
        <time>2021-08-21T11:02:47Z</time>
      </trkpt>
      <trkpt lat="43.360349" lon="-3.197323">
        <time>2021-08-21T11:02:50Z</time>
      </trkpt>
      <trkpt lat="43.359387" lon="-3.196822">
        <time>2021-08-21T11:02:59Z</time>
      </trkpt>
      <trkpt lat="43.359426" lon="-3.196501">
        <time>2021-08-21T11:03:02Z</time>
      </trkpt>
      <trkpt lat="43.359694" lon="-3.196312">
        <time>2021-08-21T11:03:05Z</time>
      </trkpt>
      <trkpt lat="43.360901" lon="-3.194981">
        <time>2021-08-21T11:03:17Z</time>
      </trkpt>
      <trkpt lat="43.361191" lon="-3.194606">
        <time>2021-08-21T11:03:20Z</time>
      </trkpt>
      <trkpt lat="43.361382" lon="-3.194191">
        <time>2021-08-21T11:03:23Z</time>
      </trkpt>
      <trkpt lat="43.362267" lon="-3.192425">
        <time>2021-08-21T11:03:38Z</time>
      </trkpt>
      <trkpt lat="43.363289" lon="-3.191347">
        <time>2021-08-21T11:03:53Z</time>
      </trkpt>
      <trkpt lat="43.363697" lon="-3.190624">
        <time>2021-08-21T11:04:02Z</time>
      </trkpt>
      <trkpt lat="43.36356" lon="-3.190372">
        <time>2021-08-21T11:04:05Z</time>
      </trkpt>
      <trkpt lat="43.36313" lon="-3.189893">
        <time>2021-08-21T11:04:11Z</time>
      </trkpt>
      <trkpt lat="43.361857" lon="-3.188228">
        <time>2021-08-21T11:04:26Z</time>
      </trkpt>
      <trkpt lat="43.361718" lon="-3.187841">
        <time>2021-08-21T11:04:29Z</time>
      </trkpt>
      <trkpt lat="43.361826" lon="-3.187458">
        <time>2021-08-21T11:04:32Z</time>
      </trkpt>
      <trkpt lat="43.362521" lon="-3.18639">
        <time>2021-08-21T11:04:41Z</time>
      </trkpt>
      <trkpt lat="43.362631" lon="-3.186116">
        <time>2021-08-21T11:04:44Z</time>
      </trkpt>
      <trkpt lat="43.362532" lon="-3.185986">
        <time>2021-08-21T11:04:47Z</time>
      </trkpt>
      <trkpt lat="43.362354" lon="-3.186089">
        <time>2021-08-21T11:04:50Z</time>
      </trkpt>
      <trkpt lat="43.361726" lon="-3.186848">
        <time>2021-08-21T11:04:59Z</time>
      </trkpt>
      <trkpt lat="43.360928" lon="-3.187977">
        <time>2021-08-21T11:05:11Z</time>
      </trkpt>
      <trkpt lat="43.361008" lon="-3.188273">
        <time>2021-08-21T11:05:14Z</time>
      </trkpt>
      <trkpt lat="43.361278" lon="-3.188777">
        <time>2021-08-21T11:05:20Z</time>
      </trkpt>
      <trkpt lat="43.361144" lon="-3.189037">
        <time>2021-08-21T11:05:23Z</time>
      </trkpt>
      <trkpt lat="43.360913" lon="-3.188995">
        <time>2021-08-21T11:05:26Z</time>
      </trkpt>
      <trkpt lat="43.360686" lon="-3.188707">
        <time>2021-08-21T11:05:29Z</time>
      </trkpt>
      <trkpt lat="43.360035" lon="-3.187923">
        <time>2021-08-21T11:05:38Z</time>
      </trkpt>
      <trkpt lat="43.359924" lon="-3.186975">
        <time>2021-08-21T11:05:44Z</time>
      </trkpt>
      <trkpt lat="43.359712" lon="-3.18653">
        <time>2021-08-21T11:05:47Z</time>
      </trkpt>
      <trkpt lat="43.359712" lon="-3.18653">
        <time>2021-08-21T11:05:47Z</time>
      </trkpt>
      <trkpt lat="43.358552" lon="-3.185259">
        <time>2021-08-21T11:05:59Z</time>
      </trkpt>
      <trkpt lat="43.355887" lon="-3.183184">
        <time>2021-08-21T11:06:20Z</time>
      </trkpt>
      <trkpt lat="43.355887" lon="-3.183184">
        <time>2021-08-21T11:06:20Z</time>
      </trkpt>
      <trkpt lat="43.353864" lon="-3.182495">
        <time>2021-08-21T11:06:35Z</time>
      </trkpt>
      <trkpt lat="43.35381" lon="-3.182118">
        <time>2021-08-21T11:06:38Z</time>
      </trkpt>
      <trkpt lat="43.353947" lon="-3.181674">
        <time>2021-08-21T11:06:41Z</time>
      </trkpt>
      <trkpt lat="43.354422" lon="-3.179769">
        <time>2021-08-21T11:06:53Z</time>
      </trkpt>
      <trkpt lat="43.354239" lon="-3.179272">
        <time>2021-08-21T11:06:56Z</time>
      </trkpt>
      <trkpt lat="43.354239" lon="-3.179272">
        <time>2021-08-21T11:06:56Z</time>
      </trkpt>
      <trkpt lat="43.35409" lon="-3.17841">
        <time>2021-08-21T11:07:02Z</time>
      </trkpt>
      <trkpt lat="43.354333" lon="-3.178084">
        <time>2021-08-21T11:07:05Z</time>
      </trkpt>
      <trkpt lat="43.355167" lon="-3.176987">
        <time>2021-08-21T11:07:14Z</time>
      </trkpt>
      <trkpt lat="43.355235" lon="-3.176688">
        <time>2021-08-21T11:07:17Z</time>
      </trkpt>
      <trkpt lat="43.355181" lon="-3.176465">
        <time>2021-08-21T11:07:20Z</time>
      </trkpt>
      <trkpt lat="43.355166" lon="-3.176132">
        <time>2021-08-21T11:07:23Z</time>
      </trkpt>
      <trkpt lat="43.355065" lon="-3.175723">
        <time>2021-08-21T11:07:26Z</time>
      </trkpt>
      <trkpt lat="43.354458" lon="-3.174726">
        <time>2021-08-21T11:07:35Z</time>
      </trkpt>
      <trkpt lat="43.354205" lon="-3.174859">
        <time>2021-08-21T11:07:38Z</time>
      </trkpt>
      <trkpt lat="43.353941" lon="-3.17489">
        <time>2021-08-21T11:07:41Z</time>
      </trkpt>
      <trkpt lat="43.353941" lon="-3.17489">
        <time>2021-08-21T11:07:41Z</time>
      </trkpt>
      <trkpt lat="43.353418" lon="-3.17502">
        <time>2021-08-21T11:07:47Z</time>
      </trkpt>
      <trkpt lat="43.353002" lon="-3.175573">
        <time>2021-08-21T11:07:53Z</time>
      </trkpt>
      <trkpt lat="43.352388" lon="-3.17559">
        <time>2021-08-21T11:07:59Z</time>
      </trkpt>
      <trkpt lat="43.352135" lon="-3.175385">
        <time>2021-08-21T11:08:02Z</time>
      </trkpt>
      <trkpt lat="43.352004" lon="-3.174938">
        <time>2021-08-21T11:08:05Z</time>
      </trkpt>
      <trkpt lat="43.351728" lon="-3.174017">
        <time>2021-08-21T11:08:11Z</time>
      </trkpt>
      <trkpt lat="43.351421" lon="-3.173791">
        <time>2021-08-21T11:08:14Z</time>
      </trkpt>
      <trkpt lat="43.350441" lon="-3.173226">
        <time>2021-08-21T11:08:23Z</time>
      </trkpt>
      <trkpt lat="43.349876" lon="-3.17291">
        <time>2021-08-21T11:08:29Z</time>
      </trkpt>
      <trkpt lat="43.349829" lon="-3.17268">
        <time>2021-08-21T11:08:32Z</time>
      </trkpt>
      <trkpt lat="43.34998" lon="-3.172597">
        <time>2021-08-21T11:08:35Z</time>
      </trkpt>
      <trkpt lat="43.350254" lon="-3.172507">
        <time>2021-08-21T11:08:38Z</time>
      </trkpt>
      <trkpt lat="43.350444" lon="-3.172189">
        <time>2021-08-21T11:08:41Z</time>
      </trkpt>
      <trkpt lat="43.350457" lon="-3.171785">
        <time>2021-08-21T11:08:44Z</time>
      </trkpt>
      <trkpt lat="43.350535" lon="-3.1708">
        <time>2021-08-21T11:08:50Z</time>
      </trkpt>
      <trkpt lat="43.350601" lon="-3.170316">
        <time>2021-08-21T11:08:53Z</time>
      </trkpt>
      <trkpt lat="43.350519" lon="-3.169862">
        <time>2021-08-21T11:08:56Z</time>
      </trkpt>
      <trkpt lat="43.350252" lon="-3.169424">
        <time>2021-08-21T11:08:59Z</time>
      </trkpt>
      <trkpt lat="43.349335" lon="-3.168">
        <time>2021-08-21T11:09:08Z</time>
      </trkpt>
      <trkpt lat="43.346265" lon="-3.162688">
        <time>2021-08-21T11:09:38Z</time>
      </trkpt>
      <trkpt lat="43.343063" lon="-3.157638">
        <time>2021-08-21T11:10:08Z</time>
      </trkpt>
      <trkpt lat="43.339701" lon="-3.152781">
        <time>2021-08-21T11:10:47Z</time>
      </trkpt>
      <trkpt lat="43.339701" lon="-3.152781">
        <time>2021-08-21T11:10:47Z</time>
      </trkpt>
      <trkpt lat="43.338817" lon="-3.151527">
        <time>2021-08-21T11:10:56Z</time>
      </trkpt>
      <trkpt lat="43.338326" lon="-3.150557">
        <time>2021-08-21T11:11:02Z</time>
      </trkpt>
      <trkpt lat="43.337904" lon="-3.149505">
        <time>2021-08-21T11:11:08Z</time>
      </trkpt>
      <trkpt lat="43.337525" lon="-3.147705">
        <time>2021-08-21T11:11:17Z</time>
      </trkpt>
      <trkpt lat="43.337258" lon="-3.14719">
        <time>2021-08-21T11:11:20Z</time>
      </trkpt>
      <trkpt lat="43.33486" lon="-3.141484">
        <time>2021-08-21T11:11:53Z</time>
      </trkpt>
      <trkpt lat="43.334128" lon="-3.14058">
        <time>2021-08-21T11:11:59Z</time>
      </trkpt>
      <trkpt lat="43.332993" lon="-3.13943">
        <time>2021-08-21T11:12:08Z</time>
      </trkpt>
      <trkpt lat="43.331274" lon="-3.137206">
        <time>2021-08-21T11:12:23Z</time>
      </trkpt>
      <trkpt lat="43.331274" lon="-3.137206">
        <time>2021-08-21T11:12:23Z</time>
      </trkpt>
      <trkpt lat="43.330074" lon="-3.133693">
        <time>2021-08-21T11:12:41Z</time>
      </trkpt>
      <trkpt lat="43.329907" lon="-3.133169">
        <time>2021-08-21T11:12:44Z</time>
      </trkpt>
      <trkpt lat="43.329617" lon="-3.132792">
        <time>2021-08-21T11:12:47Z</time>
      </trkpt>
      <trkpt lat="43.328759" lon="-3.132286">
        <time>2021-08-21T11:12:53Z</time>
      </trkpt>
      <trkpt lat="43.328759" lon="-3.132286">
        <time>2021-08-21T11:12:53Z</time>
      </trkpt>
      <trkpt lat="43.327813" lon="-3.131813">
        <time>2021-08-21T11:12:59Z</time>
      </trkpt>
      <trkpt lat="43.326631" lon="-3.130732">
        <time>2021-08-21T11:13:08Z</time>
      </trkpt>
      <trkpt lat="43.326198" lon="-3.129906">
        <time>2021-08-21T11:13:14Z</time>
      </trkpt>
      <trkpt lat="43.325829" lon="-3.129787">
        <time>2021-08-21T11:13:17Z</time>
      </trkpt>
      <trkpt lat="43.324986" lon="-3.129828">
        <time>2021-08-21T11:13:23Z</time>
      </trkpt>
      <trkpt lat="43.324586" lon="-3.129724">
        <time>2021-08-21T11:13:26Z</time>
      </trkpt>
      <trkpt lat="43.324288" lon="-3.129429">
        <time>2021-08-21T11:13:29Z</time>
      </trkpt>
      <trkpt lat="43.323559" lon="-3.128084">
        <time>2021-08-21T11:13:38Z</time>
      </trkpt>
      <trkpt lat="43.323306" lon="-3.127007">
        <time>2021-08-21T11:13:44Z</time>
      </trkpt>
      <trkpt lat="43.322488" lon="-3.125334">
        <time>2021-08-21T11:13:56Z</time>
      </trkpt>
      <trkpt lat="43.322636" lon="-3.125085">
        <time>2021-08-21T11:13:59Z</time>
      </trkpt>
      <trkpt lat="43.322918" lon="-3.125153">
        <time>2021-08-21T11:14:02Z</time>
      </trkpt>
      <trkpt lat="43.323251" lon="-3.125415">
        <time>2021-08-21T11:14:05Z</time>
      </trkpt>
      <trkpt lat="43.323904" lon="-3.125909">
        <time>2021-08-21T11:14:11Z</time>
      </trkpt>
      <trkpt lat="43.324084" lon="-3.125783">
        <time>2021-08-21T11:14:14Z</time>
      </trkpt>
      <trkpt lat="43.324024" lon="-3.125454">
        <time>2021-08-21T11:14:17Z</time>
      </trkpt>
      <trkpt lat="43.322266" lon="-3.122287">
        <time>2021-08-21T11:14:41Z</time>
      </trkpt>
      <trkpt lat="43.322016" lon="-3.121468">
        <time>2021-08-21T11:14:47Z</time>
      </trkpt>
      <trkpt lat="43.321515" lon="-3.119465">
        <time>2021-08-21T11:15:02Z</time>
      </trkpt>
      <trkpt lat="43.321521" lon="-3.118729">
        <time>2021-08-21T11:15:08Z</time>
      </trkpt>
      <trkpt lat="43.322346" lon="-3.115562">
        <time>2021-08-21T11:15:38Z</time>
      </trkpt>
      <trkpt lat="43.322346" lon="-3.115562">
        <time>2021-08-21T11:15:38Z</time>
      </trkpt>
      <trkpt lat="43.322507" lon="-3.114761">
        <time>2021-08-21T11:15:47Z</time>
      </trkpt>
      <trkpt lat="43.322575" lon="-3.114331">
        <time>2021-08-21T11:16:35Z</time>
      </trkpt>
      <trkpt lat="43.323589" lon="-3.110718">
        <time>2021-08-21T11:16:59Z</time>
      </trkpt>
      <trkpt lat="43.323439" lon="-3.110186">
        <time>2021-08-21T11:17:02Z</time>
      </trkpt>
      <trkpt lat="43.323189" lon="-3.109705">
        <time>2021-08-21T11:17:05Z</time>
      </trkpt>
      <trkpt lat="43.322979" lon="-3.109154">
        <time>2021-08-21T11:17:08Z</time>
      </trkpt>
      <trkpt lat="43.321812" lon="-3.104588">
        <time>2021-08-21T11:17:32Z</time>
      </trkpt>
      <trkpt lat="43.321321" lon="-3.103547">
        <time>2021-08-21T11:17:38Z</time>
      </trkpt>
      <trkpt lat="43.320793" lon="-3.102636">
        <time>2021-08-21T11:17:44Z</time>
      </trkpt>
      <trkpt lat="43.320271" lon="-3.10177">
        <time>2021-08-21T11:17:50Z</time>
      </trkpt>
      <trkpt lat="43.319169" lon="-3.098062">
        <time>2021-08-21T11:18:14Z</time>
      </trkpt>
      <trkpt lat="43.318108" lon="-3.093973">
        <time>2021-08-21T11:18:56Z</time>
      </trkpt>
      <trkpt lat="43.317853" lon="-3.092338">
        <time>2021-08-21T11:19:08Z</time>
      </trkpt>
      <trkpt lat="43.317876" lon="-3.091908">
        <time>2021-08-21T11:19:11Z</time>
      </trkpt>
      <trkpt lat="43.318241" lon="-3.087774">
        <time>2021-08-21T11:19:35Z</time>
      </trkpt>
      <trkpt lat="43.318723" lon="-3.086697">
        <time>2021-08-21T11:19:41Z</time>
      </trkpt>
      <trkpt lat="43.318938" lon="-3.085445">
        <time>2021-08-21T11:19:47Z</time>
      </trkpt>
      <trkpt lat="43.319225" lon="-3.084273">
        <time>2021-08-21T11:19:53Z</time>
      </trkpt>
      <trkpt lat="43.321699" lon="-3.080042">
        <time>2021-08-21T11:20:20Z</time>
      </trkpt>
      <trkpt lat="43.321699" lon="-3.080042">
        <time>2021-08-21T11:20:20Z</time>
      </trkpt>
      <trkpt lat="43.322371" lon="-3.07965">
        <time>2021-08-21T11:20:26Z</time>
      </trkpt>
      <trkpt lat="43.322472" lon="-3.079401">
        <time>2021-08-21T11:20:29Z</time>
      </trkpt>
      <trkpt lat="43.322388" lon="-3.079161">
        <time>2021-08-21T11:20:32Z</time>
      </trkpt>
      <trkpt lat="43.322159" lon="-3.079114">
        <time>2021-08-21T11:20:35Z</time>
      </trkpt>
      <trkpt lat="43.322019" lon="-3.079082">
        <time>2021-08-21T11:20:59Z</time>
      </trkpt>
      <trkpt lat="43.322099" lon="-3.079038">
        <time>2021-08-21T11:21:02Z</time>
      </trkpt>
      <trkpt lat="43.322486" lon="-3.078948">
        <time>2021-08-21T11:21:08Z</time>
      </trkpt>
      <trkpt lat="43.322705" lon="-3.078763">
        <time>2021-08-21T11:21:11Z</time>
      </trkpt>
      <trkpt lat="43.322809" lon="-3.0784">
        <time>2021-08-21T11:21:14Z</time>
      </trkpt>
      <trkpt lat="43.322794" lon="-3.077931">
        <time>2021-08-21T11:21:17Z</time>
      </trkpt>
      <trkpt lat="43.322501" lon="-3.076338">
        <time>2021-08-21T11:21:26Z</time>
      </trkpt>
      <trkpt lat="43.322105" lon="-3.075262">
        <time>2021-08-21T11:21:32Z</time>
      </trkpt>
      <trkpt lat="43.321809" lon="-3.074205">
        <time>2021-08-21T11:21:38Z</time>
      </trkpt>
      <trkpt lat="43.321933" lon="-3.072719">
        <time>2021-08-21T11:21:47Z</time>
      </trkpt>
      <trkpt lat="43.322305" lon="-3.070841">
        <time>2021-08-21T11:21:59Z</time>
      </trkpt>
      <trkpt lat="43.321793" lon="-3.069321">
        <time>2021-08-21T11:22:14Z</time>
      </trkpt>
      <trkpt lat="43.321793" lon="-3.069321">
        <time>2021-08-21T11:22:14Z</time>
      </trkpt>
      <trkpt lat="43.321685" lon="-3.068968">
        <time>2021-08-21T11:22:20Z</time>
      </trkpt>
      <trkpt lat="43.321656" lon="-3.068652">
        <time>2021-08-21T11:22:23Z</time>
      </trkpt>
      <trkpt lat="43.321671" lon="-3.067551">
        <time>2021-08-21T11:22:32Z</time>
      </trkpt>
      <trkpt lat="43.321403" lon="-3.066661">
        <time>2021-08-21T11:22:38Z</time>
      </trkpt>
      <trkpt lat="43.320662" lon="-3.065462">
        <time>2021-08-21T11:22:47Z</time>
      </trkpt>
      <trkpt lat="43.319508" lon="-3.063755">
        <time>2021-08-21T11:22:59Z</time>
      </trkpt>
      <trkpt lat="43.319508" lon="-3.063755">
        <time>2021-08-21T11:22:59Z</time>
      </trkpt>
      <trkpt lat="43.318977" lon="-3.061771">
        <time>2021-08-21T11:23:11Z</time>
      </trkpt>
      <trkpt lat="43.318683" lon="-3.061416">
        <time>2021-08-21T11:23:14Z</time>
      </trkpt>
      <trkpt lat="43.317991" lon="-3.060846">
        <time>2021-08-21T11:23:20Z</time>
      </trkpt>
      <trkpt lat="43.317641" lon="-3.060803">
        <time>2021-08-21T11:23:23Z</time>
      </trkpt>
      <trkpt lat="43.316886" lon="-3.061006">
        <time>2021-08-21T11:23:32Z</time>
      </trkpt>
      <trkpt lat="43.316182" lon="-3.061346">
        <time>2021-08-21T11:23:38Z</time>
      </trkpt>
      <trkpt lat="43.315758" lon="-3.061418">
        <time>2021-08-21T11:23:41Z</time>
      </trkpt>
      <trkpt lat="43.314994" lon="-3.061374">
        <time>2021-08-21T11:23:47Z</time>
      </trkpt>
      <trkpt lat="43.314662" lon="-3.061139">
        <time>2021-08-21T11:23:50Z</time>
      </trkpt>
      <trkpt lat="43.31216" lon="-3.058871">
        <time>2021-08-21T11:24:14Z</time>
      </trkpt>
      <trkpt lat="43.31216" lon="-3.058871">
        <time>2021-08-21T11:24:14Z</time>
      </trkpt>
      <trkpt lat="43.310897" lon="-3.056649">
        <time>2021-08-21T11:24:32Z</time>
      </trkpt>
      <trkpt lat="43.310636" lon="-3.056327">
        <time>2021-08-21T11:24:41Z</time>
      </trkpt>
      <trkpt lat="43.310619" lon="-3.056307">
        <time>2021-08-21T11:25:02Z</time>
      </trkpt>
      <trkpt lat="43.310271" lon="-3.055945">
        <time>2021-08-21T11:25:08Z</time>
      </trkpt>
      <trkpt lat="43.310042" lon="-3.055779">
        <time>2021-08-21T11:25:11Z</time>
      </trkpt>
      <trkpt lat="43.309602" lon="-3.055216">
        <time>2021-08-21T11:25:17Z</time>
      </trkpt>
      <trkpt lat="43.30955" lon="-3.054755">
        <time>2021-08-21T11:25:20Z</time>
      </trkpt>
      <trkpt lat="43.30951" lon="-3.054005">
        <time>2021-08-21T11:25:29Z</time>
      </trkpt>
      <trkpt lat="43.309322" lon="-3.053248">
        <time>2021-08-21T11:25:38Z</time>
      </trkpt>
      <trkpt lat="43.30799" lon="-3.051331">
        <time>2021-08-21T11:25:53Z</time>
      </trkpt>
      <trkpt lat="43.307268" lon="-3.050835">
        <time>2021-08-21T11:25:59Z</time>
      </trkpt>
      <trkpt lat="43.306966" lon="-3.050344">
        <time>2021-08-21T11:26:02Z</time>
      </trkpt>
      <trkpt lat="43.306671" lon="-3.04901">
        <time>2021-08-21T11:26:08Z</time>
      </trkpt>
      <trkpt lat="43.30655" lon="-3.048301">
        <time>2021-08-21T11:26:11Z</time>
      </trkpt>
      <trkpt lat="43.306266" lon="-3.044841">
        <time>2021-08-21T11:26:26Z</time>
      </trkpt>
      <trkpt lat="43.306858" lon="-3.042469">
        <time>2021-08-21T11:26:38Z</time>
      </trkpt>
      <trkpt lat="43.306885" lon="-3.041514">
        <time>2021-08-21T11:26:44Z</time>
      </trkpt>
      <trkpt lat="43.30662" lon="-3.041118">
        <time>2021-08-21T11:26:47Z</time>
      </trkpt>
      <trkpt lat="43.305808" lon="-3.040358">
        <time>2021-08-21T11:26:56Z</time>
      </trkpt>
      <trkpt lat="43.305715" lon="-3.040042">
        <time>2021-08-21T11:26:59Z</time>
      </trkpt>
      <trkpt lat="43.305756" lon="-3.039687">
        <time>2021-08-21T11:27:02Z</time>
      </trkpt>
      <trkpt lat="43.305888" lon="-3.03846">
        <time>2021-08-21T11:27:11Z</time>
      </trkpt>
      <trkpt lat="43.305773" lon="-3.03814">
        <time>2021-08-21T11:27:14Z</time>
      </trkpt>
      <trkpt lat="43.305666" lon="-3.037957">
        <time>2021-08-21T11:27:17Z</time>
      </trkpt>
      <trkpt lat="43.305325" lon="-3.037503">
        <time>2021-08-21T11:27:50Z</time>
      </trkpt>
      <trkpt lat="43.305066" lon="-3.037238">
        <time>2021-08-21T11:27:53Z</time>
      </trkpt>
      <trkpt lat="43.303297" lon="-3.035598">
        <time>2021-08-21T11:28:38Z</time>
      </trkpt>
      <trkpt lat="43.30325" lon="-3.035525">
        <time>2021-08-21T11:28:44Z</time>
      </trkpt>
      <trkpt lat="43.30315" lon="-3.035497">
        <time>2021-08-21T11:28:47Z</time>
      </trkpt>
      <trkpt lat="43.303007" lon="-3.035409">
        <time>2021-08-21T11:28:50Z</time>
      </trkpt>
      <trkpt lat="43.302135" lon="-3.034548">
        <time>2021-08-21T11:29:05Z</time>
      </trkpt>
      <trkpt lat="43.301372" lon="-3.033373">
        <time>2021-08-21T11:29:14Z</time>
      </trkpt>
      <trkpt lat="43.300122" lon="-3.031017">
        <time>2021-08-21T11:29:35Z</time>
      </trkpt>
      <trkpt lat="43.298981" lon="-3.02899">
        <time>2021-08-21T11:29:56Z</time>
      </trkpt>
      <trkpt lat="43.298486" lon="-3.028402">
        <time>2021-08-21T11:30:02Z</time>
      </trkpt>
      <trkpt lat="43.29705" lon="-3.026534">
        <time>2021-08-21T11:30:20Z</time>
      </trkpt>
      <trkpt lat="43.296652" lon="-3.025042">
        <time>2021-08-21T11:30:29Z</time>
      </trkpt>
      <trkpt lat="43.296521" lon="-3.022721">
        <time>2021-08-21T11:30:41Z</time>
      </trkpt>
      <trkpt lat="43.296445" lon="-3.02231">
        <time>2021-08-21T11:30:44Z</time>
      </trkpt>
      <trkpt lat="43.296225" lon="-3.021965">
        <time>2021-08-21T11:30:50Z</time>
      </trkpt>
      <trkpt lat="43.294416" lon="-3.020479">
        <time>2021-08-21T11:31:05Z</time>
      </trkpt>
      <trkpt lat="43.294416" lon="-3.020479">
        <time>2021-08-21T11:31:05Z</time>
      </trkpt>
      <trkpt lat="43.294416" lon="-3.020479">
        <time>2021-08-21T11:31:05Z</time>
      </trkpt>
      <trkpt lat="43.294416" lon="-3.020479">
        <time>2021-08-21T11:31:05Z</time>
      </trkpt>
      <trkpt lat="43.294416" lon="-3.020479">
        <time>2021-08-21T11:31:05Z</time>
      </trkpt>
      <trkpt lat="43.294416" lon="-3.020479">
        <time>2021-08-21T11:31:05Z</time>
      </trkpt>
      <trkpt lat="43.293083" lon="-3.01875">
        <time>2021-08-21T11:31:17Z</time>
      </trkpt>
      <trkpt lat="43.292528" lon="-3.017796">
        <time>2021-08-21T11:31:23Z</time>
      </trkpt>
      <trkpt lat="43.290536" lon="-3.013223">
        <time>2021-08-21T11:31:53Z</time>
      </trkpt>
      <trkpt lat="43.289832" lon="-3.011632">
        <time>2021-08-21T11:32:05Z</time>
      </trkpt>
      <trkpt lat="43.28958" lon="-3.011316">
        <time>2021-08-21T11:32:11Z</time>
      </trkpt>
      <trkpt lat="43.2894" lon="-3.01062">
        <time>2021-08-21T11:32:17Z</time>
      </trkpt>
      <trkpt lat="43.28804" lon="-3.007544">
        <time>2021-08-21T11:32:38Z</time>
      </trkpt>
      <trkpt lat="43.287131" lon="-3.005561">
        <time>2021-08-21T11:32:56Z</time>
      </trkpt>
      <trkpt lat="43.286342" lon="-3.003864">
        <time>2021-08-21T11:33:14Z</time>
      </trkpt>
      <trkpt lat="43.286186" lon="-3.003669">
        <time>2021-08-21T11:33:17Z</time>
      </trkpt>
      <trkpt lat="43.286186" lon="-3.003669">
        <time>2021-08-21T11:33:17Z</time>
      </trkpt>
      <trkpt lat="43.286113" lon="-3.003326">
        <time>2021-08-21T11:33:20Z</time>
      </trkpt>
      <trkpt lat="43.285828" lon="-3.002565">
        <time>2021-08-21T11:33:26Z</time>
      </trkpt>
      <trkpt lat="43.285655" lon="-3.002193">
        <time>2021-08-21T11:33:29Z</time>
      </trkpt>
      <trkpt lat="43.283388" lon="-2.996726">
        <time>2021-08-21T11:34:14Z</time>
      </trkpt>
      <trkpt lat="43.283226" lon="-2.996246">
        <time>2021-08-21T11:34:50Z</time>
      </trkpt>
      <trkpt lat="43.283299" lon="-2.995839">
        <time>2021-08-21T11:34:53Z</time>
      </trkpt>
      <trkpt lat="43.283389" lon="-2.994434">
        <time>2021-08-21T11:35:05Z</time>
      </trkpt>
      <trkpt lat="43.283301" lon="-2.99392">
        <time>2021-08-21T11:35:11Z</time>
      </trkpt>
      <trkpt lat="43.283353" lon="-2.993688">
        <time>2021-08-21T11:35:14Z</time>
      </trkpt>
      <trkpt lat="43.284375" lon="-2.990471">
        <time>2021-08-21T11:35:32Z</time>
      </trkpt>
      <trkpt lat="43.286083" lon="-2.984811">
        <time>2021-08-21T11:36:02Z</time>
      </trkpt>
      <trkpt lat="43.28612" lon="-2.984145">
        <time>2021-08-21T11:36:05Z</time>
      </trkpt>
      <trkpt lat="43.28607" lon="-2.983503">
        <time>2021-08-21T11:36:08Z</time>
      </trkpt>
      <trkpt lat="43.285744" lon="-2.982383">
        <time>2021-08-21T11:36:14Z</time>
      </trkpt>
      <trkpt lat="43.285128" lon="-2.981535">
        <time>2021-08-21T11:36:20Z</time>
      </trkpt>
      <trkpt lat="43.284066" lon="-2.980536">
        <time>2021-08-21T11:36:30Z</time>
      </trkpt>
      <trkpt lat="43.283098" lon="-2.980097">
        <time>2021-08-21T11:36:36Z</time>
      </trkpt>
      <trkpt lat="43.283098" lon="-2.980097">
        <time>2021-08-21T11:36:36Z</time>
      </trkpt>
      <trkpt lat="43.278899" lon="-2.978642">
        <time>2021-08-21T11:37:21Z</time>
      </trkpt>
      <trkpt lat="43.278667" lon="-2.978377">
        <time>2021-08-21T11:37:24Z</time>
      </trkpt>
      <trkpt lat="43.278667" lon="-2.978377">
        <time>2021-08-21T11:37:24Z</time>
      </trkpt>
      <trkpt lat="43.278547" lon="-2.978056">
        <time>2021-08-21T11:37:27Z</time>
      </trkpt>
      <trkpt lat="43.277819" lon="-2.976024">
        <time>2021-08-21T11:37:42Z</time>
      </trkpt>
      <trkpt lat="43.27768" lon="-2.97574">
        <time>2021-08-21T11:37:45Z</time>
      </trkpt>
      <trkpt lat="43.277685" lon="-2.975499">
        <time>2021-08-21T11:37:48Z</time>
      </trkpt>
      <trkpt lat="43.277662" lon="-2.97538">
        <time>2021-08-21T11:38:06Z</time>
      </trkpt>
      <trkpt lat="43.276849" lon="-2.972754">
        <time>2021-08-21T11:38:27Z</time>
      </trkpt>
      <trkpt lat="43.276398" lon="-2.971768">
        <time>2021-08-21T11:38:36Z</time>
      </trkpt>
      <trkpt lat="43.276398" lon="-2.971768">
        <time>2021-08-21T11:38:36Z</time>
      </trkpt>
      <trkpt lat="43.276332" lon="-2.971492">
        <time>2021-08-21T11:38:39Z</time>
      </trkpt>
      <trkpt lat="43.276216" lon="-2.971056">
        <time>2021-08-21T11:38:48Z</time>
      </trkpt>
      <trkpt lat="43.276206" lon="-2.970684">
        <time>2021-08-21T11:38:51Z</time>
      </trkpt>
      <trkpt lat="43.275972" lon="-2.970344">
        <time>2021-08-21T11:38:54Z</time>
      </trkpt>
      <trkpt lat="43.274151" lon="-2.969193">
        <time>2021-08-21T11:39:09Z</time>
      </trkpt>
      <trkpt lat="43.273567" lon="-2.968475">
        <time>2021-08-21T11:39:15Z</time>
      </trkpt>
      <trkpt lat="43.271987" lon="-2.966742">
        <time>2021-08-21T11:39:30Z</time>
      </trkpt>
      <trkpt lat="43.269572" lon="-2.965183">
        <time>2021-08-21T11:39:48Z</time>
      </trkpt>
      <trkpt lat="43.265588" lon="-2.961852">
        <time>2021-08-21T11:40:27Z</time>
      </trkpt>
      <trkpt lat="43.264331" lon="-2.960727">
        <time>2021-08-21T11:40:42Z</time>
      </trkpt>
      <trkpt lat="43.263444" lon="-2.959013">
        <time>2021-08-21T11:40:57Z</time>
      </trkpt>
      <trkpt lat="43.263371" lon="-2.958704">
        <time>2021-08-21T11:41:00Z</time>
      </trkpt>
      <trkpt lat="43.263168" lon="-2.957163">
        <time>2021-08-21T11:41:12Z</time>
      </trkpt>
      <trkpt lat="43.263005" lon="-2.956823">
        <time>2021-08-21T11:41:15Z</time>
      </trkpt>
      <trkpt lat="43.262822" lon="-2.956554">
        <time>2021-08-21T11:41:18Z</time>
      </trkpt>
      <trkpt lat="43.262081" lon="-2.955951">
        <time>2021-08-21T11:41:27Z</time>
      </trkpt>
      <trkpt lat="43.260932" lon="-2.954944">
        <time>2021-08-21T11:41:45Z</time>
      </trkpt>
      <trkpt lat="43.260825" lon="-2.954677">
        <time>2021-08-21T11:41:48Z</time>
      </trkpt>
      <trkpt lat="43.260233" lon="-2.953309">
        <time>2021-08-21T11:41:57Z</time>
      </trkpt>
      <trkpt lat="43.25976" lon="-2.952572">
        <time>2021-08-21T11:42:03Z</time>
      </trkpt>
      <trkpt lat="43.259288" lon="-2.95194">
        <time>2021-08-21T11:42:09Z</time>
      </trkpt>
      <trkpt lat="43.258849" lon="-2.951397">
        <time>2021-08-21T11:42:15Z</time>
      </trkpt>
      <trkpt lat="43.258275" lon="-2.950527">
        <time>2021-08-21T11:42:24Z</time>
      </trkpt>
      <trkpt lat="43.258128" lon="-2.950254">
        <time>2021-08-21T11:42:27Z</time>
      </trkpt>
      <trkpt lat="43.258064" lon="-2.949929">
        <time>2021-08-21T11:42:30Z</time>
      </trkpt>
      <trkpt lat="43.258081" lon="-2.94929">
        <time>2021-08-21T11:42:36Z</time>
      </trkpt>
      <trkpt lat="43.258176" lon="-2.949108">
        <time>2021-08-21T11:42:39Z</time>
      </trkpt>
      <trkpt lat="43.258164" lon="-2.948733">
        <time>2021-08-21T11:43:15Z</time>
      </trkpt>
      <trkpt lat="43.258053" lon="-2.947102">
        <time>2021-08-21T11:43:27Z</time>
      </trkpt>
      <trkpt lat="43.258032" lon="-2.945363">
        <time>2021-08-21T11:43:42Z</time>
      </trkpt>
      <trkpt lat="43.257946" lon="-2.945091">
        <time>2021-08-21T11:43:51Z</time>
      </trkpt>
      <trkpt lat="43.257841" lon="-2.944545">
        <time>2021-08-21T11:43:57Z</time>
      </trkpt>
      <trkpt lat="43.257664" lon="-2.944082">
        <time>2021-08-21T11:44:03Z</time>
      </trkpt>
      <trkpt lat="43.257592" lon="-2.94403">
        <time>2021-08-21T11:44:06Z</time>
      </trkpt>
      <trkpt lat="43.257465" lon="-2.943908">
        <time>2021-08-21T11:44:12Z</time>
      </trkpt>
      <trkpt lat="43.257487" lon="-2.943656">
        <time>2021-08-21T11:44:15Z</time>
      </trkpt>
      <trkpt lat="43.257436" lon="-2.94253">
        <time>2021-08-21T11:44:24Z</time>
      </trkpt>
      <trkpt lat="43.257385" lon="-2.94131">
        <time>2021-08-21T11:44:33Z</time>
      </trkpt>
      <trkpt lat="43.257346" lon="-2.940931">
        <time>2021-08-21T11:44:36Z</time>
      </trkpt>
      <trkpt lat="43.257346" lon="-2.940931">
        <time>2021-08-21T11:44:36Z</time>
      </trkpt>
      <trkpt lat="43.257451" lon="-2.940175">
        <time>2021-08-21T11:44:42Z</time>
      </trkpt>
      <trkpt lat="43.257508" lon="-2.940016">
        <time>2021-08-21T11:44:45Z</time>
      </trkpt>
      <trkpt lat="43.257598" lon="-2.939865">
        <time>2021-08-21T11:44:48Z</time>
      </trkpt>
      <trkpt lat="43.259054" lon="-2.938643">
        <time>2021-08-21T11:45:18Z</time>
      </trkpt>
      <trkpt lat="43.259411" lon="-2.938415">
        <time>2021-08-21T11:45:24Z</time>
      </trkpt>
      <trkpt lat="43.259548" lon="-2.938137">
        <time>2021-08-21T11:46:30Z</time>
      </trkpt>
      <trkpt lat="43.259838" lon="-2.93806">
        <time>2021-08-21T11:46:39Z</time>
      </trkpt>
      <trkpt lat="43.260192" lon="-2.937896">
        <time>2021-08-21T11:46:42Z</time>
      </trkpt>
      <trkpt lat="43.260768" lon="-2.93772">
        <time>2021-08-21T11:46:48Z</time>
      </trkpt>
      <trkpt lat="43.260992" lon="-2.937637">
        <time>2021-08-21T11:46:51Z</time>
      </trkpt>
      <trkpt lat="43.261947" lon="-2.937158">
        <time>2021-08-21T11:47:03Z</time>
      </trkpt>
      <trkpt lat="43.2626" lon="-2.936771">
        <time>2021-08-21T11:47:12Z</time>
      </trkpt>
      <trkpt lat="43.263292" lon="-2.936368">
        <time>2021-08-21T11:48:21Z</time>
      </trkpt>
      <trkpt lat="43.263447" lon="-2.936548">
        <time>2021-08-21T11:48:24Z</time>
      </trkpt>
      <trkpt lat="43.264296" lon="-2.937183">
        <time>2021-08-21T11:48:33Z</time>
      </trkpt>
      <trkpt lat="43.265114" lon="-2.93764">
        <time>2021-08-21T11:48:39Z</time>
      </trkpt>
      <trkpt lat="43.26578" lon="-2.937938">
        <time>2021-08-21T11:48:45Z</time>
      </trkpt>
      <trkpt lat="43.266049" lon="-2.937846">
        <time>2021-08-21T11:48:48Z</time>
      </trkpt>
      <trkpt lat="43.266525" lon="-2.937856">
        <time>2021-08-21T11:48:54Z</time>
      </trkpt>
      <trkpt lat="43.266707" lon="-2.937962">
        <time>2021-08-21T11:49:27Z</time>
      </trkpt>
      <trkpt lat="43.266828" lon="-2.938083">
        <time>2021-08-21T11:49:30Z</time>
      </trkpt>
      <trkpt lat="43.267026" lon="-2.938037">
        <time>2021-08-21T11:49:33Z</time>
      </trkpt>
      <trkpt lat="43.267266" lon="-2.937873">
        <time>2021-08-21T11:49:36Z</time>
      </trkpt>
      <trkpt lat="43.267426" lon="-2.937889">
        <time>2021-08-21T11:49:39Z</time>
      </trkpt>
      <trkpt lat="43.267544" lon="-2.937911">
        <time>2021-08-21T11:49:42Z</time>
      </trkpt>
      <trkpt lat="43.267954" lon="-2.937815">
        <time>2021-08-21T11:49:57Z</time>
      </trkpt>
      <trkpt lat="43.268319" lon="-2.937682">
        <time>2021-08-21T11:50:00Z</time>
      </trkpt>
      <trkpt lat="43.268556" lon="-2.937277">
        <time>2021-08-21T11:50:03Z</time>
      </trkpt>
      <trkpt lat="43.268504" lon="-2.936083">
        <time>2021-08-21T11:50:48Z</time>
      </trkpt>
      <trkpt lat="43.268504" lon="-2.936083">
        <time>2021-08-21T11:50:48Z</time>
      </trkpt>
      <trkpt lat="43.268208" lon="-2.93521">
        <time>2021-08-21T11:51:06Z</time>
      </trkpt>
      <trkpt lat="43.26826" lon="-2.93485">
        <time>2021-08-21T11:51:12Z</time>
      </trkpt>
      <trkpt lat="43.268259" lon="-2.934515">
        <time>2021-08-21T11:51:21Z</time>
      </trkpt>
      <trkpt lat="43.268524" lon="-2.933727">
        <time>2021-08-21T11:51:30Z</time>
      </trkpt>
      <trkpt lat="43.268692" lon="-2.933282">
        <time>2021-08-21T11:51:33Z</time>
      </trkpt>
      <trkpt lat="43.268671" lon="-2.932204">
        <time>2021-08-21T11:51:45Z</time>
      </trkpt>
      <trkpt lat="43.268548" lon="-2.932176">
        <time>2021-08-21T11:51:48Z</time>
      </trkpt>
      <trkpt lat="43.26832" lon="-2.932192">
        <time>2021-08-21T11:51:51Z</time>
      </trkpt>
      <trkpt lat="43.268242" lon="-2.932313">
        <time>2021-08-21T11:51:54Z</time>
      </trkpt>
      <trkpt lat="43.268236" lon="-2.93247">
        <time>2021-08-21T11:51:57Z</time>
      </trkpt>
      <trkpt lat="43.268213" lon="-2.933123">
        <time>2021-08-21T11:52:09Z</time>
      </trkpt>
      <trkpt lat="43.268186" lon="-2.933813">
        <time>2021-08-21T11:52:21Z</time>
      </trkpt>
      <trkpt lat="43.268186" lon="-2.933813">
        <time>2021-08-21T11:52:21Z</time>
      </trkpt>
      <trkpt lat="43.267987" lon="-2.934958">
        <time>2021-08-21T11:52:48Z</time>
      </trkpt>
      <trkpt lat="43.268584" lon="-2.936375">
        <time>2021-08-21T11:53:03Z</time>
      </trkpt>
      <trkpt lat="43.26883" lon="-2.937961">
        <time>2021-08-21T11:53:21Z</time>
      </trkpt>
      <trkpt lat="43.268606" lon="-2.939774">
        <time>2021-08-21T11:53:39Z</time>
      </trkpt>
      <trkpt lat="43.268518" lon="-2.93998">
        <time>2021-08-21T11:53:42Z</time>
      </trkpt>
      <trkpt lat="43.268332" lon="-2.940441">
        <time>2021-08-21T11:53:48Z</time>
      </trkpt>
      <trkpt lat="43.268028" lon="-2.941315">
        <time>2021-08-21T11:55:09Z</time>
      </trkpt>
      <trkpt lat="43.26789" lon="-2.941554">
        <time>2021-08-21T11:55:15Z</time>
      </trkpt>
      <trkpt lat="43.267909" lon="-2.941559">
        <time>2021-08-21T11:55:18Z</time>
      </trkpt>
      <trkpt lat="43.268031" lon="-2.941484">
        <time>2021-08-21T11:55:21Z</time>
      </trkpt>
      <trkpt lat="43.268354" lon="-2.940959">
        <time>2021-08-21T11:55:27Z</time>
      </trkpt>
      <trkpt lat="43.268591" lon="-2.940344">
        <time>2021-08-21T11:55:33Z</time>
      </trkpt>
      <trkpt lat="43.268686" lon="-2.940229">
        <time>2021-08-21T11:55:36Z</time>
      </trkpt>
      <trkpt lat="43.268758" lon="-2.939989">
        <time>2021-08-21T11:55:42Z</time>
      </trkpt>
      <trkpt lat="43.268925" lon="-2.938163">
        <time>2021-08-21T11:55:57Z</time>
      </trkpt>
      <trkpt lat="43.26896" lon="-2.938037">
        <time>2021-08-21T11:56:24Z</time>
      </trkpt>
      <trkpt lat="43.268992" lon="-2.937866">
        <time>2021-08-21T11:56:27Z</time>
      </trkpt>
      <trkpt lat="43.268953" lon="-2.937709">
        <time>2021-08-21T11:57:29Z</time>
      </trkpt>
      <trkpt lat="43.268953" lon="-2.937709">
        <time>2021-08-21T11:57:29Z</time>
      </trkpt>
      <trkpt lat="43.268966" lon="-2.937462">
        <time>2021-08-21T12:43:31Z</time>
      </trkpt>
      <trkpt lat="43.268915" lon="-2.937592">
        <time>2021-08-21T12:44:33Z</time>
      </trkpt>
      <trkpt lat="43.268915" lon="-2.937592">
        <time>2021-08-21T12:45:18Z</time>
      </trkpt>
      <trkpt lat="43.268915" lon="-2.937592">
        <time>2021-08-21T12:46:18Z</time>
      </trkpt>
      <trkpt lat="43.268915" lon="-2.937592">
        <time>2021-08-21T12:49:30Z</time>
      </trkpt>
      <trkpt lat="43.268915" lon="-2.937592">
        <time>2021-08-21T12:49:30Z</time>
      </trkpt>
      <trkpt lat="43.268841" lon="-2.937518">
        <time>2021-08-21T12:53:51Z</time>
      </trkpt>
      <trkpt lat="43.268868" lon="-2.937521">
        <time>2021-08-21T12:53:58Z</time>
      </trkpt>
      <trkpt lat="43.26897" lon="-2.937249">
        <time>2021-08-21T12:55:15Z</time>
      </trkpt>
      <trkpt lat="43.268916" lon="-2.937002">
        <time>2021-08-21T12:55:18Z</time>
      </trkpt>
      <trkpt lat="43.268893" lon="-2.936228">
        <time>2021-08-21T12:55:27Z</time>
      </trkpt>
      <trkpt lat="43.268829" lon="-2.935829">
        <time>2021-08-21T12:55:30Z</time>
      </trkpt>
      <trkpt lat="43.2687" lon="-2.935565">
        <time>2021-08-21T12:55:33Z</time>
      </trkpt>
      <trkpt lat="43.268553" lon="-2.935349">
        <time>2021-08-21T12:55:36Z</time>
      </trkpt>
      <trkpt lat="43.268454" lon="-2.935122">
        <time>2021-08-21T12:55:39Z</time>
      </trkpt>
      <trkpt lat="43.268496" lon="-2.934658">
        <time>2021-08-21T12:55:45Z</time>
      </trkpt>
      <trkpt lat="43.268576" lon="-2.934559">
        <time>2021-08-21T12:55:48Z</time>
      </trkpt>
      <trkpt lat="43.268693" lon="-2.934342">
        <time>2021-08-21T12:55:51Z</time>
      </trkpt>
      <trkpt lat="43.268599" lon="-2.934123">
        <time>2021-08-21T12:56:00Z</time>
      </trkpt>
      <trkpt lat="43.268572" lon="-2.933428">
        <time>2021-08-21T12:56:06Z</time>
      </trkpt>
      <trkpt lat="43.268656" lon="-2.93202">
        <time>2021-08-21T12:56:15Z</time>
      </trkpt>
      <trkpt lat="43.268518" lon="-2.931523">
        <time>2021-08-21T12:56:18Z</time>
      </trkpt>
      <trkpt lat="43.268518" lon="-2.931523">
        <time>2021-08-21T12:56:18Z</time>
      </trkpt>
      <trkpt lat="43.268092" lon="-2.930465">
        <time>2021-08-21T12:56:24Z</time>
      </trkpt>
      <trkpt lat="43.266316" lon="-2.929703">
        <time>2021-08-21T12:56:48Z</time>
      </trkpt>
      <trkpt lat="43.266174" lon="-2.929682">
        <time>2021-08-21T12:56:51Z</time>
      </trkpt>
      <trkpt lat="43.265442" lon="-2.929309">
        <time>2021-08-21T12:57:00Z</time>
      </trkpt>
      <trkpt lat="43.265442" lon="-2.929309">
        <time>2021-08-21T12:57:01Z</time>
      </trkpt>
      <trkpt lat="43.264751" lon="-2.928737">
        <time>2021-08-21T12:57:15Z</time>
      </trkpt>
      <trkpt lat="43.264751" lon="-2.928737">
        <time>2021-08-21T12:57:15Z</time>
      </trkpt>
      <trkpt lat="43.264307" lon="-2.928037">
        <time>2021-08-21T12:57:27Z</time>
      </trkpt>
      <trkpt lat="43.264018" lon="-2.927499">
        <time>2021-08-21T12:57:36Z</time>
      </trkpt>
      <trkpt lat="43.264038" lon="-2.927113">
        <time>2021-08-21T12:57:39Z</time>
      </trkpt>
      <trkpt lat="43.264164" lon="-2.926797">
        <time>2021-08-21T12:57:42Z</time>
      </trkpt>
      <trkpt lat="43.264236" lon="-2.926395">
        <time>2021-08-21T12:57:48Z</time>
      </trkpt>
      <trkpt lat="43.26407" lon="-2.926407">
        <time>2021-08-21T12:57:51Z</time>
      </trkpt>
      <trkpt lat="43.263439" lon="-2.926366">
        <time>2021-08-21T12:58:15Z</time>
      </trkpt>
      <trkpt lat="43.262717" lon="-2.926448">
        <time>2021-08-21T12:58:30Z</time>
      </trkpt>
      <trkpt lat="43.262508" lon="-2.926403">
        <time>2021-08-21T12:58:36Z</time>
      </trkpt>
      <trkpt lat="43.262422" lon="-2.926289">
        <time>2021-08-21T12:58:39Z</time>
      </trkpt>
      <trkpt lat="43.262392" lon="-2.926082">
        <time>2021-08-21T12:58:42Z</time>
      </trkpt>
      <trkpt lat="43.262412" lon="-2.925906">
        <time>2021-08-21T12:58:45Z</time>
      </trkpt>
      <trkpt lat="43.262523" lon="-2.925553">
        <time>2021-08-21T12:58:57Z</time>
      </trkpt>
      <trkpt lat="43.262536" lon="-2.925488">
        <time>2021-08-21T12:59:00Z</time>
      </trkpt>
      <trkpt lat="43.262649" lon="-2.925399">
        <time>2021-08-21T12:59:03Z</time>
      </trkpt>
      <trkpt lat="43.262649" lon="-2.925399">
        <time>2021-08-21T12:59:03Z</time>
      </trkpt>
      <trkpt lat="43.262784" lon="-2.925253">
        <time>2021-08-21T12:59:06Z</time>
      </trkpt>
      <trkpt lat="43.263414" lon="-2.924077">
        <time>2021-08-21T12:59:18Z</time>
      </trkpt>
      <trkpt lat="43.263486" lon="-2.923834">
        <time>2021-08-21T12:59:21Z</time>
      </trkpt>
      <trkpt lat="43.263599" lon="-2.923567">
        <time>2021-08-21T12:59:24Z</time>
      </trkpt>
      <trkpt lat="43.263737" lon="-2.923507">
        <time>2021-08-21T12:59:27Z</time>
      </trkpt>
      <trkpt lat="43.263723" lon="-2.923533">
        <time>2021-08-21T12:59:30Z</time>
      </trkpt>
      <trkpt lat="43.263608" lon="-2.923553">
        <time>2021-08-21T12:59:33Z</time>
      </trkpt>
      <trkpt lat="43.263508" lon="-2.92343">
        <time>2021-08-21T12:59:36Z</time>
      </trkpt>
      <trkpt lat="43.263167" lon="-2.923144">
        <time>2021-08-21T13:00:00Z</time>
      </trkpt>
      <trkpt lat="43.262462" lon="-2.92297">
        <time>2021-08-21T13:00:09Z</time>
      </trkpt>
      <trkpt lat="43.261558" lon="-2.922968">
        <time>2021-08-21T13:00:21Z</time>
      </trkpt>
      <trkpt lat="43.260792" lon="-2.922856">
        <time>2021-08-21T13:00:30Z</time>
      </trkpt>
      <trkpt lat="43.260532" lon="-2.922844">
        <time>2021-08-21T13:00:36Z</time>
      </trkpt>
      <trkpt lat="43.260099" lon="-2.922998">
        <time>2021-08-21T13:01:03Z</time>
      </trkpt>
      <trkpt lat="43.260118" lon="-2.922943">
        <time>2021-08-21T13:01:24Z</time>
      </trkpt>
      <trkpt lat="43.260222" lon="-2.922397">
        <time>2021-08-21T13:01:36Z</time>
      </trkpt>
      <trkpt lat="43.260153" lon="-2.922332">
        <time>2021-08-21T13:01:39Z</time>
      </trkpt>
      <trkpt lat="43.259983" lon="-2.922284">
        <time>2021-08-21T13:01:57Z</time>
      </trkpt>
      <trkpt lat="43.259882" lon="-2.922304">
        <time>2021-08-21T13:02:00Z</time>
      </trkpt>
      <trkpt lat="43.259427" lon="-2.922191">
        <time>2021-08-21T13:02:12Z</time>
      </trkpt>
      <trkpt lat="43.258778" lon="-2.921875">
        <time>2021-08-21T13:02:27Z</time>
      </trkpt>
      <trkpt lat="43.258727" lon="-2.921777">
        <time>2021-08-21T13:02:30Z</time>
      </trkpt>
      <trkpt lat="43.258732" lon="-2.921675">
        <time>2021-08-21T13:02:33Z</time>
      </trkpt>
      <trkpt lat="43.258727" lon="-2.921557">
        <time>2021-08-21T13:02:42Z</time>
      </trkpt>
      <trkpt lat="43.258673" lon="-2.92152">
        <time>2021-08-21T13:02:45Z</time>
      </trkpt>
      <trkpt lat="43.258643" lon="-2.921386">
        <time>2021-08-21T13:02:51Z</time>
      </trkpt>
      <trkpt lat="43.258626" lon="-2.921039">
        <time>2021-08-21T13:03:03Z</time>
      </trkpt>
      <trkpt lat="43.258526" lon="-2.92093">
        <time>2021-08-21T13:03:09Z</time>
      </trkpt>
      <trkpt lat="43.25848" lon="-2.920852">
        <time>2021-08-21T13:03:12Z</time>
      </trkpt>
      <trkpt lat="43.258465" lon="-2.920705">
        <time>2021-08-21T13:03:15Z</time>
      </trkpt>
      <trkpt lat="43.258378" lon="-2.919762">
        <time>2021-08-21T13:03:30Z</time>
      </trkpt>
      <trkpt lat="43.258432" lon="-2.919623">
        <time>2021-08-21T13:03:33Z</time>
      </trkpt>
      <trkpt lat="43.258442" lon="-2.919672">
        <time>2021-08-21T13:03:36Z</time>
      </trkpt>
      <trkpt lat="43.258338" lon="-2.919815">
        <time>2021-08-21T13:03:39Z</time>
      </trkpt>
      <trkpt lat="43.258107" lon="-2.92005">
        <time>2021-08-21T13:03:45Z</time>
      </trkpt>
      <trkpt lat="43.258035" lon="-2.919982">
        <time>2021-08-21T13:03:48Z</time>
      </trkpt>
      <trkpt lat="43.258005" lon="-2.920022">
        <time>2021-08-21T13:03:51Z</time>
      </trkpt>
      <trkpt lat="43.258048" lon="-2.919884">
        <time>2021-08-21T13:04:00Z</time>
      </trkpt>
      <trkpt lat="43.258055" lon="-2.919677">
        <time>2021-08-21T13:04:56Z</time>
      </trkpt>
      <trkpt lat="43.258055" lon="-2.919677">
        <time>2021-08-21T13:05:52Z</time>
      </trkpt>
      <trkpt lat="43.258055" lon="-2.919677">
        <time>2021-08-21T13:07:53Z</time>
      </trkpt>
      <trkpt lat="43.257919" lon="-2.919395">
        <time>2021-08-21T13:08:09Z</time>
      </trkpt>
      <trkpt lat="43.257829" lon="-2.919165">
        <time>2021-08-21T13:08:12Z</time>
      </trkpt>
      <trkpt lat="43.257265" lon="-2.917658">
        <time>2021-08-21T13:08:57Z</time>
      </trkpt>
      <trkpt lat="43.257126" lon="-2.917373">
        <time>2021-08-21T13:09:03Z</time>
      </trkpt>
      <trkpt lat="43.257046" lon="-2.916105">
        <time>2021-08-21T13:09:15Z</time>
      </trkpt>
      <trkpt lat="43.257083" lon="-2.915811">
        <time>2021-08-21T13:09:18Z</time>
      </trkpt>
      <trkpt lat="43.256981" lon="-2.915212">
        <time>2021-08-21T13:09:24Z</time>
      </trkpt>
      <trkpt lat="43.256963" lon="-2.915042">
        <time>2021-08-21T13:09:30Z</time>
      </trkpt>
      <trkpt lat="43.257008" lon="-2.914936">
        <time>2021-08-21T13:09:33Z</time>
      </trkpt>
      <trkpt lat="43.257034" lon="-2.91494">
        <time>2021-08-21T13:09:36Z</time>
      </trkpt>
      <trkpt lat="43.257129" lon="-2.914959">
        <time>2021-08-21T13:09:42Z</time>
      </trkpt>
      <trkpt lat="43.257245" lon="-2.914866">
        <time>2021-08-21T13:09:45Z</time>
      </trkpt>
      <trkpt lat="43.257276" lon="-2.91455">
        <time>2021-08-21T13:09:54Z</time>
      </trkpt>
      <trkpt lat="43.257253" lon="-2.914665">
        <time>2021-08-21T13:09:57Z</time>
      </trkpt>
      <trkpt lat="43.257276" lon="-2.914758">
        <time>2021-08-21T13:10:00Z</time>
      </trkpt>
      <trkpt lat="43.257311" lon="-2.914862">
        <time>2021-08-21T13:10:03Z</time>
      </trkpt>
      <trkpt lat="43.257342" lon="-2.915044">
        <time>2021-08-21T13:10:06Z</time>
      </trkpt>
      <trkpt lat="43.258338" lon="-2.917459">
        <time>2021-08-21T13:10:27Z</time>
      </trkpt>
      <trkpt lat="43.258647" lon="-2.917734">
        <time>2021-08-21T13:10:30Z</time>
      </trkpt>
      <trkpt lat="43.25908" lon="-2.91762">
        <time>2021-08-21T13:10:36Z</time>
      </trkpt>
      <trkpt lat="43.259595" lon="-2.917272">
        <time>2021-08-21T13:10:42Z</time>
      </trkpt>
      <trkpt lat="43.259806" lon="-2.917027">
        <time>2021-08-21T13:10:45Z</time>
      </trkpt>
      <trkpt lat="43.260069" lon="-2.916877">
        <time>2021-08-21T13:10:48Z</time>
      </trkpt>
      <trkpt lat="43.26029" lon="-2.917019">
        <time>2021-08-21T13:10:51Z</time>
      </trkpt>
      <trkpt lat="43.26029" lon="-2.917019">
        <time>2021-08-21T13:10:55Z</time>
      </trkpt>
      <trkpt lat="43.260574" lon="-2.916834">
        <time>2021-08-21T13:10:57Z</time>
      </trkpt>
      <trkpt lat="43.260574" lon="-2.916834">
        <time>2021-08-21T13:10:57Z</time>
      </trkpt>
      <trkpt lat="43.260528" lon="-2.916496">
        <time>2021-08-21T13:11:00Z</time>
      </trkpt>
      <trkpt lat="43.260151" lon="-2.915503">
        <time>2021-08-21T13:11:09Z</time>
      </trkpt>
      <trkpt lat="43.260193" lon="-2.915231">
        <time>2021-08-21T13:11:12Z</time>
      </trkpt>
      <trkpt lat="43.260256" lon="-2.915145">
        <time>2021-08-21T13:11:15Z</time>
      </trkpt>
      <trkpt lat="43.260366" lon="-2.915103">
        <time>2021-08-21T13:11:24Z</time>
      </trkpt>
      <trkpt lat="43.26071" lon="-2.915258">
        <time>2021-08-21T13:11:33Z</time>
      </trkpt>
      <trkpt lat="43.260733" lon="-2.915355">
        <time>2021-08-21T13:11:36Z</time>
      </trkpt>
      <trkpt lat="43.260872" lon="-2.915617">
        <time>2021-08-21T13:11:42Z</time>
      </trkpt>
      <trkpt lat="43.261543" lon="-2.916052">
        <time>2021-08-21T13:11:51Z</time>
      </trkpt>
      <trkpt lat="43.263011" lon="-2.917111">
        <time>2021-08-21T13:12:09Z</time>
      </trkpt>
      <trkpt lat="43.263305" lon="-2.917227">
        <time>2021-08-21T13:12:12Z</time>
      </trkpt>
      <trkpt lat="43.26461" lon="-2.917279">
        <time>2021-08-21T13:12:24Z</time>
      </trkpt>
      <trkpt lat="43.265266" lon="-2.917161">
        <time>2021-08-21T13:12:30Z</time>
      </trkpt>
      <trkpt lat="43.265482" lon="-2.917127">
        <time>2021-08-21T13:12:33Z</time>
      </trkpt>
      <trkpt lat="43.265774" lon="-2.916988">
        <time>2021-08-21T13:12:39Z</time>
      </trkpt>
      <trkpt lat="43.266013" lon="-2.917033">
        <time>2021-08-21T13:12:45Z</time>
      </trkpt>
      <trkpt lat="43.267202" lon="-2.918434">
        <time>2021-08-21T13:13:03Z</time>
      </trkpt>
      <trkpt lat="43.26745" lon="-2.918697">
        <time>2021-08-21T13:13:54Z</time>
      </trkpt>
      <trkpt lat="43.269537" lon="-2.922538">
        <time>2021-08-21T13:14:30Z</time>
      </trkpt>
      <trkpt lat="43.2697" lon="-2.923498">
        <time>2021-08-21T13:14:36Z</time>
      </trkpt>
      <trkpt lat="43.269727" lon="-2.924081">
        <time>2021-08-21T13:14:39Z</time>
      </trkpt>
      <trkpt lat="43.270119" lon="-2.926742">
        <time>2021-08-21T13:14:57Z</time>
      </trkpt>
      <trkpt lat="43.270345" lon="-2.92752">
        <time>2021-08-21T13:15:03Z</time>
      </trkpt>
      <trkpt lat="43.270413" lon="-2.92855">
        <time>2021-08-21T13:15:09Z</time>
      </trkpt>
      <trkpt lat="43.270309" lon="-2.929622">
        <time>2021-08-21T13:15:15Z</time>
      </trkpt>
      <trkpt lat="43.270342" lon="-2.930809">
        <time>2021-08-21T13:15:21Z</time>
      </trkpt>
      <trkpt lat="43.273559" lon="-2.939984">
        <time>2021-08-21T13:16:24Z</time>
      </trkpt>
      <trkpt lat="43.273559" lon="-2.939984">
        <time>2021-08-21T13:16:24Z</time>
      </trkpt>
      <trkpt lat="43.273559" lon="-2.939984">
        <time>2021-08-21T13:16:24Z</time>
      </trkpt>
      <trkpt lat="43.272347" lon="-2.94081">
        <time>2021-08-21T13:16:36Z</time>
      </trkpt>
      <trkpt lat="43.271474" lon="-2.941064">
        <time>2021-08-21T13:16:48Z</time>
      </trkpt>
      <trkpt lat="43.271424" lon="-2.941476">
        <time>2021-08-21T13:16:51Z</time>
      </trkpt>
      <trkpt lat="43.271568" lon="-2.94357">
        <time>2021-08-21T13:17:42Z</time>
      </trkpt>
      <trkpt lat="43.27169" lon="-2.944496">
        <time>2021-08-21T13:17:48Z</time>
      </trkpt>
      <trkpt lat="43.271894" lon="-2.94732">
        <time>2021-08-21T13:18:06Z</time>
      </trkpt>
      <trkpt lat="43.272181" lon="-2.948203">
        <time>2021-08-21T13:18:12Z</time>
      </trkpt>
      <trkpt lat="43.27259" lon="-2.950537">
        <time>2021-08-21T13:18:33Z</time>
      </trkpt>
      <trkpt lat="43.273262" lon="-2.952996">
        <time>2021-08-21T13:19:12Z</time>
      </trkpt>
      <trkpt lat="43.27373" lon="-2.954035">
        <time>2021-08-21T13:19:21Z</time>
      </trkpt>
      <trkpt lat="43.274039" lon="-2.954233">
        <time>2021-08-21T13:19:24Z</time>
      </trkpt>
      <trkpt lat="43.275691" lon="-2.954476">
        <time>2021-08-21T13:19:36Z</time>
      </trkpt>
      <trkpt lat="43.277402" lon="-2.955141">
        <time>2021-08-21T13:19:45Z</time>
      </trkpt>
      <trkpt lat="43.277402" lon="-2.955141">
        <time>2021-08-21T13:19:45Z</time>
      </trkpt>
      <trkpt lat="43.280151" lon="-2.956495">
        <time>2021-08-21T13:20:00Z</time>
      </trkpt>
      <trkpt lat="43.280746" lon="-2.956617">
        <time>2021-08-21T13:20:03Z</time>
      </trkpt>
      <trkpt lat="43.282974" lon="-2.957193">
        <time>2021-08-21T13:20:15Z</time>
      </trkpt>
      <trkpt lat="43.28443" lon="-2.958338">
        <time>2021-08-21T13:20:24Z</time>
      </trkpt>
      <trkpt lat="43.28496" lon="-2.958534">
        <time>2021-08-21T13:20:27Z</time>
      </trkpt>
      <trkpt lat="43.286624" lon="-2.958935">
        <time>2021-08-21T13:20:36Z</time>
      </trkpt>
      <trkpt lat="43.287576" lon="-2.959889">
        <time>2021-08-21T13:20:42Z</time>
      </trkpt>
      <trkpt lat="43.287576" lon="-2.959889">
        <time>2021-08-21T13:20:42Z</time>
      </trkpt>
      <trkpt lat="43.288576" lon="-2.960822">
        <time>2021-08-21T13:20:48Z</time>
      </trkpt>
      <trkpt lat="43.288576" lon="-2.960822">
        <time>2021-08-21T13:20:48Z</time>
      </trkpt>
      <trkpt lat="43.289167" lon="-2.961008">
        <time>2021-08-21T13:20:51Z</time>
      </trkpt>
      <trkpt lat="43.290341" lon="-2.960727">
        <time>2021-08-21T13:20:57Z</time>
      </trkpt>
      <trkpt lat="43.292253" lon="-2.959065">
        <time>2021-08-21T13:21:09Z</time>
      </trkpt>
      <trkpt lat="43.292582" lon="-2.958432">
        <time>2021-08-21T13:21:12Z</time>
      </trkpt>
      <trkpt lat="43.292582" lon="-2.958432">
        <time>2021-08-21T13:21:12Z</time>
      </trkpt>
      <trkpt lat="43.292909" lon="-2.956899">
        <time>2021-08-21T13:21:18Z</time>
      </trkpt>
      <trkpt lat="43.293325" lon="-2.955344">
        <time>2021-08-21T13:21:24Z</time>
      </trkpt>
      <trkpt lat="43.294137" lon="-2.954044">
        <time>2021-08-21T13:21:30Z</time>
      </trkpt>
      <trkpt lat="43.29524" lon="-2.953285">
        <time>2021-08-21T13:21:36Z</time>
      </trkpt>
      <trkpt lat="43.29524" lon="-2.953285">
        <time>2021-08-21T13:21:36Z</time>
      </trkpt>
      <trkpt lat="43.295841" lon="-2.953223">
        <time>2021-08-21T13:21:39Z</time>
      </trkpt>
      <trkpt lat="43.298659" lon="-2.953697">
        <time>2021-08-21T13:21:57Z</time>
      </trkpt>
      <trkpt lat="43.299025" lon="-2.953548">
        <time>2021-08-21T13:22:00Z</time>
      </trkpt>
      <trkpt lat="43.299321" lon="-2.95322">
        <time>2021-08-21T13:22:03Z</time>
      </trkpt>
      <trkpt lat="43.299485" lon="-2.952742">
        <time>2021-08-21T13:22:06Z</time>
      </trkpt>
      <trkpt lat="43.299485" lon="-2.952742">
        <time>2021-08-21T13:22:06Z</time>
      </trkpt>
      <trkpt lat="43.299468" lon="-2.952188">
        <time>2021-08-21T13:22:09Z</time>
      </trkpt>
      <trkpt lat="43.299285" lon="-2.951674">
        <time>2021-08-21T13:22:12Z</time>
      </trkpt>
      <trkpt lat="43.298816" lon="-2.950716">
        <time>2021-08-21T13:22:18Z</time>
      </trkpt>
      <trkpt lat="43.298763" lon="-2.950173">
        <time>2021-08-21T13:22:21Z</time>
      </trkpt>
      <trkpt lat="43.298935" lon="-2.949697">
        <time>2021-08-21T13:22:24Z</time>
      </trkpt>
      <trkpt lat="43.299256" lon="-2.94938">
        <time>2021-08-21T13:22:27Z</time>
      </trkpt>
      <trkpt lat="43.301112" lon="-2.948251">
        <time>2021-08-21T13:22:42Z</time>
      </trkpt>
      <trkpt lat="43.302828" lon="-2.947271">
        <time>2021-08-21T13:23:00Z</time>
      </trkpt>
      <trkpt lat="43.302933" lon="-2.947016">
        <time>2021-08-21T13:23:03Z</time>
      </trkpt>
      <trkpt lat="43.303035" lon="-2.946705">
        <time>2021-08-21T13:23:06Z</time>
      </trkpt>
      <trkpt lat="43.303279" lon="-2.946542">
        <time>2021-08-21T13:23:09Z</time>
      </trkpt>
      <trkpt lat="43.304818" lon="-2.945991">
        <time>2021-08-21T13:23:21Z</time>
      </trkpt>
      <trkpt lat="43.305236" lon="-2.945735">
        <time>2021-08-21T13:23:24Z</time>
      </trkpt>
      <trkpt lat="43.30951" lon="-2.943124">
        <time>2021-08-21T13:23:57Z</time>
      </trkpt>
      <trkpt lat="43.313908" lon="-2.940457">
        <time>2021-08-21T13:24:33Z</time>
      </trkpt>
      <trkpt lat="43.314411" lon="-2.940218">
        <time>2021-08-21T13:24:39Z</time>
      </trkpt>
      <trkpt lat="43.314498" lon="-2.939972">
        <time>2021-08-21T13:24:42Z</time>
      </trkpt>
      <trkpt lat="43.314411" lon="-2.939715">
        <time>2021-08-21T13:24:45Z</time>
      </trkpt>
      <trkpt lat="43.313789" lon="-2.937736">
        <time>2021-08-21T13:25:15Z</time>
      </trkpt>
      <trkpt lat="43.313556" lon="-2.937613">
        <time>2021-08-21T13:25:18Z</time>
      </trkpt>
      <trkpt lat="43.312961" lon="-2.937543">
        <time>2021-08-21T13:25:24Z</time>
      </trkpt>
      <trkpt lat="43.31279" lon="-2.937203">
        <time>2021-08-21T13:25:27Z</time>
      </trkpt>
      <trkpt lat="43.312498" lon="-2.936081">
        <time>2021-08-21T13:25:36Z</time>
      </trkpt>
      <trkpt lat="43.311611" lon="-2.932445">
        <time>2021-08-21T13:26:03Z</time>
      </trkpt>
      <trkpt lat="43.311416" lon="-2.929673">
        <time>2021-08-21T13:26:18Z</time>
      </trkpt>
      <trkpt lat="43.311239" lon="-2.92545">
        <time>2021-08-21T13:26:42Z</time>
      </trkpt>
      <trkpt lat="43.311598" lon="-2.923549">
        <time>2021-08-21T13:26:54Z</time>
      </trkpt>
      <trkpt lat="43.311814" lon="-2.922876">
        <time>2021-08-21T13:27:00Z</time>
      </trkpt>
      <trkpt lat="43.312125" lon="-2.922521">
        <time>2021-08-21T13:27:06Z</time>
      </trkpt>
      <trkpt lat="43.312371" lon="-2.922505">
        <time>2021-08-21T13:27:09Z</time>
      </trkpt>
      <trkpt lat="43.312666" lon="-2.922434">
        <time>2021-08-21T13:27:12Z</time>
      </trkpt>
      <trkpt lat="43.314604" lon="-2.92145">
        <time>2021-08-21T13:27:30Z</time>
      </trkpt>
      <trkpt lat="43.315605" lon="-2.920469">
        <time>2021-08-21T13:27:39Z</time>
      </trkpt>
      <trkpt lat="43.316839" lon="-2.919107">
        <time>2021-08-21T13:27:51Z</time>
      </trkpt>
      <trkpt lat="43.319197" lon="-2.916393">
        <time>2021-08-21T13:28:15Z</time>
      </trkpt>
      <trkpt lat="43.31952" lon="-2.91612">
        <time>2021-08-21T13:28:18Z</time>
      </trkpt>
      <trkpt lat="43.319834" lon="-2.916009">
        <time>2021-08-21T13:28:21Z</time>
      </trkpt>
      <trkpt lat="43.320492" lon="-2.915911">
        <time>2021-08-21T13:28:27Z</time>
      </trkpt>
      <trkpt lat="43.321538" lon="-2.914995">
        <time>2021-08-21T13:28:36Z</time>
      </trkpt>
      <trkpt lat="43.321953" lon="-2.914067">
        <time>2021-08-21T13:28:42Z</time>
      </trkpt>
      <trkpt lat="43.322283" lon="-2.913402">
        <time>2021-08-21T13:28:48Z</time>
      </trkpt>
      <trkpt lat="43.322578" lon="-2.913273">
        <time>2021-08-21T13:28:51Z</time>
      </trkpt>
      <trkpt lat="43.322816" lon="-2.913164">
        <time>2021-08-21T13:28:54Z</time>
      </trkpt>
      <trkpt lat="43.323106" lon="-2.912816">
        <time>2021-08-21T13:28:57Z</time>
      </trkpt>
      <trkpt lat="43.323304" lon="-2.912365">
        <time>2021-08-21T13:29:00Z</time>
      </trkpt>
      <trkpt lat="43.324059" lon="-2.91028">
        <time>2021-08-21T13:29:15Z</time>
      </trkpt>
      <trkpt lat="43.324587" lon="-2.909574">
        <time>2021-08-21T13:29:21Z</time>
      </trkpt>
      <trkpt lat="43.324703" lon="-2.909054">
        <time>2021-08-21T13:29:24Z</time>
      </trkpt>
      <trkpt lat="43.325008" lon="-2.907459">
        <time>2021-08-21T13:29:33Z</time>
      </trkpt>
      <trkpt lat="43.325008" lon="-2.907459">
        <time>2021-08-21T13:29:33Z</time>
      </trkpt>
      <trkpt lat="43.325544" lon="-2.906745">
        <time>2021-08-21T13:29:39Z</time>
      </trkpt>
      <trkpt lat="43.32922" lon="-2.904604">
        <time>2021-08-21T13:30:09Z</time>
      </trkpt>
      <trkpt lat="43.32922" lon="-2.904604">
        <time>2021-08-21T13:30:09Z</time>
      </trkpt>
      <trkpt lat="43.329972" lon="-2.904577">
        <time>2021-08-21T13:30:15Z</time>
      </trkpt>
      <trkpt lat="43.330639" lon="-2.904866">
        <time>2021-08-21T13:30:21Z</time>
      </trkpt>
      <trkpt lat="43.330973" lon="-2.904943">
        <time>2021-08-21T13:30:24Z</time>
      </trkpt>
      <trkpt lat="43.33128" lon="-2.904717">
        <time>2021-08-21T13:30:27Z</time>
      </trkpt>
      <trkpt lat="43.332938" lon="-2.902727">
        <time>2021-08-21T13:30:39Z</time>
      </trkpt>
      <trkpt lat="43.333256" lon="-2.902232">
        <time>2021-08-21T13:30:42Z</time>
      </trkpt>
      <trkpt lat="43.333256" lon="-2.902232">
        <time>2021-08-21T13:30:42Z</time>
      </trkpt>
      <trkpt lat="43.333663" lon="-2.901973">
        <time>2021-08-21T13:30:45Z</time>
      </trkpt>
      <trkpt lat="43.33762" lon="-2.90003">
        <time>2021-08-21T13:31:12Z</time>
      </trkpt>
      <trkpt lat="43.33762" lon="-2.90003">
        <time>2021-08-21T13:31:12Z</time>
      </trkpt>
      <trkpt lat="43.337796" lon="-2.899547">
        <time>2021-08-21T13:31:15Z</time>
      </trkpt>
      <trkpt lat="43.338307" lon="-2.898593">
        <time>2021-08-21T13:31:21Z</time>
      </trkpt>
      <trkpt lat="43.339111" lon="-2.897945">
        <time>2021-08-21T13:31:27Z</time>
      </trkpt>
      <trkpt lat="43.339334" lon="-2.897383">
        <time>2021-08-21T13:31:30Z</time>
      </trkpt>
      <trkpt lat="43.33961" lon="-2.897004">
        <time>2021-08-21T13:31:33Z</time>
      </trkpt>
      <trkpt lat="43.34002" lon="-2.896847">
        <time>2021-08-21T13:31:36Z</time>
      </trkpt>
      <trkpt lat="43.34048" lon="-2.896537">
        <time>2021-08-21T13:31:39Z</time>
      </trkpt>
      <trkpt lat="43.340907" lon="-2.896111">
        <time>2021-08-21T13:31:42Z</time>
      </trkpt>
      <trkpt lat="43.34117" lon="-2.895484">
        <time>2021-08-21T13:31:45Z</time>
      </trkpt>
      <trkpt lat="43.341148" lon="-2.894761">
        <time>2021-08-21T13:31:48Z</time>
      </trkpt>
      <trkpt lat="43.340903" lon="-2.892534">
        <time>2021-08-21T13:31:57Z</time>
      </trkpt>
      <trkpt lat="43.341046" lon="-2.891865">
        <time>2021-08-21T13:32:00Z</time>
      </trkpt>
      <trkpt lat="43.341974" lon="-2.890033">
        <time>2021-08-21T13:32:09Z</time>
      </trkpt>
      <trkpt lat="43.342644" lon="-2.888837">
        <time>2021-08-21T13:32:15Z</time>
      </trkpt>
      <trkpt lat="43.345335" lon="-2.885426">
        <time>2021-08-21T13:32:33Z</time>
      </trkpt>
      <trkpt lat="43.345335" lon="-2.885426">
        <time>2021-08-21T13:32:33Z</time>
      </trkpt>
      <trkpt lat="43.345589" lon="-2.884677">
        <time>2021-08-21T13:32:36Z</time>
      </trkpt>
      <trkpt lat="43.346826" lon="-2.882021">
        <time>2021-08-21T13:32:48Z</time>
      </trkpt>
      <trkpt lat="43.347266" lon="-2.881605">
        <time>2021-08-21T13:32:51Z</time>
      </trkpt>
      <trkpt lat="43.347779" lon="-2.881494">
        <time>2021-08-21T13:32:54Z</time>
      </trkpt>
      <trkpt lat="43.348279" lon="-2.88169">
        <time>2021-08-21T13:32:57Z</time>
      </trkpt>
      <trkpt lat="43.348787" lon="-2.881939">
        <time>2021-08-21T13:33:00Z</time>
      </trkpt>
      <trkpt lat="43.352613" lon="-2.883557">
        <time>2021-08-21T13:33:24Z</time>
      </trkpt>
      <trkpt lat="43.353084" lon="-2.883481">
        <time>2021-08-21T13:33:27Z</time>
      </trkpt>
      <trkpt lat="43.353912" lon="-2.883268">
        <time>2021-08-21T13:33:33Z</time>
      </trkpt>
      <trkpt lat="43.354147" lon="-2.882861">
        <time>2021-08-21T13:33:36Z</time>
      </trkpt>
      <trkpt lat="43.354811" lon="-2.882129">
        <time>2021-08-21T13:33:42Z</time>
      </trkpt>
      <trkpt lat="43.356836" lon="-2.881487">
        <time>2021-08-21T13:33:54Z</time>
      </trkpt>
      <trkpt lat="43.357249" lon="-2.881459">
        <time>2021-08-21T13:33:57Z</time>
      </trkpt>
      <trkpt lat="43.357865" lon="-2.881304">
        <time>2021-08-21T13:34:03Z</time>
      </trkpt>
      <trkpt lat="43.359426" lon="-2.879729">
        <time>2021-08-21T13:34:18Z</time>
      </trkpt>
      <trkpt lat="43.359608" lon="-2.87932">
        <time>2021-08-21T13:34:21Z</time>
      </trkpt>
      <trkpt lat="43.360243" lon="-2.877032">
        <time>2021-08-21T13:34:36Z</time>
      </trkpt>
      <trkpt lat="43.360243" lon="-2.877032">
        <time>2021-08-21T13:34:36Z</time>
      </trkpt>
      <trkpt lat="43.360577" lon="-2.876617">
        <time>2021-08-21T13:34:39Z</time>
      </trkpt>
      <trkpt lat="43.362486" lon="-2.874572">
        <time>2021-08-21T13:35:03Z</time>
      </trkpt>
      <trkpt lat="43.362838" lon="-2.874028">
        <time>2021-08-21T13:35:12Z</time>
      </trkpt>
      <trkpt lat="43.362899" lon="-2.874197">
        <time>2021-08-21T13:35:15Z</time>
      </trkpt>
      <trkpt lat="43.362991" lon="-2.874471">
        <time>2021-08-21T13:35:18Z</time>
      </trkpt>
      <trkpt lat="43.36326" lon="-2.874636">
        <time>2021-08-21T13:35:21Z</time>
      </trkpt>
      <trkpt lat="43.363797" lon="-2.875059">
        <time>2021-08-21T13:35:27Z</time>
      </trkpt>
      <trkpt lat="43.363797" lon="-2.875059">
        <time>2021-08-21T13:35:27Z</time>
      </trkpt>
      <trkpt lat="43.364655" lon="-2.875836">
        <time>2021-08-21T13:35:36Z</time>
      </trkpt>
      <trkpt lat="43.364961" lon="-2.876068">
        <time>2021-08-21T13:35:39Z</time>
      </trkpt>
      <trkpt lat="43.365686" lon="-2.876179">
        <time>2021-08-21T13:35:45Z</time>
      </trkpt>
      <trkpt lat="43.366012" lon="-2.876241">
        <time>2021-08-21T13:35:48Z</time>
      </trkpt>
      <trkpt lat="43.3662" lon="-2.876498">
        <time>2021-08-21T13:35:51Z</time>
      </trkpt>
      <trkpt lat="43.366259" lon="-2.87694">
        <time>2021-08-21T13:35:54Z</time>
      </trkpt>
      <trkpt lat="43.366212" lon="-2.877875">
        <time>2021-08-21T13:36:00Z</time>
      </trkpt>
      <trkpt lat="43.366221" lon="-2.878808">
        <time>2021-08-21T13:36:06Z</time>
      </trkpt>
      <trkpt lat="43.366306" lon="-2.879274">
        <time>2021-08-21T13:36:09Z</time>
      </trkpt>
      <trkpt lat="43.366454" lon="-2.87971">
        <time>2021-08-21T13:36:12Z</time>
      </trkpt>
      <trkpt lat="43.366871" lon="-2.880619">
        <time>2021-08-21T13:36:18Z</time>
      </trkpt>
      <trkpt lat="43.367041" lon="-2.881158">
        <time>2021-08-21T13:36:21Z</time>
      </trkpt>
      <trkpt lat="43.367685" lon="-2.882062">
        <time>2021-08-21T13:36:27Z</time>
      </trkpt>
      <trkpt lat="43.369175" lon="-2.883906">
        <time>2021-08-21T13:36:39Z</time>
      </trkpt>
      <trkpt lat="43.372697" lon="-2.887882">
        <time>2021-08-21T13:37:06Z</time>
      </trkpt>
      <trkpt lat="43.373871" lon="-2.889652">
        <time>2021-08-21T13:37:18Z</time>
      </trkpt>
      <trkpt lat="43.374005" lon="-2.889846">
        <time>2021-08-21T13:37:21Z</time>
      </trkpt>
      <trkpt lat="43.374194" lon="-2.889742">
        <time>2021-08-21T13:37:24Z</time>
      </trkpt>
      <trkpt lat="43.374345" lon="-2.889319">
        <time>2021-08-21T13:37:27Z</time>
      </trkpt>
      <trkpt lat="43.375123" lon="-2.887549">
        <time>2021-08-21T13:37:36Z</time>
      </trkpt>
      <trkpt lat="43.375505" lon="-2.88698">
        <time>2021-08-21T13:37:39Z</time>
      </trkpt>
      <trkpt lat="43.37764" lon="-2.884496">
        <time>2021-08-21T13:37:54Z</time>
      </trkpt>
      <trkpt lat="43.379441" lon="-2.882667">
        <time>2021-08-21T13:38:06Z</time>
      </trkpt>
      <trkpt lat="43.381176" lon="-2.880581">
        <time>2021-08-21T13:38:18Z</time>
      </trkpt>
      <trkpt lat="43.382595" lon="-2.878406">
        <time>2021-08-21T13:38:30Z</time>
      </trkpt>
      <trkpt lat="43.382983" lon="-2.877997">
        <time>2021-08-21T13:38:33Z</time>
      </trkpt>
      <trkpt lat="43.383426" lon="-2.877349">
        <time>2021-08-21T13:38:39Z</time>
      </trkpt>
      <trkpt lat="43.383543" lon="-2.877092">
        <time>2021-08-21T13:38:42Z</time>
      </trkpt>
      <trkpt lat="43.383776" lon="-2.877131">
        <time>2021-08-21T13:38:45Z</time>
      </trkpt>
      <trkpt lat="43.385819" lon="-2.877717">
        <time>2021-08-21T13:39:00Z</time>
      </trkpt>
      <trkpt lat="43.386229" lon="-2.877486">
        <time>2021-08-21T13:39:03Z</time>
      </trkpt>
      <trkpt lat="43.38703" lon="-2.876819">
        <time>2021-08-21T13:39:09Z</time>
      </trkpt>
      <trkpt lat="43.387351" lon="-2.876373">
        <time>2021-08-21T13:39:12Z</time>
      </trkpt>
      <trkpt lat="43.388026" lon="-2.875364">
        <time>2021-08-21T13:39:18Z</time>
      </trkpt>
      <trkpt lat="43.388896" lon="-2.874898">
        <time>2021-08-21T13:39:24Z</time>
      </trkpt>
      <trkpt lat="43.391141" lon="-2.87454">
        <time>2021-08-21T13:39:36Z</time>
      </trkpt>
      <trkpt lat="43.391141" lon="-2.87454">
        <time>2021-08-21T13:39:36Z</time>
      </trkpt>
      <trkpt lat="43.392375" lon="-2.874119">
        <time>2021-08-21T13:39:42Z</time>
      </trkpt>
      <trkpt lat="43.39469" lon="-2.873314">
        <time>2021-08-21T13:39:54Z</time>
      </trkpt>
      <trkpt lat="43.395609" lon="-2.87261">
        <time>2021-08-21T13:40:00Z</time>
      </trkpt>
      <trkpt lat="43.395609" lon="-2.87261">
        <time>2021-08-21T13:40:00Z</time>
      </trkpt>
      <trkpt lat="43.396163" lon="-2.872503">
        <time>2021-08-21T13:40:03Z</time>
      </trkpt>
      <trkpt lat="43.40028" lon="-2.872475">
        <time>2021-08-21T13:40:24Z</time>
      </trkpt>
      <trkpt lat="43.403915" lon="-2.871847">
        <time>2021-08-21T13:40:42Z</time>
      </trkpt>
      <trkpt lat="43.404834" lon="-2.871331">
        <time>2021-08-21T13:40:48Z</time>
      </trkpt>
      <trkpt lat="43.405142" lon="-2.871007">
        <time>2021-08-21T13:40:51Z</time>
      </trkpt>
      <trkpt lat="43.405322" lon="-2.87047">
        <time>2021-08-21T13:40:54Z</time>
      </trkpt>
      <trkpt lat="43.405579" lon="-2.869392">
        <time>2021-08-21T13:41:00Z</time>
      </trkpt>
      <trkpt lat="43.406001" lon="-2.869076">
        <time>2021-08-21T13:41:03Z</time>
      </trkpt>
      <trkpt lat="43.408591" lon="-2.867782">
        <time>2021-08-21T13:41:18Z</time>
      </trkpt>
      <trkpt lat="43.409095" lon="-2.867684">
        <time>2021-08-21T13:41:21Z</time>
      </trkpt>
      <trkpt lat="43.410111" lon="-2.867234">
        <time>2021-08-21T13:41:27Z</time>
      </trkpt>
      <trkpt lat="43.410938" lon="-2.867004">
        <time>2021-08-21T13:41:33Z</time>
      </trkpt>
      <trkpt lat="43.411733" lon="-2.86717">
        <time>2021-08-21T13:41:39Z</time>
      </trkpt>
      <trkpt lat="43.412097" lon="-2.867154">
        <time>2021-08-21T13:41:42Z</time>
      </trkpt>
      <trkpt lat="43.412745" lon="-2.867326">
        <time>2021-08-21T13:41:48Z</time>
      </trkpt>
      <trkpt lat="43.412908" lon="-2.867632">
        <time>2021-08-21T13:41:51Z</time>
      </trkpt>
      <trkpt lat="43.412908" lon="-2.867632">
        <time>2021-08-21T13:41:51Z</time>
      </trkpt>
      <trkpt lat="43.413193" lon="-2.867902">
        <time>2021-08-21T13:41:54Z</time>
      </trkpt>
      <trkpt lat="43.413484" lon="-2.867849">
        <time>2021-08-21T13:41:57Z</time>
      </trkpt>
      <trkpt lat="43.413635" lon="-2.867475">
        <time>2021-08-21T13:42:00Z</time>
      </trkpt>
      <trkpt lat="43.414051" lon="-2.866453">
        <time>2021-08-21T13:42:06Z</time>
      </trkpt>
      <trkpt lat="43.41511" lon="-2.863366">
        <time>2021-08-21T13:42:21Z</time>
      </trkpt>
      <trkpt lat="43.415295" lon="-2.862996">
        <time>2021-08-21T13:42:24Z</time>
      </trkpt>
      <trkpt lat="43.415295" lon="-2.862996">
        <time>2021-08-21T13:42:24Z</time>
      </trkpt>
      <trkpt lat="43.415637" lon="-2.862916">
        <time>2021-08-21T13:42:27Z</time>
      </trkpt>
      <trkpt lat="43.416712" lon="-2.862634">
        <time>2021-08-21T13:42:36Z</time>
      </trkpt>
      <trkpt lat="43.416747" lon="-2.862037">
        <time>2021-08-21T13:42:39Z</time>
      </trkpt>
      <trkpt lat="43.416881" lon="-2.861078">
        <time>2021-08-21T13:42:45Z</time>
      </trkpt>
      <trkpt lat="43.417229" lon="-2.861052">
        <time>2021-08-21T13:42:48Z</time>
      </trkpt>
      <trkpt lat="43.418176" lon="-2.86082">
        <time>2021-08-21T13:42:54Z</time>
      </trkpt>
      <trkpt lat="43.418894" lon="-2.86012">
        <time>2021-08-21T13:43:00Z</time>
      </trkpt>
      <trkpt lat="43.418894" lon="-2.86012">
        <time>2021-08-21T13:43:00Z</time>
      </trkpt>
      <trkpt lat="43.419996" lon="-2.85814">
        <time>2021-08-21T13:43:09Z</time>
      </trkpt>
      <trkpt lat="43.422308" lon="-2.856095">
        <time>2021-08-21T13:43:24Z</time>
      </trkpt>
      <trkpt lat="43.422308" lon="-2.856095">
        <time>2021-08-21T13:43:24Z</time>
      </trkpt>
      <trkpt lat="43.423033" lon="-2.855232">
        <time>2021-08-21T13:43:30Z</time>
      </trkpt>
      <trkpt lat="43.424688" lon="-2.853008">
        <time>2021-08-21T13:43:45Z</time>
      </trkpt>
      <trkpt lat="43.424719" lon="-2.85236">
        <time>2021-08-21T13:43:48Z</time>
      </trkpt>
      <trkpt lat="43.424813" lon="-2.85061">
        <time>2021-08-21T13:43:54Z</time>
      </trkpt>
      <trkpt lat="43.424668" lon="-2.848488">
        <time>2021-08-21T13:44:03Z</time>
      </trkpt>
      <trkpt lat="43.424428" lon="-2.848266">
        <time>2021-08-21T13:44:06Z</time>
      </trkpt>
      <trkpt lat="43.424222" lon="-2.847849">
        <time>2021-08-21T13:44:09Z</time>
      </trkpt>
      <trkpt lat="43.424176" lon="-2.84727">
        <time>2021-08-21T13:44:12Z</time>
      </trkpt>
      <trkpt lat="43.424044" lon="-2.846771">
        <time>2021-08-21T13:44:15Z</time>
      </trkpt>
      <trkpt lat="43.423748" lon="-2.846367">
        <time>2021-08-21T13:44:18Z</time>
      </trkpt>
      <trkpt lat="43.422827" lon="-2.84505">
        <time>2021-08-21T13:44:27Z</time>
      </trkpt>
      <trkpt lat="43.422827" lon="-2.84505">
        <time>2021-08-21T13:44:27Z</time>
      </trkpt>
      <trkpt lat="43.422912" lon="-2.844729">
        <time>2021-08-21T13:44:30Z</time>
      </trkpt>
      <trkpt lat="43.423285" lon="-2.84453">
        <time>2021-08-21T13:44:33Z</time>
      </trkpt>
      <trkpt lat="43.424149" lon="-2.84448">
        <time>2021-08-21T13:44:39Z</time>
      </trkpt>
      <trkpt lat="43.424465" lon="-2.844291">
        <time>2021-08-21T13:44:42Z</time>
      </trkpt>
      <trkpt lat="43.424611" lon="-2.843792">
        <time>2021-08-21T13:44:45Z</time>
      </trkpt>
      <trkpt lat="43.424462" lon="-2.843287">
        <time>2021-08-21T13:44:48Z</time>
      </trkpt>
      <trkpt lat="43.42332" lon="-2.841849">
        <time>2021-08-21T13:44:57Z</time>
      </trkpt>
      <trkpt lat="43.422994" lon="-2.841205">
        <time>2021-08-21T13:45:00Z</time>
      </trkpt>
      <trkpt lat="43.422685" lon="-2.840382">
        <time>2021-08-21T13:45:06Z</time>
      </trkpt>
      <trkpt lat="43.423042" lon="-2.840272">
        <time>2021-08-21T13:45:09Z</time>
      </trkpt>
      <trkpt lat="43.425444" lon="-2.838808">
        <time>2021-08-21T13:45:24Z</time>
      </trkpt>
      <trkpt lat="43.425991" lon="-2.837975">
        <time>2021-08-21T13:45:30Z</time>
      </trkpt>
      <trkpt lat="43.426062" lon="-2.837592">
        <time>2021-08-21T13:45:33Z</time>
      </trkpt>
      <trkpt lat="43.425997" lon="-2.837234">
        <time>2021-08-21T13:45:36Z</time>
      </trkpt>
      <trkpt lat="43.425394" lon="-2.835567">
        <time>2021-08-21T13:45:51Z</time>
      </trkpt>
      <trkpt lat="43.42538" lon="-2.835463">
        <time>2021-08-21T13:46:03Z</time>
      </trkpt>
      <trkpt lat="43.425412" lon="-2.835561">
        <time>2021-08-21T13:46:06Z</time>
      </trkpt>
      <trkpt lat="43.426101" lon="-2.837471">
        <time>2021-08-21T13:46:21Z</time>
      </trkpt>
      <trkpt lat="43.426252" lon="-2.837537">
        <time>2021-08-21T13:46:24Z</time>
      </trkpt>
      <trkpt lat="43.426296" lon="-2.837535">
        <time>2021-08-21T13:46:51Z</time>
      </trkpt>
      <trkpt lat="43.426296" lon="-2.837535">
        <time>2021-08-21T13:46:51Z</time>
      </trkpt>
      <trkpt lat="43.426446" lon="-2.837135">
        <time>2021-08-21T13:59:14Z</time>
      </trkpt>
      <trkpt lat="43.426396" lon="-2.837143">
        <time>2021-08-21T13:59:44Z</time>
      </trkpt>
      <trkpt lat="43.426339" lon="-2.837129">
        <time>2021-08-21T13:59:47Z</time>
      </trkpt>
      <trkpt lat="43.426237" lon="-2.837156">
        <time>2021-08-21T13:59:53Z</time>
      </trkpt>
      <trkpt lat="43.426122" lon="-2.837002">
        <time>2021-08-21T13:59:56Z</time>
      </trkpt>
      <trkpt lat="43.425386" lon="-2.835078">
        <time>2021-08-21T14:00:11Z</time>
      </trkpt>
      <trkpt lat="43.425127" lon="-2.834033">
        <time>2021-08-21T14:00:17Z</time>
      </trkpt>
      <trkpt lat="43.425038" lon="-2.833061">
        <time>2021-08-21T14:00:23Z</time>
      </trkpt>
      <trkpt lat="43.425326" lon="-2.832586">
        <time>2021-08-21T14:00:26Z</time>
      </trkpt>
      <trkpt lat="43.425775" lon="-2.831565">
        <time>2021-08-21T14:00:32Z</time>
      </trkpt>
      <trkpt lat="43.42597" lon="-2.830666">
        <time>2021-08-21T14:00:38Z</time>
      </trkpt>
      <trkpt lat="43.425743" lon="-2.830374">
        <time>2021-08-21T14:00:41Z</time>
      </trkpt>
      <trkpt lat="43.425423" lon="-2.830391">
        <time>2021-08-21T14:00:44Z</time>
      </trkpt>
      <trkpt lat="43.425423" lon="-2.830391">
        <time>2021-08-21T14:00:47Z</time>
      </trkpt>
      <trkpt lat="43.425071" lon="-2.830673">
        <time>2021-08-21T14:00:47Z</time>
      </trkpt>
      <trkpt lat="43.423713" lon="-2.831881">
        <time>2021-08-21T14:00:59Z</time>
      </trkpt>
      <trkpt lat="43.423318" lon="-2.831723">
        <time>2021-08-21T14:01:02Z</time>
      </trkpt>
      <trkpt lat="43.422533" lon="-2.831157">
        <time>2021-08-21T14:01:08Z</time>
      </trkpt>
      <trkpt lat="43.422533" lon="-2.831157">
        <time>2021-08-21T14:01:08Z</time>
      </trkpt>
      <trkpt lat="43.421833" lon="-2.830664">
        <time>2021-08-21T14:01:14Z</time>
      </trkpt>
      <trkpt lat="43.421398" lon="-2.830664">
        <time>2021-08-21T14:01:17Z</time>
      </trkpt>
      <trkpt lat="43.420971" lon="-2.830856">
        <time>2021-08-21T14:01:20Z</time>
      </trkpt>
      <trkpt lat="43.420083" lon="-2.831171">
        <time>2021-08-21T14:01:26Z</time>
      </trkpt>
      <trkpt lat="43.418245" lon="-2.831171">
        <time>2021-08-21T14:01:38Z</time>
      </trkpt>
      <trkpt lat="43.417914" lon="-2.831095">
        <time>2021-08-21T14:01:41Z</time>
      </trkpt>
      <trkpt lat="43.417914" lon="-2.831095">
        <time>2021-08-21T14:01:41Z</time>
      </trkpt>
      <trkpt lat="43.417708" lon="-2.830881">
        <time>2021-08-21T14:01:44Z</time>
      </trkpt>
      <trkpt lat="43.417378" lon="-2.830894">
        <time>2021-08-21T14:01:47Z</time>
      </trkpt>
      <trkpt lat="43.416979" lon="-2.831051">
        <time>2021-08-21T14:01:50Z</time>
      </trkpt>
      <trkpt lat="43.416219" lon="-2.831355">
        <time>2021-08-21T14:01:56Z</time>
      </trkpt>
      <trkpt lat="43.415914" lon="-2.831541">
        <time>2021-08-21T14:01:59Z</time>
      </trkpt>
      <trkpt lat="43.415249" lon="-2.831945">
        <time>2021-08-21T14:02:05Z</time>
      </trkpt>
      <trkpt lat="43.413935" lon="-2.833024">
        <time>2021-08-21T14:02:14Z</time>
      </trkpt>
      <trkpt lat="43.413605" lon="-2.833428">
        <time>2021-08-21T14:02:17Z</time>
      </trkpt>
      <trkpt lat="43.413242" lon="-2.833517">
        <time>2021-08-21T14:02:23Z</time>
      </trkpt>
      <trkpt lat="43.413288" lon="-2.833201">
        <time>2021-08-21T14:02:26Z</time>
      </trkpt>
      <trkpt lat="43.413857" lon="-2.830683">
        <time>2021-08-21T14:02:38Z</time>
      </trkpt>
      <trkpt lat="43.414411" lon="-2.828793">
        <time>2021-08-21T14:02:47Z</time>
      </trkpt>
      <trkpt lat="43.414277" lon="-2.828316">
        <time>2021-08-21T14:02:50Z</time>
      </trkpt>
      <trkpt lat="43.414007" lon="-2.827951">
        <time>2021-08-21T14:02:53Z</time>
      </trkpt>
      <trkpt lat="43.413687" lon="-2.827631">
        <time>2021-08-21T14:02:56Z</time>
      </trkpt>
      <trkpt lat="43.413317" lon="-2.826844">
        <time>2021-08-21T14:03:02Z</time>
      </trkpt>
      <trkpt lat="43.413379" lon="-2.826311">
        <time>2021-08-21T14:03:05Z</time>
      </trkpt>
      <trkpt lat="43.413762" lon="-2.823937">
        <time>2021-08-21T14:03:17Z</time>
      </trkpt>
      <trkpt lat="43.414406" lon="-2.822082">
        <time>2021-08-21T14:03:26Z</time>
      </trkpt>
      <trkpt lat="43.414544" lon="-2.821508">
        <time>2021-08-21T14:03:29Z</time>
      </trkpt>
      <trkpt lat="43.414565" lon="-2.820954">
        <time>2021-08-21T14:03:32Z</time>
      </trkpt>
      <trkpt lat="43.414522" lon="-2.818751">
        <time>2021-08-21T14:03:47Z</time>
      </trkpt>
      <trkpt lat="43.41476" lon="-2.818517">
        <time>2021-08-21T14:03:50Z</time>
      </trkpt>
      <trkpt lat="43.415323" lon="-2.818203">
        <time>2021-08-21T14:03:56Z</time>
      </trkpt>
      <trkpt lat="43.415607" lon="-2.818269">
        <time>2021-08-21T14:03:59Z</time>
      </trkpt>
      <trkpt lat="43.416241" lon="-2.818425">
        <time>2021-08-21T14:04:05Z</time>
      </trkpt>
      <trkpt lat="43.416516" lon="-2.818271">
        <time>2021-08-21T14:04:08Z</time>
      </trkpt>
      <trkpt lat="43.416516" lon="-2.818271">
        <time>2021-08-21T14:04:08Z</time>
      </trkpt>
      <trkpt lat="43.416637" lon="-2.817933">
        <time>2021-08-21T14:04:11Z</time>
      </trkpt>
      <trkpt lat="43.416609" lon="-2.817551">
        <time>2021-08-21T14:04:14Z</time>
      </trkpt>
      <trkpt lat="43.416504" lon="-2.81717">
        <time>2021-08-21T14:04:17Z</time>
      </trkpt>
      <trkpt lat="43.416241" lon="-2.816499">
        <time>2021-08-21T14:04:23Z</time>
      </trkpt>
      <trkpt lat="43.4163" lon="-2.81607">
        <time>2021-08-21T14:04:26Z</time>
      </trkpt>
      <trkpt lat="43.416769" lon="-2.813915">
        <time>2021-08-21T14:04:41Z</time>
      </trkpt>
      <trkpt lat="43.416691" lon="-2.813575">
        <time>2021-08-21T14:04:44Z</time>
      </trkpt>
      <trkpt lat="43.416497" lon="-2.813257">
        <time>2021-08-21T14:04:47Z</time>
      </trkpt>
      <trkpt lat="43.416257" lon="-2.813069">
        <time>2021-08-21T14:04:50Z</time>
      </trkpt>
      <trkpt lat="43.415986" lon="-2.813105">
        <time>2021-08-21T14:04:53Z</time>
      </trkpt>
      <trkpt lat="43.415693" lon="-2.81325">
        <time>2021-08-21T14:04:56Z</time>
      </trkpt>
      <trkpt lat="43.414574" lon="-2.813757">
        <time>2021-08-21T14:05:11Z</time>
      </trkpt>
      <trkpt lat="43.414475" lon="-2.813669">
        <time>2021-08-21T14:05:14Z</time>
      </trkpt>
      <trkpt lat="43.414421" lon="-2.813527">
        <time>2021-08-21T14:05:17Z</time>
      </trkpt>
      <trkpt lat="43.41434" lon="-2.813252">
        <time>2021-08-21T14:05:47Z</time>
      </trkpt>
      <trkpt lat="43.414423" lon="-2.813131">
        <time>2021-08-21T14:05:50Z</time>
      </trkpt>
      <trkpt lat="43.41611" lon="-2.812357">
        <time>2021-08-21T14:06:11Z</time>
      </trkpt>
      <trkpt lat="43.416784" lon="-2.812537">
        <time>2021-08-21T14:06:20Z</time>
      </trkpt>
      <trkpt lat="43.417122" lon="-2.812831">
        <time>2021-08-21T14:06:26Z</time>
      </trkpt>
      <trkpt lat="43.41782" lon="-2.813438">
        <time>2021-08-21T14:06:38Z</time>
      </trkpt>
      <trkpt lat="43.421474" lon="-2.814105">
        <time>2021-08-21T14:07:20Z</time>
      </trkpt>
      <trkpt lat="43.422021" lon="-2.814182">
        <time>2021-08-21T14:07:29Z</time>
      </trkpt>
      <trkpt lat="43.422447" lon="-2.814245">
        <time>2021-08-21T14:07:35Z</time>
      </trkpt>
      <trkpt lat="43.425991" lon="-2.813232">
        <time>2021-08-21T14:08:29Z</time>
      </trkpt>
      <trkpt lat="43.426754" lon="-2.812922">
        <time>2021-08-21T14:08:41Z</time>
      </trkpt>
      <trkpt lat="43.426875" lon="-2.812835">
        <time>2021-08-21T14:08:44Z</time>
      </trkpt>
      <trkpt lat="43.426948" lon="-2.81289">
        <time>2021-08-21T14:08:47Z</time>
      </trkpt>
      <trkpt lat="43.427029" lon="-2.812922">
        <time>2021-08-21T14:08:50Z</time>
      </trkpt>
      <trkpt lat="43.427969" lon="-2.812508">
        <time>2021-08-21T14:09:05Z</time>
      </trkpt>
      <trkpt lat="43.428136" lon="-2.812224">
        <time>2021-08-21T14:09:08Z</time>
      </trkpt>
      <trkpt lat="43.428439" lon="-2.811707">
        <time>2021-08-21T14:09:17Z</time>
      </trkpt>
      <trkpt lat="43.428588" lon="-2.811772">
        <time>2021-08-21T14:09:20Z</time>
      </trkpt>
      <trkpt lat="43.429788" lon="-2.812267">
        <time>2021-08-21T14:09:47Z</time>
      </trkpt>
      <trkpt lat="43.429937" lon="-2.812156">
        <time>2021-08-21T14:09:53Z</time>
      </trkpt>
      <trkpt lat="43.430007" lon="-2.812153">
        <time>2021-08-21T14:09:56Z</time>
      </trkpt>
      <trkpt lat="43.430096" lon="-2.812148">
        <time>2021-08-21T14:09:59Z</time>
      </trkpt>
      <trkpt lat="43.43022" lon="-2.812139">
        <time>2021-08-21T14:10:02Z</time>
      </trkpt>
      <trkpt lat="43.430339" lon="-2.812162">
        <time>2021-08-21T14:10:05Z</time>
      </trkpt>
      <trkpt lat="43.430428" lon="-2.812216">
        <time>2021-08-21T14:10:08Z</time>
      </trkpt>
      <trkpt lat="43.430559" lon="-2.812111">
        <time>2021-08-21T14:10:14Z</time>
      </trkpt>
      <trkpt lat="43.430709" lon="-2.812023">
        <time>2021-08-21T14:10:20Z</time>
      </trkpt>
      <trkpt lat="43.430773" lon="-2.811896">
        <time>2021-08-21T14:10:23Z</time>
      </trkpt>
      <trkpt lat="43.430823" lon="-2.811885">
        <time>2021-08-21T14:10:26Z</time>
      </trkpt>
      <trkpt lat="43.430774" lon="-2.811865">
        <time>2021-08-21T14:10:29Z</time>
      </trkpt>
      <trkpt lat="43.43073" lon="-2.811823">
        <time>2021-08-21T14:10:32Z</time>
      </trkpt>
      <trkpt lat="43.430709" lon="-2.811681">
        <time>2021-08-21T14:10:38Z</time>
      </trkpt>
      <trkpt lat="43.430613" lon="-2.81165">
        <time>2021-08-21T14:10:44Z</time>
      </trkpt>
      <trkpt lat="43.430183" lon="-2.811731">
        <time>2021-08-21T14:10:56Z</time>
      </trkpt>
      <trkpt lat="43.430122" lon="-2.811813">
        <time>2021-08-21T14:10:59Z</time>
      </trkpt>
      <trkpt lat="43.430088" lon="-2.811787">
        <time>2021-08-21T14:11:44Z</time>
      </trkpt>
      <trkpt lat="43.429915" lon="-2.811805">
        <time>2021-08-21T14:11:47Z</time>
      </trkpt>
      <trkpt lat="43.429694" lon="-2.811756">
        <time>2021-08-21T14:11:50Z</time>
      </trkpt>
      <trkpt lat="43.429149" lon="-2.811506">
        <time>2021-08-21T14:11:59Z</time>
      </trkpt>
      <trkpt lat="43.429045" lon="-2.811634">
        <time>2021-08-21T14:12:02Z</time>
      </trkpt>
      <trkpt lat="43.428758" lon="-2.811877">
        <time>2021-08-21T14:12:08Z</time>
      </trkpt>
      <trkpt lat="43.427035" lon="-2.812656">
        <time>2021-08-21T14:12:41Z</time>
      </trkpt>
      <trkpt lat="43.426585" lon="-2.812806">
        <time>2021-08-21T14:14:05Z</time>
      </trkpt>
      <trkpt lat="43.426644" lon="-2.812846">
        <time>2021-08-21T14:14:08Z</time>
      </trkpt>
      <trkpt lat="43.426879" lon="-2.812803">
        <time>2021-08-21T14:14:14Z</time>
      </trkpt>
      <trkpt lat="43.426954" lon="-2.812723">
        <time>2021-08-21T14:14:17Z</time>
      </trkpt>
      <trkpt lat="43.427029" lon="-2.812745">
        <time>2021-08-21T14:14:20Z</time>
      </trkpt>
      <trkpt lat="43.427223" lon="-2.812864">
        <time>2021-08-21T14:14:29Z</time>
      </trkpt>
      <trkpt lat="43.427224" lon="-2.812907">
        <time>2021-08-21T14:14:32Z</time>
      </trkpt>
      <trkpt lat="43.427236" lon="-2.813074">
        <time>2021-08-21T14:14:38Z</time>
      </trkpt>
      <trkpt lat="43.427216" lon="-2.813071">
        <time>2021-08-21T14:14:41Z</time>
      </trkpt>
      <trkpt lat="43.427217" lon="-2.813117">
        <time>2021-08-21T14:14:44Z</time>
      </trkpt>
      <trkpt lat="43.427187" lon="-2.81309">
        <time>2021-08-21T14:14:47Z</time>
      </trkpt>
      <trkpt lat="43.427245" lon="-2.812981">
        <time>2021-08-21T14:16:09Z</time>
      </trkpt>
      <trkpt lat="43.427245" lon="-2.812981">
        <time>2021-08-21T14:16:50Z</time>
      </trkpt>
      <trkpt lat="43.427245" lon="-2.812981">
        <time>2021-08-21T14:19:21Z</time>
      </trkpt>
      <trkpt lat="43.427245" lon="-2.812981">
        <time>2021-08-21T14:19:21Z</time>
      </trkpt>
      <trkpt lat="43.427167" lon="-2.812671">
        <time>2021-08-21T15:16:34Z</time>
      </trkpt>
      <trkpt lat="43.427182" lon="-2.812802">
        <time>2021-08-21T15:17:39Z</time>
      </trkpt>
      <trkpt lat="43.427182" lon="-2.812802">
        <time>2021-08-21T15:19:09Z</time>
      </trkpt>
      <trkpt lat="43.427182" lon="-2.812802">
        <time>2021-08-21T15:19:10Z</time>
      </trkpt>
      <trkpt lat="43.427183" lon="-2.812691">
        <time>2021-08-21T15:19:43Z</time>
      </trkpt>
      <trkpt lat="43.426966" lon="-2.812501">
        <time>2021-08-21T15:19:52Z</time>
      </trkpt>
      <trkpt lat="43.428041" lon="-2.807792">
        <time>2021-08-21T15:20:37Z</time>
      </trkpt>
      <trkpt lat="43.428154" lon="-2.807557">
        <time>2021-08-21T15:20:43Z</time>
      </trkpt>
      <trkpt lat="43.428258" lon="-2.8074">
        <time>2021-08-21T15:20:43Z</time>
      </trkpt>
      <trkpt lat="43.428355" lon="-2.807244">
        <time>2021-08-21T15:20:46Z</time>
      </trkpt>
      <trkpt lat="43.42871" lon="-2.806483">
        <time>2021-08-21T15:20:55Z</time>
      </trkpt>
      <trkpt lat="43.430863" lon="-2.801813">
        <time>2021-08-21T15:21:46Z</time>
      </trkpt>
      <trkpt lat="43.431764" lon="-2.799995">
        <time>2021-08-21T15:22:07Z</time>
      </trkpt>
      <trkpt lat="43.431866" lon="-2.799814">
        <time>2021-08-21T15:22:10Z</time>
      </trkpt>
      <trkpt lat="43.432065" lon="-2.799741">
        <time>2021-08-21T15:22:13Z</time>
      </trkpt>
      <trkpt lat="43.432971" lon="-2.79936">
        <time>2021-08-21T15:22:28Z</time>
      </trkpt>
      <trkpt lat="43.433408" lon="-2.798785">
        <time>2021-08-21T15:22:37Z</time>
      </trkpt>
      <trkpt lat="43.433775" lon="-2.797763">
        <time>2021-08-21T15:22:49Z</time>
      </trkpt>
      <trkpt lat="43.433821" lon="-2.797438">
        <time>2021-08-21T15:22:52Z</time>
      </trkpt>
      <trkpt lat="43.434188" lon="-2.792692">
        <time>2021-08-21T15:23:25Z</time>
      </trkpt>
      <trkpt lat="43.433507" lon="-2.791761">
        <time>2021-08-21T15:23:34Z</time>
      </trkpt>
      <trkpt lat="43.433396" lon="-2.791437">
        <time>2021-08-21T15:23:37Z</time>
      </trkpt>
      <trkpt lat="43.433396" lon="-2.791061">
        <time>2021-08-21T15:23:40Z</time>
      </trkpt>
      <trkpt lat="43.434009" lon="-2.785676">
        <time>2021-08-21T15:24:16Z</time>
      </trkpt>
      <trkpt lat="43.43416" lon="-2.785262">
        <time>2021-08-21T15:24:19Z</time>
      </trkpt>
      <trkpt lat="43.434426" lon="-2.784992">
        <time>2021-08-21T15:24:22Z</time>
      </trkpt>
      <trkpt lat="43.434984" lon="-2.784536">
        <time>2021-08-21T15:24:28Z</time>
      </trkpt>
      <trkpt lat="43.435051" lon="-2.784161">
        <time>2021-08-21T15:24:31Z</time>
      </trkpt>
      <trkpt lat="43.435138" lon="-2.783495">
        <time>2021-08-21T15:24:37Z</time>
      </trkpt>
      <trkpt lat="43.435424" lon="-2.783188">
        <time>2021-08-21T15:24:43Z</time>
      </trkpt>
      <trkpt lat="43.435566" lon="-2.783054">
        <time>2021-08-21T15:24:46Z</time>
      </trkpt>
      <trkpt lat="43.435667" lon="-2.78273">
        <time>2021-08-21T15:24:49Z</time>
      </trkpt>
      <trkpt lat="43.43588" lon="-2.781327">
        <time>2021-08-21T15:25:01Z</time>
      </trkpt>
      <trkpt lat="43.436024" lon="-2.781242">
        <time>2021-08-21T15:25:04Z</time>
      </trkpt>
      <trkpt lat="43.436199" lon="-2.781359">
        <time>2021-08-21T15:25:07Z</time>
      </trkpt>
      <trkpt lat="43.436298" lon="-2.781555">
        <time>2021-08-21T15:25:10Z</time>
      </trkpt>
      <trkpt lat="43.436338" lon="-2.781784">
        <time>2021-08-21T15:25:13Z</time>
      </trkpt>
      <trkpt lat="43.437117" lon="-2.784821">
        <time>2021-08-21T15:25:40Z</time>
      </trkpt>
      <trkpt lat="43.437359" lon="-2.784976">
        <time>2021-08-21T15:25:43Z</time>
      </trkpt>
      <trkpt lat="43.437943" lon="-2.785138">
        <time>2021-08-21T15:25:49Z</time>
      </trkpt>
      <trkpt lat="43.438218" lon="-2.784923">
        <time>2021-08-21T15:25:52Z</time>
      </trkpt>
      <trkpt lat="43.439029" lon="-2.783828">
        <time>2021-08-21T15:26:04Z</time>
      </trkpt>
      <trkpt lat="43.439029" lon="-2.783828">
        <time>2021-08-21T15:26:04Z</time>
      </trkpt>
      <trkpt lat="43.439113" lon="-2.783545">
        <time>2021-08-21T15:26:10Z</time>
      </trkpt>
      <trkpt lat="43.439145" lon="-2.783398">
        <time>2021-08-21T15:26:16Z</time>
      </trkpt>
      <trkpt lat="43.439208" lon="-2.783352">
        <time>2021-08-21T15:26:19Z</time>
      </trkpt>
      <trkpt lat="43.439397" lon="-2.783303">
        <time>2021-08-21T15:26:25Z</time>
      </trkpt>
      <trkpt lat="43.439709" lon="-2.783273">
        <time>2021-08-21T15:26:34Z</time>
      </trkpt>
      <trkpt lat="43.439745" lon="-2.783321">
        <time>2021-08-21T15:26:37Z</time>
      </trkpt>
      <trkpt lat="43.439745" lon="-2.78338">
        <time>2021-08-21T15:26:40Z</time>
      </trkpt>
      <trkpt lat="43.439682" lon="-2.783387">
        <time>2021-08-21T15:26:43Z</time>
      </trkpt>
      <trkpt lat="43.439617" lon="-2.783342">
        <time>2021-08-21T15:26:46Z</time>
      </trkpt>
      <trkpt lat="43.439557" lon="-2.783327">
        <time>2021-08-21T15:26:49Z</time>
      </trkpt>
      <trkpt lat="43.439533" lon="-2.783399">
        <time>2021-08-21T15:26:52Z</time>
      </trkpt>
      <trkpt lat="43.439487" lon="-2.78347">
        <time>2021-08-21T15:26:55Z</time>
      </trkpt>
      <trkpt lat="43.439442" lon="-2.783449">
        <time>2021-08-21T15:26:58Z</time>
      </trkpt>
      <trkpt lat="43.439379" lon="-2.783421">
        <time>2021-08-21T15:27:01Z</time>
      </trkpt>
      <trkpt lat="43.439323" lon="-2.783405">
        <time>2021-08-21T15:28:24Z</time>
      </trkpt>
      <trkpt lat="43.439323" lon="-2.783405">
        <time>2021-08-21T15:29:08Z</time>
      </trkpt>
      <trkpt lat="43.439323" lon="-2.783405">
        <time>2021-08-21T15:30:01Z</time>
      </trkpt>
      <trkpt lat="43.439323" lon="-2.783405">
        <time>2021-08-21T15:30:01Z</time>
      </trkpt>
      <trkpt lat="43.439307" lon="-2.783421">
        <time>2021-08-21T16:02:56Z</time>
      </trkpt>
      <trkpt lat="43.439271" lon="-2.783409">
        <time>2021-08-21T16:03:29Z</time>
      </trkpt>
      <trkpt lat="43.439771" lon="-2.783548">
        <time>2021-08-21T16:03:53Z</time>
      </trkpt>
      <trkpt lat="43.439991" lon="-2.783367">
        <time>2021-08-21T16:03:56Z</time>
      </trkpt>
      <trkpt lat="43.440197" lon="-2.783284">
        <time>2021-08-21T16:03:59Z</time>
      </trkpt>
      <trkpt lat="43.440576" lon="-2.783404">
        <time>2021-08-21T16:04:05Z</time>
      </trkpt>
      <trkpt lat="43.440817" lon="-2.783697">
        <time>2021-08-21T16:04:11Z</time>
      </trkpt>
      <trkpt lat="43.440852" lon="-2.783733">
        <time>2021-08-21T16:05:20Z</time>
      </trkpt>
      <trkpt lat="43.440852" lon="-2.783733">
        <time>2021-08-21T16:06:36Z</time>
      </trkpt>
      <trkpt lat="43.440912" lon="-2.783752">
        <time>2021-08-21T16:06:47Z</time>
      </trkpt>
      <trkpt lat="43.441099" lon="-2.783886">
        <time>2021-08-21T16:06:53Z</time>
      </trkpt>
      <trkpt lat="43.441191" lon="-2.784005">
        <time>2021-08-21T16:06:56Z</time>
      </trkpt>
      <trkpt lat="43.441474" lon="-2.784277">
        <time>2021-08-21T16:07:05Z</time>
      </trkpt>
      <trkpt lat="43.441493" lon="-2.784281">
        <time>2021-08-21T16:07:20Z</time>
      </trkpt>
      <trkpt lat="43.441458" lon="-2.784167">
        <time>2021-08-21T16:07:23Z</time>
      </trkpt>
      <trkpt lat="43.44128" lon="-2.784055">
        <time>2021-08-21T16:07:29Z</time>
      </trkpt>
      <trkpt lat="43.441239" lon="-2.784152">
        <time>2021-08-21T16:07:32Z</time>
      </trkpt>
      <trkpt lat="43.441209" lon="-2.784355">
        <time>2021-08-21T16:07:35Z</time>
      </trkpt>
      <trkpt lat="43.441262" lon="-2.784543">
        <time>2021-08-21T16:07:38Z</time>
      </trkpt>
      <trkpt lat="43.441309" lon="-2.784724">
        <time>2021-08-21T16:07:44Z</time>
      </trkpt>
      <trkpt lat="43.441257" lon="-2.784794">
        <time>2021-08-21T16:07:47Z</time>
      </trkpt>
      <trkpt lat="43.441196" lon="-2.784856">
        <time>2021-08-21T16:07:50Z</time>
      </trkpt>
      <trkpt lat="43.441127" lon="-2.784841">
        <time>2021-08-21T16:07:53Z</time>
      </trkpt>
      <trkpt lat="43.441124" lon="-2.784772">
        <time>2021-08-21T16:07:56Z</time>
      </trkpt>
      <trkpt lat="43.440828" lon="-2.78397">
        <time>2021-08-21T16:08:14Z</time>
      </trkpt>
      <trkpt lat="43.440776" lon="-2.783761">
        <time>2021-08-21T16:08:21Z</time>
      </trkpt>
      <trkpt lat="43.440723" lon="-2.783642">
        <time>2021-08-21T16:08:23Z</time>
      </trkpt>
      <trkpt lat="43.440591" lon="-2.783345">
        <time>2021-08-21T16:08:29Z</time>
      </trkpt>
      <trkpt lat="43.440474" lon="-2.783291">
        <time>2021-08-21T16:08:32Z</time>
      </trkpt>
      <trkpt lat="43.440206" lon="-2.78338">
        <time>2021-08-21T16:08:35Z</time>
      </trkpt>
      <trkpt lat="43.439777" lon="-2.783497">
        <time>2021-08-21T16:08:41Z</time>
      </trkpt>
      <trkpt lat="43.439629" lon="-2.783429">
        <time>2021-08-21T16:08:59Z</time>
      </trkpt>
      <trkpt lat="43.439438" lon="-2.783252">
        <time>2021-08-21T16:09:08Z</time>
      </trkpt>
      <trkpt lat="43.43922" lon="-2.78311">
        <time>2021-08-21T16:09:14Z</time>
      </trkpt>
      <trkpt lat="43.438767" lon="-2.781472">
        <time>2021-08-21T16:09:23Z</time>
      </trkpt>
      <trkpt lat="43.438807" lon="-2.780572">
        <time>2021-08-21T16:09:29Z</time>
      </trkpt>
      <trkpt lat="43.438784" lon="-2.779584">
        <time>2021-08-21T16:09:38Z</time>
      </trkpt>
      <trkpt lat="43.438655" lon="-2.778867">
        <time>2021-08-21T16:09:44Z</time>
      </trkpt>
      <trkpt lat="43.438572" lon="-2.777915">
        <time>2021-08-21T16:09:50Z</time>
      </trkpt>
      <trkpt lat="43.438668" lon="-2.777425">
        <time>2021-08-21T16:09:53Z</time>
      </trkpt>
      <trkpt lat="43.439018" lon="-2.776694">
        <time>2021-08-21T16:09:59Z</time>
      </trkpt>
      <trkpt lat="43.440328" lon="-2.774897">
        <time>2021-08-21T16:10:14Z</time>
      </trkpt>
      <trkpt lat="43.440596" lon="-2.773496">
        <time>2021-08-21T16:10:23Z</time>
      </trkpt>
      <trkpt lat="43.440596" lon="-2.773496">
        <time>2021-08-21T16:10:23Z</time>
      </trkpt>
      <trkpt lat="43.440663" lon="-2.77087">
        <time>2021-08-21T16:10:41Z</time>
      </trkpt>
      <trkpt lat="43.441139" lon="-2.76905">
        <time>2021-08-21T16:10:53Z</time>
      </trkpt>
      <trkpt lat="43.442092" lon="-2.767506">
        <time>2021-08-21T16:11:05Z</time>
      </trkpt>
      <trkpt lat="43.442092" lon="-2.767506">
        <time>2021-08-21T16:11:05Z</time>
      </trkpt>
      <trkpt lat="43.443902" lon="-2.765287">
        <time>2021-08-21T16:11:26Z</time>
      </trkpt>
      <trkpt lat="43.44451" lon="-2.763734">
        <time>2021-08-21T16:11:35Z</time>
      </trkpt>
      <trkpt lat="43.44476" lon="-2.762516">
        <time>2021-08-21T16:11:41Z</time>
      </trkpt>
      <trkpt lat="43.445242" lon="-2.760682">
        <time>2021-08-21T16:11:50Z</time>
      </trkpt>
      <trkpt lat="43.445951" lon="-2.758716">
        <time>2021-08-21T16:12:02Z</time>
      </trkpt>
      <trkpt lat="43.446263" lon="-2.757315">
        <time>2021-08-21T16:12:11Z</time>
      </trkpt>
      <trkpt lat="43.44675" lon="-2.75658">
        <time>2021-08-21T16:12:17Z</time>
      </trkpt>
      <trkpt lat="43.446958" lon="-2.756305">
        <time>2021-08-21T16:12:20Z</time>
      </trkpt>
      <trkpt lat="43.447095" lon="-2.755994">
        <time>2021-08-21T16:12:23Z</time>
      </trkpt>
      <trkpt lat="43.447039" lon="-2.755656">
        <time>2021-08-21T16:12:26Z</time>
      </trkpt>
      <trkpt lat="43.446802" lon="-2.755422">
        <time>2021-08-21T16:12:29Z</time>
      </trkpt>
      <trkpt lat="43.445861" lon="-2.75499">
        <time>2021-08-21T16:12:38Z</time>
      </trkpt>
      <trkpt lat="43.444911" lon="-2.754905">
        <time>2021-08-21T16:12:47Z</time>
      </trkpt>
      <trkpt lat="43.44404" lon="-2.755016">
        <time>2021-08-21T16:12:56Z</time>
      </trkpt>
      <trkpt lat="43.443819" lon="-2.754812">
        <time>2021-08-21T16:12:59Z</time>
      </trkpt>
      <trkpt lat="43.443556" lon="-2.754711">
        <time>2021-08-21T16:13:02Z</time>
      </trkpt>
      <trkpt lat="43.443295" lon="-2.754664">
        <time>2021-08-21T16:13:05Z</time>
      </trkpt>
      <trkpt lat="43.443295" lon="-2.754664">
        <time>2021-08-21T16:13:05Z</time>
      </trkpt>
      <trkpt lat="43.443055" lon="-2.754448">
        <time>2021-08-21T16:13:08Z</time>
      </trkpt>
      <trkpt lat="43.442587" lon="-2.754176">
        <time>2021-08-21T16:13:14Z</time>
      </trkpt>
      <trkpt lat="43.442292" lon="-2.754098">
        <time>2021-08-21T16:13:17Z</time>
      </trkpt>
      <trkpt lat="43.441816" lon="-2.753692">
        <time>2021-08-21T16:13:23Z</time>
      </trkpt>
      <trkpt lat="43.441398" lon="-2.753269">
        <time>2021-08-21T16:13:29Z</time>
      </trkpt>
      <trkpt lat="43.441177" lon="-2.753078">
        <time>2021-08-21T16:13:32Z</time>
      </trkpt>
      <trkpt lat="43.441074" lon="-2.752766">
        <time>2021-08-21T16:13:35Z</time>
      </trkpt>
      <trkpt lat="43.440943" lon="-2.752467">
        <time>2021-08-21T16:13:38Z</time>
      </trkpt>
      <trkpt lat="43.440789" lon="-2.75217">
        <time>2021-08-21T16:13:41Z</time>
      </trkpt>
      <trkpt lat="43.44043" lon="-2.751063">
        <time>2021-08-21T16:13:50Z</time>
      </trkpt>
      <trkpt lat="43.439986" lon="-2.750462">
        <time>2021-08-21T16:13:56Z</time>
      </trkpt>
      <trkpt lat="43.439986" lon="-2.750462">
        <time>2021-08-21T16:13:56Z</time>
      </trkpt>
      <trkpt lat="43.439159" lon="-2.749901">
        <time>2021-08-21T16:14:05Z</time>
      </trkpt>
      <trkpt lat="43.438823" lon="-2.749953">
        <time>2021-08-21T16:14:08Z</time>
      </trkpt>
      <trkpt lat="43.438018" lon="-2.74992">
        <time>2021-08-21T16:14:17Z</time>
      </trkpt>
      <trkpt lat="43.43762" lon="-2.749254">
        <time>2021-08-21T16:14:23Z</time>
      </trkpt>
      <trkpt lat="43.437373" lon="-2.748734">
        <time>2021-08-21T16:14:29Z</time>
      </trkpt>
      <trkpt lat="43.435992" lon="-2.747838">
        <time>2021-08-21T16:14:44Z</time>
      </trkpt>
      <trkpt lat="43.435378" lon="-2.747266">
        <time>2021-08-21T16:14:50Z</time>
      </trkpt>
      <trkpt lat="43.434753" lon="-2.746388">
        <time>2021-08-21T16:14:59Z</time>
      </trkpt>
      <trkpt lat="43.433477" lon="-2.745786">
        <time>2021-08-21T16:15:11Z</time>
      </trkpt>
      <trkpt lat="43.433287" lon="-2.745469">
        <time>2021-08-21T16:15:14Z</time>
      </trkpt>
      <trkpt lat="43.432913" lon="-2.745043">
        <time>2021-08-21T16:15:20Z</time>
      </trkpt>
      <trkpt lat="43.432673" lon="-2.745081">
        <time>2021-08-21T16:15:23Z</time>
      </trkpt>
      <trkpt lat="43.432479" lon="-2.745282">
        <time>2021-08-21T16:15:26Z</time>
      </trkpt>
      <trkpt lat="43.43231" lon="-2.745527">
        <time>2021-08-21T16:15:29Z</time>
      </trkpt>
      <trkpt lat="43.43231" lon="-2.745527">
        <time>2021-08-21T16:15:29Z</time>
      </trkpt>
      <trkpt lat="43.431906" lon="-2.746528">
        <time>2021-08-21T16:15:38Z</time>
      </trkpt>
      <trkpt lat="43.431593" lon="-2.747441">
        <time>2021-08-21T16:15:47Z</time>
      </trkpt>
      <trkpt lat="43.431593" lon="-2.747441">
        <time>2021-08-21T16:15:47Z</time>
      </trkpt>
      <trkpt lat="43.431432" lon="-2.747437">
        <time>2021-08-21T16:15:50Z</time>
      </trkpt>
      <trkpt lat="43.431321" lon="-2.74719">
        <time>2021-08-21T16:15:53Z</time>
      </trkpt>
      <trkpt lat="43.431082" lon="-2.745929">
        <time>2021-08-21T16:16:02Z</time>
      </trkpt>
      <trkpt lat="43.43118" lon="-2.745559">
        <time>2021-08-21T16:16:05Z</time>
      </trkpt>
      <trkpt lat="43.431133" lon="-2.745118">
        <time>2021-08-21T16:16:08Z</time>
      </trkpt>
      <trkpt lat="43.430983" lon="-2.744244">
        <time>2021-08-21T16:16:14Z</time>
      </trkpt>
      <trkpt lat="43.431049" lon="-2.743846">
        <time>2021-08-21T16:16:17Z</time>
      </trkpt>
      <trkpt lat="43.431158" lon="-2.743518">
        <time>2021-08-21T16:16:20Z</time>
      </trkpt>
      <trkpt lat="43.431263" lon="-2.74263">
        <time>2021-08-21T16:16:26Z</time>
      </trkpt>
      <trkpt lat="43.431045" lon="-2.741461">
        <time>2021-08-21T16:16:35Z</time>
      </trkpt>
      <trkpt lat="43.430801" lon="-2.741338">
        <time>2021-08-21T16:16:38Z</time>
      </trkpt>
      <trkpt lat="43.429784" lon="-2.741087">
        <time>2021-08-21T16:16:47Z</time>
      </trkpt>
      <trkpt lat="43.429241" lon="-2.740803">
        <time>2021-08-21T16:16:53Z</time>
      </trkpt>
      <trkpt lat="43.428999" lon="-2.740665">
        <time>2021-08-21T16:16:56Z</time>
      </trkpt>
      <trkpt lat="43.42886" lon="-2.740356">
        <time>2021-08-21T16:16:59Z</time>
      </trkpt>
      <trkpt lat="43.428522" lon="-2.739865">
        <time>2021-08-21T16:17:05Z</time>
      </trkpt>
      <trkpt lat="43.428522" lon="-2.739865">
        <time>2021-08-21T16:17:05Z</time>
      </trkpt>
      <trkpt lat="43.42827" lon="-2.739816">
        <time>2021-08-21T16:17:08Z</time>
      </trkpt>
      <trkpt lat="43.428026" lon="-2.740027">
        <time>2021-08-21T16:17:11Z</time>
      </trkpt>
      <trkpt lat="43.42696" lon="-2.740912">
        <time>2021-08-21T16:17:23Z</time>
      </trkpt>
      <trkpt lat="43.426409" lon="-2.741183">
        <time>2021-08-21T16:17:29Z</time>
      </trkpt>
      <trkpt lat="43.425816" lon="-2.741878">
        <time>2021-08-21T16:17:38Z</time>
      </trkpt>
      <trkpt lat="43.425628" lon="-2.741757">
        <time>2021-08-21T16:17:41Z</time>
      </trkpt>
      <trkpt lat="43.425533" lon="-2.741449">
        <time>2021-08-21T16:17:44Z</time>
      </trkpt>
      <trkpt lat="43.425546" lon="-2.741059">
        <time>2021-08-21T16:17:47Z</time>
      </trkpt>
      <trkpt lat="43.425619" lon="-2.74023">
        <time>2021-08-21T16:17:53Z</time>
      </trkpt>
      <trkpt lat="43.425551" lon="-2.7399">
        <time>2021-08-21T16:17:56Z</time>
      </trkpt>
      <trkpt lat="43.425367" lon="-2.739633">
        <time>2021-08-21T16:17:59Z</time>
      </trkpt>
      <trkpt lat="43.424948" lon="-2.739118">
        <time>2021-08-21T16:18:05Z</time>
      </trkpt>
      <trkpt lat="43.424798" lon="-2.738747">
        <time>2021-08-21T16:18:08Z</time>
      </trkpt>
      <trkpt lat="43.4244" lon="-2.736702">
        <time>2021-08-21T16:18:26Z</time>
      </trkpt>
      <trkpt lat="43.424456" lon="-2.736216">
        <time>2021-08-21T16:18:32Z</time>
      </trkpt>
      <trkpt lat="43.42477" lon="-2.735084">
        <time>2021-08-21T16:18:44Z</time>
      </trkpt>
      <trkpt lat="43.424753" lon="-2.73446">
        <time>2021-08-21T16:18:50Z</time>
      </trkpt>
      <trkpt lat="43.424885" lon="-2.734211">
        <time>2021-08-21T16:18:53Z</time>
      </trkpt>
      <trkpt lat="43.425007" lon="-2.733907">
        <time>2021-08-21T16:18:56Z</time>
      </trkpt>
      <trkpt lat="43.424988" lon="-2.733541">
        <time>2021-08-21T16:18:59Z</time>
      </trkpt>
      <trkpt lat="43.424722" lon="-2.732586">
        <time>2021-08-21T16:19:08Z</time>
      </trkpt>
      <trkpt lat="43.424546" lon="-2.732382">
        <time>2021-08-21T16:19:11Z</time>
      </trkpt>
      <trkpt lat="43.424385" lon="-2.732168">
        <time>2021-08-21T16:19:14Z</time>
      </trkpt>
      <trkpt lat="43.423951" lon="-2.730948">
        <time>2021-08-21T16:19:26Z</time>
      </trkpt>
      <trkpt lat="43.423472" lon="-2.728927">
        <time>2021-08-21T16:19:47Z</time>
      </trkpt>
      <trkpt lat="43.42332" lon="-2.728506">
        <time>2021-08-21T16:19:53Z</time>
      </trkpt>
      <trkpt lat="43.423042" lon="-2.728179">
        <time>2021-08-21T16:19:59Z</time>
      </trkpt>
      <trkpt lat="43.422806" lon="-2.728239">
        <time>2021-08-21T16:20:02Z</time>
      </trkpt>
      <trkpt lat="43.421369" lon="-2.728889">
        <time>2021-08-21T16:20:23Z</time>
      </trkpt>
      <trkpt lat="43.421121" lon="-2.728979">
        <time>2021-08-21T16:20:29Z</time>
      </trkpt>
      <trkpt lat="43.420859" lon="-2.729036">
        <time>2021-08-21T16:20:35Z</time>
      </trkpt>
      <trkpt lat="43.420106" lon="-2.729121">
        <time>2021-08-21T16:20:53Z</time>
      </trkpt>
      <trkpt lat="43.419979" lon="-2.729233">
        <time>2021-08-21T16:21:08Z</time>
      </trkpt>
      <trkpt lat="43.419941" lon="-2.729149">
        <time>2021-08-21T16:21:11Z</time>
      </trkpt>
      <trkpt lat="43.419799" lon="-2.727599">
        <time>2021-08-21T16:21:26Z</time>
      </trkpt>
      <trkpt lat="43.419661" lon="-2.727019">
        <time>2021-08-21T16:21:32Z</time>
      </trkpt>
      <trkpt lat="43.41945" lon="-2.726804">
        <time>2021-08-21T16:21:38Z</time>
      </trkpt>
      <trkpt lat="43.419436" lon="-2.726602">
        <time>2021-08-21T16:21:41Z</time>
      </trkpt>
      <trkpt lat="43.41915" lon="-2.725386">
        <time>2021-08-21T16:21:53Z</time>
      </trkpt>
      <trkpt lat="43.419199" lon="-2.72475">
        <time>2021-08-21T16:22:11Z</time>
      </trkpt>
      <trkpt lat="43.419145" lon="-2.724387">
        <time>2021-08-21T16:22:17Z</time>
      </trkpt>
      <trkpt lat="43.419095" lon="-2.724285">
        <time>2021-08-21T16:22:20Z</time>
      </trkpt>
      <trkpt lat="43.418974" lon="-2.72413">
        <time>2021-08-21T16:22:23Z</time>
      </trkpt>
      <trkpt lat="43.418788" lon="-2.723883">
        <time>2021-08-21T16:22:29Z</time>
      </trkpt>
      <trkpt lat="43.418715" lon="-2.723828">
        <time>2021-08-21T16:22:32Z</time>
      </trkpt>
      <trkpt lat="43.418642" lon="-2.723781">
        <time>2021-08-21T16:22:35Z</time>
      </trkpt>
      <trkpt lat="43.418631" lon="-2.723583">
        <time>2021-08-21T16:22:41Z</time>
      </trkpt>
      <trkpt lat="43.41867" lon="-2.72352">
        <time>2021-08-21T16:22:44Z</time>
      </trkpt>
      <trkpt lat="43.418675" lon="-2.723359">
        <time>2021-08-21T16:22:47Z</time>
      </trkpt>
      <trkpt lat="43.418825" lon="-2.722292">
        <time>2021-08-21T16:23:02Z</time>
      </trkpt>
      <trkpt lat="43.418834" lon="-2.722015">
        <time>2021-08-21T16:23:05Z</time>
      </trkpt>
      <trkpt lat="43.418787" lon="-2.720234">
        <time>2021-08-21T16:24:35Z</time>
      </trkpt>
      <trkpt lat="43.418853" lon="-2.720153">
        <time>2021-08-21T16:24:38Z</time>
      </trkpt>
      <trkpt lat="43.418993" lon="-2.720036">
        <time>2021-08-21T16:24:47Z</time>
      </trkpt>
      <trkpt lat="43.419042" lon="-2.720071">
        <time>2021-08-21T16:25:08Z</time>
      </trkpt>
      <trkpt lat="43.41905" lon="-2.720233">
        <time>2021-08-21T16:25:11Z</time>
      </trkpt>
      <trkpt lat="43.419119" lon="-2.720505">
        <time>2021-08-21T16:25:17Z</time>
      </trkpt>
      <trkpt lat="43.419159" lon="-2.720917">
        <time>2021-08-21T16:25:29Z</time>
      </trkpt>
      <trkpt lat="43.419177" lon="-2.721035">
        <time>2021-08-21T16:25:32Z</time>
      </trkpt>
      <trkpt lat="43.419192" lon="-2.721201">
        <time>2021-08-21T16:25:35Z</time>
      </trkpt>
      <trkpt lat="43.419294" lon="-2.721324">
        <time>2021-08-21T16:25:38Z</time>
      </trkpt>
      <trkpt lat="43.419391" lon="-2.72134">
        <time>2021-08-21T16:25:41Z</time>
      </trkpt>
      <trkpt lat="43.419426" lon="-2.721312">
        <time>2021-08-21T16:25:44Z</time>
      </trkpt>
      <trkpt lat="43.419444" lon="-2.721231">
        <time>2021-08-21T16:25:47Z</time>
      </trkpt>
      <trkpt lat="43.419643" lon="-2.721066">
        <time>2021-08-21T16:25:56Z</time>
      </trkpt>
      <trkpt lat="43.419679" lon="-2.721027">
        <time>2021-08-21T16:25:59Z</time>
      </trkpt>
      <trkpt lat="43.419732" lon="-2.721001">
        <time>2021-08-21T16:26:02Z</time>
      </trkpt>
      <trkpt lat="43.419821" lon="-2.72096">
        <time>2021-08-21T16:26:08Z</time>
      </trkpt>
      <trkpt lat="43.4199" lon="-2.720898">
        <time>2021-08-21T16:26:11Z</time>
      </trkpt>
      <trkpt lat="43.420047" lon="-2.720752">
        <time>2021-08-21T16:26:17Z</time>
      </trkpt>
      <trkpt lat="43.420092" lon="-2.720655">
        <time>2021-08-21T16:26:20Z</time>
      </trkpt>
      <trkpt lat="43.420204" lon="-2.72049">
        <time>2021-08-21T16:26:26Z</time>
      </trkpt>
      <trkpt lat="43.420224" lon="-2.720391">
        <time>2021-08-21T16:26:29Z</time>
      </trkpt>
      <trkpt lat="43.420406" lon="-2.719901">
        <time>2021-08-21T16:26:41Z</time>
      </trkpt>
      <trkpt lat="43.420412" lon="-2.719753">
        <time>2021-08-21T16:26:44Z</time>
      </trkpt>
      <trkpt lat="43.420319" lon="-2.719284">
        <time>2021-08-21T16:26:53Z</time>
      </trkpt>
      <trkpt lat="43.420229" lon="-2.718925">
        <time>2021-08-21T16:27:02Z</time>
      </trkpt>
      <trkpt lat="43.420249" lon="-2.718826">
        <time>2021-08-21T16:27:05Z</time>
      </trkpt>
      <trkpt lat="43.420335" lon="-2.718084">
        <time>2021-08-21T16:27:20Z</time>
      </trkpt>
      <trkpt lat="43.420374" lon="-2.71761">
        <time>2021-08-21T16:27:29Z</time>
      </trkpt>
      <trkpt lat="43.420577" lon="-2.716772">
        <time>2021-08-21T16:27:47Z</time>
      </trkpt>
      <trkpt lat="43.420664" lon="-2.716743">
        <time>2021-08-21T16:27:50Z</time>
      </trkpt>
      <trkpt lat="43.420713" lon="-2.716804">
        <time>2021-08-21T16:27:53Z</time>
      </trkpt>
      <trkpt lat="43.420695" lon="-2.716926">
        <time>2021-08-21T16:27:56Z</time>
      </trkpt>
      <trkpt lat="43.420507" lon="-2.717525">
        <time>2021-08-21T16:28:11Z</time>
      </trkpt>
      <trkpt lat="43.420408" lon="-2.717561">
        <time>2021-08-21T16:28:17Z</time>
      </trkpt>
      <trkpt lat="43.420338" lon="-2.717756">
        <time>2021-08-21T16:28:23Z</time>
      </trkpt>
      <trkpt lat="43.420284" lon="-2.71806">
        <time>2021-08-21T16:28:29Z</time>
      </trkpt>
      <trkpt lat="43.420255" lon="-2.718443">
        <time>2021-08-21T16:28:38Z</time>
      </trkpt>
      <trkpt lat="43.42062" lon="-2.719745">
        <time>2021-08-21T16:29:02Z</time>
      </trkpt>
      <trkpt lat="43.420571" lon="-2.720042">
        <time>2021-08-21T16:29:08Z</time>
      </trkpt>
      <trkpt lat="43.420571" lon="-2.720042">
        <time>2021-08-21T16:29:08Z</time>
      </trkpt>
      <trkpt lat="43.420513" lon="-2.720211">
        <time>2021-08-21T16:29:14Z</time>
      </trkpt>
      <trkpt lat="43.420256" lon="-2.720592">
        <time>2021-08-21T16:29:29Z</time>
      </trkpt>
      <trkpt lat="43.42007" lon="-2.720695">
        <time>2021-08-21T16:29:35Z</time>
      </trkpt>
      <trkpt lat="43.419943" lon="-2.720679">
        <time>2021-08-21T16:29:38Z</time>
      </trkpt>
      <trkpt lat="43.419729" lon="-2.720634">
        <time>2021-08-21T16:29:44Z</time>
      </trkpt>
      <trkpt lat="43.419676" lon="-2.720712">
        <time>2021-08-21T16:29:47Z</time>
      </trkpt>
      <trkpt lat="43.419581" lon="-2.72074">
        <time>2021-08-21T16:29:53Z</time>
      </trkpt>
      <trkpt lat="43.419528" lon="-2.720733">
        <time>2021-08-21T16:29:56Z</time>
      </trkpt>
      <trkpt lat="43.419457" lon="-2.720851">
        <time>2021-08-21T16:29:59Z</time>
      </trkpt>
      <trkpt lat="43.41928" lon="-2.72105">
        <time>2021-08-21T16:30:05Z</time>
      </trkpt>
      <trkpt lat="43.419043" lon="-2.72129">
        <time>2021-08-21T16:30:11Z</time>
      </trkpt>
      <trkpt lat="43.419012" lon="-2.721569">
        <time>2021-08-21T16:30:14Z</time>
      </trkpt>
      <trkpt lat="43.41886" lon="-2.722111">
        <time>2021-08-21T16:30:20Z</time>
      </trkpt>
      <trkpt lat="43.418582" lon="-2.723096">
        <time>2021-08-21T16:30:38Z</time>
      </trkpt>
      <trkpt lat="43.418336" lon="-2.723561">
        <time>2021-08-21T16:30:47Z</time>
      </trkpt>
      <trkpt lat="43.418327" lon="-2.723503">
        <time>2021-08-21T16:30:50Z</time>
      </trkpt>
      <trkpt lat="43.418411" lon="-2.723525">
        <time>2021-08-21T16:30:59Z</time>
      </trkpt>
      <trkpt lat="43.41841" lon="-2.723566">
        <time>2021-08-21T16:31:05Z</time>
      </trkpt>
      <trkpt lat="43.418454" lon="-2.723703">
        <time>2021-08-21T16:31:08Z</time>
      </trkpt>
      <trkpt lat="43.418362" lon="-2.72372">
        <time>2021-08-21T16:31:11Z</time>
      </trkpt>
      <trkpt lat="43.418186" lon="-2.723565">
        <time>2021-08-21T16:31:14Z</time>
      </trkpt>
      <trkpt lat="43.417682" lon="-2.723091">
        <time>2021-08-21T16:31:23Z</time>
      </trkpt>
      <trkpt lat="43.41719" lon="-2.722558">
        <time>2021-08-21T16:31:35Z</time>
      </trkpt>
      <trkpt lat="43.417161" lon="-2.722453">
        <time>2021-08-21T16:31:38Z</time>
      </trkpt>
      <trkpt lat="43.416754" lon="-2.720441">
        <time>2021-08-21T16:32:02Z</time>
      </trkpt>
      <trkpt lat="43.416761" lon="-2.720173">
        <time>2021-08-21T16:32:05Z</time>
      </trkpt>
      <trkpt lat="43.416982" lon="-2.719228">
        <time>2021-08-21T16:32:17Z</time>
      </trkpt>
      <trkpt lat="43.41705" lon="-2.718316">
        <time>2021-08-21T16:32:26Z</time>
      </trkpt>
      <trkpt lat="43.417029" lon="-2.717729">
        <time>2021-08-21T16:32:32Z</time>
      </trkpt>
      <trkpt lat="43.417164" lon="-2.717058">
        <time>2021-08-21T16:32:38Z</time>
      </trkpt>
      <trkpt lat="43.417153" lon="-2.716652">
        <time>2021-08-21T16:32:41Z</time>
      </trkpt>
      <trkpt lat="43.416868" lon="-2.714828">
        <time>2021-08-21T16:32:56Z</time>
      </trkpt>
      <trkpt lat="43.416754" lon="-2.714594">
        <time>2021-08-21T16:32:59Z</time>
      </trkpt>
      <trkpt lat="43.416808" lon="-2.714337">
        <time>2021-08-21T16:33:02Z</time>
      </trkpt>
      <trkpt lat="43.417151" lon="-2.713692">
        <time>2021-08-21T16:33:08Z</time>
      </trkpt>
      <trkpt lat="43.4173" lon="-2.712644">
        <time>2021-08-21T16:33:14Z</time>
      </trkpt>
      <trkpt lat="43.417377" lon="-2.711276">
        <time>2021-08-21T16:33:23Z</time>
      </trkpt>
      <trkpt lat="43.417476" lon="-2.710858">
        <time>2021-08-21T16:33:26Z</time>
      </trkpt>
      <trkpt lat="43.417632" lon="-2.709909">
        <time>2021-08-21T16:33:32Z</time>
      </trkpt>
      <trkpt lat="43.417572" lon="-2.709367">
        <time>2021-08-21T16:33:35Z</time>
      </trkpt>
      <trkpt lat="43.417188" lon="-2.708328">
        <time>2021-08-21T16:33:41Z</time>
      </trkpt>
      <trkpt lat="43.415924" lon="-2.70624">
        <time>2021-08-21T16:33:59Z</time>
      </trkpt>
      <trkpt lat="43.415422" lon="-2.70564">
        <time>2021-08-21T16:34:05Z</time>
      </trkpt>
      <trkpt lat="43.411475" lon="-2.701944">
        <time>2021-08-21T16:34:44Z</time>
      </trkpt>
      <trkpt lat="43.411194" lon="-2.701747">
        <time>2021-08-21T16:34:47Z</time>
      </trkpt>
      <trkpt lat="43.41065" lon="-2.70136">
        <time>2021-08-21T16:35:02Z</time>
      </trkpt>
      <trkpt lat="43.410476" lon="-2.701161">
        <time>2021-08-21T16:35:05Z</time>
      </trkpt>
      <trkpt lat="43.409337" lon="-2.700077">
        <time>2021-08-21T16:36:20Z</time>
      </trkpt>
      <trkpt lat="43.409262" lon="-2.700072">
        <time>2021-08-21T16:36:23Z</time>
      </trkpt>
      <trkpt lat="43.409192" lon="-2.700106">
        <time>2021-08-21T16:36:26Z</time>
      </trkpt>
      <trkpt lat="43.409036" lon="-2.700103">
        <time>2021-08-21T16:36:32Z</time>
      </trkpt>
      <trkpt lat="43.408962" lon="-2.700062">
        <time>2021-08-21T16:36:35Z</time>
      </trkpt>
      <trkpt lat="43.408862" lon="-2.699906">
        <time>2021-08-21T16:36:38Z</time>
      </trkpt>
      <trkpt lat="43.408817" lon="-2.699778">
        <time>2021-08-21T16:36:41Z</time>
      </trkpt>
      <trkpt lat="43.408357" lon="-2.699762">
        <time>2021-08-21T16:37:52Z</time>
      </trkpt>
      <trkpt lat="43.408357" lon="-2.699762">
        <time>2021-08-21T16:37:52Z</time>
      </trkpt>
      <trkpt lat="43.407953" lon="-2.699825">
        <time>2021-08-21T16:41:33Z</time>
      </trkpt>
      <trkpt lat="43.40803" lon="-2.699863">
        <time>2021-08-21T16:41:58Z</time>
      </trkpt>
      <trkpt lat="43.408231" lon="-2.700005">
        <time>2021-08-21T16:42:36Z</time>
      </trkpt>
      <trkpt lat="43.408209" lon="-2.699976">
        <time>2021-08-21T16:42:39Z</time>
      </trkpt>
      <trkpt lat="43.408134" lon="-2.699899">
        <time>2021-08-21T16:42:42Z</time>
      </trkpt>
      <trkpt lat="43.407899" lon="-2.699756">
        <time>2021-08-21T16:42:48Z</time>
      </trkpt>
      <trkpt lat="43.407842" lon="-2.699558">
        <time>2021-08-21T16:42:54Z</time>
      </trkpt>
      <trkpt lat="43.407806" lon="-2.699453">
        <time>2021-08-21T16:42:57Z</time>
      </trkpt>
      <trkpt lat="43.407683" lon="-2.699441">
        <time>2021-08-21T16:43:00Z</time>
      </trkpt>
      <trkpt lat="43.407616" lon="-2.699468">
        <time>2021-08-21T16:43:03Z</time>
      </trkpt>
      <trkpt lat="43.407499" lon="-2.699275">
        <time>2021-08-21T16:43:12Z</time>
      </trkpt>
      <trkpt lat="43.407333" lon="-2.69923">
        <time>2021-08-21T16:43:15Z</time>
      </trkpt>
      <trkpt lat="43.406733" lon="-2.699121">
        <time>2021-08-21T16:44:28Z</time>
      </trkpt>
      <trkpt lat="43.406733" lon="-2.699121">
        <time>2021-08-21T16:46:21Z</time>
      </trkpt>
      <trkpt lat="43.406733" lon="-2.699121">
        <time>2021-08-21T16:46:21Z</time>
      </trkpt>
      <trkpt lat="43.406526" lon="-2.699049">
        <time>2021-08-21T16:51:35Z</time>
      </trkpt>
      <trkpt lat="43.406526" lon="-2.699049">
        <time>2021-08-21T16:52:37Z</time>
      </trkpt>
      <trkpt lat="43.406526" lon="-2.699049">
        <time>2021-08-21T16:54:40Z</time>
      </trkpt>
      <trkpt lat="43.406402" lon="-2.699043">
        <time>2021-08-21T16:54:52Z</time>
      </trkpt>
      <trkpt lat="43.406369" lon="-2.698996">
        <time>2021-08-21T16:54:55Z</time>
      </trkpt>
      <trkpt lat="43.406137" lon="-2.698882">
        <time>2021-08-21T16:55:01Z</time>
      </trkpt>
      <trkpt lat="43.405952" lon="-2.698956">
        <time>2021-08-21T16:55:04Z</time>
      </trkpt>
      <trkpt lat="43.405899" lon="-2.698873">
        <time>2021-08-21T16:55:07Z</time>
      </trkpt>
      <trkpt lat="43.406061" lon="-2.698805">
        <time>2021-08-21T16:55:13Z</time>
      </trkpt>
      <trkpt lat="43.406145" lon="-2.698777">
        <time>2021-08-21T16:55:16Z</time>
      </trkpt>
      <trkpt lat="43.406424" lon="-2.698735">
        <time>2021-08-21T16:55:25Z</time>
      </trkpt>
      <trkpt lat="43.406507" lon="-2.69873">
        <time>2021-08-21T16:55:28Z</time>
      </trkpt>
      <trkpt lat="43.406538" lon="-2.69864">
        <time>2021-08-21T16:55:31Z</time>
      </trkpt>
      <trkpt lat="43.406571" lon="-2.698569">
        <time>2021-08-21T16:55:34Z</time>
      </trkpt>
      <trkpt lat="43.406661" lon="-2.69852">
        <time>2021-08-21T16:55:37Z</time>
      </trkpt>
      <trkpt lat="43.406715" lon="-2.698536">
        <time>2021-08-21T16:55:40Z</time>
      </trkpt>
      <trkpt lat="43.406762" lon="-2.69849">
        <time>2021-08-21T16:55:46Z</time>
      </trkpt>
      <trkpt lat="43.406883" lon="-2.698265">
        <time>2021-08-21T16:55:49Z</time>
      </trkpt>
      <trkpt lat="43.406956" lon="-2.698026">
        <time>2021-08-21T16:55:55Z</time>
      </trkpt>
      <trkpt lat="43.406786" lon="-2.697759">
        <time>2021-08-21T16:56:04Z</time>
      </trkpt>
      <trkpt lat="43.406247" lon="-2.697383">
        <time>2021-08-21T16:56:19Z</time>
      </trkpt>
      <trkpt lat="43.405952" lon="-2.697275">
        <time>2021-08-21T16:56:34Z</time>
      </trkpt>
      <trkpt lat="43.405841" lon="-2.697341">
        <time>2021-08-21T16:56:37Z</time>
      </trkpt>
      <trkpt lat="43.405797" lon="-2.697483">
        <time>2021-08-21T16:56:40Z</time>
      </trkpt>
      <trkpt lat="43.405747" lon="-2.697918">
        <time>2021-08-21T16:56:49Z</time>
      </trkpt>
      <trkpt lat="43.405697" lon="-2.698433">
        <time>2021-08-21T16:56:58Z</time>
      </trkpt>
      <trkpt lat="43.405731" lon="-2.698564">
        <time>2021-08-21T16:57:01Z</time>
      </trkpt>
      <trkpt lat="43.405743" lon="-2.698693">
        <time>2021-08-21T16:57:04Z</time>
      </trkpt>
      <trkpt lat="43.405743" lon="-2.698693">
        <time>2021-08-21T16:57:04Z</time>
      </trkpt>
      <trkpt lat="43.405728" lon="-2.698783">
        <time>2021-08-21T16:57:07Z</time>
      </trkpt>
      <trkpt lat="43.405743" lon="-2.698866">
        <time>2021-08-21T16:57:13Z</time>
      </trkpt>
      <trkpt lat="43.4058" lon="-2.698983">
        <time>2021-08-21T16:57:16Z</time>
      </trkpt>
      <trkpt lat="43.405704" lon="-2.699058">
        <time>2021-08-21T16:57:22Z</time>
      </trkpt>
      <trkpt lat="43.405564" lon="-2.69913">
        <time>2021-08-21T16:57:25Z</time>
      </trkpt>
      <trkpt lat="43.405387" lon="-2.699274">
        <time>2021-08-21T16:57:28Z</time>
      </trkpt>
      <trkpt lat="43.404971" lon="-2.699485">
        <time>2021-08-21T16:57:34Z</time>
      </trkpt>
      <trkpt lat="43.404599" lon="-2.699498">
        <time>2021-08-21T16:57:43Z</time>
      </trkpt>
      <trkpt lat="43.404688" lon="-2.699385">
        <time>2021-08-21T16:57:46Z</time>
      </trkpt>
      <trkpt lat="43.404572" lon="-2.698989">
        <time>2021-08-21T16:57:52Z</time>
      </trkpt>
      <trkpt lat="43.404449" lon="-2.69883">
        <time>2021-08-21T16:57:55Z</time>
      </trkpt>
      <trkpt lat="43.40432" lon="-2.698806">
        <time>2021-08-21T16:57:58Z</time>
      </trkpt>
      <trkpt lat="43.404141" lon="-2.698756">
        <time>2021-08-21T16:58:04Z</time>
      </trkpt>
      <trkpt lat="43.403232" lon="-2.697181">
        <time>2021-08-21T16:58:22Z</time>
      </trkpt>
      <trkpt lat="43.402789" lon="-2.696586">
        <time>2021-08-21T16:58:25Z</time>
      </trkpt>
      <trkpt lat="43.402507" lon="-2.696382">
        <time>2021-08-21T16:58:28Z</time>
      </trkpt>
      <trkpt lat="43.400587" lon="-2.695164">
        <time>2021-08-21T16:58:49Z</time>
      </trkpt>
      <trkpt lat="43.40009" lon="-2.695336">
        <time>2021-08-21T16:58:55Z</time>
      </trkpt>
      <trkpt lat="43.399148" lon="-2.696315">
        <time>2021-08-21T16:59:07Z</time>
      </trkpt>
      <trkpt lat="43.398853" lon="-2.697124">
        <time>2021-08-21T16:59:13Z</time>
      </trkpt>
      <trkpt lat="43.398741" lon="-2.697553">
        <time>2021-08-21T16:59:16Z</time>
      </trkpt>
      <trkpt lat="43.39855" lon="-2.697977">
        <time>2021-08-21T16:59:19Z</time>
      </trkpt>
      <trkpt lat="43.398252" lon="-2.6982">
        <time>2021-08-21T16:59:22Z</time>
      </trkpt>
      <trkpt lat="43.397902" lon="-2.698217">
        <time>2021-08-21T16:59:25Z</time>
      </trkpt>
      <trkpt lat="43.394501" lon="-2.697343">
        <time>2021-08-21T16:59:55Z</time>
      </trkpt>
      <trkpt lat="43.394214" lon="-2.697341">
        <time>2021-08-21T16:59:58Z</time>
      </trkpt>
      <trkpt lat="43.393531" lon="-2.697155">
        <time>2021-08-21T17:00:04Z</time>
      </trkpt>
      <trkpt lat="43.392078" lon="-2.696535">
        <time>2021-08-21T17:00:22Z</time>
      </trkpt>
      <trkpt lat="43.391925" lon="-2.696241">
        <time>2021-08-21T17:00:25Z</time>
      </trkpt>
      <trkpt lat="43.391999" lon="-2.695785">
        <time>2021-08-21T17:00:28Z</time>
      </trkpt>
      <trkpt lat="43.392002" lon="-2.695085">
        <time>2021-08-21T17:00:34Z</time>
      </trkpt>
      <trkpt lat="43.391889" lon="-2.69477">
        <time>2021-08-21T17:00:37Z</time>
      </trkpt>
      <trkpt lat="43.39167" lon="-2.694592">
        <time>2021-08-21T17:00:40Z</time>
      </trkpt>
      <trkpt lat="43.391184" lon="-2.694583">
        <time>2021-08-21T17:00:46Z</time>
      </trkpt>
      <trkpt lat="43.391184" lon="-2.694583">
        <time>2021-08-21T17:00:46Z</time>
      </trkpt>
      <trkpt lat="43.389919" lon="-2.695122">
        <time>2021-08-21T17:01:01Z</time>
      </trkpt>
      <trkpt lat="43.388278" lon="-2.695748">
        <time>2021-08-21T17:01:22Z</time>
      </trkpt>
      <trkpt lat="43.387779" lon="-2.695904">
        <time>2021-08-21T17:01:28Z</time>
      </trkpt>
      <trkpt lat="43.386598" lon="-2.696453">
        <time>2021-08-21T17:01:40Z</time>
      </trkpt>
      <trkpt lat="43.382178" lon="-2.698507">
        <time>2021-08-21T17:02:43Z</time>
      </trkpt>
      <trkpt lat="43.380003" lon="-2.699407">
        <time>2021-08-21T17:03:07Z</time>
      </trkpt>
      <trkpt lat="43.377557" lon="-2.699359">
        <time>2021-08-21T17:03:34Z</time>
      </trkpt>
      <trkpt lat="43.374764" lon="-2.699068">
        <time>2021-08-21T17:03:58Z</time>
      </trkpt>
      <trkpt lat="43.372967" lon="-2.697816">
        <time>2021-08-21T17:04:13Z</time>
      </trkpt>
      <trkpt lat="43.368636" lon="-2.694785">
        <time>2021-08-21T17:04:49Z</time>
      </trkpt>
      <trkpt lat="43.364513" lon="-2.691872">
        <time>2021-08-21T17:05:25Z</time>
      </trkpt>
      <trkpt lat="43.360328" lon="-2.688995">
        <time>2021-08-21T17:05:58Z</time>
      </trkpt>
      <trkpt lat="43.356205" lon="-2.68645">
        <time>2021-08-21T17:06:31Z</time>
      </trkpt>
      <trkpt lat="43.352179" lon="-2.683247">
        <time>2021-08-21T17:07:01Z</time>
      </trkpt>
      <trkpt lat="43.347815" lon="-2.680573">
        <time>2021-08-21T17:07:34Z</time>
      </trkpt>
      <trkpt lat="43.343557" lon="-2.678585">
        <time>2021-08-21T17:08:04Z</time>
      </trkpt>
      <trkpt lat="43.339109" lon="-2.676783">
        <time>2021-08-21T17:08:37Z</time>
      </trkpt>
      <trkpt lat="43.337629" lon="-2.676226">
        <time>2021-08-21T17:08:49Z</time>
      </trkpt>
      <trkpt lat="43.335833" lon="-2.676451">
        <time>2021-08-21T17:09:07Z</time>
      </trkpt>
      <trkpt lat="43.334442" lon="-2.676626">
        <time>2021-08-21T17:09:19Z</time>
      </trkpt>
      <trkpt lat="43.329759" lon="-2.677269">
        <time>2021-08-21T17:09:58Z</time>
      </trkpt>
      <trkpt lat="43.325005" lon="-2.67792">
        <time>2021-08-21T17:10:40Z</time>
      </trkpt>
      <trkpt lat="43.320531" lon="-2.678301">
        <time>2021-08-21T17:11:25Z</time>
      </trkpt>
      <trkpt lat="43.320531" lon="-2.678301">
        <time>2021-08-21T17:11:25Z</time>
      </trkpt>
      <trkpt lat="43.320437" lon="-2.678045">
        <time>2021-08-21T17:11:28Z</time>
      </trkpt>
      <trkpt lat="43.320278" lon="-2.676802">
        <time>2021-08-21T17:11:37Z</time>
      </trkpt>
      <trkpt lat="43.319819" lon="-2.673949">
        <time>2021-08-21T17:11:55Z</time>
      </trkpt>
      <trkpt lat="43.319771" lon="-2.672702">
        <time>2021-08-21T17:12:04Z</time>
      </trkpt>
      <trkpt lat="43.319849" lon="-2.67242">
        <time>2021-08-21T17:12:07Z</time>
      </trkpt>
      <trkpt lat="43.320087" lon="-2.672185">
        <time>2021-08-21T17:12:10Z</time>
      </trkpt>
      <trkpt lat="43.322426" lon="-2.669271">
        <time>2021-08-21T17:12:40Z</time>
      </trkpt>
      <trkpt lat="43.322377" lon="-2.66902">
        <time>2021-08-21T17:12:43Z</time>
      </trkpt>
      <trkpt lat="43.322145" lon="-2.668858">
        <time>2021-08-21T17:12:46Z</time>
      </trkpt>
      <trkpt lat="43.321052" lon="-2.668243">
        <time>2021-08-21T17:12:55Z</time>
      </trkpt>
      <trkpt lat="43.319688" lon="-2.667546">
        <time>2021-08-21T17:13:04Z</time>
      </trkpt>
      <trkpt lat="43.318692" lon="-2.667488">
        <time>2021-08-21T17:13:10Z</time>
      </trkpt>
      <trkpt lat="43.317708" lon="-2.66784">
        <time>2021-08-21T17:13:16Z</time>
      </trkpt>
      <trkpt lat="43.316198" lon="-2.669135">
        <time>2021-08-21T17:13:27Z</time>
      </trkpt>
      <trkpt lat="43.316198" lon="-2.669135">
        <time>2021-08-21T17:13:27Z</time>
      </trkpt>
      <trkpt lat="43.314522" lon="-2.671218">
        <time>2021-08-21T17:13:39Z</time>
      </trkpt>
      <trkpt lat="43.312146" lon="-2.672295">
        <time>2021-08-21T17:13:51Z</time>
      </trkpt>
      <trkpt lat="43.30748" lon="-2.674638">
        <time>2021-08-21T17:14:15Z</time>
      </trkpt>
      <trkpt lat="43.305388" lon="-2.676172">
        <time>2021-08-21T17:14:27Z</time>
      </trkpt>
      <trkpt lat="43.30396" lon="-2.677793">
        <time>2021-08-21T17:14:36Z</time>
      </trkpt>
      <trkpt lat="43.303581" lon="-2.678395">
        <time>2021-08-21T17:14:39Z</time>
      </trkpt>
      <trkpt lat="43.302922" lon="-2.679805">
        <time>2021-08-21T17:14:45Z</time>
      </trkpt>
      <trkpt lat="43.301418" lon="-2.684249">
        <time>2021-08-21T17:15:03Z</time>
      </trkpt>
      <trkpt lat="43.301418" lon="-2.684249">
        <time>2021-08-21T17:15:03Z</time>
      </trkpt>
      <trkpt lat="43.300606" lon="-2.685282">
        <time>2021-08-21T17:15:09Z</time>
      </trkpt>
      <trkpt lat="43.299448" lon="-2.685863">
        <time>2021-08-21T17:15:15Z</time>
      </trkpt>
      <trkpt lat="43.297188" lon="-2.686406">
        <time>2021-08-21T17:15:27Z</time>
      </trkpt>
      <trkpt lat="43.292653" lon="-2.687436">
        <time>2021-08-21T17:15:54Z</time>
      </trkpt>
      <trkpt lat="43.291736" lon="-2.687938">
        <time>2021-08-21T17:16:00Z</time>
      </trkpt>
      <trkpt lat="43.290009" lon="-2.688978">
        <time>2021-08-21T17:16:12Z</time>
      </trkpt>
      <trkpt lat="43.28816" lon="-2.689296">
        <time>2021-08-21T17:16:24Z</time>
      </trkpt>
      <trkpt lat="43.285218" lon="-2.689703">
        <time>2021-08-21T17:16:42Z</time>
      </trkpt>
      <trkpt lat="43.284405" lon="-2.689227">
        <time>2021-08-21T17:16:48Z</time>
      </trkpt>
      <trkpt lat="43.283612" lon="-2.688389">
        <time>2021-08-21T17:16:54Z</time>
      </trkpt>
      <trkpt lat="43.283612" lon="-2.688389">
        <time>2021-08-21T17:16:54Z</time>
      </trkpt>
      <trkpt lat="43.282137" lon="-2.685953">
        <time>2021-08-21T17:17:09Z</time>
      </trkpt>
      <trkpt lat="43.281732" lon="-2.685144">
        <time>2021-08-21T17:17:15Z</time>
      </trkpt>
      <trkpt lat="43.281369" lon="-2.684966">
        <time>2021-08-21T17:17:18Z</time>
      </trkpt>
      <trkpt lat="43.279896" lon="-2.684677">
        <time>2021-08-21T17:17:27Z</time>
      </trkpt>
      <trkpt lat="43.275455" lon="-2.684764">
        <time>2021-08-21T17:17:51Z</time>
      </trkpt>
      <trkpt lat="43.27492" lon="-2.684845">
        <time>2021-08-21T17:17:54Z</time>
      </trkpt>
      <trkpt lat="43.270248" lon="-2.685547">
        <time>2021-08-21T17:18:24Z</time>
      </trkpt>
      <trkpt lat="43.265328" lon="-2.686092">
        <time>2021-08-21T17:18:54Z</time>
      </trkpt>
      <trkpt lat="43.265328" lon="-2.686092">
        <time>2021-08-21T17:18:54Z</time>
      </trkpt>
      <trkpt lat="43.262536" lon="-2.685477">
        <time>2021-08-21T17:19:12Z</time>
      </trkpt>
      <trkpt lat="43.261734" lon="-2.685795">
        <time>2021-08-21T17:19:18Z</time>
      </trkpt>
      <trkpt lat="43.261573" lon="-2.686234">
        <time>2021-08-21T17:19:21Z</time>
      </trkpt>
      <trkpt lat="43.261503" lon="-2.687366">
        <time>2021-08-21T17:19:27Z</time>
      </trkpt>
      <trkpt lat="43.261503" lon="-2.687366">
        <time>2021-08-21T17:19:27Z</time>
      </trkpt>
      <trkpt lat="43.261281" lon="-2.688277">
        <time>2021-08-21T17:19:33Z</time>
      </trkpt>
      <trkpt lat="43.260572" lon="-2.688884">
        <time>2021-08-21T17:19:39Z</time>
      </trkpt>
      <trkpt lat="43.260265" lon="-2.689172">
        <time>2021-08-21T17:19:42Z</time>
      </trkpt>
      <trkpt lat="43.259888" lon="-2.689268">
        <time>2021-08-21T17:19:45Z</time>
      </trkpt>
      <trkpt lat="43.259541" lon="-2.689482">
        <time>2021-08-21T17:19:48Z</time>
      </trkpt>
      <trkpt lat="43.25785" lon="-2.691105">
        <time>2021-08-21T17:20:03Z</time>
      </trkpt>
      <trkpt lat="43.25785" lon="-2.691105">
        <time>2021-08-21T17:20:03Z</time>
      </trkpt>
      <trkpt lat="43.257043" lon="-2.691417">
        <time>2021-08-21T17:20:09Z</time>
      </trkpt>
      <trkpt lat="43.256597" lon="-2.691304">
        <time>2021-08-21T17:20:12Z</time>
      </trkpt>
      <trkpt lat="43.255722" lon="-2.690856">
        <time>2021-08-21T17:20:18Z</time>
      </trkpt>
      <trkpt lat="43.254865" lon="-2.690772">
        <time>2021-08-21T17:20:24Z</time>
      </trkpt>
      <trkpt lat="43.253948" lon="-2.690754">
        <time>2021-08-21T17:20:30Z</time>
      </trkpt>
      <trkpt lat="43.253504" lon="-2.691009">
        <time>2021-08-21T17:20:33Z</time>
      </trkpt>
      <trkpt lat="43.253504" lon="-2.691009">
        <time>2021-08-21T17:20:33Z</time>
      </trkpt>
      <trkpt lat="43.252817" lon="-2.691936">
        <time>2021-08-21T17:20:39Z</time>
      </trkpt>
      <trkpt lat="43.250501" lon="-2.696143">
        <time>2021-08-21T17:21:03Z</time>
      </trkpt>
      <trkpt lat="43.249193" lon="-2.699083">
        <time>2021-08-21T17:21:18Z</time>
      </trkpt>
      <trkpt lat="43.248678" lon="-2.700808">
        <time>2021-08-21T17:21:27Z</time>
      </trkpt>
      <trkpt lat="43.247893" lon="-2.701381">
        <time>2021-08-21T17:21:33Z</time>
      </trkpt>
      <trkpt lat="43.247211" lon="-2.7022">
        <time>2021-08-21T17:21:39Z</time>
      </trkpt>
      <trkpt lat="43.246819" lon="-2.703415">
        <time>2021-08-21T17:21:45Z</time>
      </trkpt>
      <trkpt lat="43.246757" lon="-2.70454">
        <time>2021-08-21T17:21:51Z</time>
      </trkpt>
      <trkpt lat="43.246447" lon="-2.705044">
        <time>2021-08-21T17:21:54Z</time>
      </trkpt>
      <trkpt lat="43.245017" lon="-2.707109">
        <time>2021-08-21T17:22:03Z</time>
      </trkpt>
      <trkpt lat="43.245017" lon="-2.707109">
        <time>2021-08-21T17:22:03Z</time>
      </trkpt>
      <trkpt lat="43.243975" lon="-2.708667">
        <time>2021-08-21T17:22:09Z</time>
      </trkpt>
      <trkpt lat="43.23761" lon="-2.72067">
        <time>2021-08-21T17:22:56Z</time>
      </trkpt>
      <trkpt lat="43.23761" lon="-2.72067">
        <time>2021-08-21T17:22:56Z</time>
      </trkpt>
      <trkpt lat="43.235878" lon="-2.725723">
        <time>2021-08-21T17:23:14Z</time>
      </trkpt>
      <trkpt lat="43.235394" lon="-2.726457">
        <time>2021-08-21T17:23:17Z</time>
      </trkpt>
      <trkpt lat="43.234831" lon="-2.7271">
        <time>2021-08-21T17:23:20Z</time>
      </trkpt>
      <trkpt lat="43.233535" lon="-2.728089">
        <time>2021-08-21T17:23:26Z</time>
      </trkpt>
      <trkpt lat="43.230754" lon="-2.729147">
        <time>2021-08-21T17:23:38Z</time>
      </trkpt>
      <trkpt lat="43.226994" lon="-2.730739">
        <time>2021-08-21T17:23:56Z</time>
      </trkpt>
      <trkpt lat="43.226407" lon="-2.730937">
        <time>2021-08-21T17:24:02Z</time>
      </trkpt>
      <trkpt lat="43.226407" lon="-2.730937">
        <time>2021-08-21T17:24:02Z</time>
      </trkpt>
      <trkpt lat="43.224318" lon="-2.731653">
        <time>2021-08-21T17:24:20Z</time>
      </trkpt>
      <trkpt lat="43.222998" lon="-2.731451">
        <time>2021-08-21T17:24:32Z</time>
      </trkpt>
      <trkpt lat="43.222721" lon="-2.731585">
        <time>2021-08-21T17:24:35Z</time>
      </trkpt>
      <trkpt lat="43.222079" lon="-2.731949">
        <time>2021-08-21T17:24:44Z</time>
      </trkpt>
      <trkpt lat="43.222079" lon="-2.731949">
        <time>2021-08-21T17:24:44Z</time>
      </trkpt>
      <trkpt lat="43.221013" lon="-2.732178">
        <time>2021-08-21T17:24:56Z</time>
      </trkpt>
      <trkpt lat="43.220844" lon="-2.732363">
        <time>2021-08-21T17:24:59Z</time>
      </trkpt>
      <trkpt lat="43.22054" lon="-2.732803">
        <time>2021-08-21T17:25:08Z</time>
      </trkpt>
      <trkpt lat="43.220551" lon="-2.733007">
        <time>2021-08-21T17:25:11Z</time>
      </trkpt>
      <trkpt lat="43.220665" lon="-2.733219">
        <time>2021-08-21T17:25:14Z</time>
      </trkpt>
      <trkpt lat="43.220992" lon="-2.733701">
        <time>2021-08-21T17:25:20Z</time>
      </trkpt>
      <trkpt lat="43.222434" lon="-2.735597">
        <time>2021-08-21T17:25:41Z</time>
      </trkpt>
      <trkpt lat="43.223318" lon="-2.736913">
        <time>2021-08-21T17:25:53Z</time>
      </trkpt>
      <trkpt lat="43.223671" lon="-2.738196">
        <time>2021-08-21T17:26:05Z</time>
      </trkpt>
      <trkpt lat="43.221474" lon="-2.739392">
        <time>2021-08-21T17:26:32Z</time>
      </trkpt>
      <trkpt lat="43.218042" lon="-2.741332">
        <time>2021-08-21T17:27:08Z</time>
      </trkpt>
      <trkpt lat="43.217268" lon="-2.742193">
        <time>2021-08-21T17:27:17Z</time>
      </trkpt>
      <trkpt lat="43.216995" lon="-2.742387">
        <time>2021-08-21T17:27:20Z</time>
      </trkpt>
      <trkpt lat="43.216625" lon="-2.742552">
        <time>2021-08-21T17:27:26Z</time>
      </trkpt>
      <trkpt lat="43.216156" lon="-2.742301">
        <time>2021-08-21T17:27:32Z</time>
      </trkpt>
      <trkpt lat="43.215055" lon="-2.74091">
        <time>2021-08-21T17:27:44Z</time>
      </trkpt>
      <trkpt lat="43.214695" lon="-2.740953">
        <time>2021-08-21T17:27:47Z</time>
      </trkpt>
      <trkpt lat="43.21312" lon="-2.741747">
        <time>2021-08-21T17:27:59Z</time>
      </trkpt>
      <trkpt lat="43.212724" lon="-2.742048">
        <time>2021-08-21T17:28:02Z</time>
      </trkpt>
      <trkpt lat="43.211331" lon="-2.743386">
        <time>2021-08-21T17:28:14Z</time>
      </trkpt>
      <trkpt lat="43.211029" lon="-2.74428">
        <time>2021-08-21T17:28:20Z</time>
      </trkpt>
      <trkpt lat="43.210994" lon="-2.744843">
        <time>2021-08-21T17:28:23Z</time>
      </trkpt>
      <trkpt lat="43.211139" lon="-2.745428">
        <time>2021-08-21T17:28:26Z</time>
      </trkpt>
      <trkpt lat="43.211779" lon="-2.7466">
        <time>2021-08-21T17:28:32Z</time>
      </trkpt>
      <trkpt lat="43.212849" lon="-2.748321">
        <time>2021-08-21T17:28:41Z</time>
      </trkpt>
      <trkpt lat="43.213501" lon="-2.749393">
        <time>2021-08-21T17:28:47Z</time>
      </trkpt>
      <trkpt lat="43.213482" lon="-2.750122">
        <time>2021-08-21T17:28:50Z</time>
      </trkpt>
      <trkpt lat="43.213182" lon="-2.752447">
        <time>2021-08-21T17:28:59Z</time>
      </trkpt>
      <trkpt lat="43.212878" lon="-2.753155">
        <time>2021-08-21T17:29:02Z</time>
      </trkpt>
      <trkpt lat="43.212375" lon="-2.754627">
        <time>2021-08-21T17:29:08Z</time>
      </trkpt>
      <trkpt lat="43.212365" lon="-2.755471">
        <time>2021-08-21T17:29:11Z</time>
      </trkpt>
      <trkpt lat="43.212719" lon="-2.759197">
        <time>2021-08-21T17:29:23Z</time>
      </trkpt>
      <trkpt lat="43.212949" lon="-2.762684">
        <time>2021-08-21T17:29:35Z</time>
      </trkpt>
      <trkpt lat="43.21231" lon="-2.764902">
        <time>2021-08-21T17:29:44Z</time>
      </trkpt>
      <trkpt lat="43.211972" lon="-2.765385">
        <time>2021-08-21T17:29:47Z</time>
      </trkpt>
      <trkpt lat="43.211972" lon="-2.765385">
        <time>2021-08-21T17:29:47Z</time>
      </trkpt>
      <trkpt lat="43.210915" lon="-2.76649">
        <time>2021-08-21T17:29:56Z</time>
      </trkpt>
      <trkpt lat="43.210451" lon="-2.766587">
        <time>2021-08-21T17:29:59Z</time>
      </trkpt>
      <trkpt lat="43.209227" lon="-2.766928">
        <time>2021-08-21T17:30:08Z</time>
      </trkpt>
      <trkpt lat="43.208124" lon="-2.768259">
        <time>2021-08-21T17:30:20Z</time>
      </trkpt>
      <trkpt lat="43.208124" lon="-2.768259">
        <time>2021-08-21T17:30:20Z</time>
      </trkpt>
      <trkpt lat="43.207505" lon="-2.769525">
        <time>2021-08-21T17:30:35Z</time>
      </trkpt>
      <trkpt lat="43.20686" lon="-2.769842">
        <time>2021-08-21T17:30:44Z</time>
      </trkpt>
      <trkpt lat="43.206716" lon="-2.770051">
        <time>2021-08-21T17:30:47Z</time>
      </trkpt>
      <trkpt lat="43.206685" lon="-2.77026">
        <time>2021-08-21T17:30:50Z</time>
      </trkpt>
      <trkpt lat="43.206804" lon="-2.77079">
        <time>2021-08-21T17:30:56Z</time>
      </trkpt>
      <trkpt lat="43.207529" lon="-2.771844">
        <time>2021-08-21T17:31:08Z</time>
      </trkpt>
      <trkpt lat="43.207619" lon="-2.772278">
        <time>2021-08-21T17:31:11Z</time>
      </trkpt>
      <trkpt lat="43.207597" lon="-2.773277">
        <time>2021-08-21T17:31:17Z</time>
      </trkpt>
      <trkpt lat="43.207063" lon="-2.775782">
        <time>2021-08-21T17:31:32Z</time>
      </trkpt>
      <trkpt lat="43.206715" lon="-2.777442">
        <time>2021-08-21T17:31:41Z</time>
      </trkpt>
      <trkpt lat="43.206746" lon="-2.777985">
        <time>2021-08-21T17:31:47Z</time>
      </trkpt>
      <trkpt lat="43.206649" lon="-2.778151">
        <time>2021-08-21T17:31:50Z</time>
      </trkpt>
      <trkpt lat="43.206476" lon="-2.77801">
        <time>2021-08-21T17:31:53Z</time>
      </trkpt>
      <trkpt lat="43.205972" lon="-2.776886">
        <time>2021-08-21T17:31:59Z</time>
      </trkpt>
      <trkpt lat="43.205972" lon="-2.776886">
        <time>2021-08-21T17:31:59Z</time>
      </trkpt>
      <trkpt lat="43.20509" lon="-2.774796">
        <time>2021-08-21T17:32:08Z</time>
      </trkpt>
      <trkpt lat="43.203024" lon="-2.77302">
        <time>2021-08-21T17:32:23Z</time>
      </trkpt>
      <trkpt lat="43.202618" lon="-2.77294">
        <time>2021-08-21T17:32:26Z</time>
      </trkpt>
      <trkpt lat="43.201208" lon="-2.772784">
        <time>2021-08-21T17:32:35Z</time>
      </trkpt>
      <trkpt lat="43.200906" lon="-2.772871">
        <time>2021-08-21T17:32:38Z</time>
      </trkpt>
      <trkpt lat="43.200657" lon="-2.772797">
        <time>2021-08-21T17:32:41Z</time>
      </trkpt>
      <trkpt lat="43.20027" lon="-2.772699">
        <time>2021-08-21T17:32:44Z</time>
      </trkpt>
      <trkpt lat="43.199801" lon="-2.77286">
        <time>2021-08-21T17:32:47Z</time>
      </trkpt>
      <trkpt lat="43.199373" lon="-2.773316">
        <time>2021-08-21T17:32:50Z</time>
      </trkpt>
      <trkpt lat="43.198539" lon="-2.774527">
        <time>2021-08-21T17:32:56Z</time>
      </trkpt>
      <trkpt lat="43.197557" lon="-2.775631">
        <time>2021-08-21T17:33:02Z</time>
      </trkpt>
      <trkpt lat="43.196928" lon="-2.775894">
        <time>2021-08-21T17:33:05Z</time>
      </trkpt>
      <trkpt lat="43.196259" lon="-2.775905">
        <time>2021-08-21T17:33:08Z</time>
      </trkpt>
      <trkpt lat="43.1943" lon="-2.775451">
        <time>2021-08-21T17:33:17Z</time>
      </trkpt>
      <trkpt lat="43.192387" lon="-2.775486">
        <time>2021-08-21T17:33:26Z</time>
      </trkpt>
      <trkpt lat="43.18979" lon="-2.775836">
        <time>2021-08-21T17:33:38Z</time>
      </trkpt>
      <trkpt lat="43.18979" lon="-2.775836">
        <time>2021-08-21T17:33:38Z</time>
      </trkpt>
      <trkpt lat="43.18781" lon="-2.774816">
        <time>2021-08-21T17:33:47Z</time>
      </trkpt>
      <trkpt lat="43.185387" lon="-2.774665">
        <time>2021-08-21T17:33:59Z</time>
      </trkpt>
      <trkpt lat="43.183871" lon="-2.774386">
        <time>2021-08-21T17:34:08Z</time>
      </trkpt>
      <trkpt lat="43.182829" lon="-2.774144">
        <time>2021-08-21T17:34:14Z</time>
      </trkpt>
      <trkpt lat="43.180454" lon="-2.774628">
        <time>2021-08-21T17:34:26Z</time>
      </trkpt>
      <trkpt lat="43.180454" lon="-2.774628">
        <time>2021-08-21T17:34:26Z</time>
      </trkpt>
      <trkpt lat="43.178443" lon="-2.775209">
        <time>2021-08-21T17:34:35Z</time>
      </trkpt>
      <trkpt lat="43.177077" lon="-2.774746">
        <time>2021-08-21T17:34:41Z</time>
      </trkpt>
      <trkpt lat="43.175878" lon="-2.773789">
        <time>2021-08-21T17:34:47Z</time>
      </trkpt>
      <trkpt lat="43.174587" lon="-2.773159">
        <time>2021-08-21T17:34:53Z</time>
      </trkpt>
      <trkpt lat="43.171328" lon="-2.772946">
        <time>2021-08-21T17:35:08Z</time>
      </trkpt>
      <trkpt lat="43.171328" lon="-2.772946">
        <time>2021-08-21T17:35:08Z</time>
      </trkpt>
      <trkpt lat="43.166745" lon="-2.770396">
        <time>2021-08-21T17:35:29Z</time>
      </trkpt>
      <trkpt lat="43.166745" lon="-2.770396">
        <time>2021-08-21T17:35:29Z</time>
      </trkpt>
      <trkpt lat="43.164228" lon="-2.768527">
        <time>2021-08-21T17:35:41Z</time>
      </trkpt>
      <trkpt lat="43.162843" lon="-2.76842">
        <time>2021-08-21T17:35:47Z</time>
      </trkpt>
      <trkpt lat="43.162176" lon="-2.768621">
        <time>2021-08-21T17:35:50Z</time>
      </trkpt>
      <trkpt lat="43.160455" lon="-2.770131">
        <time>2021-08-21T17:35:59Z</time>
      </trkpt>
      <trkpt lat="43.159277" lon="-2.773671">
        <time>2021-08-21T17:36:11Z</time>
      </trkpt>
      <trkpt lat="43.158631" lon="-2.777708">
        <time>2021-08-21T17:36:24Z</time>
      </trkpt>
      <trkpt lat="43.158436" lon="-2.780442">
        <time>2021-08-21T17:36:33Z</time>
      </trkpt>
      <trkpt lat="43.157968" lon="-2.785127">
        <time>2021-08-21T17:36:48Z</time>
      </trkpt>
      <trkpt lat="43.157306" lon="-2.786749">
        <time>2021-08-21T17:36:54Z</time>
      </trkpt>
      <trkpt lat="43.157306" lon="-2.786749">
        <time>2021-08-21T17:36:54Z</time>
      </trkpt>
      <trkpt lat="43.15631" lon="-2.788023">
        <time>2021-08-21T17:37:00Z</time>
      </trkpt>
      <trkpt lat="43.153514" lon="-2.791025">
        <time>2021-08-21T17:37:18Z</time>
      </trkpt>
      <trkpt lat="43.153514" lon="-2.791025">
        <time>2021-08-21T17:37:18Z</time>
      </trkpt>
      <trkpt lat="43.152869" lon="-2.791044">
        <time>2021-08-21T17:37:21Z</time>
      </trkpt>
      <trkpt lat="43.149023" lon="-2.789413">
        <time>2021-08-21T17:37:39Z</time>
      </trkpt>
      <trkpt lat="43.144641" lon="-2.78751">
        <time>2021-08-21T17:38:00Z</time>
      </trkpt>
      <trkpt lat="43.139727" lon="-2.785428">
        <time>2021-08-21T17:38:24Z</time>
      </trkpt>
      <trkpt lat="43.136788" lon="-2.78403">
        <time>2021-08-21T17:38:39Z</time>
      </trkpt>
      <trkpt lat="43.135466" lon="-2.782236">
        <time>2021-08-21T17:38:48Z</time>
      </trkpt>
      <trkpt lat="43.133885" lon="-2.780234">
        <time>2021-08-21T17:40:28Z</time>
      </trkpt>
      <trkpt lat="43.133885" lon="-2.780234">
        <time>2021-08-21T17:41:06Z</time>
      </trkpt>
      <trkpt lat="43.133885" lon="-2.780234">
        <time>2021-08-21T17:41:31Z</time>
      </trkpt>
      <trkpt lat="43.133822" lon="-2.780211">
        <time>2021-08-21T17:41:51Z</time>
      </trkpt>
      <trkpt lat="43.133638" lon="-2.780273">
        <time>2021-08-21T17:41:57Z</time>
      </trkpt>
      <trkpt lat="43.133616" lon="-2.780195">
        <time>2021-08-21T17:42:00Z</time>
      </trkpt>
      <trkpt lat="43.133719" lon="-2.779979">
        <time>2021-08-21T17:42:06Z</time>
      </trkpt>
      <trkpt lat="43.133611" lon="-2.779773">
        <time>2021-08-21T17:42:09Z</time>
      </trkpt>
      <trkpt lat="43.132219" lon="-2.777867">
        <time>2021-08-21T17:42:21Z</time>
      </trkpt>
      <trkpt lat="43.13041" lon="-2.77565">
        <time>2021-08-21T17:42:33Z</time>
      </trkpt>
      <trkpt lat="43.12812" lon="-2.774148">
        <time>2021-08-21T17:42:45Z</time>
      </trkpt>
      <trkpt lat="43.12812" lon="-2.774148">
        <time>2021-08-21T17:42:45Z</time>
      </trkpt>
      <trkpt lat="43.127426" lon="-2.773297">
        <time>2021-08-21T17:42:51Z</time>
      </trkpt>
      <trkpt lat="43.12471" lon="-2.769675">
        <time>2021-08-21T17:43:06Z</time>
      </trkpt>
      <trkpt lat="43.124312" lon="-2.76892">
        <time>2021-08-21T17:43:09Z</time>
      </trkpt>
      <trkpt lat="43.122781" lon="-2.766186">
        <time>2021-08-21T17:43:21Z</time>
      </trkpt>
      <trkpt lat="43.122315" lon="-2.765926">
        <time>2021-08-21T17:43:24Z</time>
      </trkpt>
      <trkpt lat="43.121778" lon="-2.765927">
        <time>2021-08-21T17:43:27Z</time>
      </trkpt>
      <trkpt lat="43.121177" lon="-2.76599">
        <time>2021-08-21T17:43:30Z</time>
      </trkpt>
      <trkpt lat="43.11648" lon="-2.766205">
        <time>2021-08-21T17:43:51Z</time>
      </trkpt>
      <trkpt lat="43.114266" lon="-2.765836">
        <time>2021-08-21T17:44:03Z</time>
      </trkpt>
      <trkpt lat="43.113785" lon="-2.76544">
        <time>2021-08-21T17:44:06Z</time>
      </trkpt>
      <trkpt lat="43.113424" lon="-2.764744">
        <time>2021-08-21T17:44:09Z</time>
      </trkpt>
      <trkpt lat="43.11277" lon="-2.762799">
        <time>2021-08-21T17:44:15Z</time>
      </trkpt>
      <trkpt lat="43.111404" lon="-2.75949">
        <time>2021-08-21T17:44:24Z</time>
      </trkpt>
      <trkpt lat="43.10992" lon="-2.757359">
        <time>2021-08-21T17:44:33Z</time>
      </trkpt>
      <trkpt lat="43.10889" lon="-2.756259">
        <time>2021-08-21T17:44:39Z</time>
      </trkpt>
      <trkpt lat="43.106175" lon="-2.753402">
        <time>2021-08-21T17:44:54Z</time>
      </trkpt>
      <trkpt lat="43.106175" lon="-2.753402">
        <time>2021-08-21T17:44:54Z</time>
      </trkpt>
      <trkpt lat="43.104759" lon="-2.751655">
        <time>2021-08-21T17:45:03Z</time>
      </trkpt>
      <trkpt lat="43.103691" lon="-2.751251">
        <time>2021-08-21T17:45:09Z</time>
      </trkpt>
      <trkpt lat="43.102131" lon="-2.751544">
        <time>2021-08-21T17:45:18Z</time>
      </trkpt>
      <trkpt lat="43.098624" lon="-2.75233">
        <time>2021-08-21T17:45:34Z</time>
      </trkpt>
      <trkpt lat="43.096994" lon="-2.751847">
        <time>2021-08-21T17:45:40Z</time>
      </trkpt>
      <trkpt lat="43.096242" lon="-2.751589">
        <time>2021-08-21T17:45:43Z</time>
      </trkpt>
      <trkpt lat="43.094859" lon="-2.750558">
        <time>2021-08-21T17:45:49Z</time>
      </trkpt>
      <trkpt lat="43.092711" lon="-2.749144">
        <time>2021-08-21T17:45:58Z</time>
      </trkpt>
      <trkpt lat="43.092711" lon="-2.749144">
        <time>2021-08-21T17:45:58Z</time>
      </trkpt>
      <trkpt lat="43.09073" lon="-2.748362">
        <time>2021-08-21T17:46:07Z</time>
      </trkpt>
      <trkpt lat="43.090375" lon="-2.747565">
        <time>2021-08-21T17:46:10Z</time>
      </trkpt>
      <trkpt lat="43.089439" lon="-2.744666">
        <time>2021-08-21T17:46:19Z</time>
      </trkpt>
      <trkpt lat="43.089015" lon="-2.742152">
        <time>2021-08-21T17:46:28Z</time>
      </trkpt>
      <trkpt lat="43.088462" lon="-2.740018">
        <time>2021-08-21T17:46:37Z</time>
      </trkpt>
      <trkpt lat="43.087998" lon="-2.739546">
        <time>2021-08-21T17:46:40Z</time>
      </trkpt>
      <trkpt lat="43.087387" lon="-2.739339">
        <time>2021-08-21T17:46:43Z</time>
      </trkpt>
      <trkpt lat="43.087387" lon="-2.739339">
        <time>2021-08-21T17:46:43Z</time>
      </trkpt>
      <trkpt lat="43.086382" lon="-2.738695">
        <time>2021-08-21T17:46:49Z</time>
      </trkpt>
      <trkpt lat="43.085892" lon="-2.738201">
        <time>2021-08-21T17:46:52Z</time>
      </trkpt>
      <trkpt lat="43.084979" lon="-2.737298">
        <time>2021-08-21T17:46:58Z</time>
      </trkpt>
      <trkpt lat="43.084472" lon="-2.73689">
        <time>2021-08-21T17:47:01Z</time>
      </trkpt>
      <trkpt lat="43.083626" lon="-2.735885">
        <time>2021-08-21T17:47:07Z</time>
      </trkpt>
      <trkpt lat="43.083626" lon="-2.735885">
        <time>2021-08-21T17:47:07Z</time>
      </trkpt>
      <trkpt lat="43.083212" lon="-2.735666">
        <time>2021-08-21T17:47:10Z</time>
      </trkpt>
      <trkpt lat="43.082665" lon="-2.735085">
        <time>2021-08-21T17:47:16Z</time>
      </trkpt>
      <trkpt lat="43.082361" lon="-2.733788">
        <time>2021-08-21T17:47:22Z</time>
      </trkpt>
      <trkpt lat="43.082043" lon="-2.732326">
        <time>2021-08-21T17:47:28Z</time>
      </trkpt>
      <trkpt lat="43.081768" lon="-2.7311">
        <time>2021-08-21T17:47:34Z</time>
      </trkpt>
      <trkpt lat="43.081891" lon="-2.730424">
        <time>2021-08-21T17:47:37Z</time>
      </trkpt>
      <trkpt lat="43.082077" lon="-2.729748">
        <time>2021-08-21T17:47:40Z</time>
      </trkpt>
      <trkpt lat="43.082217" lon="-2.728726">
        <time>2021-08-21T17:47:46Z</time>
      </trkpt>
      <trkpt lat="43.082203" lon="-2.726809">
        <time>2021-08-21T17:47:55Z</time>
      </trkpt>
      <trkpt lat="43.082469" lon="-2.726226">
        <time>2021-08-21T17:47:58Z</time>
      </trkpt>
      <trkpt lat="43.082816" lon="-2.725261">
        <time>2021-08-21T17:48:04Z</time>
      </trkpt>
      <trkpt lat="43.082632" lon="-2.724871">
        <time>2021-08-21T17:48:07Z</time>
      </trkpt>
      <trkpt lat="43.082518" lon="-2.72428">
        <time>2021-08-21T17:48:10Z</time>
      </trkpt>
      <trkpt lat="43.082518" lon="-2.72428">
        <time>2021-08-21T17:48:10Z</time>
      </trkpt>
      <trkpt lat="43.082472" lon="-2.72282">
        <time>2021-08-21T17:48:16Z</time>
      </trkpt>
      <trkpt lat="43.082385" lon="-2.721578">
        <time>2021-08-21T17:48:22Z</time>
      </trkpt>
      <trkpt lat="43.082062" lon="-2.721089">
        <time>2021-08-21T17:48:25Z</time>
      </trkpt>
      <trkpt lat="43.080869" lon="-2.719316">
        <time>2021-08-21T17:48:34Z</time>
      </trkpt>
      <trkpt lat="43.080697" lon="-2.718541">
        <time>2021-08-21T17:48:37Z</time>
      </trkpt>
      <trkpt lat="43.080277" lon="-2.716397">
        <time>2021-08-21T17:48:46Z</time>
      </trkpt>
      <trkpt lat="43.080132" lon="-2.715518">
        <time>2021-08-21T17:48:52Z</time>
      </trkpt>
      <trkpt lat="43.080342" lon="-2.715485">
        <time>2021-08-21T17:48:55Z</time>
      </trkpt>
      <trkpt lat="43.080423" lon="-2.715852">
        <time>2021-08-21T17:48:58Z</time>
      </trkpt>
      <trkpt lat="43.081129" lon="-2.717565">
        <time>2021-08-21T17:49:10Z</time>
      </trkpt>
      <trkpt lat="43.081545" lon="-2.717758">
        <time>2021-08-21T17:49:13Z</time>
      </trkpt>
      <trkpt lat="43.08188" lon="-2.717868">
        <time>2021-08-21T17:49:16Z</time>
      </trkpt>
      <trkpt lat="43.082052" lon="-2.717656">
        <time>2021-08-21T17:49:19Z</time>
      </trkpt>
      <trkpt lat="43.0819" lon="-2.717279">
        <time>2021-08-21T17:49:22Z</time>
      </trkpt>
      <trkpt lat="43.081086" lon="-2.715994">
        <time>2021-08-21T17:49:31Z</time>
      </trkpt>
      <trkpt lat="43.081099" lon="-2.715241">
        <time>2021-08-21T17:49:34Z</time>
      </trkpt>
      <trkpt lat="43.081077" lon="-2.713085">
        <time>2021-08-21T17:49:43Z</time>
      </trkpt>
      <trkpt lat="43.0806" lon="-2.712559">
        <time>2021-08-21T17:49:46Z</time>
      </trkpt>
      <trkpt lat="43.0806" lon="-2.712559">
        <time>2021-08-21T17:49:46Z</time>
      </trkpt>
      <trkpt lat="43.078406" lon="-2.711422">
        <time>2021-08-21T17:49:58Z</time>
      </trkpt>
      <trkpt lat="43.076824" lon="-2.711788">
        <time>2021-08-21T17:50:07Z</time>
      </trkpt>
      <trkpt lat="43.076425" lon="-2.71231">
        <time>2021-08-21T17:50:10Z</time>
      </trkpt>
      <trkpt lat="43.075161" lon="-2.713679">
        <time>2021-08-21T17:50:19Z</time>
      </trkpt>
      <trkpt lat="43.074147" lon="-2.715572">
        <time>2021-08-21T17:50:28Z</time>
      </trkpt>
      <trkpt lat="43.07361" lon="-2.71571">
        <time>2021-08-21T17:50:31Z</time>
      </trkpt>
      <trkpt lat="43.073061" lon="-2.715456">
        <time>2021-08-21T17:50:34Z</time>
      </trkpt>
      <trkpt lat="43.073061" lon="-2.715456">
        <time>2021-08-21T17:50:34Z</time>
      </trkpt>
      <trkpt lat="43.070091" lon="-2.712916">
        <time>2021-08-21T17:50:52Z</time>
      </trkpt>
      <trkpt lat="43.069747" lon="-2.713179">
        <time>2021-08-21T17:50:55Z</time>
      </trkpt>
      <trkpt lat="43.068995" lon="-2.713808">
        <time>2021-08-21T17:51:01Z</time>
      </trkpt>
      <trkpt lat="43.068995" lon="-2.713808">
        <time>2021-08-21T17:51:01Z</time>
      </trkpt>
      <trkpt lat="43.068646" lon="-2.713526">
        <time>2021-08-21T17:51:04Z</time>
      </trkpt>
      <trkpt lat="43.068425" lon="-2.712913">
        <time>2021-08-21T17:51:07Z</time>
      </trkpt>
      <trkpt lat="43.068094" lon="-2.712398">
        <time>2021-08-21T17:51:10Z</time>
      </trkpt>
      <trkpt lat="43.067574" lon="-2.712268">
        <time>2021-08-21T17:51:13Z</time>
      </trkpt>
      <trkpt lat="43.066492" lon="-2.712091">
        <time>2021-08-21T17:51:19Z</time>
      </trkpt>
      <trkpt lat="43.065166" lon="-2.710991">
        <time>2021-08-21T17:51:28Z</time>
      </trkpt>
      <trkpt lat="43.060836" lon="-2.707153">
        <time>2021-08-21T17:51:52Z</time>
      </trkpt>
      <trkpt lat="43.056788" lon="-2.703532">
        <time>2021-08-21T17:52:13Z</time>
      </trkpt>
      <trkpt lat="43.052609" lon="-2.69986">
        <time>2021-08-21T17:52:34Z</time>
      </trkpt>
      <trkpt lat="43.048712" lon="-2.69669">
        <time>2021-08-21T17:52:52Z</time>
      </trkpt>
      <trkpt lat="43.044892" lon="-2.693453">
        <time>2021-08-21T17:53:13Z</time>
      </trkpt>
      <trkpt lat="43.044892" lon="-2.693453">
        <time>2021-08-21T17:53:13Z</time>
      </trkpt>
      <trkpt lat="43.04431" lon="-2.693393">
        <time>2021-08-21T17:53:16Z</time>
      </trkpt>
      <trkpt lat="43.04012" lon="-2.693745">
        <time>2021-08-21T17:53:34Z</time>
      </trkpt>
      <trkpt lat="43.038805" lon="-2.693508">
        <time>2021-08-21T17:53:40Z</time>
      </trkpt>
      <trkpt lat="43.035617" lon="-2.692754">
        <time>2021-08-21T17:53:52Z</time>
      </trkpt>
      <trkpt lat="43.031172" lon="-2.691501">
        <time>2021-08-21T17:54:10Z</time>
      </trkpt>
      <trkpt lat="43.02836" lon="-2.690173">
        <time>2021-08-21T17:54:22Z</time>
      </trkpt>
      <trkpt lat="43.026531" lon="-2.688416">
        <time>2021-08-21T17:54:31Z</time>
      </trkpt>
      <trkpt lat="43.023432" lon="-2.685294">
        <time>2021-08-21T17:54:46Z</time>
      </trkpt>
      <trkpt lat="43.022741" lon="-2.685037">
        <time>2021-08-21T17:54:49Z</time>
      </trkpt>
      <trkpt lat="43.018376" lon="-2.684202">
        <time>2021-08-21T17:55:07Z</time>
      </trkpt>
      <trkpt lat="43.017652" lon="-2.684371">
        <time>2021-08-21T17:55:10Z</time>
      </trkpt>
      <trkpt lat="43.016219" lon="-2.684545">
        <time>2021-08-21T17:55:16Z</time>
      </trkpt>
      <trkpt lat="43.012611" lon="-2.683584">
        <time>2021-08-21T17:55:31Z</time>
      </trkpt>
      <trkpt lat="43.008407" lon="-2.681072">
        <time>2021-08-21T17:55:49Z</time>
      </trkpt>
      <trkpt lat="43.0038" lon="-2.677791">
        <time>2021-08-21T17:56:10Z</time>
      </trkpt>
      <trkpt lat="43.003083" lon="-2.677614">
        <time>2021-08-21T17:56:13Z</time>
      </trkpt>
      <trkpt lat="42.998687" lon="-2.677834">
        <time>2021-08-21T17:56:31Z</time>
      </trkpt>
      <trkpt lat="42.997228" lon="-2.678117">
        <time>2021-08-21T17:56:37Z</time>
      </trkpt>
      <trkpt lat="42.994117" lon="-2.678098">
        <time>2021-08-21T17:56:49Z</time>
      </trkpt>
      <trkpt lat="42.992568" lon="-2.677665">
        <time>2021-08-21T17:56:55Z</time>
      </trkpt>
      <trkpt lat="42.990749" lon="-2.675714">
        <time>2021-08-21T17:57:04Z</time>
      </trkpt>
      <trkpt lat="42.990353" lon="-2.674794">
        <time>2021-08-21T17:57:07Z</time>
      </trkpt>
      <trkpt lat="42.988529" lon="-2.670026">
        <time>2021-08-21T17:57:22Z</time>
      </trkpt>
      <trkpt lat="42.988266" lon="-2.668991">
        <time>2021-08-21T17:57:25Z</time>
      </trkpt>
      <trkpt lat="42.987063" lon="-2.665098">
        <time>2021-08-21T17:57:37Z</time>
      </trkpt>
      <trkpt lat="42.986167" lon="-2.663399">
        <time>2021-08-21T17:57:43Z</time>
      </trkpt>
      <trkpt lat="42.984585" lon="-2.659879">
        <time>2021-08-21T17:57:55Z</time>
      </trkpt>
      <trkpt lat="42.984299" lon="-2.657851">
        <time>2021-08-21T17:58:01Z</time>
      </trkpt>
      <trkpt lat="42.984299" lon="-2.657851">
        <time>2021-08-21T17:58:01Z</time>
      </trkpt>
      <trkpt lat="42.984026" lon="-2.654638">
        <time>2021-08-21T17:58:10Z</time>
      </trkpt>
      <trkpt lat="42.983587" lon="-2.651805">
        <time>2021-08-21T17:58:19Z</time>
      </trkpt>
      <trkpt lat="42.983587" lon="-2.651805">
        <time>2021-08-21T17:58:19Z</time>
      </trkpt>
      <trkpt lat="42.983511" lon="-2.648973">
        <time>2021-08-21T17:58:28Z</time>
      </trkpt>
      <trkpt lat="42.98246" lon="-2.6457">
        <time>2021-08-21T17:58:43Z</time>
      </trkpt>
      <trkpt lat="42.98246" lon="-2.6457">
        <time>2021-08-21T17:58:43Z</time>
      </trkpt>
      <trkpt lat="42.982028" lon="-2.645393">
        <time>2021-08-21T17:58:46Z</time>
      </trkpt>
      <trkpt lat="42.977887" lon="-2.644573">
        <time>2021-08-21T17:59:16Z</time>
      </trkpt>
      <trkpt lat="42.973631" lon="-2.642391">
        <time>2021-08-21T17:59:43Z</time>
      </trkpt>
      <trkpt lat="42.97272" lon="-2.641492">
        <time>2021-08-21T17:59:49Z</time>
      </trkpt>
      <trkpt lat="42.970738" lon="-2.638418">
        <time>2021-08-21T18:00:04Z</time>
      </trkpt>
      <trkpt lat="42.970218" lon="-2.63794">
        <time>2021-08-21T18:00:07Z</time>
      </trkpt>
      <trkpt lat="42.969646" lon="-2.637555">
        <time>2021-08-21T18:00:10Z</time>
      </trkpt>
      <trkpt lat="42.96829" lon="-2.637129">
        <time>2021-08-21T18:00:16Z</time>
      </trkpt>
      <trkpt lat="42.96507" lon="-2.637201">
        <time>2021-08-21T18:00:28Z</time>
      </trkpt>
      <trkpt lat="42.959989" lon="-2.637196">
        <time>2021-08-21T18:00:46Z</time>
      </trkpt>
      <trkpt lat="42.959136" lon="-2.636976">
        <time>2021-08-21T18:00:49Z</time>
      </trkpt>
      <trkpt lat="42.955703" lon="-2.636605">
        <time>2021-08-21T18:01:01Z</time>
      </trkpt>
      <trkpt lat="42.954834" lon="-2.636725">
        <time>2021-08-21T18:01:04Z</time>
      </trkpt>
      <trkpt lat="42.949517" lon="-2.637492">
        <time>2021-08-21T18:01:22Z</time>
      </trkpt>
      <trkpt lat="42.945134" lon="-2.638848">
        <time>2021-08-21T18:01:37Z</time>
      </trkpt>
      <trkpt lat="42.940069" lon="-2.641097">
        <time>2021-08-21T18:01:55Z</time>
      </trkpt>
      <trkpt lat="42.935049" lon="-2.643279">
        <time>2021-08-21T18:02:13Z</time>
      </trkpt>
      <trkpt lat="42.931529" lon="-2.644025">
        <time>2021-08-21T18:02:25Z</time>
      </trkpt>
      <trkpt lat="42.929704" lon="-2.644069">
        <time>2021-08-21T18:02:31Z</time>
      </trkpt>
      <trkpt lat="42.925124" lon="-2.644552">
        <time>2021-08-21T18:02:46Z</time>
      </trkpt>
      <trkpt lat="42.921676" lon="-2.645523">
        <time>2021-08-21T18:02:58Z</time>
      </trkpt>
      <trkpt lat="42.920084" lon="-2.646546">
        <time>2021-08-21T18:03:04Z</time>
      </trkpt>
      <trkpt lat="42.91688" lon="-2.64807">
        <time>2021-08-21T18:03:16Z</time>
      </trkpt>
      <trkpt lat="42.915244" lon="-2.648162">
        <time>2021-08-21T18:03:22Z</time>
      </trkpt>
      <trkpt lat="42.914408" lon="-2.648065">
        <time>2021-08-21T18:03:25Z</time>
      </trkpt>
      <trkpt lat="42.910079" lon="-2.64787">
        <time>2021-08-21T18:03:40Z</time>
      </trkpt>
      <trkpt lat="42.910079" lon="-2.64787">
        <time>2021-08-21T18:03:40Z</time>
      </trkpt>
      <trkpt lat="42.90496" lon="-2.649011">
        <time>2021-08-21T18:03:58Z</time>
      </trkpt>
      <trkpt lat="42.899776" lon="-2.650351">
        <time>2021-08-21T18:04:16Z</time>
      </trkpt>
      <trkpt lat="42.89539" lon="-2.651688">
        <time>2021-08-21T18:04:31Z</time>
      </trkpt>
      <trkpt lat="42.890159" lon="-2.65328">
        <time>2021-08-21T18:04:49Z</time>
      </trkpt>
      <trkpt lat="42.885763" lon="-2.654616">
        <time>2021-08-21T18:05:04Z</time>
      </trkpt>
      <trkpt lat="42.881142" lon="-2.656017">
        <time>2021-08-21T18:05:22Z</time>
      </trkpt>
      <trkpt lat="42.878095" lon="-2.657097">
        <time>2021-08-21T18:05:43Z</time>
      </trkpt>
      <trkpt lat="42.8779" lon="-2.657109">
        <time>2021-08-21T18:05:46Z</time>
      </trkpt>
      <trkpt lat="42.877664" lon="-2.657058">
        <time>2021-08-21T18:05:49Z</time>
      </trkpt>
      <trkpt lat="42.876498" lon="-2.657338">
        <time>2021-08-21T18:05:58Z</time>
      </trkpt>
      <trkpt lat="42.874912" lon="-2.65752">
        <time>2021-08-21T18:06:10Z</time>
      </trkpt>
      <trkpt lat="42.874287" lon="-2.657826">
        <time>2021-08-21T18:06:16Z</time>
      </trkpt>
      <trkpt lat="42.873119" lon="-2.658018">
        <time>2021-08-21T18:06:25Z</time>
      </trkpt>
      <trkpt lat="42.871915" lon="-2.658352">
        <time>2021-08-21T18:06:34Z</time>
      </trkpt>
      <trkpt lat="42.867258" lon="-2.660037">
        <time>2021-08-21T18:07:16Z</time>
      </trkpt>
      <trkpt lat="42.865147" lon="-2.660847">
        <time>2021-08-21T18:07:37Z</time>
      </trkpt>
      <trkpt lat="42.865088" lon="-2.661172">
        <time>2021-08-21T18:07:40Z</time>
      </trkpt>
      <trkpt lat="42.865064" lon="-2.664456">
        <time>2021-08-21T18:07:55Z</time>
      </trkpt>
      <trkpt lat="42.865064" lon="-2.664456">
        <time>2021-08-21T18:07:55Z</time>
      </trkpt>
      <trkpt lat="42.864426" lon="-2.666459">
        <time>2021-08-21T18:08:04Z</time>
      </trkpt>
      <trkpt lat="42.862954" lon="-2.670227">
        <time>2021-08-21T18:08:22Z</time>
      </trkpt>
      <trkpt lat="42.861371" lon="-2.674437">
        <time>2021-08-21T18:09:31Z</time>
      </trkpt>
      <trkpt lat="42.861379" lon="-2.674707">
        <time>2021-08-21T18:09:34Z</time>
      </trkpt>
      <trkpt lat="42.861312" lon="-2.674946">
        <time>2021-08-21T18:09:37Z</time>
      </trkpt>
      <trkpt lat="42.861148" lon="-2.67506">
        <time>2021-08-21T18:09:40Z</time>
      </trkpt>
      <trkpt lat="42.86099" lon="-2.674943">
        <time>2021-08-21T18:09:43Z</time>
      </trkpt>
      <trkpt lat="42.86091" lon="-2.674734">
        <time>2021-08-21T18:09:46Z</time>
      </trkpt>
      <trkpt lat="42.860805" lon="-2.674622">
        <time>2021-08-21T18:09:49Z</time>
      </trkpt>
      <trkpt lat="42.860805" lon="-2.674622">
        <time>2021-08-21T18:09:49Z</time>
      </trkpt>
      <trkpt lat="42.859503" lon="-2.674225">
        <time>2021-08-21T18:10:04Z</time>
      </trkpt>
      <trkpt lat="42.858947" lon="-2.674029">
        <time>2021-08-21T18:10:10Z</time>
      </trkpt>
      <trkpt lat="42.857829" lon="-2.67367">
        <time>2021-08-21T18:10:22Z</time>
      </trkpt>
      <trkpt lat="42.856312" lon="-2.673445">
        <time>2021-08-21T18:11:34Z</time>
      </trkpt>
      <trkpt lat="42.853411" lon="-2.673209">
        <time>2021-08-21T18:12:07Z</time>
      </trkpt>
      <trkpt lat="42.85336" lon="-2.673107">
        <time>2021-08-21T18:12:10Z</time>
      </trkpt>
      <trkpt lat="42.853364" lon="-2.672864">
        <time>2021-08-21T18:12:13Z</time>
      </trkpt>
      <trkpt lat="42.853461" lon="-2.672594">
        <time>2021-08-21T18:12:16Z</time>
      </trkpt>
      <trkpt lat="42.853234" lon="-2.671511">
        <time>2021-08-21T18:12:25Z</time>
      </trkpt>
      <trkpt lat="42.853052" lon="-2.670842">
        <time>2021-08-21T18:12:31Z</time>
      </trkpt>
      <trkpt lat="42.852791" lon="-2.670446">
        <time>2021-08-21T18:13:10Z</time>
      </trkpt>
      <trkpt lat="42.852495" lon="-2.670095">
        <time>2021-08-21T18:13:16Z</time>
      </trkpt>
      <trkpt lat="42.851792" lon="-2.66959">
        <time>2021-08-21T18:13:34Z</time>
      </trkpt>
      <trkpt lat="42.851695" lon="-2.66955">
        <time>2021-08-21T18:13:37Z</time>
      </trkpt>
      <trkpt lat="42.85154" lon="-2.669494">
        <time>2021-08-21T18:13:43Z</time>
      </trkpt>
      <trkpt lat="42.851449" lon="-2.669502">
        <time>2021-08-21T18:13:46Z</time>
      </trkpt>
      <trkpt lat="42.851329" lon="-2.669415">
        <time>2021-08-21T18:13:49Z</time>
      </trkpt>
      <trkpt lat="42.849789" lon="-2.668602">
        <time>2021-08-21T18:14:13Z</time>
      </trkpt>
      <trkpt lat="42.849558" lon="-2.668484">
        <time>2021-08-21T18:14:19Z</time>
      </trkpt>
      <trkpt lat="42.849571" lon="-2.668463">
        <time>2021-08-21T18:14:22Z</time>
      </trkpt>
      <trkpt lat="42.849511" lon="-2.668373">
        <time>2021-08-21T18:15:31Z</time>
      </trkpt>
      <trkpt lat="42.849511" lon="-2.668373">
        <time>2021-08-21T18:15:31Z</time>
      </trkpt>
      <trkpt lat="42.848738" lon="-2.668203">
        <time>2021-08-21T19:23:58Z</time>
      </trkpt>
      <trkpt lat="42.848909" lon="-2.668279">
        <time>2021-08-21T19:24:21Z</time>
      </trkpt>
      <trkpt lat="42.848411" lon="-2.668283">
        <time>2021-08-21T19:25:44Z</time>
      </trkpt>
      <trkpt lat="42.848298" lon="-2.668247">
        <time>2021-08-21T19:25:47Z</time>
      </trkpt>
      <trkpt lat="42.847593" lon="-2.667735">
        <time>2021-08-21T19:25:59Z</time>
      </trkpt>
      <trkpt lat="42.847287" lon="-2.667711">
        <time>2021-08-21T19:26:02Z</time>
      </trkpt>
      <trkpt lat="42.845209" lon="-2.668149">
        <time>2021-08-21T19:26:26Z</time>
      </trkpt>
      <trkpt lat="42.844785" lon="-2.668253">
        <time>2021-08-21T19:27:26Z</time>
      </trkpt>
      <trkpt lat="42.843997" lon="-2.668238">
        <time>2021-08-21T19:27:44Z</time>
      </trkpt>
      <trkpt lat="42.843778" lon="-2.668172">
        <time>2021-08-21T19:27:50Z</time>
      </trkpt>
      <trkpt lat="42.843657" lon="-2.668156">
        <time>2021-08-21T19:27:53Z</time>
      </trkpt>
      <trkpt lat="42.84314" lon="-2.668065">
        <time>2021-08-21T19:28:05Z</time>
      </trkpt>
      <trkpt lat="42.843118" lon="-2.668106">
        <time>2021-08-21T19:28:08Z</time>
      </trkpt>
      <trkpt lat="42.842873" lon="-2.668289">
        <time>2021-08-21T19:28:14Z</time>
      </trkpt>
      <trkpt lat="42.842877" lon="-2.668344">
        <time>2021-08-21T19:28:17Z</time>
      </trkpt>
      <trkpt lat="42.842876" lon="-2.668495">
        <time>2021-08-21T19:28:23Z</time>
      </trkpt>
      <trkpt lat="42.84283" lon="-2.668683">
        <time>2021-08-21T19:28:29Z</time>
      </trkpt>
      <trkpt lat="42.842668" lon="-2.669245">
        <time>2021-08-21T19:28:41Z</time>
      </trkpt>
      <trkpt lat="42.842616" lon="-2.669421">
        <time>2021-08-21T19:29:35Z</time>
      </trkpt>
      <trkpt lat="42.84251" lon="-2.669711">
        <time>2021-08-21T19:29:44Z</time>
      </trkpt>
      <trkpt lat="42.84258" lon="-2.669938">
        <time>2021-08-21T19:29:47Z</time>
      </trkpt>
      <trkpt lat="42.842667" lon="-2.670474">
        <time>2021-08-21T19:29:59Z</time>
      </trkpt>
      <trkpt lat="42.842564" lon="-2.670667">
        <time>2021-08-21T19:30:02Z</time>
      </trkpt>
      <trkpt lat="42.842088" lon="-2.670839">
        <time>2021-08-21T19:30:05Z</time>
      </trkpt>
      <trkpt lat="42.842088" lon="-2.670839">
        <time>2021-08-21T19:30:05Z</time>
      </trkpt>
      <trkpt lat="42.842058" lon="-2.671268">
        <time>2021-08-21T19:30:20Z</time>
      </trkpt>
      <trkpt lat="42.843305" lon="-2.67404">
        <time>2021-08-21T19:31:09Z</time>
      </trkpt>
      <trkpt lat="42.843305" lon="-2.67404">
        <time>2021-08-21T19:31:09Z</time>
      </trkpt>
      <trkpt lat="42.843305" lon="-2.67404">
        <time>2021-08-21T19:31:09Z</time>
      </trkpt>
      <trkpt lat="42.843305" lon="-2.67404">
        <time>2021-08-21T19:31:09Z</time>
      </trkpt>
      <trkpt lat="42.843305" lon="-2.67404">
        <time>2021-08-21T19:31:09Z</time>
      </trkpt>
      <trkpt lat="42.843305" lon="-2.67404">
        <time>2021-08-21T19:31:09Z</time>
      </trkpt>
      <trkpt lat="42.843098" lon="-2.674729">
        <time>2021-08-21T19:31:21Z</time>
      </trkpt>
      <trkpt lat="42.843067" lon="-2.675012">
        <time>2021-08-21T19:31:24Z</time>
      </trkpt>
      <trkpt lat="42.843008" lon="-2.675287">
        <time>2021-08-21T19:32:06Z</time>
      </trkpt>
      <trkpt lat="42.842972" lon="-2.675535">
        <time>2021-08-21T19:32:15Z</time>
      </trkpt>
      <trkpt lat="42.842952" lon="-2.675691">
        <time>2021-08-21T19:32:18Z</time>
      </trkpt>
      <trkpt lat="42.843112" lon="-2.676377">
        <time>2021-08-21T19:32:24Z</time>
      </trkpt>
      <trkpt lat="42.84341" lon="-2.677351">
        <time>2021-08-21T19:33:03Z</time>
      </trkpt>
      <trkpt lat="42.843578" lon="-2.677891">
        <time>2021-08-21T19:33:09Z</time>
      </trkpt>
      <trkpt lat="42.843491" lon="-2.678266">
        <time>2021-08-21T19:33:12Z</time>
      </trkpt>
      <trkpt lat="42.84268" lon="-2.681895">
        <time>2021-08-21T19:34:54Z</time>
      </trkpt>
      <trkpt lat="42.842558" lon="-2.682211">
        <time>2021-08-21T19:34:57Z</time>
      </trkpt>
      <trkpt lat="42.84192" lon="-2.683302">
        <time>2021-08-21T19:35:06Z</time>
      </trkpt>
      <trkpt lat="42.84067" lon="-2.68743">
        <time>2021-08-21T19:35:51Z</time>
      </trkpt>
      <trkpt lat="42.840566" lon="-2.68768">
        <time>2021-08-21T19:35:51Z</time>
      </trkpt>
      <trkpt lat="42.839888" lon="-2.689701">
        <time>2021-08-21T19:36:15Z</time>
      </trkpt>
      <trkpt lat="42.839796" lon="-2.69029">
        <time>2021-08-21T19:36:21Z</time>
      </trkpt>
      <trkpt lat="42.84" lon="-2.690471">
        <time>2021-08-21T19:36:24Z</time>
      </trkpt>
      <trkpt lat="42.841982" lon="-2.691966">
        <time>2021-08-21T19:36:51Z</time>
      </trkpt>
      <trkpt lat="42.842228" lon="-2.692054">
        <time>2021-08-21T19:36:54Z</time>
      </trkpt>
      <trkpt lat="42.844113" lon="-2.691945">
        <time>2021-08-21T19:37:15Z</time>
      </trkpt>
      <trkpt lat="42.844616" lon="-2.691811">
        <time>2021-08-21T19:37:24Z</time>
      </trkpt>
      <trkpt lat="42.844644" lon="-2.691885">
        <time>2021-08-21T19:37:27Z</time>
      </trkpt>
      <trkpt lat="42.844603" lon="-2.691902">
        <time>2021-08-21T19:37:30Z</time>
      </trkpt>
      <trkpt lat="42.84454" lon="-2.692214">
        <time>2021-08-21T19:37:36Z</time>
      </trkpt>
      <trkpt lat="42.84458" lon="-2.692529">
        <time>2021-08-21T19:37:39Z</time>
      </trkpt>
      <trkpt lat="42.844873" lon="-2.69364">
        <time>2021-08-21T19:37:48Z</time>
      </trkpt>
      <trkpt lat="42.845141" lon="-2.69414">
        <time>2021-08-21T19:37:54Z</time>
      </trkpt>
      <trkpt lat="42.845141" lon="-2.69414">
        <time>2021-08-21T19:37:54Z</time>
      </trkpt>
      <trkpt lat="42.845248" lon="-2.6951">
        <time>2021-08-21T19:38:03Z</time>
      </trkpt>
      <trkpt lat="42.845537" lon="-2.695758">
        <time>2021-08-21T19:38:09Z</time>
      </trkpt>
      <trkpt lat="42.84583" lon="-2.695877">
        <time>2021-08-21T19:38:12Z</time>
      </trkpt>
      <trkpt lat="42.847963" lon="-2.69523">
        <time>2021-08-21T19:38:30Z</time>
      </trkpt>
      <trkpt lat="42.84837" lon="-2.695004">
        <time>2021-08-21T19:38:36Z</time>
      </trkpt>
      <trkpt lat="42.848511" lon="-2.695219">
        <time>2021-08-21T19:38:39Z</time>
      </trkpt>
      <trkpt lat="42.848467" lon="-2.69551">
        <time>2021-08-21T19:38:42Z</time>
      </trkpt>
      <trkpt lat="42.848467" lon="-2.69551">
        <time>2021-08-21T19:38:42Z</time>
      </trkpt>
      <trkpt lat="42.848395" lon="-2.695827">
        <time>2021-08-21T19:38:45Z</time>
      </trkpt>
      <trkpt lat="42.848462" lon="-2.696259">
        <time>2021-08-21T19:38:48Z</time>
      </trkpt>
      <trkpt lat="42.849181" lon="-2.699583">
        <time>2021-08-21T19:39:15Z</time>
      </trkpt>
      <trkpt lat="42.849206" lon="-2.699815">
        <time>2021-08-21T19:39:18Z</time>
      </trkpt>
      <trkpt lat="42.849023" lon="-2.699892">
        <time>2021-08-21T19:39:21Z</time>
      </trkpt>
      <trkpt lat="42.849019" lon="-2.700172">
        <time>2021-08-21T19:39:24Z</time>
      </trkpt>
      <trkpt lat="42.848953" lon="-2.700245">
        <time>2021-08-21T19:39:33Z</time>
      </trkpt>
      <trkpt lat="42.84899" lon="-2.700314">
        <time>2021-08-21T19:39:36Z</time>
      </trkpt>
      <trkpt lat="42.848978" lon="-2.700435">
        <time>2021-08-21T19:39:39Z</time>
      </trkpt>
      <trkpt lat="42.849012" lon="-2.700674">
        <time>2021-08-21T19:39:42Z</time>
      </trkpt>
      <trkpt lat="42.848978" lon="-2.700892">
        <time>2021-08-21T19:39:45Z</time>
      </trkpt>
      <trkpt lat="42.84997" lon="-2.703559">
        <time>2021-08-21T19:39:52Z</time>
      </trkpt>
      <trkpt lat="42.84997" lon="-2.703559">
        <time>2021-08-21T19:39:52Z</time>
      </trkpt>
      <trkpt lat="42.849581" lon="-2.703781">
        <time>2021-08-21T19:40:01Z</time>
      </trkpt>
      <trkpt lat="42.849991" lon="-2.704439">
        <time>2021-08-21T19:40:04Z</time>
      </trkpt>
      <trkpt lat="42.852311" lon="-2.70853">
        <time>2021-08-21T19:40:25Z</time>
      </trkpt>
      <trkpt lat="42.852311" lon="-2.70853">
        <time>2021-08-21T19:40:25Z</time>
      </trkpt>
      <trkpt lat="42.852755" lon="-2.708949">
        <time>2021-08-21T19:40:31Z</time>
      </trkpt>
      <trkpt lat="42.854095" lon="-2.70822">
        <time>2021-08-21T19:40:43Z</time>
      </trkpt>
      <trkpt lat="42.854709" lon="-2.707262">
        <time>2021-08-21T19:40:52Z</time>
      </trkpt>
      <trkpt lat="42.854806" lon="-2.706908">
        <time>2021-08-21T19:40:55Z</time>
      </trkpt>
      <trkpt lat="42.855071" lon="-2.706251">
        <time>2021-08-21T19:41:01Z</time>
      </trkpt>
      <trkpt lat="42.855247" lon="-2.706222">
        <time>2021-08-21T19:41:04Z</time>
      </trkpt>
      <trkpt lat="42.85535" lon="-2.706387">
        <time>2021-08-21T19:41:07Z</time>
      </trkpt>
      <trkpt lat="42.855321" lon="-2.706688">
        <time>2021-08-21T19:41:10Z</time>
      </trkpt>
      <trkpt lat="42.855256" lon="-2.707077">
        <time>2021-08-21T19:41:13Z</time>
      </trkpt>
      <trkpt lat="42.855279" lon="-2.707269">
        <time>2021-08-21T19:41:16Z</time>
      </trkpt>
      <trkpt lat="42.856419" lon="-2.71305">
        <time>2021-08-21T19:41:55Z</time>
      </trkpt>
      <trkpt lat="42.856767" lon="-2.714645">
        <time>2021-08-21T19:42:10Z</time>
      </trkpt>
      <trkpt lat="42.856766" lon="-2.714808">
        <time>2021-08-21T19:42:13Z</time>
      </trkpt>
      <trkpt lat="42.856712" lon="-2.71482">
        <time>2021-08-21T19:42:25Z</time>
      </trkpt>
      <trkpt lat="42.856569" lon="-2.714259">
        <time>2021-08-21T19:42:31Z</time>
      </trkpt>
      <trkpt lat="42.855866" lon="-2.709896">
        <time>2021-08-21T19:42:58Z</time>
      </trkpt>
      <trkpt lat="42.855238" lon="-2.706812">
        <time>2021-08-21T19:43:19Z</time>
      </trkpt>
      <trkpt lat="42.855056" lon="-2.706265">
        <time>2021-08-21T19:43:25Z</time>
      </trkpt>
      <trkpt lat="42.855363" lon="-2.70593">
        <time>2021-08-21T19:43:31Z</time>
      </trkpt>
      <trkpt lat="42.855466" lon="-2.706167">
        <time>2021-08-21T19:43:34Z</time>
      </trkpt>
      <trkpt lat="42.855344" lon="-2.706878">
        <time>2021-08-21T19:43:40Z</time>
      </trkpt>
      <trkpt lat="42.855398" lon="-2.707297">
        <time>2021-08-21T19:43:43Z</time>
      </trkpt>
      <trkpt lat="42.855498" lon="-2.707775">
        <time>2021-08-21T19:43:46Z</time>
      </trkpt>
      <trkpt lat="42.856231" lon="-2.711486">
        <time>2021-08-21T19:44:10Z</time>
      </trkpt>
      <trkpt lat="42.856307" lon="-2.711547">
        <time>2021-08-21T19:44:13Z</time>
      </trkpt>
      <trkpt lat="42.85647" lon="-2.711504">
        <time>2021-08-21T19:44:19Z</time>
      </trkpt>
      <trkpt lat="42.856493" lon="-2.711504">
        <time>2021-08-21T19:45:36Z</time>
      </trkpt>
      <trkpt lat="42.856493" lon="-2.711504">
        <time>2021-08-21T19:45:36Z</time>
      </trkpt>
    </trkseg>
  </trk>
</gpx>
